<?xml version="1.0" encoding="UTF-8" standalone="no" ?>
<gpx xmlns="http://www.topografix.com/GPX/1/1" xmlns:xsi="http://www.w3.org/2001/XMLSchema-instance" xsi:schemaLocation="http://www.topografix.com/GPX/1/1 http://www.topografix.com/GPX/1/1/gpx.xsd" version="1.1" creator="VisuGPX - https://www.visugpx.com">
  <metadata>
    <name>Boucle de Saint-Rémy-lès-Chevreuses.</name>
    <desc><![CDATA[Belle randonnée ensoleillée.
Un peu longue mais très beau parcours.]]></desc>
  </metadata>
  <trk>
    <name><![CDATA[Boucle de Saint-Rémy-lès-Chevreuses._1]]></name>
    <trkseg>
      <trkpt lat="48.70266" lon="2.07056">
        <ele>81.403549194336</ele>
        <time>2016-09-22T07:26:40.000Z</time>
      </trkpt>
      <trkpt lat="48.70267" lon="2.07057">
        <ele>81.371505737305</ele>
        <time>2016-09-22T07:26:44.000Z</time>
      </trkpt>
      <trkpt lat="48.70267" lon="2.07059">
        <ele>81.371154785156</ele>
        <time>2016-09-22T07:26:47.000Z</time>
      </trkpt>
      <trkpt lat="48.70267" lon="2.07059">
        <ele>81.371154785156</ele>
        <time>2016-09-22T07:27:07.000Z</time>
      </trkpt>
      <trkpt lat="48.70264" lon="2.07056">
        <ele>81.406478881836</ele>
        <time>2016-09-22T07:27:34.000Z</time>
      </trkpt>
      <trkpt lat="48.70265" lon="2.07055">
        <ele>81.40739440918</ele>
        <time>2016-09-22T07:27:42.000Z</time>
      </trkpt>
      <trkpt lat="48.70269" lon="2.07053">
        <ele>81.35375213623</ele>
        <time>2016-09-22T07:27:44.000Z</time>
      </trkpt>
      <trkpt lat="48.70275" lon="2.07056">
        <ele>81.248764038086</ele>
        <time>2016-09-22T07:27:47.000Z</time>
      </trkpt>
      <trkpt lat="48.70281" lon="2.07062">
        <ele>81.085975646973</ele>
        <time>2016-09-22T07:27:50.000Z</time>
      </trkpt>
      <trkpt lat="48.70285" lon="2.07068">
        <ele>80.853591918945</ele>
        <time>2016-09-22T07:27:53.000Z</time>
      </trkpt>
      <trkpt lat="48.70288" lon="2.07071">
        <ele>80.609481811523</ele>
        <time>2016-09-22T07:27:55.000Z</time>
      </trkpt>
      <trkpt lat="48.70291" lon="2.07076">
        <ele>80.383689880371</ele>
        <time>2016-09-22T07:27:58.000Z</time>
      </trkpt>
      <trkpt lat="48.70292" lon="2.0708">
        <ele>80.209671020508</ele>
        <time>2016-09-22T07:28:01.000Z</time>
      </trkpt>
      <trkpt lat="48.70292" lon="2.0708">
        <ele>80.209671020508</ele>
        <time>2016-09-22T07:28:21.000Z</time>
      </trkpt>
      <trkpt lat="48.70292" lon="2.07081">
        <ele>80.094413757324</ele>
        <time>2016-09-22T07:28:25.000Z</time>
      </trkpt>
      <trkpt lat="48.70297" lon="2.07082">
        <ele>79.945861816406</ele>
        <time>2016-09-22T07:28:32.000Z</time>
      </trkpt>
      <trkpt lat="48.70299" lon="2.07081">
        <ele>79.805526733398</ele>
        <time>2016-09-22T07:28:52.000Z</time>
      </trkpt>
      <trkpt lat="48.70301" lon="2.0708">
        <ele>79.672668457031</ele>
        <time>2016-09-22T07:28:55.000Z</time>
      </trkpt>
      <trkpt lat="48.70296" lon="2.07079">
        <ele>79.61466217041</ele>
        <time>2016-09-22T07:28:59.000Z</time>
      </trkpt>
      <trkpt lat="48.70296" lon="2.07076">
        <ele>79.547348022461</ele>
        <time>2016-09-22T07:29:10.000Z</time>
      </trkpt>
      <trkpt lat="48.70296" lon="2.07072">
        <ele>79.551078796387</ele>
        <time>2016-09-22T07:29:13.000Z</time>
      </trkpt>
      <trkpt lat="48.70295" lon="2.07068">
        <ele>79.58576965332</ele>
        <time>2016-09-22T07:29:16.000Z</time>
      </trkpt>
      <trkpt lat="48.70296" lon="2.07066">
        <ele>79.642990112305</ele>
        <time>2016-09-22T07:29:18.000Z</time>
      </trkpt>
      <trkpt lat="48.70296" lon="2.07066">
        <ele>79.642990112305</ele>
        <time>2016-09-22T07:29:38.000Z</time>
      </trkpt>
      <trkpt lat="48.70296" lon="2.07064">
        <ele>79.625991821289</ele>
        <time>2016-09-22T07:29:39.000Z</time>
      </trkpt>
      <trkpt lat="48.70297" lon="2.07062">
        <ele>79.604393005371</ele>
        <time>2016-09-22T07:29:42.000Z</time>
      </trkpt>
      <trkpt lat="48.70296" lon="2.0706">
        <ele>79.589683532715</ele>
        <time>2016-09-22T07:29:45.000Z</time>
      </trkpt>
      <trkpt lat="48.70298" lon="2.07057">
        <ele>79.550338745117</ele>
        <time>2016-09-22T07:29:48.000Z</time>
      </trkpt>
      <trkpt lat="48.70298" lon="2.07055">
        <ele>79.511711120605</ele>
        <time>2016-09-22T07:29:50.000Z</time>
      </trkpt>
      <trkpt lat="48.70293" lon="2.07054">
        <ele>79.542343139648</ele>
        <time>2016-09-22T07:29:55.000Z</time>
      </trkpt>
      <trkpt lat="48.70294" lon="2.07053">
        <ele>79.568962097168</ele>
        <time>2016-09-22T07:30:05.000Z</time>
      </trkpt>
      <trkpt lat="48.70294" lon="2.0705">
        <ele>79.588989257812</ele>
        <time>2016-09-22T07:30:08.000Z</time>
      </trkpt>
      <trkpt lat="48.70295" lon="2.07047">
        <ele>79.610275268555</ele>
        <time>2016-09-22T07:30:11.000Z</time>
      </trkpt>
      <trkpt lat="48.70296" lon="2.07045">
        <ele>79.63117980957</ele>
        <time>2016-09-22T07:30:14.000Z</time>
      </trkpt>
      <trkpt lat="48.70296" lon="2.07043">
        <ele>79.588821411133</ele>
        <time>2016-09-22T07:30:17.000Z</time>
      </trkpt>
      <trkpt lat="48.70296" lon="2.0704">
        <ele>79.558547973633</ele>
        <time>2016-09-22T07:30:20.000Z</time>
      </trkpt>
      <trkpt lat="48.70294" lon="2.07036">
        <ele>79.549461364746</ele>
        <time>2016-09-22T07:30:29.000Z</time>
      </trkpt>
      <trkpt lat="48.70295" lon="2.07031">
        <ele>79.542953491211</ele>
        <time>2016-09-22T07:30:32.000Z</time>
      </trkpt>
      <trkpt lat="48.70295" lon="2.07027">
        <ele>79.535377502441</ele>
        <time>2016-09-22T07:30:34.000Z</time>
      </trkpt>
      <trkpt lat="48.70295" lon="2.07023">
        <ele>79.534118652344</ele>
        <time>2016-09-22T07:30:36.000Z</time>
      </trkpt>
      <trkpt lat="48.70294" lon="2.07019">
        <ele>79.530807495117</ele>
        <time>2016-09-22T07:30:39.000Z</time>
      </trkpt>
      <trkpt lat="48.70293" lon="2.07014">
        <ele>79.511268615723</ele>
        <time>2016-09-22T07:30:41.000Z</time>
      </trkpt>
      <trkpt lat="48.70293" lon="2.07008">
        <ele>79.499847412109</ele>
        <time>2016-09-22T07:30:44.000Z</time>
      </trkpt>
      <trkpt lat="48.70294" lon="2.07005">
        <ele>79.486236572266</ele>
        <time>2016-09-22T07:30:46.000Z</time>
      </trkpt>
      <trkpt lat="48.70294" lon="2.07002">
        <ele>79.46875</ele>
        <time>2016-09-22T07:30:48.000Z</time>
      </trkpt>
      <trkpt lat="48.70294" lon="2.06997">
        <ele>79.437713623047</ele>
        <time>2016-09-22T07:30:51.000Z</time>
      </trkpt>
      <trkpt lat="48.70294" lon="2.06993">
        <ele>79.392684936523</ele>
        <time>2016-09-22T07:30:53.000Z</time>
      </trkpt>
      <trkpt lat="48.70294" lon="2.0699">
        <ele>79.340072631836</ele>
        <time>2016-09-22T07:30:55.000Z</time>
      </trkpt>
      <trkpt lat="48.70297" lon="2.06987">
        <ele>79.26318359375</ele>
        <time>2016-09-22T07:30:58.000Z</time>
      </trkpt>
      <trkpt lat="48.70301" lon="2.06987">
        <ele>79.157562255859</ele>
        <time>2016-09-22T07:31:01.000Z</time>
      </trkpt>
      <trkpt lat="48.70303" lon="2.06987">
        <ele>79.045471191406</ele>
        <time>2016-09-22T07:31:03.000Z</time>
      </trkpt>
      <trkpt lat="48.70306" lon="2.06987">
        <ele>78.924613952637</ele>
        <time>2016-09-22T07:31:06.000Z</time>
      </trkpt>
      <trkpt lat="48.70308" lon="2.06986">
        <ele>78.792587280273</ele>
        <time>2016-09-22T07:31:08.000Z</time>
      </trkpt>
      <trkpt lat="48.7031" lon="2.06985">
        <ele>78.672439575195</ele>
        <time>2016-09-22T07:31:10.000Z</time>
      </trkpt>
      <trkpt lat="48.7031" lon="2.06986">
        <ele>78.591667175293</ele>
        <time>2016-09-22T07:31:18.000Z</time>
      </trkpt>
      <trkpt lat="48.7031" lon="2.06986">
        <ele>78.591667175293</ele>
        <time>2016-09-22T07:31:38.000Z</time>
      </trkpt>
      <trkpt lat="48.70311" lon="2.06983">
        <ele>78.502090454102</ele>
        <time>2016-09-22T07:31:58.000Z</time>
      </trkpt>
      <trkpt lat="48.70314" lon="2.06982">
        <ele>78.410438537598</ele>
        <time>2016-09-22T07:32:00.000Z</time>
      </trkpt>
      <trkpt lat="48.70316" lon="2.06982">
        <ele>78.321914672852</ele>
        <time>2016-09-22T07:32:02.000Z</time>
      </trkpt>
      <trkpt lat="48.70318" lon="2.06981">
        <ele>78.230590820312</ele>
        <time>2016-09-22T07:32:04.000Z</time>
      </trkpt>
      <trkpt lat="48.70321" lon="2.06979">
        <ele>78.090744018555</ele>
        <time>2016-09-22T07:32:07.000Z</time>
      </trkpt>
      <trkpt lat="48.70322" lon="2.06975">
        <ele>77.952621459961</ele>
        <time>2016-09-22T07:32:09.000Z</time>
      </trkpt>
      <trkpt lat="48.70324" lon="2.06971">
        <ele>77.795295715332</ele>
        <time>2016-09-22T07:32:12.000Z</time>
      </trkpt>
      <trkpt lat="48.70325" lon="2.06969">
        <ele>77.633399963379</ele>
        <time>2016-09-22T07:32:15.000Z</time>
      </trkpt>
      <trkpt lat="48.70325" lon="2.06969">
        <ele>77.633399963379</ele>
        <time>2016-09-22T07:32:35.000Z</time>
      </trkpt>
      <trkpt lat="48.70325" lon="2.06966">
        <ele>77.468887329102</ele>
        <time>2016-09-22T07:32:46.000Z</time>
      </trkpt>
      <trkpt lat="48.70325" lon="2.06962">
        <ele>77.317459106445</ele>
        <time>2016-09-22T07:32:48.000Z</time>
      </trkpt>
      <trkpt lat="48.70325" lon="2.06958">
        <ele>77.179000854492</ele>
        <time>2016-09-22T07:32:50.000Z</time>
      </trkpt>
      <trkpt lat="48.70324" lon="2.06953">
        <ele>77.054298400879</ele>
        <time>2016-09-22T07:32:53.000Z</time>
      </trkpt>
      <trkpt lat="48.70324" lon="2.06949">
        <ele>76.93098449707</ele>
        <time>2016-09-22T07:32:56.000Z</time>
      </trkpt>
      <trkpt lat="48.70324" lon="2.06944">
        <ele>76.811141967773</ele>
        <time>2016-09-22T07:32:59.000Z</time>
      </trkpt>
      <trkpt lat="48.70322" lon="2.06939">
        <ele>76.708190917969</ele>
        <time>2016-09-22T07:33:02.000Z</time>
      </trkpt>
      <trkpt lat="48.70321" lon="2.06935">
        <ele>76.613418579102</ele>
        <time>2016-09-22T07:33:04.000Z</time>
      </trkpt>
      <trkpt lat="48.70319" lon="2.06932">
        <ele>76.552452087402</ele>
        <time>2016-09-22T07:33:06.000Z</time>
      </trkpt>
      <trkpt lat="48.70317" lon="2.06929">
        <ele>76.524169921875</ele>
        <time>2016-09-22T07:33:08.000Z</time>
      </trkpt>
      <trkpt lat="48.70314" lon="2.06923">
        <ele>76.520751953125</ele>
        <time>2016-09-22T07:33:11.000Z</time>
      </trkpt>
      <trkpt lat="48.70313" lon="2.06918">
        <ele>76.523483276367</ele>
        <time>2016-09-22T07:33:14.000Z</time>
      </trkpt>
      <trkpt lat="48.70311" lon="2.06913">
        <ele>76.54044342041</ele>
        <time>2016-09-22T07:33:17.000Z</time>
      </trkpt>
      <trkpt lat="48.70309" lon="2.06909">
        <ele>76.574630737305</ele>
        <time>2016-09-22T07:33:20.000Z</time>
      </trkpt>
      <trkpt lat="48.70308" lon="2.06905">
        <ele>76.618087768555</ele>
        <time>2016-09-22T07:33:22.000Z</time>
      </trkpt>
      <trkpt lat="48.70306" lon="2.069">
        <ele>76.674530029297</ele>
        <time>2016-09-22T07:33:25.000Z</time>
      </trkpt>
      <trkpt lat="48.70304" lon="2.06895">
        <ele>76.749572753906</ele>
        <time>2016-09-22T07:33:28.000Z</time>
      </trkpt>
      <trkpt lat="48.70303" lon="2.0689">
        <ele>76.824966430664</ele>
        <time>2016-09-22T07:33:31.000Z</time>
      </trkpt>
      <trkpt lat="48.70302" lon="2.06887">
        <ele>76.887718200684</ele>
        <time>2016-09-22T07:33:33.000Z</time>
      </trkpt>
      <trkpt lat="48.703" lon="2.06882">
        <ele>76.944595336914</ele>
        <time>2016-09-22T07:33:36.000Z</time>
      </trkpt>
      <trkpt lat="48.70298" lon="2.06878">
        <ele>77.004013061523</ele>
        <time>2016-09-22T07:33:39.000Z</time>
      </trkpt>
      <trkpt lat="48.70296" lon="2.06873">
        <ele>77.059997558594</ele>
        <time>2016-09-22T07:33:42.000Z</time>
      </trkpt>
      <trkpt lat="48.70295" lon="2.06869">
        <ele>77.114013671875</ele>
        <time>2016-09-22T07:33:45.000Z</time>
      </trkpt>
      <trkpt lat="48.70293" lon="2.06864">
        <ele>77.179840087891</ele>
        <time>2016-09-22T07:33:48.000Z</time>
      </trkpt>
      <trkpt lat="48.70291" lon="2.06861">
        <ele>77.245384216309</ele>
        <time>2016-09-22T07:33:50.000Z</time>
      </trkpt>
      <trkpt lat="48.70287" lon="2.06856">
        <ele>77.322395324707</ele>
        <time>2016-09-22T07:33:53.000Z</time>
      </trkpt>
      <trkpt lat="48.70286" lon="2.06853">
        <ele>77.398574829102</ele>
        <time>2016-09-22T07:33:55.000Z</time>
      </trkpt>
      <trkpt lat="48.70284" lon="2.06848">
        <ele>77.471733093262</ele>
        <time>2016-09-22T07:33:58.000Z</time>
      </trkpt>
      <trkpt lat="48.70281" lon="2.06844">
        <ele>77.54386138916</ele>
        <time>2016-09-22T07:34:01.000Z</time>
      </trkpt>
      <trkpt lat="48.70279" lon="2.06841">
        <ele>77.610984802246</ele>
        <time>2016-09-22T07:34:03.000Z</time>
      </trkpt>
      <trkpt lat="48.70277" lon="2.06835">
        <ele>77.657272338867</ele>
        <time>2016-09-22T07:34:06.000Z</time>
      </trkpt>
      <trkpt lat="48.70276" lon="2.06833">
        <ele>77.691688537598</ele>
        <time>2016-09-22T07:34:08.000Z</time>
      </trkpt>
      <trkpt lat="48.70275" lon="2.0683">
        <ele>77.729080200195</ele>
        <time>2016-09-22T07:34:10.000Z</time>
      </trkpt>
      <trkpt lat="48.70275" lon="2.06826">
        <ele>77.75074005127</ele>
        <time>2016-09-22T07:34:13.000Z</time>
      </trkpt>
      <trkpt lat="48.70274" lon="2.06821">
        <ele>77.770584106445</ele>
        <time>2016-09-22T07:34:16.000Z</time>
      </trkpt>
      <trkpt lat="48.70273" lon="2.06818">
        <ele>77.793441772461</ele>
        <time>2016-09-22T07:34:18.000Z</time>
      </trkpt>
      <trkpt lat="48.70271" lon="2.06815">
        <ele>77.829231262207</ele>
        <time>2016-09-22T07:34:20.000Z</time>
      </trkpt>
      <trkpt lat="48.70269" lon="2.06808">
        <ele>77.880508422852</ele>
        <time>2016-09-22T07:34:23.000Z</time>
      </trkpt>
      <trkpt lat="48.70268" lon="2.06804">
        <ele>77.937301635742</ele>
        <time>2016-09-22T07:34:26.000Z</time>
      </trkpt>
      <trkpt lat="48.70267" lon="2.06801">
        <ele>77.99634552002</ele>
        <time>2016-09-22T07:34:28.000Z</time>
      </trkpt>
      <trkpt lat="48.70266" lon="2.06795">
        <ele>78.055702209473</ele>
        <time>2016-09-22T07:34:31.000Z</time>
      </trkpt>
      <trkpt lat="48.70266" lon="2.06791">
        <ele>78.103019714355</ele>
        <time>2016-09-22T07:34:33.000Z</time>
      </trkpt>
      <trkpt lat="48.70265" lon="2.06786">
        <ele>78.130851745605</ele>
        <time>2016-09-22T07:34:36.000Z</time>
      </trkpt>
      <trkpt lat="48.70264" lon="2.0678">
        <ele>78.154930114746</ele>
        <time>2016-09-22T07:34:39.000Z</time>
      </trkpt>
      <trkpt lat="48.70264" lon="2.06777">
        <ele>78.175132751465</ele>
        <time>2016-09-22T07:34:41.000Z</time>
      </trkpt>
      <trkpt lat="48.70264" lon="2.06773">
        <ele>78.188148498535</ele>
        <time>2016-09-22T07:34:43.000Z</time>
      </trkpt>
      <trkpt lat="48.70263" lon="2.06768">
        <ele>78.214767456055</ele>
        <time>2016-09-22T07:34:46.000Z</time>
      </trkpt>
      <trkpt lat="48.70262" lon="2.06762">
        <ele>78.24210357666</ele>
        <time>2016-09-22T07:34:49.000Z</time>
      </trkpt>
      <trkpt lat="48.70262" lon="2.06758">
        <ele>78.266220092773</ele>
        <time>2016-09-22T07:34:51.000Z</time>
      </trkpt>
      <trkpt lat="48.70261" lon="2.06755">
        <ele>78.295974731445</ele>
        <time>2016-09-22T07:34:53.000Z</time>
      </trkpt>
      <trkpt lat="48.7026" lon="2.0675">
        <ele>78.330894470215</ele>
        <time>2016-09-22T07:34:56.000Z</time>
      </trkpt>
      <trkpt lat="48.70259" lon="2.06746">
        <ele>78.361595153809</ele>
        <time>2016-09-22T07:34:58.000Z</time>
      </trkpt>
      <trkpt lat="48.70258" lon="2.06742">
        <ele>78.39762878418</ele>
        <time>2016-09-22T07:35:00.000Z</time>
      </trkpt>
      <trkpt lat="48.70257" lon="2.06736">
        <ele>78.442993164062</ele>
        <time>2016-09-22T07:35:03.000Z</time>
      </trkpt>
      <trkpt lat="48.70256" lon="2.06733">
        <ele>78.48893737793</ele>
        <time>2016-09-22T07:35:05.000Z</time>
      </trkpt>
      <trkpt lat="48.70256" lon="2.0673">
        <ele>78.536178588867</ele>
        <time>2016-09-22T07:35:07.000Z</time>
      </trkpt>
      <trkpt lat="48.70255" lon="2.06725">
        <ele>78.585266113281</ele>
        <time>2016-09-22T07:35:10.000Z</time>
      </trkpt>
      <trkpt lat="48.70255" lon="2.06722">
        <ele>78.625602722168</ele>
        <time>2016-09-22T07:35:12.000Z</time>
      </trkpt>
      <trkpt lat="48.70254" lon="2.06716">
        <ele>78.662673950195</ele>
        <time>2016-09-22T07:35:15.000Z</time>
      </trkpt>
      <trkpt lat="48.70253" lon="2.06713">
        <ele>78.701293945312</ele>
        <time>2016-09-22T07:35:17.000Z</time>
      </trkpt>
      <trkpt lat="48.70253" lon="2.06709">
        <ele>78.723899841309</ele>
        <time>2016-09-22T07:35:20.000Z</time>
      </trkpt>
      <trkpt lat="48.70253" lon="2.06705">
        <ele>78.736221313477</ele>
        <time>2016-09-22T07:35:23.000Z</time>
      </trkpt>
      <trkpt lat="48.70252" lon="2.06701">
        <ele>78.766647338867</ele>
        <time>2016-09-22T07:35:25.000Z</time>
      </trkpt>
      <trkpt lat="48.70253" lon="2.06695">
        <ele>78.768142700195</ele>
        <time>2016-09-22T07:35:28.000Z</time>
      </trkpt>
      <trkpt lat="48.70252" lon="2.0669">
        <ele>78.776702880859</ele>
        <time>2016-09-22T07:35:31.000Z</time>
      </trkpt>
      <trkpt lat="48.70251" lon="2.06686">
        <ele>78.810371398926</ele>
        <time>2016-09-22T07:35:33.000Z</time>
      </trkpt>
      <trkpt lat="48.7025" lon="2.06681">
        <ele>78.862770080566</ele>
        <time>2016-09-22T07:35:36.000Z</time>
      </trkpt>
      <trkpt lat="48.7025" lon="2.06676">
        <ele>78.897857666016</ele>
        <time>2016-09-22T07:35:39.000Z</time>
      </trkpt>
      <trkpt lat="48.7025" lon="2.06673">
        <ele>78.951324462891</ele>
        <time>2016-09-22T07:35:41.000Z</time>
      </trkpt>
      <trkpt lat="48.70248" lon="2.06669">
        <ele>78.990844726562</ele>
        <time>2016-09-22T07:35:43.000Z</time>
      </trkpt>
      <trkpt lat="48.70245" lon="2.06664">
        <ele>79.008483886719</ele>
        <time>2016-09-22T07:35:46.000Z</time>
      </trkpt>
      <trkpt lat="48.70244" lon="2.06661">
        <ele>78.996887207031</ele>
        <time>2016-09-22T07:35:49.000Z</time>
      </trkpt>
      <trkpt lat="48.70246" lon="2.06655">
        <ele>78.95320892334</ele>
        <time>2016-09-22T07:35:52.000Z</time>
      </trkpt>
      <trkpt lat="48.70247" lon="2.06651">
        <ele>78.891479492188</ele>
        <time>2016-09-22T07:35:54.000Z</time>
      </trkpt>
      <trkpt lat="48.70245" lon="2.06648">
        <ele>78.817825317383</ele>
        <time>2016-09-22T07:35:56.000Z</time>
      </trkpt>
      <trkpt lat="48.70244" lon="2.06644">
        <ele>78.734001159668</ele>
        <time>2016-09-22T07:35:59.000Z</time>
      </trkpt>
      <trkpt lat="48.70243" lon="2.0664">
        <ele>78.648330688477</ele>
        <time>2016-09-22T07:36:02.000Z</time>
      </trkpt>
      <trkpt lat="48.70243" lon="2.0663">
        <ele>78.554946899414</ele>
        <time>2016-09-22T07:36:11.000Z</time>
      </trkpt>
      <trkpt lat="48.7024" lon="2.06624">
        <ele>78.472579956055</ele>
        <time>2016-09-22T07:36:14.000Z</time>
      </trkpt>
      <trkpt lat="48.7024" lon="2.06621">
        <ele>78.387100219727</ele>
        <time>2016-09-22T07:36:17.000Z</time>
      </trkpt>
      <trkpt lat="48.70237" lon="2.06616">
        <ele>78.317672729492</ele>
        <time>2016-09-22T07:36:20.000Z</time>
      </trkpt>
      <trkpt lat="48.70235" lon="2.0661">
        <ele>78.247543334961</ele>
        <time>2016-09-22T07:36:23.000Z</time>
      </trkpt>
      <trkpt lat="48.70235" lon="2.06604">
        <ele>78.198287963867</ele>
        <time>2016-09-22T07:36:26.000Z</time>
      </trkpt>
      <trkpt lat="48.70235" lon="2.06601">
        <ele>78.141830444336</ele>
        <time>2016-09-22T07:36:28.000Z</time>
      </trkpt>
      <trkpt lat="48.70237" lon="2.06598">
        <ele>78.080642700195</ele>
        <time>2016-09-22T07:36:31.000Z</time>
      </trkpt>
      <trkpt lat="48.70236" lon="2.06594">
        <ele>78.007186889648</ele>
        <time>2016-09-22T07:36:34.000Z</time>
      </trkpt>
      <trkpt lat="48.70236" lon="2.06591">
        <ele>77.934967041016</ele>
        <time>2016-09-22T07:36:36.000Z</time>
      </trkpt>
      <trkpt lat="48.70235" lon="2.06586">
        <ele>77.870506286621</ele>
        <time>2016-09-22T07:36:39.000Z</time>
      </trkpt>
      <trkpt lat="48.70235" lon="2.0658">
        <ele>77.823226928711</ele>
        <time>2016-09-22T07:36:42.000Z</time>
      </trkpt>
      <trkpt lat="48.70234" lon="2.06576">
        <ele>77.802719116211</ele>
        <time>2016-09-22T07:36:49.000Z</time>
      </trkpt>
      <trkpt lat="48.70234" lon="2.06573">
        <ele>77.80591583252</ele>
        <time>2016-09-22T07:36:51.000Z</time>
      </trkpt>
      <trkpt lat="48.70233" lon="2.06568">
        <ele>77.839599609375</ele>
        <time>2016-09-22T07:36:53.000Z</time>
      </trkpt>
      <trkpt lat="48.70232" lon="2.06564">
        <ele>77.903427124023</ele>
        <time>2016-09-22T07:36:56.000Z</time>
      </trkpt>
      <trkpt lat="48.70231" lon="2.06563">
        <ele>77.981369018555</ele>
        <time>2016-09-22T07:36:59.000Z</time>
      </trkpt>
      <trkpt lat="48.70229" lon="2.06555">
        <ele>78.08162689209</ele>
        <time>2016-09-22T07:37:02.000Z</time>
      </trkpt>
      <trkpt lat="48.70229" lon="2.0655">
        <ele>78.19010925293</ele>
        <time>2016-09-22T07:37:04.000Z</time>
      </trkpt>
      <trkpt lat="48.70227" lon="2.06544">
        <ele>78.319122314453</ele>
        <time>2016-09-22T07:37:07.000Z</time>
      </trkpt>
      <trkpt lat="48.70227" lon="2.06539">
        <ele>78.447418212891</ele>
        <time>2016-09-22T07:37:09.000Z</time>
      </trkpt>
      <trkpt lat="48.70226" lon="2.06534">
        <ele>78.578819274902</ele>
        <time>2016-09-22T07:37:11.000Z</time>
      </trkpt>
      <trkpt lat="48.70226" lon="2.06527">
        <ele>78.702598571777</ele>
        <time>2016-09-22T07:37:14.000Z</time>
      </trkpt>
      <trkpt lat="48.70225" lon="2.06521">
        <ele>78.834693908691</ele>
        <time>2016-09-22T07:37:17.000Z</time>
      </trkpt>
      <trkpt lat="48.70225" lon="2.06517">
        <ele>78.947532653809</ele>
        <time>2016-09-22T07:37:19.000Z</time>
      </trkpt>
      <trkpt lat="48.70225" lon="2.06513">
        <ele>79.048133850098</ele>
        <time>2016-09-22T07:37:21.000Z</time>
      </trkpt>
      <trkpt lat="48.70225" lon="2.06508">
        <ele>79.142074584961</ele>
        <time>2016-09-22T07:37:23.000Z</time>
      </trkpt>
      <trkpt lat="48.70225" lon="2.06503">
        <ele>79.232345581055</ele>
        <time>2016-09-22T07:37:25.000Z</time>
      </trkpt>
      <trkpt lat="48.70224" lon="2.06497">
        <ele>79.324272155762</ele>
        <time>2016-09-22T07:37:28.000Z</time>
      </trkpt>
      <trkpt lat="48.70224" lon="2.06489">
        <ele>79.415496826172</ele>
        <time>2016-09-22T07:37:31.000Z</time>
      </trkpt>
      <trkpt lat="48.70224" lon="2.06485">
        <ele>79.51148223877</ele>
        <time>2016-09-22T07:37:33.000Z</time>
      </trkpt>
      <trkpt lat="48.70224" lon="2.06479">
        <ele>79.609031677246</ele>
        <time>2016-09-22T07:37:36.000Z</time>
      </trkpt>
      <trkpt lat="48.70224" lon="2.06476">
        <ele>79.685150146484</ele>
        <time>2016-09-22T07:37:38.000Z</time>
      </trkpt>
      <trkpt lat="48.70226" lon="2.06471">
        <ele>79.709716796875</ele>
        <time>2016-09-22T07:37:41.000Z</time>
      </trkpt>
      <trkpt lat="48.70226" lon="2.06466">
        <ele>79.718231201172</ele>
        <time>2016-09-22T07:37:44.000Z</time>
      </trkpt>
      <trkpt lat="48.70227" lon="2.06463">
        <ele>79.715881347656</ele>
        <time>2016-09-22T07:37:46.000Z</time>
      </trkpt>
      <trkpt lat="48.70227" lon="2.06458">
        <ele>79.704193115234</ele>
        <time>2016-09-22T07:37:49.000Z</time>
      </trkpt>
      <trkpt lat="48.70227" lon="2.06454">
        <ele>79.701171875</ele>
        <time>2016-09-22T07:37:51.000Z</time>
      </trkpt>
      <trkpt lat="48.70227" lon="2.06448">
        <ele>79.732025146484</ele>
        <time>2016-09-22T07:37:54.000Z</time>
      </trkpt>
      <trkpt lat="48.70226" lon="2.0644">
        <ele>79.794464111328</ele>
        <time>2016-09-22T07:37:57.000Z</time>
      </trkpt>
      <trkpt lat="48.70226" lon="2.06436">
        <ele>79.875335693359</ele>
        <time>2016-09-22T07:37:59.000Z</time>
      </trkpt>
      <trkpt lat="48.70226" lon="2.06434">
        <ele>79.955993652344</ele>
        <time>2016-09-22T07:38:01.000Z</time>
      </trkpt>
      <trkpt lat="48.70226" lon="2.06428">
        <ele>80.048797607422</ele>
        <time>2016-09-22T07:38:04.000Z</time>
      </trkpt>
      <trkpt lat="48.70225" lon="2.06422">
        <ele>80.149871826172</ele>
        <time>2016-09-22T07:38:07.000Z</time>
      </trkpt>
      <trkpt lat="48.70225" lon="2.06416">
        <ele>80.237907409668</ele>
        <time>2016-09-22T07:38:10.000Z</time>
      </trkpt>
      <trkpt lat="48.70225" lon="2.0641">
        <ele>80.307601928711</ele>
        <time>2016-09-22T07:38:13.000Z</time>
      </trkpt>
      <trkpt lat="48.70223" lon="2.06406">
        <ele>80.39616394043</ele>
        <time>2016-09-22T07:38:16.000Z</time>
      </trkpt>
      <trkpt lat="48.70223" lon="2.06404">
        <ele>80.463417053223</ele>
        <time>2016-09-22T07:38:18.000Z</time>
      </trkpt>
      <trkpt lat="48.70224" lon="2.06399">
        <ele>80.5</ele>
        <time>2016-09-22T07:38:20.000Z</time>
      </trkpt>
      <trkpt lat="48.70224" lon="2.06391">
        <ele>80.515625</ele>
        <time>2016-09-22T07:38:23.000Z</time>
      </trkpt>
      <trkpt lat="48.70224" lon="2.06386">
        <ele>80.53125</ele>
        <time>2016-09-22T07:38:25.000Z</time>
      </trkpt>
      <trkpt lat="48.70223" lon="2.06378">
        <ele>80.5390625</ele>
        <time>2016-09-22T07:38:28.000Z</time>
      </trkpt>
      <trkpt lat="48.70222" lon="2.06374">
        <ele>80.5703125</ele>
        <time>2016-09-22T07:38:30.000Z</time>
      </trkpt>
      <trkpt lat="48.70222" lon="2.06371">
        <ele>80.6015625</ele>
        <time>2016-09-22T07:38:32.000Z</time>
      </trkpt>
      <trkpt lat="48.70224" lon="2.06368">
        <ele>80.6015625</ele>
        <time>2016-09-22T07:38:34.000Z</time>
      </trkpt>
      <trkpt lat="48.70225" lon="2.06364">
        <ele>80.578125</ele>
        <time>2016-09-22T07:38:37.000Z</time>
      </trkpt>
      <trkpt lat="48.70226" lon="2.06361">
        <ele>80.515625</ele>
        <time>2016-09-22T07:38:39.000Z</time>
      </trkpt>
      <trkpt lat="48.70227" lon="2.06357">
        <ele>80.40625</ele>
        <time>2016-09-22T07:38:42.000Z</time>
      </trkpt>
      <trkpt lat="48.70227" lon="2.0635">
        <ele>80.3046875</ele>
        <time>2016-09-22T07:38:45.000Z</time>
      </trkpt>
      <trkpt lat="48.70227" lon="2.06347">
        <ele>80.234375</ele>
        <time>2016-09-22T07:38:47.000Z</time>
      </trkpt>
      <trkpt lat="48.70227" lon="2.06344">
        <ele>80.1875</ele>
        <time>2016-09-22T07:38:49.000Z</time>
      </trkpt>
      <trkpt lat="48.70228" lon="2.06342">
        <ele>80.15625</ele>
        <time>2016-09-22T07:38:51.000Z</time>
      </trkpt>
      <trkpt lat="48.70228" lon="2.06339">
        <ele>80.140625</ele>
        <time>2016-09-22T07:38:53.000Z</time>
      </trkpt>
      <trkpt lat="48.70228" lon="2.06334">
        <ele>80.125</ele>
        <time>2016-09-22T07:38:56.000Z</time>
      </trkpt>
      <trkpt lat="48.70228" lon="2.0633">
        <ele>80.127426147461</ele>
        <time>2016-09-22T07:38:59.000Z</time>
      </trkpt>
      <trkpt lat="48.70228" lon="2.06323">
        <ele>80.172653198242</ele>
        <time>2016-09-22T07:39:02.000Z</time>
      </trkpt>
      <trkpt lat="48.70228" lon="2.06319">
        <ele>80.250511169434</ele>
        <time>2016-09-22T07:39:04.000Z</time>
      </trkpt>
      <trkpt lat="48.70227" lon="2.06313">
        <ele>80.384223937988</ele>
        <time>2016-09-22T07:39:07.000Z</time>
      </trkpt>
      <trkpt lat="48.70227" lon="2.06307">
        <ele>80.552833557129</ele>
        <time>2016-09-22T07:39:10.000Z</time>
      </trkpt>
      <trkpt lat="48.70227" lon="2.06301">
        <ele>80.740226745605</ele>
        <time>2016-09-22T07:39:13.000Z</time>
      </trkpt>
      <trkpt lat="48.70228" lon="2.06296">
        <ele>80.90308380127</ele>
        <time>2016-09-22T07:39:16.000Z</time>
      </trkpt>
      <trkpt lat="48.70229" lon="2.06291">
        <ele>81.052947998047</ele>
        <time>2016-09-22T07:39:18.000Z</time>
      </trkpt>
      <trkpt lat="48.70229" lon="2.06287">
        <ele>81.175491333008</ele>
        <time>2016-09-22T07:39:20.000Z</time>
      </trkpt>
      <trkpt lat="48.7023" lon="2.06281">
        <ele>81.285179138184</ele>
        <time>2016-09-22T07:39:23.000Z</time>
      </trkpt>
      <trkpt lat="48.70232" lon="2.06274">
        <ele>81.372169494629</ele>
        <time>2016-09-22T07:39:26.000Z</time>
      </trkpt>
      <trkpt lat="48.70234" lon="2.06268">
        <ele>81.449752807617</ele>
        <time>2016-09-22T07:39:29.000Z</time>
      </trkpt>
      <trkpt lat="48.70235" lon="2.06264">
        <ele>81.528129577637</ele>
        <time>2016-09-22T07:39:31.000Z</time>
      </trkpt>
      <trkpt lat="48.70236" lon="2.0626">
        <ele>81.590881347656</ele>
        <time>2016-09-22T07:39:33.000Z</time>
      </trkpt>
      <trkpt lat="48.70237" lon="2.06256">
        <ele>81.641899108887</ele>
        <time>2016-09-22T07:39:36.000Z</time>
      </trkpt>
      <trkpt lat="48.70239" lon="2.06254">
        <ele>81.669235229492</ele>
        <time>2016-09-22T07:39:38.000Z</time>
      </trkpt>
      <trkpt lat="48.70241" lon="2.06251">
        <ele>81.673675537109</ele>
        <time>2016-09-22T07:39:41.000Z</time>
      </trkpt>
      <trkpt lat="48.70242" lon="2.0625">
        <ele>81.650398254395</ele>
        <time>2016-09-22T07:39:43.000Z</time>
      </trkpt>
      <trkpt lat="48.70244" lon="2.06249">
        <ele>81.604431152344</ele>
        <time>2016-09-22T07:39:45.000Z</time>
      </trkpt>
      <trkpt lat="48.70247" lon="2.06254">
        <ele>81.468528747559</ele>
        <time>2016-09-22T07:39:53.000Z</time>
      </trkpt>
      <trkpt lat="48.70248" lon="2.0625">
        <ele>81.356643676758</ele>
        <time>2016-09-22T07:39:58.000Z</time>
      </trkpt>
      <trkpt lat="48.70249" lon="2.06249">
        <ele>81.253631591797</ele>
        <time>2016-09-22T07:40:00.000Z</time>
      </trkpt>
      <trkpt lat="48.70249" lon="2.06245">
        <ele>81.159881591797</ele>
        <time>2016-09-22T07:40:06.000Z</time>
      </trkpt>
      <trkpt lat="48.7025" lon="2.06238">
        <ele>81.077850341797</ele>
        <time>2016-09-22T07:40:09.000Z</time>
      </trkpt>
      <trkpt lat="48.7025" lon="2.06233">
        <ele>81.075454711914</ele>
        <time>2016-09-22T07:40:11.000Z</time>
      </trkpt>
      <trkpt lat="48.70251" lon="2.06226">
        <ele>81.03833770752</ele>
        <time>2016-09-22T07:40:14.000Z</time>
      </trkpt>
      <trkpt lat="48.70253" lon="2.0622">
        <ele>80.954246520996</ele>
        <time>2016-09-22T07:40:17.000Z</time>
      </trkpt>
      <trkpt lat="48.70256" lon="2.06216">
        <ele>80.839332580566</ele>
        <time>2016-09-22T07:40:20.000Z</time>
      </trkpt>
      <trkpt lat="48.70257" lon="2.06214">
        <ele>80.708358764648</ele>
        <time>2016-09-22T07:40:22.000Z</time>
      </trkpt>
      <trkpt lat="48.70257" lon="2.0621">
        <ele>80.570938110352</ele>
        <time>2016-09-22T07:40:24.000Z</time>
      </trkpt>
      <trkpt lat="48.70257" lon="2.06206">
        <ele>80.454620361328</ele>
        <time>2016-09-22T07:40:26.000Z</time>
      </trkpt>
      <trkpt lat="48.70257" lon="2.062">
        <ele>80.391662597656</ele>
        <time>2016-09-22T07:40:29.000Z</time>
      </trkpt>
      <trkpt lat="48.70257" lon="2.06196">
        <ele>80.366256713867</ele>
        <time>2016-09-22T07:40:31.000Z</time>
      </trkpt>
      <trkpt lat="48.70258" lon="2.0619">
        <ele>80.349746704102</ele>
        <time>2016-09-22T07:40:34.000Z</time>
      </trkpt>
      <trkpt lat="48.70259" lon="2.06182">
        <ele>80.327461242676</ele>
        <time>2016-09-22T07:40:37.000Z</time>
      </trkpt>
      <trkpt lat="48.70259" lon="2.06174">
        <ele>80.306289672852</ele>
        <time>2016-09-22T07:40:40.000Z</time>
      </trkpt>
      <trkpt lat="48.70258" lon="2.06169">
        <ele>80.291976928711</ele>
        <time>2016-09-22T07:40:42.000Z</time>
      </trkpt>
      <trkpt lat="48.70258" lon="2.06162">
        <ele>80.279579162598</ele>
        <time>2016-09-22T07:40:45.000Z</time>
      </trkpt>
      <trkpt lat="48.70258" lon="2.06158">
        <ele>80.288986206055</ele>
        <time>2016-09-22T07:40:47.000Z</time>
      </trkpt>
      <trkpt lat="48.70257" lon="2.0615">
        <ele>80.327049255371</ele>
        <time>2016-09-22T07:40:50.000Z</time>
      </trkpt>
      <trkpt lat="48.70257" lon="2.06145">
        <ele>80.365097045898</ele>
        <time>2016-09-22T07:40:52.000Z</time>
      </trkpt>
      <trkpt lat="48.70258" lon="2.0614">
        <ele>80.391052246094</ele>
        <time>2016-09-22T07:40:54.000Z</time>
      </trkpt>
      <trkpt lat="48.70258" lon="2.06134">
        <ele>80.416748046875</ele>
        <time>2016-09-22T07:40:56.000Z</time>
      </trkpt>
      <trkpt lat="48.70258" lon="2.06126">
        <ele>80.437240600586</ele>
        <time>2016-09-22T07:40:59.000Z</time>
      </trkpt>
      <trkpt lat="48.70257" lon="2.06121">
        <ele>80.449249267578</ele>
        <time>2016-09-22T07:41:01.000Z</time>
      </trkpt>
      <trkpt lat="48.70258" lon="2.06114">
        <ele>80.451133728027</ele>
        <time>2016-09-22T07:41:04.000Z</time>
      </trkpt>
      <trkpt lat="48.70259" lon="2.06109">
        <ele>80.448165893555</ele>
        <time>2016-09-22T07:41:06.000Z</time>
      </trkpt>
      <trkpt lat="48.70259" lon="2.06103">
        <ele>80.445960998535</ele>
        <time>2016-09-22T07:41:09.000Z</time>
      </trkpt>
      <trkpt lat="48.70259" lon="2.06098">
        <ele>80.442428588867</ele>
        <time>2016-09-22T07:41:11.000Z</time>
      </trkpt>
      <trkpt lat="48.70259" lon="2.06092">
        <ele>80.423904418945</ele>
        <time>2016-09-22T07:41:14.000Z</time>
      </trkpt>
      <trkpt lat="48.7026" lon="2.06086">
        <ele>80.411804199219</ele>
        <time>2016-09-22T07:41:17.000Z</time>
      </trkpt>
      <trkpt lat="48.7026" lon="2.06079">
        <ele>80.475051879883</ele>
        <time>2016-09-22T07:41:20.000Z</time>
      </trkpt>
      <trkpt lat="48.70259" lon="2.06072">
        <ele>80.645706176758</ele>
        <time>2016-09-22T07:41:23.000Z</time>
      </trkpt>
      <trkpt lat="48.70259" lon="2.06068">
        <ele>80.883888244629</ele>
        <time>2016-09-22T07:41:25.000Z</time>
      </trkpt>
      <trkpt lat="48.7026" lon="2.06062">
        <ele>81.209053039551</ele>
        <time>2016-09-22T07:41:28.000Z</time>
      </trkpt>
      <trkpt lat="48.7026" lon="2.06057">
        <ele>81.603179931641</ele>
        <time>2016-09-22T07:41:31.000Z</time>
      </trkpt>
      <trkpt lat="48.70261" lon="2.06053">
        <ele>82.004928588867</ele>
        <time>2016-09-22T07:41:34.000Z</time>
      </trkpt>
      <trkpt lat="48.70261" lon="2.06049">
        <ele>82.347061157227</ele>
        <time>2016-09-22T07:41:36.000Z</time>
      </trkpt>
      <trkpt lat="48.70261" lon="2.06043">
        <ele>82.703231811523</ele>
        <time>2016-09-22T07:41:39.000Z</time>
      </trkpt>
      <trkpt lat="48.70262" lon="2.06037">
        <ele>83.062026977539</ele>
        <time>2016-09-22T07:41:42.000Z</time>
      </trkpt>
      <trkpt lat="48.70262" lon="2.06033">
        <ele>83.402114868164</ele>
        <time>2016-09-22T07:41:44.000Z</time>
      </trkpt>
      <trkpt lat="48.70263" lon="2.06029">
        <ele>83.714256286621</ele>
        <time>2016-09-22T07:41:46.000Z</time>
      </trkpt>
      <trkpt lat="48.70263" lon="2.06026">
        <ele>84.025703430176</ele>
        <time>2016-09-22T07:41:48.000Z</time>
      </trkpt>
      <trkpt lat="48.70263" lon="2.06023">
        <ele>84.303123474121</ele>
        <time>2016-09-22T07:41:50.000Z</time>
      </trkpt>
      <trkpt lat="48.70263" lon="2.06018">
        <ele>84.548553466797</ele>
        <time>2016-09-22T07:41:53.000Z</time>
      </trkpt>
      <trkpt lat="48.70264" lon="2.06017">
        <ele>84.758071899414</ele>
        <time>2016-09-22T07:41:56.000Z</time>
      </trkpt>
      <trkpt lat="48.70264" lon="2.06013">
        <ele>84.959999084473</ele>
        <time>2016-09-22T07:41:59.000Z</time>
      </trkpt>
      <trkpt lat="48.70264" lon="2.06009">
        <ele>85.16934967041</ele>
        <time>2016-09-22T07:42:01.000Z</time>
      </trkpt>
      <trkpt lat="48.70265" lon="2.06003">
        <ele>85.40389251709</ele>
        <time>2016-09-22T07:42:04.000Z</time>
      </trkpt>
      <trkpt lat="48.70265" lon="2.06">
        <ele>85.633918762207</ele>
        <time>2016-09-22T07:42:06.000Z</time>
      </trkpt>
      <trkpt lat="48.70265" lon="2.05995">
        <ele>85.83260345459</ele>
        <time>2016-09-22T07:42:09.000Z</time>
      </trkpt>
      <trkpt lat="48.70266" lon="2.0599">
        <ele>85.971328735352</ele>
        <time>2016-09-22T07:42:12.000Z</time>
      </trkpt>
      <trkpt lat="48.70266" lon="2.05986">
        <ele>86.032318115234</ele>
        <time>2016-09-22T07:42:14.000Z</time>
      </trkpt>
      <trkpt lat="48.70266" lon="2.05981">
        <ele>85.99723815918</ele>
        <time>2016-09-22T07:42:16.000Z</time>
      </trkpt>
      <trkpt lat="48.70267" lon="2.05974">
        <ele>85.890014648438</ele>
        <time>2016-09-22T07:42:19.000Z</time>
      </trkpt>
      <trkpt lat="48.70267" lon="2.05973">
        <ele>85.797332763672</ele>
        <time>2016-09-22T07:42:21.000Z</time>
      </trkpt>
      <trkpt lat="48.70267" lon="2.05971">
        <ele>85.720947265625</ele>
        <time>2016-09-22T07:42:25.000Z</time>
      </trkpt>
      <trkpt lat="48.70267" lon="2.05967">
        <ele>85.655334472656</ele>
        <time>2016-09-22T07:42:27.000Z</time>
      </trkpt>
      <trkpt lat="48.70266" lon="2.0596">
        <ele>85.605560302734</ele>
        <time>2016-09-22T07:42:30.000Z</time>
      </trkpt>
      <trkpt lat="48.70266" lon="2.05954">
        <ele>85.576446533203</ele>
        <time>2016-09-22T07:42:33.000Z</time>
      </trkpt>
      <trkpt lat="48.70266" lon="2.0595">
        <ele>85.541168212891</ele>
        <time>2016-09-22T07:42:35.000Z</time>
      </trkpt>
      <trkpt lat="48.70266" lon="2.05943">
        <ele>85.485656738281</ele>
        <time>2016-09-22T07:42:38.000Z</time>
      </trkpt>
      <trkpt lat="48.70267" lon="2.05937">
        <ele>85.413391113281</ele>
        <time>2016-09-22T07:42:41.000Z</time>
      </trkpt>
      <trkpt lat="48.70267" lon="2.0593">
        <ele>85.320678710938</ele>
        <time>2016-09-22T07:42:44.000Z</time>
      </trkpt>
      <trkpt lat="48.70267" lon="2.05926">
        <ele>85.223754882812</ele>
        <time>2016-09-22T07:42:46.000Z</time>
      </trkpt>
      <trkpt lat="48.70268" lon="2.0592">
        <ele>85.113677978516</ele>
        <time>2016-09-22T07:42:49.000Z</time>
      </trkpt>
      <trkpt lat="48.70268" lon="2.05914">
        <ele>84.998359680176</ele>
        <time>2016-09-22T07:42:52.000Z</time>
      </trkpt>
      <trkpt lat="48.70268" lon="2.0591">
        <ele>84.89045715332</ele>
        <time>2016-09-22T07:42:54.000Z</time>
      </trkpt>
      <trkpt lat="48.70268" lon="2.05904">
        <ele>84.780227661133</ele>
        <time>2016-09-22T07:42:57.000Z</time>
      </trkpt>
      <trkpt lat="48.70269" lon="2.059">
        <ele>84.651321411133</ele>
        <time>2016-09-22T07:42:59.000Z</time>
      </trkpt>
      <trkpt lat="48.70268" lon="2.05896">
        <ele>84.536056518555</ele>
        <time>2016-09-22T07:43:01.000Z</time>
      </trkpt>
      <trkpt lat="48.70268" lon="2.0589">
        <ele>84.434440612793</ele>
        <time>2016-09-22T07:43:04.000Z</time>
      </trkpt>
      <trkpt lat="48.70268" lon="2.05886">
        <ele>84.324966430664</ele>
        <time>2016-09-22T07:43:06.000Z</time>
      </trkpt>
      <trkpt lat="48.70268" lon="2.05879">
        <ele>84.219802856445</ele>
        <time>2016-09-22T07:43:09.000Z</time>
      </trkpt>
      <trkpt lat="48.70268" lon="2.05875">
        <ele>84.124038696289</ele>
        <time>2016-09-22T07:43:11.000Z</time>
      </trkpt>
      <trkpt lat="48.70267" lon="2.05869">
        <ele>84.02384185791</ele>
        <time>2016-09-22T07:43:14.000Z</time>
      </trkpt>
      <trkpt lat="48.70267" lon="2.05866">
        <ele>83.926284790039</ele>
        <time>2016-09-22T07:43:16.000Z</time>
      </trkpt>
      <trkpt lat="48.70266" lon="2.05861">
        <ele>83.842483520508</ele>
        <time>2016-09-22T07:43:19.000Z</time>
      </trkpt>
      <trkpt lat="48.70266" lon="2.05855">
        <ele>83.747261047363</ele>
        <time>2016-09-22T07:43:22.000Z</time>
      </trkpt>
      <trkpt lat="48.70267" lon="2.05849">
        <ele>83.636932373047</ele>
        <time>2016-09-22T07:43:25.000Z</time>
      </trkpt>
      <trkpt lat="48.70267" lon="2.05843">
        <ele>83.513511657715</ele>
        <time>2016-09-22T07:43:28.000Z</time>
      </trkpt>
      <trkpt lat="48.70266" lon="2.05839">
        <ele>83.390663146973</ele>
        <time>2016-09-22T07:43:30.000Z</time>
      </trkpt>
      <trkpt lat="48.70266" lon="2.05835">
        <ele>83.259666442871</ele>
        <time>2016-09-22T07:43:32.000Z</time>
      </trkpt>
      <trkpt lat="48.70266" lon="2.05828">
        <ele>83.148948669434</ele>
        <time>2016-09-22T07:43:35.000Z</time>
      </trkpt>
      <trkpt lat="48.70266" lon="2.05825">
        <ele>83.06689453125</ele>
        <time>2016-09-22T07:43:37.000Z</time>
      </trkpt>
      <trkpt lat="48.70266" lon="2.05819">
        <ele>83.004539489746</ele>
        <time>2016-09-22T07:43:40.000Z</time>
      </trkpt>
      <trkpt lat="48.70266" lon="2.05816">
        <ele>82.950401306152</ele>
        <time>2016-09-22T07:43:42.000Z</time>
      </trkpt>
      <trkpt lat="48.70266" lon="2.0581">
        <ele>82.912857055664</ele>
        <time>2016-09-22T07:43:45.000Z</time>
      </trkpt>
      <trkpt lat="48.70266" lon="2.05806">
        <ele>82.880813598633</ele>
        <time>2016-09-22T07:43:47.000Z</time>
      </trkpt>
      <trkpt lat="48.70266" lon="2.058">
        <ele>82.844650268555</ele>
        <time>2016-09-22T07:43:50.000Z</time>
      </trkpt>
      <trkpt lat="48.70267" lon="2.05793">
        <ele>82.803276062012</ele>
        <time>2016-09-22T07:43:53.000Z</time>
      </trkpt>
      <trkpt lat="48.70266" lon="2.0579">
        <ele>82.766021728516</ele>
        <time>2016-09-22T07:43:55.000Z</time>
      </trkpt>
      <trkpt lat="48.70267" lon="2.05784">
        <ele>82.720520019531</ele>
        <time>2016-09-22T07:43:58.000Z</time>
      </trkpt>
      <trkpt lat="48.70267" lon="2.05778">
        <ele>82.676559448242</ele>
        <time>2016-09-22T07:44:01.000Z</time>
      </trkpt>
      <trkpt lat="48.70266" lon="2.05774">
        <ele>82.638816833496</ele>
        <time>2016-09-22T07:44:04.000Z</time>
      </trkpt>
      <trkpt lat="48.70266" lon="2.0577">
        <ele>82.608764648438</ele>
        <time>2016-09-22T07:44:06.000Z</time>
      </trkpt>
      <trkpt lat="48.70266" lon="2.05766">
        <ele>82.577430725098</ele>
        <time>2016-09-22T07:44:08.000Z</time>
      </trkpt>
      <trkpt lat="48.70265" lon="2.0576">
        <ele>82.556106567383</ele>
        <time>2016-09-22T07:44:11.000Z</time>
      </trkpt>
      <trkpt lat="48.70265" lon="2.05757">
        <ele>82.538696289062</ele>
        <time>2016-09-22T07:44:13.000Z</time>
      </trkpt>
      <trkpt lat="48.70265" lon="2.05754">
        <ele>82.521774291992</ele>
        <time>2016-09-22T07:44:15.000Z</time>
      </trkpt>
      <trkpt lat="48.70264" lon="2.05748">
        <ele>82.496505737305</ele>
        <time>2016-09-22T07:44:18.000Z</time>
      </trkpt>
      <trkpt lat="48.70264" lon="2.05743">
        <ele>82.450820922852</ele>
        <time>2016-09-22T07:44:20.000Z</time>
      </trkpt>
      <trkpt lat="48.70264" lon="2.05737">
        <ele>82.373245239258</ele>
        <time>2016-09-22T07:44:23.000Z</time>
      </trkpt>
      <trkpt lat="48.70263" lon="2.05733">
        <ele>82.28401184082</ele>
        <time>2016-09-22T07:44:25.000Z</time>
      </trkpt>
      <trkpt lat="48.70261" lon="2.05727">
        <ele>82.177932739258</ele>
        <time>2016-09-22T07:44:28.000Z</time>
      </trkpt>
      <trkpt lat="48.70261" lon="2.05722">
        <ele>82.06184387207</ele>
        <time>2016-09-22T07:44:30.000Z</time>
      </trkpt>
      <trkpt lat="48.70261" lon="2.05716">
        <ele>81.939002990723</ele>
        <time>2016-09-22T07:44:33.000Z</time>
      </trkpt>
      <trkpt lat="48.70259" lon="2.05712">
        <ele>81.8369140625</ele>
        <time>2016-09-22T07:44:36.000Z</time>
      </trkpt>
      <trkpt lat="48.70258" lon="2.05708">
        <ele>81.748107910156</ele>
        <time>2016-09-22T07:44:38.000Z</time>
      </trkpt>
      <trkpt lat="48.70257" lon="2.05705">
        <ele>81.671669006348</ele>
        <time>2016-09-22T07:44:40.000Z</time>
      </trkpt>
      <trkpt lat="48.70255" lon="2.05699">
        <ele>81.60578918457</ele>
        <time>2016-09-22T07:44:43.000Z</time>
      </trkpt>
      <trkpt lat="48.70254" lon="2.05695">
        <ele>81.559989929199</ele>
        <time>2016-09-22T07:44:45.000Z</time>
      </trkpt>
      <trkpt lat="48.70253" lon="2.05692">
        <ele>81.522010803223</ele>
        <time>2016-09-22T07:44:47.000Z</time>
      </trkpt>
      <trkpt lat="48.70251" lon="2.05686">
        <ele>81.475540161133</ele>
        <time>2016-09-22T07:44:50.000Z</time>
      </trkpt>
      <trkpt lat="48.7025" lon="2.0568">
        <ele>81.438049316406</ele>
        <time>2016-09-22T07:44:53.000Z</time>
      </trkpt>
      <trkpt lat="48.70248" lon="2.05675">
        <ele>81.415016174316</ele>
        <time>2016-09-22T07:44:56.000Z</time>
      </trkpt>
      <trkpt lat="48.70247" lon="2.0567">
        <ele>81.410301208496</ele>
        <time>2016-09-22T07:44:59.000Z</time>
      </trkpt>
      <trkpt lat="48.70244" lon="2.05665">
        <ele>81.44409942627</ele>
        <time>2016-09-22T07:45:02.000Z</time>
      </trkpt>
      <trkpt lat="48.70243" lon="2.0566">
        <ele>81.503524780273</ele>
        <time>2016-09-22T07:45:04.000Z</time>
      </trkpt>
      <trkpt lat="48.70242" lon="2.05654">
        <ele>81.56184387207</ele>
        <time>2016-09-22T07:45:07.000Z</time>
      </trkpt>
      <trkpt lat="48.7024" lon="2.05648">
        <ele>81.647598266602</ele>
        <time>2016-09-22T07:45:10.000Z</time>
      </trkpt>
      <trkpt lat="48.70239" lon="2.05643">
        <ele>81.735275268555</ele>
        <time>2016-09-22T07:45:13.000Z</time>
      </trkpt>
      <trkpt lat="48.70237" lon="2.05637">
        <ele>81.807540893555</ele>
        <time>2016-09-22T07:45:16.000Z</time>
      </trkpt>
      <trkpt lat="48.70235" lon="2.05631">
        <ele>81.883193969727</ele>
        <time>2016-09-22T07:45:19.000Z</time>
      </trkpt>
      <trkpt lat="48.70233" lon="2.05626">
        <ele>82.001487731934</ele>
        <time>2016-09-22T07:45:22.000Z</time>
      </trkpt>
      <trkpt lat="48.70231" lon="2.05622">
        <ele>82.113296508789</ele>
        <time>2016-09-22T07:45:24.000Z</time>
      </trkpt>
      <trkpt lat="48.70231" lon="2.05616">
        <ele>82.204956054688</ele>
        <time>2016-09-22T07:45:27.000Z</time>
      </trkpt>
      <trkpt lat="48.70231" lon="2.0561">
        <ele>82.26065826416</ele>
        <time>2016-09-22T07:45:30.000Z</time>
      </trkpt>
      <trkpt lat="48.70231" lon="2.05606">
        <ele>82.287727355957</ele>
        <time>2016-09-22T07:45:32.000Z</time>
      </trkpt>
      <trkpt lat="48.70232" lon="2.05601">
        <ele>82.239181518555</ele>
        <time>2016-09-22T07:45:35.000Z</time>
      </trkpt>
      <trkpt lat="48.70232" lon="2.05596">
        <ele>82.152542114258</ele>
        <time>2016-09-22T07:45:38.000Z</time>
      </trkpt>
      <trkpt lat="48.70231" lon="2.05591">
        <ele>82.077041625977</ele>
        <time>2016-09-22T07:45:41.000Z</time>
      </trkpt>
      <trkpt lat="48.7023" lon="2.05587">
        <ele>82.016952514648</ele>
        <time>2016-09-22T07:45:43.000Z</time>
      </trkpt>
      <trkpt lat="48.70229" lon="2.0558">
        <ele>81.969451904297</ele>
        <time>2016-09-22T07:45:46.000Z</time>
      </trkpt>
      <trkpt lat="48.70228" lon="2.05574">
        <ele>81.946334838867</ele>
        <time>2016-09-22T07:45:49.000Z</time>
      </trkpt>
      <trkpt lat="48.70228" lon="2.0557">
        <ele>81.924438476562</ele>
        <time>2016-09-22T07:45:51.000Z</time>
      </trkpt>
      <trkpt lat="48.70228" lon="2.05565">
        <ele>81.890975952148</ele>
        <time>2016-09-22T07:45:53.000Z</time>
      </trkpt>
      <trkpt lat="48.70229" lon="2.05557">
        <ele>81.816421508789</ele>
        <time>2016-09-22T07:45:56.000Z</time>
      </trkpt>
      <trkpt lat="48.70231" lon="2.0555">
        <ele>81.678207397461</ele>
        <time>2016-09-22T07:45:59.000Z</time>
      </trkpt>
      <trkpt lat="48.70233" lon="2.0554">
        <ele>81.479446411133</ele>
        <time>2016-09-22T07:46:02.000Z</time>
      </trkpt>
      <trkpt lat="48.70235" lon="2.05531">
        <ele>81.225540161133</ele>
        <time>2016-09-22T07:46:04.000Z</time>
      </trkpt>
      <trkpt lat="48.70237" lon="2.05529">
        <ele>80.947708129883</ele>
        <time>2016-09-22T07:46:07.000Z</time>
      </trkpt>
      <trkpt lat="48.70239" lon="2.05529">
        <ele>80.680770874023</ele>
        <time>2016-09-22T07:46:09.000Z</time>
      </trkpt>
      <trkpt lat="48.70243" lon="2.0553">
        <ele>80.406837463379</ele>
        <time>2016-09-22T07:46:12.000Z</time>
      </trkpt>
      <trkpt lat="48.70246" lon="2.05532">
        <ele>80.160850524902</ele>
        <time>2016-09-22T07:46:14.000Z</time>
      </trkpt>
      <trkpt lat="48.70249" lon="2.05533">
        <ele>79.940391540527</ele>
        <time>2016-09-22T07:46:17.000Z</time>
      </trkpt>
      <trkpt lat="48.70252" lon="2.05534">
        <ele>79.736557006836</ele>
        <time>2016-09-22T07:46:19.000Z</time>
      </trkpt>
      <trkpt lat="48.70255" lon="2.05535">
        <ele>79.563217163086</ele>
        <time>2016-09-22T07:46:22.000Z</time>
      </trkpt>
      <trkpt lat="48.70256" lon="2.05535">
        <ele>79.456703186035</ele>
        <time>2016-09-22T07:46:24.000Z</time>
      </trkpt>
      <trkpt lat="48.7026" lon="2.05534">
        <ele>79.38069152832</ele>
        <time>2016-09-22T07:46:29.000Z</time>
      </trkpt>
      <trkpt lat="48.70264" lon="2.05534">
        <ele>79.341613769531</ele>
        <time>2016-09-22T07:46:31.000Z</time>
      </trkpt>
      <trkpt lat="48.70268" lon="2.05534">
        <ele>79.31120300293</ele>
        <time>2016-09-22T07:46:34.000Z</time>
      </trkpt>
      <trkpt lat="48.70271" lon="2.05534">
        <ele>79.277267456055</ele>
        <time>2016-09-22T07:46:37.000Z</time>
      </trkpt>
      <trkpt lat="48.70273" lon="2.05534">
        <ele>79.241333007812</ele>
        <time>2016-09-22T07:46:39.000Z</time>
      </trkpt>
      <trkpt lat="48.70277" lon="2.05538">
        <ele>79.210708618164</ele>
        <time>2016-09-22T07:46:42.000Z</time>
      </trkpt>
      <trkpt lat="48.7028" lon="2.05538">
        <ele>79.182083129883</ele>
        <time>2016-09-22T07:46:44.000Z</time>
      </trkpt>
      <trkpt lat="48.70284" lon="2.05539">
        <ele>79.152610778809</ele>
        <time>2016-09-22T07:46:47.000Z</time>
      </trkpt>
      <trkpt lat="48.70288" lon="2.0554">
        <ele>79.121650695801</ele>
        <time>2016-09-22T07:46:50.000Z</time>
      </trkpt>
      <trkpt lat="48.70291" lon="2.05545">
        <ele>79.08585357666</ele>
        <time>2016-09-22T07:46:53.000Z</time>
      </trkpt>
      <trkpt lat="48.70293" lon="2.05547">
        <ele>79.050468444824</ele>
        <time>2016-09-22T07:46:55.000Z</time>
      </trkpt>
      <trkpt lat="48.70295" lon="2.05548">
        <ele>79.013336181641</ele>
        <time>2016-09-22T07:46:57.000Z</time>
      </trkpt>
      <trkpt lat="48.70297" lon="2.05548">
        <ele>78.981422424316</ele>
        <time>2016-09-22T07:46:59.000Z</time>
      </trkpt>
      <trkpt lat="48.703" lon="2.05546">
        <ele>78.950523376465</ele>
        <time>2016-09-22T07:47:02.000Z</time>
      </trkpt>
      <trkpt lat="48.70303" lon="2.05545">
        <ele>78.918960571289</ele>
        <time>2016-09-22T07:47:05.000Z</time>
      </trkpt>
      <trkpt lat="48.70311" lon="2.05548">
        <ele>78.867950439453</ele>
        <time>2016-09-22T07:47:08.000Z</time>
      </trkpt>
      <trkpt lat="48.70315" lon="2.05553">
        <ele>78.807075500488</ele>
        <time>2016-09-22T07:47:10.000Z</time>
      </trkpt>
      <trkpt lat="48.70316" lon="2.05559">
        <ele>78.739707946777</ele>
        <time>2016-09-22T07:47:13.000Z</time>
      </trkpt>
      <trkpt lat="48.70319" lon="2.0556">
        <ele>78.666404724121</ele>
        <time>2016-09-22T07:47:16.000Z</time>
      </trkpt>
      <trkpt lat="48.70324" lon="2.05558">
        <ele>78.59049987793</ele>
        <time>2016-09-22T07:47:18.000Z</time>
      </trkpt>
      <trkpt lat="48.70326" lon="2.05557">
        <ele>78.531967163086</ele>
        <time>2016-09-22T07:47:20.000Z</time>
      </trkpt>
      <trkpt lat="48.70328" lon="2.05557">
        <ele>78.483436584473</ele>
        <time>2016-09-22T07:47:22.000Z</time>
      </trkpt>
      <trkpt lat="48.7033" lon="2.05558">
        <ele>78.438514709473</ele>
        <time>2016-09-22T07:47:24.000Z</time>
      </trkpt>
      <trkpt lat="48.70333" lon="2.05559">
        <ele>78.394332885742</ele>
        <time>2016-09-22T07:47:26.000Z</time>
      </trkpt>
      <trkpt lat="48.70337" lon="2.0556">
        <ele>78.354682922363</ele>
        <time>2016-09-22T07:47:29.000Z</time>
      </trkpt>
      <trkpt lat="48.70341" lon="2.0556">
        <ele>78.319854736328</ele>
        <time>2016-09-22T07:47:32.000Z</time>
      </trkpt>
      <trkpt lat="48.70343" lon="2.05559">
        <ele>78.292373657227</ele>
        <time>2016-09-22T07:47:34.000Z</time>
      </trkpt>
      <trkpt lat="48.70345" lon="2.05559">
        <ele>78.27001953125</ele>
        <time>2016-09-22T07:47:37.000Z</time>
      </trkpt>
      <trkpt lat="48.7035" lon="2.05559">
        <ele>78.256607055664</ele>
        <time>2016-09-22T07:47:40.000Z</time>
      </trkpt>
      <trkpt lat="48.70354" lon="2.05559">
        <ele>78.247459411621</ele>
        <time>2016-09-22T07:47:43.000Z</time>
      </trkpt>
      <trkpt lat="48.70358" lon="2.0556">
        <ele>78.235534667969</ele>
        <time>2016-09-22T07:47:46.000Z</time>
      </trkpt>
      <trkpt lat="48.7036" lon="2.0556">
        <ele>78.220985412598</ele>
        <time>2016-09-22T07:47:48.000Z</time>
      </trkpt>
      <trkpt lat="48.70364" lon="2.05561">
        <ele>78.205093383789</ele>
        <time>2016-09-22T07:47:51.000Z</time>
      </trkpt>
      <trkpt lat="48.70365" lon="2.05562">
        <ele>78.189865112305</ele>
        <time>2016-09-22T07:47:54.000Z</time>
      </trkpt>
      <trkpt lat="48.70366" lon="2.0556">
        <ele>78.179702758789</ele>
        <time>2016-09-22T07:47:57.000Z</time>
      </trkpt>
      <trkpt lat="48.70367" lon="2.05555">
        <ele>78.179512023926</ele>
        <time>2016-09-22T07:47:59.000Z</time>
      </trkpt>
      <trkpt lat="48.7037" lon="2.05551">
        <ele>78.185188293457</ele>
        <time>2016-09-22T07:48:02.000Z</time>
      </trkpt>
      <trkpt lat="48.70372" lon="2.05551">
        <ele>78.191818237305</ele>
        <time>2016-09-22T07:48:05.000Z</time>
      </trkpt>
      <trkpt lat="48.70376" lon="2.05553">
        <ele>78.195617675781</ele>
        <time>2016-09-22T07:48:08.000Z</time>
      </trkpt>
      <trkpt lat="48.70378" lon="2.05551">
        <ele>78.196983337402</ele>
        <time>2016-09-22T07:48:10.000Z</time>
      </trkpt>
      <trkpt lat="48.70382" lon="2.05548">
        <ele>78.191818237305</ele>
        <time>2016-09-22T07:48:13.000Z</time>
      </trkpt>
      <trkpt lat="48.70386" lon="2.05547">
        <ele>78.179916381836</ele>
        <time>2016-09-22T07:48:16.000Z</time>
      </trkpt>
      <trkpt lat="48.70388" lon="2.05547">
        <ele>78.168006896973</ele>
        <time>2016-09-22T07:48:18.000Z</time>
      </trkpt>
      <trkpt lat="48.70392" lon="2.05546">
        <ele>78.158256530762</ele>
        <time>2016-09-22T07:48:20.000Z</time>
      </trkpt>
      <trkpt lat="48.70396" lon="2.05546">
        <ele>78.145301818848</ele>
        <time>2016-09-22T07:48:23.000Z</time>
      </trkpt>
      <trkpt lat="48.70398" lon="2.05546">
        <ele>78.130264282227</ele>
        <time>2016-09-22T07:48:25.000Z</time>
      </trkpt>
      <trkpt lat="48.70401" lon="2.05545">
        <ele>78.115615844727</ele>
        <time>2016-09-22T07:48:28.000Z</time>
      </trkpt>
      <trkpt lat="48.70404" lon="2.05545">
        <ele>78.100288391113</ele>
        <time>2016-09-22T07:48:31.000Z</time>
      </trkpt>
      <trkpt lat="48.70407" lon="2.05544">
        <ele>78.084945678711</ele>
        <time>2016-09-22T07:48:34.000Z</time>
      </trkpt>
      <trkpt lat="48.70409" lon="2.05545">
        <ele>78.070320129395</ele>
        <time>2016-09-22T07:48:36.000Z</time>
      </trkpt>
      <trkpt lat="48.70411" lon="2.05545">
        <ele>78.056350708008</ele>
        <time>2016-09-22T07:48:38.000Z</time>
      </trkpt>
      <trkpt lat="48.70414" lon="2.05547">
        <ele>78.041580200195</ele>
        <time>2016-09-22T07:48:41.000Z</time>
      </trkpt>
      <trkpt lat="48.70417" lon="2.05547">
        <ele>78.036178588867</ele>
        <time>2016-09-22T07:48:44.000Z</time>
      </trkpt>
      <trkpt lat="48.70421" lon="2.05546">
        <ele>78.072944641113</ele>
        <time>2016-09-22T07:48:47.000Z</time>
      </trkpt>
      <trkpt lat="48.70424" lon="2.05546">
        <ele>78.138557434082</ele>
        <time>2016-09-22T07:48:49.000Z</time>
      </trkpt>
      <trkpt lat="48.70427" lon="2.05546">
        <ele>78.236907958984</ele>
        <time>2016-09-22T07:48:52.000Z</time>
      </trkpt>
      <trkpt lat="48.70428" lon="2.05547">
        <ele>78.360107421875</ele>
        <time>2016-09-22T07:48:54.000Z</time>
      </trkpt>
      <trkpt lat="48.7043" lon="2.05546">
        <ele>78.490570068359</ele>
        <time>2016-09-22T07:48:56.000Z</time>
      </trkpt>
      <trkpt lat="48.70428" lon="2.05543">
        <ele>78.560989379883</ele>
        <time>2016-09-22T07:49:03.000Z</time>
      </trkpt>
      <trkpt lat="48.70427" lon="2.05542">
        <ele>78.592674255371</ele>
        <time>2016-09-22T07:49:05.000Z</time>
      </trkpt>
      <trkpt lat="48.70427" lon="2.05538">
        <ele>78.599472045898</ele>
        <time>2016-09-22T07:49:08.000Z</time>
      </trkpt>
      <trkpt lat="48.70427" lon="2.05536">
        <ele>78.58512878418</ele>
        <time>2016-09-22T07:49:10.000Z</time>
      </trkpt>
      <trkpt lat="48.70428" lon="2.05533">
        <ele>78.572036743164</ele>
        <time>2016-09-22T07:49:12.000Z</time>
      </trkpt>
      <trkpt lat="48.70428" lon="2.05526">
        <ele>78.586692810059</ele>
        <time>2016-09-22T07:49:15.000Z</time>
      </trkpt>
      <trkpt lat="48.70427" lon="2.05521">
        <ele>78.597091674805</ele>
        <time>2016-09-22T07:49:18.000Z</time>
      </trkpt>
      <trkpt lat="48.70428" lon="2.05517">
        <ele>78.621871948242</ele>
        <time>2016-09-22T07:49:21.000Z</time>
      </trkpt>
      <trkpt lat="48.7043" lon="2.05514">
        <ele>78.661354064941</ele>
        <time>2016-09-22T07:49:23.000Z</time>
      </trkpt>
      <trkpt lat="48.70431" lon="2.05508">
        <ele>78.702926635742</ele>
        <time>2016-09-22T07:49:26.000Z</time>
      </trkpt>
      <trkpt lat="48.70432" lon="2.05505">
        <ele>78.748794555664</ele>
        <time>2016-09-22T07:49:28.000Z</time>
      </trkpt>
      <trkpt lat="48.70433" lon="2.055">
        <ele>78.828048706055</ele>
        <time>2016-09-22T07:49:31.000Z</time>
      </trkpt>
      <trkpt lat="48.70436" lon="2.05499">
        <ele>78.924385070801</ele>
        <time>2016-09-22T07:49:36.000Z</time>
      </trkpt>
      <trkpt lat="48.70438" lon="2.05495">
        <ele>79.01008605957</ele>
        <time>2016-09-22T07:49:38.000Z</time>
      </trkpt>
      <trkpt lat="48.7044" lon="2.05491">
        <ele>79.080894470215</ele>
        <time>2016-09-22T07:49:41.000Z</time>
      </trkpt>
      <trkpt lat="48.70441" lon="2.05486">
        <ele>79.148300170898</ele>
        <time>2016-09-22T07:49:44.000Z</time>
      </trkpt>
      <trkpt lat="48.70443" lon="2.05484">
        <ele>79.203308105469</ele>
        <time>2016-09-22T07:49:46.000Z</time>
      </trkpt>
      <trkpt lat="48.70444" lon="2.05481">
        <ele>79.218154907227</ele>
        <time>2016-09-22T07:49:49.000Z</time>
      </trkpt>
      <trkpt lat="48.70446" lon="2.05478">
        <ele>79.243293762207</ele>
        <time>2016-09-22T07:49:52.000Z</time>
      </trkpt>
      <trkpt lat="48.70447" lon="2.05475">
        <ele>79.266998291016</ele>
        <time>2016-09-22T07:49:54.000Z</time>
      </trkpt>
      <trkpt lat="48.70449" lon="2.05467">
        <ele>79.271995544434</ele>
        <time>2016-09-22T07:49:57.000Z</time>
      </trkpt>
      <trkpt lat="48.70451" lon="2.0546">
        <ele>79.251998901367</ele>
        <time>2016-09-22T07:50:00.000Z</time>
      </trkpt>
      <trkpt lat="48.70452" lon="2.05451">
        <ele>79.207023620605</ele>
        <time>2016-09-22T07:50:03.000Z</time>
      </trkpt>
      <trkpt lat="48.70452" lon="2.05447">
        <ele>79.136291503906</ele>
        <time>2016-09-22T07:50:06.000Z</time>
      </trkpt>
      <trkpt lat="48.70454" lon="2.05441">
        <ele>79.058258056641</ele>
        <time>2016-09-22T07:50:09.000Z</time>
      </trkpt>
      <trkpt lat="48.70456" lon="2.05438">
        <ele>78.985778808594</ele>
        <time>2016-09-22T07:50:11.000Z</time>
      </trkpt>
      <trkpt lat="48.70457" lon="2.05434">
        <ele>78.93034362793</ele>
        <time>2016-09-22T07:50:13.000Z</time>
      </trkpt>
      <trkpt lat="48.70459" lon="2.05431">
        <ele>78.901084899902</ele>
        <time>2016-09-22T07:50:15.000Z</time>
      </trkpt>
      <trkpt lat="48.70462" lon="2.05428">
        <ele>78.890243530273</ele>
        <time>2016-09-22T07:50:18.000Z</time>
      </trkpt>
      <trkpt lat="48.70463" lon="2.05427">
        <ele>78.893142700195</ele>
        <time>2016-09-22T07:50:20.000Z</time>
      </trkpt>
      <trkpt lat="48.70464" lon="2.05427">
        <ele>78.908218383789</ele>
        <time>2016-09-22T07:50:22.000Z</time>
      </trkpt>
      <trkpt lat="48.70467" lon="2.05422">
        <ele>78.923889160156</ele>
        <time>2016-09-22T07:50:25.000Z</time>
      </trkpt>
      <trkpt lat="48.70468" lon="2.05417">
        <ele>78.919815063477</ele>
        <time>2016-09-22T07:50:28.000Z</time>
      </trkpt>
      <trkpt lat="48.7047" lon="2.05411">
        <ele>78.899147033691</ele>
        <time>2016-09-22T07:50:31.000Z</time>
      </trkpt>
      <trkpt lat="48.70471" lon="2.05407">
        <ele>78.858306884766</ele>
        <time>2016-09-22T07:50:33.000Z</time>
      </trkpt>
      <trkpt lat="48.70473" lon="2.05402">
        <ele>78.796775817871</ele>
        <time>2016-09-22T07:50:35.000Z</time>
      </trkpt>
      <trkpt lat="48.70475" lon="2.05399">
        <ele>78.73526763916</ele>
        <time>2016-09-22T07:50:38.000Z</time>
      </trkpt>
      <trkpt lat="48.70476" lon="2.05398">
        <ele>78.69718170166</ele>
        <time>2016-09-22T07:50:40.000Z</time>
      </trkpt>
      <trkpt lat="48.70477" lon="2.05393">
        <ele>78.650543212891</ele>
        <time>2016-09-22T07:50:42.000Z</time>
      </trkpt>
      <trkpt lat="48.70478" lon="2.0539">
        <ele>78.602653503418</ele>
        <time>2016-09-22T07:50:44.000Z</time>
      </trkpt>
      <trkpt lat="48.70479" lon="2.05387">
        <ele>78.556686401367</ele>
        <time>2016-09-22T07:50:46.000Z</time>
      </trkpt>
      <trkpt lat="48.7048" lon="2.05382">
        <ele>78.49739074707</ele>
        <time>2016-09-22T07:50:49.000Z</time>
      </trkpt>
      <trkpt lat="48.70482" lon="2.0538">
        <ele>78.431449890137</ele>
        <time>2016-09-22T07:50:51.000Z</time>
      </trkpt>
      <trkpt lat="48.70485" lon="2.05377">
        <ele>78.376808166504</ele>
        <time>2016-09-22T07:50:54.000Z</time>
      </trkpt>
      <trkpt lat="48.70486" lon="2.05376">
        <ele>78.335006713867</ele>
        <time>2016-09-22T07:50:56.000Z</time>
      </trkpt>
      <trkpt lat="48.70488" lon="2.05372">
        <ele>78.285339355469</ele>
        <time>2016-09-22T07:50:59.000Z</time>
      </trkpt>
      <trkpt lat="48.7049" lon="2.05368">
        <ele>78.236267089844</ele>
        <time>2016-09-22T07:51:02.000Z</time>
      </trkpt>
      <trkpt lat="48.70492" lon="2.05365">
        <ele>78.180305480957</ele>
        <time>2016-09-22T07:51:05.000Z</time>
      </trkpt>
      <trkpt lat="48.70494" lon="2.05362">
        <ele>78.111557006836</ele>
        <time>2016-09-22T07:51:07.000Z</time>
      </trkpt>
      <trkpt lat="48.70495" lon="2.05357">
        <ele>78.016647338867</ele>
        <time>2016-09-22T07:51:09.000Z</time>
      </trkpt>
      <trkpt lat="48.70496" lon="2.05354">
        <ele>77.921058654785</ele>
        <time>2016-09-22T07:51:11.000Z</time>
      </trkpt>
      <trkpt lat="48.70498" lon="2.05351">
        <ele>77.82559967041</ele>
        <time>2016-09-22T07:51:13.000Z</time>
      </trkpt>
      <trkpt lat="48.705" lon="2.05347">
        <ele>77.713073730469</ele>
        <time>2016-09-22T07:51:16.000Z</time>
      </trkpt>
      <trkpt lat="48.70502" lon="2.05344">
        <ele>77.618606567383</ele>
        <time>2016-09-22T07:51:18.000Z</time>
      </trkpt>
      <trkpt lat="48.70504" lon="2.0534">
        <ele>77.546424865723</ele>
        <time>2016-09-22T07:51:21.000Z</time>
      </trkpt>
      <trkpt lat="48.70506" lon="2.05337">
        <ele>77.498123168945</ele>
        <time>2016-09-22T07:51:24.000Z</time>
      </trkpt>
      <trkpt lat="48.70508" lon="2.05333">
        <ele>77.47176361084</ele>
        <time>2016-09-22T07:51:27.000Z</time>
      </trkpt>
      <trkpt lat="48.7051" lon="2.05329">
        <ele>77.501342773438</ele>
        <time>2016-09-22T07:51:30.000Z</time>
      </trkpt>
      <trkpt lat="48.70511" lon="2.05324">
        <ele>77.553283691406</ele>
        <time>2016-09-22T07:51:33.000Z</time>
      </trkpt>
      <trkpt lat="48.70513" lon="2.05321">
        <ele>77.632553100586</ele>
        <time>2016-09-22T07:51:35.000Z</time>
      </trkpt>
      <trkpt lat="48.70513" lon="2.05318">
        <ele>77.712684631348</ele>
        <time>2016-09-22T07:51:37.000Z</time>
      </trkpt>
      <trkpt lat="48.70512" lon="2.05312">
        <ele>77.781593322754</ele>
        <time>2016-09-22T07:51:43.000Z</time>
      </trkpt>
      <trkpt lat="48.70512" lon="2.05306">
        <ele>77.839889526367</ele>
        <time>2016-09-22T07:51:46.000Z</time>
      </trkpt>
      <trkpt lat="48.70513" lon="2.053">
        <ele>77.892051696777</ele>
        <time>2016-09-22T07:51:49.000Z</time>
      </trkpt>
      <trkpt lat="48.70513" lon="2.05296">
        <ele>77.927856445312</ele>
        <time>2016-09-22T07:51:51.000Z</time>
      </trkpt>
      <trkpt lat="48.70513" lon="2.05291">
        <ele>77.965919494629</ele>
        <time>2016-09-22T07:51:54.000Z</time>
      </trkpt>
      <trkpt lat="48.70513" lon="2.05285">
        <ele>78.013450622559</ele>
        <time>2016-09-22T07:51:57.000Z</time>
      </trkpt>
      <trkpt lat="48.70514" lon="2.05282">
        <ele>78.054885864258</ele>
        <time>2016-09-22T07:51:59.000Z</time>
      </trkpt>
      <trkpt lat="48.70515" lon="2.05279">
        <ele>78.093933105469</ele>
        <time>2016-09-22T07:52:01.000Z</time>
      </trkpt>
      <trkpt lat="48.70517" lon="2.05275">
        <ele>78.146438598633</ele>
        <time>2016-09-22T07:52:04.000Z</time>
      </trkpt>
      <trkpt lat="48.70519" lon="2.05272">
        <ele>78.208778381348</ele>
        <time>2016-09-22T07:52:06.000Z</time>
      </trkpt>
      <trkpt lat="48.70522" lon="2.05267">
        <ele>78.288291931152</ele>
        <time>2016-09-22T07:52:09.000Z</time>
      </trkpt>
      <trkpt lat="48.70524" lon="2.05264">
        <ele>78.371589660645</ele>
        <time>2016-09-22T07:52:12.000Z</time>
      </trkpt>
      <trkpt lat="48.70526" lon="2.05266">
        <ele>78.454025268555</ele>
        <time>2016-09-22T07:52:18.000Z</time>
      </trkpt>
      <trkpt lat="48.70528" lon="2.05262">
        <ele>78.532608032227</ele>
        <time>2016-09-22T07:52:21.000Z</time>
      </trkpt>
      <trkpt lat="48.70529" lon="2.05259">
        <ele>78.599426269531</ele>
        <time>2016-09-22T07:52:24.000Z</time>
      </trkpt>
      <trkpt lat="48.70528" lon="2.05253">
        <ele>78.642105102539</ele>
        <time>2016-09-22T07:52:28.000Z</time>
      </trkpt>
      <trkpt lat="48.70531" lon="2.05251">
        <ele>78.680625915527</ele>
        <time>2016-09-22T07:52:30.000Z</time>
      </trkpt>
      <trkpt lat="48.70534" lon="2.05249">
        <ele>78.720375061035</ele>
        <time>2016-09-22T07:52:33.000Z</time>
      </trkpt>
      <trkpt lat="48.70537" lon="2.05247">
        <ele>78.749977111816</ele>
        <time>2016-09-22T07:52:36.000Z</time>
      </trkpt>
      <trkpt lat="48.70538" lon="2.05244">
        <ele>78.770812988281</ele>
        <time>2016-09-22T07:52:38.000Z</time>
      </trkpt>
      <trkpt lat="48.7054" lon="2.05239">
        <ele>78.788780212402</ele>
        <time>2016-09-22T07:52:41.000Z</time>
      </trkpt>
      <trkpt lat="48.70543" lon="2.05236">
        <ele>78.795700073242</ele>
        <time>2016-09-22T07:52:44.000Z</time>
      </trkpt>
      <trkpt lat="48.70544" lon="2.0523">
        <ele>78.772361755371</ele>
        <time>2016-09-22T07:52:47.000Z</time>
      </trkpt>
      <trkpt lat="48.70546" lon="2.05224">
        <ele>78.731605529785</ele>
        <time>2016-09-22T07:52:50.000Z</time>
      </trkpt>
      <trkpt lat="48.70547" lon="2.05222">
        <ele>78.694160461426</ele>
        <time>2016-09-22T07:52:53.000Z</time>
      </trkpt>
      <trkpt lat="48.70549" lon="2.05215">
        <ele>78.64306640625</ele>
        <time>2016-09-22T07:52:55.000Z</time>
      </trkpt>
      <trkpt lat="48.70551" lon="2.05206">
        <ele>78.562301635742</ele>
        <time>2016-09-22T07:52:58.000Z</time>
      </trkpt>
      <trkpt lat="48.70551" lon="2.05202">
        <ele>78.485015869141</ele>
        <time>2016-09-22T07:53:00.000Z</time>
      </trkpt>
      <trkpt lat="48.70551" lon="2.05198">
        <ele>78.40372467041</ele>
        <time>2016-09-22T07:53:03.000Z</time>
      </trkpt>
      <trkpt lat="48.70552" lon="2.05199">
        <ele>78.330184936523</ele>
        <time>2016-09-22T07:53:07.000Z</time>
      </trkpt>
      <trkpt lat="48.70553" lon="2.05199">
        <ele>78.28141784668</ele>
        <time>2016-09-22T07:53:11.000Z</time>
      </trkpt>
      <trkpt lat="48.70557" lon="2.05194">
        <ele>78.252807617188</ele>
        <time>2016-09-22T07:53:14.000Z</time>
      </trkpt>
      <trkpt lat="48.7056" lon="2.0519">
        <ele>78.232833862305</ele>
        <time>2016-09-22T07:53:17.000Z</time>
      </trkpt>
      <trkpt lat="48.70563" lon="2.05188">
        <ele>78.228187561035</ele>
        <time>2016-09-22T07:53:20.000Z</time>
      </trkpt>
      <trkpt lat="48.70563" lon="2.05185">
        <ele>78.208511352539</ele>
        <time>2016-09-22T07:53:22.000Z</time>
      </trkpt>
      <trkpt lat="48.70562" lon="2.05182">
        <ele>78.165267944336</ele>
        <time>2016-09-22T07:53:25.000Z</time>
      </trkpt>
      <trkpt lat="48.70562" lon="2.05177">
        <ele>78.113357543945</ele>
        <time>2016-09-22T07:53:27.000Z</time>
      </trkpt>
      <trkpt lat="48.70561" lon="2.05173">
        <ele>78.045288085938</ele>
        <time>2016-09-22T07:53:29.000Z</time>
      </trkpt>
      <trkpt lat="48.70561" lon="2.05169">
        <ele>77.962059020996</ele>
        <time>2016-09-22T07:53:31.000Z</time>
      </trkpt>
      <trkpt lat="48.70562" lon="2.05166">
        <ele>77.880554199219</ele>
        <time>2016-09-22T07:53:33.000Z</time>
      </trkpt>
      <trkpt lat="48.70564" lon="2.05162">
        <ele>77.822853088379</ele>
        <time>2016-09-22T07:53:36.000Z</time>
      </trkpt>
      <trkpt lat="48.70567" lon="2.05157">
        <ele>77.79035949707</ele>
        <time>2016-09-22T07:53:39.000Z</time>
      </trkpt>
      <trkpt lat="48.70569" lon="2.05154">
        <ele>77.784927368164</ele>
        <time>2016-09-22T07:53:42.000Z</time>
      </trkpt>
      <trkpt lat="48.70573" lon="2.05152">
        <ele>77.8046875</ele>
        <time>2016-09-22T07:53:45.000Z</time>
      </trkpt>
      <trkpt lat="48.70578" lon="2.05151">
        <ele>77.84375</ele>
        <time>2016-09-22T07:53:48.000Z</time>
      </trkpt>
      <trkpt lat="48.70582" lon="2.05152">
        <ele>77.88671875</ele>
        <time>2016-09-22T07:53:51.000Z</time>
      </trkpt>
      <trkpt lat="48.70588" lon="2.05154">
        <ele>77.995887756348</ele>
        <time>2016-09-22T07:53:59.000Z</time>
      </trkpt>
      <trkpt lat="48.70592" lon="2.05155">
        <ele>78.172988891602</ele>
        <time>2016-09-22T07:54:01.000Z</time>
      </trkpt>
      <trkpt lat="48.70596" lon="2.05156">
        <ele>78.415382385254</ele>
        <time>2016-09-22T07:54:03.000Z</time>
      </trkpt>
      <trkpt lat="48.706" lon="2.05157">
        <ele>78.705856323242</ele>
        <time>2016-09-22T07:54:05.000Z</time>
      </trkpt>
      <trkpt lat="48.70607" lon="2.05152">
        <ele>79.090744018555</ele>
        <time>2016-09-22T07:54:08.000Z</time>
      </trkpt>
      <trkpt lat="48.70608" lon="2.05148">
        <ele>79.427375793457</ele>
        <time>2016-09-22T07:54:10.000Z</time>
      </trkpt>
      <trkpt lat="48.70609" lon="2.05142">
        <ele>79.699356079102</ele>
        <time>2016-09-22T07:54:13.000Z</time>
      </trkpt>
      <trkpt lat="48.7061" lon="2.05136">
        <ele>79.899108886719</ele>
        <time>2016-09-22T07:54:16.000Z</time>
      </trkpt>
      <trkpt lat="48.7061" lon="2.05131">
        <ele>80.0341796875</ele>
        <time>2016-09-22T07:54:18.000Z</time>
      </trkpt>
      <trkpt lat="48.70608" lon="2.05124">
        <ele>80.034553527832</ele>
        <time>2016-09-22T07:54:21.000Z</time>
      </trkpt>
      <trkpt lat="48.70609" lon="2.0512">
        <ele>80.02116394043</ele>
        <time>2016-09-22T07:54:24.000Z</time>
      </trkpt>
      <trkpt lat="48.70609" lon="2.05116">
        <ele>80.00138092041</ele>
        <time>2016-09-22T07:54:26.000Z</time>
      </trkpt>
      <trkpt lat="48.70609" lon="2.0511">
        <ele>79.97550201416</ele>
        <time>2016-09-22T07:54:28.000Z</time>
      </trkpt>
      <trkpt lat="48.70609" lon="2.05106">
        <ele>79.950355529785</ele>
        <time>2016-09-22T07:54:30.000Z</time>
      </trkpt>
      <trkpt lat="48.7061" lon="2.05098">
        <ele>79.96231842041</ele>
        <time>2016-09-22T07:54:33.000Z</time>
      </trkpt>
      <trkpt lat="48.7061" lon="2.05089">
        <ele>79.951171875</ele>
        <time>2016-09-22T07:54:36.000Z</time>
      </trkpt>
      <trkpt lat="48.7061" lon="2.05085">
        <ele>79.945846557617</ele>
        <time>2016-09-22T07:54:39.000Z</time>
      </trkpt>
      <trkpt lat="48.70612" lon="2.05082">
        <ele>79.961158752441</ele>
        <time>2016-09-22T07:54:41.000Z</time>
      </trkpt>
      <trkpt lat="48.70612" lon="2.05078">
        <ele>79.990875244141</ele>
        <time>2016-09-22T07:54:43.000Z</time>
      </trkpt>
      <trkpt lat="48.70614" lon="2.05073">
        <ele>80.035278320312</ele>
        <time>2016-09-22T07:54:46.000Z</time>
      </trkpt>
      <trkpt lat="48.70615" lon="2.05067">
        <ele>80.101943969727</ele>
        <time>2016-09-22T07:54:49.000Z</time>
      </trkpt>
      <trkpt lat="48.70617" lon="2.05064">
        <ele>80.179672241211</ele>
        <time>2016-09-22T07:54:51.000Z</time>
      </trkpt>
      <trkpt lat="48.70617" lon="2.05061">
        <ele>80.24976348877</ele>
        <time>2016-09-22T07:54:53.000Z</time>
      </trkpt>
      <trkpt lat="48.70618" lon="2.05057">
        <ele>80.311599731445</ele>
        <time>2016-09-22T07:54:55.000Z</time>
      </trkpt>
      <trkpt lat="48.70618" lon="2.05053">
        <ele>80.349792480469</ele>
        <time>2016-09-22T07:54:58.000Z</time>
      </trkpt>
      <trkpt lat="48.70618" lon="2.0505">
        <ele>80.381813049316</ele>
        <time>2016-09-22T07:55:00.000Z</time>
      </trkpt>
      <trkpt lat="48.70618" lon="2.05048">
        <ele>80.392974853516</ele>
        <time>2016-09-22T07:55:03.000Z</time>
      </trkpt>
      <trkpt lat="48.70619" lon="2.05045">
        <ele>80.402725219727</ele>
        <time>2016-09-22T07:55:06.000Z</time>
      </trkpt>
      <trkpt lat="48.7062" lon="2.05042">
        <ele>80.420425415039</ele>
        <time>2016-09-22T07:55:08.000Z</time>
      </trkpt>
      <trkpt lat="48.70622" lon="2.05037">
        <ele>80.453430175781</ele>
        <time>2016-09-22T07:55:11.000Z</time>
      </trkpt>
      <trkpt lat="48.70622" lon="2.05033">
        <ele>80.484481811523</ele>
        <time>2016-09-22T07:55:13.000Z</time>
      </trkpt>
      <trkpt lat="48.70623" lon="2.0503">
        <ele>80.517677307129</ele>
        <time>2016-09-22T07:55:15.000Z</time>
      </trkpt>
      <trkpt lat="48.70623" lon="2.05025">
        <ele>80.546493530273</ele>
        <time>2016-09-22T07:55:17.000Z</time>
      </trkpt>
      <trkpt lat="48.70625" lon="2.05019">
        <ele>80.568344116211</ele>
        <time>2016-09-22T07:55:20.000Z</time>
      </trkpt>
      <trkpt lat="48.70625" lon="2.05013">
        <ele>80.577621459961</ele>
        <time>2016-09-22T07:55:23.000Z</time>
      </trkpt>
      <trkpt lat="48.70627" lon="2.05005">
        <ele>80.584503173828</ele>
        <time>2016-09-22T07:55:26.000Z</time>
      </trkpt>
      <trkpt lat="48.70628" lon="2.05001">
        <ele>80.590553283691</ele>
        <time>2016-09-22T07:55:28.000Z</time>
      </trkpt>
      <trkpt lat="48.70628" lon="2.04995">
        <ele>80.592544555664</ele>
        <time>2016-09-22T07:55:30.000Z</time>
      </trkpt>
      <trkpt lat="48.7063" lon="2.04986">
        <ele>80.592613220215</ele>
        <time>2016-09-22T07:55:33.000Z</time>
      </trkpt>
      <trkpt lat="48.70631" lon="2.04982">
        <ele>80.595085144043</ele>
        <time>2016-09-22T07:55:35.000Z</time>
      </trkpt>
      <trkpt lat="48.70633" lon="2.04979">
        <ele>80.604629516602</ele>
        <time>2016-09-22T07:55:38.000Z</time>
      </trkpt>
      <trkpt lat="48.70633" lon="2.04973">
        <ele>80.603485107422</ele>
        <time>2016-09-22T07:55:40.000Z</time>
      </trkpt>
      <trkpt lat="48.70631" lon="2.04966">
        <ele>80.585487365723</ele>
        <time>2016-09-22T07:55:43.000Z</time>
      </trkpt>
      <trkpt lat="48.70633" lon="2.04962">
        <ele>80.570213317871</ele>
        <time>2016-09-22T07:55:45.000Z</time>
      </trkpt>
      <trkpt lat="48.70635" lon="2.04959">
        <ele>80.557960510254</ele>
        <time>2016-09-22T07:55:48.000Z</time>
      </trkpt>
      <trkpt lat="48.70636" lon="2.04956">
        <ele>80.539627075195</ele>
        <time>2016-09-22T07:55:50.000Z</time>
      </trkpt>
      <trkpt lat="48.70638" lon="2.04952">
        <ele>80.540603637695</ele>
        <time>2016-09-22T07:55:53.000Z</time>
      </trkpt>
      <trkpt lat="48.70639" lon="2.04947">
        <ele>80.559364318848</ele>
        <time>2016-09-22T07:55:56.000Z</time>
      </trkpt>
      <trkpt lat="48.7064" lon="2.04943">
        <ele>80.570945739746</ele>
        <time>2016-09-22T07:55:58.000Z</time>
      </trkpt>
      <trkpt lat="48.7064" lon="2.04938">
        <ele>80.567993164062</ele>
        <time>2016-09-22T07:56:01.000Z</time>
      </trkpt>
      <trkpt lat="48.7064" lon="2.04935">
        <ele>80.559341430664</ele>
        <time>2016-09-22T07:56:03.000Z</time>
      </trkpt>
      <trkpt lat="48.70639" lon="2.04933">
        <ele>80.535163879395</ele>
        <time>2016-09-22T07:56:06.000Z</time>
      </trkpt>
      <trkpt lat="48.70639" lon="2.0493">
        <ele>80.505409240723</ele>
        <time>2016-09-22T07:56:08.000Z</time>
      </trkpt>
      <trkpt lat="48.70639" lon="2.04927">
        <ele>80.473007202148</ele>
        <time>2016-09-22T07:56:11.000Z</time>
      </trkpt>
      <trkpt lat="48.70639" lon="2.04923">
        <ele>80.443069458008</ele>
        <time>2016-09-22T07:56:14.000Z</time>
      </trkpt>
      <trkpt lat="48.7064" lon="2.04921">
        <ele>80.419021606445</ele>
        <time>2016-09-22T07:56:16.000Z</time>
      </trkpt>
      <trkpt lat="48.70641" lon="2.04916">
        <ele>80.399047851562</ele>
        <time>2016-09-22T07:56:19.000Z</time>
      </trkpt>
      <trkpt lat="48.70641" lon="2.04913">
        <ele>80.386459350586</ele>
        <time>2016-09-22T07:56:22.000Z</time>
      </trkpt>
      <trkpt lat="48.70642" lon="2.0491">
        <ele>80.382415771484</ele>
        <time>2016-09-22T07:56:24.000Z</time>
      </trkpt>
      <trkpt lat="48.70643" lon="2.04904">
        <ele>80.382987976074</ele>
        <time>2016-09-22T07:56:27.000Z</time>
      </trkpt>
      <trkpt lat="48.70642" lon="2.049">
        <ele>80.378959655762</ele>
        <time>2016-09-22T07:56:29.000Z</time>
      </trkpt>
      <trkpt lat="48.70643" lon="2.04894">
        <ele>80.37760925293</ele>
        <time>2016-09-22T07:56:32.000Z</time>
      </trkpt>
      <trkpt lat="48.70644" lon="2.04888">
        <ele>80.372924804688</ele>
        <time>2016-09-22T07:56:34.000Z</time>
      </trkpt>
      <trkpt lat="48.70644" lon="2.04879">
        <ele>80.361373901367</ele>
        <time>2016-09-22T07:56:37.000Z</time>
      </trkpt>
      <trkpt lat="48.70644" lon="2.04872">
        <ele>80.349105834961</ele>
        <time>2016-09-22T07:56:40.000Z</time>
      </trkpt>
      <trkpt lat="48.70645" lon="2.04867">
        <ele>80.34114074707</ele>
        <time>2016-09-22T07:56:42.000Z</time>
      </trkpt>
      <trkpt lat="48.70644" lon="2.04862">
        <ele>80.32731628418</ele>
        <time>2016-09-22T07:56:44.000Z</time>
      </trkpt>
      <trkpt lat="48.70645" lon="2.04857">
        <ele>80.314743041992</ele>
        <time>2016-09-22T07:56:46.000Z</time>
      </trkpt>
      <trkpt lat="48.70646" lon="2.04855">
        <ele>80.309837341309</ele>
        <time>2016-09-22T07:56:48.000Z</time>
      </trkpt>
      <trkpt lat="48.70648" lon="2.04852">
        <ele>80.318992614746</ele>
        <time>2016-09-22T07:56:51.000Z</time>
      </trkpt>
      <trkpt lat="48.70649" lon="2.04849">
        <ele>80.337905883789</ele>
        <time>2016-09-22T07:56:53.000Z</time>
      </trkpt>
      <trkpt lat="48.7065" lon="2.04846">
        <ele>80.369651794434</ele>
        <time>2016-09-22T07:56:55.000Z</time>
      </trkpt>
      <trkpt lat="48.70652" lon="2.04841">
        <ele>80.407943725586</ele>
        <time>2016-09-22T07:56:58.000Z</time>
      </trkpt>
      <trkpt lat="48.70653" lon="2.04837">
        <ele>80.445831298828</ele>
        <time>2016-09-22T07:57:00.000Z</time>
      </trkpt>
      <trkpt lat="48.70654" lon="2.04832">
        <ele>80.475631713867</ele>
        <time>2016-09-22T07:57:03.000Z</time>
      </trkpt>
      <trkpt lat="48.70654" lon="2.04829">
        <ele>80.483535766602</ele>
        <time>2016-09-22T07:57:06.000Z</time>
      </trkpt>
      <trkpt lat="48.70655" lon="2.04822">
        <ele>80.461303710938</ele>
        <time>2016-09-22T07:57:09.000Z</time>
      </trkpt>
      <trkpt lat="48.70656" lon="2.04817">
        <ele>80.419464111328</ele>
        <time>2016-09-22T07:57:11.000Z</time>
      </trkpt>
      <trkpt lat="48.70657" lon="2.04811">
        <ele>80.354682922363</ele>
        <time>2016-09-22T07:57:14.000Z</time>
      </trkpt>
      <trkpt lat="48.70657" lon="2.04804">
        <ele>80.260604858398</ele>
        <time>2016-09-22T07:57:17.000Z</time>
      </trkpt>
      <trkpt lat="48.70657" lon="2.048">
        <ele>80.155372619629</ele>
        <time>2016-09-22T07:57:20.000Z</time>
      </trkpt>
      <trkpt lat="48.70656" lon="2.04797">
        <ele>80.059188842773</ele>
        <time>2016-09-22T07:57:22.000Z</time>
      </trkpt>
      <trkpt lat="48.70655" lon="2.04796">
        <ele>79.968032836914</ele>
        <time>2016-09-22T07:57:24.000Z</time>
      </trkpt>
      <trkpt lat="48.70655" lon="2.04793">
        <ele>79.883407592773</ele>
        <time>2016-09-22T07:57:27.000Z</time>
      </trkpt>
      <trkpt lat="48.70655" lon="2.04789">
        <ele>79.808303833008</ele>
        <time>2016-09-22T07:57:30.000Z</time>
      </trkpt>
      <trkpt lat="48.70656" lon="2.04786">
        <ele>79.74681854248</ele>
        <time>2016-09-22T07:57:33.000Z</time>
      </trkpt>
      <trkpt lat="48.70656" lon="2.04781">
        <ele>79.67765045166</ele>
        <time>2016-09-22T07:57:36.000Z</time>
      </trkpt>
      <trkpt lat="48.70655" lon="2.04777">
        <ele>79.595031738281</ele>
        <time>2016-09-22T07:57:39.000Z</time>
      </trkpt>
      <trkpt lat="48.70654" lon="2.04773">
        <ele>79.505348205566</ele>
        <time>2016-09-22T07:57:42.000Z</time>
      </trkpt>
      <trkpt lat="48.70654" lon="2.04768">
        <ele>79.414596557617</ele>
        <time>2016-09-22T07:57:45.000Z</time>
      </trkpt>
      <trkpt lat="48.70654" lon="2.04763">
        <ele>79.312240600586</ele>
        <time>2016-09-22T07:57:49.000Z</time>
      </trkpt>
      <trkpt lat="48.70654" lon="2.04757">
        <ele>79.206802368164</ele>
        <time>2016-09-22T07:57:52.000Z</time>
      </trkpt>
      <trkpt lat="48.70653" lon="2.0475">
        <ele>79.09342956543</ele>
        <time>2016-09-22T07:57:55.000Z</time>
      </trkpt>
      <trkpt lat="48.70652" lon="2.04746">
        <ele>78.99919128418</ele>
        <time>2016-09-22T07:57:58.000Z</time>
      </trkpt>
      <trkpt lat="48.7065" lon="2.04739">
        <ele>78.921798706055</ele>
        <time>2016-09-22T07:58:07.000Z</time>
      </trkpt>
      <trkpt lat="48.7065" lon="2.04736">
        <ele>78.866310119629</ele>
        <time>2016-09-22T07:58:09.000Z</time>
      </trkpt>
      <trkpt lat="48.70649" lon="2.0473">
        <ele>78.836029052734</ele>
        <time>2016-09-22T07:58:12.000Z</time>
      </trkpt>
      <trkpt lat="48.70647" lon="2.04725">
        <ele>78.836036682129</ele>
        <time>2016-09-22T07:58:14.000Z</time>
      </trkpt>
      <trkpt lat="48.70647" lon="2.04719">
        <ele>78.838645935059</ele>
        <time>2016-09-22T07:58:17.000Z</time>
      </trkpt>
      <trkpt lat="48.70646" lon="2.04714">
        <ele>78.844161987305</ele>
        <time>2016-09-22T07:58:19.000Z</time>
      </trkpt>
      <trkpt lat="48.70645" lon="2.04703">
        <ele>78.854637145996</ele>
        <time>2016-09-22T07:58:22.000Z</time>
      </trkpt>
      <trkpt lat="48.70644" lon="2.04696">
        <ele>78.868118286133</ele>
        <time>2016-09-22T07:58:24.000Z</time>
      </trkpt>
      <trkpt lat="48.70643" lon="2.04689">
        <ele>78.885391235352</ele>
        <time>2016-09-22T07:58:27.000Z</time>
      </trkpt>
      <trkpt lat="48.70643" lon="2.04685">
        <ele>78.902877807617</ele>
        <time>2016-09-22T07:58:29.000Z</time>
      </trkpt>
      <trkpt lat="48.70644" lon="2.04683">
        <ele>78.920120239258</ele>
        <time>2016-09-22T07:58:31.000Z</time>
      </trkpt>
      <trkpt lat="48.70645" lon="2.04679">
        <ele>78.934951782227</ele>
        <time>2016-09-22T07:58:34.000Z</time>
      </trkpt>
      <trkpt lat="48.70646" lon="2.04676">
        <ele>78.948684692383</ele>
        <time>2016-09-22T07:58:36.000Z</time>
      </trkpt>
      <trkpt lat="48.70646" lon="2.04674">
        <ele>78.959144592285</ele>
        <time>2016-09-22T07:58:39.000Z</time>
      </trkpt>
      <trkpt lat="48.70648" lon="2.04671">
        <ele>78.969749450684</ele>
        <time>2016-09-22T07:58:43.000Z</time>
      </trkpt>
      <trkpt lat="48.7065" lon="2.04665">
        <ele>78.982177734375</ele>
        <time>2016-09-22T07:58:46.000Z</time>
      </trkpt>
      <trkpt lat="48.70648" lon="2.04662">
        <ele>78.996620178223</ele>
        <time>2016-09-22T07:58:49.000Z</time>
      </trkpt>
      <trkpt lat="48.70647" lon="2.04658">
        <ele>79.013305664062</ele>
        <time>2016-09-22T07:58:51.000Z</time>
      </trkpt>
      <trkpt lat="48.70647" lon="2.04651">
        <ele>79.037178039551</ele>
        <time>2016-09-22T07:58:54.000Z</time>
      </trkpt>
      <trkpt lat="48.70647" lon="2.0465">
        <ele>79.060989379883</ele>
        <time>2016-09-22T07:58:56.000Z</time>
      </trkpt>
      <trkpt lat="48.7065" lon="2.04647">
        <ele>79.087966918945</ele>
        <time>2016-09-22T07:58:59.000Z</time>
      </trkpt>
      <trkpt lat="48.70651" lon="2.04644">
        <ele>79.114891052246</ele>
        <time>2016-09-22T07:59:01.000Z</time>
      </trkpt>
      <trkpt lat="48.70652" lon="2.04641">
        <ele>79.143310546875</ele>
        <time>2016-09-22T07:59:03.000Z</time>
      </trkpt>
      <trkpt lat="48.70653" lon="2.04637">
        <ele>79.17179107666</ele>
        <time>2016-09-22T07:59:06.000Z</time>
      </trkpt>
      <trkpt lat="48.70653" lon="2.04633">
        <ele>79.204284667969</ele>
        <time>2016-09-22T07:59:08.000Z</time>
      </trkpt>
      <trkpt lat="48.70653" lon="2.04626">
        <ele>79.240783691406</ele>
        <time>2016-09-22T07:59:11.000Z</time>
      </trkpt>
      <trkpt lat="48.70654" lon="2.04617">
        <ele>79.288803100586</ele>
        <time>2016-09-22T07:59:14.000Z</time>
      </trkpt>
      <trkpt lat="48.70654" lon="2.04609">
        <ele>79.34440612793</ele>
        <time>2016-09-22T07:59:17.000Z</time>
      </trkpt>
      <trkpt lat="48.70654" lon="2.04603">
        <ele>79.404098510742</ele>
        <time>2016-09-22T07:59:20.000Z</time>
      </trkpt>
      <trkpt lat="48.70654" lon="2.04598">
        <ele>79.465553283691</ele>
        <time>2016-09-22T07:59:23.000Z</time>
      </trkpt>
      <trkpt lat="48.70655" lon="2.04595">
        <ele>79.523788452148</ele>
        <time>2016-09-22T07:59:25.000Z</time>
      </trkpt>
      <trkpt lat="48.70657" lon="2.04592">
        <ele>79.578506469727</ele>
        <time>2016-09-22T07:59:28.000Z</time>
      </trkpt>
      <trkpt lat="48.70658" lon="2.04589">
        <ele>79.628837585449</ele>
        <time>2016-09-22T07:59:31.000Z</time>
      </trkpt>
      <trkpt lat="48.70659" lon="2.04584">
        <ele>79.683059692383</ele>
        <time>2016-09-22T07:59:34.000Z</time>
      </trkpt>
      <trkpt lat="48.70659" lon="2.04579">
        <ele>79.747695922852</ele>
        <time>2016-09-22T07:59:36.000Z</time>
      </trkpt>
      <trkpt lat="48.70658" lon="2.04576">
        <ele>79.811935424805</ele>
        <time>2016-09-22T07:59:39.000Z</time>
      </trkpt>
      <trkpt lat="48.70658" lon="2.04572">
        <ele>79.883972167969</ele>
        <time>2016-09-22T07:59:42.000Z</time>
      </trkpt>
      <trkpt lat="48.70659" lon="2.04568">
        <ele>79.969787597656</ele>
        <time>2016-09-22T07:59:44.000Z</time>
      </trkpt>
      <trkpt lat="48.7066" lon="2.04562">
        <ele>80.07364654541</ele>
        <time>2016-09-22T07:59:47.000Z</time>
      </trkpt>
      <trkpt lat="48.70659" lon="2.04558">
        <ele>80.16690826416</ele>
        <time>2016-09-22T07:59:50.000Z</time>
      </trkpt>
      <trkpt lat="48.7066" lon="2.04554">
        <ele>80.27507019043</ele>
        <time>2016-09-22T07:59:52.000Z</time>
      </trkpt>
      <trkpt lat="48.7066" lon="2.04548">
        <ele>80.392127990723</ele>
        <time>2016-09-22T07:59:55.000Z</time>
      </trkpt>
      <trkpt lat="48.70661" lon="2.04544">
        <ele>80.513221740723</ele>
        <time>2016-09-22T07:59:57.000Z</time>
      </trkpt>
      <trkpt lat="48.70663" lon="2.04539">
        <ele>80.634185791016</ele>
        <time>2016-09-22T08:00:00.000Z</time>
      </trkpt>
      <trkpt lat="48.70663" lon="2.04537">
        <ele>80.754241943359</ele>
        <time>2016-09-22T08:00:08.000Z</time>
      </trkpt>
      <trkpt lat="48.70662" lon="2.04533">
        <ele>80.868362426758</ele>
        <time>2016-09-22T08:00:11.000Z</time>
      </trkpt>
      <trkpt lat="48.70665" lon="2.04528">
        <ele>80.991714477539</ele>
        <time>2016-09-22T08:00:14.000Z</time>
      </trkpt>
      <trkpt lat="48.70665" lon="2.04519">
        <ele>81.131057739258</ele>
        <time>2016-09-22T08:00:17.000Z</time>
      </trkpt>
      <trkpt lat="48.70665" lon="2.04513">
        <ele>81.271385192871</ele>
        <time>2016-09-22T08:00:19.000Z</time>
      </trkpt>
      <trkpt lat="48.70667" lon="2.04507">
        <ele>81.452682495117</ele>
        <time>2016-09-22T08:00:22.000Z</time>
      </trkpt>
      <trkpt lat="48.70668" lon="2.04502">
        <ele>81.644332885742</ele>
        <time>2016-09-22T08:00:24.000Z</time>
      </trkpt>
      <trkpt lat="48.70668" lon="2.04497">
        <ele>81.793563842773</ele>
        <time>2016-09-22T08:00:26.000Z</time>
      </trkpt>
      <trkpt lat="48.70667" lon="2.04492">
        <ele>81.87230682373</ele>
        <time>2016-09-22T08:00:28.000Z</time>
      </trkpt>
      <trkpt lat="48.70666" lon="2.04488">
        <ele>81.88444519043</ele>
        <time>2016-09-22T08:00:30.000Z</time>
      </trkpt>
      <trkpt lat="48.70665" lon="2.04481">
        <ele>81.803199768066</ele>
        <time>2016-09-22T08:00:33.000Z</time>
      </trkpt>
      <trkpt lat="48.70665" lon="2.04477">
        <ele>81.670181274414</ele>
        <time>2016-09-22T08:00:35.000Z</time>
      </trkpt>
      <trkpt lat="48.70664" lon="2.04472">
        <ele>81.515975952148</ele>
        <time>2016-09-22T08:00:37.000Z</time>
      </trkpt>
      <trkpt lat="48.70665" lon="2.04468">
        <ele>81.370834350586</ele>
        <time>2016-09-22T08:00:39.000Z</time>
      </trkpt>
      <trkpt lat="48.70665" lon="2.04461">
        <ele>81.22770690918</ele>
        <time>2016-09-22T08:00:42.000Z</time>
      </trkpt>
      <trkpt lat="48.70666" lon="2.04457">
        <ele>81.118270874023</ele>
        <time>2016-09-22T08:00:45.000Z</time>
      </trkpt>
      <trkpt lat="48.70667" lon="2.04452">
        <ele>81.018882751465</ele>
        <time>2016-09-22T08:00:48.000Z</time>
      </trkpt>
      <trkpt lat="48.70667" lon="2.04448">
        <ele>80.934631347656</ele>
        <time>2016-09-22T08:00:51.000Z</time>
      </trkpt>
      <trkpt lat="48.70669" lon="2.04443">
        <ele>80.865295410156</ele>
        <time>2016-09-22T08:00:54.000Z</time>
      </trkpt>
      <trkpt lat="48.7067" lon="2.04436">
        <ele>80.802551269531</ele>
        <time>2016-09-22T08:00:57.000Z</time>
      </trkpt>
      <trkpt lat="48.70671" lon="2.0443">
        <ele>80.741325378418</ele>
        <time>2016-09-22T08:01:00.000Z</time>
      </trkpt>
      <trkpt lat="48.70671" lon="2.04424">
        <ele>80.673362731934</ele>
        <time>2016-09-22T08:01:03.000Z</time>
      </trkpt>
      <trkpt lat="48.70672" lon="2.04422">
        <ele>80.610488891602</ele>
        <time>2016-09-22T08:01:06.000Z</time>
      </trkpt>
      <trkpt lat="48.70672" lon="2.04419">
        <ele>80.539535522461</ele>
        <time>2016-09-22T08:01:09.000Z</time>
      </trkpt>
      <trkpt lat="48.70672" lon="2.04414">
        <ele>80.493827819824</ele>
        <time>2016-09-22T08:01:12.000Z</time>
      </trkpt>
      <trkpt lat="48.70673" lon="2.04409">
        <ele>80.475891113281</ele>
        <time>2016-09-22T08:01:14.000Z</time>
      </trkpt>
      <trkpt lat="48.70673" lon="2.04407">
        <ele>80.491386413574</ele>
        <time>2016-09-22T08:01:16.000Z</time>
      </trkpt>
      <trkpt lat="48.70674" lon="2.04404">
        <ele>80.531089782715</ele>
        <time>2016-09-22T08:01:18.000Z</time>
      </trkpt>
      <trkpt lat="48.70675" lon="2.044">
        <ele>80.610725402832</ele>
        <time>2016-09-22T08:01:21.000Z</time>
      </trkpt>
      <trkpt lat="48.70675" lon="2.04398">
        <ele>80.692993164062</ele>
        <time>2016-09-22T08:01:24.000Z</time>
      </trkpt>
      <trkpt lat="48.70675" lon="2.04393">
        <ele>80.765579223633</ele>
        <time>2016-09-22T08:01:27.000Z</time>
      </trkpt>
      <trkpt lat="48.70675" lon="2.04386">
        <ele>80.857421875</ele>
        <time>2016-09-22T08:01:30.000Z</time>
      </trkpt>
      <trkpt lat="48.70676" lon="2.04383">
        <ele>80.93733215332</ele>
        <time>2016-09-22T08:01:33.000Z</time>
      </trkpt>
      <trkpt lat="48.70675" lon="2.04383">
        <ele>80.976280212402</ele>
        <time>2016-09-22T08:01:36.000Z</time>
      </trkpt>
      <trkpt lat="48.70676" lon="2.04382">
        <ele>81.02449798584</ele>
        <time>2016-09-22T08:01:39.000Z</time>
      </trkpt>
      <trkpt lat="48.70677" lon="2.04378">
        <ele>81.101127624512</ele>
        <time>2016-09-22T08:01:42.000Z</time>
      </trkpt>
      <trkpt lat="48.70678" lon="2.04374">
        <ele>81.169662475586</ele>
        <time>2016-09-22T08:01:44.000Z</time>
      </trkpt>
      <trkpt lat="48.70679" lon="2.04369">
        <ele>81.264694213867</ele>
        <time>2016-09-22T08:01:47.000Z</time>
      </trkpt>
      <trkpt lat="48.70679" lon="2.04364">
        <ele>81.380165100098</ele>
        <time>2016-09-22T08:01:49.000Z</time>
      </trkpt>
      <trkpt lat="48.70678" lon="2.04357">
        <ele>81.487213134766</ele>
        <time>2016-09-22T08:01:52.000Z</time>
      </trkpt>
      <trkpt lat="48.70678" lon="2.04352">
        <ele>81.56534576416</ele>
        <time>2016-09-22T08:01:54.000Z</time>
      </trkpt>
      <trkpt lat="48.70675" lon="2.04341">
        <ele>81.601760864258</ele>
        <time>2016-09-22T08:01:57.000Z</time>
      </trkpt>
      <trkpt lat="48.70674" lon="2.04335">
        <ele>81.606910705566</ele>
        <time>2016-09-22T08:02:00.000Z</time>
      </trkpt>
      <trkpt lat="48.70674" lon="2.04333">
        <ele>81.612426757812</ele>
        <time>2016-09-22T08:02:02.000Z</time>
      </trkpt>
      <trkpt lat="48.70675" lon="2.04329">
        <ele>81.606735229492</ele>
        <time>2016-09-22T08:02:05.000Z</time>
      </trkpt>
      <trkpt lat="48.70675" lon="2.04325">
        <ele>81.569366455078</ele>
        <time>2016-09-22T08:02:07.000Z</time>
      </trkpt>
      <trkpt lat="48.70674" lon="2.0432">
        <ele>81.519317626953</ele>
        <time>2016-09-22T08:02:10.000Z</time>
      </trkpt>
      <trkpt lat="48.70674" lon="2.04316">
        <ele>81.45166015625</ele>
        <time>2016-09-22T08:02:12.000Z</time>
      </trkpt>
      <trkpt lat="48.70675" lon="2.04312">
        <ele>81.363258361816</ele>
        <time>2016-09-22T08:02:15.000Z</time>
      </trkpt>
      <trkpt lat="48.70675" lon="2.04309">
        <ele>81.274742126465</ele>
        <time>2016-09-22T08:02:17.000Z</time>
      </trkpt>
      <trkpt lat="48.70675" lon="2.04306">
        <ele>81.197402954102</ele>
        <time>2016-09-22T08:02:19.000Z</time>
      </trkpt>
      <trkpt lat="48.70673" lon="2.04302">
        <ele>81.09497833252</ele>
        <time>2016-09-22T08:02:22.000Z</time>
      </trkpt>
      <trkpt lat="48.70672" lon="2.04299">
        <ele>80.978713989258</ele>
        <time>2016-09-22T08:02:24.000Z</time>
      </trkpt>
      <trkpt lat="48.70672" lon="2.04292">
        <ele>80.835403442383</ele>
        <time>2016-09-22T08:02:27.000Z</time>
      </trkpt>
      <trkpt lat="48.70673" lon="2.04288">
        <ele>80.693397521973</ele>
        <time>2016-09-22T08:02:29.000Z</time>
      </trkpt>
      <trkpt lat="48.70673" lon="2.04282">
        <ele>80.538467407227</ele>
        <time>2016-09-22T08:02:32.000Z</time>
      </trkpt>
      <trkpt lat="48.70673" lon="2.04279">
        <ele>80.423202514648</ele>
        <time>2016-09-22T08:02:46.000Z</time>
      </trkpt>
      <trkpt lat="48.70673" lon="2.04271">
        <ele>80.31086730957</ele>
        <time>2016-09-22T08:02:49.000Z</time>
      </trkpt>
      <trkpt lat="48.70673" lon="2.04267">
        <ele>80.225204467773</ele>
        <time>2016-09-22T08:02:51.000Z</time>
      </trkpt>
      <trkpt lat="48.70674" lon="2.04262">
        <ele>80.127395629883</ele>
        <time>2016-09-22T08:02:54.000Z</time>
      </trkpt>
      <trkpt lat="48.70675" lon="2.04258">
        <ele>80.056297302246</ele>
        <time>2016-09-22T08:02:56.000Z</time>
      </trkpt>
      <trkpt lat="48.70676" lon="2.04253">
        <ele>79.99486541748</ele>
        <time>2016-09-22T08:02:58.000Z</time>
      </trkpt>
      <trkpt lat="48.70677" lon="2.04247">
        <ele>79.971801757812</ele>
        <time>2016-09-22T08:03:01.000Z</time>
      </trkpt>
      <trkpt lat="48.70677" lon="2.04241">
        <ele>79.973030090332</ele>
        <time>2016-09-22T08:03:04.000Z</time>
      </trkpt>
      <trkpt lat="48.70677" lon="2.04238">
        <ele>80.003768920898</ele>
        <time>2016-09-22T08:03:06.000Z</time>
      </trkpt>
      <trkpt lat="48.70678" lon="2.04234">
        <ele>80.056007385254</ele>
        <time>2016-09-22T08:03:08.000Z</time>
      </trkpt>
      <trkpt lat="48.70679" lon="2.0423">
        <ele>80.137542724609</ele>
        <time>2016-09-22T08:03:10.000Z</time>
      </trkpt>
      <trkpt lat="48.70678" lon="2.04225">
        <ele>80.193069458008</ele>
        <time>2016-09-22T08:03:13.000Z</time>
      </trkpt>
      <trkpt lat="48.70676" lon="2.04223">
        <ele>80.204193115234</ele>
        <time>2016-09-22T08:03:16.000Z</time>
      </trkpt>
      <trkpt lat="48.70677" lon="2.04221">
        <ele>80.227432250977</ele>
        <time>2016-09-22T08:03:18.000Z</time>
      </trkpt>
      <trkpt lat="48.70678" lon="2.04219">
        <ele>80.24649810791</ele>
        <time>2016-09-22T08:03:20.000Z</time>
      </trkpt>
      <trkpt lat="48.70676" lon="2.04215">
        <ele>80.223159790039</ele>
        <time>2016-09-22T08:03:22.000Z</time>
      </trkpt>
      <trkpt lat="48.70674" lon="2.04207">
        <ele>80.193229675293</ele>
        <time>2016-09-22T08:03:25.000Z</time>
      </trkpt>
      <trkpt lat="48.70673" lon="2.04201">
        <ele>80.195556640625</ele>
        <time>2016-09-22T08:03:28.000Z</time>
      </trkpt>
      <trkpt lat="48.70673" lon="2.04195">
        <ele>80.183753967285</ele>
        <time>2016-09-22T08:03:30.000Z</time>
      </trkpt>
      <trkpt lat="48.70673" lon="2.04187">
        <ele>80.176635742188</ele>
        <time>2016-09-22T08:03:33.000Z</time>
      </trkpt>
      <trkpt lat="48.70674" lon="2.0418">
        <ele>80.21076965332</ele>
        <time>2016-09-22T08:03:36.000Z</time>
      </trkpt>
      <trkpt lat="48.70674" lon="2.04176">
        <ele>80.272186279297</ele>
        <time>2016-09-22T08:03:38.000Z</time>
      </trkpt>
      <trkpt lat="48.70674" lon="2.04172">
        <ele>80.342460632324</ele>
        <time>2016-09-22T08:03:40.000Z</time>
      </trkpt>
      <trkpt lat="48.70674" lon="2.04167">
        <ele>80.413108825684</ele>
        <time>2016-09-22T08:03:43.000Z</time>
      </trkpt>
      <trkpt lat="48.70673" lon="2.04159">
        <ele>80.490829467773</ele>
        <time>2016-09-22T08:03:46.000Z</time>
      </trkpt>
      <trkpt lat="48.70673" lon="2.04151">
        <ele>80.577011108398</ele>
        <time>2016-09-22T08:03:49.000Z</time>
      </trkpt>
      <trkpt lat="48.70673" lon="2.04146">
        <ele>80.684638977051</ele>
        <time>2016-09-22T08:03:51.000Z</time>
      </trkpt>
      <trkpt lat="48.70673" lon="2.04139">
        <ele>80.814697265625</ele>
        <time>2016-09-22T08:03:54.000Z</time>
      </trkpt>
      <trkpt lat="48.70672" lon="2.04132">
        <ele>80.9501953125</ele>
        <time>2016-09-22T08:03:57.000Z</time>
      </trkpt>
      <trkpt lat="48.70673" lon="2.04128">
        <ele>81.093994140625</ele>
        <time>2016-09-22T08:03:59.000Z</time>
      </trkpt>
      <trkpt lat="48.70674" lon="2.0412">
        <ele>81.2578125</ele>
        <time>2016-09-22T08:04:02.000Z</time>
      </trkpt>
      <trkpt lat="48.70673" lon="2.04114">
        <ele>81.411010742188</ele>
        <time>2016-09-22T08:04:04.000Z</time>
      </trkpt>
      <trkpt lat="48.70673" lon="2.04109">
        <ele>81.557495117188</ele>
        <time>2016-09-22T08:04:06.000Z</time>
      </trkpt>
      <trkpt lat="48.70674" lon="2.04103">
        <ele>81.727966308594</ele>
        <time>2016-09-22T08:04:09.000Z</time>
      </trkpt>
      <trkpt lat="48.70673" lon="2.04099">
        <ele>81.867004394531</ele>
        <time>2016-09-22T08:04:11.000Z</time>
      </trkpt>
      <trkpt lat="48.70672" lon="2.04093">
        <ele>81.97412109375</ele>
        <time>2016-09-22T08:04:14.000Z</time>
      </trkpt>
      <trkpt lat="48.70671" lon="2.0409">
        <ele>82.052062988281</ele>
        <time>2016-09-22T08:04:16.000Z</time>
      </trkpt>
      <trkpt lat="48.7067" lon="2.04087">
        <ele>82.110290527344</ele>
        <time>2016-09-22T08:04:18.000Z</time>
      </trkpt>
      <trkpt lat="48.70669" lon="2.04081">
        <ele>82.11994934082</ele>
        <time>2016-09-22T08:04:21.000Z</time>
      </trkpt>
      <trkpt lat="48.70668" lon="2.04077">
        <ele>82.094223022461</ele>
        <time>2016-09-22T08:04:23.000Z</time>
      </trkpt>
      <trkpt lat="48.70668" lon="2.04073">
        <ele>82.031631469727</ele>
        <time>2016-09-22T08:04:26.000Z</time>
      </trkpt>
      <trkpt lat="48.70667" lon="2.04069">
        <ele>81.948051452637</ele>
        <time>2016-09-22T08:04:29.000Z</time>
      </trkpt>
      <trkpt lat="48.7067" lon="2.04066">
        <ele>81.88166809082</ele>
        <time>2016-09-22T08:04:32.000Z</time>
      </trkpt>
      <trkpt lat="48.7067" lon="2.0406">
        <ele>81.80200958252</ele>
        <time>2016-09-22T08:04:35.000Z</time>
      </trkpt>
      <trkpt lat="48.7067" lon="2.04055">
        <ele>81.720970153809</ele>
        <time>2016-09-22T08:04:37.000Z</time>
      </trkpt>
      <trkpt lat="48.7067" lon="2.04048">
        <ele>81.625747680664</ele>
        <time>2016-09-22T08:04:40.000Z</time>
      </trkpt>
      <trkpt lat="48.7067" lon="2.04042">
        <ele>81.53458404541</ele>
        <time>2016-09-22T08:04:43.000Z</time>
      </trkpt>
      <trkpt lat="48.70669" lon="2.04038">
        <ele>81.398017883301</ele>
        <time>2016-09-22T08:04:45.000Z</time>
      </trkpt>
      <trkpt lat="48.70668" lon="2.04035">
        <ele>81.253562927246</ele>
        <time>2016-09-22T08:04:47.000Z</time>
      </trkpt>
      <trkpt lat="48.70668" lon="2.0403">
        <ele>81.111778259277</ele>
        <time>2016-09-22T08:04:50.000Z</time>
      </trkpt>
      <trkpt lat="48.70667" lon="2.04027">
        <ele>80.977745056152</ele>
        <time>2016-09-22T08:04:52.000Z</time>
      </trkpt>
      <trkpt lat="48.70666" lon="2.04026">
        <ele>80.85026550293</ele>
        <time>2016-09-22T08:04:55.000Z</time>
      </trkpt>
      <trkpt lat="48.70665" lon="2.04021">
        <ele>80.723342895508</ele>
        <time>2016-09-22T08:04:58.000Z</time>
      </trkpt>
      <trkpt lat="48.70663" lon="2.04016">
        <ele>80.595703125</ele>
        <time>2016-09-22T08:05:01.000Z</time>
      </trkpt>
      <trkpt lat="48.70663" lon="2.04012">
        <ele>80.474571228027</ele>
        <time>2016-09-22T08:05:03.000Z</time>
      </trkpt>
      <trkpt lat="48.70664" lon="2.04007">
        <ele>80.358871459961</ele>
        <time>2016-09-22T08:05:05.000Z</time>
      </trkpt>
      <trkpt lat="48.70663" lon="2.04004">
        <ele>80.250518798828</ele>
        <time>2016-09-22T08:05:07.000Z</time>
      </trkpt>
      <trkpt lat="48.70664" lon="2.04003">
        <ele>80.158195495605</ele>
        <time>2016-09-22T08:05:13.000Z</time>
      </trkpt>
      <trkpt lat="48.70663" lon="2.03998">
        <ele>80.082321166992</ele>
        <time>2016-09-22T08:05:15.000Z</time>
      </trkpt>
      <trkpt lat="48.70663" lon="2.03991">
        <ele>80.027305603027</ele>
        <time>2016-09-22T08:05:18.000Z</time>
      </trkpt>
      <trkpt lat="48.70663" lon="2.03987">
        <ele>79.992599487305</ele>
        <time>2016-09-22T08:05:20.000Z</time>
      </trkpt>
      <trkpt lat="48.70664" lon="2.03981">
        <ele>79.972938537598</ele>
        <time>2016-09-22T08:05:23.000Z</time>
      </trkpt>
      <trkpt lat="48.70663" lon="2.03979">
        <ele>79.9599609375</ele>
        <time>2016-09-22T08:05:32.000Z</time>
      </trkpt>
      <trkpt lat="48.70662" lon="2.03976">
        <ele>79.9560546875</ele>
        <time>2016-09-22T08:05:34.000Z</time>
      </trkpt>
      <trkpt lat="48.7066" lon="2.03974">
        <ele>79.9482421875</ele>
        <time>2016-09-22T08:05:36.000Z</time>
      </trkpt>
      <trkpt lat="48.70657" lon="2.0397">
        <ele>79.93359375</ele>
        <time>2016-09-22T08:05:39.000Z</time>
      </trkpt>
      <trkpt lat="48.70653" lon="2.03967">
        <ele>79.908203125</ele>
        <time>2016-09-22T08:05:42.000Z</time>
      </trkpt>
      <trkpt lat="48.70652" lon="2.03965">
        <ele>79.880859375</ele>
        <time>2016-09-22T08:05:44.000Z</time>
      </trkpt>
      <trkpt lat="48.7065" lon="2.03963">
        <ele>79.8544921875</ele>
        <time>2016-09-22T08:05:46.000Z</time>
      </trkpt>
      <trkpt lat="48.70648" lon="2.03961">
        <ele>79.826171875</ele>
        <time>2016-09-22T08:05:49.000Z</time>
      </trkpt>
      <trkpt lat="48.70647" lon="2.03958">
        <ele>79.8017578125</ele>
        <time>2016-09-22T08:05:51.000Z</time>
      </trkpt>
      <trkpt lat="48.70645" lon="2.03955">
        <ele>79.783203125</ele>
        <time>2016-09-22T08:05:53.000Z</time>
      </trkpt>
      <trkpt lat="48.70643" lon="2.03951">
        <ele>79.76171875</ele>
        <time>2016-09-22T08:05:55.000Z</time>
      </trkpt>
      <trkpt lat="48.70639" lon="2.03943">
        <ele>79.7333984375</ele>
        <time>2016-09-22T08:05:58.000Z</time>
      </trkpt>
      <trkpt lat="48.70635" lon="2.0394">
        <ele>79.7021484375</ele>
        <time>2016-09-22T08:06:01.000Z</time>
      </trkpt>
      <trkpt lat="48.70631" lon="2.03941">
        <ele>79.6650390625</ele>
        <time>2016-09-22T08:06:03.000Z</time>
      </trkpt>
      <trkpt lat="48.70628" lon="2.03939">
        <ele>79.6220703125</ele>
        <time>2016-09-22T08:06:06.000Z</time>
      </trkpt>
      <trkpt lat="48.70632" lon="2.03938">
        <ele>79.595703125</ele>
        <time>2016-09-22T08:06:13.000Z</time>
      </trkpt>
      <trkpt lat="48.70629" lon="2.03934">
        <ele>79.572265625</ele>
        <time>2016-09-22T08:06:16.000Z</time>
      </trkpt>
      <trkpt lat="48.70627" lon="2.03932">
        <ele>79.552734375</ele>
        <time>2016-09-22T08:06:18.000Z</time>
      </trkpt>
      <trkpt lat="48.70625" lon="2.03928">
        <ele>79.5361328125</ele>
        <time>2016-09-22T08:06:21.000Z</time>
      </trkpt>
      <trkpt lat="48.70621" lon="2.03923">
        <ele>79.521484375</ele>
        <time>2016-09-22T08:06:24.000Z</time>
      </trkpt>
      <trkpt lat="48.70621" lon="2.0392">
        <ele>79.4951171875</ele>
        <time>2016-09-22T08:06:26.000Z</time>
      </trkpt>
      <trkpt lat="48.70621" lon="2.03914">
        <ele>79.4755859375</ele>
        <time>2016-09-22T08:06:29.000Z</time>
      </trkpt>
      <trkpt lat="48.70618" lon="2.03911">
        <ele>79.455078125</ele>
        <time>2016-09-22T08:06:32.000Z</time>
      </trkpt>
      <trkpt lat="48.70617" lon="2.0391">
        <ele>79.4365234375</ele>
        <time>2016-09-22T08:06:34.000Z</time>
      </trkpt>
      <trkpt lat="48.70614" lon="2.03908">
        <ele>79.419921875</ele>
        <time>2016-09-22T08:06:39.000Z</time>
      </trkpt>
      <trkpt lat="48.70612" lon="2.03907">
        <ele>79.3994140625</ele>
        <time>2016-09-22T08:06:41.000Z</time>
      </trkpt>
      <trkpt lat="48.7061" lon="2.03905">
        <ele>79.3740234375</ele>
        <time>2016-09-22T08:06:46.000Z</time>
      </trkpt>
      <trkpt lat="48.70608" lon="2.03901">
        <ele>79.3486328125</ele>
        <time>2016-09-22T08:06:49.000Z</time>
      </trkpt>
      <trkpt lat="48.70607" lon="2.03898">
        <ele>79.32421875</ele>
        <time>2016-09-22T08:06:52.000Z</time>
      </trkpt>
      <trkpt lat="48.70605" lon="2.03895">
        <ele>79.30078125</ele>
        <time>2016-09-22T08:06:54.000Z</time>
      </trkpt>
      <trkpt lat="48.70601" lon="2.03893">
        <ele>79.2734375</ele>
        <time>2016-09-22T08:06:57.000Z</time>
      </trkpt>
      <trkpt lat="48.70596" lon="2.03889">
        <ele>79.2392578125</ele>
        <time>2016-09-22T08:07:00.000Z</time>
      </trkpt>
      <trkpt lat="48.70592" lon="2.03884">
        <ele>79.201171875</ele>
        <time>2016-09-22T08:07:03.000Z</time>
      </trkpt>
      <trkpt lat="48.70591" lon="2.03883">
        <ele>79.162109375</ele>
        <time>2016-09-22T08:07:05.000Z</time>
      </trkpt>
      <trkpt lat="48.70587" lon="2.0388">
        <ele>79.119140625</ele>
        <time>2016-09-22T08:07:08.000Z</time>
      </trkpt>
      <trkpt lat="48.70583" lon="2.03878">
        <ele>79.078323364258</ele>
        <time>2016-09-22T08:07:11.000Z</time>
      </trkpt>
      <trkpt lat="48.70581" lon="2.03878">
        <ele>79.054100036621</ele>
        <time>2016-09-22T08:07:14.000Z</time>
      </trkpt>
      <trkpt lat="48.70579" lon="2.03877">
        <ele>79.043556213379</ele>
        <time>2016-09-22T08:07:16.000Z</time>
      </trkpt>
      <trkpt lat="48.70576" lon="2.03873">
        <ele>79.042770385742</ele>
        <time>2016-09-22T08:07:19.000Z</time>
      </trkpt>
      <trkpt lat="48.70576" lon="2.03869">
        <ele>79.0517578125</ele>
        <time>2016-09-22T08:07:22.000Z</time>
      </trkpt>
      <trkpt lat="48.70576" lon="2.03863">
        <ele>79.068359375</ele>
        <time>2016-09-22T08:07:25.000Z</time>
      </trkpt>
      <trkpt lat="48.70572" lon="2.03856">
        <ele>79.08984375</ele>
        <time>2016-09-22T08:07:28.000Z</time>
      </trkpt>
      <trkpt lat="48.70569" lon="2.03852">
        <ele>79.1142578125</ele>
        <time>2016-09-22T08:07:30.000Z</time>
      </trkpt>
      <trkpt lat="48.70565" lon="2.03846">
        <ele>79.1416015625</ele>
        <time>2016-09-22T08:07:33.000Z</time>
      </trkpt>
      <trkpt lat="48.70562" lon="2.03841">
        <ele>79.1748046875</ele>
        <time>2016-09-22T08:07:35.000Z</time>
      </trkpt>
      <trkpt lat="48.70559" lon="2.03835">
        <ele>79.2158203125</ele>
        <time>2016-09-22T08:07:38.000Z</time>
      </trkpt>
      <trkpt lat="48.70555" lon="2.03831">
        <ele>79.255859375</ele>
        <time>2016-09-22T08:07:41.000Z</time>
      </trkpt>
      <trkpt lat="48.70552" lon="2.03826">
        <ele>79.2958984375</ele>
        <time>2016-09-22T08:07:44.000Z</time>
      </trkpt>
      <trkpt lat="48.7055" lon="2.03823">
        <ele>79.33203125</ele>
        <time>2016-09-22T08:07:46.000Z</time>
      </trkpt>
      <trkpt lat="48.70547" lon="2.03819">
        <ele>79.3671875</ele>
        <time>2016-09-22T08:07:49.000Z</time>
      </trkpt>
      <trkpt lat="48.70544" lon="2.03817">
        <ele>79.4013671875</ele>
        <time>2016-09-22T08:07:52.000Z</time>
      </trkpt>
      <trkpt lat="48.70544" lon="2.03814">
        <ele>79.427734375</ele>
        <time>2016-09-22T08:07:55.000Z</time>
      </trkpt>
      <trkpt lat="48.70544" lon="2.03809">
        <ele>79.447265625</ele>
        <time>2016-09-22T08:07:58.000Z</time>
      </trkpt>
      <trkpt lat="48.70544" lon="2.03804">
        <ele>79.4609375</ele>
        <time>2016-09-22T08:08:01.000Z</time>
      </trkpt>
      <trkpt lat="48.70544" lon="2.038">
        <ele>79.4697265625</ele>
        <time>2016-09-22T08:08:03.000Z</time>
      </trkpt>
      <trkpt lat="48.70544" lon="2.03797">
        <ele>79.4716796875</ele>
        <time>2016-09-22T08:08:05.000Z</time>
      </trkpt>
      <trkpt lat="48.70544" lon="2.03794">
        <ele>79.4716796875</ele>
        <time>2016-09-22T08:08:08.000Z</time>
      </trkpt>
      <trkpt lat="48.70545" lon="2.0379">
        <ele>79.4697265625</ele>
        <time>2016-09-22T08:08:11.000Z</time>
      </trkpt>
      <trkpt lat="48.70545" lon="2.03787">
        <ele>79.4677734375</ele>
        <time>2016-09-22T08:08:13.000Z</time>
      </trkpt>
      <trkpt lat="48.70544" lon="2.03782">
        <ele>79.4677734375</ele>
        <time>2016-09-22T08:08:16.000Z</time>
      </trkpt>
      <trkpt lat="48.70543" lon="2.03779">
        <ele>79.4697265625</ele>
        <time>2016-09-22T08:08:18.000Z</time>
      </trkpt>
      <trkpt lat="48.70542" lon="2.03775">
        <ele>79.4755859375</ele>
        <time>2016-09-22T08:08:21.000Z</time>
      </trkpt>
      <trkpt lat="48.70541" lon="2.03773">
        <ele>79.484375</ele>
        <time>2016-09-22T08:08:23.000Z</time>
      </trkpt>
      <trkpt lat="48.70544" lon="2.03774">
        <ele>79.486328125</ele>
        <time>2016-09-22T08:08:36.000Z</time>
      </trkpt>
      <trkpt lat="48.70547" lon="2.03768">
        <ele>79.4794921875</ele>
        <time>2016-09-22T08:08:39.000Z</time>
      </trkpt>
      <trkpt lat="48.70549" lon="2.03758">
        <ele>79.46484375</ele>
        <time>2016-09-22T08:08:42.000Z</time>
      </trkpt>
      <trkpt lat="48.70551" lon="2.03754">
        <ele>79.443359375</ele>
        <time>2016-09-22T08:08:45.000Z</time>
      </trkpt>
      <trkpt lat="48.70554" lon="2.03755">
        <ele>79.412109375</ele>
        <time>2016-09-22T08:08:48.000Z</time>
      </trkpt>
      <trkpt lat="48.70557" lon="2.03758">
        <ele>79.3828125</ele>
        <time>2016-09-22T08:08:51.000Z</time>
      </trkpt>
      <trkpt lat="48.70561" lon="2.03757">
        <ele>79.349609375</ele>
        <time>2016-09-22T08:08:53.000Z</time>
      </trkpt>
      <trkpt lat="48.70566" lon="2.03756">
        <ele>79.30859375</ele>
        <time>2016-09-22T08:08:56.000Z</time>
      </trkpt>
      <trkpt lat="48.70568" lon="2.03756">
        <ele>79.265625</ele>
        <time>2016-09-22T08:08:58.000Z</time>
      </trkpt>
      <trkpt lat="48.70571" lon="2.03756">
        <ele>79.224609375</ele>
        <time>2016-09-22T08:09:01.000Z</time>
      </trkpt>
      <trkpt lat="48.70577" lon="2.03757">
        <ele>79.17578125</ele>
        <time>2016-09-22T08:09:04.000Z</time>
      </trkpt>
      <trkpt lat="48.7058" lon="2.03758">
        <ele>79.1298828125</ele>
        <time>2016-09-22T08:09:06.000Z</time>
      </trkpt>
      <trkpt lat="48.70583" lon="2.03755">
        <ele>79.088668823242</ele>
        <time>2016-09-22T08:09:09.000Z</time>
      </trkpt>
      <trkpt lat="48.70587" lon="2.03753">
        <ele>79.061134338379</ele>
        <time>2016-09-22T08:09:12.000Z</time>
      </trkpt>
      <trkpt lat="48.7059" lon="2.03753">
        <ele>79.048240661621</ele>
        <time>2016-09-22T08:09:14.000Z</time>
      </trkpt>
      <trkpt lat="48.70593" lon="2.03755">
        <ele>79.056838989258</ele>
        <time>2016-09-22T08:09:17.000Z</time>
      </trkpt>
      <trkpt lat="48.70596" lon="2.03759">
        <ele>79.0791015625</ele>
        <time>2016-09-22T08:09:19.000Z</time>
      </trkpt>
      <trkpt lat="48.70598" lon="2.03761">
        <ele>79.1142578125</ele>
        <time>2016-09-22T08:09:22.000Z</time>
      </trkpt>
      <trkpt lat="48.706" lon="2.03762">
        <ele>79.1455078125</ele>
        <time>2016-09-22T08:09:24.000Z</time>
      </trkpt>
      <trkpt lat="48.70602" lon="2.03763">
        <ele>79.1748046875</ele>
        <time>2016-09-22T08:09:26.000Z</time>
      </trkpt>
      <trkpt lat="48.70605" lon="2.03763">
        <ele>79.203125</ele>
        <time>2016-09-22T08:09:29.000Z</time>
      </trkpt>
      <trkpt lat="48.70607" lon="2.03764">
        <ele>79.23046875</ele>
        <time>2016-09-22T08:09:31.000Z</time>
      </trkpt>
      <trkpt lat="48.70609" lon="2.03765">
        <ele>79.2568359375</ele>
        <time>2016-09-22T08:09:33.000Z</time>
      </trkpt>
      <trkpt lat="48.7061" lon="2.03766">
        <ele>79.2822265625</ele>
        <time>2016-09-22T08:09:36.000Z</time>
      </trkpt>
      <trkpt lat="48.70616" lon="2.0377">
        <ele>79.314453125</ele>
        <time>2016-09-22T08:09:39.000Z</time>
      </trkpt>
      <trkpt lat="48.7062" lon="2.03772">
        <ele>79.3515625</ele>
        <time>2016-09-22T08:09:42.000Z</time>
      </trkpt>
      <trkpt lat="48.70623" lon="2.03774">
        <ele>79.3896484375</ele>
        <time>2016-09-22T08:09:44.000Z</time>
      </trkpt>
      <trkpt lat="48.70627" lon="2.03775">
        <ele>79.4326171875</ele>
        <time>2016-09-22T08:09:47.000Z</time>
      </trkpt>
      <trkpt lat="48.70629" lon="2.03776">
        <ele>79.4775390625</ele>
        <time>2016-09-22T08:09:49.000Z</time>
      </trkpt>
      <trkpt lat="48.70631" lon="2.03775">
        <ele>79.513671875</ele>
        <time>2016-09-22T08:09:52.000Z</time>
      </trkpt>
      <trkpt lat="48.70632" lon="2.03773">
        <ele>79.5419921875</ele>
        <time>2016-09-22T08:09:54.000Z</time>
      </trkpt>
      <trkpt lat="48.70635" lon="2.03772">
        <ele>79.5703125</ele>
        <time>2016-09-22T08:09:57.000Z</time>
      </trkpt>
      <trkpt lat="48.70638" lon="2.03771">
        <ele>79.5966796875</ele>
        <time>2016-09-22T08:09:59.000Z</time>
      </trkpt>
      <trkpt lat="48.7064" lon="2.03771">
        <ele>79.623046875</ele>
        <time>2016-09-22T08:10:01.000Z</time>
      </trkpt>
      <trkpt lat="48.70644" lon="2.0377">
        <ele>79.6552734375</ele>
        <time>2016-09-22T08:10:04.000Z</time>
      </trkpt>
      <trkpt lat="48.70647" lon="2.03768">
        <ele>79.69140625</ele>
        <time>2016-09-22T08:10:06.000Z</time>
      </trkpt>
      <trkpt lat="48.70656" lon="2.03769">
        <ele>79.7412109375</ele>
        <time>2016-09-22T08:10:09.000Z</time>
      </trkpt>
      <trkpt lat="48.70658" lon="2.0377">
        <ele>79.7880859375</ele>
        <time>2016-09-22T08:10:11.000Z</time>
      </trkpt>
      <trkpt lat="48.70659" lon="2.03771">
        <ele>79.833984375</ele>
        <time>2016-09-22T08:10:13.000Z</time>
      </trkpt>
      <trkpt lat="48.70662" lon="2.0377">
        <ele>79.8759765625</ele>
        <time>2016-09-22T08:10:15.000Z</time>
      </trkpt>
      <trkpt lat="48.70665" lon="2.0377">
        <ele>79.9189453125</ele>
        <time>2016-09-22T08:10:18.000Z</time>
      </trkpt>
      <trkpt lat="48.70668" lon="2.03769">
        <ele>79.950958251953</ele>
        <time>2016-09-22T08:10:21.000Z</time>
      </trkpt>
      <trkpt lat="48.7067" lon="2.03768">
        <ele>79.993225097656</ele>
        <time>2016-09-22T08:10:23.000Z</time>
      </trkpt>
      <trkpt lat="48.70672" lon="2.03766">
        <ele>80.040664672852</ele>
        <time>2016-09-22T08:10:25.000Z</time>
      </trkpt>
      <trkpt lat="48.70676" lon="2.03766">
        <ele>80.103149414062</ele>
        <time>2016-09-22T08:10:28.000Z</time>
      </trkpt>
      <trkpt lat="48.7068" lon="2.03768">
        <ele>80.186408996582</ele>
        <time>2016-09-22T08:10:31.000Z</time>
      </trkpt>
      <trkpt lat="48.70683" lon="2.03766">
        <ele>80.275047302246</ele>
        <time>2016-09-22T08:10:34.000Z</time>
      </trkpt>
      <trkpt lat="48.70685" lon="2.03764">
        <ele>80.356239318848</ele>
        <time>2016-09-22T08:10:37.000Z</time>
      </trkpt>
      <trkpt lat="48.70686" lon="2.03761">
        <ele>80.434181213379</ele>
        <time>2016-09-22T08:10:40.000Z</time>
      </trkpt>
      <trkpt lat="48.70688" lon="2.0376">
        <ele>80.498397827148</ele>
        <time>2016-09-22T08:10:42.000Z</time>
      </trkpt>
      <trkpt lat="48.70691" lon="2.03759">
        <ele>80.549140930176</ele>
        <time>2016-09-22T08:10:45.000Z</time>
      </trkpt>
      <trkpt lat="48.70694" lon="2.03757">
        <ele>80.596969604492</ele>
        <time>2016-09-22T08:10:48.000Z</time>
      </trkpt>
      <trkpt lat="48.70697" lon="2.03757">
        <ele>80.650489807129</ele>
        <time>2016-09-22T08:10:51.000Z</time>
      </trkpt>
      <trkpt lat="48.70697" lon="2.03757">
        <ele>80.703018188477</ele>
        <time>2016-09-22T08:10:53.000Z</time>
      </trkpt>
      <trkpt lat="48.707" lon="2.03756">
        <ele>80.759017944336</ele>
        <time>2016-09-22T08:10:55.000Z</time>
      </trkpt>
      <trkpt lat="48.70702" lon="2.03754">
        <ele>80.808288574219</ele>
        <time>2016-09-22T08:10:57.000Z</time>
      </trkpt>
      <trkpt lat="48.70707" lon="2.03753">
        <ele>80.862953186035</ele>
        <time>2016-09-22T08:11:00.000Z</time>
      </trkpt>
      <trkpt lat="48.70709" lon="2.03751">
        <ele>80.913414001465</ele>
        <time>2016-09-22T08:11:02.000Z</time>
      </trkpt>
      <trkpt lat="48.70713" lon="2.0375">
        <ele>80.973442077637</ele>
        <time>2016-09-22T08:11:05.000Z</time>
      </trkpt>
      <trkpt lat="48.70715" lon="2.03748">
        <ele>81.036285400391</ele>
        <time>2016-09-22T08:11:07.000Z</time>
      </trkpt>
      <trkpt lat="48.70718" lon="2.03746">
        <ele>81.108978271484</ele>
        <time>2016-09-22T08:11:10.000Z</time>
      </trkpt>
      <trkpt lat="48.70721" lon="2.03745">
        <ele>81.176536560059</ele>
        <time>2016-09-22T08:11:12.000Z</time>
      </trkpt>
      <trkpt lat="48.70723" lon="2.03743">
        <ele>81.248977661133</ele>
        <time>2016-09-22T08:11:15.000Z</time>
      </trkpt>
      <trkpt lat="48.70724" lon="2.03742">
        <ele>81.311485290527</ele>
        <time>2016-09-22T08:11:17.000Z</time>
      </trkpt>
      <trkpt lat="48.70724" lon="2.03744">
        <ele>81.359062194824</ele>
        <time>2016-09-22T08:11:22.000Z</time>
      </trkpt>
      <trkpt lat="48.70724" lon="2.0374">
        <ele>81.390296936035</ele>
        <time>2016-09-22T08:11:25.000Z</time>
      </trkpt>
      <trkpt lat="48.70725" lon="2.03737">
        <ele>81.413391113281</ele>
        <time>2016-09-22T08:11:27.000Z</time>
      </trkpt>
      <trkpt lat="48.70726" lon="2.03733">
        <ele>81.431594848633</ele>
        <time>2016-09-22T08:11:29.000Z</time>
      </trkpt>
      <trkpt lat="48.70728" lon="2.0373">
        <ele>81.455963134766</ele>
        <time>2016-09-22T08:11:32.000Z</time>
      </trkpt>
      <trkpt lat="48.70729" lon="2.03726">
        <ele>81.487518310547</ele>
        <time>2016-09-22T08:11:34.000Z</time>
      </trkpt>
      <trkpt lat="48.70728" lon="2.03719">
        <ele>81.51717376709</ele>
        <time>2016-09-22T08:11:37.000Z</time>
      </trkpt>
      <trkpt lat="48.70726" lon="2.03715">
        <ele>81.537498474121</ele>
        <time>2016-09-22T08:11:39.000Z</time>
      </trkpt>
      <trkpt lat="48.70723" lon="2.03711">
        <ele>81.541061401367</ele>
        <time>2016-09-22T08:11:42.000Z</time>
      </trkpt>
      <trkpt lat="48.7072" lon="2.03706">
        <ele>81.526077270508</ele>
        <time>2016-09-22T08:11:45.000Z</time>
      </trkpt>
      <trkpt lat="48.70718" lon="2.03703">
        <ele>81.50553894043</ele>
        <time>2016-09-22T08:11:47.000Z</time>
      </trkpt>
      <trkpt lat="48.70716" lon="2.037">
        <ele>81.479263305664</ele>
        <time>2016-09-22T08:11:49.000Z</time>
      </trkpt>
      <trkpt lat="48.70713" lon="2.03698">
        <ele>81.446960449219</ele>
        <time>2016-09-22T08:11:52.000Z</time>
      </trkpt>
      <trkpt lat="48.70708" lon="2.03696">
        <ele>81.412551879883</ele>
        <time>2016-09-22T08:11:55.000Z</time>
      </trkpt>
      <trkpt lat="48.70705" lon="2.03692">
        <ele>81.380508422852</ele>
        <time>2016-09-22T08:11:58.000Z</time>
      </trkpt>
      <trkpt lat="48.70702" lon="2.03688">
        <ele>81.342041015625</ele>
        <time>2016-09-22T08:12:01.000Z</time>
      </trkpt>
      <trkpt lat="48.707" lon="2.03684">
        <ele>81.309059143066</ele>
        <time>2016-09-22T08:12:04.000Z</time>
      </trkpt>
      <trkpt lat="48.70699" lon="2.03682">
        <ele>81.287307739258</ele>
        <time>2016-09-22T08:12:06.000Z</time>
      </trkpt>
      <trkpt lat="48.70696" lon="2.03678">
        <ele>81.273506164551</ele>
        <time>2016-09-22T08:12:09.000Z</time>
      </trkpt>
      <trkpt lat="48.70694" lon="2.03675">
        <ele>81.266021728516</ele>
        <time>2016-09-22T08:12:12.000Z</time>
      </trkpt>
      <trkpt lat="48.70692" lon="2.03671">
        <ele>81.265647888184</ele>
        <time>2016-09-22T08:12:15.000Z</time>
      </trkpt>
      <trkpt lat="48.70687" lon="2.03668">
        <ele>81.258758544922</ele>
        <time>2016-09-22T08:12:18.000Z</time>
      </trkpt>
      <trkpt lat="48.70686" lon="2.03666">
        <ele>81.25267791748</ele>
        <time>2016-09-22T08:12:20.000Z</time>
      </trkpt>
      <trkpt lat="48.70685" lon="2.03663">
        <ele>81.264930725098</ele>
        <time>2016-09-22T08:12:22.000Z</time>
      </trkpt>
      <trkpt lat="48.70685" lon="2.03658">
        <ele>81.30591583252</ele>
        <time>2016-09-22T08:12:25.000Z</time>
      </trkpt>
      <trkpt lat="48.70684" lon="2.03651">
        <ele>81.384811401367</ele>
        <time>2016-09-22T08:12:28.000Z</time>
      </trkpt>
      <trkpt lat="48.70683" lon="2.03646">
        <ele>81.496047973633</ele>
        <time>2016-09-22T08:12:31.000Z</time>
      </trkpt>
      <trkpt lat="48.70681" lon="2.03645">
        <ele>81.605773925781</ele>
        <time>2016-09-22T08:12:33.000Z</time>
      </trkpt>
      <trkpt lat="48.70678" lon="2.0364">
        <ele>81.715301513672</ele>
        <time>2016-09-22T08:12:36.000Z</time>
      </trkpt>
      <trkpt lat="48.70678" lon="2.03636">
        <ele>81.812210083008</ele>
        <time>2016-09-22T08:12:38.000Z</time>
      </trkpt>
      <trkpt lat="48.70676" lon="2.03632">
        <ele>81.889236450195</ele>
        <time>2016-09-22T08:12:41.000Z</time>
      </trkpt>
      <trkpt lat="48.70674" lon="2.03627">
        <ele>81.958160400391</ele>
        <time>2016-09-22T08:12:44.000Z</time>
      </trkpt>
      <trkpt lat="48.70673" lon="2.0362">
        <ele>82.060043334961</ele>
        <time>2016-09-22T08:12:47.000Z</time>
      </trkpt>
      <trkpt lat="48.70671" lon="2.03618">
        <ele>82.142684936523</ele>
        <time>2016-09-22T08:12:49.000Z</time>
      </trkpt>
      <trkpt lat="48.70665" lon="2.03616">
        <ele>82.189781188965</ele>
        <time>2016-09-22T08:12:52.000Z</time>
      </trkpt>
      <trkpt lat="48.70664" lon="2.03613">
        <ele>82.230690002441</ele>
        <time>2016-09-22T08:12:54.000Z</time>
      </trkpt>
      <trkpt lat="48.70665" lon="2.03607">
        <ele>82.283737182617</ele>
        <time>2016-09-22T08:12:56.000Z</time>
      </trkpt>
      <trkpt lat="48.70666" lon="2.03603">
        <ele>82.327934265137</ele>
        <time>2016-09-22T08:12:58.000Z</time>
      </trkpt>
      <trkpt lat="48.70665" lon="2.03598">
        <ele>82.393661499023</ele>
        <time>2016-09-22T08:13:01.000Z</time>
      </trkpt>
      <trkpt lat="48.70664" lon="2.03592">
        <ele>82.502799987793</ele>
        <time>2016-09-22T08:13:04.000Z</time>
      </trkpt>
      <trkpt lat="48.70664" lon="2.03588">
        <ele>82.620376586914</ele>
        <time>2016-09-22T08:13:06.000Z</time>
      </trkpt>
      <trkpt lat="48.70664" lon="2.03585">
        <ele>82.718811035156</ele>
        <time>2016-09-22T08:13:08.000Z</time>
      </trkpt>
      <trkpt lat="48.70662" lon="2.03581">
        <ele>82.799186706543</ele>
        <time>2016-09-22T08:13:11.000Z</time>
      </trkpt>
      <trkpt lat="48.70659" lon="2.0358">
        <ele>82.855171203613</ele>
        <time>2016-09-22T08:13:13.000Z</time>
      </trkpt>
      <trkpt lat="48.70656" lon="2.03578">
        <ele>82.883888244629</ele>
        <time>2016-09-22T08:13:16.000Z</time>
      </trkpt>
      <trkpt lat="48.70656" lon="2.03574">
        <ele>82.909690856934</ele>
        <time>2016-09-22T08:13:18.000Z</time>
      </trkpt>
      <trkpt lat="48.70657" lon="2.03569">
        <ele>82.946617126465</ele>
        <time>2016-09-22T08:13:20.000Z</time>
      </trkpt>
      <trkpt lat="48.70657" lon="2.03561">
        <ele>83.016220092773</ele>
        <time>2016-09-22T08:13:23.000Z</time>
      </trkpt>
      <trkpt lat="48.70656" lon="2.03555">
        <ele>83.115562438965</ele>
        <time>2016-09-22T08:13:26.000Z</time>
      </trkpt>
      <trkpt lat="48.70654" lon="2.03549">
        <ele>83.232833862305</ele>
        <time>2016-09-22T08:13:29.000Z</time>
      </trkpt>
      <trkpt lat="48.70652" lon="2.03544">
        <ele>83.340881347656</ele>
        <time>2016-09-22T08:13:32.000Z</time>
      </trkpt>
      <trkpt lat="48.70652" lon="2.03541">
        <ele>83.43830871582</ele>
        <time>2016-09-22T08:13:34.000Z</time>
      </trkpt>
      <trkpt lat="48.7065" lon="2.03537">
        <ele>83.506248474121</ele>
        <time>2016-09-22T08:13:37.000Z</time>
      </trkpt>
      <trkpt lat="48.7065" lon="2.03534">
        <ele>83.564376831055</ele>
        <time>2016-09-22T08:13:39.000Z</time>
      </trkpt>
      <trkpt lat="48.7065" lon="2.03528">
        <ele>83.63306427002</ele>
        <time>2016-09-22T08:13:42.000Z</time>
      </trkpt>
      <trkpt lat="48.7065" lon="2.03525">
        <ele>83.705299377441</ele>
        <time>2016-09-22T08:13:50.000Z</time>
      </trkpt>
      <trkpt lat="48.7065" lon="2.03522">
        <ele>83.776184082031</ele>
        <time>2016-09-22T08:13:52.000Z</time>
      </trkpt>
      <trkpt lat="48.70649" lon="2.03517">
        <ele>83.857521057129</ele>
        <time>2016-09-22T08:13:55.000Z</time>
      </trkpt>
      <trkpt lat="48.70649" lon="2.03513">
        <ele>83.93815612793</ele>
        <time>2016-09-22T08:13:57.000Z</time>
      </trkpt>
      <trkpt lat="48.70647" lon="2.03508">
        <ele>84.006065368652</ele>
        <time>2016-09-22T08:13:59.000Z</time>
      </trkpt>
      <trkpt lat="48.70646" lon="2.03501">
        <ele>84.07772064209</ele>
        <time>2016-09-22T08:14:02.000Z</time>
      </trkpt>
      <trkpt lat="48.70645" lon="2.03495">
        <ele>84.16463470459</ele>
        <time>2016-09-22T08:14:05.000Z</time>
      </trkpt>
      <trkpt lat="48.70645" lon="2.03489">
        <ele>84.257705688477</ele>
        <time>2016-09-22T08:14:08.000Z</time>
      </trkpt>
      <trkpt lat="48.70644" lon="2.03485">
        <ele>84.351890563965</ele>
        <time>2016-09-22T08:14:10.000Z</time>
      </trkpt>
      <trkpt lat="48.70643" lon="2.03479">
        <ele>84.451202392578</ele>
        <time>2016-09-22T08:14:13.000Z</time>
      </trkpt>
      <trkpt lat="48.70641" lon="2.03473">
        <ele>84.548583984375</ele>
        <time>2016-09-22T08:14:16.000Z</time>
      </trkpt>
      <trkpt lat="48.70641" lon="2.03468">
        <ele>84.643188476562</ele>
        <time>2016-09-22T08:14:19.000Z</time>
      </trkpt>
      <trkpt lat="48.70641" lon="2.03462">
        <ele>84.741516113281</ele>
        <time>2016-09-22T08:14:22.000Z</time>
      </trkpt>
      <trkpt lat="48.70641" lon="2.03459">
        <ele>84.841735839844</ele>
        <time>2016-09-22T08:14:24.000Z</time>
      </trkpt>
      <trkpt lat="48.7064" lon="2.03452">
        <ele>84.947265625</ele>
        <time>2016-09-22T08:14:27.000Z</time>
      </trkpt>
      <trkpt lat="48.70638" lon="2.03448">
        <ele>85.050048828125</ele>
        <time>2016-09-22T08:14:29.000Z</time>
      </trkpt>
      <trkpt lat="48.70637" lon="2.03445">
        <ele>85.13427734375</ele>
        <time>2016-09-22T08:14:31.000Z</time>
      </trkpt>
      <trkpt lat="48.70637" lon="2.03441">
        <ele>85.20751953125</ele>
        <time>2016-09-22T08:14:33.000Z</time>
      </trkpt>
      <trkpt lat="48.70637" lon="2.03436">
        <ele>85.290649414062</ele>
        <time>2016-09-22T08:14:36.000Z</time>
      </trkpt>
      <trkpt lat="48.70637" lon="2.03432">
        <ele>85.368896484375</ele>
        <time>2016-09-22T08:14:38.000Z</time>
      </trkpt>
      <trkpt lat="48.70636" lon="2.03426">
        <ele>85.461181640625</ele>
        <time>2016-09-22T08:14:41.000Z</time>
      </trkpt>
      <trkpt lat="48.70637" lon="2.0342">
        <ele>85.577880859375</ele>
        <time>2016-09-22T08:14:44.000Z</time>
      </trkpt>
      <trkpt lat="48.70637" lon="2.03416">
        <ele>85.702407836914</ele>
        <time>2016-09-22T08:14:47.000Z</time>
      </trkpt>
      <trkpt lat="48.70636" lon="2.0341">
        <ele>85.846206665039</ele>
        <time>2016-09-22T08:14:50.000Z</time>
      </trkpt>
      <trkpt lat="48.70636" lon="2.03407">
        <ele>86.001403808594</ele>
        <time>2016-09-22T08:14:52.000Z</time>
      </trkpt>
      <trkpt lat="48.70638" lon="2.03404">
        <ele>86.175994873047</ele>
        <time>2016-09-22T08:14:55.000Z</time>
      </trkpt>
      <trkpt lat="48.7064" lon="2.03403">
        <ele>86.347831726074</ele>
        <time>2016-09-22T08:14:57.000Z</time>
      </trkpt>
      <trkpt lat="48.70642" lon="2.03403">
        <ele>86.519180297852</ele>
        <time>2016-09-22T08:14:59.000Z</time>
      </trkpt>
      <trkpt lat="48.70646" lon="2.03403">
        <ele>86.679100036621</ele>
        <time>2016-09-22T08:15:02.000Z</time>
      </trkpt>
      <trkpt lat="48.70649" lon="2.03401">
        <ele>86.848770141602</ele>
        <time>2016-09-22T08:15:05.000Z</time>
      </trkpt>
      <trkpt lat="48.70651" lon="2.03398">
        <ele>87.018684387207</ele>
        <time>2016-09-22T08:15:08.000Z</time>
      </trkpt>
      <trkpt lat="48.70654" lon="2.03396">
        <ele>87.209327697754</ele>
        <time>2016-09-22T08:15:11.000Z</time>
      </trkpt>
      <trkpt lat="48.70655" lon="2.03394">
        <ele>87.416862487793</ele>
        <time>2016-09-22T08:15:13.000Z</time>
      </trkpt>
      <trkpt lat="48.70657" lon="2.03392">
        <ele>87.630447387695</ele>
        <time>2016-09-22T08:15:15.000Z</time>
      </trkpt>
      <trkpt lat="48.70661" lon="2.03389">
        <ele>87.868934631348</ele>
        <time>2016-09-22T08:15:18.000Z</time>
      </trkpt>
      <trkpt lat="48.70663" lon="2.03385">
        <ele>88.129417419434</ele>
        <time>2016-09-22T08:15:21.000Z</time>
      </trkpt>
      <trkpt lat="48.70667" lon="2.03382">
        <ele>88.411293029785</ele>
        <time>2016-09-22T08:15:24.000Z</time>
      </trkpt>
      <trkpt lat="48.70669" lon="2.03381">
        <ele>88.679878234863</ele>
        <time>2016-09-22T08:15:26.000Z</time>
      </trkpt>
      <trkpt lat="48.70672" lon="2.0338">
        <ele>88.947998046875</ele>
        <time>2016-09-22T08:15:29.000Z</time>
      </trkpt>
      <trkpt lat="48.70674" lon="2.03378">
        <ele>89.190353393555</ele>
        <time>2016-09-22T08:15:32.000Z</time>
      </trkpt>
      <trkpt lat="48.70677" lon="2.03376">
        <ele>89.407234191895</ele>
        <time>2016-09-22T08:15:35.000Z</time>
      </trkpt>
      <trkpt lat="48.7068" lon="2.03374">
        <ele>89.602203369141</ele>
        <time>2016-09-22T08:15:38.000Z</time>
      </trkpt>
      <trkpt lat="48.70682" lon="2.03372">
        <ele>89.802917480469</ele>
        <time>2016-09-22T08:15:40.000Z</time>
      </trkpt>
      <trkpt lat="48.70684" lon="2.03371">
        <ele>90.0009765625</ele>
        <time>2016-09-22T08:15:42.000Z</time>
      </trkpt>
      <trkpt lat="48.70687" lon="2.03366">
        <ele>90.235717773438</ele>
        <time>2016-09-22T08:15:45.000Z</time>
      </trkpt>
      <trkpt lat="48.70689" lon="2.03362">
        <ele>90.483184814453</ele>
        <time>2016-09-22T08:15:47.000Z</time>
      </trkpt>
      <trkpt lat="48.70691" lon="2.03358">
        <ele>90.761108398438</ele>
        <time>2016-09-22T08:15:50.000Z</time>
      </trkpt>
      <trkpt lat="48.70693" lon="2.03354">
        <ele>91.059173583984</ele>
        <time>2016-09-22T08:15:52.000Z</time>
      </trkpt>
      <trkpt lat="48.70694" lon="2.03352">
        <ele>91.3583984375</ele>
        <time>2016-09-22T08:15:54.000Z</time>
      </trkpt>
      <trkpt lat="48.70697" lon="2.03349">
        <ele>91.633941650391</ele>
        <time>2016-09-22T08:15:57.000Z</time>
      </trkpt>
      <trkpt lat="48.70699" lon="2.03347">
        <ele>91.894134521484</ele>
        <time>2016-09-22T08:15:59.000Z</time>
      </trkpt>
      <trkpt lat="48.707" lon="2.03344">
        <ele>92.120971679688</ele>
        <time>2016-09-22T08:16:01.000Z</time>
      </trkpt>
      <trkpt lat="48.70703" lon="2.03342">
        <ele>92.340362548828</ele>
        <time>2016-09-22T08:16:04.000Z</time>
      </trkpt>
      <trkpt lat="48.70706" lon="2.03341">
        <ele>92.555023193359</ele>
        <time>2016-09-22T08:16:07.000Z</time>
      </trkpt>
      <trkpt lat="48.70708" lon="2.03344">
        <ele>92.700958251953</ele>
        <time>2016-09-22T08:16:09.000Z</time>
      </trkpt>
      <trkpt lat="48.7071" lon="2.03345">
        <ele>92.813812255859</ele>
        <time>2016-09-22T08:16:11.000Z</time>
      </trkpt>
      <trkpt lat="48.70713" lon="2.03344">
        <ele>92.912902832031</ele>
        <time>2016-09-22T08:16:14.000Z</time>
      </trkpt>
      <trkpt lat="48.70716" lon="2.03342">
        <ele>93.002105712891</ele>
        <time>2016-09-22T08:16:16.000Z</time>
      </trkpt>
      <trkpt lat="48.7072" lon="2.03341">
        <ele>93.100769042969</ele>
        <time>2016-09-22T08:16:19.000Z</time>
      </trkpt>
      <trkpt lat="48.70721" lon="2.0334">
        <ele>93.239685058594</ele>
        <time>2016-09-22T08:16:21.000Z</time>
      </trkpt>
      <trkpt lat="48.70722" lon="2.03339">
        <ele>93.3896484375</ele>
        <time>2016-09-22T08:16:23.000Z</time>
      </trkpt>
      <trkpt lat="48.70724" lon="2.03336">
        <ele>93.558898925781</ele>
        <time>2016-09-22T08:16:26.000Z</time>
      </trkpt>
      <trkpt lat="48.70726" lon="2.03334">
        <ele>93.730041503906</ele>
        <time>2016-09-22T08:16:29.000Z</time>
      </trkpt>
      <trkpt lat="48.70729" lon="2.03331">
        <ele>93.902038574219</ele>
        <time>2016-09-22T08:16:32.000Z</time>
      </trkpt>
      <trkpt lat="48.70731" lon="2.0333">
        <ele>94.078796386719</ele>
        <time>2016-09-22T08:16:35.000Z</time>
      </trkpt>
      <trkpt lat="48.70733" lon="2.03329">
        <ele>94.261444091797</ele>
        <time>2016-09-22T08:16:37.000Z</time>
      </trkpt>
      <trkpt lat="48.70736" lon="2.03326">
        <ele>94.431945800781</ele>
        <time>2016-09-22T08:16:40.000Z</time>
      </trkpt>
      <trkpt lat="48.70739" lon="2.03323">
        <ele>94.601928710938</ele>
        <time>2016-09-22T08:16:43.000Z</time>
      </trkpt>
      <trkpt lat="48.70741" lon="2.03321">
        <ele>94.760498046875</ele>
        <time>2016-09-22T08:16:45.000Z</time>
      </trkpt>
      <trkpt lat="48.70743" lon="2.0332">
        <ele>94.914306640625</ele>
        <time>2016-09-22T08:16:48.000Z</time>
      </trkpt>
      <trkpt lat="48.70746" lon="2.0332">
        <ele>95.067565917969</ele>
        <time>2016-09-22T08:16:51.000Z</time>
      </trkpt>
      <trkpt lat="48.70748" lon="2.03319">
        <ele>95.206726074219</ele>
        <time>2016-09-22T08:16:53.000Z</time>
      </trkpt>
      <trkpt lat="48.70751" lon="2.03317">
        <ele>95.330657958984</ele>
        <time>2016-09-22T08:16:56.000Z</time>
      </trkpt>
      <trkpt lat="48.70753" lon="2.03316">
        <ele>95.426399230957</ele>
        <time>2016-09-22T08:16:58.000Z</time>
      </trkpt>
      <trkpt lat="48.70756" lon="2.03314">
        <ele>95.500717163086</ele>
        <time>2016-09-22T08:17:00.000Z</time>
      </trkpt>
      <trkpt lat="48.70759" lon="2.03311">
        <ele>95.558158874512</ele>
        <time>2016-09-22T08:17:03.000Z</time>
      </trkpt>
      <trkpt lat="48.7076" lon="2.03309">
        <ele>95.604598999023</ele>
        <time>2016-09-22T08:17:05.000Z</time>
      </trkpt>
      <trkpt lat="48.70763" lon="2.03306">
        <ele>95.634841918945</ele>
        <time>2016-09-22T08:17:09.000Z</time>
      </trkpt>
      <trkpt lat="48.70768" lon="2.03304">
        <ele>95.656867980957</ele>
        <time>2016-09-22T08:17:11.000Z</time>
      </trkpt>
      <trkpt lat="48.70771" lon="2.03304">
        <ele>95.670639038086</ele>
        <time>2016-09-22T08:17:13.000Z</time>
      </trkpt>
      <trkpt lat="48.70773" lon="2.03304">
        <ele>95.668533325195</ele>
        <time>2016-09-22T08:17:15.000Z</time>
      </trkpt>
      <trkpt lat="48.70776" lon="2.03303">
        <ele>95.65007019043</ele>
        <time>2016-09-22T08:17:18.000Z</time>
      </trkpt>
      <trkpt lat="48.70779" lon="2.033">
        <ele>95.631622314453</ele>
        <time>2016-09-22T08:17:21.000Z</time>
      </trkpt>
      <trkpt lat="48.70782" lon="2.03297">
        <ele>95.63256072998</ele>
        <time>2016-09-22T08:17:24.000Z</time>
      </trkpt>
      <trkpt lat="48.70783" lon="2.03295">
        <ele>95.655082702637</ele>
        <time>2016-09-22T08:17:26.000Z</time>
      </trkpt>
      <trkpt lat="48.70787" lon="2.03292">
        <ele>95.696067810059</ele>
        <time>2016-09-22T08:17:29.000Z</time>
      </trkpt>
      <trkpt lat="48.70789" lon="2.03291">
        <ele>95.74787902832</ele>
        <time>2016-09-22T08:17:31.000Z</time>
      </trkpt>
      <trkpt lat="48.70792" lon="2.03287">
        <ele>95.810134887695</ele>
        <time>2016-09-22T08:17:34.000Z</time>
      </trkpt>
      <trkpt lat="48.70794" lon="2.03286">
        <ele>95.864303588867</ele>
        <time>2016-09-22T08:17:36.000Z</time>
      </trkpt>
      <trkpt lat="48.70796" lon="2.03285">
        <ele>95.899688720703</ele>
        <time>2016-09-22T08:17:38.000Z</time>
      </trkpt>
      <trkpt lat="48.70799" lon="2.03285">
        <ele>95.92342376709</ele>
        <time>2016-09-22T08:17:41.000Z</time>
      </trkpt>
      <trkpt lat="48.70801" lon="2.03284">
        <ele>95.936019897461</ele>
        <time>2016-09-22T08:17:44.000Z</time>
      </trkpt>
      <trkpt lat="48.70804" lon="2.03282">
        <ele>95.941612243652</ele>
        <time>2016-09-22T08:17:47.000Z</time>
      </trkpt>
      <trkpt lat="48.70807" lon="2.03279">
        <ele>95.958801269531</ele>
        <time>2016-09-22T08:17:50.000Z</time>
      </trkpt>
      <trkpt lat="48.7081" lon="2.03277">
        <ele>95.989112854004</ele>
        <time>2016-09-22T08:17:53.000Z</time>
      </trkpt>
      <trkpt lat="48.70812" lon="2.03275">
        <ele>96.026901245117</ele>
        <time>2016-09-22T08:17:55.000Z</time>
      </trkpt>
      <trkpt lat="48.70815" lon="2.03272">
        <ele>96.088050842285</ele>
        <time>2016-09-22T08:17:58.000Z</time>
      </trkpt>
      <trkpt lat="48.70814" lon="2.03271">
        <ele>96.154434204102</ele>
        <time>2016-09-22T08:18:02.000Z</time>
      </trkpt>
      <trkpt lat="48.70814" lon="2.03268">
        <ele>96.22354888916</ele>
        <time>2016-09-22T08:18:14.000Z</time>
      </trkpt>
      <trkpt lat="48.70815" lon="2.03267">
        <ele>96.29866027832</ele>
        <time>2016-09-22T08:18:16.000Z</time>
      </trkpt>
      <trkpt lat="48.70814" lon="2.03264">
        <ele>96.390319824219</ele>
        <time>2016-09-22T08:18:18.000Z</time>
      </trkpt>
      <trkpt lat="48.70813" lon="2.03263">
        <ele>96.482406616211</ele>
        <time>2016-09-22T08:18:20.000Z</time>
      </trkpt>
      <trkpt lat="48.70812" lon="2.03261">
        <ele>96.575271606445</ele>
        <time>2016-09-22T08:18:23.000Z</time>
      </trkpt>
      <trkpt lat="48.7081" lon="2.0326">
        <ele>96.662384033203</ele>
        <time>2016-09-22T08:18:25.000Z</time>
      </trkpt>
      <trkpt lat="48.70808" lon="2.03258">
        <ele>96.756652832031</ele>
        <time>2016-09-22T08:18:28.000Z</time>
      </trkpt>
      <trkpt lat="48.7081" lon="2.0326">
        <ele>96.804527282715</ele>
        <time>2016-09-22T08:18:30.000Z</time>
      </trkpt>
      <trkpt lat="48.70808" lon="2.03261">
        <ele>96.83130645752</ele>
        <time>2016-09-22T08:18:33.000Z</time>
      </trkpt>
      <trkpt lat="48.70807" lon="2.03264">
        <ele>96.821395874023</ele>
        <time>2016-09-22T08:18:35.000Z</time>
      </trkpt>
      <trkpt lat="48.70806" lon="2.0326">
        <ele>96.833435058594</ele>
        <time>2016-09-22T08:18:38.000Z</time>
      </trkpt>
      <trkpt lat="48.70803" lon="2.03249">
        <ele>96.933631896973</ele>
        <time>2016-09-22T08:18:41.000Z</time>
      </trkpt>
      <trkpt lat="48.70803" lon="2.03244">
        <ele>97.114669799805</ele>
        <time>2016-09-22T08:18:43.000Z</time>
      </trkpt>
      <trkpt lat="48.70802" lon="2.03237">
        <ele>97.395950317383</ele>
        <time>2016-09-22T08:18:46.000Z</time>
      </trkpt>
      <trkpt lat="48.70802" lon="2.03233">
        <ele>97.74535369873</ele>
        <time>2016-09-22T08:18:48.000Z</time>
      </trkpt>
      <trkpt lat="48.708" lon="2.0323">
        <ele>98.10082244873</ele>
        <time>2016-09-22T08:18:50.000Z</time>
      </trkpt>
      <trkpt lat="48.70799" lon="2.03227">
        <ele>98.378311157227</ele>
        <time>2016-09-22T08:18:52.000Z</time>
      </trkpt>
      <trkpt lat="48.70797" lon="2.03224">
        <ele>98.642478942871</ele>
        <time>2016-09-22T08:18:55.000Z</time>
      </trkpt>
      <trkpt lat="48.70795" lon="2.03218">
        <ele>98.876831054688</ele>
        <time>2016-09-22T08:18:58.000Z</time>
      </trkpt>
      <trkpt lat="48.70794" lon="2.03215">
        <ele>99.10334777832</ele>
        <time>2016-09-22T08:19:00.000Z</time>
      </trkpt>
      <trkpt lat="48.70793" lon="2.03212">
        <ele>99.330627441406</ele>
        <time>2016-09-22T08:19:03.000Z</time>
      </trkpt>
      <trkpt lat="48.70792" lon="2.0321">
        <ele>99.548080444336</ele>
        <time>2016-09-22T08:19:05.000Z</time>
      </trkpt>
      <trkpt lat="48.7079" lon="2.03206">
        <ele>99.76741027832</ele>
        <time>2016-09-22T08:19:07.000Z</time>
      </trkpt>
      <trkpt lat="48.70789" lon="2.03202">
        <ele>99.963912963867</ele>
        <time>2016-09-22T08:19:10.000Z</time>
      </trkpt>
      <trkpt lat="48.70789" lon="2.03199">
        <ele>100.15404510498</ele>
        <time>2016-09-22T08:19:12.000Z</time>
      </trkpt>
      <trkpt lat="48.70787" lon="2.03196">
        <ele>100.34301757812</ele>
        <time>2016-09-22T08:19:15.000Z</time>
      </trkpt>
      <trkpt lat="48.70786" lon="2.03194">
        <ele>100.52738952637</ele>
        <time>2016-09-22T08:19:18.000Z</time>
      </trkpt>
      <trkpt lat="48.70783" lon="2.03191">
        <ele>100.69404602051</ele>
        <time>2016-09-22T08:19:21.000Z</time>
      </trkpt>
      <trkpt lat="48.70782" lon="2.0319">
        <ele>100.83100891113</ele>
        <time>2016-09-22T08:19:23.000Z</time>
      </trkpt>
      <trkpt lat="48.70779" lon="2.03188">
        <ele>100.94906616211</ele>
        <time>2016-09-22T08:19:26.000Z</time>
      </trkpt>
      <trkpt lat="48.70778" lon="2.03187">
        <ele>101.03328704834</ele>
        <time>2016-09-22T08:19:28.000Z</time>
      </trkpt>
      <trkpt lat="48.70776" lon="2.03182">
        <ele>101.15333557129</ele>
        <time>2016-09-22T08:19:31.000Z</time>
      </trkpt>
      <trkpt lat="48.70774" lon="2.03178">
        <ele>101.29161071777</ele>
        <time>2016-09-22T08:19:34.000Z</time>
      </trkpt>
      <trkpt lat="48.70773" lon="2.03175">
        <ele>101.44440460205</ele>
        <time>2016-09-22T08:19:37.000Z</time>
      </trkpt>
      <trkpt lat="48.70771" lon="2.03171">
        <ele>101.62071228027</ele>
        <time>2016-09-22T08:19:39.000Z</time>
      </trkpt>
      <trkpt lat="48.70769" lon="2.03168">
        <ele>101.81506347656</ele>
        <time>2016-09-22T08:19:41.000Z</time>
      </trkpt>
      <trkpt lat="48.70766" lon="2.03165">
        <ele>101.98984527588</ele>
        <time>2016-09-22T08:19:44.000Z</time>
      </trkpt>
      <trkpt lat="48.70766" lon="2.03164">
        <ele>102.14027404785</ele>
        <time>2016-09-22T08:19:46.000Z</time>
      </trkpt>
      <trkpt lat="48.70764" lon="2.03162">
        <ele>102.28916168213</ele>
        <time>2016-09-22T08:19:49.000Z</time>
      </trkpt>
      <trkpt lat="48.7076" lon="2.03161">
        <ele>102.40232086182</ele>
        <time>2016-09-22T08:19:52.000Z</time>
      </trkpt>
      <trkpt lat="48.70758" lon="2.0316">
        <ele>102.50170898438</ele>
        <time>2016-09-22T08:19:55.000Z</time>
      </trkpt>
      <trkpt lat="48.70756" lon="2.03158">
        <ele>102.60115814209</ele>
        <time>2016-09-22T08:19:57.000Z</time>
      </trkpt>
      <trkpt lat="48.70755" lon="2.03153">
        <ele>102.74909973145</ele>
        <time>2016-09-22T08:19:59.000Z</time>
      </trkpt>
      <trkpt lat="48.70753" lon="2.03151">
        <ele>102.90395355225</ele>
        <time>2016-09-22T08:20:01.000Z</time>
      </trkpt>
      <trkpt lat="48.70752" lon="2.03149">
        <ele>103.08896636963</ele>
        <time>2016-09-22T08:20:04.000Z</time>
      </trkpt>
      <trkpt lat="48.70752" lon="2.03145">
        <ele>103.32857513428</ele>
        <time>2016-09-22T08:20:07.000Z</time>
      </trkpt>
      <trkpt lat="48.70753" lon="2.03139">
        <ele>103.63925933838</ele>
        <time>2016-09-22T08:20:10.000Z</time>
      </trkpt>
      <trkpt lat="48.70752" lon="2.03134">
        <ele>103.95585632324</ele>
        <time>2016-09-22T08:20:12.000Z</time>
      </trkpt>
      <trkpt lat="48.7075" lon="2.0313">
        <ele>104.30666351318</ele>
        <time>2016-09-22T08:20:15.000Z</time>
      </trkpt>
      <trkpt lat="48.70747" lon="2.03127">
        <ele>104.63238525391</ele>
        <time>2016-09-22T08:20:18.000Z</time>
      </trkpt>
      <trkpt lat="48.70744" lon="2.03126">
        <ele>104.86488342285</ele>
        <time>2016-09-22T08:20:21.000Z</time>
      </trkpt>
      <trkpt lat="48.70744" lon="2.03123">
        <ele>105.03183746338</ele>
        <time>2016-09-22T08:20:24.000Z</time>
      </trkpt>
      <trkpt lat="48.70742" lon="2.03122">
        <ele>105.14402008057</ele>
        <time>2016-09-22T08:20:26.000Z</time>
      </trkpt>
      <trkpt lat="48.70742" lon="2.03118">
        <ele>105.24967956543</ele>
        <time>2016-09-22T08:20:28.000Z</time>
      </trkpt>
      <trkpt lat="48.70743" lon="2.03115">
        <ele>105.40071868896</ele>
        <time>2016-09-22T08:20:30.000Z</time>
      </trkpt>
      <trkpt lat="48.70743" lon="2.03109">
        <ele>105.67338562012</ele>
        <time>2016-09-22T08:20:33.000Z</time>
      </trkpt>
      <trkpt lat="48.70742" lon="2.03104">
        <ele>105.97621917725</ele>
        <time>2016-09-22T08:20:35.000Z</time>
      </trkpt>
      <trkpt lat="48.70742" lon="2.03102">
        <ele>106.29038238525</ele>
        <time>2016-09-22T08:20:38.000Z</time>
      </trkpt>
      <trkpt lat="48.70742" lon="2.03102">
        <ele>106.29038238525</ele>
        <time>2016-09-22T08:20:58.000Z</time>
      </trkpt>
      <trkpt lat="48.70759" lon="2.03117">
        <ele>106.39860534668</ele>
        <time>2016-09-22T08:22:29.000Z</time>
      </trkpt>
      <trkpt lat="48.70739" lon="2.03098">
        <ele>106.62351226807</ele>
        <time>2016-09-22T08:22:34.000Z</time>
      </trkpt>
      <trkpt lat="48.70741" lon="2.03094">
        <ele>106.83058929443</ele>
        <time>2016-09-22T08:22:37.000Z</time>
      </trkpt>
      <trkpt lat="48.70742" lon="2.03091">
        <ele>107.03503417969</ele>
        <time>2016-09-22T08:22:39.000Z</time>
      </trkpt>
      <trkpt lat="48.70744" lon="2.03086">
        <ele>107.31962585449</ele>
        <time>2016-09-22T08:22:42.000Z</time>
      </trkpt>
      <trkpt lat="48.70745" lon="2.03085">
        <ele>107.79685211182</ele>
        <time>2016-09-22T08:22:44.000Z</time>
      </trkpt>
      <trkpt lat="48.70749" lon="2.03083">
        <ele>108.18705749512</ele>
        <time>2016-09-22T08:22:47.000Z</time>
      </trkpt>
      <trkpt lat="48.7075" lon="2.03081">
        <ele>108.57466125488</ele>
        <time>2016-09-22T08:22:49.000Z</time>
      </trkpt>
      <trkpt lat="48.70754" lon="2.03077">
        <ele>108.97261047363</ele>
        <time>2016-09-22T08:22:52.000Z</time>
      </trkpt>
      <trkpt lat="48.70756" lon="2.03075">
        <ele>109.31512451172</ele>
        <time>2016-09-22T08:22:55.000Z</time>
      </trkpt>
      <trkpt lat="48.70758" lon="2.03072">
        <ele>109.68479919434</ele>
        <time>2016-09-22T08:22:58.000Z</time>
      </trkpt>
      <trkpt lat="48.7076" lon="2.03069">
        <ele>110.0290145874</ele>
        <time>2016-09-22T08:23:01.000Z</time>
      </trkpt>
      <trkpt lat="48.70762" lon="2.03067">
        <ele>110.35124206543</ele>
        <time>2016-09-22T08:23:03.000Z</time>
      </trkpt>
      <trkpt lat="48.70766" lon="2.03066">
        <ele>110.59812927246</ele>
        <time>2016-09-22T08:23:05.000Z</time>
      </trkpt>
      <trkpt lat="48.70767" lon="2.03058">
        <ele>110.98679351807</ele>
        <time>2016-09-22T08:23:08.000Z</time>
      </trkpt>
      <trkpt lat="48.70765" lon="2.03048">
        <ele>111.57810974121</ele>
        <time>2016-09-22T08:23:11.000Z</time>
      </trkpt>
      <trkpt lat="48.70766" lon="2.03045">
        <ele>112.16703796387</ele>
        <time>2016-09-22T08:23:13.000Z</time>
      </trkpt>
      <trkpt lat="48.70768" lon="2.03045">
        <ele>112.71844482422</ele>
        <time>2016-09-22T08:23:16.000Z</time>
      </trkpt>
      <trkpt lat="48.70768" lon="2.0304">
        <ele>113.38413238525</ele>
        <time>2016-09-22T08:23:19.000Z</time>
      </trkpt>
      <trkpt lat="48.70768" lon="2.03036">
        <ele>113.94667816162</ele>
        <time>2016-09-22T08:23:21.000Z</time>
      </trkpt>
      <trkpt lat="48.70769" lon="2.03034">
        <ele>114.28381347656</ele>
        <time>2016-09-22T08:23:24.000Z</time>
      </trkpt>
      <trkpt lat="48.7077" lon="2.03029">
        <ele>114.69160461426</ele>
        <time>2016-09-22T08:23:27.000Z</time>
      </trkpt>
      <trkpt lat="48.70771" lon="2.03026">
        <ele>115.14186096191</ele>
        <time>2016-09-22T08:23:29.000Z</time>
      </trkpt>
      <trkpt lat="48.70774" lon="2.03025">
        <ele>115.48368835449</ele>
        <time>2016-09-22T08:23:32.000Z</time>
      </trkpt>
      <trkpt lat="48.70775" lon="2.03023">
        <ele>115.78322601318</ele>
        <time>2016-09-22T08:23:34.000Z</time>
      </trkpt>
      <trkpt lat="48.70776" lon="2.03019">
        <ele>116.13066101074</ele>
        <time>2016-09-22T08:23:36.000Z</time>
      </trkpt>
      <trkpt lat="48.70776" lon="2.03012">
        <ele>116.51956939697</ele>
        <time>2016-09-22T08:23:39.000Z</time>
      </trkpt>
      <trkpt lat="48.70777" lon="2.0301">
        <ele>116.88505554199</ele>
        <time>2016-09-22T08:23:41.000Z</time>
      </trkpt>
      <trkpt lat="48.70776" lon="2.03009">
        <ele>117.27839660645</ele>
        <time>2016-09-22T08:23:43.000Z</time>
      </trkpt>
      <trkpt lat="48.70776" lon="2.03005">
        <ele>117.70601654053</ele>
        <time>2016-09-22T08:23:45.000Z</time>
      </trkpt>
      <trkpt lat="48.70777" lon="2.03">
        <ele>118.15012359619</ele>
        <time>2016-09-22T08:23:48.000Z</time>
      </trkpt>
      <trkpt lat="48.70779" lon="2.02995">
        <ele>118.58377838135</ele>
        <time>2016-09-22T08:23:51.000Z</time>
      </trkpt>
      <trkpt lat="48.7078" lon="2.02992">
        <ele>119.07334899902</ele>
        <time>2016-09-22T08:23:53.000Z</time>
      </trkpt>
      <trkpt lat="48.70782" lon="2.02988">
        <ele>119.66396331787</ele>
        <time>2016-09-22T08:23:56.000Z</time>
      </trkpt>
      <trkpt lat="48.70782" lon="2.02983">
        <ele>120.33714294434</ele>
        <time>2016-09-22T08:23:58.000Z</time>
      </trkpt>
      <trkpt lat="48.70782" lon="2.02978">
        <ele>121.06359863281</ele>
        <time>2016-09-22T08:24:00.000Z</time>
      </trkpt>
      <trkpt lat="48.70782" lon="2.02972">
        <ele>121.84617614746</ele>
        <time>2016-09-22T08:24:03.000Z</time>
      </trkpt>
      <trkpt lat="48.70783" lon="2.02968">
        <ele>122.66213226318</ele>
        <time>2016-09-22T08:24:05.000Z</time>
      </trkpt>
      <trkpt lat="48.70784" lon="2.02964">
        <ele>123.46578216553</ele>
        <time>2016-09-22T08:24:07.000Z</time>
      </trkpt>
      <trkpt lat="48.70785" lon="2.0296">
        <ele>124.25297546387</ele>
        <time>2016-09-22T08:24:09.000Z</time>
      </trkpt>
      <trkpt lat="48.70786" lon="2.02954">
        <ele>125.05909729004</ele>
        <time>2016-09-22T08:24:12.000Z</time>
      </trkpt>
      <trkpt lat="48.70784" lon="2.0295">
        <ele>125.78993225098</ele>
        <time>2016-09-22T08:24:14.000Z</time>
      </trkpt>
      <trkpt lat="48.70785" lon="2.02948">
        <ele>126.48067474365</ele>
        <time>2016-09-22T08:24:16.000Z</time>
      </trkpt>
      <trkpt lat="48.70786" lon="2.02945">
        <ele>127.13399505615</ele>
        <time>2016-09-22T08:24:19.000Z</time>
      </trkpt>
      <trkpt lat="48.70788" lon="2.02942">
        <ele>127.73628234863</ele>
        <time>2016-09-22T08:24:22.000Z</time>
      </trkpt>
      <trkpt lat="48.70789" lon="2.0294">
        <ele>128.2017364502</ele>
        <time>2016-09-22T08:24:25.000Z</time>
      </trkpt>
      <trkpt lat="48.70788" lon="2.02939">
        <ele>128.5697479248</ele>
        <time>2016-09-22T08:24:29.000Z</time>
      </trkpt>
      <trkpt lat="48.70789" lon="2.02937">
        <ele>128.93730163574</ele>
        <time>2016-09-22T08:24:32.000Z</time>
      </trkpt>
      <trkpt lat="48.7079" lon="2.02934">
        <ele>129.29934692383</ele>
        <time>2016-09-22T08:24:34.000Z</time>
      </trkpt>
      <trkpt lat="48.70789" lon="2.02929">
        <ele>129.72720336914</ele>
        <time>2016-09-22T08:24:37.000Z</time>
      </trkpt>
      <trkpt lat="48.70788" lon="2.02927">
        <ele>130.1988067627</ele>
        <time>2016-09-22T08:24:39.000Z</time>
      </trkpt>
      <trkpt lat="48.70786" lon="2.02925">
        <ele>130.68559265137</ele>
        <time>2016-09-22T08:24:41.000Z</time>
      </trkpt>
      <trkpt lat="48.70785" lon="2.02923">
        <ele>131.17582702637</ele>
        <time>2016-09-22T08:24:43.000Z</time>
      </trkpt>
      <trkpt lat="48.70785" lon="2.02919">
        <ele>131.70994567871</ele>
        <time>2016-09-22T08:24:46.000Z</time>
      </trkpt>
      <trkpt lat="48.70784" lon="2.02918">
        <ele>132.13832092285</ele>
        <time>2016-09-22T08:24:49.000Z</time>
      </trkpt>
      <trkpt lat="48.70784" lon="2.02915">
        <ele>132.54750061035</ele>
        <time>2016-09-22T08:24:52.000Z</time>
      </trkpt>
      <trkpt lat="48.70783" lon="2.02912">
        <ele>132.97799682617</ele>
        <time>2016-09-22T08:24:55.000Z</time>
      </trkpt>
      <trkpt lat="48.70778" lon="2.02909">
        <ele>133.42346191406</ele>
        <time>2016-09-22T08:24:58.000Z</time>
      </trkpt>
      <trkpt lat="48.70776" lon="2.02905">
        <ele>133.84725952148</ele>
        <time>2016-09-22T08:25:01.000Z</time>
      </trkpt>
      <trkpt lat="48.70773" lon="2.02902">
        <ele>134.3032989502</ele>
        <time>2016-09-22T08:25:04.000Z</time>
      </trkpt>
      <trkpt lat="48.70771" lon="2.02899">
        <ele>134.75556945801</ele>
        <time>2016-09-22T08:25:06.000Z</time>
      </trkpt>
      <trkpt lat="48.70771" lon="2.02895">
        <ele>135.24418640137</ele>
        <time>2016-09-22T08:25:09.000Z</time>
      </trkpt>
      <trkpt lat="48.70771" lon="2.02891">
        <ele>135.71809387207</ele>
        <time>2016-09-22T08:25:11.000Z</time>
      </trkpt>
      <trkpt lat="48.70771" lon="2.02887">
        <ele>136.17770385742</ele>
        <time>2016-09-22T08:25:14.000Z</time>
      </trkpt>
      <trkpt lat="48.7077" lon="2.02885">
        <ele>136.60290527344</ele>
        <time>2016-09-22T08:25:16.000Z</time>
      </trkpt>
      <trkpt lat="48.70769" lon="2.02882">
        <ele>137.03303527832</ele>
        <time>2016-09-22T08:25:19.000Z</time>
      </trkpt>
      <trkpt lat="48.70769" lon="2.02878">
        <ele>137.44119262695</ele>
        <time>2016-09-22T08:25:22.000Z</time>
      </trkpt>
      <trkpt lat="48.7077" lon="2.02875">
        <ele>137.8384552002</ele>
        <time>2016-09-22T08:25:24.000Z</time>
      </trkpt>
      <trkpt lat="48.70769" lon="2.02872">
        <ele>138.2108001709</ele>
        <time>2016-09-22T08:25:27.000Z</time>
      </trkpt>
      <trkpt lat="48.70768" lon="2.0287">
        <ele>138.57250976562</ele>
        <time>2016-09-22T08:25:29.000Z</time>
      </trkpt>
      <trkpt lat="48.70768" lon="2.02868">
        <ele>138.91188049316</ele>
        <time>2016-09-22T08:25:31.000Z</time>
      </trkpt>
      <trkpt lat="48.70767" lon="2.02866">
        <ele>139.20797729492</ele>
        <time>2016-09-22T08:25:33.000Z</time>
      </trkpt>
      <trkpt lat="48.70765" lon="2.02863">
        <ele>139.49308776855</ele>
        <time>2016-09-22T08:25:36.000Z</time>
      </trkpt>
      <trkpt lat="48.70764" lon="2.02859">
        <ele>139.79183959961</ele>
        <time>2016-09-22T08:25:39.000Z</time>
      </trkpt>
      <trkpt lat="48.70764" lon="2.02856">
        <ele>140.11169433594</ele>
        <time>2016-09-22T08:25:41.000Z</time>
      </trkpt>
      <trkpt lat="48.70763" lon="2.02853">
        <ele>140.45002746582</ele>
        <time>2016-09-22T08:25:44.000Z</time>
      </trkpt>
      <trkpt lat="48.70762" lon="2.02851">
        <ele>140.7868347168</ele>
        <time>2016-09-22T08:25:47.000Z</time>
      </trkpt>
      <trkpt lat="48.70761" lon="2.02848">
        <ele>141.11616516113</ele>
        <time>2016-09-22T08:25:50.000Z</time>
      </trkpt>
      <trkpt lat="48.7076" lon="2.02846">
        <ele>141.41375732422</ele>
        <time>2016-09-22T08:25:52.000Z</time>
      </trkpt>
      <trkpt lat="48.70759" lon="2.02842">
        <ele>141.71517944336</ele>
        <time>2016-09-22T08:25:55.000Z</time>
      </trkpt>
      <trkpt lat="48.70758" lon="2.02838">
        <ele>142.01750183105</ele>
        <time>2016-09-22T08:25:58.000Z</time>
      </trkpt>
      <trkpt lat="48.70757" lon="2.02834">
        <ele>142.35731506348</ele>
        <time>2016-09-22T08:26:00.000Z</time>
      </trkpt>
      <trkpt lat="48.70753" lon="2.02829">
        <ele>142.75370788574</ele>
        <time>2016-09-22T08:26:03.000Z</time>
      </trkpt>
      <trkpt lat="48.70751" lon="2.02825">
        <ele>143.19990539551</ele>
        <time>2016-09-22T08:26:06.000Z</time>
      </trkpt>
      <trkpt lat="48.70749" lon="2.02822">
        <ele>143.66543579102</ele>
        <time>2016-09-22T08:26:08.000Z</time>
      </trkpt>
      <trkpt lat="48.70746" lon="2.02817">
        <ele>144.23484802246</ele>
        <time>2016-09-22T08:26:11.000Z</time>
      </trkpt>
      <trkpt lat="48.70745" lon="2.02814">
        <ele>144.8451385498</ele>
        <time>2016-09-22T08:26:13.000Z</time>
      </trkpt>
      <trkpt lat="48.70744" lon="2.0281">
        <ele>145.44541931152</ele>
        <time>2016-09-22T08:26:15.000Z</time>
      </trkpt>
      <trkpt lat="48.70743" lon="2.0281">
        <ele>145.98202514648</ele>
        <time>2016-09-22T08:26:18.000Z</time>
      </trkpt>
      <trkpt lat="48.70743" lon="2.02807">
        <ele>146.48599243164</ele>
        <time>2016-09-22T08:26:20.000Z</time>
      </trkpt>
      <trkpt lat="48.70744" lon="2.02802">
        <ele>146.93043518066</ele>
        <time>2016-09-22T08:26:23.000Z</time>
      </trkpt>
      <trkpt lat="48.70744" lon="2.02799">
        <ele>147.34872436523</ele>
        <time>2016-09-22T08:26:26.000Z</time>
      </trkpt>
      <trkpt lat="48.70742" lon="2.02795">
        <ele>147.78254699707</ele>
        <time>2016-09-22T08:26:29.000Z</time>
      </trkpt>
      <trkpt lat="48.70741" lon="2.02795">
        <ele>148.21597290039</ele>
        <time>2016-09-22T08:26:31.000Z</time>
      </trkpt>
      <trkpt lat="48.7074" lon="2.02793">
        <ele>148.6516418457</ele>
        <time>2016-09-22T08:26:34.000Z</time>
      </trkpt>
      <trkpt lat="48.7074" lon="2.02793">
        <ele>148.6516418457</ele>
        <time>2016-09-22T08:26:54.000Z</time>
      </trkpt>
      <trkpt lat="48.70739" lon="2.02784">
        <ele>149.21897888184</ele>
        <time>2016-09-22T08:26:56.000Z</time>
      </trkpt>
      <trkpt lat="48.70739" lon="2.02775">
        <ele>149.93481445312</ele>
        <time>2016-09-22T08:26:59.000Z</time>
      </trkpt>
      <trkpt lat="48.70737" lon="2.02767">
        <ele>150.77442932129</ele>
        <time>2016-09-22T08:27:02.000Z</time>
      </trkpt>
      <trkpt lat="48.70735" lon="2.02762">
        <ele>151.74826049805</ele>
        <time>2016-09-22T08:27:04.000Z</time>
      </trkpt>
      <trkpt lat="48.70731" lon="2.02755">
        <ele>152.91006469727</ele>
        <time>2016-09-22T08:27:07.000Z</time>
      </trkpt>
      <trkpt lat="48.7073" lon="2.02752">
        <ele>153.92576599121</ele>
        <time>2016-09-22T08:27:09.000Z</time>
      </trkpt>
      <trkpt lat="48.70729" lon="2.02748">
        <ele>154.78273010254</ele>
        <time>2016-09-22T08:27:11.000Z</time>
      </trkpt>
      <trkpt lat="48.70727" lon="2.02742">
        <ele>155.48036193848</ele>
        <time>2016-09-22T08:27:14.000Z</time>
      </trkpt>
      <trkpt lat="48.70728" lon="2.02736">
        <ele>156.03936767578</ele>
        <time>2016-09-22T08:27:17.000Z</time>
      </trkpt>
      <trkpt lat="48.70728" lon="2.02733">
        <ele>156.38168334961</ele>
        <time>2016-09-22T08:27:19.000Z</time>
      </trkpt>
      <trkpt lat="48.70728" lon="2.02729">
        <ele>156.66780090332</ele>
        <time>2016-09-22T08:27:21.000Z</time>
      </trkpt>
      <trkpt lat="48.70726" lon="2.02724">
        <ele>156.9271697998</ele>
        <time>2016-09-22T08:27:24.000Z</time>
      </trkpt>
      <trkpt lat="48.70725" lon="2.02723">
        <ele>157.13485717773</ele>
        <time>2016-09-22T08:27:26.000Z</time>
      </trkpt>
      <trkpt lat="48.70723" lon="2.02721">
        <ele>157.35859680176</ele>
        <time>2016-09-22T08:27:29.000Z</time>
      </trkpt>
      <trkpt lat="48.70723" lon="2.02719">
        <ele>157.57968139648</ele>
        <time>2016-09-22T08:27:31.000Z</time>
      </trkpt>
      <trkpt lat="48.70723" lon="2.02716">
        <ele>157.77304077148</ele>
        <time>2016-09-22T08:27:33.000Z</time>
      </trkpt>
      <trkpt lat="48.70722" lon="2.02711">
        <ele>157.96667480469</ele>
        <time>2016-09-22T08:27:36.000Z</time>
      </trkpt>
      <trkpt lat="48.70722" lon="2.02708">
        <ele>158.15567016602</ele>
        <time>2016-09-22T08:27:39.000Z</time>
      </trkpt>
      <trkpt lat="48.70721" lon="2.027">
        <ele>158.39767456055</ele>
        <time>2016-09-22T08:27:45.000Z</time>
      </trkpt>
      <trkpt lat="48.70721" lon="2.02695">
        <ele>158.64729309082</ele>
        <time>2016-09-22T08:27:50.000Z</time>
      </trkpt>
      <trkpt lat="48.70721" lon="2.02693">
        <ele>158.89682006836</ele>
        <time>2016-09-22T08:27:52.000Z</time>
      </trkpt>
      <trkpt lat="48.70721" lon="2.02688">
        <ele>159.1128692627</ele>
        <time>2016-09-22T08:27:55.000Z</time>
      </trkpt>
      <trkpt lat="48.70721" lon="2.02684">
        <ele>159.33320617676</ele>
        <time>2016-09-22T08:27:58.000Z</time>
      </trkpt>
      <trkpt lat="48.70722" lon="2.0268">
        <ele>159.47451782227</ele>
        <time>2016-09-22T08:28:01.000Z</time>
      </trkpt>
      <trkpt lat="48.70723" lon="2.02678">
        <ele>159.58576965332</ele>
        <time>2016-09-22T08:28:03.000Z</time>
      </trkpt>
      <trkpt lat="48.70724" lon="2.02674">
        <ele>159.68811035156</ele>
        <time>2016-09-22T08:28:06.000Z</time>
      </trkpt>
      <trkpt lat="48.70724" lon="2.0267">
        <ele>159.79489135742</ele>
        <time>2016-09-22T08:28:09.000Z</time>
      </trkpt>
      <trkpt lat="48.70724" lon="2.02667">
        <ele>159.89451599121</ele>
        <time>2016-09-22T08:28:11.000Z</time>
      </trkpt>
      <trkpt lat="48.70724" lon="2.02661">
        <ele>160.02207946777</ele>
        <time>2016-09-22T08:28:14.000Z</time>
      </trkpt>
      <trkpt lat="48.70724" lon="2.02658">
        <ele>160.16328430176</ele>
        <time>2016-09-22T08:28:16.000Z</time>
      </trkpt>
      <trkpt lat="48.70723" lon="2.02655">
        <ele>160.32872009277</ele>
        <time>2016-09-22T08:28:19.000Z</time>
      </trkpt>
      <trkpt lat="48.70722" lon="2.02653">
        <ele>160.4831237793</ele>
        <time>2016-09-22T08:28:21.000Z</time>
      </trkpt>
      <trkpt lat="48.70721" lon="2.02648">
        <ele>160.66616821289</ele>
        <time>2016-09-22T08:28:24.000Z</time>
      </trkpt>
      <trkpt lat="48.7072" lon="2.02645">
        <ele>160.8314666748</ele>
        <time>2016-09-22T08:28:26.000Z</time>
      </trkpt>
      <trkpt lat="48.7072" lon="2.02642">
        <ele>161.0005645752</ele>
        <time>2016-09-22T08:28:28.000Z</time>
      </trkpt>
      <trkpt lat="48.70718" lon="2.02638">
        <ele>161.17729187012</ele>
        <time>2016-09-22T08:28:30.000Z</time>
      </trkpt>
      <trkpt lat="48.70718" lon="2.02633">
        <ele>161.36965942383</ele>
        <time>2016-09-22T08:28:33.000Z</time>
      </trkpt>
      <trkpt lat="48.70717" lon="2.02631">
        <ele>161.53201293945</ele>
        <time>2016-09-22T08:28:35.000Z</time>
      </trkpt>
      <trkpt lat="48.70717" lon="2.02628">
        <ele>161.68968200684</ele>
        <time>2016-09-22T08:28:37.000Z</time>
      </trkpt>
      <trkpt lat="48.70717" lon="2.02624">
        <ele>161.84649658203</ele>
        <time>2016-09-22T08:28:40.000Z</time>
      </trkpt>
      <trkpt lat="48.70718" lon="2.02619">
        <ele>161.96264648438</ele>
        <time>2016-09-22T08:28:43.000Z</time>
      </trkpt>
      <trkpt lat="48.70718" lon="2.02618">
        <ele>162.05026245117</ele>
        <time>2016-09-22T08:28:45.000Z</time>
      </trkpt>
      <trkpt lat="48.70718" lon="2.02615">
        <ele>162.13339233398</ele>
        <time>2016-09-22T08:28:47.000Z</time>
      </trkpt>
      <trkpt lat="48.70719" lon="2.02609">
        <ele>162.22866821289</ele>
        <time>2016-09-22T08:29:01.000Z</time>
      </trkpt>
      <trkpt lat="48.70719" lon="2.02605">
        <ele>162.32626342773</ele>
        <time>2016-09-22T08:29:03.000Z</time>
      </trkpt>
      <trkpt lat="48.70719" lon="2.02598">
        <ele>162.46017456055</ele>
        <time>2016-09-22T08:29:06.000Z</time>
      </trkpt>
      <trkpt lat="48.70718" lon="2.02594">
        <ele>162.61210632324</ele>
        <time>2016-09-22T08:29:08.000Z</time>
      </trkpt>
      <trkpt lat="48.70716" lon="2.02587">
        <ele>162.82250976562</ele>
        <time>2016-09-22T08:29:11.000Z</time>
      </trkpt>
      <trkpt lat="48.70715" lon="2.02582">
        <ele>163.03579711914</ele>
        <time>2016-09-22T08:29:13.000Z</time>
      </trkpt>
      <trkpt lat="48.70714" lon="2.02575">
        <ele>163.27554321289</ele>
        <time>2016-09-22T08:29:16.000Z</time>
      </trkpt>
      <trkpt lat="48.70713" lon="2.02571">
        <ele>163.50411987305</ele>
        <time>2016-09-22T08:29:18.000Z</time>
      </trkpt>
      <trkpt lat="48.70712" lon="2.02566">
        <ele>163.75141906738</ele>
        <time>2016-09-22T08:29:21.000Z</time>
      </trkpt>
      <trkpt lat="48.70712" lon="2.02562">
        <ele>163.93902587891</ele>
        <time>2016-09-22T08:29:23.000Z</time>
      </trkpt>
      <trkpt lat="48.70711" lon="2.02556">
        <ele>164.13488769531</ele>
        <time>2016-09-22T08:29:26.000Z</time>
      </trkpt>
      <trkpt lat="48.7071" lon="2.02551">
        <ele>164.31576538086</ele>
        <time>2016-09-22T08:29:28.000Z</time>
      </trkpt>
      <trkpt lat="48.70709" lon="2.02547">
        <ele>164.48873901367</ele>
        <time>2016-09-22T08:29:30.000Z</time>
      </trkpt>
      <trkpt lat="48.70708" lon="2.02544">
        <ele>164.64064025879</ele>
        <time>2016-09-22T08:29:32.000Z</time>
      </trkpt>
      <trkpt lat="48.70707" lon="2.0254">
        <ele>164.81372070312</ele>
        <time>2016-09-22T08:29:35.000Z</time>
      </trkpt>
      <trkpt lat="48.70705" lon="2.02537">
        <ele>164.97940063477</ele>
        <time>2016-09-22T08:29:37.000Z</time>
      </trkpt>
      <trkpt lat="48.70704" lon="2.02531">
        <ele>165.14445495605</ele>
        <time>2016-09-22T08:29:40.000Z</time>
      </trkpt>
      <trkpt lat="48.70702" lon="2.02528">
        <ele>165.31356811523</ele>
        <time>2016-09-22T08:29:42.000Z</time>
      </trkpt>
      <trkpt lat="48.707" lon="2.02523">
        <ele>165.50570678711</ele>
        <time>2016-09-22T08:29:45.000Z</time>
      </trkpt>
      <trkpt lat="48.707" lon="2.02519">
        <ele>165.67886352539</ele>
        <time>2016-09-22T08:29:48.000Z</time>
      </trkpt>
      <trkpt lat="48.70698" lon="2.02512">
        <ele>165.85771179199</ele>
        <time>2016-09-22T08:29:51.000Z</time>
      </trkpt>
      <trkpt lat="48.70697" lon="2.02506">
        <ele>166.03814697266</ele>
        <time>2016-09-22T08:29:54.000Z</time>
      </trkpt>
      <trkpt lat="48.70695" lon="2.02501">
        <ele>166.22961425781</ele>
        <time>2016-09-22T08:29:56.000Z</time>
      </trkpt>
      <trkpt lat="48.70692" lon="2.02496">
        <ele>166.39602661133</ele>
        <time>2016-09-22T08:29:59.000Z</time>
      </trkpt>
      <trkpt lat="48.70692" lon="2.02492">
        <ele>166.54174804688</ele>
        <time>2016-09-22T08:30:01.000Z</time>
      </trkpt>
      <trkpt lat="48.70691" lon="2.02486">
        <ele>166.6363067627</ele>
        <time>2016-09-22T08:30:04.000Z</time>
      </trkpt>
      <trkpt lat="48.7069" lon="2.02479">
        <ele>166.68580627441</ele>
        <time>2016-09-22T08:30:07.000Z</time>
      </trkpt>
      <trkpt lat="48.70689" lon="2.02476">
        <ele>166.69822692871</ele>
        <time>2016-09-22T08:30:09.000Z</time>
      </trkpt>
      <trkpt lat="48.70686" lon="2.02471">
        <ele>166.69444274902</ele>
        <time>2016-09-22T08:30:12.000Z</time>
      </trkpt>
      <trkpt lat="48.70683" lon="2.02465">
        <ele>166.68937683105</ele>
        <time>2016-09-22T08:30:15.000Z</time>
      </trkpt>
      <trkpt lat="48.70683" lon="2.0246">
        <ele>166.68023681641</ele>
        <time>2016-09-22T08:30:18.000Z</time>
      </trkpt>
      <trkpt lat="48.70683" lon="2.02454">
        <ele>166.65690612793</ele>
        <time>2016-09-22T08:30:21.000Z</time>
      </trkpt>
      <trkpt lat="48.70683" lon="2.02447">
        <ele>166.60940551758</ele>
        <time>2016-09-22T08:30:24.000Z</time>
      </trkpt>
      <trkpt lat="48.70684" lon="2.02442">
        <ele>166.54133605957</ele>
        <time>2016-09-22T08:30:26.000Z</time>
      </trkpt>
      <trkpt lat="48.70684" lon="2.02436">
        <ele>166.45713806152</ele>
        <time>2016-09-22T08:30:29.000Z</time>
      </trkpt>
      <trkpt lat="48.70683" lon="2.0243">
        <ele>166.36505126953</ele>
        <time>2016-09-22T08:30:32.000Z</time>
      </trkpt>
      <trkpt lat="48.70683" lon="2.02424">
        <ele>166.27432250977</ele>
        <time>2016-09-22T08:30:35.000Z</time>
      </trkpt>
      <trkpt lat="48.70683" lon="2.02419">
        <ele>166.1936340332</ele>
        <time>2016-09-22T08:30:37.000Z</time>
      </trkpt>
      <trkpt lat="48.70683" lon="2.02414">
        <ele>166.11499023438</ele>
        <time>2016-09-22T08:30:39.000Z</time>
      </trkpt>
      <trkpt lat="48.70683" lon="2.02409">
        <ele>166.04029846191</ele>
        <time>2016-09-22T08:30:41.000Z</time>
      </trkpt>
      <trkpt lat="48.70683" lon="2.02402">
        <ele>165.96667480469</ele>
        <time>2016-09-22T08:30:44.000Z</time>
      </trkpt>
      <trkpt lat="48.70684" lon="2.02396">
        <ele>165.89636230469</ele>
        <time>2016-09-22T08:30:47.000Z</time>
      </trkpt>
      <trkpt lat="48.70684" lon="2.02391">
        <ele>165.82864379883</ele>
        <time>2016-09-22T08:30:49.000Z</time>
      </trkpt>
      <trkpt lat="48.70684" lon="2.02386">
        <ele>165.76040649414</ele>
        <time>2016-09-22T08:30:51.000Z</time>
      </trkpt>
      <trkpt lat="48.70683" lon="2.02381">
        <ele>165.69299316406</ele>
        <time>2016-09-22T08:30:53.000Z</time>
      </trkpt>
      <trkpt lat="48.70683" lon="2.02372">
        <ele>165.62126159668</ele>
        <time>2016-09-22T08:30:56.000Z</time>
      </trkpt>
      <trkpt lat="48.70684" lon="2.02369">
        <ele>165.55581665039</ele>
        <time>2016-09-22T08:30:59.000Z</time>
      </trkpt>
      <trkpt lat="48.70683" lon="2.02363">
        <ele>165.48883056641</ele>
        <time>2016-09-22T08:31:02.000Z</time>
      </trkpt>
      <trkpt lat="48.70683" lon="2.02359">
        <ele>165.42437744141</ele>
        <time>2016-09-22T08:31:04.000Z</time>
      </trkpt>
      <trkpt lat="48.70683" lon="2.02354">
        <ele>165.36141967773</ele>
        <time>2016-09-22T08:31:06.000Z</time>
      </trkpt>
      <trkpt lat="48.70683" lon="2.02348">
        <ele>165.30255126953</ele>
        <time>2016-09-22T08:31:09.000Z</time>
      </trkpt>
      <trkpt lat="48.70682" lon="2.02345">
        <ele>165.24551391602</ele>
        <time>2016-09-22T08:31:12.000Z</time>
      </trkpt>
      <trkpt lat="48.70681" lon="2.02339">
        <ele>165.18685913086</ele>
        <time>2016-09-22T08:31:15.000Z</time>
      </trkpt>
      <trkpt lat="48.70682" lon="2.02332">
        <ele>165.13557434082</ele>
        <time>2016-09-22T08:31:18.000Z</time>
      </trkpt>
      <trkpt lat="48.70682" lon="2.02323">
        <ele>165.1535949707</ele>
        <time>2016-09-22T08:31:21.000Z</time>
      </trkpt>
      <trkpt lat="48.70682" lon="2.02321">
        <ele>165.20536804199</ele>
        <time>2016-09-22T08:31:23.000Z</time>
      </trkpt>
      <trkpt lat="48.70685" lon="2.02313">
        <ele>165.3106842041</ele>
        <time>2016-09-22T08:31:26.000Z</time>
      </trkpt>
      <trkpt lat="48.70685" lon="2.02306">
        <ele>165.47860717773</ele>
        <time>2016-09-22T08:31:29.000Z</time>
      </trkpt>
      <trkpt lat="48.70685" lon="2.02302">
        <ele>165.68029785156</ele>
        <time>2016-09-22T08:31:31.000Z</time>
      </trkpt>
      <trkpt lat="48.70685" lon="2.02297">
        <ele>165.85513305664</ele>
        <time>2016-09-22T08:31:34.000Z</time>
      </trkpt>
      <trkpt lat="48.70686" lon="2.02293">
        <ele>166.03561401367</ele>
        <time>2016-09-22T08:31:37.000Z</time>
      </trkpt>
      <trkpt lat="48.70689" lon="2.02293">
        <ele>166.16465759277</ele>
        <time>2016-09-22T08:31:40.000Z</time>
      </trkpt>
      <trkpt lat="48.7069" lon="2.02292">
        <ele>166.2555847168</ele>
        <time>2016-09-22T08:31:42.000Z</time>
      </trkpt>
      <trkpt lat="48.70692" lon="2.02289">
        <ele>166.33114624023</ele>
        <time>2016-09-22T08:31:44.000Z</time>
      </trkpt>
      <trkpt lat="48.70694" lon="2.02285">
        <ele>166.39579772949</ele>
        <time>2016-09-22T08:31:47.000Z</time>
      </trkpt>
      <trkpt lat="48.70695" lon="2.02283">
        <ele>166.45028686523</ele>
        <time>2016-09-22T08:31:49.000Z</time>
      </trkpt>
      <trkpt lat="48.70696" lon="2.02281">
        <ele>166.52015686035</ele>
        <time>2016-09-22T08:31:52.000Z</time>
      </trkpt>
      <trkpt lat="48.70695" lon="2.02277">
        <ele>166.60618591309</ele>
        <time>2016-09-22T08:32:02.000Z</time>
      </trkpt>
      <trkpt lat="48.70695" lon="2.02273">
        <ele>166.70324707031</ele>
        <time>2016-09-22T08:32:04.000Z</time>
      </trkpt>
      <trkpt lat="48.70696" lon="2.0227">
        <ele>166.7964630127</ele>
        <time>2016-09-22T08:32:07.000Z</time>
      </trkpt>
      <trkpt lat="48.70697" lon="2.02266">
        <ele>166.90249633789</ele>
        <time>2016-09-22T08:32:10.000Z</time>
      </trkpt>
      <trkpt lat="48.70699" lon="2.02262">
        <ele>167.01669311523</ele>
        <time>2016-09-22T08:32:12.000Z</time>
      </trkpt>
      <trkpt lat="48.707" lon="2.02257">
        <ele>167.13531494141</ele>
        <time>2016-09-22T08:32:15.000Z</time>
      </trkpt>
      <trkpt lat="48.70701" lon="2.02249">
        <ele>167.27601623535</ele>
        <time>2016-09-22T08:32:18.000Z</time>
      </trkpt>
      <trkpt lat="48.707" lon="2.02245">
        <ele>167.43051147461</ele>
        <time>2016-09-22T08:32:20.000Z</time>
      </trkpt>
      <trkpt lat="48.707" lon="2.02239">
        <ele>167.6018371582</ele>
        <time>2016-09-22T08:32:23.000Z</time>
      </trkpt>
      <trkpt lat="48.70701" lon="2.02232">
        <ele>167.80256652832</ele>
        <time>2016-09-22T08:32:26.000Z</time>
      </trkpt>
      <trkpt lat="48.70702" lon="2.02227">
        <ele>168.00524902344</ele>
        <time>2016-09-22T08:32:28.000Z</time>
      </trkpt>
      <trkpt lat="48.70702" lon="2.02223">
        <ele>168.18991088867</ele>
        <time>2016-09-22T08:32:31.000Z</time>
      </trkpt>
      <trkpt lat="48.70702" lon="2.02219">
        <ele>168.3708190918</ele>
        <time>2016-09-22T08:32:33.000Z</time>
      </trkpt>
      <trkpt lat="48.70704" lon="2.02215">
        <ele>168.5387878418</ele>
        <time>2016-09-22T08:32:35.000Z</time>
      </trkpt>
      <trkpt lat="48.70705" lon="2.02209">
        <ele>168.69668579102</ele>
        <time>2016-09-22T08:32:38.000Z</time>
      </trkpt>
      <trkpt lat="48.70706" lon="2.02204">
        <ele>168.85092163086</ele>
        <time>2016-09-22T08:32:40.000Z</time>
      </trkpt>
      <trkpt lat="48.70706" lon="2.02198">
        <ele>169.01950073242</ele>
        <time>2016-09-22T08:32:43.000Z</time>
      </trkpt>
      <trkpt lat="48.70706" lon="2.02194">
        <ele>169.19491577148</ele>
        <time>2016-09-22T08:32:45.000Z</time>
      </trkpt>
      <trkpt lat="48.70706" lon="2.02188">
        <ele>169.38134765625</ele>
        <time>2016-09-22T08:32:48.000Z</time>
      </trkpt>
      <trkpt lat="48.70707" lon="2.02185">
        <ele>169.55242919922</ele>
        <time>2016-09-22T08:32:50.000Z</time>
      </trkpt>
      <trkpt lat="48.70706" lon="2.02181">
        <ele>169.71807861328</ele>
        <time>2016-09-22T08:32:52.000Z</time>
      </trkpt>
      <trkpt lat="48.70705" lon="2.02177">
        <ele>169.87173461914</ele>
        <time>2016-09-22T08:32:55.000Z</time>
      </trkpt>
      <trkpt lat="48.70704" lon="2.02171">
        <ele>170.0361328125</ele>
        <time>2016-09-22T08:32:58.000Z</time>
      </trkpt>
      <trkpt lat="48.70704" lon="2.02166">
        <ele>170.19287109375</ele>
        <time>2016-09-22T08:33:01.000Z</time>
      </trkpt>
      <trkpt lat="48.70704" lon="2.02163">
        <ele>170.32441711426</ele>
        <time>2016-09-22T08:33:03.000Z</time>
      </trkpt>
      <trkpt lat="48.70705" lon="2.02158">
        <ele>170.42446899414</ele>
        <time>2016-09-22T08:33:05.000Z</time>
      </trkpt>
      <trkpt lat="48.70704" lon="2.02152">
        <ele>170.48721313477</ele>
        <time>2016-09-22T08:33:08.000Z</time>
      </trkpt>
      <trkpt lat="48.70704" lon="2.02148">
        <ele>170.50048828125</ele>
        <time>2016-09-22T08:33:10.000Z</time>
      </trkpt>
      <trkpt lat="48.70704" lon="2.02143">
        <ele>170.47595214844</ele>
        <time>2016-09-22T08:33:13.000Z</time>
      </trkpt>
      <trkpt lat="48.70703" lon="2.02139">
        <ele>170.45219421387</ele>
        <time>2016-09-22T08:33:15.000Z</time>
      </trkpt>
      <trkpt lat="48.70703" lon="2.02135">
        <ele>170.43252563477</ele>
        <time>2016-09-22T08:33:17.000Z</time>
      </trkpt>
      <trkpt lat="48.70703" lon="2.0213">
        <ele>170.41172790527</ele>
        <time>2016-09-22T08:33:20.000Z</time>
      </trkpt>
      <trkpt lat="48.70704" lon="2.02127">
        <ele>170.39125061035</ele>
        <time>2016-09-22T08:33:22.000Z</time>
      </trkpt>
      <trkpt lat="48.70704" lon="2.02121">
        <ele>170.36618041992</ele>
        <time>2016-09-22T08:33:25.000Z</time>
      </trkpt>
      <trkpt lat="48.70704" lon="2.02116">
        <ele>170.33877563477</ele>
        <time>2016-09-22T08:33:27.000Z</time>
      </trkpt>
      <trkpt lat="48.70702" lon="2.0211">
        <ele>170.31578063965</ele>
        <time>2016-09-22T08:33:30.000Z</time>
      </trkpt>
      <trkpt lat="48.70701" lon="2.02107">
        <ele>170.29983520508</ele>
        <time>2016-09-22T08:33:32.000Z</time>
      </trkpt>
      <trkpt lat="48.70701" lon="2.02104">
        <ele>170.28564453125</ele>
        <time>2016-09-22T08:33:34.000Z</time>
      </trkpt>
      <trkpt lat="48.70702" lon="2.02098">
        <ele>170.27377319336</ele>
        <time>2016-09-22T08:33:36.000Z</time>
      </trkpt>
      <trkpt lat="48.707" lon="2.02091">
        <ele>170.26574707031</ele>
        <time>2016-09-22T08:33:39.000Z</time>
      </trkpt>
      <trkpt lat="48.70699" lon="2.02087">
        <ele>170.25682067871</ele>
        <time>2016-09-22T08:33:41.000Z</time>
      </trkpt>
      <trkpt lat="48.70698" lon="2.02084">
        <ele>170.24740600586</ele>
        <time>2016-09-22T08:33:43.000Z</time>
      </trkpt>
      <trkpt lat="48.70698" lon="2.02078">
        <ele>170.17092895508</ele>
        <time>2016-09-22T08:33:46.000Z</time>
      </trkpt>
      <trkpt lat="48.70698" lon="2.02072">
        <ele>170.02993774414</ele>
        <time>2016-09-22T08:33:49.000Z</time>
      </trkpt>
      <trkpt lat="48.70698" lon="2.0207">
        <ele>169.85151672363</ele>
        <time>2016-09-22T08:33:51.000Z</time>
      </trkpt>
      <trkpt lat="48.70698" lon="2.02063">
        <ele>169.58248901367</ele>
        <time>2016-09-22T08:33:54.000Z</time>
      </trkpt>
      <trkpt lat="48.70699" lon="2.02058">
        <ele>169.2448425293</ele>
        <time>2016-09-22T08:33:57.000Z</time>
      </trkpt>
      <trkpt lat="48.707" lon="2.02055">
        <ele>168.93411254883</ele>
        <time>2016-09-22T08:33:59.000Z</time>
      </trkpt>
      <trkpt lat="48.70701" lon="2.02049">
        <ele>168.61999511719</ele>
        <time>2016-09-22T08:34:02.000Z</time>
      </trkpt>
      <trkpt lat="48.70701" lon="2.02044">
        <ele>168.28604125977</ele>
        <time>2016-09-22T08:34:04.000Z</time>
      </trkpt>
      <trkpt lat="48.707" lon="2.02038">
        <ele>167.95558166504</ele>
        <time>2016-09-22T08:34:07.000Z</time>
      </trkpt>
      <trkpt lat="48.70701" lon="2.02032">
        <ele>167.62635803223</ele>
        <time>2016-09-22T08:34:09.000Z</time>
      </trkpt>
      <trkpt lat="48.70701" lon="2.02026">
        <ele>167.25595092773</ele>
        <time>2016-09-22T08:34:12.000Z</time>
      </trkpt>
      <trkpt lat="48.70701" lon="2.02021">
        <ele>166.89266967773</ele>
        <time>2016-09-22T08:34:14.000Z</time>
      </trkpt>
      <trkpt lat="48.707" lon="2.02013">
        <ele>166.48573303223</ele>
        <time>2016-09-22T08:34:17.000Z</time>
      </trkpt>
      <trkpt lat="48.707" lon="2.0201">
        <ele>166.12637329102</ele>
        <time>2016-09-22T08:34:19.000Z</time>
      </trkpt>
      <trkpt lat="48.70699" lon="2.02004">
        <ele>165.74893188477</ele>
        <time>2016-09-22T08:34:22.000Z</time>
      </trkpt>
      <trkpt lat="48.70697" lon="2.01998">
        <ele>165.38957214355</ele>
        <time>2016-09-22T08:34:24.000Z</time>
      </trkpt>
      <trkpt lat="48.70695" lon="2.01995">
        <ele>165.07244873047</ele>
        <time>2016-09-22T08:34:26.000Z</time>
      </trkpt>
      <trkpt lat="48.70695" lon="2.01993">
        <ele>164.8480682373</ele>
        <time>2016-09-22T08:34:28.000Z</time>
      </trkpt>
      <trkpt lat="48.70696" lon="2.0199">
        <ele>164.64811706543</ele>
        <time>2016-09-22T08:34:30.000Z</time>
      </trkpt>
      <trkpt lat="48.70697" lon="2.01985">
        <ele>164.51318359375</ele>
        <time>2016-09-22T08:34:33.000Z</time>
      </trkpt>
      <trkpt lat="48.70697" lon="2.01981">
        <ele>164.42877197266</ele>
        <time>2016-09-22T08:34:35.000Z</time>
      </trkpt>
      <trkpt lat="48.70699" lon="2.01979">
        <ele>164.35922241211</ele>
        <time>2016-09-22T08:34:38.000Z</time>
      </trkpt>
      <trkpt lat="48.707" lon="2.01977">
        <ele>164.29254150391</ele>
        <time>2016-09-22T08:34:40.000Z</time>
      </trkpt>
      <trkpt lat="48.707" lon="2.01974">
        <ele>164.22845458984</ele>
        <time>2016-09-22T08:34:42.000Z</time>
      </trkpt>
      <trkpt lat="48.70699" lon="2.01969">
        <ele>164.15605163574</ele>
        <time>2016-09-22T08:34:45.000Z</time>
      </trkpt>
      <trkpt lat="48.707" lon="2.01964">
        <ele>164.07125854492</ele>
        <time>2016-09-22T08:34:48.000Z</time>
      </trkpt>
      <trkpt lat="48.707" lon="2.01958">
        <ele>163.96604919434</ele>
        <time>2016-09-22T08:34:51.000Z</time>
      </trkpt>
      <trkpt lat="48.70699" lon="2.01953">
        <ele>163.83821105957</ele>
        <time>2016-09-22T08:34:53.000Z</time>
      </trkpt>
      <trkpt lat="48.70699" lon="2.01948">
        <ele>163.6999206543</ele>
        <time>2016-09-22T08:34:55.000Z</time>
      </trkpt>
      <trkpt lat="48.70699" lon="2.01943">
        <ele>163.56251525879</ele>
        <time>2016-09-22T08:34:58.000Z</time>
      </trkpt>
      <trkpt lat="48.707" lon="2.0194">
        <ele>163.43864440918</ele>
        <time>2016-09-22T08:35:00.000Z</time>
      </trkpt>
      <trkpt lat="48.707" lon="2.01937">
        <ele>163.32748413086</ele>
        <time>2016-09-22T08:35:02.000Z</time>
      </trkpt>
      <trkpt lat="48.707" lon="2.01931">
        <ele>163.21171569824</ele>
        <time>2016-09-22T08:35:05.000Z</time>
      </trkpt>
      <trkpt lat="48.70701" lon="2.01927">
        <ele>163.09767150879</ele>
        <time>2016-09-22T08:35:07.000Z</time>
      </trkpt>
      <trkpt lat="48.70702" lon="2.0192">
        <ele>162.97332763672</ele>
        <time>2016-09-22T08:35:10.000Z</time>
      </trkpt>
      <trkpt lat="48.70703" lon="2.01914">
        <ele>162.87672424316</ele>
        <time>2016-09-22T08:35:13.000Z</time>
      </trkpt>
      <trkpt lat="48.70703" lon="2.01907">
        <ele>162.87979125977</ele>
        <time>2016-09-22T08:35:16.000Z</time>
      </trkpt>
      <trkpt lat="48.70704" lon="2.01903">
        <ele>162.97320556641</ele>
        <time>2016-09-22T08:35:18.000Z</time>
      </trkpt>
      <trkpt lat="48.70705" lon="2.01898">
        <ele>163.13943481445</ele>
        <time>2016-09-22T08:35:20.000Z</time>
      </trkpt>
      <trkpt lat="48.70705" lon="2.01894">
        <ele>163.39205932617</ele>
        <time>2016-09-22T08:35:22.000Z</time>
      </trkpt>
      <trkpt lat="48.70705" lon="2.0189">
        <ele>163.67959594727</ele>
        <time>2016-09-22T08:35:24.000Z</time>
      </trkpt>
      <trkpt lat="48.70707" lon="2.01884">
        <ele>163.9563293457</ele>
        <time>2016-09-22T08:35:27.000Z</time>
      </trkpt>
      <trkpt lat="48.70708" lon="2.01878">
        <ele>164.23092651367</ele>
        <time>2016-09-22T08:35:30.000Z</time>
      </trkpt>
      <trkpt lat="48.70708" lon="2.01875">
        <ele>164.49667358398</ele>
        <time>2016-09-22T08:35:32.000Z</time>
      </trkpt>
      <trkpt lat="48.7071" lon="2.01871">
        <ele>164.75028991699</ele>
        <time>2016-09-22T08:35:34.000Z</time>
      </trkpt>
      <trkpt lat="48.70711" lon="2.01865">
        <ele>165.01107788086</ele>
        <time>2016-09-22T08:35:37.000Z</time>
      </trkpt>
      <trkpt lat="48.70713" lon="2.0186">
        <ele>165.24772644043</ele>
        <time>2016-09-22T08:35:40.000Z</time>
      </trkpt>
      <trkpt lat="48.70715" lon="2.0186">
        <ele>165.40756225586</ele>
        <time>2016-09-22T08:35:43.000Z</time>
      </trkpt>
      <trkpt lat="48.70715" lon="2.01856">
        <ele>165.57263183594</ele>
        <time>2016-09-22T08:35:46.000Z</time>
      </trkpt>
      <trkpt lat="48.70716" lon="2.01852">
        <ele>165.73287963867</ele>
        <time>2016-09-22T08:35:48.000Z</time>
      </trkpt>
      <trkpt lat="48.70717" lon="2.01849">
        <ele>165.85961914062</ele>
        <time>2016-09-22T08:35:50.000Z</time>
      </trkpt>
      <trkpt lat="48.70718" lon="2.01845">
        <ele>165.9709777832</ele>
        <time>2016-09-22T08:35:52.000Z</time>
      </trkpt>
      <trkpt lat="48.70719" lon="2.01842">
        <ele>166.13111877441</ele>
        <time>2016-09-22T08:35:54.000Z</time>
      </trkpt>
      <trkpt lat="48.7072" lon="2.01839">
        <ele>166.25971984863</ele>
        <time>2016-09-22T08:35:57.000Z</time>
      </trkpt>
      <trkpt lat="48.70721" lon="2.01834">
        <ele>166.39660644531</ele>
        <time>2016-09-22T08:36:00.000Z</time>
      </trkpt>
      <trkpt lat="48.70722" lon="2.01831">
        <ele>166.51748657227</ele>
        <time>2016-09-22T08:36:03.000Z</time>
      </trkpt>
      <trkpt lat="48.70723" lon="2.01829">
        <ele>166.61340332031</ele>
        <time>2016-09-22T08:36:05.000Z</time>
      </trkpt>
      <trkpt lat="48.70725" lon="2.01824">
        <ele>166.6909942627</ele>
        <time>2016-09-22T08:36:08.000Z</time>
      </trkpt>
      <trkpt lat="48.70726" lon="2.01816">
        <ele>166.78515625</ele>
        <time>2016-09-22T08:36:11.000Z</time>
      </trkpt>
      <trkpt lat="48.70727" lon="2.01809">
        <ele>166.86605834961</ele>
        <time>2016-09-22T08:36:14.000Z</time>
      </trkpt>
      <trkpt lat="48.70728" lon="2.01805">
        <ele>166.94953918457</ele>
        <time>2016-09-22T08:36:17.000Z</time>
      </trkpt>
      <trkpt lat="48.70731" lon="2.01801">
        <ele>167.02557373047</ele>
        <time>2016-09-22T08:36:20.000Z</time>
      </trkpt>
      <trkpt lat="48.70732" lon="2.01797">
        <ele>167.10440063477</ele>
        <time>2016-09-22T08:36:23.000Z</time>
      </trkpt>
      <trkpt lat="48.70734" lon="2.01793">
        <ele>167.16261291504</ele>
        <time>2016-09-22T08:36:25.000Z</time>
      </trkpt>
      <trkpt lat="48.70734" lon="2.01788">
        <ele>167.2219543457</ele>
        <time>2016-09-22T08:36:27.000Z</time>
      </trkpt>
      <trkpt lat="48.70734" lon="2.01782">
        <ele>167.30596923828</ele>
        <time>2016-09-22T08:36:30.000Z</time>
      </trkpt>
      <trkpt lat="48.70734" lon="2.01776">
        <ele>167.42721557617</ele>
        <time>2016-09-22T08:36:33.000Z</time>
      </trkpt>
      <trkpt lat="48.70735" lon="2.01773">
        <ele>167.54806518555</ele>
        <time>2016-09-22T08:36:35.000Z</time>
      </trkpt>
      <trkpt lat="48.70736" lon="2.01771">
        <ele>167.66230773926</ele>
        <time>2016-09-22T08:36:37.000Z</time>
      </trkpt>
      <trkpt lat="48.70737" lon="2.01765">
        <ele>167.78564453125</ele>
        <time>2016-09-22T08:36:40.000Z</time>
      </trkpt>
      <trkpt lat="48.70737" lon="2.01761">
        <ele>167.89669799805</ele>
        <time>2016-09-22T08:36:43.000Z</time>
      </trkpt>
      <trkpt lat="48.70739" lon="2.01757">
        <ele>167.98559570312</ele>
        <time>2016-09-22T08:36:46.000Z</time>
      </trkpt>
      <trkpt lat="48.7074" lon="2.01751">
        <ele>168.09289550781</ele>
        <time>2016-09-22T08:36:49.000Z</time>
      </trkpt>
      <trkpt lat="48.70741" lon="2.01747">
        <ele>168.22439575195</ele>
        <time>2016-09-22T08:36:51.000Z</time>
      </trkpt>
      <trkpt lat="48.70742" lon="2.01745">
        <ele>168.33322143555</ele>
        <time>2016-09-22T08:36:53.000Z</time>
      </trkpt>
      <trkpt lat="48.70745" lon="2.01742">
        <ele>168.43905639648</ele>
        <time>2016-09-22T08:36:56.000Z</time>
      </trkpt>
      <trkpt lat="48.70747" lon="2.01738">
        <ele>168.55816650391</ele>
        <time>2016-09-22T08:36:58.000Z</time>
      </trkpt>
      <trkpt lat="48.70748" lon="2.01734">
        <ele>168.69288635254</ele>
        <time>2016-09-22T08:37:00.000Z</time>
      </trkpt>
      <trkpt lat="48.70749" lon="2.01729">
        <ele>168.84902954102</ele>
        <time>2016-09-22T08:37:02.000Z</time>
      </trkpt>
      <trkpt lat="48.70749" lon="2.01724">
        <ele>169.05026245117</ele>
        <time>2016-09-22T08:37:05.000Z</time>
      </trkpt>
      <trkpt lat="48.70748" lon="2.01718">
        <ele>169.30718994141</ele>
        <time>2016-09-22T08:37:08.000Z</time>
      </trkpt>
      <trkpt lat="48.70747" lon="2.01711">
        <ele>169.62417602539</ele>
        <time>2016-09-22T08:37:12.000Z</time>
      </trkpt>
      <trkpt lat="48.70747" lon="2.01705">
        <ele>169.97055053711</ele>
        <time>2016-09-22T08:37:17.000Z</time>
      </trkpt>
      <trkpt lat="48.70748" lon="2.017">
        <ele>170.32621765137</ele>
        <time>2016-09-22T08:37:19.000Z</time>
      </trkpt>
      <trkpt lat="48.7075" lon="2.01693">
        <ele>170.69924926758</ele>
        <time>2016-09-22T08:37:22.000Z</time>
      </trkpt>
      <trkpt lat="48.70752" lon="2.01686">
        <ele>171.07102966309</ele>
        <time>2016-09-22T08:37:25.000Z</time>
      </trkpt>
      <trkpt lat="48.70752" lon="2.01682">
        <ele>171.40191650391</ele>
        <time>2016-09-22T08:37:27.000Z</time>
      </trkpt>
      <trkpt lat="48.70753" lon="2.01675">
        <ele>171.74621582031</ele>
        <time>2016-09-22T08:37:30.000Z</time>
      </trkpt>
      <trkpt lat="48.70752" lon="2.0167">
        <ele>172.08462524414</ele>
        <time>2016-09-22T08:37:32.000Z</time>
      </trkpt>
      <trkpt lat="48.70752" lon="2.01662">
        <ele>172.41006469727</ele>
        <time>2016-09-22T08:37:35.000Z</time>
      </trkpt>
      <trkpt lat="48.70752" lon="2.01654">
        <ele>172.6994934082</ele>
        <time>2016-09-22T08:37:38.000Z</time>
      </trkpt>
      <trkpt lat="48.70753" lon="2.01651">
        <ele>172.95460510254</ele>
        <time>2016-09-22T08:37:40.000Z</time>
      </trkpt>
      <trkpt lat="48.70755" lon="2.01645">
        <ele>173.14038085938</ele>
        <time>2016-09-22T08:37:43.000Z</time>
      </trkpt>
      <trkpt lat="48.70755" lon="2.0164">
        <ele>173.29373168945</ele>
        <time>2016-09-22T08:37:45.000Z</time>
      </trkpt>
      <trkpt lat="48.70756" lon="2.01634">
        <ele>173.40365600586</ele>
        <time>2016-09-22T08:37:48.000Z</time>
      </trkpt>
      <trkpt lat="48.70757" lon="2.0163">
        <ele>173.48983764648</ele>
        <time>2016-09-22T08:37:51.000Z</time>
      </trkpt>
      <trkpt lat="48.70758" lon="2.01627">
        <ele>173.5705871582</ele>
        <time>2016-09-22T08:37:53.000Z</time>
      </trkpt>
      <trkpt lat="48.70761" lon="2.01622">
        <ele>173.6408996582</ele>
        <time>2016-09-22T08:37:56.000Z</time>
      </trkpt>
      <trkpt lat="48.70763" lon="2.01618">
        <ele>173.69554138184</ele>
        <time>2016-09-22T08:37:58.000Z</time>
      </trkpt>
      <trkpt lat="48.70765" lon="2.01614">
        <ele>173.732421875</ele>
        <time>2016-09-22T08:38:01.000Z</time>
      </trkpt>
      <trkpt lat="48.70768" lon="2.01608">
        <ele>173.76205444336</ele>
        <time>2016-09-22T08:38:04.000Z</time>
      </trkpt>
      <trkpt lat="48.7077" lon="2.01604">
        <ele>173.79153442383</ele>
        <time>2016-09-22T08:38:06.000Z</time>
      </trkpt>
      <trkpt lat="48.70771" lon="2.016">
        <ele>173.82284545898</ele>
        <time>2016-09-22T08:38:09.000Z</time>
      </trkpt>
      <trkpt lat="48.70773" lon="2.01594">
        <ele>173.86259460449</ele>
        <time>2016-09-22T08:38:12.000Z</time>
      </trkpt>
      <trkpt lat="48.70773" lon="2.01587">
        <ele>173.92712402344</ele>
        <time>2016-09-22T08:38:15.000Z</time>
      </trkpt>
      <trkpt lat="48.70773" lon="2.01579">
        <ele>174.00382995605</ele>
        <time>2016-09-22T08:38:18.000Z</time>
      </trkpt>
      <trkpt lat="48.70773" lon="2.01572">
        <ele>174.076171875</ele>
        <time>2016-09-22T08:38:21.000Z</time>
      </trkpt>
      <trkpt lat="48.70774" lon="2.01568">
        <ele>174.13204956055</ele>
        <time>2016-09-22T08:38:23.000Z</time>
      </trkpt>
      <trkpt lat="48.70777" lon="2.01561">
        <ele>174.16195678711</ele>
        <time>2016-09-22T08:38:26.000Z</time>
      </trkpt>
      <trkpt lat="48.70778" lon="2.01558">
        <ele>174.15629577637</ele>
        <time>2016-09-22T08:38:28.000Z</time>
      </trkpt>
      <trkpt lat="48.7078" lon="2.0155">
        <ele>174.12924194336</ele>
        <time>2016-09-22T08:38:31.000Z</time>
      </trkpt>
      <trkpt lat="48.70781" lon="2.01547">
        <ele>174.09860229492</ele>
        <time>2016-09-22T08:38:33.000Z</time>
      </trkpt>
      <trkpt lat="48.70783" lon="2.01541">
        <ele>174.06686401367</ele>
        <time>2016-09-22T08:38:36.000Z</time>
      </trkpt>
      <trkpt lat="48.70784" lon="2.01537">
        <ele>174.04267883301</ele>
        <time>2016-09-22T08:38:38.000Z</time>
      </trkpt>
      <trkpt lat="48.70786" lon="2.01531">
        <ele>174.02243041992</ele>
        <time>2016-09-22T08:38:41.000Z</time>
      </trkpt>
      <trkpt lat="48.70788" lon="2.01528">
        <ele>173.99578857422</ele>
        <time>2016-09-22T08:38:43.000Z</time>
      </trkpt>
      <trkpt lat="48.7079" lon="2.01526">
        <ele>173.96034240723</ele>
        <time>2016-09-22T08:38:46.000Z</time>
      </trkpt>
      <trkpt lat="48.70793" lon="2.01524">
        <ele>173.92018127441</ele>
        <time>2016-09-22T08:38:49.000Z</time>
      </trkpt>
      <trkpt lat="48.70795" lon="2.01523">
        <ele>173.87380981445</ele>
        <time>2016-09-22T08:38:51.000Z</time>
      </trkpt>
      <trkpt lat="48.70797" lon="2.01519">
        <ele>173.8274230957</ele>
        <time>2016-09-22T08:38:54.000Z</time>
      </trkpt>
      <trkpt lat="48.70797" lon="2.01514">
        <ele>173.79626464844</ele>
        <time>2016-09-22T08:38:56.000Z</time>
      </trkpt>
      <trkpt lat="48.70796" lon="2.01508">
        <ele>173.78800964355</ele>
        <time>2016-09-22T08:38:59.000Z</time>
      </trkpt>
      <trkpt lat="48.70795" lon="2.01501">
        <ele>173.80911254883</ele>
        <time>2016-09-22T08:39:03.000Z</time>
      </trkpt>
      <trkpt lat="48.70796" lon="2.01496">
        <ele>173.81536865234</ele>
        <time>2016-09-22T08:39:06.000Z</time>
      </trkpt>
      <trkpt lat="48.70798" lon="2.01488">
        <ele>173.79000854492</ele>
        <time>2016-09-22T08:39:09.000Z</time>
      </trkpt>
      <trkpt lat="48.70798" lon="2.01485">
        <ele>173.74464416504</ele>
        <time>2016-09-22T08:39:11.000Z</time>
      </trkpt>
      <trkpt lat="48.70799" lon="2.01481">
        <ele>173.66191101074</ele>
        <time>2016-09-22T08:39:14.000Z</time>
      </trkpt>
      <trkpt lat="48.708" lon="2.01477">
        <ele>173.53677368164</ele>
        <time>2016-09-22T08:39:17.000Z</time>
      </trkpt>
      <trkpt lat="48.70802" lon="2.01473">
        <ele>173.40924072266</ele>
        <time>2016-09-22T08:39:19.000Z</time>
      </trkpt>
      <trkpt lat="48.70802" lon="2.01466">
        <ele>173.28251647949</ele>
        <time>2016-09-22T08:39:22.000Z</time>
      </trkpt>
      <trkpt lat="48.70803" lon="2.0146">
        <ele>173.13139343262</ele>
        <time>2016-09-22T08:39:25.000Z</time>
      </trkpt>
      <trkpt lat="48.70805" lon="2.01458">
        <ele>172.98420715332</ele>
        <time>2016-09-22T08:39:27.000Z</time>
      </trkpt>
      <trkpt lat="48.70807" lon="2.01456">
        <ele>172.83692932129</ele>
        <time>2016-09-22T08:39:29.000Z</time>
      </trkpt>
      <trkpt lat="48.70809" lon="2.01452">
        <ele>172.67208862305</ele>
        <time>2016-09-22T08:39:32.000Z</time>
      </trkpt>
      <trkpt lat="48.7081" lon="2.01449">
        <ele>172.52067565918</ele>
        <time>2016-09-22T08:39:34.000Z</time>
      </trkpt>
      <trkpt lat="48.70811" lon="2.01445">
        <ele>172.37551879883</ele>
        <time>2016-09-22T08:39:36.000Z</time>
      </trkpt>
      <trkpt lat="48.70811" lon="2.0144">
        <ele>172.22665405273</ele>
        <time>2016-09-22T08:39:38.000Z</time>
      </trkpt>
      <trkpt lat="48.70811" lon="2.01434">
        <ele>172.07192993164</ele>
        <time>2016-09-22T08:39:41.000Z</time>
      </trkpt>
      <trkpt lat="48.70811" lon="2.0143">
        <ele>171.94082641602</ele>
        <time>2016-09-22T08:39:43.000Z</time>
      </trkpt>
      <trkpt lat="48.70812" lon="2.01426">
        <ele>171.79838562012</ele>
        <time>2016-09-22T08:39:46.000Z</time>
      </trkpt>
      <trkpt lat="48.70813" lon="2.01421">
        <ele>171.65704345703</ele>
        <time>2016-09-22T08:39:48.000Z</time>
      </trkpt>
      <trkpt lat="48.70813" lon="2.01414">
        <ele>171.51152038574</ele>
        <time>2016-09-22T08:39:51.000Z</time>
      </trkpt>
      <trkpt lat="48.70813" lon="2.0141">
        <ele>171.39440917969</ele>
        <time>2016-09-22T08:39:53.000Z</time>
      </trkpt>
      <trkpt lat="48.70814" lon="2.01405">
        <ele>171.28128051758</ele>
        <time>2016-09-22T08:39:56.000Z</time>
      </trkpt>
      <trkpt lat="48.70816" lon="2.014">
        <ele>171.17907714844</ele>
        <time>2016-09-22T08:39:59.000Z</time>
      </trkpt>
      <trkpt lat="48.70817" lon="2.01397">
        <ele>171.09355163574</ele>
        <time>2016-09-22T08:40:01.000Z</time>
      </trkpt>
      <trkpt lat="48.70819" lon="2.01392">
        <ele>171.01661682129</ele>
        <time>2016-09-22T08:40:04.000Z</time>
      </trkpt>
      <trkpt lat="48.7082" lon="2.01389">
        <ele>170.92674255371</ele>
        <time>2016-09-22T08:40:06.000Z</time>
      </trkpt>
      <trkpt lat="48.7082" lon="2.01383">
        <ele>170.85136413574</ele>
        <time>2016-09-22T08:40:09.000Z</time>
      </trkpt>
      <trkpt lat="48.7082" lon="2.01379">
        <ele>170.79173278809</ele>
        <time>2016-09-22T08:40:11.000Z</time>
      </trkpt>
      <trkpt lat="48.70823" lon="2.01375">
        <ele>170.72007751465</ele>
        <time>2016-09-22T08:40:14.000Z</time>
      </trkpt>
      <trkpt lat="48.70824" lon="2.0137">
        <ele>170.65007019043</ele>
        <time>2016-09-22T08:40:17.000Z</time>
      </trkpt>
      <trkpt lat="48.70825" lon="2.01366">
        <ele>170.58554077148</ele>
        <time>2016-09-22T08:40:19.000Z</time>
      </trkpt>
      <trkpt lat="48.70825" lon="2.01362">
        <ele>170.52238464355</ele>
        <time>2016-09-22T08:40:21.000Z</time>
      </trkpt>
      <trkpt lat="48.70826" lon="2.01359">
        <ele>170.45596313477</ele>
        <time>2016-09-22T08:40:23.000Z</time>
      </trkpt>
      <trkpt lat="48.70826" lon="2.01351">
        <ele>170.41165161133</ele>
        <time>2016-09-22T08:40:26.000Z</time>
      </trkpt>
      <trkpt lat="48.70827" lon="2.01345">
        <ele>170.38090515137</ele>
        <time>2016-09-22T08:40:28.000Z</time>
      </trkpt>
      <trkpt lat="48.70826" lon="2.0134">
        <ele>170.36283874512</ele>
        <time>2016-09-22T08:40:30.000Z</time>
      </trkpt>
      <trkpt lat="48.70826" lon="2.01332">
        <ele>170.35580444336</ele>
        <time>2016-09-22T08:40:33.000Z</time>
      </trkpt>
      <trkpt lat="48.70827" lon="2.01326">
        <ele>170.36973571777</ele>
        <time>2016-09-22T08:40:36.000Z</time>
      </trkpt>
      <trkpt lat="48.70828" lon="2.01323">
        <ele>170.39407348633</ele>
        <time>2016-09-22T08:40:38.000Z</time>
      </trkpt>
      <trkpt lat="48.7083" lon="2.0132">
        <ele>170.41955566406</ele>
        <time>2016-09-22T08:40:41.000Z</time>
      </trkpt>
      <trkpt lat="48.70832" lon="2.01317">
        <ele>170.4372253418</ele>
        <time>2016-09-22T08:40:44.000Z</time>
      </trkpt>
      <trkpt lat="48.70835" lon="2.01313">
        <ele>170.447265625</ele>
        <time>2016-09-22T08:40:47.000Z</time>
      </trkpt>
      <trkpt lat="48.70836" lon="2.0131">
        <ele>170.44996643066</ele>
        <time>2016-09-22T08:40:49.000Z</time>
      </trkpt>
      <trkpt lat="48.70836" lon="2.01306">
        <ele>170.46159362793</ele>
        <time>2016-09-22T08:40:51.000Z</time>
      </trkpt>
      <trkpt lat="48.70837" lon="2.01302">
        <ele>170.48857116699</ele>
        <time>2016-09-22T08:40:53.000Z</time>
      </trkpt>
      <trkpt lat="48.70838" lon="2.01299">
        <ele>170.53005981445</ele>
        <time>2016-09-22T08:40:55.000Z</time>
      </trkpt>
      <trkpt lat="48.7084" lon="2.01294">
        <ele>170.56861877441</ele>
        <time>2016-09-22T08:40:58.000Z</time>
      </trkpt>
      <trkpt lat="48.70841" lon="2.01289">
        <ele>170.62370300293</ele>
        <time>2016-09-22T08:41:00.000Z</time>
      </trkpt>
      <trkpt lat="48.70842" lon="2.01282">
        <ele>170.69677734375</ele>
        <time>2016-09-22T08:41:03.000Z</time>
      </trkpt>
      <trkpt lat="48.70844" lon="2.01275">
        <ele>170.77738952637</ele>
        <time>2016-09-22T08:41:06.000Z</time>
      </trkpt>
      <trkpt lat="48.70845" lon="2.01269">
        <ele>170.86618041992</ele>
        <time>2016-09-22T08:41:09.000Z</time>
      </trkpt>
      <trkpt lat="48.70848" lon="2.01266">
        <ele>170.95452880859</ele>
        <time>2016-09-22T08:41:11.000Z</time>
      </trkpt>
      <trkpt lat="48.70849" lon="2.01262">
        <ele>171.02839660645</ele>
        <time>2016-09-22T08:41:13.000Z</time>
      </trkpt>
      <trkpt lat="48.70851" lon="2.01258">
        <ele>171.07852172852</ele>
        <time>2016-09-22T08:41:16.000Z</time>
      </trkpt>
      <trkpt lat="48.70853" lon="2.01254">
        <ele>171.11721801758</ele>
        <time>2016-09-22T08:41:19.000Z</time>
      </trkpt>
      <trkpt lat="48.70856" lon="2.0125">
        <ele>171.13786315918</ele>
        <time>2016-09-22T08:41:22.000Z</time>
      </trkpt>
      <trkpt lat="48.70858" lon="2.01246">
        <ele>171.18145751953</ele>
        <time>2016-09-22T08:41:24.000Z</time>
      </trkpt>
      <trkpt lat="48.7086" lon="2.01242">
        <ele>171.24645996094</ele>
        <time>2016-09-22T08:41:27.000Z</time>
      </trkpt>
      <trkpt lat="48.7086" lon="2.01238">
        <ele>171.34286499023</ele>
        <time>2016-09-22T08:41:29.000Z</time>
      </trkpt>
      <trkpt lat="48.70859" lon="2.01231">
        <ele>171.50045776367</ele>
        <time>2016-09-22T08:41:32.000Z</time>
      </trkpt>
      <trkpt lat="48.70859" lon="2.01226">
        <ele>171.70921325684</ele>
        <time>2016-09-22T08:41:35.000Z</time>
      </trkpt>
      <trkpt lat="48.70861" lon="2.01221">
        <ele>171.93209838867</ele>
        <time>2016-09-22T08:41:38.000Z</time>
      </trkpt>
      <trkpt lat="48.70863" lon="2.01218">
        <ele>172.13972473145</ele>
        <time>2016-09-22T08:41:40.000Z</time>
      </trkpt>
      <trkpt lat="48.70865" lon="2.01214">
        <ele>172.34548950195</ele>
        <time>2016-09-22T08:41:43.000Z</time>
      </trkpt>
      <trkpt lat="48.70865" lon="2.01209">
        <ele>172.52822875977</ele>
        <time>2016-09-22T08:41:45.000Z</time>
      </trkpt>
      <trkpt lat="48.70863" lon="2.01203">
        <ele>172.72579956055</ele>
        <time>2016-09-22T08:41:48.000Z</time>
      </trkpt>
      <trkpt lat="48.70863" lon="2.012">
        <ele>172.91877746582</ele>
        <time>2016-09-22T08:41:50.000Z</time>
      </trkpt>
      <trkpt lat="48.70864" lon="2.01197">
        <ele>173.12979125977</ele>
        <time>2016-09-22T08:41:52.000Z</time>
      </trkpt>
      <trkpt lat="48.70866" lon="2.01192">
        <ele>173.34646606445</ele>
        <time>2016-09-22T08:41:55.000Z</time>
      </trkpt>
      <trkpt lat="48.70866" lon="2.01188">
        <ele>173.55969238281</ele>
        <time>2016-09-22T08:41:57.000Z</time>
      </trkpt>
      <trkpt lat="48.70866" lon="2.0118">
        <ele>173.77975463867</ele>
        <time>2016-09-22T08:42:00.000Z</time>
      </trkpt>
      <trkpt lat="48.70868" lon="2.01176">
        <ele>174.00970458984</ele>
        <time>2016-09-22T08:42:03.000Z</time>
      </trkpt>
      <trkpt lat="48.7087" lon="2.01174">
        <ele>174.23324584961</ele>
        <time>2016-09-22T08:42:05.000Z</time>
      </trkpt>
      <trkpt lat="48.70873" lon="2.01171">
        <ele>174.43704223633</ele>
        <time>2016-09-22T08:42:08.000Z</time>
      </trkpt>
      <trkpt lat="48.70876" lon="2.01167">
        <ele>174.64709472656</ele>
        <time>2016-09-22T08:42:11.000Z</time>
      </trkpt>
      <trkpt lat="48.70878" lon="2.01163">
        <ele>174.79411315918</ele>
        <time>2016-09-22T08:42:14.000Z</time>
      </trkpt>
      <trkpt lat="48.70878" lon="2.01159">
        <ele>174.9089050293</ele>
        <time>2016-09-22T08:42:16.000Z</time>
      </trkpt>
      <trkpt lat="48.70877" lon="2.01152">
        <ele>175.01493835449</ele>
        <time>2016-09-22T08:42:19.000Z</time>
      </trkpt>
      <trkpt lat="48.70877" lon="2.01148">
        <ele>175.10824584961</ele>
        <time>2016-09-22T08:42:21.000Z</time>
      </trkpt>
      <trkpt lat="48.70878" lon="2.01141">
        <ele>175.17095947266</ele>
        <time>2016-09-22T08:42:24.000Z</time>
      </trkpt>
      <trkpt lat="48.70878" lon="2.01136">
        <ele>175.23428344727</ele>
        <time>2016-09-22T08:42:26.000Z</time>
      </trkpt>
      <trkpt lat="48.70878" lon="2.0113">
        <ele>175.30346679688</ele>
        <time>2016-09-22T08:42:29.000Z</time>
      </trkpt>
      <trkpt lat="48.70879" lon="2.01124">
        <ele>175.37231445312</ele>
        <time>2016-09-22T08:42:32.000Z</time>
      </trkpt>
      <trkpt lat="48.7088" lon="2.01117">
        <ele>175.44633483887</ele>
        <time>2016-09-22T08:42:35.000Z</time>
      </trkpt>
      <trkpt lat="48.70882" lon="2.01112">
        <ele>175.5153503418</ele>
        <time>2016-09-22T08:42:38.000Z</time>
      </trkpt>
      <trkpt lat="48.70884" lon="2.01108">
        <ele>175.58316040039</ele>
        <time>2016-09-22T08:42:40.000Z</time>
      </trkpt>
      <trkpt lat="48.70887" lon="2.01104">
        <ele>175.64443969727</ele>
        <time>2016-09-22T08:42:43.000Z</time>
      </trkpt>
      <trkpt lat="48.7089" lon="2.01101">
        <ele>175.69912719727</ele>
        <time>2016-09-22T08:42:46.000Z</time>
      </trkpt>
      <trkpt lat="48.70894" lon="2.01097">
        <ele>175.74612426758</ele>
        <time>2016-09-22T08:42:49.000Z</time>
      </trkpt>
      <trkpt lat="48.70897" lon="2.01093">
        <ele>175.7907409668</ele>
        <time>2016-09-22T08:42:52.000Z</time>
      </trkpt>
      <trkpt lat="48.70898" lon="2.01087">
        <ele>175.84178161621</ele>
        <time>2016-09-22T08:42:55.000Z</time>
      </trkpt>
      <trkpt lat="48.70899" lon="2.01082">
        <ele>175.89135742188</ele>
        <time>2016-09-22T08:42:57.000Z</time>
      </trkpt>
      <trkpt lat="48.70901" lon="2.01077">
        <ele>175.92785644531</ele>
        <time>2016-09-22T08:43:00.000Z</time>
      </trkpt>
      <trkpt lat="48.70903" lon="2.01072">
        <ele>175.95323181152</ele>
        <time>2016-09-22T08:43:03.000Z</time>
      </trkpt>
      <trkpt lat="48.70905" lon="2.01066">
        <ele>175.96452331543</ele>
        <time>2016-09-22T08:43:06.000Z</time>
      </trkpt>
      <trkpt lat="48.70905" lon="2.01061">
        <ele>175.95686340332</ele>
        <time>2016-09-22T08:43:08.000Z</time>
      </trkpt>
      <trkpt lat="48.70905" lon="2.01056">
        <ele>175.93856811523</ele>
        <time>2016-09-22T08:43:10.000Z</time>
      </trkpt>
      <trkpt lat="48.70905" lon="2.01049">
        <ele>175.91976928711</ele>
        <time>2016-09-22T08:43:13.000Z</time>
      </trkpt>
      <trkpt lat="48.70905" lon="2.01042">
        <ele>175.90058898926</ele>
        <time>2016-09-22T08:43:16.000Z</time>
      </trkpt>
      <trkpt lat="48.70906" lon="2.01038">
        <ele>175.88632202148</ele>
        <time>2016-09-22T08:43:18.000Z</time>
      </trkpt>
      <trkpt lat="48.70907" lon="2.01031">
        <ele>175.87411499023</ele>
        <time>2016-09-22T08:43:20.000Z</time>
      </trkpt>
      <trkpt lat="48.70908" lon="2.01027">
        <ele>175.86320495605</ele>
        <time>2016-09-22T08:43:22.000Z</time>
      </trkpt>
      <trkpt lat="48.70908" lon="2.01025">
        <ele>175.85900878906</ele>
        <time>2016-09-22T08:43:24.000Z</time>
      </trkpt>
      <trkpt lat="48.70909" lon="2.01023">
        <ele>175.86019897461</ele>
        <time>2016-09-22T08:43:27.000Z</time>
      </trkpt>
      <trkpt lat="48.7091" lon="2.0102">
        <ele>175.86198425293</ele>
        <time>2016-09-22T08:43:30.000Z</time>
      </trkpt>
      <trkpt lat="48.70913" lon="2.01017">
        <ele>175.87475585938</ele>
        <time>2016-09-22T08:43:33.000Z</time>
      </trkpt>
      <trkpt lat="48.70916" lon="2.01015">
        <ele>175.90214538574</ele>
        <time>2016-09-22T08:43:36.000Z</time>
      </trkpt>
      <trkpt lat="48.70919" lon="2.01013">
        <ele>175.92964172363</ele>
        <time>2016-09-22T08:43:38.000Z</time>
      </trkpt>
      <trkpt lat="48.70921" lon="2.01008">
        <ele>175.95510864258</ele>
        <time>2016-09-22T08:43:41.000Z</time>
      </trkpt>
      <trkpt lat="48.70922" lon="2.01003">
        <ele>175.97946166992</ele>
        <time>2016-09-22T08:43:43.000Z</time>
      </trkpt>
      <trkpt lat="48.70923" lon="2.00996">
        <ele>176.00190734863</ele>
        <time>2016-09-22T08:43:46.000Z</time>
      </trkpt>
      <trkpt lat="48.70923" lon="2.00989">
        <ele>176.0248260498</ele>
        <time>2016-09-22T08:43:49.000Z</time>
      </trkpt>
      <trkpt lat="48.70926" lon="2.00984">
        <ele>176.05046081543</ele>
        <time>2016-09-22T08:43:52.000Z</time>
      </trkpt>
      <trkpt lat="48.7093" lon="2.00979">
        <ele>176.07786560059</ele>
        <time>2016-09-22T08:43:55.000Z</time>
      </trkpt>
      <trkpt lat="48.70931" lon="2.00974">
        <ele>176.10865783691</ele>
        <time>2016-09-22T08:43:58.000Z</time>
      </trkpt>
      <trkpt lat="48.70932" lon="2.0097">
        <ele>176.1336517334</ele>
        <time>2016-09-22T08:44:00.000Z</time>
      </trkpt>
      <trkpt lat="48.70934" lon="2.00968">
        <ele>176.14326477051</ele>
        <time>2016-09-22T08:44:02.000Z</time>
      </trkpt>
      <trkpt lat="48.70935" lon="2.00964">
        <ele>176.1494140625</ele>
        <time>2016-09-22T08:44:04.000Z</time>
      </trkpt>
      <trkpt lat="48.70935" lon="2.00957">
        <ele>176.15757751465</ele>
        <time>2016-09-22T08:44:07.000Z</time>
      </trkpt>
      <trkpt lat="48.70935" lon="2.00953">
        <ele>176.16697692871</ele>
        <time>2016-09-22T08:44:09.000Z</time>
      </trkpt>
      <trkpt lat="48.70934" lon="2.00947">
        <ele>176.18295288086</ele>
        <time>2016-09-22T08:44:11.000Z</time>
      </trkpt>
      <trkpt lat="48.70932" lon="2.00938">
        <ele>176.22123718262</ele>
        <time>2016-09-22T08:44:14.000Z</time>
      </trkpt>
      <trkpt lat="48.70932" lon="2.00933">
        <ele>176.26370239258</ele>
        <time>2016-09-22T08:44:16.000Z</time>
      </trkpt>
      <trkpt lat="48.70933" lon="2.00928">
        <ele>176.30038452148</ele>
        <time>2016-09-22T08:44:19.000Z</time>
      </trkpt>
      <trkpt lat="48.70935" lon="2.00921">
        <ele>176.32191467285</ele>
        <time>2016-09-22T08:44:22.000Z</time>
      </trkpt>
      <trkpt lat="48.70937" lon="2.00917">
        <ele>176.32344055176</ele>
        <time>2016-09-22T08:44:24.000Z</time>
      </trkpt>
      <trkpt lat="48.70939" lon="2.00913">
        <ele>176.27880859375</ele>
        <time>2016-09-22T08:44:27.000Z</time>
      </trkpt>
      <trkpt lat="48.70941" lon="2.0091">
        <ele>176.20420837402</ele>
        <time>2016-09-22T08:44:30.000Z</time>
      </trkpt>
      <trkpt lat="48.70943" lon="2.00907">
        <ele>176.10238647461</ele>
        <time>2016-09-22T08:44:32.000Z</time>
      </trkpt>
      <trkpt lat="48.70945" lon="2.00904">
        <ele>175.98765563965</ele>
        <time>2016-09-22T08:44:34.000Z</time>
      </trkpt>
      <trkpt lat="48.70946" lon="2.009">
        <ele>175.86213684082</ele>
        <time>2016-09-22T08:44:37.000Z</time>
      </trkpt>
      <trkpt lat="48.70947" lon="2.00896">
        <ele>175.73165893555</ele>
        <time>2016-09-22T08:44:39.000Z</time>
      </trkpt>
      <trkpt lat="48.7095" lon="2.0089">
        <ele>175.57598876953</ele>
        <time>2016-09-22T08:44:42.000Z</time>
      </trkpt>
      <trkpt lat="48.70952" lon="2.00886">
        <ele>175.42001342773</ele>
        <time>2016-09-22T08:44:44.000Z</time>
      </trkpt>
      <trkpt lat="48.70953" lon="2.00883">
        <ele>175.26278686523</ele>
        <time>2016-09-22T08:44:46.000Z</time>
      </trkpt>
      <trkpt lat="48.70955" lon="2.00878">
        <ele>175.08267211914</ele>
        <time>2016-09-22T08:44:49.000Z</time>
      </trkpt>
      <trkpt lat="48.70955" lon="2.00874">
        <ele>174.92268371582</ele>
        <time>2016-09-22T08:44:51.000Z</time>
      </trkpt>
      <trkpt lat="48.70955" lon="2.00869">
        <ele>174.78358459473</ele>
        <time>2016-09-22T08:44:54.000Z</time>
      </trkpt>
      <trkpt lat="48.70956" lon="2.00862">
        <ele>174.63153076172</ele>
        <time>2016-09-22T08:44:57.000Z</time>
      </trkpt>
      <trkpt lat="48.70957" lon="2.00856">
        <ele>174.46745300293</ele>
        <time>2016-09-22T08:45:00.000Z</time>
      </trkpt>
      <trkpt lat="48.70958" lon="2.00852">
        <ele>174.32162475586</ele>
        <time>2016-09-22T08:45:02.000Z</time>
      </trkpt>
      <trkpt lat="48.70961" lon="2.00845">
        <ele>174.1190032959</ele>
        <time>2016-09-22T08:45:05.000Z</time>
      </trkpt>
      <trkpt lat="48.70961" lon="2.00841">
        <ele>173.91679382324</ele>
        <time>2016-09-22T08:45:07.000Z</time>
      </trkpt>
      <trkpt lat="48.70963" lon="2.00836">
        <ele>173.71636962891</ele>
        <time>2016-09-22T08:45:10.000Z</time>
      </trkpt>
      <trkpt lat="48.70963" lon="2.00831">
        <ele>173.53234863281</ele>
        <time>2016-09-22T08:45:12.000Z</time>
      </trkpt>
      <trkpt lat="48.70964" lon="2.00825">
        <ele>173.34745788574</ele>
        <time>2016-09-22T08:45:14.000Z</time>
      </trkpt>
      <trkpt lat="48.70966" lon="2.00822">
        <ele>173.19787597656</ele>
        <time>2016-09-22T08:45:16.000Z</time>
      </trkpt>
      <trkpt lat="48.70968" lon="2.00818">
        <ele>173.03828430176</ele>
        <time>2016-09-22T08:45:19.000Z</time>
      </trkpt>
      <trkpt lat="48.70969" lon="2.00813">
        <ele>172.90216064453</ele>
        <time>2016-09-22T08:45:22.000Z</time>
      </trkpt>
      <trkpt lat="48.7097" lon="2.00809">
        <ele>172.76635742188</ele>
        <time>2016-09-22T08:45:24.000Z</time>
      </trkpt>
      <trkpt lat="48.70972" lon="2.00805">
        <ele>172.62414550781</ele>
        <time>2016-09-22T08:45:27.000Z</time>
      </trkpt>
      <trkpt lat="48.70973" lon="2.00798">
        <ele>172.47982788086</ele>
        <time>2016-09-22T08:45:30.000Z</time>
      </trkpt>
      <trkpt lat="48.70974" lon="2.00794">
        <ele>172.35452270508</ele>
        <time>2016-09-22T08:45:32.000Z</time>
      </trkpt>
      <trkpt lat="48.70977" lon="2.00789">
        <ele>172.20425415039</ele>
        <time>2016-09-22T08:45:35.000Z</time>
      </trkpt>
      <trkpt lat="48.70978" lon="2.00785">
        <ele>172.04965209961</ele>
        <time>2016-09-22T08:45:37.000Z</time>
      </trkpt>
      <trkpt lat="48.70979" lon="2.00782">
        <ele>171.90194702148</ele>
        <time>2016-09-22T08:45:39.000Z</time>
      </trkpt>
      <trkpt lat="48.70982" lon="2.00778">
        <ele>171.75595092773</ele>
        <time>2016-09-22T08:45:42.000Z</time>
      </trkpt>
      <trkpt lat="48.70982" lon="2.00773">
        <ele>171.6130065918</ele>
        <time>2016-09-22T08:45:45.000Z</time>
      </trkpt>
      <trkpt lat="48.70984" lon="2.00768">
        <ele>171.48043823242</ele>
        <time>2016-09-22T08:45:48.000Z</time>
      </trkpt>
      <trkpt lat="48.70986" lon="2.00764">
        <ele>171.33242797852</ele>
        <time>2016-09-22T08:45:51.000Z</time>
      </trkpt>
      <trkpt lat="48.70988" lon="2.00762">
        <ele>171.18780517578</ele>
        <time>2016-09-22T08:45:53.000Z</time>
      </trkpt>
      <trkpt lat="48.70988" lon="2.00759">
        <ele>171.05969238281</ele>
        <time>2016-09-22T08:45:55.000Z</time>
      </trkpt>
      <trkpt lat="48.70988" lon="2.00757">
        <ele>170.94171142578</ele>
        <time>2016-09-22T08:45:57.000Z</time>
      </trkpt>
      <trkpt lat="48.70988" lon="2.00753">
        <ele>170.85189819336</ele>
        <time>2016-09-22T08:46:00.000Z</time>
      </trkpt>
      <trkpt lat="48.70989" lon="2.00751">
        <ele>170.78527832031</ele>
        <time>2016-09-22T08:46:02.000Z</time>
      </trkpt>
      <trkpt lat="48.70991" lon="2.00745">
        <ele>170.69413757324</ele>
        <time>2016-09-22T08:46:05.000Z</time>
      </trkpt>
      <trkpt lat="48.70993" lon="2.00739">
        <ele>170.56930541992</ele>
        <time>2016-09-22T08:46:08.000Z</time>
      </trkpt>
      <trkpt lat="48.70994" lon="2.00735">
        <ele>170.4189453125</ele>
        <time>2016-09-22T08:46:10.000Z</time>
      </trkpt>
      <trkpt lat="48.70995" lon="2.00733">
        <ele>170.2559967041</ele>
        <time>2016-09-22T08:46:12.000Z</time>
      </trkpt>
      <trkpt lat="48.70995" lon="2.00729">
        <ele>170.09172058105</ele>
        <time>2016-09-22T08:46:15.000Z</time>
      </trkpt>
      <trkpt lat="48.70995" lon="2.00725">
        <ele>169.95486450195</ele>
        <time>2016-09-22T08:46:17.000Z</time>
      </trkpt>
      <trkpt lat="48.70994" lon="2.00722">
        <ele>169.86473083496</ele>
        <time>2016-09-22T08:46:20.000Z</time>
      </trkpt>
      <trkpt lat="48.70992" lon="2.00721">
        <ele>169.8231048584</ele>
        <time>2016-09-22T08:46:22.000Z</time>
      </trkpt>
      <trkpt lat="48.70991" lon="2.0072">
        <ele>169.81632995605</ele>
        <time>2016-09-22T08:46:24.000Z</time>
      </trkpt>
      <trkpt lat="48.70989" lon="2.00719">
        <ele>169.85040283203</ele>
        <time>2016-09-22T08:46:27.000Z</time>
      </trkpt>
      <trkpt lat="48.70988" lon="2.00717">
        <ele>169.90951538086</ele>
        <time>2016-09-22T08:46:30.000Z</time>
      </trkpt>
      <trkpt lat="48.70985" lon="2.00715">
        <ele>170.00448608398</ele>
        <time>2016-09-22T08:46:33.000Z</time>
      </trkpt>
      <trkpt lat="48.70982" lon="2.00713">
        <ele>170.11280822754</ele>
        <time>2016-09-22T08:46:36.000Z</time>
      </trkpt>
      <trkpt lat="48.70981" lon="2.00711">
        <ele>170.21298217773</ele>
        <time>2016-09-22T08:46:38.000Z</time>
      </trkpt>
      <trkpt lat="48.7098" lon="2.00708">
        <ele>170.28994750977</ele>
        <time>2016-09-22T08:46:41.000Z</time>
      </trkpt>
      <trkpt lat="48.70979" lon="2.00705">
        <ele>170.36451721191</ele>
        <time>2016-09-22T08:46:44.000Z</time>
      </trkpt>
      <trkpt lat="48.70979" lon="2.00703">
        <ele>170.40707397461</ele>
        <time>2016-09-22T08:46:46.000Z</time>
      </trkpt>
      <trkpt lat="48.70979" lon="2.00701">
        <ele>170.41242980957</ele>
        <time>2016-09-22T08:46:49.000Z</time>
      </trkpt>
      <trkpt lat="48.70975" lon="2.00699">
        <ele>170.46081542969</ele>
        <time>2016-09-22T08:46:52.000Z</time>
      </trkpt>
      <trkpt lat="48.70974" lon="2.00698">
        <ele>170.5153503418</ele>
        <time>2016-09-22T08:46:54.000Z</time>
      </trkpt>
      <trkpt lat="48.7097" lon="2.00695">
        <ele>170.62106323242</ele>
        <time>2016-09-22T08:46:57.000Z</time>
      </trkpt>
      <trkpt lat="48.70967" lon="2.00693">
        <ele>170.77041625977</ele>
        <time>2016-09-22T08:46:59.000Z</time>
      </trkpt>
      <trkpt lat="48.70964" lon="2.0069">
        <ele>170.96778869629</ele>
        <time>2016-09-22T08:47:02.000Z</time>
      </trkpt>
      <trkpt lat="48.70961" lon="2.00687">
        <ele>171.13491821289</ele>
        <time>2016-09-22T08:47:04.000Z</time>
      </trkpt>
      <trkpt lat="48.7096" lon="2.00683">
        <ele>171.31280517578</ele>
        <time>2016-09-22T08:47:06.000Z</time>
      </trkpt>
      <trkpt lat="48.70958" lon="2.00679">
        <ele>171.45938110352</ele>
        <time>2016-09-22T08:47:09.000Z</time>
      </trkpt>
      <trkpt lat="48.70954" lon="2.00676">
        <ele>171.62130737305</ele>
        <time>2016-09-22T08:47:12.000Z</time>
      </trkpt>
      <trkpt lat="48.70951" lon="2.00673">
        <ele>171.78370666504</ele>
        <time>2016-09-22T08:47:15.000Z</time>
      </trkpt>
      <trkpt lat="48.7095" lon="2.00672">
        <ele>171.93998718262</ele>
        <time>2016-09-22T08:47:18.000Z</time>
      </trkpt>
      <trkpt lat="48.70947" lon="2.00668">
        <ele>172.12673950195</ele>
        <time>2016-09-22T08:47:20.000Z</time>
      </trkpt>
      <trkpt lat="48.70943" lon="2.00666">
        <ele>172.33734130859</ele>
        <time>2016-09-22T08:47:22.000Z</time>
      </trkpt>
      <trkpt lat="48.70939" lon="2.0066">
        <ele>172.57080078125</ele>
        <time>2016-09-22T08:47:25.000Z</time>
      </trkpt>
      <trkpt lat="48.70935" lon="2.00654">
        <ele>172.82455444336</ele>
        <time>2016-09-22T08:47:27.000Z</time>
      </trkpt>
      <trkpt lat="48.7093" lon="2.00648">
        <ele>173.14315795898</ele>
        <time>2016-09-22T08:47:30.000Z</time>
      </trkpt>
      <trkpt lat="48.70929" lon="2.00642">
        <ele>173.4345703125</ele>
        <time>2016-09-22T08:47:33.000Z</time>
      </trkpt>
      <trkpt lat="48.70928" lon="2.00634">
        <ele>173.701171875</ele>
        <time>2016-09-22T08:47:36.000Z</time>
      </trkpt>
      <trkpt lat="48.70926" lon="2.00626">
        <ele>173.9130859375</ele>
        <time>2016-09-22T08:47:39.000Z</time>
      </trkpt>
      <trkpt lat="48.70922" lon="2.00618">
        <ele>174.125</ele>
        <time>2016-09-22T08:47:42.000Z</time>
      </trkpt>
      <trkpt lat="48.70922" lon="2.00612">
        <ele>174.2685546875</ele>
        <time>2016-09-22T08:47:45.000Z</time>
      </trkpt>
      <trkpt lat="48.70922" lon="2.00608">
        <ele>174.3779296875</ele>
        <time>2016-09-22T08:47:47.000Z</time>
      </trkpt>
      <trkpt lat="48.70924" lon="2.00605">
        <ele>174.439453125</ele>
        <time>2016-09-22T08:47:50.000Z</time>
      </trkpt>
      <trkpt lat="48.70926" lon="2.00604">
        <ele>174.4462890625</ele>
        <time>2016-09-22T08:47:52.000Z</time>
      </trkpt>
      <trkpt lat="48.70926" lon="2.00602">
        <ele>174.3916015625</ele>
        <time>2016-09-22T08:47:55.000Z</time>
      </trkpt>
      <trkpt lat="48.70925" lon="2.00601">
        <ele>174.3369140625</ele>
        <time>2016-09-22T08:47:57.000Z</time>
      </trkpt>
      <trkpt lat="48.70923" lon="2.00598">
        <ele>174.3232421875</ele>
        <time>2016-09-22T08:47:59.000Z</time>
      </trkpt>
      <trkpt lat="48.70921" lon="2.00596">
        <ele>174.37109375</ele>
        <time>2016-09-22T08:48:01.000Z</time>
      </trkpt>
      <trkpt lat="48.70922" lon="2.00594">
        <ele>174.439453125</ele>
        <time>2016-09-22T08:48:04.000Z</time>
      </trkpt>
      <trkpt lat="48.70922" lon="2.00593">
        <ele>174.494140625</ele>
        <time>2016-09-22T08:48:06.000Z</time>
      </trkpt>
      <trkpt lat="48.70919" lon="2.00589">
        <ele>174.58984375</ele>
        <time>2016-09-22T08:48:20.000Z</time>
      </trkpt>
      <trkpt lat="48.70917" lon="2.00585">
        <ele>174.69921875</ele>
        <time>2016-09-22T08:48:22.000Z</time>
      </trkpt>
      <trkpt lat="48.70914" lon="2.00581">
        <ele>174.75675964355</ele>
        <time>2016-09-22T08:48:25.000Z</time>
      </trkpt>
      <trkpt lat="48.70911" lon="2.00578">
        <ele>174.80305480957</ele>
        <time>2016-09-22T08:48:27.000Z</time>
      </trkpt>
      <trkpt lat="48.70911" lon="2.00575">
        <ele>174.85171508789</ele>
        <time>2016-09-22T08:48:29.000Z</time>
      </trkpt>
      <trkpt lat="48.7091" lon="2.00569">
        <ele>174.83206176758</ele>
        <time>2016-09-22T08:48:32.000Z</time>
      </trkpt>
      <trkpt lat="48.70952" lon="2.00589">
        <ele>174.23733520508</ele>
        <time>2016-09-22T08:54:49.000Z</time>
      </trkpt>
      <trkpt lat="48.70905" lon="2.00552">
        <ele>174.1353302002</ele>
        <time>2016-09-22T08:54:56.000Z</time>
      </trkpt>
      <trkpt lat="48.70903" lon="2.00556">
        <ele>174.05249023438</ele>
        <time>2016-09-22T08:55:01.000Z</time>
      </trkpt>
      <trkpt lat="48.709" lon="2.00552">
        <ele>173.96096801758</ele>
        <time>2016-09-22T08:55:02.000Z</time>
      </trkpt>
      <trkpt lat="48.70898" lon="2.00551">
        <ele>173.87236022949</ele>
        <time>2016-09-22T08:55:04.000Z</time>
      </trkpt>
      <trkpt lat="48.70897" lon="2.00547">
        <ele>174.30780029297</ele>
        <time>2016-09-22T08:55:07.000Z</time>
      </trkpt>
      <trkpt lat="48.70896" lon="2.00535">
        <ele>174.24253845215</ele>
        <time>2016-09-22T08:55:10.000Z</time>
      </trkpt>
      <trkpt lat="48.70896" lon="2.00529">
        <ele>174.16310119629</ele>
        <time>2016-09-22T08:55:13.000Z</time>
      </trkpt>
      <trkpt lat="48.70895" lon="2.00525">
        <ele>174.09629821777</ele>
        <time>2016-09-22T08:55:15.000Z</time>
      </trkpt>
      <trkpt lat="48.70893" lon="2.00518">
        <ele>174.02206420898</ele>
        <time>2016-09-22T08:55:18.000Z</time>
      </trkpt>
      <trkpt lat="48.7089" lon="2.0051">
        <ele>173.93449401855</ele>
        <time>2016-09-22T08:55:21.000Z</time>
      </trkpt>
      <trkpt lat="48.7089" lon="2.00506">
        <ele>173.86555480957</ele>
        <time>2016-09-22T08:55:23.000Z</time>
      </trkpt>
      <trkpt lat="48.7089" lon="2.00501">
        <ele>173.80406188965</ele>
        <time>2016-09-22T08:55:26.000Z</time>
      </trkpt>
      <trkpt lat="48.70888" lon="2.00498">
        <ele>173.73315429688</ele>
        <time>2016-09-22T08:55:29.000Z</time>
      </trkpt>
      <trkpt lat="48.70887" lon="2.00493">
        <ele>173.64767456055</ele>
        <time>2016-09-22T08:55:31.000Z</time>
      </trkpt>
      <trkpt lat="48.70887" lon="2.00488">
        <ele>173.55433654785</ele>
        <time>2016-09-22T08:55:33.000Z</time>
      </trkpt>
      <trkpt lat="48.70886" lon="2.00484">
        <ele>173.44470214844</ele>
        <time>2016-09-22T08:55:36.000Z</time>
      </trkpt>
      <trkpt lat="48.70884" lon="2.00478">
        <ele>173.29751586914</ele>
        <time>2016-09-22T08:55:39.000Z</time>
      </trkpt>
      <trkpt lat="48.70883" lon="2.00476">
        <ele>173.1552734375</ele>
        <time>2016-09-22T08:55:41.000Z</time>
      </trkpt>
      <trkpt lat="48.70885" lon="2.00472">
        <ele>173.0266418457</ele>
        <time>2016-09-22T08:55:44.000Z</time>
      </trkpt>
      <trkpt lat="48.70885" lon="2.00466">
        <ele>172.90029907227</ele>
        <time>2016-09-22T08:55:47.000Z</time>
      </trkpt>
      <trkpt lat="48.70886" lon="2.00464">
        <ele>172.78732299805</ele>
        <time>2016-09-22T08:55:49.000Z</time>
      </trkpt>
      <trkpt lat="48.70885" lon="2.00457">
        <ele>172.67623901367</ele>
        <time>2016-09-22T08:55:52.000Z</time>
      </trkpt>
      <trkpt lat="48.70885" lon="2.00451">
        <ele>172.53625488281</ele>
        <time>2016-09-22T08:55:55.000Z</time>
      </trkpt>
      <trkpt lat="48.70884" lon="2.00446">
        <ele>172.38711547852</ele>
        <time>2016-09-22T08:55:57.000Z</time>
      </trkpt>
      <trkpt lat="48.70885" lon="2.0044">
        <ele>172.2381439209</ele>
        <time>2016-09-22T08:55:59.000Z</time>
      </trkpt>
      <trkpt lat="48.70885" lon="2.00433">
        <ele>172.05628967285</ele>
        <time>2016-09-22T08:56:02.000Z</time>
      </trkpt>
      <trkpt lat="48.70884" lon="2.00427">
        <ele>171.87850952148</ele>
        <time>2016-09-22T08:56:05.000Z</time>
      </trkpt>
      <trkpt lat="48.70884" lon="2.00421">
        <ele>171.70805358887</ele>
        <time>2016-09-22T08:56:08.000Z</time>
      </trkpt>
      <trkpt lat="48.70885" lon="2.00417">
        <ele>171.54512023926</ele>
        <time>2016-09-22T08:56:11.000Z</time>
      </trkpt>
      <trkpt lat="48.70884" lon="2.00415">
        <ele>171.40103149414</ele>
        <time>2016-09-22T08:56:13.000Z</time>
      </trkpt>
      <trkpt lat="48.70882" lon="2.0041">
        <ele>171.28131103516</ele>
        <time>2016-09-22T08:56:16.000Z</time>
      </trkpt>
      <trkpt lat="48.70882" lon="2.00404">
        <ele>171.1828918457</ele>
        <time>2016-09-22T08:56:19.000Z</time>
      </trkpt>
      <trkpt lat="48.70881" lon="2.00399">
        <ele>171.10110473633</ele>
        <time>2016-09-22T08:56:22.000Z</time>
      </trkpt>
      <trkpt lat="48.70883" lon="2.00394">
        <ele>171.03579711914</ele>
        <time>2016-09-22T08:56:25.000Z</time>
      </trkpt>
      <trkpt lat="48.70884" lon="2.00388">
        <ele>170.97091674805</ele>
        <time>2016-09-22T08:56:28.000Z</time>
      </trkpt>
      <trkpt lat="48.70884" lon="2.00384">
        <ele>170.9137878418</ele>
        <time>2016-09-22T08:56:31.000Z</time>
      </trkpt>
      <trkpt lat="48.70884" lon="2.00379">
        <ele>170.86038208008</ele>
        <time>2016-09-22T08:56:34.000Z</time>
      </trkpt>
      <trkpt lat="48.70884" lon="2.00375">
        <ele>170.81460571289</ele>
        <time>2016-09-22T08:56:37.000Z</time>
      </trkpt>
      <trkpt lat="48.70885" lon="2.0037">
        <ele>170.76806640625</ele>
        <time>2016-09-22T08:56:40.000Z</time>
      </trkpt>
      <trkpt lat="48.70889" lon="2.00365">
        <ele>170.73904418945</ele>
        <time>2016-09-22T08:56:43.000Z</time>
      </trkpt>
      <trkpt lat="48.70892" lon="2.00359">
        <ele>170.71743774414</ele>
        <time>2016-09-22T08:56:46.000Z</time>
      </trkpt>
      <trkpt lat="48.70893" lon="2.00355">
        <ele>170.70272827148</ele>
        <time>2016-09-22T08:56:48.000Z</time>
      </trkpt>
      <trkpt lat="48.70893" lon="2.00352">
        <ele>170.69204711914</ele>
        <time>2016-09-22T08:56:50.000Z</time>
      </trkpt>
      <trkpt lat="48.70894" lon="2.00349">
        <ele>170.68322753906</ele>
        <time>2016-09-22T08:56:52.000Z</time>
      </trkpt>
      <trkpt lat="48.70896" lon="2.00342">
        <ele>170.65805053711</ele>
        <time>2016-09-22T08:56:55.000Z</time>
      </trkpt>
      <trkpt lat="48.70896" lon="2.00338">
        <ele>170.6262512207</ele>
        <time>2016-09-22T08:56:57.000Z</time>
      </trkpt>
      <trkpt lat="48.70897" lon="2.00333">
        <ele>170.59497070312</ele>
        <time>2016-09-22T08:57:00.000Z</time>
      </trkpt>
      <trkpt lat="48.70898" lon="2.00329">
        <ele>170.58369445801</ele>
        <time>2016-09-22T08:57:03.000Z</time>
      </trkpt>
      <trkpt lat="48.70897" lon="2.00326">
        <ele>170.57682800293</ele>
        <time>2016-09-22T08:57:05.000Z</time>
      </trkpt>
      <trkpt lat="48.70895" lon="2.00323">
        <ele>170.57740783691</ele>
        <time>2016-09-22T08:57:08.000Z</time>
      </trkpt>
      <trkpt lat="48.70895" lon="2.0032">
        <ele>170.59443664551</ele>
        <time>2016-09-22T08:57:10.000Z</time>
      </trkpt>
      <trkpt lat="48.70895" lon="2.00318">
        <ele>170.62197875977</ele>
        <time>2016-09-22T08:57:12.000Z</time>
      </trkpt>
      <trkpt lat="48.70896" lon="2.00314">
        <ele>170.64672851562</ele>
        <time>2016-09-22T08:57:15.000Z</time>
      </trkpt>
      <trkpt lat="48.70898" lon="2.00308">
        <ele>170.69802856445</ele>
        <time>2016-09-22T08:57:18.000Z</time>
      </trkpt>
      <trkpt lat="48.70901" lon="2.00303">
        <ele>170.77401733398</ele>
        <time>2016-09-22T08:57:21.000Z</time>
      </trkpt>
      <trkpt lat="48.70903" lon="2.00297">
        <ele>170.86871337891</ele>
        <time>2016-09-22T08:57:24.000Z</time>
      </trkpt>
      <trkpt lat="48.70904" lon="2.00289">
        <ele>170.98159790039</ele>
        <time>2016-09-22T08:57:27.000Z</time>
      </trkpt>
      <trkpt lat="48.70905" lon="2.00287">
        <ele>171.0947265625</ele>
        <time>2016-09-22T08:57:29.000Z</time>
      </trkpt>
      <trkpt lat="48.70905" lon="2.00283">
        <ele>171.18542480469</ele>
        <time>2016-09-22T08:57:31.000Z</time>
      </trkpt>
      <trkpt lat="48.70904" lon="2.0028">
        <ele>171.25573730469</ele>
        <time>2016-09-22T08:57:34.000Z</time>
      </trkpt>
      <trkpt lat="48.70904" lon="2.00274">
        <ele>171.31326293945</ele>
        <time>2016-09-22T08:57:37.000Z</time>
      </trkpt>
      <trkpt lat="48.70905" lon="2.00269">
        <ele>171.36730957031</ele>
        <time>2016-09-22T08:57:40.000Z</time>
      </trkpt>
      <trkpt lat="48.70909" lon="2.00264">
        <ele>171.43626403809</ele>
        <time>2016-09-22T08:57:43.000Z</time>
      </trkpt>
      <trkpt lat="48.70913" lon="2.0026">
        <ele>171.53067016602</ele>
        <time>2016-09-22T08:57:46.000Z</time>
      </trkpt>
      <trkpt lat="48.70914" lon="2.00257">
        <ele>171.63516235352</ele>
        <time>2016-09-22T08:57:48.000Z</time>
      </trkpt>
      <trkpt lat="48.70918" lon="2.00254">
        <ele>171.75012207031</ele>
        <time>2016-09-22T08:57:51.000Z</time>
      </trkpt>
      <trkpt lat="48.7092" lon="2.0025">
        <ele>171.85743713379</ele>
        <time>2016-09-22T08:57:53.000Z</time>
      </trkpt>
      <trkpt lat="48.70921" lon="2.00245">
        <ele>171.94204711914</ele>
        <time>2016-09-22T08:57:55.000Z</time>
      </trkpt>
      <trkpt lat="48.70921" lon="2.00238">
        <ele>171.99673461914</ele>
        <time>2016-09-22T08:57:58.000Z</time>
      </trkpt>
      <trkpt lat="48.70921" lon="2.00236">
        <ele>172.0358581543</ele>
        <time>2016-09-22T08:58:00.000Z</time>
      </trkpt>
      <trkpt lat="48.70921" lon="2.00233">
        <ele>172.05354309082</ele>
        <time>2016-09-22T08:58:02.000Z</time>
      </trkpt>
      <trkpt lat="48.70923" lon="2.00229">
        <ele>172.0651550293</ele>
        <time>2016-09-22T08:58:05.000Z</time>
      </trkpt>
      <trkpt lat="48.70924" lon="2.0022">
        <ele>172.07897949219</ele>
        <time>2016-09-22T08:58:08.000Z</time>
      </trkpt>
      <trkpt lat="48.70926" lon="2.00216">
        <ele>172.09841918945</ele>
        <time>2016-09-22T08:58:10.000Z</time>
      </trkpt>
      <trkpt lat="48.70929" lon="2.00211">
        <ele>172.13137817383</ele>
        <time>2016-09-22T08:58:13.000Z</time>
      </trkpt>
      <trkpt lat="48.70928" lon="2.00206">
        <ele>172.16007995605</ele>
        <time>2016-09-22T08:58:16.000Z</time>
      </trkpt>
      <trkpt lat="48.70926" lon="2.00202">
        <ele>172.17707824707</ele>
        <time>2016-09-22T08:58:18.000Z</time>
      </trkpt>
      <trkpt lat="48.70926" lon="2.00196">
        <ele>172.18898010254</ele>
        <time>2016-09-22T08:58:21.000Z</time>
      </trkpt>
      <trkpt lat="48.70927" lon="2.00193">
        <ele>172.19692993164</ele>
        <time>2016-09-22T08:58:23.000Z</time>
      </trkpt>
      <trkpt lat="48.70928" lon="2.0019">
        <ele>172.19914245605</ele>
        <time>2016-09-22T08:58:25.000Z</time>
      </trkpt>
      <trkpt lat="48.70931" lon="2.00184">
        <ele>172.21989440918</ele>
        <time>2016-09-22T08:58:28.000Z</time>
      </trkpt>
      <trkpt lat="48.70932" lon="2.0018">
        <ele>172.25302124023</ele>
        <time>2016-09-22T08:58:30.000Z</time>
      </trkpt>
      <trkpt lat="48.70934" lon="2.00175">
        <ele>172.2940826416</ele>
        <time>2016-09-22T08:58:32.000Z</time>
      </trkpt>
      <trkpt lat="48.70937" lon="2.00168">
        <ele>172.35173034668</ele>
        <time>2016-09-22T08:58:35.000Z</time>
      </trkpt>
      <trkpt lat="48.70939" lon="2.00165">
        <ele>172.42172241211</ele>
        <time>2016-09-22T08:58:37.000Z</time>
      </trkpt>
      <trkpt lat="48.7094" lon="2.00163">
        <ele>172.49446105957</ele>
        <time>2016-09-22T08:58:40.000Z</time>
      </trkpt>
      <trkpt lat="48.7094" lon="2.00161">
        <ele>172.57095336914</ele>
        <time>2016-09-22T08:58:43.000Z</time>
      </trkpt>
      <trkpt lat="48.70942" lon="2.0016">
        <ele>172.65270996094</ele>
        <time>2016-09-22T08:58:46.000Z</time>
      </trkpt>
      <trkpt lat="48.70946" lon="2.00161">
        <ele>172.72634887695</ele>
        <time>2016-09-22T08:58:49.000Z</time>
      </trkpt>
      <trkpt lat="48.70947" lon="2.0016">
        <ele>172.79444885254</ele>
        <time>2016-09-22T08:58:52.000Z</time>
      </trkpt>
      <trkpt lat="48.70947" lon="2.00153">
        <ele>172.88168334961</ele>
        <time>2016-09-22T08:58:55.000Z</time>
      </trkpt>
      <trkpt lat="48.70948" lon="2.00149">
        <ele>172.98422241211</ele>
        <time>2016-09-22T08:58:57.000Z</time>
      </trkpt>
      <trkpt lat="48.7095" lon="2.00146">
        <ele>173.09146118164</ele>
        <time>2016-09-22T08:58:59.000Z</time>
      </trkpt>
      <trkpt lat="48.70947" lon="2.00144">
        <ele>173.18910217285</ele>
        <time>2016-09-22T08:59:02.000Z</time>
      </trkpt>
      <trkpt lat="48.70944" lon="2.00148">
        <ele>173.24125671387</ele>
        <time>2016-09-22T08:59:04.000Z</time>
      </trkpt>
      <trkpt lat="48.70942" lon="2.00153">
        <ele>173.22152709961</ele>
        <time>2016-09-22T08:59:06.000Z</time>
      </trkpt>
      <trkpt lat="48.70939" lon="2.00154">
        <ele>173.15780639648</ele>
        <time>2016-09-22T08:59:09.000Z</time>
      </trkpt>
      <trkpt lat="48.70935" lon="2.00155">
        <ele>173.05323791504</ele>
        <time>2016-09-22T08:59:12.000Z</time>
      </trkpt>
      <trkpt lat="48.70929" lon="2.00157">
        <ele>172.90742492676</ele>
        <time>2016-09-22T08:59:15.000Z</time>
      </trkpt>
      <trkpt lat="48.70922" lon="2.00163">
        <ele>172.72035217285</ele>
        <time>2016-09-22T08:59:18.000Z</time>
      </trkpt>
      <trkpt lat="48.70918" lon="2.00162">
        <ele>172.55981445312</ele>
        <time>2016-09-22T08:59:21.000Z</time>
      </trkpt>
      <trkpt lat="48.70916" lon="2.00162">
        <ele>172.40534973145</ele>
        <time>2016-09-22T08:59:24.000Z</time>
      </trkpt>
      <trkpt lat="48.70914" lon="2.00163">
        <ele>172.24447631836</ele>
        <time>2016-09-22T08:59:26.000Z</time>
      </trkpt>
      <trkpt lat="48.70914" lon="2.00162">
        <ele>172.13188171387</ele>
        <time>2016-09-22T08:59:29.000Z</time>
      </trkpt>
      <trkpt lat="48.70912" lon="2.00162">
        <ele>172.07997131348</ele>
        <time>2016-09-22T08:59:35.000Z</time>
      </trkpt>
      <trkpt lat="48.70906" lon="2.00165">
        <ele>171.96755981445</ele>
        <time>2016-09-22T08:59:38.000Z</time>
      </trkpt>
      <trkpt lat="48.70903" lon="2.00166">
        <ele>171.84051513672</ele>
        <time>2016-09-22T08:59:41.000Z</time>
      </trkpt>
      <trkpt lat="48.70901" lon="2.00164">
        <ele>171.74319458008</ele>
        <time>2016-09-22T08:59:44.000Z</time>
      </trkpt>
      <trkpt lat="48.70899" lon="2.0016">
        <ele>171.63757324219</ele>
        <time>2016-09-22T08:59:47.000Z</time>
      </trkpt>
      <trkpt lat="48.70895" lon="2.00159">
        <ele>171.52018737793</ele>
        <time>2016-09-22T08:59:49.000Z</time>
      </trkpt>
      <trkpt lat="48.70892" lon="2.00158">
        <ele>171.4508972168</ele>
        <time>2016-09-22T08:59:51.000Z</time>
      </trkpt>
      <trkpt lat="48.70891" lon="2.00152">
        <ele>171.42333984375</ele>
        <time>2016-09-22T08:59:54.000Z</time>
      </trkpt>
      <trkpt lat="48.7089" lon="2.00151">
        <ele>171.38754272461</ele>
        <time>2016-09-22T08:59:56.000Z</time>
      </trkpt>
      <trkpt lat="48.70887" lon="2.0015">
        <ele>171.33666992188</ele>
        <time>2016-09-22T08:59:58.000Z</time>
      </trkpt>
      <trkpt lat="48.70885" lon="2.00147">
        <ele>171.30352783203</ele>
        <time>2016-09-22T09:00:01.000Z</time>
      </trkpt>
      <trkpt lat="48.70887" lon="2.00146">
        <ele>171.30661010742</ele>
        <time>2016-09-22T09:00:04.000Z</time>
      </trkpt>
      <trkpt lat="48.70885" lon="2.00143">
        <ele>171.28897094727</ele>
        <time>2016-09-22T09:00:06.000Z</time>
      </trkpt>
      <trkpt lat="48.70882" lon="2.00141">
        <ele>171.25776672363</ele>
        <time>2016-09-22T09:00:08.000Z</time>
      </trkpt>
      <trkpt lat="48.70878" lon="2.00137">
        <ele>171.20458984375</ele>
        <time>2016-09-22T09:00:11.000Z</time>
      </trkpt>
      <trkpt lat="48.70876" lon="2.00131">
        <ele>171.16076660156</ele>
        <time>2016-09-22T09:00:13.000Z</time>
      </trkpt>
      <trkpt lat="48.70875" lon="2.00123">
        <ele>171.10702514648</ele>
        <time>2016-09-22T09:00:16.000Z</time>
      </trkpt>
      <trkpt lat="48.70874" lon="2.00114">
        <ele>171.05786132812</ele>
        <time>2016-09-22T09:00:19.000Z</time>
      </trkpt>
      <trkpt lat="48.70875" lon="2.0011">
        <ele>171.05439758301</ele>
        <time>2016-09-22T09:00:21.000Z</time>
      </trkpt>
      <trkpt lat="48.70876" lon="2.00106">
        <ele>171.10861206055</ele>
        <time>2016-09-22T09:00:23.000Z</time>
      </trkpt>
      <trkpt lat="48.70876" lon="2.00099">
        <ele>171.18536376953</ele>
        <time>2016-09-22T09:00:26.000Z</time>
      </trkpt>
      <trkpt lat="48.70876" lon="2.00093">
        <ele>171.27645874023</ele>
        <time>2016-09-22T09:00:28.000Z</time>
      </trkpt>
      <trkpt lat="48.70879" lon="2.00086">
        <ele>171.43251037598</ele>
        <time>2016-09-22T09:00:31.000Z</time>
      </trkpt>
      <trkpt lat="48.70884" lon="2.00084">
        <ele>171.64253234863</ele>
        <time>2016-09-22T09:00:34.000Z</time>
      </trkpt>
      <trkpt lat="48.70887" lon="2.0008">
        <ele>171.88093566895</ele>
        <time>2016-09-22T09:00:37.000Z</time>
      </trkpt>
      <trkpt lat="48.70892" lon="2.00075">
        <ele>172.14286804199</ele>
        <time>2016-09-22T09:00:40.000Z</time>
      </trkpt>
      <trkpt lat="48.70896" lon="2.0007">
        <ele>172.44100952148</ele>
        <time>2016-09-22T09:00:43.000Z</time>
      </trkpt>
      <trkpt lat="48.70896" lon="2.00067">
        <ele>172.66471862793</ele>
        <time>2016-09-22T09:00:45.000Z</time>
      </trkpt>
      <trkpt lat="48.70895" lon="2.00065">
        <ele>172.79203796387</ele>
        <time>2016-09-22T09:00:48.000Z</time>
      </trkpt>
      <trkpt lat="48.70898" lon="2.00066">
        <ele>172.93721008301</ele>
        <time>2016-09-22T09:00:50.000Z</time>
      </trkpt>
      <trkpt lat="48.70901" lon="2.00064">
        <ele>173.07792663574</ele>
        <time>2016-09-22T09:00:53.000Z</time>
      </trkpt>
      <trkpt lat="48.70902" lon="2.00057">
        <ele>173.16984558105</ele>
        <time>2016-09-22T09:00:56.000Z</time>
      </trkpt>
      <trkpt lat="48.70903" lon="2.00052">
        <ele>173.27760314941</ele>
        <time>2016-09-22T09:00:58.000Z</time>
      </trkpt>
      <trkpt lat="48.70903" lon="2.00051">
        <ele>173.38818359375</ele>
        <time>2016-09-22T09:01:01.000Z</time>
      </trkpt>
      <trkpt lat="48.70903" lon="2.00046">
        <ele>173.42900085449</ele>
        <time>2016-09-22T09:01:04.000Z</time>
      </trkpt>
      <trkpt lat="48.70904" lon="2.00039">
        <ele>173.44062805176</ele>
        <time>2016-09-22T09:01:07.000Z</time>
      </trkpt>
      <trkpt lat="48.70906" lon="2.00037">
        <ele>173.48937988281</ele>
        <time>2016-09-22T09:01:09.000Z</time>
      </trkpt>
      <trkpt lat="48.70909" lon="2.00036">
        <ele>173.59233093262</ele>
        <time>2016-09-22T09:01:11.000Z</time>
      </trkpt>
      <trkpt lat="48.70913" lon="2.00035">
        <ele>173.82026672363</ele>
        <time>2016-09-22T09:01:14.000Z</time>
      </trkpt>
      <trkpt lat="48.70918" lon="2.00031">
        <ele>174.1423034668</ele>
        <time>2016-09-22T09:01:17.000Z</time>
      </trkpt>
      <trkpt lat="48.70921" lon="2.00027">
        <ele>174.45474243164</ele>
        <time>2016-09-22T09:01:20.000Z</time>
      </trkpt>
      <trkpt lat="48.70925" lon="2.00023">
        <ele>174.73042297363</ele>
        <time>2016-09-22T09:01:23.000Z</time>
      </trkpt>
      <trkpt lat="48.70927" lon="2.00019">
        <ele>174.95013427734</ele>
        <time>2016-09-22T09:01:25.000Z</time>
      </trkpt>
      <trkpt lat="48.70931" lon="2.00014">
        <ele>175.06866455078</ele>
        <time>2016-09-22T09:01:28.000Z</time>
      </trkpt>
      <trkpt lat="48.70932" lon="2.0001">
        <ele>175.10000610352</ele>
        <time>2016-09-22T09:01:30.000Z</time>
      </trkpt>
      <trkpt lat="48.70934" lon="2.00006">
        <ele>175.13137817383</ele>
        <time>2016-09-22T09:01:32.000Z</time>
      </trkpt>
      <trkpt lat="48.70934" lon="2">
        <ele>175.15902709961</ele>
        <time>2016-09-22T09:01:34.000Z</time>
      </trkpt>
      <trkpt lat="48.70935" lon="1.99994">
        <ele>175.08503723145</ele>
        <time>2016-09-22T09:01:37.000Z</time>
      </trkpt>
      <trkpt lat="48.70935" lon="1.99992">
        <ele>174.97200012207</ele>
        <time>2016-09-22T09:01:40.000Z</time>
      </trkpt>
      <trkpt lat="48.70937" lon="1.99985">
        <ele>174.76528930664</ele>
        <time>2016-09-22T09:01:53.000Z</time>
      </trkpt>
      <trkpt lat="48.70937" lon="1.99983">
        <ele>174.52453613281</ele>
        <time>2016-09-22T09:02:02.000Z</time>
      </trkpt>
      <trkpt lat="48.70937" lon="1.9998">
        <ele>174.22827148438</ele>
        <time>2016-09-22T09:02:04.000Z</time>
      </trkpt>
      <trkpt lat="48.70939" lon="1.99977">
        <ele>173.99443054199</ele>
        <time>2016-09-22T09:02:06.000Z</time>
      </trkpt>
      <trkpt lat="48.70943" lon="1.99971">
        <ele>173.74024963379</ele>
        <time>2016-09-22T09:02:09.000Z</time>
      </trkpt>
      <trkpt lat="48.70946" lon="1.99968">
        <ele>173.55043029785</ele>
        <time>2016-09-22T09:02:11.000Z</time>
      </trkpt>
      <trkpt lat="48.7095" lon="1.99962">
        <ele>173.35997009277</ele>
        <time>2016-09-22T09:02:14.000Z</time>
      </trkpt>
      <trkpt lat="48.70953" lon="1.99958">
        <ele>173.19937133789</ele>
        <time>2016-09-22T09:02:17.000Z</time>
      </trkpt>
      <trkpt lat="48.70955" lon="1.99955">
        <ele>173.06272888184</ele>
        <time>2016-09-22T09:02:19.000Z</time>
      </trkpt>
      <trkpt lat="48.70957" lon="1.99952">
        <ele>172.96696472168</ele>
        <time>2016-09-22T09:02:21.000Z</time>
      </trkpt>
      <trkpt lat="48.70959" lon="1.99947">
        <ele>172.87545776367</ele>
        <time>2016-09-22T09:02:24.000Z</time>
      </trkpt>
      <trkpt lat="48.70961" lon="1.99942">
        <ele>172.78788757324</ele>
        <time>2016-09-22T09:02:26.000Z</time>
      </trkpt>
      <trkpt lat="48.70964" lon="1.99938">
        <ele>172.70687866211</ele>
        <time>2016-09-22T09:02:28.000Z</time>
      </trkpt>
      <trkpt lat="48.70964" lon="1.99936">
        <ele>172.63804626465</ele>
        <time>2016-09-22T09:02:31.000Z</time>
      </trkpt>
      <trkpt lat="48.70967" lon="1.9994">
        <ele>172.65010070801</ele>
        <time>2016-09-22T09:02:36.000Z</time>
      </trkpt>
      <trkpt lat="48.70969" lon="1.99938">
        <ele>172.69477844238</ele>
        <time>2016-09-22T09:02:38.000Z</time>
      </trkpt>
      <trkpt lat="48.70971" lon="1.99936">
        <ele>172.77922058105</ele>
        <time>2016-09-22T09:02:41.000Z</time>
      </trkpt>
      <trkpt lat="48.70974" lon="1.99931">
        <ele>172.88009643555</ele>
        <time>2016-09-22T09:02:44.000Z</time>
      </trkpt>
      <trkpt lat="48.70975" lon="1.99928">
        <ele>172.98889160156</ele>
        <time>2016-09-22T09:02:46.000Z</time>
      </trkpt>
      <trkpt lat="48.7098" lon="1.99925">
        <ele>173.07977294922</ele>
        <time>2016-09-22T09:02:49.000Z</time>
      </trkpt>
      <trkpt lat="48.70983" lon="1.99921">
        <ele>173.18502807617</ele>
        <time>2016-09-22T09:02:52.000Z</time>
      </trkpt>
      <trkpt lat="48.70985" lon="1.99919">
        <ele>173.30618286133</ele>
        <time>2016-09-22T09:02:54.000Z</time>
      </trkpt>
      <trkpt lat="48.70987" lon="1.99917">
        <ele>173.4556427002</ele>
        <time>2016-09-22T09:02:56.000Z</time>
      </trkpt>
      <trkpt lat="48.70989" lon="1.99914">
        <ele>173.59854125977</ele>
        <time>2016-09-22T09:02:59.000Z</time>
      </trkpt>
      <trkpt lat="48.7099" lon="1.9991">
        <ele>173.66999816895</ele>
        <time>2016-09-22T09:03:01.000Z</time>
      </trkpt>
      <trkpt lat="48.70992" lon="1.99904">
        <ele>173.70921325684</ele>
        <time>2016-09-22T09:03:04.000Z</time>
      </trkpt>
      <trkpt lat="48.70995" lon="1.999">
        <ele>173.75468444824</ele>
        <time>2016-09-22T09:03:07.000Z</time>
      </trkpt>
      <trkpt lat="48.70998" lon="1.99896">
        <ele>173.79351806641</ele>
        <time>2016-09-22T09:03:17.000Z</time>
      </trkpt>
      <trkpt lat="48.70999" lon="1.99894">
        <ele>173.85507202148</ele>
        <time>2016-09-22T09:03:19.000Z</time>
      </trkpt>
      <trkpt lat="48.71002" lon="1.99888">
        <ele>173.91711425781</ele>
        <time>2016-09-22T09:03:22.000Z</time>
      </trkpt>
      <trkpt lat="48.71003" lon="1.99882">
        <ele>173.95220947266</ele>
        <time>2016-09-22T09:03:25.000Z</time>
      </trkpt>
      <trkpt lat="48.71004" lon="1.99879">
        <ele>173.93725585938</ele>
        <time>2016-09-22T09:03:27.000Z</time>
      </trkpt>
      <trkpt lat="48.71006" lon="1.99875">
        <ele>173.87951660156</ele>
        <time>2016-09-22T09:03:30.000Z</time>
      </trkpt>
      <trkpt lat="48.71009" lon="1.99871">
        <ele>173.79008483887</ele>
        <time>2016-09-22T09:03:33.000Z</time>
      </trkpt>
      <trkpt lat="48.7101" lon="1.99866">
        <ele>173.69589233398</ele>
        <time>2016-09-22T09:03:35.000Z</time>
      </trkpt>
      <trkpt lat="48.71012" lon="1.99861">
        <ele>173.62072753906</ele>
        <time>2016-09-22T09:03:37.000Z</time>
      </trkpt>
      <trkpt lat="48.71016" lon="1.99853">
        <ele>173.5602722168</ele>
        <time>2016-09-22T09:03:40.000Z</time>
      </trkpt>
      <trkpt lat="48.71018" lon="1.99847">
        <ele>173.50625610352</ele>
        <time>2016-09-22T09:03:43.000Z</time>
      </trkpt>
      <trkpt lat="48.71019" lon="1.9984">
        <ele>173.43569946289</ele>
        <time>2016-09-22T09:03:46.000Z</time>
      </trkpt>
      <trkpt lat="48.71021" lon="1.99836">
        <ele>173.39645385742</ele>
        <time>2016-09-22T09:03:49.000Z</time>
      </trkpt>
      <trkpt lat="48.71025" lon="1.99832">
        <ele>173.38645935059</ele>
        <time>2016-09-22T09:03:52.000Z</time>
      </trkpt>
      <trkpt lat="48.71028" lon="1.99829">
        <ele>173.36366271973</ele>
        <time>2016-09-22T09:03:55.000Z</time>
      </trkpt>
      <trkpt lat="48.7103" lon="1.99825">
        <ele>173.33348083496</ele>
        <time>2016-09-22T09:03:57.000Z</time>
      </trkpt>
      <trkpt lat="48.71034" lon="1.9982">
        <ele>173.30676269531</ele>
        <time>2016-09-22T09:04:00.000Z</time>
      </trkpt>
      <trkpt lat="48.71036" lon="1.99816">
        <ele>173.25239562988</ele>
        <time>2016-09-22T09:04:02.000Z</time>
      </trkpt>
      <trkpt lat="48.71038" lon="1.99811">
        <ele>173.14437866211</ele>
        <time>2016-09-22T09:04:05.000Z</time>
      </trkpt>
      <trkpt lat="48.7104" lon="1.99807">
        <ele>173.04183959961</ele>
        <time>2016-09-22T09:04:07.000Z</time>
      </trkpt>
      <trkpt lat="48.71043" lon="1.99804">
        <ele>172.94595336914</ele>
        <time>2016-09-22T09:04:09.000Z</time>
      </trkpt>
      <trkpt lat="48.71045" lon="1.99801">
        <ele>172.86689758301</ele>
        <time>2016-09-22T09:04:11.000Z</time>
      </trkpt>
      <trkpt lat="48.71048" lon="1.99796">
        <ele>172.80578613281</ele>
        <time>2016-09-22T09:04:14.000Z</time>
      </trkpt>
      <trkpt lat="48.71051" lon="1.99791">
        <ele>172.78480529785</ele>
        <time>2016-09-22T09:04:17.000Z</time>
      </trkpt>
      <trkpt lat="48.71054" lon="1.99787">
        <ele>172.77656555176</ele>
        <time>2016-09-22T09:04:20.000Z</time>
      </trkpt>
      <trkpt lat="48.71059" lon="1.99782">
        <ele>172.81567382812</ele>
        <time>2016-09-22T09:04:23.000Z</time>
      </trkpt>
      <trkpt lat="48.71063" lon="1.99779">
        <ele>172.89535522461</ele>
        <time>2016-09-22T09:04:26.000Z</time>
      </trkpt>
      <trkpt lat="48.71064" lon="1.99776">
        <ele>172.97816467285</ele>
        <time>2016-09-22T09:04:28.000Z</time>
      </trkpt>
      <trkpt lat="48.71067" lon="1.99773">
        <ele>173.0672454834</ele>
        <time>2016-09-22T09:04:30.000Z</time>
      </trkpt>
      <trkpt lat="48.71068" lon="1.9977">
        <ele>173.1555480957</ele>
        <time>2016-09-22T09:04:32.000Z</time>
      </trkpt>
      <trkpt lat="48.71071" lon="1.99765">
        <ele>173.21969604492</ele>
        <time>2016-09-22T09:04:35.000Z</time>
      </trkpt>
      <trkpt lat="48.71073" lon="1.99761">
        <ele>173.25645446777</ele>
        <time>2016-09-22T09:04:38.000Z</time>
      </trkpt>
      <trkpt lat="48.71075" lon="1.99758">
        <ele>173.29843139648</ele>
        <time>2016-09-22T09:04:40.000Z</time>
      </trkpt>
      <trkpt lat="48.71078" lon="1.99754">
        <ele>173.36587524414</ele>
        <time>2016-09-22T09:04:43.000Z</time>
      </trkpt>
      <trkpt lat="48.7108" lon="1.99752">
        <ele>173.44758605957</ele>
        <time>2016-09-22T09:04:45.000Z</time>
      </trkpt>
      <trkpt lat="48.71082" lon="1.99749">
        <ele>173.56057739258</ele>
        <time>2016-09-22T09:04:47.000Z</time>
      </trkpt>
      <trkpt lat="48.71086" lon="1.99743">
        <ele>173.63740539551</ele>
        <time>2016-09-22T09:04:50.000Z</time>
      </trkpt>
      <trkpt lat="48.71087" lon="1.99736">
        <ele>173.64598083496</ele>
        <time>2016-09-22T09:04:53.000Z</time>
      </trkpt>
      <trkpt lat="48.71087" lon="1.99732">
        <ele>173.58642578125</ele>
        <time>2016-09-22T09:04:55.000Z</time>
      </trkpt>
      <trkpt lat="48.71088" lon="1.9973">
        <ele>173.49478149414</ele>
        <time>2016-09-22T09:04:57.000Z</time>
      </trkpt>
      <trkpt lat="48.7109" lon="1.99724">
        <ele>173.314453125</ele>
        <time>2016-09-22T09:05:01.000Z</time>
      </trkpt>
      <trkpt lat="48.71091" lon="1.99722">
        <ele>173.14663696289</ele>
        <time>2016-09-22T09:05:04.000Z</time>
      </trkpt>
      <trkpt lat="48.71093" lon="1.99714">
        <ele>172.98332214355</ele>
        <time>2016-09-22T09:05:07.000Z</time>
      </trkpt>
      <trkpt lat="48.71095" lon="1.9971">
        <ele>172.83627319336</ele>
        <time>2016-09-22T09:05:09.000Z</time>
      </trkpt>
      <trkpt lat="48.71098" lon="1.99706">
        <ele>172.67915344238</ele>
        <time>2016-09-22T09:05:12.000Z</time>
      </trkpt>
      <trkpt lat="48.71101" lon="1.99701">
        <ele>172.55261230469</ele>
        <time>2016-09-22T09:05:15.000Z</time>
      </trkpt>
      <trkpt lat="48.71103" lon="1.99698">
        <ele>172.43098449707</ele>
        <time>2016-09-22T09:05:18.000Z</time>
      </trkpt>
      <trkpt lat="48.71105" lon="1.99696">
        <ele>172.35659790039</ele>
        <time>2016-09-22T09:05:20.000Z</time>
      </trkpt>
      <trkpt lat="48.71108" lon="1.99692">
        <ele>172.29431152344</ele>
        <time>2016-09-22T09:05:23.000Z</time>
      </trkpt>
      <trkpt lat="48.71111" lon="1.99688">
        <ele>172.25143432617</ele>
        <time>2016-09-22T09:05:26.000Z</time>
      </trkpt>
      <trkpt lat="48.71113" lon="1.99686">
        <ele>172.2248840332</ele>
        <time>2016-09-22T09:05:28.000Z</time>
      </trkpt>
      <trkpt lat="48.71115" lon="1.99684">
        <ele>172.21369934082</ele>
        <time>2016-09-22T09:05:31.000Z</time>
      </trkpt>
      <trkpt lat="48.71117" lon="1.99683">
        <ele>172.20887756348</ele>
        <time>2016-09-22T09:05:33.000Z</time>
      </trkpt>
      <trkpt lat="48.7112" lon="1.99681">
        <ele>172.22773742676</ele>
        <time>2016-09-22T09:05:36.000Z</time>
      </trkpt>
      <trkpt lat="48.71124" lon="1.99678">
        <ele>172.25857543945</ele>
        <time>2016-09-22T09:05:39.000Z</time>
      </trkpt>
      <trkpt lat="48.7113" lon="1.99676">
        <ele>172.32942199707</ele>
        <time>2016-09-22T09:05:42.000Z</time>
      </trkpt>
      <trkpt lat="48.71136" lon="1.99674">
        <ele>172.43588256836</ele>
        <time>2016-09-22T09:05:45.000Z</time>
      </trkpt>
      <trkpt lat="48.71138" lon="1.99673">
        <ele>172.55746459961</ele>
        <time>2016-09-22T09:05:47.000Z</time>
      </trkpt>
      <trkpt lat="48.7114" lon="1.9967">
        <ele>172.66171264648</ele>
        <time>2016-09-22T09:05:50.000Z</time>
      </trkpt>
      <trkpt lat="48.71143" lon="1.99667">
        <ele>172.76962280273</ele>
        <time>2016-09-22T09:05:53.000Z</time>
      </trkpt>
      <trkpt lat="48.71146" lon="1.99665">
        <ele>172.8412322998</ele>
        <time>2016-09-22T09:05:55.000Z</time>
      </trkpt>
      <trkpt lat="48.71148" lon="1.99662">
        <ele>172.85641479492</ele>
        <time>2016-09-22T09:05:58.000Z</time>
      </trkpt>
      <trkpt lat="48.7115" lon="1.99657">
        <ele>172.82836914062</ele>
        <time>2016-09-22T09:06:01.000Z</time>
      </trkpt>
      <trkpt lat="48.71152" lon="1.99651">
        <ele>172.77742004395</ele>
        <time>2016-09-22T09:06:04.000Z</time>
      </trkpt>
      <trkpt lat="48.71155" lon="1.99648">
        <ele>172.71279907227</ele>
        <time>2016-09-22T09:06:06.000Z</time>
      </trkpt>
      <trkpt lat="48.71157" lon="1.99644">
        <ele>172.63317871094</ele>
        <time>2016-09-22T09:06:08.000Z</time>
      </trkpt>
      <trkpt lat="48.7116" lon="1.99639">
        <ele>172.5641784668</ele>
        <time>2016-09-22T09:06:11.000Z</time>
      </trkpt>
      <trkpt lat="48.71162" lon="1.99635">
        <ele>172.52604675293</ele>
        <time>2016-09-22T09:06:14.000Z</time>
      </trkpt>
      <trkpt lat="48.71164" lon="1.99631">
        <ele>172.51243591309</ele>
        <time>2016-09-22T09:06:17.000Z</time>
      </trkpt>
      <trkpt lat="48.71166" lon="1.99628">
        <ele>172.51065063477</ele>
        <time>2016-09-22T09:06:19.000Z</time>
      </trkpt>
      <trkpt lat="48.71169" lon="1.99625">
        <ele>172.51086425781</ele>
        <time>2016-09-22T09:06:21.000Z</time>
      </trkpt>
      <trkpt lat="48.7117" lon="1.99621">
        <ele>172.49084472656</ele>
        <time>2016-09-22T09:06:24.000Z</time>
      </trkpt>
      <trkpt lat="48.71172" lon="1.99619">
        <ele>172.4577331543</ele>
        <time>2016-09-22T09:06:26.000Z</time>
      </trkpt>
      <trkpt lat="48.71173" lon="1.99616">
        <ele>172.41088867188</ele>
        <time>2016-09-22T09:06:28.000Z</time>
      </trkpt>
      <trkpt lat="48.71175" lon="1.99613">
        <ele>172.345703125</ele>
        <time>2016-09-22T09:06:30.000Z</time>
      </trkpt>
      <trkpt lat="48.71178" lon="1.99609">
        <ele>172.27871704102</ele>
        <time>2016-09-22T09:06:33.000Z</time>
      </trkpt>
      <trkpt lat="48.71179" lon="1.99607">
        <ele>172.23197937012</ele>
        <time>2016-09-22T09:06:35.000Z</time>
      </trkpt>
      <trkpt lat="48.71181" lon="1.99604">
        <ele>172.19551086426</ele>
        <time>2016-09-22T09:06:38.000Z</time>
      </trkpt>
      <trkpt lat="48.71183" lon="1.99602">
        <ele>172.16972351074</ele>
        <time>2016-09-22T09:06:40.000Z</time>
      </trkpt>
      <trkpt lat="48.71185" lon="1.996">
        <ele>172.1566619873</ele>
        <time>2016-09-22T09:06:42.000Z</time>
      </trkpt>
      <trkpt lat="48.71188" lon="1.99598">
        <ele>172.1669921875</ele>
        <time>2016-09-22T09:06:45.000Z</time>
      </trkpt>
      <trkpt lat="48.71189" lon="1.99597">
        <ele>172.18704223633</ele>
        <time>2016-09-22T09:06:48.000Z</time>
      </trkpt>
      <trkpt lat="48.71192" lon="1.99595">
        <ele>172.22569274902</ele>
        <time>2016-09-22T09:06:51.000Z</time>
      </trkpt>
      <trkpt lat="48.71194" lon="1.99588">
        <ele>172.26974487305</ele>
        <time>2016-09-22T09:06:54.000Z</time>
      </trkpt>
      <trkpt lat="48.71196" lon="1.99584">
        <ele>172.32215881348</ele>
        <time>2016-09-22T09:06:57.000Z</time>
      </trkpt>
      <trkpt lat="48.71198" lon="1.99583">
        <ele>172.38014221191</ele>
        <time>2016-09-22T09:07:00.000Z</time>
      </trkpt>
      <trkpt lat="48.712" lon="1.99579">
        <ele>172.44035339355</ele>
        <time>2016-09-22T09:07:03.000Z</time>
      </trkpt>
      <trkpt lat="48.71201" lon="1.99577">
        <ele>172.49102783203</ele>
        <time>2016-09-22T09:07:05.000Z</time>
      </trkpt>
      <trkpt lat="48.71204" lon="1.99573">
        <ele>172.55667114258</ele>
        <time>2016-09-22T09:07:09.000Z</time>
      </trkpt>
      <trkpt lat="48.71207" lon="1.99571">
        <ele>172.64028930664</ele>
        <time>2016-09-22T09:07:12.000Z</time>
      </trkpt>
      <trkpt lat="48.71209" lon="1.9957">
        <ele>172.72358703613</ele>
        <time>2016-09-22T09:07:15.000Z</time>
      </trkpt>
      <trkpt lat="48.7121" lon="1.99568">
        <ele>172.81372070312</ele>
        <time>2016-09-22T09:07:17.000Z</time>
      </trkpt>
      <trkpt lat="48.71212" lon="1.99565">
        <ele>172.91535949707</ele>
        <time>2016-09-22T09:07:19.000Z</time>
      </trkpt>
      <trkpt lat="48.71214" lon="1.99563">
        <ele>173.01475524902</ele>
        <time>2016-09-22T09:07:21.000Z</time>
      </trkpt>
      <trkpt lat="48.71217" lon="1.99559">
        <ele>173.12300109863</ele>
        <time>2016-09-22T09:07:24.000Z</time>
      </trkpt>
      <trkpt lat="48.7122" lon="1.99555">
        <ele>173.23727416992</ele>
        <time>2016-09-22T09:07:26.000Z</time>
      </trkpt>
      <trkpt lat="48.71222" lon="1.99551">
        <ele>173.37057495117</ele>
        <time>2016-09-22T09:07:28.000Z</time>
      </trkpt>
      <trkpt lat="48.71226" lon="1.99547">
        <ele>173.53125</ele>
        <time>2016-09-22T09:07:31.000Z</time>
      </trkpt>
      <trkpt lat="48.71227" lon="1.99546">
        <ele>173.68597412109</ele>
        <time>2016-09-22T09:07:33.000Z</time>
      </trkpt>
      <trkpt lat="48.71234" lon="1.9954">
        <ele>173.89515686035</ele>
        <time>2016-09-22T09:07:36.000Z</time>
      </trkpt>
      <trkpt lat="48.71238" lon="1.99537">
        <ele>174.13973999023</ele>
        <time>2016-09-22T09:07:38.000Z</time>
      </trkpt>
      <trkpt lat="48.71244" lon="1.99534">
        <ele>174.44502258301</ele>
        <time>2016-09-22T09:07:41.000Z</time>
      </trkpt>
      <trkpt lat="48.71247" lon="1.99533">
        <ele>174.73992919922</ele>
        <time>2016-09-22T09:07:43.000Z</time>
      </trkpt>
      <trkpt lat="48.71248" lon="1.99532">
        <ele>175.04808044434</ele>
        <time>2016-09-22T09:07:46.000Z</time>
      </trkpt>
      <trkpt lat="48.71254" lon="1.99529">
        <ele>175.27354431152</ele>
        <time>2016-09-22T09:07:49.000Z</time>
      </trkpt>
      <trkpt lat="48.71257" lon="1.99526">
        <ele>175.43983459473</ele>
        <time>2016-09-22T09:07:52.000Z</time>
      </trkpt>
      <trkpt lat="48.7126" lon="1.99523">
        <ele>175.5055847168</ele>
        <time>2016-09-22T09:07:55.000Z</time>
      </trkpt>
      <trkpt lat="48.71262" lon="1.99522">
        <ele>175.5318145752</ele>
        <time>2016-09-22T09:07:57.000Z</time>
      </trkpt>
      <trkpt lat="48.71264" lon="1.99521">
        <ele>175.53353881836</ele>
        <time>2016-09-22T09:08:00.000Z</time>
      </trkpt>
      <trkpt lat="48.71266" lon="1.99518">
        <ele>175.52102661133</ele>
        <time>2016-09-22T09:08:03.000Z</time>
      </trkpt>
      <trkpt lat="48.71268" lon="1.99516">
        <ele>175.51077270508</ele>
        <time>2016-09-22T09:08:05.000Z</time>
      </trkpt>
      <trkpt lat="48.71271" lon="1.99514">
        <ele>175.5034942627</ele>
        <time>2016-09-22T09:08:07.000Z</time>
      </trkpt>
      <trkpt lat="48.71276" lon="1.99512">
        <ele>175.49180603027</ele>
        <time>2016-09-22T09:08:13.000Z</time>
      </trkpt>
      <trkpt lat="48.71278" lon="1.99512">
        <ele>175.47613525391</ele>
        <time>2016-09-22T09:08:15.000Z</time>
      </trkpt>
      <trkpt lat="48.71281" lon="1.99511">
        <ele>175.45721435547</ele>
        <time>2016-09-22T09:08:18.000Z</time>
      </trkpt>
      <trkpt lat="48.71286" lon="1.9951">
        <ele>175.42700195312</ele>
        <time>2016-09-22T09:08:24.000Z</time>
      </trkpt>
      <trkpt lat="48.71288" lon="1.99509">
        <ele>175.39831542969</ele>
        <time>2016-09-22T09:08:26.000Z</time>
      </trkpt>
      <trkpt lat="48.71291" lon="1.99507">
        <ele>175.37696838379</ele>
        <time>2016-09-22T09:08:30.000Z</time>
      </trkpt>
      <trkpt lat="48.71295" lon="1.99504">
        <ele>175.3614654541</ele>
        <time>2016-09-22T09:08:33.000Z</time>
      </trkpt>
      <trkpt lat="48.71298" lon="1.99503">
        <ele>175.35006713867</ele>
        <time>2016-09-22T09:08:36.000Z</time>
      </trkpt>
      <trkpt lat="48.71299" lon="1.99502">
        <ele>175.35231018066</ele>
        <time>2016-09-22T09:08:38.000Z</time>
      </trkpt>
      <trkpt lat="48.71302" lon="1.99499">
        <ele>175.35598754883</ele>
        <time>2016-09-22T09:08:41.000Z</time>
      </trkpt>
      <trkpt lat="48.71304" lon="1.99497">
        <ele>175.34600830078</ele>
        <time>2016-09-22T09:08:44.000Z</time>
      </trkpt>
      <trkpt lat="48.71305" lon="1.99497">
        <ele>175.33123779297</ele>
        <time>2016-09-22T09:08:46.000Z</time>
      </trkpt>
      <trkpt lat="48.7131" lon="1.99495">
        <ele>175.30325317383</ele>
        <time>2016-09-22T09:08:51.000Z</time>
      </trkpt>
      <trkpt lat="48.71314" lon="1.99494">
        <ele>175.26277160645</ele>
        <time>2016-09-22T09:08:57.000Z</time>
      </trkpt>
      <trkpt lat="48.71317" lon="1.99493">
        <ele>175.21566772461</ele>
        <time>2016-09-22T09:08:59.000Z</time>
      </trkpt>
      <trkpt lat="48.7132" lon="1.99491">
        <ele>175.17459106445</ele>
        <time>2016-09-22T09:09:02.000Z</time>
      </trkpt>
      <trkpt lat="48.71321" lon="1.99491">
        <ele>175.13526916504</ele>
        <time>2016-09-22T09:09:05.000Z</time>
      </trkpt>
      <trkpt lat="48.71325" lon="1.99488">
        <ele>175.10237121582</ele>
        <time>2016-09-22T09:09:08.000Z</time>
      </trkpt>
      <trkpt lat="48.71328" lon="1.99486">
        <ele>175.07385253906</ele>
        <time>2016-09-22T09:09:12.000Z</time>
      </trkpt>
      <trkpt lat="48.71333" lon="1.99485">
        <ele>175.04800415039</ele>
        <time>2016-09-22T09:09:18.000Z</time>
      </trkpt>
      <trkpt lat="48.71336" lon="1.99482">
        <ele>174.98580932617</ele>
        <time>2016-09-22T09:09:21.000Z</time>
      </trkpt>
      <trkpt lat="48.71341" lon="1.9948">
        <ele>174.83337402344</ele>
        <time>2016-09-22T09:09:24.000Z</time>
      </trkpt>
      <trkpt lat="48.71344" lon="1.9948">
        <ele>174.6396484375</ele>
        <time>2016-09-22T09:09:26.000Z</time>
      </trkpt>
      <trkpt lat="48.71348" lon="1.99478">
        <ele>174.37905883789</ele>
        <time>2016-09-22T09:09:29.000Z</time>
      </trkpt>
      <trkpt lat="48.71354" lon="1.99476">
        <ele>174.02865600586</ele>
        <time>2016-09-22T09:09:32.000Z</time>
      </trkpt>
      <trkpt lat="48.71359" lon="1.99474">
        <ele>173.62100219727</ele>
        <time>2016-09-22T09:09:35.000Z</time>
      </trkpt>
      <trkpt lat="48.71362" lon="1.99473">
        <ele>173.24728393555</ele>
        <time>2016-09-22T09:09:37.000Z</time>
      </trkpt>
      <trkpt lat="48.71365" lon="1.99471">
        <ele>172.86441040039</ele>
        <time>2016-09-22T09:09:40.000Z</time>
      </trkpt>
      <trkpt lat="48.7137" lon="1.99469">
        <ele>172.4787902832</ele>
        <time>2016-09-22T09:09:44.000Z</time>
      </trkpt>
      <trkpt lat="48.71372" lon="1.99468">
        <ele>172.14945983887</ele>
        <time>2016-09-22T09:09:46.000Z</time>
      </trkpt>
      <trkpt lat="48.71375" lon="1.99466">
        <ele>171.85446166992</ele>
        <time>2016-09-22T09:09:49.000Z</time>
      </trkpt>
      <trkpt lat="48.71378" lon="1.99465">
        <ele>171.56500244141</ele>
        <time>2016-09-22T09:09:51.000Z</time>
      </trkpt>
      <trkpt lat="48.71381" lon="1.99465">
        <ele>171.29072570801</ele>
        <time>2016-09-22T09:09:53.000Z</time>
      </trkpt>
      <trkpt lat="48.71383" lon="1.99464">
        <ele>171.03904724121</ele>
        <time>2016-09-22T09:09:55.000Z</time>
      </trkpt>
      <trkpt lat="48.71386" lon="1.99461">
        <ele>170.77645874023</ele>
        <time>2016-09-22T09:09:58.000Z</time>
      </trkpt>
      <trkpt lat="48.71387" lon="1.99459">
        <ele>170.56242370605</ele>
        <time>2016-09-22T09:10:00.000Z</time>
      </trkpt>
      <trkpt lat="48.71387" lon="1.99456">
        <ele>170.38192749023</ele>
        <time>2016-09-22T09:10:02.000Z</time>
      </trkpt>
      <trkpt lat="48.7139" lon="1.9945">
        <ele>170.19155883789</ele>
        <time>2016-09-22T09:10:09.000Z</time>
      </trkpt>
      <trkpt lat="48.71393" lon="1.99448">
        <ele>169.98957824707</ele>
        <time>2016-09-22T09:10:12.000Z</time>
      </trkpt>
      <trkpt lat="48.71397" lon="1.99446">
        <ele>169.76528930664</ele>
        <time>2016-09-22T09:10:15.000Z</time>
      </trkpt>
      <trkpt lat="48.71399" lon="1.99445">
        <ele>169.52003479004</ele>
        <time>2016-09-22T09:10:17.000Z</time>
      </trkpt>
      <trkpt lat="48.71402" lon="1.99443">
        <ele>169.22886657715</ele>
        <time>2016-09-22T09:10:20.000Z</time>
      </trkpt>
      <trkpt lat="48.71404" lon="1.99441">
        <ele>168.95082092285</ele>
        <time>2016-09-22T09:10:22.000Z</time>
      </trkpt>
      <trkpt lat="48.71408" lon="1.9944">
        <ele>168.65742492676</ele>
        <time>2016-09-22T09:10:25.000Z</time>
      </trkpt>
      <trkpt lat="48.71412" lon="1.99437">
        <ele>168.3688659668</ele>
        <time>2016-09-22T09:10:28.000Z</time>
      </trkpt>
      <trkpt lat="48.71415" lon="1.99435">
        <ele>168.04490661621</ele>
        <time>2016-09-22T09:10:31.000Z</time>
      </trkpt>
      <trkpt lat="48.71419" lon="1.99432">
        <ele>167.73678588867</ele>
        <time>2016-09-22T09:10:34.000Z</time>
      </trkpt>
      <trkpt lat="48.71421" lon="1.9943">
        <ele>167.45779418945</ele>
        <time>2016-09-22T09:10:36.000Z</time>
      </trkpt>
      <trkpt lat="48.71422" lon="1.99428">
        <ele>167.24479675293</ele>
        <time>2016-09-22T09:10:38.000Z</time>
      </trkpt>
      <trkpt lat="48.71424" lon="1.99425">
        <ele>167.07780456543</ele>
        <time>2016-09-22T09:10:41.000Z</time>
      </trkpt>
      <trkpt lat="48.71426" lon="1.99423">
        <ele>166.97129821777</ele>
        <time>2016-09-22T09:10:43.000Z</time>
      </trkpt>
      <trkpt lat="48.71428" lon="1.99421">
        <ele>166.90144348145</ele>
        <time>2016-09-22T09:10:45.000Z</time>
      </trkpt>
      <trkpt lat="48.71431" lon="1.99417">
        <ele>166.82551574707</ele>
        <time>2016-09-22T09:10:48.000Z</time>
      </trkpt>
      <trkpt lat="48.71431" lon="1.99415">
        <ele>166.75019836426</ele>
        <time>2016-09-22T09:10:50.000Z</time>
      </trkpt>
      <trkpt lat="48.71432" lon="1.99412">
        <ele>166.67631530762</ele>
        <time>2016-09-22T09:10:53.000Z</time>
      </trkpt>
      <trkpt lat="48.71433" lon="1.99411">
        <ele>166.61215209961</ele>
        <time>2016-09-22T09:10:56.000Z</time>
      </trkpt>
      <trkpt lat="48.71435" lon="1.9941">
        <ele>166.54376220703</ele>
        <time>2016-09-22T09:10:58.000Z</time>
      </trkpt>
      <trkpt lat="48.71434" lon="1.99407">
        <ele>166.48400878906</ele>
        <time>2016-09-22T09:11:01.000Z</time>
      </trkpt>
      <trkpt lat="48.71432" lon="1.99405">
        <ele>166.43452453613</ele>
        <time>2016-09-22T09:11:03.000Z</time>
      </trkpt>
      <trkpt lat="48.7143" lon="1.99402">
        <ele>166.40190124512</ele>
        <time>2016-09-22T09:11:06.000Z</time>
      </trkpt>
      <trkpt lat="48.71428" lon="1.99401">
        <ele>166.37805175781</ele>
        <time>2016-09-22T09:11:09.000Z</time>
      </trkpt>
      <trkpt lat="48.71426" lon="1.99399">
        <ele>166.37313842773</ele>
        <time>2016-09-22T09:11:11.000Z</time>
      </trkpt>
      <trkpt lat="48.71423" lon="1.99398">
        <ele>166.38423156738</ele>
        <time>2016-09-22T09:11:14.000Z</time>
      </trkpt>
      <trkpt lat="48.7142" lon="1.99396">
        <ele>166.39868164062</ele>
        <time>2016-09-22T09:11:17.000Z</time>
      </trkpt>
      <trkpt lat="48.71418" lon="1.99395">
        <ele>166.41865539551</ele>
        <time>2016-09-22T09:11:20.000Z</time>
      </trkpt>
      <trkpt lat="48.71416" lon="1.99393">
        <ele>166.44882202148</ele>
        <time>2016-09-22T09:11:25.000Z</time>
      </trkpt>
      <trkpt lat="48.71413" lon="1.99392">
        <ele>166.50784301758</ele>
        <time>2016-09-22T09:11:27.000Z</time>
      </trkpt>
      <trkpt lat="48.71412" lon="1.99391">
        <ele>166.59257507324</ele>
        <time>2016-09-22T09:11:29.000Z</time>
      </trkpt>
      <trkpt lat="48.7141" lon="1.9939">
        <ele>166.7067565918</ele>
        <time>2016-09-22T09:11:31.000Z</time>
      </trkpt>
      <trkpt lat="48.71405" lon="1.99386">
        <ele>166.87600708008</ele>
        <time>2016-09-22T09:11:34.000Z</time>
      </trkpt>
      <trkpt lat="48.71402" lon="1.99384">
        <ele>167.08723449707</ele>
        <time>2016-09-22T09:11:37.000Z</time>
      </trkpt>
      <trkpt lat="48.71397" lon="1.99382">
        <ele>167.33374023438</ele>
        <time>2016-09-22T09:11:40.000Z</time>
      </trkpt>
      <trkpt lat="48.71392" lon="1.99381">
        <ele>167.63497924805</ele>
        <time>2016-09-22T09:11:43.000Z</time>
      </trkpt>
      <trkpt lat="48.71388" lon="1.9938">
        <ele>167.98115539551</ele>
        <time>2016-09-22T09:11:46.000Z</time>
      </trkpt>
      <trkpt lat="48.71386" lon="1.99379">
        <ele>168.30230712891</ele>
        <time>2016-09-22T09:11:48.000Z</time>
      </trkpt>
      <trkpt lat="48.71382" lon="1.99375">
        <ele>168.61294555664</ele>
        <time>2016-09-22T09:11:51.000Z</time>
      </trkpt>
      <trkpt lat="48.71379" lon="1.99373">
        <ele>168.8893737793</ele>
        <time>2016-09-22T09:11:53.000Z</time>
      </trkpt>
      <trkpt lat="48.71378" lon="1.99372">
        <ele>169.09881591797</ele>
        <time>2016-09-22T09:11:55.000Z</time>
      </trkpt>
      <trkpt lat="48.71375" lon="1.99369">
        <ele>169.26081848145</ele>
        <time>2016-09-22T09:11:58.000Z</time>
      </trkpt>
      <trkpt lat="48.71375" lon="1.99368">
        <ele>169.38748168945</ele>
        <time>2016-09-22T09:12:00.000Z</time>
      </trkpt>
      <trkpt lat="48.71371" lon="1.99366">
        <ele>169.52001953125</ele>
        <time>2016-09-22T09:12:03.000Z</time>
      </trkpt>
      <trkpt lat="48.71368" lon="1.99363">
        <ele>169.66764831543</ele>
        <time>2016-09-22T09:12:06.000Z</time>
      </trkpt>
      <trkpt lat="48.71366" lon="1.99361">
        <ele>169.8215637207</ele>
        <time>2016-09-22T09:12:09.000Z</time>
      </trkpt>
      <trkpt lat="48.71365" lon="1.99361">
        <ele>169.95700073242</ele>
        <time>2016-09-22T09:12:11.000Z</time>
      </trkpt>
      <trkpt lat="48.7136" lon="1.99361">
        <ele>170.17736816406</ele>
        <time>2016-09-22T09:12:21.000Z</time>
      </trkpt>
      <trkpt lat="48.71361" lon="1.99359">
        <ele>170.32510375977</ele>
        <time>2016-09-22T09:12:25.000Z</time>
      </trkpt>
      <trkpt lat="48.71361" lon="1.99361">
        <ele>170.42837524414</ele>
        <time>2016-09-22T09:12:28.000Z</time>
      </trkpt>
      <trkpt lat="48.7136" lon="1.99359">
        <ele>170.52230834961</ele>
        <time>2016-09-22T09:12:30.000Z</time>
      </trkpt>
      <trkpt lat="48.71357" lon="1.99356">
        <ele>170.62260437012</ele>
        <time>2016-09-22T09:12:33.000Z</time>
      </trkpt>
      <trkpt lat="48.71353" lon="1.99352">
        <ele>170.68276977539</ele>
        <time>2016-09-22T09:12:36.000Z</time>
      </trkpt>
      <trkpt lat="48.71352" lon="1.99353">
        <ele>170.7914276123</ele>
        <time>2016-09-22T09:12:40.000Z</time>
      </trkpt>
      <trkpt lat="48.71348" lon="1.99352">
        <ele>170.96008300781</ele>
        <time>2016-09-22T09:12:43.000Z</time>
      </trkpt>
      <trkpt lat="48.71346" lon="1.99352">
        <ele>171.15365600586</ele>
        <time>2016-09-22T09:12:45.000Z</time>
      </trkpt>
      <trkpt lat="48.71344" lon="1.9935">
        <ele>171.3444519043</ele>
        <time>2016-09-22T09:12:48.000Z</time>
      </trkpt>
      <trkpt lat="48.71341" lon="1.99347">
        <ele>171.52853393555</ele>
        <time>2016-09-22T09:12:51.000Z</time>
      </trkpt>
      <trkpt lat="48.71336" lon="1.99345">
        <ele>171.75247192383</ele>
        <time>2016-09-22T09:12:54.000Z</time>
      </trkpt>
      <trkpt lat="48.71331" lon="1.99341">
        <ele>171.91105651855</ele>
        <time>2016-09-22T09:13:09.000Z</time>
      </trkpt>
      <trkpt lat="48.71327" lon="1.99338">
        <ele>171.97817993164</ele>
        <time>2016-09-22T09:13:12.000Z</time>
      </trkpt>
      <trkpt lat="48.7132" lon="1.99334">
        <ele>171.95243835449</ele>
        <time>2016-09-22T09:13:15.000Z</time>
      </trkpt>
      <trkpt lat="48.71315" lon="1.99331">
        <ele>171.82231140137</ele>
        <time>2016-09-22T09:13:18.000Z</time>
      </trkpt>
      <trkpt lat="48.71311" lon="1.99329">
        <ele>171.57473754883</ele>
        <time>2016-09-22T09:13:20.000Z</time>
      </trkpt>
      <trkpt lat="48.71309" lon="1.99327">
        <ele>171.29098510742</ele>
        <time>2016-09-22T09:13:22.000Z</time>
      </trkpt>
      <trkpt lat="48.71306" lon="1.99325">
        <ele>171.00602722168</ele>
        <time>2016-09-22T09:13:25.000Z</time>
      </trkpt>
      <trkpt lat="48.71303" lon="1.99321">
        <ele>170.73937988281</ele>
        <time>2016-09-22T09:13:28.000Z</time>
      </trkpt>
      <trkpt lat="48.71301" lon="1.99318">
        <ele>170.48512268066</ele>
        <time>2016-09-22T09:13:31.000Z</time>
      </trkpt>
      <trkpt lat="48.71299" lon="1.99316">
        <ele>170.23355102539</ele>
        <time>2016-09-22T09:13:33.000Z</time>
      </trkpt>
      <trkpt lat="48.71296" lon="1.99314">
        <ele>169.96784973145</ele>
        <time>2016-09-22T09:13:36.000Z</time>
      </trkpt>
      <trkpt lat="48.71291" lon="1.99311">
        <ele>169.66204833984</ele>
        <time>2016-09-22T09:13:40.000Z</time>
      </trkpt>
      <trkpt lat="48.71289" lon="1.99307">
        <ele>169.34355163574</ele>
        <time>2016-09-22T09:13:47.000Z</time>
      </trkpt>
      <trkpt lat="48.71285" lon="1.99302">
        <ele>168.9573059082</ele>
        <time>2016-09-22T09:13:50.000Z</time>
      </trkpt>
      <trkpt lat="48.71283" lon="1.99299">
        <ele>168.5612487793</ele>
        <time>2016-09-22T09:13:52.000Z</time>
      </trkpt>
      <trkpt lat="48.71279" lon="1.99295">
        <ele>168.1099395752</ele>
        <time>2016-09-22T09:13:55.000Z</time>
      </trkpt>
      <trkpt lat="48.71277" lon="1.99292">
        <ele>167.68194580078</ele>
        <time>2016-09-22T09:13:57.000Z</time>
      </trkpt>
      <trkpt lat="48.71275" lon="1.9929">
        <ele>167.25927734375</ele>
        <time>2016-09-22T09:13:59.000Z</time>
      </trkpt>
      <trkpt lat="48.71271" lon="1.99286">
        <ele>166.84014892578</ele>
        <time>2016-09-22T09:14:02.000Z</time>
      </trkpt>
      <trkpt lat="48.71267" lon="1.99283">
        <ele>166.37142944336</ele>
        <time>2016-09-22T09:14:05.000Z</time>
      </trkpt>
      <trkpt lat="48.71264" lon="1.99282">
        <ele>165.95039367676</ele>
        <time>2016-09-22T09:14:07.000Z</time>
      </trkpt>
      <trkpt lat="48.71263" lon="1.99282">
        <ele>165.57902526855</ele>
        <time>2016-09-22T09:14:09.000Z</time>
      </trkpt>
      <trkpt lat="48.7126" lon="1.99279">
        <ele>165.19271850586</ele>
        <time>2016-09-22T09:14:16.000Z</time>
      </trkpt>
      <trkpt lat="48.71259" lon="1.99278">
        <ele>164.88613891602</ele>
        <time>2016-09-22T09:14:19.000Z</time>
      </trkpt>
      <trkpt lat="48.71259" lon="1.99276">
        <ele>164.64874267578</ele>
        <time>2016-09-22T09:14:21.000Z</time>
      </trkpt>
      <trkpt lat="48.71259" lon="1.99274">
        <ele>164.4278717041</ele>
        <time>2016-09-22T09:14:24.000Z</time>
      </trkpt>
      <trkpt lat="48.71258" lon="1.99271">
        <ele>164.15405273438</ele>
        <time>2016-09-22T09:14:26.000Z</time>
      </trkpt>
      <trkpt lat="48.71257" lon="1.9927">
        <ele>163.93264770508</ele>
        <time>2016-09-22T09:14:29.000Z</time>
      </trkpt>
      <trkpt lat="48.71254" lon="1.99266">
        <ele>163.61560058594</ele>
        <time>2016-09-22T09:14:48.000Z</time>
      </trkpt>
      <trkpt lat="48.71253" lon="1.9926">
        <ele>163.22200012207</ele>
        <time>2016-09-22T09:14:51.000Z</time>
      </trkpt>
      <trkpt lat="48.71251" lon="1.99254">
        <ele>162.70935058594</ele>
        <time>2016-09-22T09:14:54.000Z</time>
      </trkpt>
      <trkpt lat="48.71248" lon="1.99248">
        <ele>162.02816772461</ele>
        <time>2016-09-22T09:14:56.000Z</time>
      </trkpt>
      <trkpt lat="48.71246" lon="1.99244">
        <ele>161.15495300293</ele>
        <time>2016-09-22T09:14:58.000Z</time>
      </trkpt>
      <trkpt lat="48.71243" lon="1.99238">
        <ele>160.13320922852</ele>
        <time>2016-09-22T09:15:01.000Z</time>
      </trkpt>
      <trkpt lat="48.7124" lon="1.99233">
        <ele>158.95820617676</ele>
        <time>2016-09-22T09:15:04.000Z</time>
      </trkpt>
      <trkpt lat="48.71238" lon="1.99226">
        <ele>157.66845703125</ele>
        <time>2016-09-22T09:15:07.000Z</time>
      </trkpt>
      <trkpt lat="48.71236" lon="1.99224">
        <ele>156.5340423584</ele>
        <time>2016-09-22T09:15:09.000Z</time>
      </trkpt>
      <trkpt lat="48.71233" lon="1.99222">
        <ele>155.38442993164</ele>
        <time>2016-09-22T09:15:15.000Z</time>
      </trkpt>
      <trkpt lat="48.71232" lon="1.99228">
        <ele>154.54330444336</ele>
        <time>2016-09-22T09:15:18.000Z</time>
      </trkpt>
      <trkpt lat="48.7123" lon="1.99231">
        <ele>153.95539855957</ele>
        <time>2016-09-22T09:15:20.000Z</time>
      </trkpt>
      <trkpt lat="48.71228" lon="1.99233">
        <ele>153.5598449707</ele>
        <time>2016-09-22T09:15:22.000Z</time>
      </trkpt>
      <trkpt lat="48.71227" lon="1.99235">
        <ele>153.18745422363</ele>
        <time>2016-09-22T09:15:25.000Z</time>
      </trkpt>
      <trkpt lat="48.71225" lon="1.99238">
        <ele>153.00791931152</ele>
        <time>2016-09-22T09:15:27.000Z</time>
      </trkpt>
      <trkpt lat="48.71224" lon="1.99242">
        <ele>152.81211853027</ele>
        <time>2016-09-22T09:15:29.000Z</time>
      </trkpt>
      <trkpt lat="48.71223" lon="1.99248">
        <ele>152.68017578125</ele>
        <time>2016-09-22T09:15:32.000Z</time>
      </trkpt>
      <trkpt lat="48.71223" lon="1.99252">
        <ele>152.68399047852</ele>
        <time>2016-09-22T09:15:34.000Z</time>
      </trkpt>
      <trkpt lat="48.71222" lon="1.99256">
        <ele>152.77575683594</ele>
        <time>2016-09-22T09:15:36.000Z</time>
      </trkpt>
      <trkpt lat="48.7122" lon="1.99259">
        <ele>152.87780761719</ele>
        <time>2016-09-22T09:15:39.000Z</time>
      </trkpt>
      <trkpt lat="48.71217" lon="1.99263">
        <ele>152.8671875</ele>
        <time>2016-09-22T09:15:42.000Z</time>
      </trkpt>
      <trkpt lat="48.71213" lon="1.99269">
        <ele>152.66079711914</ele>
        <time>2016-09-22T09:15:45.000Z</time>
      </trkpt>
      <trkpt lat="48.71209" lon="1.99275">
        <ele>152.31225585938</ele>
        <time>2016-09-22T09:15:48.000Z</time>
      </trkpt>
      <trkpt lat="48.71207" lon="1.99277">
        <ele>151.87739562988</ele>
        <time>2016-09-22T09:15:51.000Z</time>
      </trkpt>
      <trkpt lat="48.71204" lon="1.9928">
        <ele>151.32983398438</ele>
        <time>2016-09-22T09:15:54.000Z</time>
      </trkpt>
      <trkpt lat="48.71202" lon="1.99279">
        <ele>150.78848266602</ele>
        <time>2016-09-22T09:15:56.000Z</time>
      </trkpt>
      <trkpt lat="48.71201" lon="1.99279">
        <ele>150.2564239502</ele>
        <time>2016-09-22T09:15:58.000Z</time>
      </trkpt>
      <trkpt lat="48.71197" lon="1.99278">
        <ele>149.59254455566</ele>
        <time>2016-09-22T09:16:01.000Z</time>
      </trkpt>
      <trkpt lat="48.71192" lon="1.99281">
        <ele>148.74890136719</ele>
        <time>2016-09-22T09:16:04.000Z</time>
      </trkpt>
      <trkpt lat="48.71186" lon="1.99283">
        <ele>147.78108215332</ele>
        <time>2016-09-22T09:16:07.000Z</time>
      </trkpt>
      <trkpt lat="48.71183" lon="1.99283">
        <ele>146.70101928711</ele>
        <time>2016-09-22T09:16:09.000Z</time>
      </trkpt>
      <trkpt lat="48.71179" lon="1.99284">
        <ele>145.54837036133</ele>
        <time>2016-09-22T09:16:12.000Z</time>
      </trkpt>
      <trkpt lat="48.71178" lon="1.99285">
        <ele>144.54804992676</ele>
        <time>2016-09-22T09:16:15.000Z</time>
      </trkpt>
      <trkpt lat="48.71177" lon="1.99284">
        <ele>143.7239074707</ele>
        <time>2016-09-22T09:16:17.000Z</time>
      </trkpt>
      <trkpt lat="48.71175" lon="1.99283">
        <ele>143.03623962402</ele>
        <time>2016-09-22T09:16:20.000Z</time>
      </trkpt>
      <trkpt lat="48.71174" lon="1.99282">
        <ele>142.48698425293</ele>
        <time>2016-09-22T09:16:23.000Z</time>
      </trkpt>
      <trkpt lat="48.71173" lon="1.99281">
        <ele>142.0783996582</ele>
        <time>2016-09-22T09:16:25.000Z</time>
      </trkpt>
      <trkpt lat="48.71172" lon="1.99284">
        <ele>141.73300170898</ele>
        <time>2016-09-22T09:16:28.000Z</time>
      </trkpt>
      <trkpt lat="48.7117" lon="1.99288">
        <ele>141.43618774414</ele>
        <time>2016-09-22T09:16:31.000Z</time>
      </trkpt>
      <trkpt lat="48.71168" lon="1.9929">
        <ele>141.18489074707</ele>
        <time>2016-09-22T09:16:33.000Z</time>
      </trkpt>
      <trkpt lat="48.71163" lon="1.99295">
        <ele>140.84530639648</ele>
        <time>2016-09-22T09:16:36.000Z</time>
      </trkpt>
      <trkpt lat="48.7116" lon="1.99298">
        <ele>140.4755859375</ele>
        <time>2016-09-22T09:16:38.000Z</time>
      </trkpt>
      <trkpt lat="48.71159" lon="1.993">
        <ele>140.0909576416</ele>
        <time>2016-09-22T09:16:40.000Z</time>
      </trkpt>
      <trkpt lat="48.71155" lon="1.99302">
        <ele>139.55351257324</ele>
        <time>2016-09-22T09:16:43.000Z</time>
      </trkpt>
      <trkpt lat="48.71149" lon="1.99302">
        <ele>138.81541442871</ele>
        <time>2016-09-22T09:16:45.000Z</time>
      </trkpt>
      <trkpt lat="48.71146" lon="1.99302">
        <ele>138.03332519531</ele>
        <time>2016-09-22T09:16:48.000Z</time>
      </trkpt>
      <trkpt lat="48.71143" lon="1.99303">
        <ele>137.20024108887</ele>
        <time>2016-09-22T09:16:51.000Z</time>
      </trkpt>
      <trkpt lat="48.7114" lon="1.99305">
        <ele>136.27993774414</ele>
        <time>2016-09-22T09:16:54.000Z</time>
      </trkpt>
      <trkpt lat="48.71138" lon="1.99306">
        <ele>135.44619750977</ele>
        <time>2016-09-22T09:16:57.000Z</time>
      </trkpt>
      <trkpt lat="48.71136" lon="1.99305">
        <ele>134.79685974121</ele>
        <time>2016-09-22T09:16:59.000Z</time>
      </trkpt>
      <trkpt lat="48.71134" lon="1.99304">
        <ele>134.21438598633</ele>
        <time>2016-09-22T09:17:02.000Z</time>
      </trkpt>
      <trkpt lat="48.71133" lon="1.99302">
        <ele>133.67239379883</ele>
        <time>2016-09-22T09:17:04.000Z</time>
      </trkpt>
      <trkpt lat="48.7113" lon="1.99299">
        <ele>133.01159667969</ele>
        <time>2016-09-22T09:17:07.000Z</time>
      </trkpt>
      <trkpt lat="48.71129" lon="1.99298">
        <ele>132.34436035156</ele>
        <time>2016-09-22T09:17:09.000Z</time>
      </trkpt>
      <trkpt lat="48.71128" lon="1.99298">
        <ele>131.71200561523</ele>
        <time>2016-09-22T09:17:12.000Z</time>
      </trkpt>
      <trkpt lat="48.71125" lon="1.99299">
        <ele>131.1411895752</ele>
        <time>2016-09-22T09:17:15.000Z</time>
      </trkpt>
      <trkpt lat="48.71124" lon="1.99301">
        <ele>130.63578796387</ele>
        <time>2016-09-22T09:17:18.000Z</time>
      </trkpt>
      <trkpt lat="48.71122" lon="1.99305">
        <ele>130.36679077148</ele>
        <time>2016-09-22T09:17:23.000Z</time>
      </trkpt>
      <trkpt lat="48.71119" lon="1.99308">
        <ele>130.08671569824</ele>
        <time>2016-09-22T09:17:26.000Z</time>
      </trkpt>
      <trkpt lat="48.71117" lon="1.99309">
        <ele>129.76286315918</ele>
        <time>2016-09-22T09:17:28.000Z</time>
      </trkpt>
      <trkpt lat="48.71114" lon="1.99313">
        <ele>129.48304748535</ele>
        <time>2016-09-22T09:17:31.000Z</time>
      </trkpt>
      <trkpt lat="48.71113" lon="1.99316">
        <ele>129.2585144043</ele>
        <time>2016-09-22T09:17:34.000Z</time>
      </trkpt>
      <trkpt lat="48.71114" lon="1.9932">
        <ele>129.19125366211</ele>
        <time>2016-09-22T09:17:37.000Z</time>
      </trkpt>
      <trkpt lat="48.71114" lon="1.99325">
        <ele>129.32316589355</ele>
        <time>2016-09-22T09:17:40.000Z</time>
      </trkpt>
      <trkpt lat="48.71114" lon="1.99326">
        <ele>129.5654296875</ele>
        <time>2016-09-22T09:17:42.000Z</time>
      </trkpt>
      <trkpt lat="48.71114" lon="1.99331">
        <ele>129.96987915039</ele>
        <time>2016-09-22T09:17:45.000Z</time>
      </trkpt>
      <trkpt lat="48.71114" lon="1.99338">
        <ele>130.54113769531</ele>
        <time>2016-09-22T09:17:48.000Z</time>
      </trkpt>
      <trkpt lat="48.71112" lon="1.99344">
        <ele>131.08110046387</ele>
        <time>2016-09-22T09:17:51.000Z</time>
      </trkpt>
      <trkpt lat="48.71111" lon="1.99346">
        <ele>131.53671264648</ele>
        <time>2016-09-22T09:17:53.000Z</time>
      </trkpt>
      <trkpt lat="48.7111" lon="1.99351">
        <ele>132.08432006836</ele>
        <time>2016-09-22T09:17:56.000Z</time>
      </trkpt>
      <trkpt lat="48.71109" lon="1.99352">
        <ele>132.50335693359</ele>
        <time>2016-09-22T09:18:00.000Z</time>
      </trkpt>
      <trkpt lat="48.71106" lon="1.99354">
        <ele>132.62963867188</ele>
        <time>2016-09-22T09:18:03.000Z</time>
      </trkpt>
      <trkpt lat="48.71103" lon="1.99354">
        <ele>132.45153808594</ele>
        <time>2016-09-22T09:18:05.000Z</time>
      </trkpt>
      <trkpt lat="48.71099" lon="1.99353">
        <ele>132.04766845703</ele>
        <time>2016-09-22T09:18:07.000Z</time>
      </trkpt>
      <trkpt lat="48.71096" lon="1.9935">
        <ele>131.27819824219</ele>
        <time>2016-09-22T09:18:10.000Z</time>
      </trkpt>
      <trkpt lat="48.71093" lon="1.99349">
        <ele>130.30206298828</ele>
        <time>2016-09-22T09:18:12.000Z</time>
      </trkpt>
      <trkpt lat="48.71089" lon="1.99349">
        <ele>129.23138427734</ele>
        <time>2016-09-22T09:18:15.000Z</time>
      </trkpt>
      <trkpt lat="48.71087" lon="1.99347">
        <ele>128.14685058594</ele>
        <time>2016-09-22T09:18:17.000Z</time>
      </trkpt>
      <trkpt lat="48.71084" lon="1.99346">
        <ele>127.14129638672</ele>
        <time>2016-09-22T09:18:19.000Z</time>
      </trkpt>
      <trkpt lat="48.71084" lon="1.99339">
        <ele>126.16546630859</ele>
        <time>2016-09-22T09:18:23.000Z</time>
      </trkpt>
      <trkpt lat="48.71082" lon="1.99335">
        <ele>125.12747955322</ele>
        <time>2016-09-22T09:18:31.000Z</time>
      </trkpt>
      <trkpt lat="48.71079" lon="1.99336">
        <ele>124.21760559082</ele>
        <time>2016-09-22T09:18:34.000Z</time>
      </trkpt>
      <trkpt lat="48.71077" lon="1.99339">
        <ele>123.51774597168</ele>
        <time>2016-09-22T09:18:37.000Z</time>
      </trkpt>
      <trkpt lat="48.71075" lon="1.99344">
        <ele>123.00016784668</ele>
        <time>2016-09-22T09:18:40.000Z</time>
      </trkpt>
      <trkpt lat="48.71076" lon="1.99348">
        <ele>122.88697814941</ele>
        <time>2016-09-22T09:18:43.000Z</time>
      </trkpt>
      <trkpt lat="48.71077" lon="1.99351">
        <ele>123.15795898438</ele>
        <time>2016-09-22T09:18:46.000Z</time>
      </trkpt>
      <trkpt lat="48.71076" lon="1.99353">
        <ele>123.56513977051</ele>
        <time>2016-09-22T09:18:51.000Z</time>
      </trkpt>
      <trkpt lat="48.71074" lon="1.99354">
        <ele>123.89003753662</ele>
        <time>2016-09-22T09:18:53.000Z</time>
      </trkpt>
      <trkpt lat="48.71072" lon="1.99356">
        <ele>124.08394622803</ele>
        <time>2016-09-22T09:18:55.000Z</time>
      </trkpt>
      <trkpt lat="48.71068" lon="1.99356">
        <ele>123.93811035156</ele>
        <time>2016-09-22T09:18:58.000Z</time>
      </trkpt>
      <trkpt lat="48.71066" lon="1.99355">
        <ele>123.54194641113</ele>
        <time>2016-09-22T09:19:00.000Z</time>
      </trkpt>
      <trkpt lat="48.71062" lon="1.99351">
        <ele>122.77242279053</ele>
        <time>2016-09-22T09:19:03.000Z</time>
      </trkpt>
      <trkpt lat="48.71061" lon="1.99349">
        <ele>121.9222869873</ele>
        <time>2016-09-22T09:19:05.000Z</time>
      </trkpt>
      <trkpt lat="48.71059" lon="1.99351">
        <ele>121.14994049072</ele>
        <time>2016-09-22T09:19:08.000Z</time>
      </trkpt>
      <trkpt lat="48.71056" lon="1.99353">
        <ele>120.46395111084</ele>
        <time>2016-09-22T09:19:11.000Z</time>
      </trkpt>
      <trkpt lat="48.71054" lon="1.99353">
        <ele>119.78833007812</ele>
        <time>2016-09-22T09:19:13.000Z</time>
      </trkpt>
      <trkpt lat="48.71052" lon="1.99354">
        <ele>119.39154052734</ele>
        <time>2016-09-22T09:19:15.000Z</time>
      </trkpt>
      <trkpt lat="48.71051" lon="1.99356">
        <ele>119.13217926025</ele>
        <time>2016-09-22T09:19:17.000Z</time>
      </trkpt>
      <trkpt lat="48.71049" lon="1.99357">
        <ele>118.76208496094</ele>
        <time>2016-09-22T09:19:20.000Z</time>
      </trkpt>
      <trkpt lat="48.71046" lon="1.99356">
        <ele>118.37898254395</ele>
        <time>2016-09-22T09:19:22.000Z</time>
      </trkpt>
      <trkpt lat="48.71043" lon="1.99355">
        <ele>117.87489318848</ele>
        <time>2016-09-22T09:19:25.000Z</time>
      </trkpt>
      <trkpt lat="48.71041" lon="1.99356">
        <ele>117.38191223145</ele>
        <time>2016-09-22T09:19:28.000Z</time>
      </trkpt>
      <trkpt lat="48.7104" lon="1.99356">
        <ele>116.78491210938</ele>
        <time>2016-09-22T09:19:30.000Z</time>
      </trkpt>
      <trkpt lat="48.71036" lon="1.99356">
        <ele>116.13763427734</ele>
        <time>2016-09-22T09:19:33.000Z</time>
      </trkpt>
      <trkpt lat="48.71032" lon="1.99356">
        <ele>115.369972229</ele>
        <time>2016-09-22T09:19:36.000Z</time>
      </trkpt>
      <trkpt lat="48.71028" lon="1.99356">
        <ele>114.67620849609</ele>
        <time>2016-09-22T09:19:39.000Z</time>
      </trkpt>
      <trkpt lat="48.71025" lon="1.99355">
        <ele>113.7977142334</ele>
        <time>2016-09-22T09:19:42.000Z</time>
      </trkpt>
      <trkpt lat="48.71023" lon="1.99354">
        <ele>112.92203521729</ele>
        <time>2016-09-22T09:19:44.000Z</time>
      </trkpt>
      <trkpt lat="48.71019" lon="1.99353">
        <ele>111.97874450684</ele>
        <time>2016-09-22T09:19:47.000Z</time>
      </trkpt>
      <trkpt lat="48.71016" lon="1.99353">
        <ele>111.12544250488</ele>
        <time>2016-09-22T09:19:49.000Z</time>
      </trkpt>
      <trkpt lat="48.71012" lon="1.99351">
        <ele>110.17854309082</ele>
        <time>2016-09-22T09:19:52.000Z</time>
      </trkpt>
      <trkpt lat="48.71009" lon="1.9935">
        <ele>109.26829528809</ele>
        <time>2016-09-22T09:19:54.000Z</time>
      </trkpt>
      <trkpt lat="48.71007" lon="1.99348">
        <ele>108.29551696777</ele>
        <time>2016-09-22T09:19:57.000Z</time>
      </trkpt>
      <trkpt lat="48.71006" lon="1.99345">
        <ele>107.41944885254</ele>
        <time>2016-09-22T09:19:59.000Z</time>
      </trkpt>
      <trkpt lat="48.71006" lon="1.99341">
        <ele>106.59334564209</ele>
        <time>2016-09-22T09:20:01.000Z</time>
      </trkpt>
      <trkpt lat="48.71007" lon="1.99334">
        <ele>105.9285736084</ele>
        <time>2016-09-22T09:20:04.000Z</time>
      </trkpt>
      <trkpt lat="48.71009" lon="1.99329">
        <ele>105.41357421875</ele>
        <time>2016-09-22T09:20:07.000Z</time>
      </trkpt>
      <trkpt lat="48.7101" lon="1.99324">
        <ele>105.03475189209</ele>
        <time>2016-09-22T09:20:10.000Z</time>
      </trkpt>
      <trkpt lat="48.71011" lon="1.9932">
        <ele>104.75788879395</ele>
        <time>2016-09-22T09:20:13.000Z</time>
      </trkpt>
      <trkpt lat="48.71011" lon="1.99313">
        <ele>104.48805236816</ele>
        <time>2016-09-22T09:20:16.000Z</time>
      </trkpt>
      <trkpt lat="48.71012" lon="1.99309">
        <ele>104.26470947266</ele>
        <time>2016-09-22T09:20:19.000Z</time>
      </trkpt>
      <trkpt lat="48.71012" lon="1.99305">
        <ele>104.01165771484</ele>
        <time>2016-09-22T09:20:22.000Z</time>
      </trkpt>
      <trkpt lat="48.71012" lon="1.993">
        <ele>103.67338562012</ele>
        <time>2016-09-22T09:20:25.000Z</time>
      </trkpt>
      <trkpt lat="48.71012" lon="1.99296">
        <ele>103.27561950684</ele>
        <time>2016-09-22T09:20:27.000Z</time>
      </trkpt>
      <trkpt lat="48.71011" lon="1.9929">
        <ele>102.82501220703</ele>
        <time>2016-09-22T09:20:30.000Z</time>
      </trkpt>
      <trkpt lat="48.71011" lon="1.99287">
        <ele>102.37899017334</ele>
        <time>2016-09-22T09:20:32.000Z</time>
      </trkpt>
      <trkpt lat="48.71011" lon="1.99285">
        <ele>101.9818572998</ele>
        <time>2016-09-22T09:20:35.000Z</time>
      </trkpt>
      <trkpt lat="48.71012" lon="1.99281">
        <ele>101.6639251709</ele>
        <time>2016-09-22T09:20:37.000Z</time>
      </trkpt>
      <trkpt lat="48.71014" lon="1.99275">
        <ele>101.42903900146</ele>
        <time>2016-09-22T09:20:40.000Z</time>
      </trkpt>
      <trkpt lat="48.71015" lon="1.99272">
        <ele>101.30598449707</ele>
        <time>2016-09-22T09:20:43.000Z</time>
      </trkpt>
      <trkpt lat="48.71017" lon="1.99269">
        <ele>101.26428985596</ele>
        <time>2016-09-22T09:20:45.000Z</time>
      </trkpt>
      <trkpt lat="48.7102" lon="1.99265">
        <ele>101.27549743652</ele>
        <time>2016-09-22T09:20:48.000Z</time>
      </trkpt>
      <trkpt lat="48.7102" lon="1.99257">
        <ele>101.17185211182</ele>
        <time>2016-09-22T09:20:51.000Z</time>
      </trkpt>
      <trkpt lat="48.7102" lon="1.99252">
        <ele>100.98239898682</ele>
        <time>2016-09-22T09:20:53.000Z</time>
      </trkpt>
      <trkpt lat="48.71021" lon="1.99249">
        <ele>100.78665924072</ele>
        <time>2016-09-22T09:20:55.000Z</time>
      </trkpt>
      <trkpt lat="48.71023" lon="1.99245">
        <ele>100.6291809082</ele>
        <time>2016-09-22T09:20:58.000Z</time>
      </trkpt>
      <trkpt lat="48.71025" lon="1.99242">
        <ele>100.47413635254</ele>
        <time>2016-09-22T09:21:00.000Z</time>
      </trkpt>
      <trkpt lat="48.71027" lon="1.99241">
        <ele>100.56966400146</ele>
        <time>2016-09-22T09:21:02.000Z</time>
      </trkpt>
      <trkpt lat="48.7103" lon="1.99239">
        <ele>100.85738372803</ele>
        <time>2016-09-22T09:21:05.000Z</time>
      </trkpt>
      <trkpt lat="48.71035" lon="1.99238">
        <ele>101.35467529297</ele>
        <time>2016-09-22T09:21:08.000Z</time>
      </trkpt>
      <trkpt lat="48.71037" lon="1.99237">
        <ele>101.84323883057</ele>
        <time>2016-09-22T09:21:10.000Z</time>
      </trkpt>
      <trkpt lat="48.71041" lon="1.99232">
        <ele>102.43044281006</ele>
        <time>2016-09-22T09:21:13.000Z</time>
      </trkpt>
      <trkpt lat="48.71043" lon="1.99229">
        <ele>102.94779968262</ele>
        <time>2016-09-22T09:21:15.000Z</time>
      </trkpt>
      <trkpt lat="48.71046" lon="1.99225">
        <ele>103.41418457031</ele>
        <time>2016-09-22T09:21:18.000Z</time>
      </trkpt>
      <trkpt lat="48.71048" lon="1.99223">
        <ele>103.77223205566</ele>
        <time>2016-09-22T09:21:21.000Z</time>
      </trkpt>
      <trkpt lat="48.71049" lon="1.9922">
        <ele>104.07130432129</ele>
        <time>2016-09-22T09:21:23.000Z</time>
      </trkpt>
      <trkpt lat="48.71051" lon="1.99215">
        <ele>104.23669433594</ele>
        <time>2016-09-22T09:21:26.000Z</time>
      </trkpt>
      <trkpt lat="48.71052" lon="1.99212">
        <ele>104.37516021729</ele>
        <time>2016-09-22T09:21:28.000Z</time>
      </trkpt>
      <trkpt lat="48.71053" lon="1.99209">
        <ele>104.46083068848</ele>
        <time>2016-09-22T09:21:30.000Z</time>
      </trkpt>
      <trkpt lat="48.71054" lon="1.99206">
        <ele>104.50352478027</ele>
        <time>2016-09-22T09:21:32.000Z</time>
      </trkpt>
      <trkpt lat="48.71056" lon="1.99203">
        <ele>104.56758880615</ele>
        <time>2016-09-22T09:21:34.000Z</time>
      </trkpt>
      <trkpt lat="48.71058" lon="1.992">
        <ele>104.657081604</ele>
        <time>2016-09-22T09:21:36.000Z</time>
      </trkpt>
      <trkpt lat="48.71059" lon="1.99197">
        <ele>104.77059173584</ele>
        <time>2016-09-22T09:21:38.000Z</time>
      </trkpt>
      <trkpt lat="48.71061" lon="1.99195">
        <ele>104.88582611084</ele>
        <time>2016-09-22T09:21:40.000Z</time>
      </trkpt>
      <trkpt lat="48.71062" lon="1.9919">
        <ele>104.96649169922</ele>
        <time>2016-09-22T09:21:43.000Z</time>
      </trkpt>
      <trkpt lat="48.71062" lon="1.99187">
        <ele>105.01234436035</ele>
        <time>2016-09-22T09:21:45.000Z</time>
      </trkpt>
      <trkpt lat="48.71064" lon="1.99183">
        <ele>105.02571105957</ele>
        <time>2016-09-22T09:21:48.000Z</time>
      </trkpt>
      <trkpt lat="48.71065" lon="1.9918">
        <ele>105.01124572754</ele>
        <time>2016-09-22T09:21:50.000Z</time>
      </trkpt>
      <trkpt lat="48.71066" lon="1.99176">
        <ele>104.97989654541</ele>
        <time>2016-09-22T09:21:52.000Z</time>
      </trkpt>
      <trkpt lat="48.71067" lon="1.99171">
        <ele>104.92807769775</ele>
        <time>2016-09-22T09:21:55.000Z</time>
      </trkpt>
      <trkpt lat="48.71069" lon="1.99168">
        <ele>104.88854980469</ele>
        <time>2016-09-22T09:21:57.000Z</time>
      </trkpt>
      <trkpt lat="48.71069" lon="1.99163">
        <ele>104.81559753418</ele>
        <time>2016-09-22T09:22:00.000Z</time>
      </trkpt>
      <trkpt lat="48.7107" lon="1.9916">
        <ele>104.71723937988</ele>
        <time>2016-09-22T09:22:02.000Z</time>
      </trkpt>
      <trkpt lat="48.71071" lon="1.99155">
        <ele>104.61429595947</ele>
        <time>2016-09-22T09:22:05.000Z</time>
      </trkpt>
      <trkpt lat="48.71072" lon="1.99149">
        <ele>104.52364349365</ele>
        <time>2016-09-22T09:22:08.000Z</time>
      </trkpt>
      <trkpt lat="48.71073" lon="1.99147">
        <ele>104.41242980957</ele>
        <time>2016-09-22T09:22:10.000Z</time>
      </trkpt>
      <trkpt lat="48.71075" lon="1.99143">
        <ele>104.3232421875</ele>
        <time>2016-09-22T09:22:13.000Z</time>
      </trkpt>
      <trkpt lat="48.71075" lon="1.99137">
        <ele>104.20440673828</ele>
        <time>2016-09-22T09:22:16.000Z</time>
      </trkpt>
      <trkpt lat="48.71075" lon="1.99133">
        <ele>104.05918884277</ele>
        <time>2016-09-22T09:22:18.000Z</time>
      </trkpt>
      <trkpt lat="48.71076" lon="1.99127">
        <ele>103.87231445312</ele>
        <time>2016-09-22T09:22:21.000Z</time>
      </trkpt>
      <trkpt lat="48.71077" lon="1.99124">
        <ele>103.68544006348</ele>
        <time>2016-09-22T09:22:23.000Z</time>
      </trkpt>
      <trkpt lat="48.71078" lon="1.99122">
        <ele>103.51008605957</ele>
        <time>2016-09-22T09:22:25.000Z</time>
      </trkpt>
      <trkpt lat="48.7108" lon="1.99118">
        <ele>103.36594390869</ele>
        <time>2016-09-22T09:22:28.000Z</time>
      </trkpt>
      <trkpt lat="48.71083" lon="1.99114">
        <ele>103.27014160156</ele>
        <time>2016-09-22T09:22:31.000Z</time>
      </trkpt>
      <trkpt lat="48.71083" lon="1.9911">
        <ele>103.17655944824</ele>
        <time>2016-09-22T09:22:33.000Z</time>
      </trkpt>
      <trkpt lat="48.71084" lon="1.99104">
        <ele>103.07308197021</ele>
        <time>2016-09-22T09:22:36.000Z</time>
      </trkpt>
      <trkpt lat="48.71086" lon="1.99099">
        <ele>102.95634460449</ele>
        <time>2016-09-22T09:22:39.000Z</time>
      </trkpt>
      <trkpt lat="48.71087" lon="1.99097">
        <ele>102.92378234863</ele>
        <time>2016-09-22T09:22:41.000Z</time>
      </trkpt>
      <trkpt lat="48.71089" lon="1.99094">
        <ele>102.95320892334</ele>
        <time>2016-09-22T09:22:44.000Z</time>
      </trkpt>
      <trkpt lat="48.7109" lon="1.99089">
        <ele>103.03328704834</ele>
        <time>2016-09-22T09:22:47.000Z</time>
      </trkpt>
      <trkpt lat="48.71092" lon="1.99084">
        <ele>103.13502502441</ele>
        <time>2016-09-22T09:22:50.000Z</time>
      </trkpt>
      <trkpt lat="48.71091" lon="1.99078">
        <ele>103.19230651855</ele>
        <time>2016-09-22T09:22:53.000Z</time>
      </trkpt>
      <trkpt lat="48.71092" lon="1.99072">
        <ele>103.21071624756</ele>
        <time>2016-09-22T09:22:56.000Z</time>
      </trkpt>
      <trkpt lat="48.71093" lon="1.99068">
        <ele>103.17628479004</ele>
        <time>2016-09-22T09:22:58.000Z</time>
      </trkpt>
      <trkpt lat="48.71095" lon="1.99063">
        <ele>103.2536239624</ele>
        <time>2016-09-22T09:23:01.000Z</time>
      </trkpt>
      <trkpt lat="48.71096" lon="1.99062">
        <ele>103.41733551025</ele>
        <time>2016-09-22T09:23:03.000Z</time>
      </trkpt>
      <trkpt lat="48.71099" lon="1.99058">
        <ele>103.7396697998</ele>
        <time>2016-09-22T09:23:06.000Z</time>
      </trkpt>
      <trkpt lat="48.71101" lon="1.99056">
        <ele>104.14998626709</ele>
        <time>2016-09-22T09:23:08.000Z</time>
      </trkpt>
      <trkpt lat="48.71104" lon="1.99052">
        <ele>104.67530822754</ele>
        <time>2016-09-22T09:23:11.000Z</time>
      </trkpt>
      <trkpt lat="48.71106" lon="1.99047">
        <ele>105.14809417725</ele>
        <time>2016-09-22T09:23:14.000Z</time>
      </trkpt>
      <trkpt lat="48.71106" lon="1.99044">
        <ele>105.52585601807</ele>
        <time>2016-09-22T09:23:16.000Z</time>
      </trkpt>
      <trkpt lat="48.71106" lon="1.9904">
        <ele>105.77878570557</ele>
        <time>2016-09-22T09:23:18.000Z</time>
      </trkpt>
      <trkpt lat="48.71107" lon="1.99035">
        <ele>105.93420410156</ele>
        <time>2016-09-22T09:23:21.000Z</time>
      </trkpt>
      <trkpt lat="48.71107" lon="1.99032">
        <ele>105.99084472656</ele>
        <time>2016-09-22T09:23:23.000Z</time>
      </trkpt>
      <trkpt lat="48.71108" lon="1.9903">
        <ele>106.02032470703</ele>
        <time>2016-09-22T09:23:25.000Z</time>
      </trkpt>
      <trkpt lat="48.71109" lon="1.99026">
        <ele>106.08327484131</ele>
        <time>2016-09-22T09:23:28.000Z</time>
      </trkpt>
      <trkpt lat="48.7111" lon="1.99023">
        <ele>106.16579437256</ele>
        <time>2016-09-22T09:23:30.000Z</time>
      </trkpt>
      <trkpt lat="48.71112" lon="1.99019">
        <ele>106.32252502441</ele>
        <time>2016-09-22T09:23:33.000Z</time>
      </trkpt>
      <trkpt lat="48.71113" lon="1.99015">
        <ele>106.49157714844</ele>
        <time>2016-09-22T09:23:36.000Z</time>
      </trkpt>
      <trkpt lat="48.71115" lon="1.99014">
        <ele>106.69822692871</ele>
        <time>2016-09-22T09:23:38.000Z</time>
      </trkpt>
      <trkpt lat="48.71118" lon="1.99014">
        <ele>107.01723480225</ele>
        <time>2016-09-22T09:23:41.000Z</time>
      </trkpt>
      <trkpt lat="48.71119" lon="1.99014">
        <ele>107.40566253662</ele>
        <time>2016-09-22T09:23:43.000Z</time>
      </trkpt>
      <trkpt lat="48.7112" lon="1.9901">
        <ele>107.70137023926</ele>
        <time>2016-09-22T09:23:46.000Z</time>
      </trkpt>
      <trkpt lat="48.7112" lon="1.99007">
        <ele>107.9781036377</ele>
        <time>2016-09-22T09:23:48.000Z</time>
      </trkpt>
      <trkpt lat="48.71121" lon="1.99002">
        <ele>108.18737792969</ele>
        <time>2016-09-22T09:23:51.000Z</time>
      </trkpt>
      <trkpt lat="48.71121" lon="1.98998">
        <ele>108.23746490479</ele>
        <time>2016-09-22T09:23:53.000Z</time>
      </trkpt>
      <trkpt lat="48.71122" lon="1.98993">
        <ele>108.19736480713</ele>
        <time>2016-09-22T09:23:56.000Z</time>
      </trkpt>
      <trkpt lat="48.71124" lon="1.98989">
        <ele>108.18599700928</ele>
        <time>2016-09-22T09:23:59.000Z</time>
      </trkpt>
      <trkpt lat="48.71125" lon="1.98987">
        <ele>108.16784667969</ele>
        <time>2016-09-22T09:24:01.000Z</time>
      </trkpt>
      <trkpt lat="48.71126" lon="1.98985">
        <ele>108.20046234131</ele>
        <time>2016-09-22T09:24:04.000Z</time>
      </trkpt>
      <trkpt lat="48.71128" lon="1.98982">
        <ele>108.31181335449</ele>
        <time>2016-09-22T09:24:07.000Z</time>
      </trkpt>
      <trkpt lat="48.71131" lon="1.98978">
        <ele>108.502784729</ele>
        <time>2016-09-22T09:24:10.000Z</time>
      </trkpt>
      <trkpt lat="48.71133" lon="1.98976">
        <ele>108.7501373291</ele>
        <time>2016-09-22T09:24:13.000Z</time>
      </trkpt>
      <trkpt lat="48.71136" lon="1.98973">
        <ele>109.03542327881</ele>
        <time>2016-09-22T09:24:16.000Z</time>
      </trkpt>
      <trkpt lat="48.71138" lon="1.9897">
        <ele>109.32698059082</ele>
        <time>2016-09-22T09:24:19.000Z</time>
      </trkpt>
      <trkpt lat="48.71139" lon="1.98968">
        <ele>109.57492828369</ele>
        <time>2016-09-22T09:24:21.000Z</time>
      </trkpt>
      <trkpt lat="48.7114" lon="1.98965">
        <ele>109.73881530762</ele>
        <time>2016-09-22T09:24:23.000Z</time>
      </trkpt>
      <trkpt lat="48.71141" lon="1.9896">
        <ele>109.83084869385</ele>
        <time>2016-09-22T09:24:26.000Z</time>
      </trkpt>
      <trkpt lat="48.71143" lon="1.98958">
        <ele>109.91206359863</ele>
        <time>2016-09-22T09:24:29.000Z</time>
      </trkpt>
      <trkpt lat="48.71145" lon="1.98953">
        <ele>109.95595550537</ele>
        <time>2016-09-22T09:24:32.000Z</time>
      </trkpt>
      <trkpt lat="48.71147" lon="1.9895">
        <ele>110.0291595459</ele>
        <time>2016-09-22T09:24:35.000Z</time>
      </trkpt>
      <trkpt lat="48.71149" lon="1.98948">
        <ele>110.17189788818</ele>
        <time>2016-09-22T09:24:38.000Z</time>
      </trkpt>
      <trkpt lat="48.71151" lon="1.98944">
        <ele>110.31308746338</ele>
        <time>2016-09-22T09:24:41.000Z</time>
      </trkpt>
      <trkpt lat="48.71152" lon="1.98941">
        <ele>110.3948135376</ele>
        <time>2016-09-22T09:24:43.000Z</time>
      </trkpt>
      <trkpt lat="48.71152" lon="1.98937">
        <ele>110.42155456543</ele>
        <time>2016-09-22T09:24:46.000Z</time>
      </trkpt>
      <trkpt lat="48.71154" lon="1.98935">
        <ele>110.45558166504</ele>
        <time>2016-09-22T09:24:48.000Z</time>
      </trkpt>
      <trkpt lat="48.71155" lon="1.98933">
        <ele>110.43056488037</ele>
        <time>2016-09-22T09:24:50.000Z</time>
      </trkpt>
      <trkpt lat="48.71155" lon="1.9893">
        <ele>110.36240386963</ele>
        <time>2016-09-22T09:24:53.000Z</time>
      </trkpt>
      <trkpt lat="48.71157" lon="1.98929">
        <ele>110.36079406738</ele>
        <time>2016-09-22T09:24:55.000Z</time>
      </trkpt>
      <trkpt lat="48.7116" lon="1.98926">
        <ele>110.4549407959</ele>
        <time>2016-09-22T09:24:58.000Z</time>
      </trkpt>
      <trkpt lat="48.71161" lon="1.98922">
        <ele>110.46440124512</ele>
        <time>2016-09-22T09:25:01.000Z</time>
      </trkpt>
      <trkpt lat="48.71162" lon="1.9892">
        <ele>110.48310852051</ele>
        <time>2016-09-22T09:25:03.000Z</time>
      </trkpt>
      <trkpt lat="48.71162" lon="1.98916">
        <ele>110.4881439209</ele>
        <time>2016-09-22T09:25:06.000Z</time>
      </trkpt>
      <trkpt lat="48.71162" lon="1.98911">
        <ele>110.39532470703</ele>
        <time>2016-09-22T09:25:09.000Z</time>
      </trkpt>
      <trkpt lat="48.71162" lon="1.98908">
        <ele>110.209815979</ele>
        <time>2016-09-22T09:25:12.000Z</time>
      </trkpt>
      <trkpt lat="48.71162" lon="1.98906">
        <ele>110.03623962402</ele>
        <time>2016-09-22T09:25:14.000Z</time>
      </trkpt>
      <trkpt lat="48.71162" lon="1.98901">
        <ele>109.81768798828</ele>
        <time>2016-09-22T09:25:17.000Z</time>
      </trkpt>
      <trkpt lat="48.71162" lon="1.98895">
        <ele>109.58863830566</ele>
        <time>2016-09-22T09:25:20.000Z</time>
      </trkpt>
      <trkpt lat="48.71165" lon="1.98891">
        <ele>109.41994476318</ele>
        <time>2016-09-22T09:25:23.000Z</time>
      </trkpt>
      <trkpt lat="48.71167" lon="1.98888">
        <ele>109.32752990723</ele>
        <time>2016-09-22T09:25:26.000Z</time>
      </trkpt>
      <trkpt lat="48.71168" lon="1.98886">
        <ele>109.3004989624</ele>
        <time>2016-09-22T09:25:28.000Z</time>
      </trkpt>
      <trkpt lat="48.71173" lon="1.98885">
        <ele>109.56056976318</ele>
        <time>2016-09-22T09:25:31.000Z</time>
      </trkpt>
      <trkpt lat="48.71179" lon="1.98886">
        <ele>110.13342285156</ele>
        <time>2016-09-22T09:25:34.000Z</time>
      </trkpt>
      <trkpt lat="48.7118" lon="1.98885">
        <ele>110.760597229</ele>
        <time>2016-09-22T09:25:36.000Z</time>
      </trkpt>
      <trkpt lat="48.71182" lon="1.98883">
        <ele>111.4084854126</ele>
        <time>2016-09-22T09:25:38.000Z</time>
      </trkpt>
      <trkpt lat="48.71185" lon="1.98878">
        <ele>112.10066223145</ele>
        <time>2016-09-22T09:25:41.000Z</time>
      </trkpt>
      <trkpt lat="48.71186" lon="1.98876">
        <ele>112.55548095703</ele>
        <time>2016-09-22T09:25:43.000Z</time>
      </trkpt>
      <trkpt lat="48.71186" lon="1.98872">
        <ele>112.73143005371</ele>
        <time>2016-09-22T09:25:45.000Z</time>
      </trkpt>
      <trkpt lat="48.71188" lon="1.98869">
        <ele>112.87950134277</ele>
        <time>2016-09-22T09:25:48.000Z</time>
      </trkpt>
      <trkpt lat="48.71189" lon="1.98866">
        <ele>112.98250579834</ele>
        <time>2016-09-22T09:25:50.000Z</time>
      </trkpt>
      <trkpt lat="48.71191" lon="1.98864">
        <ele>113.05477142334</ele>
        <time>2016-09-22T09:25:52.000Z</time>
      </trkpt>
      <trkpt lat="48.71194" lon="1.98861">
        <ele>113.22298431396</ele>
        <time>2016-09-22T09:25:55.000Z</time>
      </trkpt>
      <trkpt lat="48.71196" lon="1.98859">
        <ele>113.44582366943</ele>
        <time>2016-09-22T09:25:57.000Z</time>
      </trkpt>
      <trkpt lat="48.71198" lon="1.98857">
        <ele>113.73752593994</ele>
        <time>2016-09-22T09:26:00.000Z</time>
      </trkpt>
      <trkpt lat="48.71201" lon="1.98853">
        <ele>114.07763671875</ele>
        <time>2016-09-22T09:26:03.000Z</time>
      </trkpt>
      <trkpt lat="48.71203" lon="1.9885">
        <ele>114.42845153809</ele>
        <time>2016-09-22T09:26:05.000Z</time>
      </trkpt>
      <trkpt lat="48.71209" lon="1.9885">
        <ele>114.93334960938</ele>
        <time>2016-09-22T09:26:08.000Z</time>
      </trkpt>
      <trkpt lat="48.7121" lon="1.98844">
        <ele>115.37941741943</ele>
        <time>2016-09-22T09:26:11.000Z</time>
      </trkpt>
      <trkpt lat="48.7121" lon="1.98836">
        <ele>115.60554504395</ele>
        <time>2016-09-22T09:26:14.000Z</time>
      </trkpt>
      <trkpt lat="48.71211" lon="1.98833">
        <ele>115.77777099609</ele>
        <time>2016-09-22T09:26:16.000Z</time>
      </trkpt>
      <trkpt lat="48.71213" lon="1.98831">
        <ele>115.89109802246</ele>
        <time>2016-09-22T09:26:18.000Z</time>
      </trkpt>
      <trkpt lat="48.71215" lon="1.98827">
        <ele>115.78940582275</ele>
        <time>2016-09-22T09:26:21.000Z</time>
      </trkpt>
      <trkpt lat="48.71217" lon="1.98823">
        <ele>115.71626281738</ele>
        <time>2016-09-22T09:26:23.000Z</time>
      </trkpt>
      <trkpt lat="48.71218" lon="1.98821">
        <ele>115.76956939697</ele>
        <time>2016-09-22T09:26:25.000Z</time>
      </trkpt>
      <trkpt lat="48.7122" lon="1.98817">
        <ele>115.81883239746</ele>
        <time>2016-09-22T09:26:28.000Z</time>
      </trkpt>
      <trkpt lat="48.71221" lon="1.98815">
        <ele>115.86875152588</ele>
        <time>2016-09-22T09:26:30.000Z</time>
      </trkpt>
      <trkpt lat="48.71222" lon="1.98811">
        <ele>115.87741851807</ele>
        <time>2016-09-22T09:26:33.000Z</time>
      </trkpt>
      <trkpt lat="48.71224" lon="1.98809">
        <ele>115.9261932373</ele>
        <time>2016-09-22T09:26:35.000Z</time>
      </trkpt>
      <trkpt lat="48.71225" lon="1.98806">
        <ele>115.94664001465</ele>
        <time>2016-09-22T09:26:37.000Z</time>
      </trkpt>
      <trkpt lat="48.71228" lon="1.98801">
        <ele>115.96486663818</ele>
        <time>2016-09-22T09:26:40.000Z</time>
      </trkpt>
      <trkpt lat="48.71228" lon="1.98799">
        <ele>115.97003173828</ele>
        <time>2016-09-22T09:26:42.000Z</time>
      </trkpt>
      <trkpt lat="48.71229" lon="1.98796">
        <ele>115.95756530762</ele>
        <time>2016-09-22T09:26:44.000Z</time>
      </trkpt>
      <trkpt lat="48.7123" lon="1.9879">
        <ele>115.82350158691</ele>
        <time>2016-09-22T09:26:47.000Z</time>
      </trkpt>
      <trkpt lat="48.71231" lon="1.98786">
        <ele>115.66867828369</ele>
        <time>2016-09-22T09:26:50.000Z</time>
      </trkpt>
      <trkpt lat="48.71233" lon="1.98784">
        <ele>115.53549957275</ele>
        <time>2016-09-22T09:26:52.000Z</time>
      </trkpt>
      <trkpt lat="48.71235" lon="1.9878">
        <ele>115.41505432129</ele>
        <time>2016-09-22T09:26:55.000Z</time>
      </trkpt>
      <trkpt lat="48.71236" lon="1.98776">
        <ele>115.30757141113</ele>
        <time>2016-09-22T09:26:58.000Z</time>
      </trkpt>
      <trkpt lat="48.71239" lon="1.98773">
        <ele>115.33154296875</ele>
        <time>2016-09-22T09:27:01.000Z</time>
      </trkpt>
      <trkpt lat="48.71244" lon="1.9877">
        <ele>115.51539611816</ele>
        <time>2016-09-22T09:27:04.000Z</time>
      </trkpt>
      <trkpt lat="48.71246" lon="1.98769">
        <ele>115.6961517334</ele>
        <time>2016-09-22T09:27:07.000Z</time>
      </trkpt>
      <trkpt lat="48.71246" lon="1.98764">
        <ele>115.77587890625</ele>
        <time>2016-09-22T09:27:09.000Z</time>
      </trkpt>
      <trkpt lat="48.71247" lon="1.98761">
        <ele>115.83972167969</ele>
        <time>2016-09-22T09:27:11.000Z</time>
      </trkpt>
      <trkpt lat="48.7125" lon="1.98759">
        <ele>115.91664886475</ele>
        <time>2016-09-22T09:27:14.000Z</time>
      </trkpt>
      <trkpt lat="48.71251" lon="1.98756">
        <ele>115.89833831787</ele>
        <time>2016-09-22T09:27:16.000Z</time>
      </trkpt>
      <trkpt lat="48.71252" lon="1.9875">
        <ele>115.7891998291</ele>
        <time>2016-09-22T09:27:19.000Z</time>
      </trkpt>
      <trkpt lat="48.71253" lon="1.98747">
        <ele>115.73233795166</ele>
        <time>2016-09-22T09:27:21.000Z</time>
      </trkpt>
      <trkpt lat="48.71254" lon="1.98744">
        <ele>115.72536468506</ele>
        <time>2016-09-22T09:27:24.000Z</time>
      </trkpt>
      <trkpt lat="48.71257" lon="1.98741">
        <ele>115.68562316895</ele>
        <time>2016-09-22T09:27:27.000Z</time>
      </trkpt>
      <trkpt lat="48.71258" lon="1.98734">
        <ele>115.56091308594</ele>
        <time>2016-09-22T09:27:30.000Z</time>
      </trkpt>
      <trkpt lat="48.71259" lon="1.9873">
        <ele>115.4434967041</ele>
        <time>2016-09-22T09:27:33.000Z</time>
      </trkpt>
      <trkpt lat="48.71258" lon="1.98725">
        <ele>115.22804260254</ele>
        <time>2016-09-22T09:27:35.000Z</time>
      </trkpt>
      <trkpt lat="48.71259" lon="1.98719">
        <ele>114.88332366943</ele>
        <time>2016-09-22T09:27:38.000Z</time>
      </trkpt>
      <trkpt lat="48.7126" lon="1.98717">
        <ele>114.51495361328</ele>
        <time>2016-09-22T09:27:40.000Z</time>
      </trkpt>
      <trkpt lat="48.71262" lon="1.98713">
        <ele>114.24926757812</ele>
        <time>2016-09-22T09:27:43.000Z</time>
      </trkpt>
      <trkpt lat="48.71263" lon="1.98709">
        <ele>113.99293518066</ele>
        <time>2016-09-22T09:27:45.000Z</time>
      </trkpt>
      <trkpt lat="48.71264" lon="1.98705">
        <ele>113.81911468506</ele>
        <time>2016-09-22T09:27:48.000Z</time>
      </trkpt>
      <trkpt lat="48.71264" lon="1.98699">
        <ele>113.64588928223</ele>
        <time>2016-09-22T09:27:51.000Z</time>
      </trkpt>
      <trkpt lat="48.71266" lon="1.98696">
        <ele>113.48421478271</ele>
        <time>2016-09-22T09:27:54.000Z</time>
      </trkpt>
      <trkpt lat="48.71268" lon="1.98692">
        <ele>113.28072357178</ele>
        <time>2016-09-22T09:27:57.000Z</time>
      </trkpt>
      <trkpt lat="48.7127" lon="1.98691">
        <ele>113.16279602051</ele>
        <time>2016-09-22T09:27:59.000Z</time>
      </trkpt>
      <trkpt lat="48.71272" lon="1.98689">
        <ele>113.17441558838</ele>
        <time>2016-09-22T09:28:01.000Z</time>
      </trkpt>
      <trkpt lat="48.71274" lon="1.98686">
        <ele>113.32789611816</ele>
        <time>2016-09-22T09:28:04.000Z</time>
      </trkpt>
      <trkpt lat="48.71276" lon="1.98684">
        <ele>113.51295471191</ele>
        <time>2016-09-22T09:28:06.000Z</time>
      </trkpt>
      <trkpt lat="48.71278" lon="1.9868">
        <ele>113.70029449463</ele>
        <time>2016-09-22T09:28:09.000Z</time>
      </trkpt>
      <trkpt lat="48.71279" lon="1.98676">
        <ele>113.79339599609</ele>
        <time>2016-09-22T09:28:11.000Z</time>
      </trkpt>
      <trkpt lat="48.7128" lon="1.98672">
        <ele>113.7626953125</ele>
        <time>2016-09-22T09:28:14.000Z</time>
      </trkpt>
      <trkpt lat="48.71281" lon="1.9867">
        <ele>113.73266601562</ele>
        <time>2016-09-22T09:28:16.000Z</time>
      </trkpt>
      <trkpt lat="48.71284" lon="1.98666">
        <ele>113.67153167725</ele>
        <time>2016-09-22T09:28:19.000Z</time>
      </trkpt>
      <trkpt lat="48.71286" lon="1.98663">
        <ele>113.65711975098</ele>
        <time>2016-09-22T09:28:21.000Z</time>
      </trkpt>
      <trkpt lat="48.71288" lon="1.98659">
        <ele>113.7452545166</ele>
        <time>2016-09-22T09:28:24.000Z</time>
      </trkpt>
      <trkpt lat="48.71289" lon="1.98656">
        <ele>113.89931488037</ele>
        <time>2016-09-22T09:28:26.000Z</time>
      </trkpt>
      <trkpt lat="48.7129" lon="1.98652">
        <ele>113.99711608887</ele>
        <time>2016-09-22T09:28:28.000Z</time>
      </trkpt>
      <trkpt lat="48.71292" lon="1.98647">
        <ele>114.06834411621</ele>
        <time>2016-09-22T09:28:31.000Z</time>
      </trkpt>
      <trkpt lat="48.71293" lon="1.98645">
        <ele>114.11434173584</ele>
        <time>2016-09-22T09:28:33.000Z</time>
      </trkpt>
      <trkpt lat="48.71296" lon="1.98643">
        <ele>114.19759368896</ele>
        <time>2016-09-22T09:28:36.000Z</time>
      </trkpt>
      <trkpt lat="48.71297" lon="1.98641">
        <ele>114.28812408447</ele>
        <time>2016-09-22T09:28:38.000Z</time>
      </trkpt>
      <trkpt lat="48.71299" lon="1.98635">
        <ele>114.362159729</ele>
        <time>2016-09-22T09:28:41.000Z</time>
      </trkpt>
      <trkpt lat="48.713" lon="1.98631">
        <ele>114.44557189941</ele>
        <time>2016-09-22T09:28:43.000Z</time>
      </trkpt>
      <trkpt lat="48.71302" lon="1.98629">
        <ele>114.54514312744</ele>
        <time>2016-09-22T09:28:45.000Z</time>
      </trkpt>
      <trkpt lat="48.71304" lon="1.98627">
        <ele>114.62062072754</ele>
        <time>2016-09-22T09:28:47.000Z</time>
      </trkpt>
      <trkpt lat="48.71305" lon="1.98622">
        <ele>114.60847473145</ele>
        <time>2016-09-22T09:28:49.000Z</time>
      </trkpt>
      <trkpt lat="48.71305" lon="1.98621">
        <ele>114.60014343262</ele>
        <time>2016-09-22T09:28:51.000Z</time>
      </trkpt>
      <trkpt lat="48.71303" lon="1.98614">
        <ele>114.41802978516</ele>
        <time>2016-09-22T09:28:54.000Z</time>
      </trkpt>
      <trkpt lat="48.71304" lon="1.98608">
        <ele>114.12917327881</ele>
        <time>2016-09-22T09:29:02.000Z</time>
      </trkpt>
      <trkpt lat="48.71305" lon="1.98606">
        <ele>113.77101898193</ele>
        <time>2016-09-22T09:29:04.000Z</time>
      </trkpt>
      <trkpt lat="48.71307" lon="1.98601">
        <ele>113.50844573975</ele>
        <time>2016-09-22T09:29:07.000Z</time>
      </trkpt>
      <trkpt lat="48.71309" lon="1.98596">
        <ele>113.22248840332</ele>
        <time>2016-09-22T09:29:10.000Z</time>
      </trkpt>
      <trkpt lat="48.7131" lon="1.9859">
        <ele>113.06562805176</ele>
        <time>2016-09-22T09:29:13.000Z</time>
      </trkpt>
      <trkpt lat="48.71312" lon="1.98585">
        <ele>112.94599914551</ele>
        <time>2016-09-22T09:29:16.000Z</time>
      </trkpt>
      <trkpt lat="48.71313" lon="1.98579">
        <ele>112.83442687988</ele>
        <time>2016-09-22T09:29:19.000Z</time>
      </trkpt>
      <trkpt lat="48.71315" lon="1.98574">
        <ele>112.73903656006</ele>
        <time>2016-09-22T09:29:22.000Z</time>
      </trkpt>
      <trkpt lat="48.71316" lon="1.98569">
        <ele>112.72206115723</ele>
        <time>2016-09-22T09:29:25.000Z</time>
      </trkpt>
      <trkpt lat="48.71317" lon="1.98565">
        <ele>112.76515960693</ele>
        <time>2016-09-22T09:29:27.000Z</time>
      </trkpt>
      <trkpt lat="48.71319" lon="1.9856">
        <ele>112.87815856934</ele>
        <time>2016-09-22T09:29:30.000Z</time>
      </trkpt>
      <trkpt lat="48.7132" lon="1.98552">
        <ele>113.00054931641</ele>
        <time>2016-09-22T09:29:33.000Z</time>
      </trkpt>
      <trkpt lat="48.71321" lon="1.98547">
        <ele>113.13957214355</ele>
        <time>2016-09-22T09:29:36.000Z</time>
      </trkpt>
      <trkpt lat="48.71323" lon="1.98543">
        <ele>113.28735351562</ele>
        <time>2016-09-22T09:29:38.000Z</time>
      </trkpt>
      <trkpt lat="48.71325" lon="1.98537">
        <ele>113.47619628906</ele>
        <time>2016-09-22T09:29:41.000Z</time>
      </trkpt>
      <trkpt lat="48.71326" lon="1.98533">
        <ele>113.64345550537</ele>
        <time>2016-09-22T09:29:43.000Z</time>
      </trkpt>
      <trkpt lat="48.71325" lon="1.98526">
        <ele>113.76945495605</ele>
        <time>2016-09-22T09:29:46.000Z</time>
      </trkpt>
      <trkpt lat="48.71325" lon="1.98522">
        <ele>113.82795715332</ele>
        <time>2016-09-22T09:29:48.000Z</time>
      </trkpt>
      <trkpt lat="48.71327" lon="1.98516">
        <ele>113.89891052246</ele>
        <time>2016-09-22T09:29:51.000Z</time>
      </trkpt>
      <trkpt lat="48.71328" lon="1.98513">
        <ele>113.95328521729</ele>
        <time>2016-09-22T09:29:53.000Z</time>
      </trkpt>
      <trkpt lat="48.71328" lon="1.98509">
        <ele>113.96020507812</ele>
        <time>2016-09-22T09:29:56.000Z</time>
      </trkpt>
      <trkpt lat="48.71323" lon="1.98505">
        <ele>113.79180908203</ele>
        <time>2016-09-22T09:30:09.000Z</time>
      </trkpt>
      <trkpt lat="48.7132" lon="1.98505">
        <ele>113.54225921631</ele>
        <time>2016-09-22T09:30:12.000Z</time>
      </trkpt>
      <trkpt lat="48.71317" lon="1.98504">
        <ele>113.11956787109</ele>
        <time>2016-09-22T09:30:14.000Z</time>
      </trkpt>
      <trkpt lat="48.71312" lon="1.98503">
        <ele>112.46955871582</ele>
        <time>2016-09-22T09:30:17.000Z</time>
      </trkpt>
      <trkpt lat="48.71307" lon="1.98503">
        <ele>111.67527008057</ele>
        <time>2016-09-22T09:30:20.000Z</time>
      </trkpt>
      <trkpt lat="48.71304" lon="1.98501">
        <ele>110.94316101074</ele>
        <time>2016-09-22T09:30:23.000Z</time>
      </trkpt>
      <trkpt lat="48.713" lon="1.98499">
        <ele>110.14683532715</ele>
        <time>2016-09-22T09:30:26.000Z</time>
      </trkpt>
      <trkpt lat="48.71296" lon="1.98499">
        <ele>109.35330963135</ele>
        <time>2016-09-22T09:30:29.000Z</time>
      </trkpt>
      <trkpt lat="48.71294" lon="1.98498">
        <ele>108.67032623291</ele>
        <time>2016-09-22T09:30:31.000Z</time>
      </trkpt>
      <trkpt lat="48.71293" lon="1.98499">
        <ele>108.0972442627</ele>
        <time>2016-09-22T09:30:33.000Z</time>
      </trkpt>
      <trkpt lat="48.71292" lon="1.98501">
        <ele>107.66457366943</ele>
        <time>2016-09-22T09:30:36.000Z</time>
      </trkpt>
      <trkpt lat="48.71288" lon="1.98507">
        <ele>107.26347351074</ele>
        <time>2016-09-22T09:30:50.000Z</time>
      </trkpt>
      <trkpt lat="48.71286" lon="1.98508">
        <ele>106.89575195312</ele>
        <time>2016-09-22T09:30:52.000Z</time>
      </trkpt>
      <trkpt lat="48.71281" lon="1.98509">
        <ele>106.41367340088</ele>
        <time>2016-09-22T09:30:55.000Z</time>
      </trkpt>
      <trkpt lat="48.71278" lon="1.98509">
        <ele>105.88758850098</ele>
        <time>2016-09-22T09:30:58.000Z</time>
      </trkpt>
      <trkpt lat="48.71274" lon="1.98509">
        <ele>105.23219299316</ele>
        <time>2016-09-22T09:31:04.000Z</time>
      </trkpt>
      <trkpt lat="48.71272" lon="1.9851">
        <ele>104.64497375488</ele>
        <time>2016-09-22T09:31:06.000Z</time>
      </trkpt>
      <trkpt lat="48.7127" lon="1.9851">
        <ele>104.0577545166</ele>
        <time>2016-09-22T09:31:08.000Z</time>
      </trkpt>
      <trkpt lat="48.71266" lon="1.98512">
        <ele>103.51922607422</ele>
        <time>2016-09-22T09:31:11.000Z</time>
      </trkpt>
      <trkpt lat="48.71263" lon="1.98513">
        <ele>102.97163391113</ele>
        <time>2016-09-22T09:31:13.000Z</time>
      </trkpt>
      <trkpt lat="48.71257" lon="1.98515">
        <ele>102.3784942627</ele>
        <time>2016-09-22T09:31:16.000Z</time>
      </trkpt>
      <trkpt lat="48.71254" lon="1.98519">
        <ele>101.73210906982</ele>
        <time>2016-09-22T09:31:19.000Z</time>
      </trkpt>
      <trkpt lat="48.71251" lon="1.98521">
        <ele>101.10411071777</ele>
        <time>2016-09-22T09:31:21.000Z</time>
      </trkpt>
      <trkpt lat="48.71247" lon="1.98524">
        <ele>100.54190826416</ele>
        <time>2016-09-22T09:31:24.000Z</time>
      </trkpt>
      <trkpt lat="48.71244" lon="1.98526">
        <ele>100.05476379395</ele>
        <time>2016-09-22T09:31:26.000Z</time>
      </trkpt>
      <trkpt lat="48.71241" lon="1.9853">
        <ele>99.728805541992</ele>
        <time>2016-09-22T09:31:29.000Z</time>
      </trkpt>
      <trkpt lat="48.71239" lon="1.98534">
        <ele>99.503707885742</ele>
        <time>2016-09-22T09:31:31.000Z</time>
      </trkpt>
      <trkpt lat="48.71237" lon="1.98538">
        <ele>99.34790802002</ele>
        <time>2016-09-22T09:31:33.000Z</time>
      </trkpt>
      <trkpt lat="48.71234" lon="1.98543">
        <ele>99.249504089355</ele>
        <time>2016-09-22T09:31:36.000Z</time>
      </trkpt>
      <trkpt lat="48.71232" lon="1.98546">
        <ele>99.162147521973</ele>
        <time>2016-09-22T09:31:39.000Z</time>
      </trkpt>
      <trkpt lat="48.71229" lon="1.98548">
        <ele>99.067596435547</ele>
        <time>2016-09-22T09:31:42.000Z</time>
      </trkpt>
      <trkpt lat="48.71228" lon="1.98552">
        <ele>98.970321655273</ele>
        <time>2016-09-22T09:31:45.000Z</time>
      </trkpt>
      <trkpt lat="48.71226" lon="1.98553">
        <ele>98.845893859863</ele>
        <time>2016-09-22T09:31:47.000Z</time>
      </trkpt>
      <trkpt lat="48.71223" lon="1.98555">
        <ele>98.698127746582</ele>
        <time>2016-09-22T09:31:50.000Z</time>
      </trkpt>
      <trkpt lat="48.71219" lon="1.98558">
        <ele>98.524543762207</ele>
        <time>2016-09-22T09:31:53.000Z</time>
      </trkpt>
      <trkpt lat="48.71218" lon="1.98561">
        <ele>98.366180419922</ele>
        <time>2016-09-22T09:31:55.000Z</time>
      </trkpt>
      <trkpt lat="48.71216" lon="1.98561">
        <ele>98.183250427246</ele>
        <time>2016-09-22T09:31:57.000Z</time>
      </trkpt>
      <trkpt lat="48.71213" lon="1.98562">
        <ele>97.973388671875</ele>
        <time>2016-09-22T09:32:00.000Z</time>
      </trkpt>
      <trkpt lat="48.7121" lon="1.98563">
        <ele>97.763000488281</ele>
        <time>2016-09-22T09:32:03.000Z</time>
      </trkpt>
      <trkpt lat="48.71207" lon="1.98565">
        <ele>97.549606323242</ele>
        <time>2016-09-22T09:32:06.000Z</time>
      </trkpt>
      <trkpt lat="48.71203" lon="1.98568">
        <ele>97.28719329834</ele>
        <time>2016-09-22T09:32:09.000Z</time>
      </trkpt>
      <trkpt lat="48.71199" lon="1.98573">
        <ele>96.992080688477</ele>
        <time>2016-09-22T09:32:12.000Z</time>
      </trkpt>
      <trkpt lat="48.71196" lon="1.98575">
        <ele>96.703231811523</ele>
        <time>2016-09-22T09:32:14.000Z</time>
      </trkpt>
      <trkpt lat="48.71194" lon="1.98577">
        <ele>96.428298950195</ele>
        <time>2016-09-22T09:32:16.000Z</time>
      </trkpt>
      <trkpt lat="48.71192" lon="1.98578">
        <ele>96.163589477539</ele>
        <time>2016-09-22T09:32:19.000Z</time>
      </trkpt>
      <trkpt lat="48.7119" lon="1.98579">
        <ele>95.920616149902</ele>
        <time>2016-09-22T09:32:21.000Z</time>
      </trkpt>
      <trkpt lat="48.71187" lon="1.98581">
        <ele>95.691040039062</ele>
        <time>2016-09-22T09:32:24.000Z</time>
      </trkpt>
      <trkpt lat="48.71184" lon="1.98582">
        <ele>95.445945739746</ele>
        <time>2016-09-22T09:32:27.000Z</time>
      </trkpt>
      <trkpt lat="48.71182" lon="1.98584">
        <ele>95.19994354248</ele>
        <time>2016-09-22T09:32:29.000Z</time>
      </trkpt>
      <trkpt lat="48.71179" lon="1.98586">
        <ele>94.939498901367</ele>
        <time>2016-09-22T09:32:32.000Z</time>
      </trkpt>
      <trkpt lat="48.71175" lon="1.98586">
        <ele>94.641448974609</ele>
        <time>2016-09-22T09:32:35.000Z</time>
      </trkpt>
      <trkpt lat="48.71172" lon="1.98586">
        <ele>94.328750610352</ele>
        <time>2016-09-22T09:32:38.000Z</time>
      </trkpt>
      <trkpt lat="48.7117" lon="1.98585">
        <ele>94.02823638916</ele>
        <time>2016-09-22T09:32:40.000Z</time>
      </trkpt>
      <trkpt lat="48.71165" lon="1.98585">
        <ele>93.689163208008</ele>
        <time>2016-09-22T09:32:43.000Z</time>
      </trkpt>
      <trkpt lat="48.71163" lon="1.98585">
        <ele>93.413040161133</ele>
        <time>2016-09-22T09:32:45.000Z</time>
      </trkpt>
      <trkpt lat="48.71159" lon="1.98586">
        <ele>93.216957092285</ele>
        <time>2016-09-22T09:32:48.000Z</time>
      </trkpt>
      <trkpt lat="48.71156" lon="1.98586">
        <ele>93.092376708984</ele>
        <time>2016-09-22T09:32:51.000Z</time>
      </trkpt>
      <trkpt lat="48.71154" lon="1.98586">
        <ele>93.022018432617</ele>
        <time>2016-09-22T09:32:53.000Z</time>
      </trkpt>
      <trkpt lat="48.71152" lon="1.98584">
        <ele>93.018661499023</ele>
        <time>2016-09-22T09:32:56.000Z</time>
      </trkpt>
      <trkpt lat="48.71148" lon="1.98582">
        <ele>93.015396118164</ele>
        <time>2016-09-22T09:32:59.000Z</time>
      </trkpt>
      <trkpt lat="48.71145" lon="1.9858">
        <ele>93.012184143066</ele>
        <time>2016-09-22T09:33:01.000Z</time>
      </trkpt>
      <trkpt lat="48.71142" lon="1.9858">
        <ele>93.009727478027</ele>
        <time>2016-09-22T09:33:03.000Z</time>
      </trkpt>
      <trkpt lat="48.71138" lon="1.9858">
        <ele>93.008346557617</ele>
        <time>2016-09-22T09:33:06.000Z</time>
      </trkpt>
      <trkpt lat="48.71135" lon="1.98579">
        <ele>93.011367797852</ele>
        <time>2016-09-22T09:33:08.000Z</time>
      </trkpt>
      <trkpt lat="48.71132" lon="1.98578">
        <ele>93.01545715332</ele>
        <time>2016-09-22T09:33:11.000Z</time>
      </trkpt>
      <trkpt lat="48.71127" lon="1.98577">
        <ele>93.020263671875</ele>
        <time>2016-09-22T09:33:14.000Z</time>
      </trkpt>
      <trkpt lat="48.71125" lon="1.98577">
        <ele>93.025573730469</ele>
        <time>2016-09-22T09:33:16.000Z</time>
      </trkpt>
      <trkpt lat="48.71123" lon="1.98576">
        <ele>93.032569885254</ele>
        <time>2016-09-22T09:33:18.000Z</time>
      </trkpt>
      <trkpt lat="48.71122" lon="1.98574">
        <ele>93.040710449219</ele>
        <time>2016-09-22T09:33:21.000Z</time>
      </trkpt>
      <trkpt lat="48.71121" lon="1.98573">
        <ele>93.048851013184</ele>
        <time>2016-09-22T09:33:23.000Z</time>
      </trkpt>
      <trkpt lat="48.71119" lon="1.98573">
        <ele>93.056594848633</ele>
        <time>2016-09-22T09:33:25.000Z</time>
      </trkpt>
      <trkpt lat="48.71116" lon="1.98574">
        <ele>93.062881469727</ele>
        <time>2016-09-22T09:33:27.000Z</time>
      </trkpt>
      <trkpt lat="48.71112" lon="1.98576">
        <ele>93.0654296875</ele>
        <time>2016-09-22T09:33:30.000Z</time>
      </trkpt>
      <trkpt lat="48.71108" lon="1.98575">
        <ele>93.06721496582</ele>
        <time>2016-09-22T09:33:33.000Z</time>
      </trkpt>
      <trkpt lat="48.71103" lon="1.98576">
        <ele>93.067573547363</ele>
        <time>2016-09-22T09:33:36.000Z</time>
      </trkpt>
      <trkpt lat="48.71098" lon="1.98578">
        <ele>93.063217163086</ele>
        <time>2016-09-22T09:33:39.000Z</time>
      </trkpt>
      <trkpt lat="48.71095" lon="1.9858">
        <ele>93.055435180664</ele>
        <time>2016-09-22T09:33:41.000Z</time>
      </trkpt>
      <trkpt lat="48.71092" lon="1.98581">
        <ele>93.047821044922</ele>
        <time>2016-09-22T09:33:43.000Z</time>
      </trkpt>
      <trkpt lat="48.71088" lon="1.98581">
        <ele>93.039039611816</ele>
        <time>2016-09-22T09:33:46.000Z</time>
      </trkpt>
      <trkpt lat="48.71086" lon="1.9858">
        <ele>93.032508850098</ele>
        <time>2016-09-22T09:33:48.000Z</time>
      </trkpt>
      <trkpt lat="48.71083" lon="1.9858">
        <ele>93.031059265137</ele>
        <time>2016-09-22T09:33:50.000Z</time>
      </trkpt>
      <trkpt lat="48.71079" lon="1.98581">
        <ele>93.061546325684</ele>
        <time>2016-09-22T09:33:53.000Z</time>
      </trkpt>
      <trkpt lat="48.71074" lon="1.98581">
        <ele>93.127746582031</ele>
        <time>2016-09-22T09:33:56.000Z</time>
      </trkpt>
      <trkpt lat="48.71071" lon="1.98581">
        <ele>93.216423034668</ele>
        <time>2016-09-22T09:33:58.000Z</time>
      </trkpt>
      <trkpt lat="48.71067" lon="1.98582">
        <ele>93.334892272949</ele>
        <time>2016-09-22T09:34:01.000Z</time>
      </trkpt>
      <trkpt lat="48.71063" lon="1.98582">
        <ele>93.4775390625</ele>
        <time>2016-09-22T09:34:04.000Z</time>
      </trkpt>
      <trkpt lat="48.7106" lon="1.98583">
        <ele>93.607208251953</ele>
        <time>2016-09-22T09:34:06.000Z</time>
      </trkpt>
      <trkpt lat="48.71057" lon="1.98583">
        <ele>93.725143432617</ele>
        <time>2016-09-22T09:34:08.000Z</time>
      </trkpt>
      <trkpt lat="48.71054" lon="1.98583">
        <ele>93.843795776367</ele>
        <time>2016-09-22T09:34:10.000Z</time>
      </trkpt>
      <trkpt lat="48.71051" lon="1.98584">
        <ele>93.950485229492</ele>
        <time>2016-09-22T09:34:13.000Z</time>
      </trkpt>
      <trkpt lat="48.71048" lon="1.98586">
        <ele>94.044494628906</ele>
        <time>2016-09-22T09:34:15.000Z</time>
      </trkpt>
      <trkpt lat="48.71047" lon="1.98585">
        <ele>94.131698608398</ele>
        <time>2016-09-22T09:34:17.000Z</time>
      </trkpt>
      <trkpt lat="48.71046" lon="1.98584">
        <ele>94.211044311523</ele>
        <time>2016-09-22T09:34:19.000Z</time>
      </trkpt>
      <trkpt lat="48.71044" lon="1.98584">
        <ele>94.280555725098</ele>
        <time>2016-09-22T09:34:22.000Z</time>
      </trkpt>
      <trkpt lat="48.7104" lon="1.98585">
        <ele>94.350784301758</ele>
        <time>2016-09-22T09:34:25.000Z</time>
      </trkpt>
      <trkpt lat="48.71037" lon="1.98587">
        <ele>94.424850463867</ele>
        <time>2016-09-22T09:34:27.000Z</time>
      </trkpt>
      <trkpt lat="48.71033" lon="1.98588">
        <ele>94.519233703613</ele>
        <time>2016-09-22T09:34:30.000Z</time>
      </trkpt>
      <trkpt lat="48.7103" lon="1.98587">
        <ele>94.620803833008</ele>
        <time>2016-09-22T09:34:32.000Z</time>
      </trkpt>
      <trkpt lat="48.71027" lon="1.98586">
        <ele>94.733924865723</ele>
        <time>2016-09-22T09:34:35.000Z</time>
      </trkpt>
      <trkpt lat="48.71025" lon="1.98585">
        <ele>94.8447265625</ele>
        <time>2016-09-22T09:34:37.000Z</time>
      </trkpt>
      <trkpt lat="48.71021" lon="1.98586">
        <ele>94.960830688477</ele>
        <time>2016-09-22T09:34:40.000Z</time>
      </trkpt>
      <trkpt lat="48.71019" lon="1.98586">
        <ele>95.067565917969</ele>
        <time>2016-09-22T09:34:42.000Z</time>
      </trkpt>
      <trkpt lat="48.71016" lon="1.98587">
        <ele>95.163215637207</ele>
        <time>2016-09-22T09:34:44.000Z</time>
      </trkpt>
      <trkpt lat="48.71014" lon="1.98588">
        <ele>95.247520446777</ele>
        <time>2016-09-22T09:34:46.000Z</time>
      </trkpt>
      <trkpt lat="48.7101" lon="1.98588">
        <ele>95.33683013916</ele>
        <time>2016-09-22T09:34:49.000Z</time>
      </trkpt>
      <trkpt lat="48.71007" lon="1.9859">
        <ele>95.423439025879</ele>
        <time>2016-09-22T09:34:52.000Z</time>
      </trkpt>
      <trkpt lat="48.71003" lon="1.9859">
        <ele>95.513870239258</ele>
        <time>2016-09-22T09:34:55.000Z</time>
      </trkpt>
      <trkpt lat="48.71" lon="1.98592">
        <ele>95.612815856934</ele>
        <time>2016-09-22T09:34:57.000Z</time>
      </trkpt>
      <trkpt lat="48.70995" lon="1.98592">
        <ele>95.761840820312</ele>
        <time>2016-09-22T09:35:00.000Z</time>
      </trkpt>
      <trkpt lat="48.70992" lon="1.98591">
        <ele>95.939559936523</ele>
        <time>2016-09-22T09:35:03.000Z</time>
      </trkpt>
      <trkpt lat="48.70991" lon="1.98589">
        <ele>96.120620727539</ele>
        <time>2016-09-22T09:35:05.000Z</time>
      </trkpt>
      <trkpt lat="48.70988" lon="1.98589">
        <ele>96.320861816406</ele>
        <time>2016-09-22T09:35:08.000Z</time>
      </trkpt>
      <trkpt lat="48.70986" lon="1.98588">
        <ele>96.536743164062</ele>
        <time>2016-09-22T09:35:10.000Z</time>
      </trkpt>
      <trkpt lat="48.70983" lon="1.98587">
        <ele>96.734741210938</ele>
        <time>2016-09-22T09:35:13.000Z</time>
      </trkpt>
      <trkpt lat="48.70981" lon="1.98587">
        <ele>96.916137695312</ele>
        <time>2016-09-22T09:35:15.000Z</time>
      </trkpt>
      <trkpt lat="48.70977" lon="1.98586">
        <ele>97.123901367188</ele>
        <time>2016-09-22T09:35:18.000Z</time>
      </trkpt>
      <trkpt lat="48.70972" lon="1.98587">
        <ele>97.369506835938</ele>
        <time>2016-09-22T09:35:21.000Z</time>
      </trkpt>
      <trkpt lat="48.7097" lon="1.98588">
        <ele>97.604675292969</ele>
        <time>2016-09-22T09:35:26.000Z</time>
      </trkpt>
      <trkpt lat="48.70967" lon="1.98587">
        <ele>97.826110839844</ele>
        <time>2016-09-22T09:35:28.000Z</time>
      </trkpt>
      <trkpt lat="48.70964" lon="1.98585">
        <ele>98.070434570312</ele>
        <time>2016-09-22T09:35:31.000Z</time>
      </trkpt>
      <trkpt lat="48.70962" lon="1.98584">
        <ele>98.301086425781</ele>
        <time>2016-09-22T09:35:33.000Z</time>
      </trkpt>
      <trkpt lat="48.70958" lon="1.98583">
        <ele>98.512222290039</ele>
        <time>2016-09-22T09:35:36.000Z</time>
      </trkpt>
      <trkpt lat="48.70956" lon="1.98585">
        <ele>98.727615356445</ele>
        <time>2016-09-22T09:35:38.000Z</time>
      </trkpt>
      <trkpt lat="48.70953" lon="1.98585">
        <ele>98.944412231445</ele>
        <time>2016-09-22T09:35:40.000Z</time>
      </trkpt>
      <trkpt lat="48.70951" lon="1.98584">
        <ele>99.138137817383</ele>
        <time>2016-09-22T09:35:43.000Z</time>
      </trkpt>
      <trkpt lat="48.70948" lon="1.9858">
        <ele>99.356239318848</ele>
        <time>2016-09-22T09:35:46.000Z</time>
      </trkpt>
      <trkpt lat="48.70947" lon="1.98579">
        <ele>99.53791809082</ele>
        <time>2016-09-22T09:35:48.000Z</time>
      </trkpt>
      <trkpt lat="48.70943" lon="1.98577">
        <ele>99.745346069336</ele>
        <time>2016-09-22T09:35:51.000Z</time>
      </trkpt>
      <trkpt lat="48.70941" lon="1.98575">
        <ele>99.963928222656</ele>
        <time>2016-09-22T09:35:53.000Z</time>
      </trkpt>
      <trkpt lat="48.70939" lon="1.98572">
        <ele>100.18965911865</ele>
        <time>2016-09-22T09:35:55.000Z</time>
      </trkpt>
      <trkpt lat="48.70938" lon="1.9857">
        <ele>100.38108825684</ele>
        <time>2016-09-22T09:35:57.000Z</time>
      </trkpt>
      <trkpt lat="48.70936" lon="1.98568">
        <ele>100.587059021</ele>
        <time>2016-09-22T09:35:59.000Z</time>
      </trkpt>
      <trkpt lat="48.70935" lon="1.98568">
        <ele>100.75687408447</ele>
        <time>2016-09-22T09:36:01.000Z</time>
      </trkpt>
      <trkpt lat="48.70932" lon="1.98569">
        <ele>100.91342926025</ele>
        <time>2016-09-22T09:36:04.000Z</time>
      </trkpt>
      <trkpt lat="48.70932" lon="1.9857">
        <ele>101.02621459961</ele>
        <time>2016-09-22T09:36:06.000Z</time>
      </trkpt>
      <trkpt lat="48.70929" lon="1.9857">
        <ele>101.15019226074</ele>
        <time>2016-09-22T09:36:08.000Z</time>
      </trkpt>
      <trkpt lat="48.70926" lon="1.98565">
        <ele>101.30671691895</ele>
        <time>2016-09-22T09:36:11.000Z</time>
      </trkpt>
      <trkpt lat="48.70922" lon="1.98562">
        <ele>101.51947021484</ele>
        <time>2016-09-22T09:36:14.000Z</time>
      </trkpt>
      <trkpt lat="48.70919" lon="1.98562">
        <ele>101.7392578125</ele>
        <time>2016-09-22T09:36:16.000Z</time>
      </trkpt>
      <trkpt lat="48.70915" lon="1.98561">
        <ele>102.04387664795</ele>
        <time>2016-09-22T09:36:19.000Z</time>
      </trkpt>
      <trkpt lat="48.70912" lon="1.9856">
        <ele>102.36867523193</ele>
        <time>2016-09-22T09:36:22.000Z</time>
      </trkpt>
      <trkpt lat="48.70909" lon="1.98559">
        <ele>102.68983459473</ele>
        <time>2016-09-22T09:36:24.000Z</time>
      </trkpt>
      <trkpt lat="48.70906" lon="1.98555">
        <ele>103.00553131104</ele>
        <time>2016-09-22T09:36:27.000Z</time>
      </trkpt>
      <trkpt lat="48.70904" lon="1.98552">
        <ele>103.32495117188</ele>
        <time>2016-09-22T09:36:29.000Z</time>
      </trkpt>
      <trkpt lat="48.70901" lon="1.9855">
        <ele>103.61573791504</ele>
        <time>2016-09-22T09:36:32.000Z</time>
      </trkpt>
      <trkpt lat="48.709" lon="1.9855">
        <ele>103.87225341797</ele>
        <time>2016-09-22T09:36:35.000Z</time>
      </trkpt>
      <trkpt lat="48.70901" lon="1.98547">
        <ele>104.06718444824</ele>
        <time>2016-09-22T09:36:37.000Z</time>
      </trkpt>
      <trkpt lat="48.70898" lon="1.98545">
        <ele>104.24523925781</ele>
        <time>2016-09-22T09:36:40.000Z</time>
      </trkpt>
      <trkpt lat="48.70897" lon="1.98545">
        <ele>104.403175354</ele>
        <time>2016-09-22T09:36:42.000Z</time>
      </trkpt>
      <trkpt lat="48.70894" lon="1.98544">
        <ele>104.56994628906</ele>
        <time>2016-09-22T09:36:45.000Z</time>
      </trkpt>
      <trkpt lat="48.70891" lon="1.98542">
        <ele>104.7700958252</ele>
        <time>2016-09-22T09:36:48.000Z</time>
      </trkpt>
      <trkpt lat="48.70889" lon="1.98541">
        <ele>104.99848937988</ele>
        <time>2016-09-22T09:36:50.000Z</time>
      </trkpt>
      <trkpt lat="48.70887" lon="1.98541">
        <ele>105.22099304199</ele>
        <time>2016-09-22T09:36:53.000Z</time>
      </trkpt>
      <trkpt lat="48.70885" lon="1.9854">
        <ele>105.46105957031</ele>
        <time>2016-09-22T09:36:55.000Z</time>
      </trkpt>
      <trkpt lat="48.70883" lon="1.98539">
        <ele>105.67762756348</ele>
        <time>2016-09-22T09:36:57.000Z</time>
      </trkpt>
      <trkpt lat="48.70882" lon="1.98538">
        <ele>105.86179351807</ele>
        <time>2016-09-22T09:37:00.000Z</time>
      </trkpt>
      <trkpt lat="48.70879" lon="1.98539">
        <ele>106.05430603027</ele>
        <time>2016-09-22T09:37:03.000Z</time>
      </trkpt>
      <trkpt lat="48.70877" lon="1.98538">
        <ele>106.24018859863</ele>
        <time>2016-09-22T09:37:05.000Z</time>
      </trkpt>
      <trkpt lat="48.70874" lon="1.98538">
        <ele>106.45291900635</ele>
        <time>2016-09-22T09:37:08.000Z</time>
      </trkpt>
      <trkpt lat="48.70871" lon="1.98536">
        <ele>106.68314361572</ele>
        <time>2016-09-22T09:37:11.000Z</time>
      </trkpt>
      <trkpt lat="48.70869" lon="1.98535">
        <ele>106.92712402344</ele>
        <time>2016-09-22T09:37:13.000Z</time>
      </trkpt>
      <trkpt lat="48.70866" lon="1.98536">
        <ele>107.17642974854</ele>
        <time>2016-09-22T09:37:16.000Z</time>
      </trkpt>
      <trkpt lat="48.70863" lon="1.98537">
        <ele>107.42835998535</ele>
        <time>2016-09-22T09:37:18.000Z</time>
      </trkpt>
      <trkpt lat="48.70861" lon="1.98537">
        <ele>107.65643310547</ele>
        <time>2016-09-22T09:37:20.000Z</time>
      </trkpt>
      <trkpt lat="48.70858" lon="1.98537">
        <ele>107.88313293457</ele>
        <time>2016-09-22T09:37:23.000Z</time>
      </trkpt>
      <trkpt lat="48.70856" lon="1.98537">
        <ele>108.10874938965</ele>
        <time>2016-09-22T09:37:25.000Z</time>
      </trkpt>
      <trkpt lat="48.70854" lon="1.98537">
        <ele>108.31569671631</ele>
        <time>2016-09-22T09:37:27.000Z</time>
      </trkpt>
      <trkpt lat="48.7085" lon="1.98538">
        <ele>108.54350280762</ele>
        <time>2016-09-22T09:37:30.000Z</time>
      </trkpt>
      <trkpt lat="48.70847" lon="1.98539">
        <ele>108.79264831543</ele>
        <time>2016-09-22T09:37:33.000Z</time>
      </trkpt>
      <trkpt lat="48.70845" lon="1.98539">
        <ele>109.00709533691</ele>
        <time>2016-09-22T09:37:35.000Z</time>
      </trkpt>
      <trkpt lat="48.70843" lon="1.9854">
        <ele>109.22548675537</ele>
        <time>2016-09-22T09:37:38.000Z</time>
      </trkpt>
      <trkpt lat="48.70841" lon="1.98541">
        <ele>109.44803619385</ele>
        <time>2016-09-22T09:37:40.000Z</time>
      </trkpt>
      <trkpt lat="48.70838" lon="1.98543">
        <ele>109.65565490723</ele>
        <time>2016-09-22T09:37:43.000Z</time>
      </trkpt>
      <trkpt lat="48.70834" lon="1.98544">
        <ele>109.87684631348</ele>
        <time>2016-09-22T09:37:46.000Z</time>
      </trkpt>
      <trkpt lat="48.70828" lon="1.98545">
        <ele>110.23034667969</ele>
        <time>2016-09-22T09:37:49.000Z</time>
      </trkpt>
      <trkpt lat="48.70824" lon="1.98548">
        <ele>110.63883972168</ele>
        <time>2016-09-22T09:37:52.000Z</time>
      </trkpt>
      <trkpt lat="48.70823" lon="1.9855">
        <ele>111.04051208496</ele>
        <time>2016-09-22T09:37:55.000Z</time>
      </trkpt>
      <trkpt lat="48.70823" lon="1.98554">
        <ele>111.40319824219</ele>
        <time>2016-09-22T09:37:58.000Z</time>
      </trkpt>
      <trkpt lat="48.70821" lon="1.98559">
        <ele>111.69120025635</ele>
        <time>2016-09-22T09:38:01.000Z</time>
      </trkpt>
      <trkpt lat="48.70821" lon="1.98562">
        <ele>111.83303070068</ele>
        <time>2016-09-22T09:38:03.000Z</time>
      </trkpt>
      <trkpt lat="48.70819" lon="1.98569">
        <ele>111.88394927979</ele>
        <time>2016-09-22T09:38:06.000Z</time>
      </trkpt>
      <trkpt lat="48.70818" lon="1.98573">
        <ele>111.92507171631</ele>
        <time>2016-09-22T09:38:08.000Z</time>
      </trkpt>
      <trkpt lat="48.70817" lon="1.98576">
        <ele>111.97267150879</ele>
        <time>2016-09-22T09:38:11.000Z</time>
      </trkpt>
      <trkpt lat="48.70816" lon="1.98582">
        <ele>112.01071929932</ele>
        <time>2016-09-22T09:38:14.000Z</time>
      </trkpt>
      <trkpt lat="48.70814" lon="1.98587">
        <ele>112.04190826416</ele>
        <time>2016-09-22T09:38:17.000Z</time>
      </trkpt>
      <trkpt lat="48.70813" lon="1.98589">
        <ele>112.06745910645</ele>
        <time>2016-09-22T09:38:19.000Z</time>
      </trkpt>
      <trkpt lat="48.70811" lon="1.98593">
        <ele>112.07165527344</ele>
        <time>2016-09-22T09:38:22.000Z</time>
      </trkpt>
      <trkpt lat="48.7081" lon="1.98594">
        <ele>112.07514953613</ele>
        <time>2016-09-22T09:38:24.000Z</time>
      </trkpt>
      <trkpt lat="48.70809" lon="1.98596">
        <ele>112.07751464844</ele>
        <time>2016-09-22T09:38:26.000Z</time>
      </trkpt>
      <trkpt lat="48.70807" lon="1.986">
        <ele>112.07460021973</ele>
        <time>2016-09-22T09:38:29.000Z</time>
      </trkpt>
      <trkpt lat="48.70805" lon="1.98604">
        <ele>112.07096099854</ele>
        <time>2016-09-22T09:38:32.000Z</time>
      </trkpt>
      <trkpt lat="48.70803" lon="1.98606">
        <ele>112.0545425415</ele>
        <time>2016-09-22T09:38:34.000Z</time>
      </trkpt>
      <trkpt lat="48.70802" lon="1.9861">
        <ele>112.00733947754</ele>
        <time>2016-09-22T09:38:36.000Z</time>
      </trkpt>
      <trkpt lat="48.708" lon="1.98614">
        <ele>111.96403503418</ele>
        <time>2016-09-22T09:38:39.000Z</time>
      </trkpt>
      <trkpt lat="48.70798" lon="1.98616">
        <ele>111.92570495605</ele>
        <time>2016-09-22T09:38:41.000Z</time>
      </trkpt>
      <trkpt lat="48.70796" lon="1.98619">
        <ele>111.8849105835</ele>
        <time>2016-09-22T09:38:44.000Z</time>
      </trkpt>
      <trkpt lat="48.70794" lon="1.98622">
        <ele>111.85939025879</ele>
        <time>2016-09-22T09:38:47.000Z</time>
      </trkpt>
      <trkpt lat="48.70792" lon="1.98626">
        <ele>111.81816101074</ele>
        <time>2016-09-22T09:38:50.000Z</time>
      </trkpt>
      <trkpt lat="48.7079" lon="1.98628">
        <ele>111.7707901001</ele>
        <time>2016-09-22T09:38:52.000Z</time>
      </trkpt>
      <trkpt lat="48.70788" lon="1.98631">
        <ele>111.72436523438</ele>
        <time>2016-09-22T09:38:55.000Z</time>
      </trkpt>
      <trkpt lat="48.70786" lon="1.98633">
        <ele>111.67385101318</ele>
        <time>2016-09-22T09:39:00.000Z</time>
      </trkpt>
      <trkpt lat="48.70784" lon="1.98635">
        <ele>111.62927246094</ele>
        <time>2016-09-22T09:39:03.000Z</time>
      </trkpt>
      <trkpt lat="48.70782" lon="1.98632">
        <ele>111.68996429443</ele>
        <time>2016-09-22T09:39:05.000Z</time>
      </trkpt>
      <trkpt lat="48.70781" lon="1.98628">
        <ele>111.85947418213</ele>
        <time>2016-09-22T09:39:08.000Z</time>
      </trkpt>
      <trkpt lat="48.70781" lon="1.98626">
        <ele>112.06575012207</ele>
        <time>2016-09-22T09:39:10.000Z</time>
      </trkpt>
      <trkpt lat="48.7078" lon="1.98623">
        <ele>112.34812164307</ele>
        <time>2016-09-22T09:39:12.000Z</time>
      </trkpt>
      <trkpt lat="48.70778" lon="1.98618">
        <ele>112.7484588623</ele>
        <time>2016-09-22T09:39:15.000Z</time>
      </trkpt>
      <trkpt lat="48.70776" lon="1.98616">
        <ele>113.15464019775</ele>
        <time>2016-09-22T09:39:18.000Z</time>
      </trkpt>
      <trkpt lat="48.70773" lon="1.98612">
        <ele>113.57527160645</ele>
        <time>2016-09-22T09:39:21.000Z</time>
      </trkpt>
      <trkpt lat="48.70771" lon="1.9861">
        <ele>114.03438568115</ele>
        <time>2016-09-22T09:39:24.000Z</time>
      </trkpt>
      <trkpt lat="48.70769" lon="1.98607">
        <ele>114.5227432251</ele>
        <time>2016-09-22T09:39:27.000Z</time>
      </trkpt>
      <trkpt lat="48.70766" lon="1.98606">
        <ele>114.96496582031</ele>
        <time>2016-09-22T09:39:29.000Z</time>
      </trkpt>
      <trkpt lat="48.70762" lon="1.98603">
        <ele>115.49559020996</ele>
        <time>2016-09-22T09:39:32.000Z</time>
      </trkpt>
      <trkpt lat="48.70758" lon="1.986">
        <ele>116.03896331787</ele>
        <time>2016-09-22T09:39:34.000Z</time>
      </trkpt>
      <trkpt lat="48.70754" lon="1.98595">
        <ele>116.69458007812</ele>
        <time>2016-09-22T09:39:37.000Z</time>
      </trkpt>
      <trkpt lat="48.70751" lon="1.98592">
        <ele>117.39591217041</ele>
        <time>2016-09-22T09:39:40.000Z</time>
      </trkpt>
      <trkpt lat="48.70749" lon="1.9859">
        <ele>118.09867858887</ele>
        <time>2016-09-22T09:39:43.000Z</time>
      </trkpt>
      <trkpt lat="48.70747" lon="1.98587">
        <ele>118.71994781494</ele>
        <time>2016-09-22T09:39:46.000Z</time>
      </trkpt>
      <trkpt lat="48.70745" lon="1.98585">
        <ele>119.29929351807</ele>
        <time>2016-09-22T09:39:48.000Z</time>
      </trkpt>
      <trkpt lat="48.70742" lon="1.98582">
        <ele>119.76594543457</ele>
        <time>2016-09-22T09:39:50.000Z</time>
      </trkpt>
      <trkpt lat="48.70739" lon="1.98579">
        <ele>120.15950012207</ele>
        <time>2016-09-22T09:39:52.000Z</time>
      </trkpt>
      <trkpt lat="48.70737" lon="1.98575">
        <ele>120.55009460449</ele>
        <time>2016-09-22T09:39:55.000Z</time>
      </trkpt>
      <trkpt lat="48.70735" lon="1.98573">
        <ele>120.91014099121</ele>
        <time>2016-09-22T09:39:58.000Z</time>
      </trkpt>
      <trkpt lat="48.70734" lon="1.98571">
        <ele>121.22375488281</ele>
        <time>2016-09-22T09:40:00.000Z</time>
      </trkpt>
      <trkpt lat="48.70732" lon="1.98569">
        <ele>121.50677490234</ele>
        <time>2016-09-22T09:40:03.000Z</time>
      </trkpt>
      <trkpt lat="48.70731" lon="1.98567">
        <ele>121.76689147949</ele>
        <time>2016-09-22T09:40:06.000Z</time>
      </trkpt>
      <trkpt lat="48.70729" lon="1.98563">
        <ele>122.03322601318</ele>
        <time>2016-09-22T09:40:09.000Z</time>
      </trkpt>
      <trkpt lat="48.70727" lon="1.9856">
        <ele>122.30319976807</ele>
        <time>2016-09-22T09:40:12.000Z</time>
      </trkpt>
      <trkpt lat="48.70725" lon="1.98558">
        <ele>122.59958648682</ele>
        <time>2016-09-22T09:40:15.000Z</time>
      </trkpt>
      <trkpt lat="48.70724" lon="1.98554">
        <ele>122.90522766113</ele>
        <time>2016-09-22T09:40:18.000Z</time>
      </trkpt>
      <trkpt lat="48.70723" lon="1.98551">
        <ele>123.21960449219</ele>
        <time>2016-09-22T09:40:21.000Z</time>
      </trkpt>
      <trkpt lat="48.70722" lon="1.98548">
        <ele>123.51148986816</ele>
        <time>2016-09-22T09:40:24.000Z</time>
      </trkpt>
      <trkpt lat="48.70722" lon="1.98546">
        <ele>123.77449035645</ele>
        <time>2016-09-22T09:40:27.000Z</time>
      </trkpt>
      <trkpt lat="48.70721" lon="1.98542">
        <ele>124.03796386719</ele>
        <time>2016-09-22T09:40:30.000Z</time>
      </trkpt>
      <trkpt lat="48.7072" lon="1.98538">
        <ele>124.313331604</ele>
        <time>2016-09-22T09:40:33.000Z</time>
      </trkpt>
      <trkpt lat="48.70719" lon="1.98537">
        <ele>124.5638885498</ele>
        <time>2016-09-22T09:40:35.000Z</time>
      </trkpt>
      <trkpt lat="48.70717" lon="1.98535">
        <ele>124.81356048584</ele>
        <time>2016-09-22T09:40:38.000Z</time>
      </trkpt>
      <trkpt lat="48.70715" lon="1.98532">
        <ele>125.10346984863</ele>
        <time>2016-09-22T09:40:41.000Z</time>
      </trkpt>
      <trkpt lat="48.70713" lon="1.98528">
        <ele>125.42440032959</ele>
        <time>2016-09-22T09:40:44.000Z</time>
      </trkpt>
      <trkpt lat="48.7071" lon="1.98524">
        <ele>125.77668762207</ele>
        <time>2016-09-22T09:40:47.000Z</time>
      </trkpt>
      <trkpt lat="48.70708" lon="1.98521">
        <ele>126.17154693604</ele>
        <time>2016-09-22T09:40:50.000Z</time>
      </trkpt>
      <trkpt lat="48.70707" lon="1.98518">
        <ele>126.56998443604</ele>
        <time>2016-09-22T09:40:52.000Z</time>
      </trkpt>
      <trkpt lat="48.70706" lon="1.98517">
        <ele>126.920753479</ele>
        <time>2016-09-22T09:40:54.000Z</time>
      </trkpt>
      <trkpt lat="48.70705" lon="1.98515">
        <ele>127.22463226318</ele>
        <time>2016-09-22T09:40:56.000Z</time>
      </trkpt>
      <trkpt lat="48.70704" lon="1.98511">
        <ele>127.50289154053</ele>
        <time>2016-09-22T09:40:59.000Z</time>
      </trkpt>
      <trkpt lat="48.70703" lon="1.9851">
        <ele>127.73928070068</ele>
        <time>2016-09-22T09:41:02.000Z</time>
      </trkpt>
      <trkpt lat="48.70699" lon="1.98511">
        <ele>127.97106933594</ele>
        <time>2016-09-22T09:41:16.000Z</time>
      </trkpt>
      <trkpt lat="48.70698" lon="1.98512">
        <ele>128.18606567383</ele>
        <time>2016-09-22T09:41:19.000Z</time>
      </trkpt>
      <trkpt lat="48.70694" lon="1.98514">
        <ele>128.37702941895</ele>
        <time>2016-09-22T09:41:23.000Z</time>
      </trkpt>
      <trkpt lat="48.70692" lon="1.98517">
        <ele>128.49024963379</ele>
        <time>2016-09-22T09:41:26.000Z</time>
      </trkpt>
      <trkpt lat="48.7069" lon="1.9852">
        <ele>128.55331420898</ele>
        <time>2016-09-22T09:41:29.000Z</time>
      </trkpt>
      <trkpt lat="48.70688" lon="1.98521">
        <ele>128.56889343262</ele>
        <time>2016-09-22T09:41:32.000Z</time>
      </trkpt>
      <trkpt lat="48.70688" lon="1.98526">
        <ele>128.51237487793</ele>
        <time>2016-09-22T09:41:35.000Z</time>
      </trkpt>
      <trkpt lat="48.70687" lon="1.98529">
        <ele>128.38688659668</ele>
        <time>2016-09-22T09:41:37.000Z</time>
      </trkpt>
      <trkpt lat="48.70685" lon="1.98533">
        <ele>128.2311706543</ele>
        <time>2016-09-22T09:41:40.000Z</time>
      </trkpt>
      <trkpt lat="48.70683" lon="1.98536">
        <ele>128.09248352051</ele>
        <time>2016-09-22T09:41:43.000Z</time>
      </trkpt>
      <trkpt lat="48.70681" lon="1.98538">
        <ele>127.92964935303</ele>
        <time>2016-09-22T09:41:45.000Z</time>
      </trkpt>
      <trkpt lat="48.70679" lon="1.98542">
        <ele>127.80484771729</ele>
        <time>2016-09-22T09:41:48.000Z</time>
      </trkpt>
      <trkpt lat="48.70676" lon="1.98546">
        <ele>127.69895172119</ele>
        <time>2016-09-22T09:41:51.000Z</time>
      </trkpt>
      <trkpt lat="48.70674" lon="1.98549">
        <ele>127.60223388672</ele>
        <time>2016-09-22T09:41:53.000Z</time>
      </trkpt>
      <trkpt lat="48.70673" lon="1.98553">
        <ele>127.4674911499</ele>
        <time>2016-09-22T09:41:56.000Z</time>
      </trkpt>
      <trkpt lat="48.70672" lon="1.98554">
        <ele>127.32749938965</ele>
        <time>2016-09-22T09:41:58.000Z</time>
      </trkpt>
      <trkpt lat="48.7067" lon="1.9856">
        <ele>127.16371917725</ele>
        <time>2016-09-22T09:42:01.000Z</time>
      </trkpt>
      <trkpt lat="48.70668" lon="1.98564">
        <ele>126.97320556641</ele>
        <time>2016-09-22T09:42:04.000Z</time>
      </trkpt>
      <trkpt lat="48.70668" lon="1.98564">
        <ele>126.97320556641</ele>
        <time>2016-09-22T09:42:24.000Z</time>
      </trkpt>
      <trkpt lat="48.70667" lon="1.98564">
        <ele>126.81410217285</ele>
        <time>2016-09-22T09:42:43.000Z</time>
      </trkpt>
      <trkpt lat="48.70663" lon="1.9856">
        <ele>126.64112854004</ele>
        <time>2016-09-22T09:42:57.000Z</time>
      </trkpt>
      <trkpt lat="48.70661" lon="1.9856">
        <ele>126.39907073975</ele>
        <time>2016-09-22T09:43:09.000Z</time>
      </trkpt>
      <trkpt lat="48.70661" lon="1.9856">
        <ele>126.39907073975</ele>
        <time>2016-09-22T09:43:29.000Z</time>
      </trkpt>
      <trkpt lat="48.70661" lon="1.98563">
        <ele>126.13885498047</ele>
        <time>2016-09-22T09:44:06.000Z</time>
      </trkpt>
      <trkpt lat="48.70658" lon="1.98559">
        <ele>125.8776473999</ele>
        <time>2016-09-22T09:44:16.000Z</time>
      </trkpt>
      <trkpt lat="48.70659" lon="1.98561">
        <ele>125.61875915527</ele>
        <time>2016-09-22T09:44:18.000Z</time>
      </trkpt>
      <trkpt lat="48.70658" lon="1.98557">
        <ele>125.45538330078</ele>
        <time>2016-09-22T09:46:51.000Z</time>
      </trkpt>
      <trkpt lat="48.7066" lon="1.98556">
        <ele>125.47772216797</ele>
        <time>2016-09-22T09:46:55.000Z</time>
      </trkpt>
      <trkpt lat="48.70662" lon="1.98554">
        <ele>125.67055511475</ele>
        <time>2016-09-22T09:46:57.000Z</time>
      </trkpt>
      <trkpt lat="48.70663" lon="1.98552">
        <ele>126.01831054688</ele>
        <time>2016-09-22T09:47:00.000Z</time>
      </trkpt>
      <trkpt lat="48.70665" lon="1.98551">
        <ele>126.44055175781</ele>
        <time>2016-09-22T09:47:02.000Z</time>
      </trkpt>
      <trkpt lat="48.70667" lon="1.98549">
        <ele>126.91844177246</ele>
        <time>2016-09-22T09:47:05.000Z</time>
      </trkpt>
      <trkpt lat="48.70668" lon="1.98548">
        <ele>127.30003356934</ele>
        <time>2016-09-22T09:47:07.000Z</time>
      </trkpt>
      <trkpt lat="48.7067" lon="1.98546">
        <ele>127.58807373047</ele>
        <time>2016-09-22T09:47:11.000Z</time>
      </trkpt>
      <trkpt lat="48.70673" lon="1.98545">
        <ele>127.7586517334</ele>
        <time>2016-09-22T09:47:14.000Z</time>
      </trkpt>
      <trkpt lat="48.70675" lon="1.98544">
        <ele>127.83744812012</ele>
        <time>2016-09-22T09:47:16.000Z</time>
      </trkpt>
      <trkpt lat="48.70676" lon="1.98542">
        <ele>127.82753753662</ele>
        <time>2016-09-22T09:47:19.000Z</time>
      </trkpt>
      <trkpt lat="48.70678" lon="1.98539">
        <ele>127.82961273193</ele>
        <time>2016-09-22T09:47:22.000Z</time>
      </trkpt>
      <trkpt lat="48.70679" lon="1.98537">
        <ele>127.85178375244</ele>
        <time>2016-09-22T09:47:24.000Z</time>
      </trkpt>
      <trkpt lat="48.7068" lon="1.98535">
        <ele>127.90199279785</ele>
        <time>2016-09-22T09:47:26.000Z</time>
      </trkpt>
      <trkpt lat="48.70683" lon="1.98532">
        <ele>127.95805358887</ele>
        <time>2016-09-22T09:47:29.000Z</time>
      </trkpt>
      <trkpt lat="48.70684" lon="1.98531">
        <ele>128.01739501953</ele>
        <time>2016-09-22T09:47:32.000Z</time>
      </trkpt>
      <trkpt lat="48.70685" lon="1.98531">
        <ele>128.04629516602</ele>
        <time>2016-09-22T09:47:34.000Z</time>
      </trkpt>
      <trkpt lat="48.70686" lon="1.9853">
        <ele>128.04225158691</ele>
        <time>2016-09-22T09:47:36.000Z</time>
      </trkpt>
      <trkpt lat="48.70688" lon="1.98528">
        <ele>128.02774047852</ele>
        <time>2016-09-22T09:47:38.000Z</time>
      </trkpt>
      <trkpt lat="48.7069" lon="1.98525">
        <ele>128.03424072266</ele>
        <time>2016-09-22T09:47:41.000Z</time>
      </trkpt>
      <trkpt lat="48.70691" lon="1.98522">
        <ele>128.06558227539</ele>
        <time>2016-09-22T09:47:43.000Z</time>
      </trkpt>
      <trkpt lat="48.70694" lon="1.9852">
        <ele>128.10786437988</ele>
        <time>2016-09-22T09:47:46.000Z</time>
      </trkpt>
      <trkpt lat="48.70695" lon="1.98519">
        <ele>128.15718078613</ele>
        <time>2016-09-22T09:47:48.000Z</time>
      </trkpt>
      <trkpt lat="48.70697" lon="1.98517">
        <ele>128.19914245605</ele>
        <time>2016-09-22T09:47:51.000Z</time>
      </trkpt>
      <trkpt lat="48.70698" lon="1.98516">
        <ele>128.22076416016</ele>
        <time>2016-09-22T09:47:54.000Z</time>
      </trkpt>
      <trkpt lat="48.70698" lon="1.98514">
        <ele>128.22093200684</ele>
        <time>2016-09-22T09:47:56.000Z</time>
      </trkpt>
      <trkpt lat="48.707" lon="1.98514">
        <ele>128.21447753906</ele>
        <time>2016-09-22T09:47:59.000Z</time>
      </trkpt>
      <trkpt lat="48.70701" lon="1.98515">
        <ele>128.17156982422</ele>
        <time>2016-09-22T09:48:02.000Z</time>
      </trkpt>
      <trkpt lat="48.70701" lon="1.98515">
        <ele>128.17156982422</ele>
        <time>2016-09-22T09:48:22.000Z</time>
      </trkpt>
      <trkpt lat="48.70702" lon="1.98517">
        <ele>128.09243774414</ele>
        <time>2016-09-22T09:48:50.000Z</time>
      </trkpt>
      <trkpt lat="48.70702" lon="1.98514">
        <ele>128.04573059082</ele>
        <time>2016-09-22T09:48:52.000Z</time>
      </trkpt>
      <trkpt lat="48.70702" lon="1.9851">
        <ele>128.04057312012</ele>
        <time>2016-09-22T09:48:54.000Z</time>
      </trkpt>
      <trkpt lat="48.70702" lon="1.98506">
        <ele>128.12313842773</ele>
        <time>2016-09-22T09:48:57.000Z</time>
      </trkpt>
      <trkpt lat="48.707" lon="1.98503">
        <ele>128.31991577148</ele>
        <time>2016-09-22T09:48:59.000Z</time>
      </trkpt>
      <trkpt lat="48.70699" lon="1.98501">
        <ele>128.60954284668</ele>
        <time>2016-09-22T09:49:01.000Z</time>
      </trkpt>
      <trkpt lat="48.70697" lon="1.98498">
        <ele>128.94250488281</ele>
        <time>2016-09-22T09:49:04.000Z</time>
      </trkpt>
      <trkpt lat="48.70696" lon="1.98496">
        <ele>129.2559967041</ele>
        <time>2016-09-22T09:49:07.000Z</time>
      </trkpt>
      <trkpt lat="48.70695" lon="1.98495">
        <ele>129.5362701416</ele>
        <time>2016-09-22T09:49:09.000Z</time>
      </trkpt>
      <trkpt lat="48.70694" lon="1.98491">
        <ele>129.80480957031</ele>
        <time>2016-09-22T09:49:12.000Z</time>
      </trkpt>
      <trkpt lat="48.70692" lon="1.98489">
        <ele>130.07037353516</ele>
        <time>2016-09-22T09:49:14.000Z</time>
      </trkpt>
      <trkpt lat="48.7069" lon="1.98486">
        <ele>130.35821533203</ele>
        <time>2016-09-22T09:49:17.000Z</time>
      </trkpt>
      <trkpt lat="48.70689" lon="1.98484">
        <ele>130.66107177734</ele>
        <time>2016-09-22T09:49:19.000Z</time>
      </trkpt>
      <trkpt lat="48.70687" lon="1.98481">
        <ele>130.99291992188</ele>
        <time>2016-09-22T09:49:22.000Z</time>
      </trkpt>
      <trkpt lat="48.70686" lon="1.9848">
        <ele>131.29052734375</ele>
        <time>2016-09-22T09:49:24.000Z</time>
      </trkpt>
      <trkpt lat="48.70686" lon="1.98478">
        <ele>131.57647705078</ele>
        <time>2016-09-22T09:49:27.000Z</time>
      </trkpt>
      <trkpt lat="48.70685" lon="1.98476">
        <ele>131.80444335938</ele>
        <time>2016-09-22T09:49:31.000Z</time>
      </trkpt>
      <trkpt lat="48.70684" lon="1.98474">
        <ele>132.03149414062</ele>
        <time>2016-09-22T09:49:33.000Z</time>
      </trkpt>
      <trkpt lat="48.70683" lon="1.98471">
        <ele>132.23681640625</ele>
        <time>2016-09-22T09:49:35.000Z</time>
      </trkpt>
      <trkpt lat="48.70683" lon="1.98469">
        <ele>132.44165039062</ele>
        <time>2016-09-22T09:49:38.000Z</time>
      </trkpt>
      <trkpt lat="48.70681" lon="1.98466">
        <ele>132.685546875</ele>
        <time>2016-09-22T09:49:41.000Z</time>
      </trkpt>
      <trkpt lat="48.70678" lon="1.98464">
        <ele>132.97436523438</ele>
        <time>2016-09-22T09:49:43.000Z</time>
      </trkpt>
      <trkpt lat="48.70676" lon="1.98459">
        <ele>133.31201171875</ele>
        <time>2016-09-22T09:49:46.000Z</time>
      </trkpt>
      <trkpt lat="48.70673" lon="1.98455">
        <ele>133.71154785156</ele>
        <time>2016-09-22T09:49:49.000Z</time>
      </trkpt>
      <trkpt lat="48.70672" lon="1.98452">
        <ele>134.15301513672</ele>
        <time>2016-09-22T09:49:52.000Z</time>
      </trkpt>
      <trkpt lat="48.70669" lon="1.98449">
        <ele>134.60943603516</ele>
        <time>2016-09-22T09:49:55.000Z</time>
      </trkpt>
      <trkpt lat="48.70668" lon="1.98448">
        <ele>135.01031494141</ele>
        <time>2016-09-22T09:49:58.000Z</time>
      </trkpt>
      <trkpt lat="48.70667" lon="1.98447">
        <ele>135.33758544922</ele>
        <time>2016-09-22T09:50:00.000Z</time>
      </trkpt>
      <trkpt lat="48.70667" lon="1.98447">
        <ele>135.33758544922</ele>
        <time>2016-09-22T09:50:20.000Z</time>
      </trkpt>
      <trkpt lat="48.70667" lon="1.98442">
        <ele>135.63020324707</ele>
        <time>2016-09-22T09:50:24.000Z</time>
      </trkpt>
      <trkpt lat="48.70667" lon="1.98438">
        <ele>135.90048217773</ele>
        <time>2016-09-22T09:50:26.000Z</time>
      </trkpt>
      <trkpt lat="48.70667" lon="1.98431">
        <ele>136.17318725586</ele>
        <time>2016-09-22T09:50:29.000Z</time>
      </trkpt>
      <trkpt lat="48.70667" lon="1.98427">
        <ele>136.49215698242</ele>
        <time>2016-09-22T09:50:31.000Z</time>
      </trkpt>
      <trkpt lat="48.70667" lon="1.98422">
        <ele>136.84371948242</ele>
        <time>2016-09-22T09:50:33.000Z</time>
      </trkpt>
      <trkpt lat="48.70667" lon="1.98418">
        <ele>137.18630981445</ele>
        <time>2016-09-22T09:50:35.000Z</time>
      </trkpt>
      <trkpt lat="48.70666" lon="1.98411">
        <ele>137.64822387695</ele>
        <time>2016-09-22T09:50:40.000Z</time>
      </trkpt>
      <trkpt lat="48.70665" lon="1.98404">
        <ele>138.20495605469</ele>
        <time>2016-09-22T09:50:45.000Z</time>
      </trkpt>
      <trkpt lat="48.70665" lon="1.98398">
        <ele>138.84494018555</ele>
        <time>2016-09-22T09:50:47.000Z</time>
      </trkpt>
      <trkpt lat="48.70666" lon="1.98392">
        <ele>139.61601257324</ele>
        <time>2016-09-22T09:50:50.000Z</time>
      </trkpt>
      <trkpt lat="48.70667" lon="1.9839">
        <ele>140.40902709961</ele>
        <time>2016-09-22T09:50:52.000Z</time>
      </trkpt>
      <trkpt lat="48.70668" lon="1.98387">
        <ele>141.09970092773</ele>
        <time>2016-09-22T09:50:55.000Z</time>
      </trkpt>
      <trkpt lat="48.70668" lon="1.98382">
        <ele>141.73750305176</ele>
        <time>2016-09-22T09:50:58.000Z</time>
      </trkpt>
      <trkpt lat="48.70668" lon="1.98378">
        <ele>142.31503295898</ele>
        <time>2016-09-22T09:51:01.000Z</time>
      </trkpt>
      <trkpt lat="48.7067" lon="1.98375">
        <ele>142.77223205566</ele>
        <time>2016-09-22T09:51:04.000Z</time>
      </trkpt>
      <trkpt lat="48.7067" lon="1.98371">
        <ele>143.2532043457</ele>
        <time>2016-09-22T09:51:07.000Z</time>
      </trkpt>
      <trkpt lat="48.7067" lon="1.98365">
        <ele>143.83625793457</ele>
        <time>2016-09-22T09:51:10.000Z</time>
      </trkpt>
      <trkpt lat="48.70671" lon="1.98362">
        <ele>144.34349060059</ele>
        <time>2016-09-22T09:51:13.000Z</time>
      </trkpt>
      <trkpt lat="48.70671" lon="1.9836">
        <ele>144.83787536621</ele>
        <time>2016-09-22T09:51:15.000Z</time>
      </trkpt>
      <trkpt lat="48.7067" lon="1.98356">
        <ele>145.3737487793</ele>
        <time>2016-09-22T09:51:18.000Z</time>
      </trkpt>
      <trkpt lat="48.7067" lon="1.98354">
        <ele>145.86364746094</ele>
        <time>2016-09-22T09:51:20.000Z</time>
      </trkpt>
      <trkpt lat="48.7067" lon="1.98352">
        <ele>146.2395324707</ele>
        <time>2016-09-22T09:51:22.000Z</time>
      </trkpt>
      <trkpt lat="48.70671" lon="1.98349">
        <ele>146.59948730469</ele>
        <time>2016-09-22T09:51:25.000Z</time>
      </trkpt>
      <trkpt lat="48.70669" lon="1.98347">
        <ele>146.97366333008</ele>
        <time>2016-09-22T09:51:28.000Z</time>
      </trkpt>
      <trkpt lat="48.70667" lon="1.98345">
        <ele>147.3461151123</ele>
        <time>2016-09-22T09:51:30.000Z</time>
      </trkpt>
      <trkpt lat="48.70665" lon="1.98339">
        <ele>147.79814147949</ele>
        <time>2016-09-22T09:51:33.000Z</time>
      </trkpt>
      <trkpt lat="48.70665" lon="1.98334">
        <ele>148.34024047852</ele>
        <time>2016-09-22T09:51:36.000Z</time>
      </trkpt>
      <trkpt lat="48.70664" lon="1.9833">
        <ele>148.86349487305</ele>
        <time>2016-09-22T09:51:39.000Z</time>
      </trkpt>
      <trkpt lat="48.70663" lon="1.98325">
        <ele>149.31674194336</ele>
        <time>2016-09-22T09:51:42.000Z</time>
      </trkpt>
      <trkpt lat="48.70663" lon="1.98323">
        <ele>149.67489624023</ele>
        <time>2016-09-22T09:51:44.000Z</time>
      </trkpt>
      <trkpt lat="48.70662" lon="1.98319">
        <ele>149.89996337891</ele>
        <time>2016-09-22T09:51:47.000Z</time>
      </trkpt>
      <trkpt lat="48.70661" lon="1.98316">
        <ele>149.97630310059</ele>
        <time>2016-09-22T09:51:49.000Z</time>
      </trkpt>
      <trkpt lat="48.7066" lon="1.98314">
        <ele>150.02850341797</ele>
        <time>2016-09-22T09:51:51.000Z</time>
      </trkpt>
      <trkpt lat="48.70659" lon="1.9831">
        <ele>150.07217407227</ele>
        <time>2016-09-22T09:51:53.000Z</time>
      </trkpt>
      <trkpt lat="48.70657" lon="1.98304">
        <ele>150.13459777832</ele>
        <time>2016-09-22T09:51:56.000Z</time>
      </trkpt>
      <trkpt lat="48.70656" lon="1.98301">
        <ele>150.19192504883</ele>
        <time>2016-09-22T09:51:58.000Z</time>
      </trkpt>
      <trkpt lat="48.70654" lon="1.98295">
        <ele>150.26777648926</ele>
        <time>2016-09-22T09:52:01.000Z</time>
      </trkpt>
      <trkpt lat="48.70652" lon="1.98288">
        <ele>150.3740234375</ele>
        <time>2016-09-22T09:52:04.000Z</time>
      </trkpt>
      <trkpt lat="48.70651" lon="1.98285">
        <ele>150.48608398438</ele>
        <time>2016-09-22T09:52:06.000Z</time>
      </trkpt>
      <trkpt lat="48.70652" lon="1.98284">
        <ele>150.58248901367</ele>
        <time>2016-09-22T09:52:08.000Z</time>
      </trkpt>
      <trkpt lat="48.70653" lon="1.98283">
        <ele>150.69584655762</ele>
        <time>2016-09-22T09:52:12.000Z</time>
      </trkpt>
      <trkpt lat="48.70653" lon="1.9828">
        <ele>150.81950378418</ele>
        <time>2016-09-22T09:52:14.000Z</time>
      </trkpt>
      <trkpt lat="48.70651" lon="1.98274">
        <ele>150.94888305664</ele>
        <time>2016-09-22T09:52:17.000Z</time>
      </trkpt>
      <trkpt lat="48.7065" lon="1.98272">
        <ele>151.0710144043</ele>
        <time>2016-09-22T09:52:19.000Z</time>
      </trkpt>
      <trkpt lat="48.7065" lon="1.98269">
        <ele>151.20217895508</ele>
        <time>2016-09-22T09:52:21.000Z</time>
      </trkpt>
      <trkpt lat="48.70649" lon="1.98265">
        <ele>151.33374023438</ele>
        <time>2016-09-22T09:52:24.000Z</time>
      </trkpt>
      <trkpt lat="48.70648" lon="1.98263">
        <ele>151.44819641113</ele>
        <time>2016-09-22T09:52:26.000Z</time>
      </trkpt>
      <trkpt lat="48.70647" lon="1.98262">
        <ele>151.53831481934</ele>
        <time>2016-09-22T09:52:29.000Z</time>
      </trkpt>
      <trkpt lat="48.70648" lon="1.9826">
        <ele>151.62979125977</ele>
        <time>2016-09-22T09:52:31.000Z</time>
      </trkpt>
      <trkpt lat="48.70647" lon="1.98258">
        <ele>151.71090698242</ele>
        <time>2016-09-22T09:52:34.000Z</time>
      </trkpt>
      <trkpt lat="48.70647" lon="1.98253">
        <ele>151.81520080566</ele>
        <time>2016-09-22T09:52:37.000Z</time>
      </trkpt>
      <trkpt lat="48.70644" lon="1.98248">
        <ele>151.93478393555</ele>
        <time>2016-09-22T09:52:40.000Z</time>
      </trkpt>
      <trkpt lat="48.70643" lon="1.98243">
        <ele>152.04678344727</ele>
        <time>2016-09-22T09:52:43.000Z</time>
      </trkpt>
      <trkpt lat="48.70642" lon="1.98238">
        <ele>152.14895629883</ele>
        <time>2016-09-22T09:52:45.000Z</time>
      </trkpt>
      <trkpt lat="48.7064" lon="1.98233">
        <ele>152.24618530273</ele>
        <time>2016-09-22T09:52:48.000Z</time>
      </trkpt>
      <trkpt lat="48.70638" lon="1.98229">
        <ele>152.30688476562</ele>
        <time>2016-09-22T09:52:50.000Z</time>
      </trkpt>
      <trkpt lat="48.70638" lon="1.98228">
        <ele>152.34785461426</ele>
        <time>2016-09-22T09:52:52.000Z</time>
      </trkpt>
      <trkpt lat="48.70638" lon="1.98225">
        <ele>152.39669799805</ele>
        <time>2016-09-22T09:52:55.000Z</time>
      </trkpt>
      <trkpt lat="48.70636" lon="1.98221">
        <ele>152.45143127441</ele>
        <time>2016-09-22T09:52:57.000Z</time>
      </trkpt>
      <trkpt lat="48.70634" lon="1.98217">
        <ele>152.51251220703</ele>
        <time>2016-09-22T09:52:59.000Z</time>
      </trkpt>
      <trkpt lat="48.70634" lon="1.98215">
        <ele>152.57733154297</ele>
        <time>2016-09-22T09:53:01.000Z</time>
      </trkpt>
      <trkpt lat="48.70635" lon="1.98214">
        <ele>152.63650512695</ele>
        <time>2016-09-22T09:53:06.000Z</time>
      </trkpt>
      <trkpt lat="48.70635" lon="1.98211">
        <ele>152.69844055176</ele>
        <time>2016-09-22T09:53:08.000Z</time>
      </trkpt>
      <trkpt lat="48.70634" lon="1.98206">
        <ele>152.77749633789</ele>
        <time>2016-09-22T09:53:11.000Z</time>
      </trkpt>
      <trkpt lat="48.70633" lon="1.982">
        <ele>152.86819458008</ele>
        <time>2016-09-22T09:53:14.000Z</time>
      </trkpt>
      <trkpt lat="48.70633" lon="1.98198">
        <ele>152.95878601074</ele>
        <time>2016-09-22T09:53:16.000Z</time>
      </trkpt>
      <trkpt lat="48.70632" lon="1.98196">
        <ele>153.0615234375</ele>
        <time>2016-09-22T09:53:19.000Z</time>
      </trkpt>
      <trkpt lat="48.70632" lon="1.98196">
        <ele>153.0615234375</ele>
        <time>2016-09-22T09:53:39.000Z</time>
      </trkpt>
      <trkpt lat="48.70644" lon="1.98166">
        <ele>153.17611694336</ele>
        <time>2016-09-22T09:54:34.000Z</time>
      </trkpt>
      <trkpt lat="48.70638" lon="1.98175">
        <ele>153.2938079834</ele>
        <time>2016-09-22T09:54:37.000Z</time>
      </trkpt>
      <trkpt lat="48.70631" lon="1.98172">
        <ele>153.47456359863</ele>
        <time>2016-09-22T09:54:40.000Z</time>
      </trkpt>
      <trkpt lat="48.70628" lon="1.98169">
        <ele>153.69404602051</ele>
        <time>2016-09-22T09:54:42.000Z</time>
      </trkpt>
      <trkpt lat="48.70625" lon="1.98165">
        <ele>153.95248413086</ele>
        <time>2016-09-22T09:54:45.000Z</time>
      </trkpt>
      <trkpt lat="48.70623" lon="1.9816">
        <ele>154.2145690918</ele>
        <time>2016-09-22T09:54:48.000Z</time>
      </trkpt>
      <trkpt lat="48.70621" lon="1.98155">
        <ele>154.46363830566</ele>
        <time>2016-09-22T09:54:51.000Z</time>
      </trkpt>
      <trkpt lat="48.70621" lon="1.9815">
        <ele>154.63079833984</ele>
        <time>2016-09-22T09:54:54.000Z</time>
      </trkpt>
      <trkpt lat="48.70621" lon="1.98147">
        <ele>154.74996948242</ele>
        <time>2016-09-22T09:54:57.000Z</time>
      </trkpt>
      <trkpt lat="48.70621" lon="1.98144">
        <ele>154.82174682617</ele>
        <time>2016-09-22T09:54:59.000Z</time>
      </trkpt>
      <trkpt lat="48.70621" lon="1.98139">
        <ele>154.86935424805</ele>
        <time>2016-09-22T09:55:02.000Z</time>
      </trkpt>
      <trkpt lat="48.70619" lon="1.98134">
        <ele>154.92349243164</ele>
        <time>2016-09-22T09:55:05.000Z</time>
      </trkpt>
      <trkpt lat="48.70618" lon="1.9813">
        <ele>154.98245239258</ele>
        <time>2016-09-22T09:55:07.000Z</time>
      </trkpt>
      <trkpt lat="48.70619" lon="1.98127">
        <ele>155.03573608398</ele>
        <time>2016-09-22T09:55:10.000Z</time>
      </trkpt>
      <trkpt lat="48.70619" lon="1.98122">
        <ele>155.09208679199</ele>
        <time>2016-09-22T09:55:13.000Z</time>
      </trkpt>
      <trkpt lat="48.70618" lon="1.98115">
        <ele>155.16177368164</ele>
        <time>2016-09-22T09:55:16.000Z</time>
      </trkpt>
      <trkpt lat="48.70617" lon="1.98112">
        <ele>155.2193145752</ele>
        <time>2016-09-22T09:55:18.000Z</time>
      </trkpt>
      <trkpt lat="48.70616" lon="1.98107">
        <ele>155.29048156738</ele>
        <time>2016-09-22T09:55:21.000Z</time>
      </trkpt>
      <trkpt lat="48.70615" lon="1.98102">
        <ele>155.37596130371</ele>
        <time>2016-09-22T09:55:24.000Z</time>
      </trkpt>
      <trkpt lat="48.70615" lon="1.98098">
        <ele>155.4654083252</ele>
        <time>2016-09-22T09:55:26.000Z</time>
      </trkpt>
      <trkpt lat="48.70615" lon="1.98091">
        <ele>155.54438781738</ele>
        <time>2016-09-22T09:55:29.000Z</time>
      </trkpt>
      <trkpt lat="48.70615" lon="1.98088">
        <ele>155.61920166016</ele>
        <time>2016-09-22T09:55:31.000Z</time>
      </trkpt>
      <trkpt lat="48.70614" lon="1.98082">
        <ele>155.67195129395</ele>
        <time>2016-09-22T09:55:34.000Z</time>
      </trkpt>
      <trkpt lat="48.70614" lon="1.98079">
        <ele>155.70401000977</ele>
        <time>2016-09-22T09:55:36.000Z</time>
      </trkpt>
      <trkpt lat="48.70615" lon="1.98073">
        <ele>155.69778442383</ele>
        <time>2016-09-22T09:55:39.000Z</time>
      </trkpt>
      <trkpt lat="48.70615" lon="1.98069">
        <ele>155.67663574219</ele>
        <time>2016-09-22T09:55:41.000Z</time>
      </trkpt>
      <trkpt lat="48.70615" lon="1.98063">
        <ele>155.62631225586</ele>
        <time>2016-09-22T09:55:44.000Z</time>
      </trkpt>
      <trkpt lat="48.70614" lon="1.98058">
        <ele>155.55581665039</ele>
        <time>2016-09-22T09:55:46.000Z</time>
      </trkpt>
      <trkpt lat="48.70613" lon="1.9805">
        <ele>155.48405456543</ele>
        <time>2016-09-22T09:55:49.000Z</time>
      </trkpt>
      <trkpt lat="48.70612" lon="1.98046">
        <ele>155.43685913086</ele>
        <time>2016-09-22T09:55:51.000Z</time>
      </trkpt>
      <trkpt lat="48.70612" lon="1.98041">
        <ele>155.38360595703</ele>
        <time>2016-09-22T09:55:53.000Z</time>
      </trkpt>
      <trkpt lat="48.70611" lon="1.98033">
        <ele>155.33009338379</ele>
        <time>2016-09-22T09:55:56.000Z</time>
      </trkpt>
      <trkpt lat="48.7061" lon="1.98027">
        <ele>155.27861022949</ele>
        <time>2016-09-22T09:55:58.000Z</time>
      </trkpt>
      <trkpt lat="48.70609" lon="1.9802">
        <ele>155.21340942383</ele>
        <time>2016-09-22T09:56:01.000Z</time>
      </trkpt>
      <trkpt lat="48.7061" lon="1.98016">
        <ele>155.13499450684</ele>
        <time>2016-09-22T09:56:03.000Z</time>
      </trkpt>
      <trkpt lat="48.7061" lon="1.98012">
        <ele>155.05094909668</ele>
        <time>2016-09-22T09:56:06.000Z</time>
      </trkpt>
      <trkpt lat="48.7061" lon="1.98008">
        <ele>154.97483825684</ele>
        <time>2016-09-22T09:56:08.000Z</time>
      </trkpt>
      <trkpt lat="48.7061" lon="1.98005">
        <ele>154.89590454102</ele>
        <time>2016-09-22T09:56:10.000Z</time>
      </trkpt>
      <trkpt lat="48.7061" lon="1.97999">
        <ele>154.82699584961</ele>
        <time>2016-09-22T09:56:13.000Z</time>
      </trkpt>
      <trkpt lat="48.7061" lon="1.97994">
        <ele>154.79605102539</ele>
        <time>2016-09-22T09:56:15.000Z</time>
      </trkpt>
      <trkpt lat="48.7061" lon="1.97989">
        <ele>154.80865478516</ele>
        <time>2016-09-22T09:56:18.000Z</time>
      </trkpt>
      <trkpt lat="48.7061" lon="1.97985">
        <ele>154.8490447998</ele>
        <time>2016-09-22T09:56:21.000Z</time>
      </trkpt>
      <trkpt lat="48.70611" lon="1.97983">
        <ele>154.91241455078</ele>
        <time>2016-09-22T09:56:23.000Z</time>
      </trkpt>
      <trkpt lat="48.70612" lon="1.97981">
        <ele>154.99517822266</ele>
        <time>2016-09-22T09:56:25.000Z</time>
      </trkpt>
      <trkpt lat="48.70611" lon="1.97978">
        <ele>155.07122802734</ele>
        <time>2016-09-22T09:56:28.000Z</time>
      </trkpt>
      <trkpt lat="48.7061" lon="1.97975">
        <ele>155.13726806641</ele>
        <time>2016-09-22T09:56:30.000Z</time>
      </trkpt>
      <trkpt lat="48.70607" lon="1.97971">
        <ele>155.2119140625</ele>
        <time>2016-09-22T09:56:33.000Z</time>
      </trkpt>
      <trkpt lat="48.70604" lon="1.97969">
        <ele>155.29895019531</ele>
        <time>2016-09-22T09:56:36.000Z</time>
      </trkpt>
      <trkpt lat="48.706" lon="1.97967">
        <ele>155.39624023438</ele>
        <time>2016-09-22T09:56:39.000Z</time>
      </trkpt>
      <trkpt lat="48.70596" lon="1.97965">
        <ele>155.49377441406</ele>
        <time>2016-09-22T09:56:42.000Z</time>
      </trkpt>
      <trkpt lat="48.70594" lon="1.97964">
        <ele>155.58447265625</ele>
        <time>2016-09-22T09:56:44.000Z</time>
      </trkpt>
      <trkpt lat="48.70591" lon="1.97962">
        <ele>155.66644287109</ele>
        <time>2016-09-22T09:56:47.000Z</time>
      </trkpt>
      <trkpt lat="48.7059" lon="1.97961">
        <ele>155.73669433594</ele>
        <time>2016-09-22T09:56:49.000Z</time>
      </trkpt>
      <trkpt lat="48.70588" lon="1.97957">
        <ele>155.81158447266</ele>
        <time>2016-09-22T09:56:52.000Z</time>
      </trkpt>
      <trkpt lat="48.70583" lon="1.97951">
        <ele>155.90972900391</ele>
        <time>2016-09-22T09:56:55.000Z</time>
      </trkpt>
      <trkpt lat="48.7058" lon="1.97947">
        <ele>156.00405883789</ele>
        <time>2016-09-22T09:56:57.000Z</time>
      </trkpt>
      <trkpt lat="48.70578" lon="1.97945">
        <ele>156.08453369141</ele>
        <time>2016-09-22T09:57:00.000Z</time>
      </trkpt>
      <trkpt lat="48.70576" lon="1.97941">
        <ele>156.16885375977</ele>
        <time>2016-09-22T09:57:03.000Z</time>
      </trkpt>
      <trkpt lat="48.70573" lon="1.97935">
        <ele>156.26258850098</ele>
        <time>2016-09-22T09:57:13.000Z</time>
      </trkpt>
      <trkpt lat="48.70572" lon="1.97931">
        <ele>156.33430480957</ele>
        <time>2016-09-22T09:57:17.000Z</time>
      </trkpt>
      <trkpt lat="48.70569" lon="1.97927">
        <ele>156.42245483398</ele>
        <time>2016-09-22T09:57:20.000Z</time>
      </trkpt>
      <trkpt lat="48.70567" lon="1.97925">
        <ele>156.52188110352</ele>
        <time>2016-09-22T09:57:23.000Z</time>
      </trkpt>
      <trkpt lat="48.70565" lon="1.97921">
        <ele>156.63198852539</ele>
        <time>2016-09-22T09:57:25.000Z</time>
      </trkpt>
      <trkpt lat="48.70564" lon="1.97918">
        <ele>156.73193359375</ele>
        <time>2016-09-22T09:57:27.000Z</time>
      </trkpt>
      <trkpt lat="48.7056" lon="1.97915">
        <ele>156.84321594238</ele>
        <time>2016-09-22T09:57:30.000Z</time>
      </trkpt>
      <trkpt lat="48.70558" lon="1.97913">
        <ele>156.95401000977</ele>
        <time>2016-09-22T09:57:32.000Z</time>
      </trkpt>
      <trkpt lat="48.70555" lon="1.97912">
        <ele>157.06658935547</ele>
        <time>2016-09-22T09:57:35.000Z</time>
      </trkpt>
      <trkpt lat="48.70552" lon="1.97911">
        <ele>157.16122436523</ele>
        <time>2016-09-22T09:57:38.000Z</time>
      </trkpt>
      <trkpt lat="48.70551" lon="1.9791">
        <ele>157.24572753906</ele>
        <time>2016-09-22T09:57:40.000Z</time>
      </trkpt>
      <trkpt lat="48.7055" lon="1.9791">
        <ele>157.30880737305</ele>
        <time>2016-09-22T09:57:42.000Z</time>
      </trkpt>
      <trkpt lat="48.70549" lon="1.97908">
        <ele>157.36668395996</ele>
        <time>2016-09-22T09:57:46.000Z</time>
      </trkpt>
      <trkpt lat="48.70545" lon="1.97907">
        <ele>157.42008972168</ele>
        <time>2016-09-22T09:58:06.000Z</time>
      </trkpt>
      <trkpt lat="48.70543" lon="1.97905">
        <ele>157.49946594238</ele>
        <time>2016-09-22T09:58:08.000Z</time>
      </trkpt>
      <trkpt lat="48.70538" lon="1.979">
        <ele>157.62554931641</ele>
        <time>2016-09-22T09:58:11.000Z</time>
      </trkpt>
      <trkpt lat="48.70534" lon="1.97897">
        <ele>157.78970336914</ele>
        <time>2016-09-22T09:58:14.000Z</time>
      </trkpt>
      <trkpt lat="48.70531" lon="1.97896">
        <ele>157.95809936523</ele>
        <time>2016-09-22T09:58:16.000Z</time>
      </trkpt>
      <trkpt lat="48.70529" lon="1.97894">
        <ele>158.13764953613</ele>
        <time>2016-09-22T09:58:18.000Z</time>
      </trkpt>
      <trkpt lat="48.70526" lon="1.97891">
        <ele>158.3229675293</ele>
        <time>2016-09-22T09:58:21.000Z</time>
      </trkpt>
      <trkpt lat="48.70523" lon="1.9789">
        <ele>158.47122192383</ele>
        <time>2016-09-22T09:58:23.000Z</time>
      </trkpt>
      <trkpt lat="48.70522" lon="1.97889">
        <ele>158.58706665039</ele>
        <time>2016-09-22T09:58:26.000Z</time>
      </trkpt>
      <trkpt lat="48.70518" lon="1.97885">
        <ele>158.73907470703</ele>
        <time>2016-09-22T09:58:28.000Z</time>
      </trkpt>
      <trkpt lat="48.70514" lon="1.97885">
        <ele>158.88395690918</ele>
        <time>2016-09-22T09:58:34.000Z</time>
      </trkpt>
      <trkpt lat="48.70511" lon="1.97884">
        <ele>159.00784301758</ele>
        <time>2016-09-22T09:58:39.000Z</time>
      </trkpt>
      <trkpt lat="48.70509" lon="1.97882">
        <ele>159.14767456055</ele>
        <time>2016-09-22T09:58:41.000Z</time>
      </trkpt>
      <trkpt lat="48.70505" lon="1.97879">
        <ele>159.3232421875</ele>
        <time>2016-09-22T09:58:44.000Z</time>
      </trkpt>
      <trkpt lat="48.70501" lon="1.97874">
        <ele>159.51457214355</ele>
        <time>2016-09-22T09:58:47.000Z</time>
      </trkpt>
      <trkpt lat="48.70498" lon="1.97872">
        <ele>159.71194458008</ele>
        <time>2016-09-22T09:58:49.000Z</time>
      </trkpt>
      <trkpt lat="48.70494" lon="1.97868">
        <ele>159.92304992676</ele>
        <time>2016-09-22T09:58:52.000Z</time>
      </trkpt>
      <trkpt lat="48.70492" lon="1.97864">
        <ele>160.14022827148</ele>
        <time>2016-09-22T09:58:54.000Z</time>
      </trkpt>
      <trkpt lat="48.70491" lon="1.97863">
        <ele>160.32078552246</ele>
        <time>2016-09-22T09:58:57.000Z</time>
      </trkpt>
      <trkpt lat="48.70488" lon="1.97858">
        <ele>160.49185180664</ele>
        <time>2016-09-22T09:59:02.000Z</time>
      </trkpt>
      <trkpt lat="48.70487" lon="1.97856">
        <ele>160.65496826172</ele>
        <time>2016-09-22T09:59:05.000Z</time>
      </trkpt>
      <trkpt lat="48.70486" lon="1.97854">
        <ele>160.80569458008</ele>
        <time>2016-09-22T09:59:07.000Z</time>
      </trkpt>
      <trkpt lat="48.70484" lon="1.97852">
        <ele>160.93605041504</ele>
        <time>2016-09-22T09:59:09.000Z</time>
      </trkpt>
      <trkpt lat="48.70482" lon="1.9785">
        <ele>161.07888793945</ele>
        <time>2016-09-22T09:59:12.000Z</time>
      </trkpt>
      <trkpt lat="48.7048" lon="1.97846">
        <ele>161.20610046387</ele>
        <time>2016-09-22T09:59:15.000Z</time>
      </trkpt>
      <trkpt lat="48.70477" lon="1.97843">
        <ele>161.34475708008</ele>
        <time>2016-09-22T09:59:18.000Z</time>
      </trkpt>
      <trkpt lat="48.70476" lon="1.97843">
        <ele>161.47085571289</ele>
        <time>2016-09-22T09:59:20.000Z</time>
      </trkpt>
      <trkpt lat="48.70475" lon="1.97841">
        <ele>161.59033203125</ele>
        <time>2016-09-22T09:59:22.000Z</time>
      </trkpt>
      <trkpt lat="48.70473" lon="1.97838">
        <ele>161.72158813477</ele>
        <time>2016-09-22T09:59:25.000Z</time>
      </trkpt>
      <trkpt lat="48.70472" lon="1.97836">
        <ele>161.83564758301</ele>
        <time>2016-09-22T09:59:27.000Z</time>
      </trkpt>
      <trkpt lat="48.70471" lon="1.97833">
        <ele>161.96176147461</ele>
        <time>2016-09-22T09:59:30.000Z</time>
      </trkpt>
      <trkpt lat="48.70471" lon="1.97833">
        <ele>161.96176147461</ele>
        <time>2016-09-22T09:59:50.000Z</time>
      </trkpt>
      <trkpt lat="48.70469" lon="1.97826">
        <ele>162.1208190918</ele>
        <time>2016-09-22T10:00:17.000Z</time>
      </trkpt>
      <trkpt lat="48.70469" lon="1.97826">
        <ele>162.1208190918</ele>
        <time>2016-09-22T10:00:37.000Z</time>
      </trkpt>
      <trkpt lat="48.70467" lon="1.97822">
        <ele>162.28201293945</ele>
        <time>2016-09-22T10:00:47.000Z</time>
      </trkpt>
      <trkpt lat="48.70465" lon="1.97821">
        <ele>162.41079711914</ele>
        <time>2016-09-22T10:00:49.000Z</time>
      </trkpt>
      <trkpt lat="48.70462" lon="1.97817">
        <ele>162.52279663086</ele>
        <time>2016-09-22T10:00:52.000Z</time>
      </trkpt>
      <trkpt lat="48.70459" lon="1.97814">
        <ele>162.60580444336</ele>
        <time>2016-09-22T10:00:54.000Z</time>
      </trkpt>
      <trkpt lat="48.70455" lon="1.97811">
        <ele>162.66188049316</ele>
        <time>2016-09-22T10:00:57.000Z</time>
      </trkpt>
      <trkpt lat="48.70452" lon="1.97807">
        <ele>162.71090698242</ele>
        <time>2016-09-22T10:01:00.000Z</time>
      </trkpt>
      <trkpt lat="48.70449" lon="1.97805">
        <ele>162.76577758789</ele>
        <time>2016-09-22T10:01:02.000Z</time>
      </trkpt>
      <trkpt lat="48.70447" lon="1.97802">
        <ele>162.82231140137</ele>
        <time>2016-09-22T10:01:05.000Z</time>
      </trkpt>
      <trkpt lat="48.70444" lon="1.978">
        <ele>162.88288879395</ele>
        <time>2016-09-22T10:01:08.000Z</time>
      </trkpt>
      <trkpt lat="48.70441" lon="1.97795">
        <ele>162.96377563477</ele>
        <time>2016-09-22T10:01:10.000Z</time>
      </trkpt>
      <trkpt lat="48.7044" lon="1.97793">
        <ele>163.04679870605</ele>
        <time>2016-09-22T10:01:12.000Z</time>
      </trkpt>
      <trkpt lat="48.70438" lon="1.97791">
        <ele>163.12768554688</ele>
        <time>2016-09-22T10:01:15.000Z</time>
      </trkpt>
      <trkpt lat="48.70436" lon="1.9779">
        <ele>163.19987487793</ele>
        <time>2016-09-22T10:01:17.000Z</time>
      </trkpt>
      <trkpt lat="48.70432" lon="1.97787">
        <ele>163.27328491211</ele>
        <time>2016-09-22T10:01:20.000Z</time>
      </trkpt>
      <trkpt lat="48.70428" lon="1.97785">
        <ele>163.32373046875</ele>
        <time>2016-09-22T10:01:23.000Z</time>
      </trkpt>
      <trkpt lat="48.70426" lon="1.97783">
        <ele>163.37780761719</ele>
        <time>2016-09-22T10:01:25.000Z</time>
      </trkpt>
      <trkpt lat="48.70424" lon="1.9778">
        <ele>163.44731140137</ele>
        <time>2016-09-22T10:01:27.000Z</time>
      </trkpt>
      <trkpt lat="48.70421" lon="1.97777">
        <ele>163.53234863281</ele>
        <time>2016-09-22T10:01:30.000Z</time>
      </trkpt>
      <trkpt lat="48.70418" lon="1.97775">
        <ele>163.61459350586</ele>
        <time>2016-09-22T10:01:33.000Z</time>
      </trkpt>
      <trkpt lat="48.70414" lon="1.97775">
        <ele>163.61714172363</ele>
        <time>2016-09-22T10:01:36.000Z</time>
      </trkpt>
      <trkpt lat="48.70412" lon="1.97776">
        <ele>163.55429077148</ele>
        <time>2016-09-22T10:01:38.000Z</time>
      </trkpt>
      <trkpt lat="48.70409" lon="1.97775">
        <ele>163.35678100586</ele>
        <time>2016-09-22T10:01:41.000Z</time>
      </trkpt>
      <trkpt lat="48.70404" lon="1.97776">
        <ele>163.00253295898</ele>
        <time>2016-09-22T10:01:44.000Z</time>
      </trkpt>
      <trkpt lat="48.70402" lon="1.97777">
        <ele>162.55749511719</ele>
        <time>2016-09-22T10:01:46.000Z</time>
      </trkpt>
      <trkpt lat="48.70399" lon="1.97777">
        <ele>162.10583496094</ele>
        <time>2016-09-22T10:01:48.000Z</time>
      </trkpt>
      <trkpt lat="48.70396" lon="1.97777">
        <ele>161.60493469238</ele>
        <time>2016-09-22T10:01:51.000Z</time>
      </trkpt>
      <trkpt lat="48.70395" lon="1.97775">
        <ele>161.21778869629</ele>
        <time>2016-09-22T10:01:53.000Z</time>
      </trkpt>
      <trkpt lat="48.70393" lon="1.97772">
        <ele>160.9596862793</ele>
        <time>2016-09-22T10:01:55.000Z</time>
      </trkpt>
      <trkpt lat="48.70391" lon="1.97769">
        <ele>160.75900268555</ele>
        <time>2016-09-22T10:01:58.000Z</time>
      </trkpt>
      <trkpt lat="48.7039" lon="1.97768">
        <ele>160.63998413086</ele>
        <time>2016-09-22T10:02:01.000Z</time>
      </trkpt>
      <trkpt lat="48.70387" lon="1.97762">
        <ele>160.62614440918</ele>
        <time>2016-09-22T10:02:07.000Z</time>
      </trkpt>
      <trkpt lat="48.70385" lon="1.97758">
        <ele>160.58784484863</ele>
        <time>2016-09-22T10:02:19.000Z</time>
      </trkpt>
      <trkpt lat="48.70381" lon="1.97755">
        <ele>160.5146484375</ele>
        <time>2016-09-22T10:02:22.000Z</time>
      </trkpt>
      <trkpt lat="48.70375" lon="1.9775">
        <ele>160.41882324219</ele>
        <time>2016-09-22T10:02:25.000Z</time>
      </trkpt>
      <trkpt lat="48.70371" lon="1.97745">
        <ele>160.25032043457</ele>
        <time>2016-09-22T10:02:28.000Z</time>
      </trkpt>
      <trkpt lat="48.70367" lon="1.97741">
        <ele>160.00610351562</ele>
        <time>2016-09-22T10:02:31.000Z</time>
      </trkpt>
      <trkpt lat="48.70365" lon="1.97738">
        <ele>159.76638793945</ele>
        <time>2016-09-22T10:02:33.000Z</time>
      </trkpt>
      <trkpt lat="48.70361" lon="1.97732">
        <ele>159.54919433594</ele>
        <time>2016-09-22T10:02:37.000Z</time>
      </trkpt>
      <trkpt lat="48.70359" lon="1.9773">
        <ele>159.33557128906</ele>
        <time>2016-09-22T10:02:40.000Z</time>
      </trkpt>
      <trkpt lat="48.70356" lon="1.97727">
        <ele>159.16557312012</ele>
        <time>2016-09-22T10:02:43.000Z</time>
      </trkpt>
      <trkpt lat="48.70352" lon="1.97724">
        <ele>159.00743103027</ele>
        <time>2016-09-22T10:02:46.000Z</time>
      </trkpt>
      <trkpt lat="48.70349" lon="1.97721">
        <ele>158.82197570801</ele>
        <time>2016-09-22T10:02:48.000Z</time>
      </trkpt>
      <trkpt lat="48.70346" lon="1.97719">
        <ele>158.61447143555</ele>
        <time>2016-09-22T10:02:50.000Z</time>
      </trkpt>
      <trkpt lat="48.70342" lon="1.97717">
        <ele>158.38241577148</ele>
        <time>2016-09-22T10:02:53.000Z</time>
      </trkpt>
      <trkpt lat="48.70339" lon="1.97716">
        <ele>158.12954711914</ele>
        <time>2016-09-22T10:02:56.000Z</time>
      </trkpt>
      <trkpt lat="48.70338" lon="1.97715">
        <ele>157.92192077637</ele>
        <time>2016-09-22T10:02:58.000Z</time>
      </trkpt>
      <trkpt lat="48.70334" lon="1.9771">
        <ele>157.73774719238</ele>
        <time>2016-09-22T10:03:01.000Z</time>
      </trkpt>
      <trkpt lat="48.70332" lon="1.97707">
        <ele>157.56631469727</ele>
        <time>2016-09-22T10:03:03.000Z</time>
      </trkpt>
      <trkpt lat="48.70332" lon="1.97705">
        <ele>157.4397277832</ele>
        <time>2016-09-22T10:03:05.000Z</time>
      </trkpt>
      <trkpt lat="48.7033" lon="1.97701">
        <ele>157.33024597168</ele>
        <time>2016-09-22T10:03:08.000Z</time>
      </trkpt>
      <trkpt lat="48.70329" lon="1.97697">
        <ele>157.1990814209</ele>
        <time>2016-09-22T10:03:11.000Z</time>
      </trkpt>
      <trkpt lat="48.70329" lon="1.97692">
        <ele>157.12026977539</ele>
        <time>2016-09-22T10:03:14.000Z</time>
      </trkpt>
      <trkpt lat="48.70329" lon="1.97689">
        <ele>157.0852355957</ele>
        <time>2016-09-22T10:03:16.000Z</time>
      </trkpt>
      <trkpt lat="48.70329" lon="1.97686">
        <ele>157.12637329102</ele>
        <time>2016-09-22T10:03:18.000Z</time>
      </trkpt>
      <trkpt lat="48.70329" lon="1.97683">
        <ele>157.25564575195</ele>
        <time>2016-09-22T10:03:21.000Z</time>
      </trkpt>
      <trkpt lat="48.70328" lon="1.97676">
        <ele>157.42002868652</ele>
        <time>2016-09-22T10:03:30.000Z</time>
      </trkpt>
      <trkpt lat="48.70329" lon="1.97673">
        <ele>157.63723754883</ele>
        <time>2016-09-22T10:03:33.000Z</time>
      </trkpt>
      <trkpt lat="48.7033" lon="1.9767">
        <ele>157.97933959961</ele>
        <time>2016-09-22T10:03:36.000Z</time>
      </trkpt>
      <trkpt lat="48.70331" lon="1.97667">
        <ele>158.35665893555</ele>
        <time>2016-09-22T10:03:38.000Z</time>
      </trkpt>
      <trkpt lat="48.70332" lon="1.97661">
        <ele>158.68528747559</ele>
        <time>2016-09-22T10:03:41.000Z</time>
      </trkpt>
      <trkpt lat="48.70332" lon="1.97658">
        <ele>159.01547241211</ele>
        <time>2016-09-22T10:03:44.000Z</time>
      </trkpt>
      <trkpt lat="48.70333" lon="1.97654">
        <ele>159.29678344727</ele>
        <time>2016-09-22T10:03:47.000Z</time>
      </trkpt>
      <trkpt lat="48.70334" lon="1.97648">
        <ele>159.39910888672</ele>
        <time>2016-09-22T10:03:50.000Z</time>
      </trkpt>
      <trkpt lat="48.70334" lon="1.97645">
        <ele>159.39572143555</ele>
        <time>2016-09-22T10:03:52.000Z</time>
      </trkpt>
      <trkpt lat="48.70333" lon="1.97641">
        <ele>159.34371948242</ele>
        <time>2016-09-22T10:03:55.000Z</time>
      </trkpt>
      <trkpt lat="48.70333" lon="1.97638">
        <ele>159.26486206055</ele>
        <time>2016-09-22T10:03:57.000Z</time>
      </trkpt>
      <trkpt lat="48.70334" lon="1.97632">
        <ele>159.11642456055</ele>
        <time>2016-09-22T10:04:00.000Z</time>
      </trkpt>
      <trkpt lat="48.70336" lon="1.97628">
        <ele>159.02041625977</ele>
        <time>2016-09-22T10:04:03.000Z</time>
      </trkpt>
      <trkpt lat="48.70337" lon="1.97624">
        <ele>158.92877197266</ele>
        <time>2016-09-22T10:04:06.000Z</time>
      </trkpt>
      <trkpt lat="48.70337" lon="1.97619">
        <ele>158.84687805176</ele>
        <time>2016-09-22T10:04:09.000Z</time>
      </trkpt>
      <trkpt lat="48.70338" lon="1.97614">
        <ele>158.78146362305</ele>
        <time>2016-09-22T10:04:12.000Z</time>
      </trkpt>
      <trkpt lat="48.70339" lon="1.97611">
        <ele>158.74545288086</ele>
        <time>2016-09-22T10:04:14.000Z</time>
      </trkpt>
      <trkpt lat="48.70339" lon="1.97604">
        <ele>158.65982055664</ele>
        <time>2016-09-22T10:04:17.000Z</time>
      </trkpt>
      <trkpt lat="48.7034" lon="1.976">
        <ele>158.57077026367</ele>
        <time>2016-09-22T10:04:19.000Z</time>
      </trkpt>
      <trkpt lat="48.70339" lon="1.97594">
        <ele>158.44769287109</ele>
        <time>2016-09-22T10:04:22.000Z</time>
      </trkpt>
      <trkpt lat="48.70338" lon="1.97589">
        <ele>158.29248046875</ele>
        <time>2016-09-22T10:04:25.000Z</time>
      </trkpt>
      <trkpt lat="48.70339" lon="1.97585">
        <ele>158.12199401855</ele>
        <time>2016-09-22T10:04:28.000Z</time>
      </trkpt>
      <trkpt lat="48.7034" lon="1.97582">
        <ele>157.98681640625</ele>
        <time>2016-09-22T10:04:30.000Z</time>
      </trkpt>
      <trkpt lat="48.70339" lon="1.97576">
        <ele>157.78164672852</ele>
        <time>2016-09-22T10:04:33.000Z</time>
      </trkpt>
      <trkpt lat="48.7034" lon="1.97572">
        <ele>157.61869812012</ele>
        <time>2016-09-22T10:04:35.000Z</time>
      </trkpt>
      <trkpt lat="48.70339" lon="1.97567">
        <ele>157.41467285156</ele>
        <time>2016-09-22T10:04:38.000Z</time>
      </trkpt>
      <trkpt lat="48.70338" lon="1.97563">
        <ele>157.13861083984</ele>
        <time>2016-09-22T10:04:41.000Z</time>
      </trkpt>
      <trkpt lat="48.7034" lon="1.97563">
        <ele>156.9401550293</ele>
        <time>2016-09-22T10:04:44.000Z</time>
      </trkpt>
      <trkpt lat="48.70343" lon="1.97565">
        <ele>156.91946411133</ele>
        <time>2016-09-22T10:04:47.000Z</time>
      </trkpt>
      <trkpt lat="48.70345" lon="1.97566">
        <ele>157.01219177246</ele>
        <time>2016-09-22T10:04:50.000Z</time>
      </trkpt>
      <trkpt lat="48.70348" lon="1.97567">
        <ele>157.24955749512</ele>
        <time>2016-09-22T10:05:10.000Z</time>
      </trkpt>
      <trkpt lat="48.7035" lon="1.97565">
        <ele>157.61817932129</ele>
        <time>2016-09-22T10:05:13.000Z</time>
      </trkpt>
      <trkpt lat="48.7035" lon="1.97564">
        <ele>157.92277526855</ele>
        <time>2016-09-22T10:05:15.000Z</time>
      </trkpt>
      <trkpt lat="48.70352" lon="1.97558">
        <ele>158.13815307617</ele>
        <time>2016-09-22T10:05:18.000Z</time>
      </trkpt>
      <trkpt lat="48.70353" lon="1.97554">
        <ele>158.23168945312</ele>
        <time>2016-09-22T10:05:21.000Z</time>
      </trkpt>
      <trkpt lat="48.70355" lon="1.97551">
        <ele>158.31466674805</ele>
        <time>2016-09-22T10:05:24.000Z</time>
      </trkpt>
      <trkpt lat="48.70357" lon="1.97547">
        <ele>158.39030456543</ele>
        <time>2016-09-22T10:05:27.000Z</time>
      </trkpt>
      <trkpt lat="48.70358" lon="1.97543">
        <ele>158.43891906738</ele>
        <time>2016-09-22T10:05:30.000Z</time>
      </trkpt>
      <trkpt lat="48.70361" lon="1.97539">
        <ele>158.53399658203</ele>
        <time>2016-09-22T10:05:33.000Z</time>
      </trkpt>
      <trkpt lat="48.70361" lon="1.97538">
        <ele>158.67190551758</ele>
        <time>2016-09-22T10:05:35.000Z</time>
      </trkpt>
      <trkpt lat="48.70362" lon="1.97535">
        <ele>158.75556945801</ele>
        <time>2016-09-22T10:05:38.000Z</time>
      </trkpt>
      <trkpt lat="48.70362" lon="1.97532">
        <ele>158.79928588867</ele>
        <time>2016-09-22T10:05:40.000Z</time>
      </trkpt>
      <trkpt lat="48.70363" lon="1.97527">
        <ele>158.84677124023</ele>
        <time>2016-09-22T10:05:43.000Z</time>
      </trkpt>
      <trkpt lat="48.70363" lon="1.97522">
        <ele>158.78845214844</ele>
        <time>2016-09-22T10:05:46.000Z</time>
      </trkpt>
      <trkpt lat="48.70363" lon="1.97518">
        <ele>158.69877624512</ele>
        <time>2016-09-22T10:05:49.000Z</time>
      </trkpt>
      <trkpt lat="48.70364" lon="1.97514">
        <ele>158.59394836426</ele>
        <time>2016-09-22T10:05:51.000Z</time>
      </trkpt>
      <trkpt lat="48.70363" lon="1.97508">
        <ele>158.43623352051</ele>
        <time>2016-09-22T10:05:54.000Z</time>
      </trkpt>
      <trkpt lat="48.70363" lon="1.97505">
        <ele>158.26542663574</ele>
        <time>2016-09-22T10:05:56.000Z</time>
      </trkpt>
      <trkpt lat="48.70364" lon="1.97501">
        <ele>158.15444946289</ele>
        <time>2016-09-22T10:05:59.000Z</time>
      </trkpt>
      <trkpt lat="48.70364" lon="1.97498">
        <ele>158.0544128418</ele>
        <time>2016-09-22T10:06:01.000Z</time>
      </trkpt>
      <trkpt lat="48.70364" lon="1.97493">
        <ele>157.92263793945</ele>
        <time>2016-09-22T10:06:04.000Z</time>
      </trkpt>
      <trkpt lat="48.70362" lon="1.97487">
        <ele>157.75172424316</ele>
        <time>2016-09-22T10:06:07.000Z</time>
      </trkpt>
      <trkpt lat="48.70362" lon="1.97483">
        <ele>157.55851745605</ele>
        <time>2016-09-22T10:06:10.000Z</time>
      </trkpt>
      <trkpt lat="48.70363" lon="1.9748">
        <ele>157.37481689453</ele>
        <time>2016-09-22T10:06:12.000Z</time>
      </trkpt>
      <trkpt lat="48.70364" lon="1.97477">
        <ele>157.21173095703</ele>
        <time>2016-09-22T10:06:14.000Z</time>
      </trkpt>
      <trkpt lat="48.70365" lon="1.97473">
        <ele>157.10151672363</ele>
        <time>2016-09-22T10:06:17.000Z</time>
      </trkpt>
      <trkpt lat="48.70367" lon="1.97471">
        <ele>157.17245483398</ele>
        <time>2016-09-22T10:06:20.000Z</time>
      </trkpt>
      <trkpt lat="48.70368" lon="1.97469">
        <ele>157.30867004395</ele>
        <time>2016-09-22T10:06:22.000Z</time>
      </trkpt>
      <trkpt lat="48.70369" lon="1.97464">
        <ele>157.43237304688</ele>
        <time>2016-09-22T10:06:25.000Z</time>
      </trkpt>
      <trkpt lat="48.70369" lon="1.9746">
        <ele>157.51762390137</ele>
        <time>2016-09-22T10:06:27.000Z</time>
      </trkpt>
      <trkpt lat="48.70368" lon="1.97455">
        <ele>157.54623413086</ele>
        <time>2016-09-22T10:06:30.000Z</time>
      </trkpt>
      <trkpt lat="48.70368" lon="1.97451">
        <ele>157.47450256348</ele>
        <time>2016-09-22T10:06:32.000Z</time>
      </trkpt>
      <trkpt lat="48.70369" lon="1.97448">
        <ele>157.37911987305</ele>
        <time>2016-09-22T10:06:34.000Z</time>
      </trkpt>
      <trkpt lat="48.70369" lon="1.97443">
        <ele>157.28457641602</ele>
        <time>2016-09-22T10:06:37.000Z</time>
      </trkpt>
      <trkpt lat="48.70369" lon="1.97441">
        <ele>157.1969909668</ele>
        <time>2016-09-22T10:06:39.000Z</time>
      </trkpt>
      <trkpt lat="48.7037" lon="1.97437">
        <ele>157.15609741211</ele>
        <time>2016-09-22T10:06:41.000Z</time>
      </trkpt>
      <trkpt lat="48.70369" lon="1.9743">
        <ele>157.05618286133</ele>
        <time>2016-09-22T10:06:44.000Z</time>
      </trkpt>
      <trkpt lat="48.70369" lon="1.97424">
        <ele>156.90390014648</ele>
        <time>2016-09-22T10:06:47.000Z</time>
      </trkpt>
      <trkpt lat="48.70369" lon="1.97421">
        <ele>156.76661682129</ele>
        <time>2016-09-22T10:06:49.000Z</time>
      </trkpt>
      <trkpt lat="48.7037" lon="1.97418">
        <ele>156.65966796875</ele>
        <time>2016-09-22T10:06:51.000Z</time>
      </trkpt>
      <trkpt lat="48.70373" lon="1.97415">
        <ele>156.63850402832</ele>
        <time>2016-09-22T10:06:54.000Z</time>
      </trkpt>
      <trkpt lat="48.70375" lon="1.97414">
        <ele>156.77548217773</ele>
        <time>2016-09-22T10:06:56.000Z</time>
      </trkpt>
      <trkpt lat="48.70378" lon="1.97412">
        <ele>157.10427856445</ele>
        <time>2016-09-22T10:06:59.000Z</time>
      </trkpt>
      <trkpt lat="48.7038" lon="1.97407">
        <ele>157.46960449219</ele>
        <time>2016-09-22T10:07:02.000Z</time>
      </trkpt>
      <trkpt lat="48.70382" lon="1.974">
        <ele>157.86352539062</ele>
        <time>2016-09-22T10:07:05.000Z</time>
      </trkpt>
      <trkpt lat="48.70385" lon="1.97395">
        <ele>158.22915649414</ele>
        <time>2016-09-22T10:07:08.000Z</time>
      </trkpt>
      <trkpt lat="48.70385" lon="1.9739">
        <ele>158.52140808105</ele>
        <time>2016-09-22T10:07:11.000Z</time>
      </trkpt>
      <trkpt lat="48.70385" lon="1.97383">
        <ele>158.6215057373</ele>
        <time>2016-09-22T10:07:14.000Z</time>
      </trkpt>
      <trkpt lat="48.70385" lon="1.97378">
        <ele>158.6356048584</ele>
        <time>2016-09-22T10:07:16.000Z</time>
      </trkpt>
      <trkpt lat="48.70383" lon="1.9737">
        <ele>158.49398803711</ele>
        <time>2016-09-22T10:07:19.000Z</time>
      </trkpt>
      <trkpt lat="48.70383" lon="1.97364">
        <ele>158.25038146973</ele>
        <time>2016-09-22T10:07:21.000Z</time>
      </trkpt>
      <trkpt lat="48.70383" lon="1.9736">
        <ele>157.97682189941</ele>
        <time>2016-09-22T10:07:23.000Z</time>
      </trkpt>
      <trkpt lat="48.70383" lon="1.97355">
        <ele>157.74731445312</ele>
        <time>2016-09-22T10:07:26.000Z</time>
      </trkpt>
      <trkpt lat="48.70383" lon="1.9735">
        <ele>157.52334594727</ele>
        <time>2016-09-22T10:07:29.000Z</time>
      </trkpt>
      <trkpt lat="48.70385" lon="1.97347">
        <ele>157.44592285156</ele>
        <time>2016-09-22T10:07:32.000Z</time>
      </trkpt>
      <trkpt lat="48.70386" lon="1.97345">
        <ele>157.45715332031</ele>
        <time>2016-09-22T10:07:34.000Z</time>
      </trkpt>
      <trkpt lat="48.70387" lon="1.97341">
        <ele>157.5249786377</ele>
        <time>2016-09-22T10:07:37.000Z</time>
      </trkpt>
      <trkpt lat="48.70388" lon="1.97338">
        <ele>157.63888549805</ele>
        <time>2016-09-22T10:07:40.000Z</time>
      </trkpt>
      <trkpt lat="48.70389" lon="1.97336">
        <ele>157.80212402344</ele>
        <time>2016-09-22T10:07:42.000Z</time>
      </trkpt>
      <trkpt lat="48.70391" lon="1.97332">
        <ele>158.00700378418</ele>
        <time>2016-09-22T10:07:45.000Z</time>
      </trkpt>
      <trkpt lat="48.70393" lon="1.97329">
        <ele>158.26864624023</ele>
        <time>2016-09-22T10:07:48.000Z</time>
      </trkpt>
      <trkpt lat="48.70394" lon="1.97322">
        <ele>158.57196044922</ele>
        <time>2016-09-22T10:07:57.000Z</time>
      </trkpt>
      <trkpt lat="48.70394" lon="1.97317">
        <ele>158.85446166992</ele>
        <time>2016-09-22T10:08:03.000Z</time>
      </trkpt>
      <trkpt lat="48.70395" lon="1.97314">
        <ele>159.13989257812</ele>
        <time>2016-09-22T10:08:05.000Z</time>
      </trkpt>
      <trkpt lat="48.70396" lon="1.97308">
        <ele>159.42469787598</ele>
        <time>2016-09-22T10:08:08.000Z</time>
      </trkpt>
      <trkpt lat="48.70398" lon="1.97301">
        <ele>159.72659301758</ele>
        <time>2016-09-22T10:08:11.000Z</time>
      </trkpt>
      <trkpt lat="48.70399" lon="1.97293">
        <ele>160.03796386719</ele>
        <time>2016-09-22T10:08:14.000Z</time>
      </trkpt>
      <trkpt lat="48.704" lon="1.97288">
        <ele>160.40754699707</ele>
        <time>2016-09-22T10:08:16.000Z</time>
      </trkpt>
      <trkpt lat="48.704" lon="1.97286">
        <ele>160.75805664062</ele>
        <time>2016-09-22T10:08:18.000Z</time>
      </trkpt>
      <trkpt lat="48.70399" lon="1.97279">
        <ele>160.99940490723</ele>
        <time>2016-09-22T10:08:20.000Z</time>
      </trkpt>
      <trkpt lat="48.70398" lon="1.97277">
        <ele>161.0574798584</ele>
        <time>2016-09-22T10:08:29.000Z</time>
      </trkpt>
      <trkpt lat="48.70395" lon="1.97274">
        <ele>160.92248535156</ele>
        <time>2016-09-22T10:08:32.000Z</time>
      </trkpt>
      <trkpt lat="48.70393" lon="1.97275">
        <ele>160.63342285156</ele>
        <time>2016-09-22T10:08:34.000Z</time>
      </trkpt>
      <trkpt lat="48.70392" lon="1.97278">
        <ele>160.25216674805</ele>
        <time>2016-09-22T10:08:36.000Z</time>
      </trkpt>
      <trkpt lat="48.70391" lon="1.97278">
        <ele>159.84545898438</ele>
        <time>2016-09-22T10:08:40.000Z</time>
      </trkpt>
      <trkpt lat="48.7039" lon="1.97279">
        <ele>159.44897460938</ele>
        <time>2016-09-22T10:08:42.000Z</time>
      </trkpt>
      <trkpt lat="48.70386" lon="1.97284">
        <ele>158.99475097656</ele>
        <time>2016-09-22T10:08:58.000Z</time>
      </trkpt>
      <trkpt lat="48.70386" lon="1.97286">
        <ele>158.59994506836</ele>
        <time>2016-09-22T10:09:00.000Z</time>
      </trkpt>
      <trkpt lat="48.70383" lon="1.97292">
        <ele>158.16250610352</ele>
        <time>2016-09-22T10:09:09.000Z</time>
      </trkpt>
      <trkpt lat="48.7038" lon="1.97299">
        <ele>157.640625</ele>
        <time>2016-09-22T10:09:17.000Z</time>
      </trkpt>
      <trkpt lat="48.70378" lon="1.97303">
        <ele>157.0401763916</ele>
        <time>2016-09-22T10:09:20.000Z</time>
      </trkpt>
      <trkpt lat="48.70374" lon="1.97307">
        <ele>156.45390319824</ele>
        <time>2016-09-22T10:09:23.000Z</time>
      </trkpt>
      <trkpt lat="48.70371" lon="1.97311">
        <ele>155.72091674805</ele>
        <time>2016-09-22T10:09:26.000Z</time>
      </trkpt>
      <trkpt lat="48.70368" lon="1.97313">
        <ele>154.98580932617</ele>
        <time>2016-09-22T10:09:29.000Z</time>
      </trkpt>
      <trkpt lat="48.70364" lon="1.97317">
        <ele>154.22909545898</ele>
        <time>2016-09-22T10:09:31.000Z</time>
      </trkpt>
      <trkpt lat="48.70362" lon="1.9732">
        <ele>153.50122070312</ele>
        <time>2016-09-22T10:09:33.000Z</time>
      </trkpt>
      <trkpt lat="48.70359" lon="1.97321">
        <ele>152.81904602051</ele>
        <time>2016-09-22T10:09:36.000Z</time>
      </trkpt>
      <trkpt lat="48.70358" lon="1.97322">
        <ele>152.25227355957</ele>
        <time>2016-09-22T10:09:38.000Z</time>
      </trkpt>
      <trkpt lat="48.70356" lon="1.97323">
        <ele>151.70811462402</ele>
        <time>2016-09-22T10:09:41.000Z</time>
      </trkpt>
      <trkpt lat="48.70353" lon="1.97323">
        <ele>151.1862487793</ele>
        <time>2016-09-22T10:09:44.000Z</time>
      </trkpt>
      <trkpt lat="48.7035" lon="1.97323">
        <ele>150.64750671387</ele>
        <time>2016-09-22T10:09:47.000Z</time>
      </trkpt>
      <trkpt lat="48.70346" lon="1.97324">
        <ele>150.05723571777</ele>
        <time>2016-09-22T10:09:50.000Z</time>
      </trkpt>
      <trkpt lat="48.70345" lon="1.97327">
        <ele>149.47106933594</ele>
        <time>2016-09-22T10:09:53.000Z</time>
      </trkpt>
      <trkpt lat="48.70343" lon="1.9733">
        <ele>148.92538452148</ele>
        <time>2016-09-22T10:09:55.000Z</time>
      </trkpt>
      <trkpt lat="48.70342" lon="1.97332">
        <ele>148.47317504883</ele>
        <time>2016-09-22T10:09:57.000Z</time>
      </trkpt>
      <trkpt lat="48.70341" lon="1.97333">
        <ele>148.11428833008</ele>
        <time>2016-09-22T10:10:00.000Z</time>
      </trkpt>
      <trkpt lat="48.70338" lon="1.97338">
        <ele>147.82722473145</ele>
        <time>2016-09-22T10:10:09.000Z</time>
      </trkpt>
      <trkpt lat="48.70336" lon="1.97341">
        <ele>147.52066040039</ele>
        <time>2016-09-22T10:10:17.000Z</time>
      </trkpt>
      <trkpt lat="48.70332" lon="1.97349">
        <ele>147.15385437012</ele>
        <time>2016-09-22T10:10:21.000Z</time>
      </trkpt>
      <trkpt lat="48.7033" lon="1.97351">
        <ele>146.70457458496</ele>
        <time>2016-09-22T10:10:23.000Z</time>
      </trkpt>
      <trkpt lat="48.70329" lon="1.97353">
        <ele>146.18612670898</ele>
        <time>2016-09-22T10:10:26.000Z</time>
      </trkpt>
      <trkpt lat="48.70328" lon="1.97357">
        <ele>145.73085021973</ele>
        <time>2016-09-22T10:10:29.000Z</time>
      </trkpt>
      <trkpt lat="48.70327" lon="1.9736">
        <ele>145.27243041992</ele>
        <time>2016-09-22T10:10:31.000Z</time>
      </trkpt>
      <trkpt lat="48.70324" lon="1.97363">
        <ele>144.73327636719</ele>
        <time>2016-09-22T10:10:34.000Z</time>
      </trkpt>
      <trkpt lat="48.70322" lon="1.97365">
        <ele>144.18936157227</ele>
        <time>2016-09-22T10:10:36.000Z</time>
      </trkpt>
      <trkpt lat="48.70321" lon="1.97369">
        <ele>143.74963378906</ele>
        <time>2016-09-22T10:10:41.000Z</time>
      </trkpt>
      <trkpt lat="48.70318" lon="1.97375">
        <ele>143.14657592773</ele>
        <time>2016-09-22T10:10:44.000Z</time>
      </trkpt>
      <trkpt lat="48.70317" lon="1.97379">
        <ele>142.58187866211</ele>
        <time>2016-09-22T10:10:46.000Z</time>
      </trkpt>
      <trkpt lat="48.70316" lon="1.97382">
        <ele>142.16101074219</ele>
        <time>2016-09-22T10:10:48.000Z</time>
      </trkpt>
      <trkpt lat="48.70315" lon="1.97385">
        <ele>141.83874511719</ele>
        <time>2016-09-22T10:10:50.000Z</time>
      </trkpt>
      <trkpt lat="48.70313" lon="1.97389">
        <ele>141.39617919922</ele>
        <time>2016-09-22T10:10:52.000Z</time>
      </trkpt>
      <trkpt lat="48.7031" lon="1.97392">
        <ele>140.95681762695</ele>
        <time>2016-09-22T10:10:55.000Z</time>
      </trkpt>
      <trkpt lat="48.70309" lon="1.97392">
        <ele>140.4658203125</ele>
        <time>2016-09-22T10:10:58.000Z</time>
      </trkpt>
      <trkpt lat="48.70309" lon="1.97392">
        <ele>140.4658203125</ele>
        <time>2016-09-22T10:11:18.000Z</time>
      </trkpt>
      <trkpt lat="48.70305" lon="1.97388">
        <ele>139.71810913086</ele>
        <time>2016-09-22T10:11:28.000Z</time>
      </trkpt>
      <trkpt lat="48.70303" lon="1.97387">
        <ele>138.91180419922</ele>
        <time>2016-09-22T10:11:30.000Z</time>
      </trkpt>
      <trkpt lat="48.70301" lon="1.97384">
        <ele>138.05596923828</ele>
        <time>2016-09-22T10:11:33.000Z</time>
      </trkpt>
      <trkpt lat="48.70298" lon="1.97377">
        <ele>137.07443237305</ele>
        <time>2016-09-22T10:11:42.000Z</time>
      </trkpt>
      <trkpt lat="48.70297" lon="1.97373">
        <ele>136.09106445312</ele>
        <time>2016-09-22T10:11:57.000Z</time>
      </trkpt>
      <trkpt lat="48.70296" lon="1.97375">
        <ele>135.35269165039</ele>
        <time>2016-09-22T10:11:59.000Z</time>
      </trkpt>
      <trkpt lat="48.70293" lon="1.97375">
        <ele>134.53633117676</ele>
        <time>2016-09-22T10:12:02.000Z</time>
      </trkpt>
      <trkpt lat="48.7029" lon="1.97373">
        <ele>133.63900756836</ele>
        <time>2016-09-22T10:12:10.000Z</time>
      </trkpt>
      <trkpt lat="48.70289" lon="1.97375">
        <ele>132.9748840332</ele>
        <time>2016-09-22T10:12:12.000Z</time>
      </trkpt>
      <trkpt lat="48.70288" lon="1.97376">
        <ele>132.34582519531</ele>
        <time>2016-09-22T10:12:14.000Z</time>
      </trkpt>
      <trkpt lat="48.70284" lon="1.9738">
        <ele>131.55993652344</ele>
        <time>2016-09-22T10:12:19.000Z</time>
      </trkpt>
      <trkpt lat="48.70282" lon="1.97385">
        <ele>130.83610534668</ele>
        <time>2016-09-22T10:12:35.000Z</time>
      </trkpt>
      <trkpt lat="48.7028" lon="1.97386">
        <ele>130.22326660156</ele>
        <time>2016-09-22T10:12:39.000Z</time>
      </trkpt>
      <trkpt lat="48.70279" lon="1.97388">
        <ele>129.61791992188</ele>
        <time>2016-09-22T10:12:42.000Z</time>
      </trkpt>
      <trkpt lat="48.70276" lon="1.97388">
        <ele>128.83029174805</ele>
        <time>2016-09-22T10:12:44.000Z</time>
      </trkpt>
      <trkpt lat="48.70273" lon="1.97386">
        <ele>128.02774047852</ele>
        <time>2016-09-22T10:12:46.000Z</time>
      </trkpt>
      <trkpt lat="48.70271" lon="1.97388">
        <ele>127.22894287109</ele>
        <time>2016-09-22T10:12:49.000Z</time>
      </trkpt>
      <trkpt lat="48.70268" lon="1.9739">
        <ele>126.35260009766</ele>
        <time>2016-09-22T10:12:52.000Z</time>
      </trkpt>
      <trkpt lat="48.70265" lon="1.9739">
        <ele>125.33994293213</ele>
        <time>2016-09-22T10:12:55.000Z</time>
      </trkpt>
      <trkpt lat="48.70262" lon="1.97388">
        <ele>124.31243896484</ele>
        <time>2016-09-22T10:12:57.000Z</time>
      </trkpt>
      <trkpt lat="48.7026" lon="1.97386">
        <ele>123.39984130859</ele>
        <time>2016-09-22T10:13:00.000Z</time>
      </trkpt>
      <trkpt lat="48.70258" lon="1.97382">
        <ele>122.42315673828</ele>
        <time>2016-09-22T10:13:03.000Z</time>
      </trkpt>
      <trkpt lat="48.70255" lon="1.9738">
        <ele>121.41534423828</ele>
        <time>2016-09-22T10:13:06.000Z</time>
      </trkpt>
      <trkpt lat="48.70253" lon="1.9738">
        <ele>120.4627456665</ele>
        <time>2016-09-22T10:13:08.000Z</time>
      </trkpt>
      <trkpt lat="48.70249" lon="1.9738">
        <ele>119.54650878906</ele>
        <time>2016-09-22T10:13:11.000Z</time>
      </trkpt>
      <trkpt lat="48.70247" lon="1.97381">
        <ele>118.7120513916</ele>
        <time>2016-09-22T10:13:13.000Z</time>
      </trkpt>
      <trkpt lat="48.70243" lon="1.9738">
        <ele>117.97802734375</ele>
        <time>2016-09-22T10:13:16.000Z</time>
      </trkpt>
      <trkpt lat="48.70241" lon="1.9738">
        <ele>117.43135070801</ele>
        <time>2016-09-22T10:13:18.000Z</time>
      </trkpt>
      <trkpt lat="48.70236" lon="1.9738">
        <ele>116.93060302734</ele>
        <time>2016-09-22T10:13:21.000Z</time>
      </trkpt>
      <trkpt lat="48.70234" lon="1.97381">
        <ele>116.60084533691</ele>
        <time>2016-09-22T10:13:24.000Z</time>
      </trkpt>
      <trkpt lat="48.70232" lon="1.97381">
        <ele>116.27769470215</ele>
        <time>2016-09-22T10:13:27.000Z</time>
      </trkpt>
      <trkpt lat="48.70228" lon="1.97381">
        <ele>115.9440536499</ele>
        <time>2016-09-22T10:13:30.000Z</time>
      </trkpt>
      <trkpt lat="48.70225" lon="1.9738">
        <ele>115.59146881104</ele>
        <time>2016-09-22T10:13:33.000Z</time>
      </trkpt>
      <trkpt lat="48.70224" lon="1.97378">
        <ele>115.30959320068</ele>
        <time>2016-09-22T10:13:36.000Z</time>
      </trkpt>
      <trkpt lat="48.70221" lon="1.97381">
        <ele>115.02046203613</ele>
        <time>2016-09-22T10:13:44.000Z</time>
      </trkpt>
      <trkpt lat="48.7022" lon="1.97386">
        <ele>114.76792907715</ele>
        <time>2016-09-22T10:13:46.000Z</time>
      </trkpt>
      <trkpt lat="48.70218" lon="1.97391">
        <ele>114.57857513428</ele>
        <time>2016-09-22T10:13:48.000Z</time>
      </trkpt>
      <trkpt lat="48.70214" lon="1.97393">
        <ele>114.3773651123</ele>
        <time>2016-09-22T10:13:50.000Z</time>
      </trkpt>
      <trkpt lat="48.7021" lon="1.97391">
        <ele>114.1185760498</ele>
        <time>2016-09-22T10:13:53.000Z</time>
      </trkpt>
      <trkpt lat="48.70208" lon="1.97392">
        <ele>113.86323547363</ele>
        <time>2016-09-22T10:13:55.000Z</time>
      </trkpt>
      <trkpt lat="48.70206" lon="1.97395">
        <ele>113.56330871582</ele>
        <time>2016-09-22T10:13:58.000Z</time>
      </trkpt>
      <trkpt lat="48.70203" lon="1.97398">
        <ele>113.23240661621</ele>
        <time>2016-09-22T10:14:01.000Z</time>
      </trkpt>
      <trkpt lat="48.70202" lon="1.97404">
        <ele>112.97147369385</ele>
        <time>2016-09-22T10:14:04.000Z</time>
      </trkpt>
      <trkpt lat="48.70201" lon="1.97408">
        <ele>112.77767181396</ele>
        <time>2016-09-22T10:14:06.000Z</time>
      </trkpt>
      <trkpt lat="48.702" lon="1.97412">
        <ele>112.61484527588</ele>
        <time>2016-09-22T10:14:08.000Z</time>
      </trkpt>
      <trkpt lat="48.702" lon="1.97417">
        <ele>112.49354553223</ele>
        <time>2016-09-22T10:14:11.000Z</time>
      </trkpt>
      <trkpt lat="48.702" lon="1.9742">
        <ele>112.44148254395</ele>
        <time>2016-09-22T10:14:13.000Z</time>
      </trkpt>
      <trkpt lat="48.70198" lon="1.97425">
        <ele>112.41689300537</ele>
        <time>2016-09-22T10:14:16.000Z</time>
      </trkpt>
      <trkpt lat="48.70197" lon="1.97429">
        <ele>112.42102050781</ele>
        <time>2016-09-22T10:14:18.000Z</time>
      </trkpt>
      <trkpt lat="48.70196" lon="1.97432">
        <ele>112.42582702637</ele>
        <time>2016-09-22T10:14:20.000Z</time>
      </trkpt>
      <trkpt lat="48.70194" lon="1.97436">
        <ele>112.39152526855</ele>
        <time>2016-09-22T10:14:23.000Z</time>
      </trkpt>
      <trkpt lat="48.7019" lon="1.97438">
        <ele>112.25227355957</ele>
        <time>2016-09-22T10:14:26.000Z</time>
      </trkpt>
      <trkpt lat="48.70187" lon="1.97439">
        <ele>111.99314117432</ele>
        <time>2016-09-22T10:14:29.000Z</time>
      </trkpt>
      <trkpt lat="48.70184" lon="1.97439">
        <ele>111.63902282715</ele>
        <time>2016-09-22T10:14:31.000Z</time>
      </trkpt>
      <trkpt lat="48.70181" lon="1.97437">
        <ele>111.20478820801</ele>
        <time>2016-09-22T10:14:34.000Z</time>
      </trkpt>
      <trkpt lat="48.70179" lon="1.97436">
        <ele>110.76493835449</ele>
        <time>2016-09-22T10:14:36.000Z</time>
      </trkpt>
      <trkpt lat="48.70175" lon="1.97436">
        <ele>110.27510070801</ele>
        <time>2016-09-22T10:14:39.000Z</time>
      </trkpt>
      <trkpt lat="48.70173" lon="1.97436">
        <ele>109.83442687988</ele>
        <time>2016-09-22T10:14:41.000Z</time>
      </trkpt>
      <trkpt lat="48.70169" lon="1.97435">
        <ele>109.37121582031</ele>
        <time>2016-09-22T10:14:44.000Z</time>
      </trkpt>
      <trkpt lat="48.70167" lon="1.97434">
        <ele>108.9275894165</ele>
        <time>2016-09-22T10:14:47.000Z</time>
      </trkpt>
      <trkpt lat="48.70164" lon="1.97432">
        <ele>108.54215240479</ele>
        <time>2016-09-22T10:14:50.000Z</time>
      </trkpt>
      <trkpt lat="48.70164" lon="1.97431">
        <ele>108.29716491699</ele>
        <time>2016-09-22T10:14:52.000Z</time>
      </trkpt>
      <trkpt lat="48.70163" lon="1.97428">
        <ele>108.11881256104</ele>
        <time>2016-09-22T10:14:55.000Z</time>
      </trkpt>
      <trkpt lat="48.70163" lon="1.97425">
        <ele>108.05477142334</ele>
        <time>2016-09-22T10:14:58.000Z</time>
      </trkpt>
      <trkpt lat="48.70161" lon="1.97424">
        <ele>108.07441711426</ele>
        <time>2016-09-22T10:15:00.000Z</time>
      </trkpt>
      <trkpt lat="48.70158" lon="1.97422">
        <ele>108.10469818115</ele>
        <time>2016-09-22T10:15:03.000Z</time>
      </trkpt>
      <trkpt lat="48.70156" lon="1.97418">
        <ele>108.14384460449</ele>
        <time>2016-09-22T10:15:06.000Z</time>
      </trkpt>
      <trkpt lat="48.70154" lon="1.97416">
        <ele>108.19145202637</ele>
        <time>2016-09-22T10:15:08.000Z</time>
      </trkpt>
      <trkpt lat="48.70152" lon="1.97415">
        <ele>108.25170898438</ele>
        <time>2016-09-22T10:15:10.000Z</time>
      </trkpt>
      <trkpt lat="48.7015" lon="1.97411">
        <ele>108.32437896729</ele>
        <time>2016-09-22T10:15:13.000Z</time>
      </trkpt>
      <trkpt lat="48.70148" lon="1.97408">
        <ele>108.40866851807</ele>
        <time>2016-09-22T10:15:16.000Z</time>
      </trkpt>
      <trkpt lat="48.70145" lon="1.97406">
        <ele>108.50141906738</ele>
        <time>2016-09-22T10:15:18.000Z</time>
      </trkpt>
      <trkpt lat="48.70143" lon="1.97404">
        <ele>108.59938049316</ele>
        <time>2016-09-22T10:15:20.000Z</time>
      </trkpt>
      <trkpt lat="48.70142" lon="1.97401">
        <ele>108.70265960693</ele>
        <time>2016-09-22T10:15:22.000Z</time>
      </trkpt>
      <trkpt lat="48.70139" lon="1.97397">
        <ele>108.81744384766</ele>
        <time>2016-09-22T10:15:25.000Z</time>
      </trkpt>
      <trkpt lat="48.70137" lon="1.97395">
        <ele>108.92869567871</ele>
        <time>2016-09-22T10:15:27.000Z</time>
      </trkpt>
      <trkpt lat="48.70134" lon="1.97391">
        <ele>109.05424499512</ele>
        <time>2016-09-22T10:15:30.000Z</time>
      </trkpt>
      <trkpt lat="48.70131" lon="1.97388">
        <ele>109.19199371338</ele>
        <time>2016-09-22T10:15:33.000Z</time>
      </trkpt>
      <trkpt lat="48.70128" lon="1.97385">
        <ele>109.34777832031</ele>
        <time>2016-09-22T10:15:36.000Z</time>
      </trkpt>
      <trkpt lat="48.70126" lon="1.97382">
        <ele>109.49362945557</ele>
        <time>2016-09-22T10:15:38.000Z</time>
      </trkpt>
      <trkpt lat="48.70124" lon="1.9738">
        <ele>109.64151763916</ele>
        <time>2016-09-22T10:15:40.000Z</time>
      </trkpt>
      <trkpt lat="48.70122" lon="1.97376">
        <ele>109.7879486084</ele>
        <time>2016-09-22T10:15:43.000Z</time>
      </trkpt>
      <trkpt lat="48.70119" lon="1.97372">
        <ele>109.94129943848</ele>
        <time>2016-09-22T10:15:46.000Z</time>
      </trkpt>
      <trkpt lat="48.70118" lon="1.97369">
        <ele>110.08726501465</ele>
        <time>2016-09-22T10:15:49.000Z</time>
      </trkpt>
      <trkpt lat="48.70116" lon="1.97367">
        <ele>110.23484802246</ele>
        <time>2016-09-22T10:15:51.000Z</time>
      </trkpt>
      <trkpt lat="48.70114" lon="1.97363">
        <ele>110.39683532715</ele>
        <time>2016-09-22T10:15:54.000Z</time>
      </trkpt>
      <trkpt lat="48.70113" lon="1.9736">
        <ele>110.54762268066</ele>
        <time>2016-09-22T10:15:57.000Z</time>
      </trkpt>
      <trkpt lat="48.70112" lon="1.97359">
        <ele>110.67767333984</ele>
        <time>2016-09-22T10:15:59.000Z</time>
      </trkpt>
      <trkpt lat="48.70111" lon="1.97356">
        <ele>110.80549621582</ele>
        <time>2016-09-22T10:16:02.000Z</time>
      </trkpt>
      <trkpt lat="48.70109" lon="1.97353">
        <ele>110.94680023193</ele>
        <time>2016-09-22T10:16:05.000Z</time>
      </trkpt>
      <trkpt lat="48.70107" lon="1.97349">
        <ele>111.08801269531</ele>
        <time>2016-09-22T10:16:08.000Z</time>
      </trkpt>
      <trkpt lat="48.70105" lon="1.97345">
        <ele>111.24355316162</ele>
        <time>2016-09-22T10:16:11.000Z</time>
      </trkpt>
      <trkpt lat="48.70103" lon="1.97341">
        <ele>111.42144775391</ele>
        <time>2016-09-22T10:16:14.000Z</time>
      </trkpt>
      <trkpt lat="48.70102" lon="1.97338">
        <ele>111.60679626465</ele>
        <time>2016-09-22T10:16:16.000Z</time>
      </trkpt>
      <trkpt lat="48.701" lon="1.97333">
        <ele>111.80210876465</ele>
        <time>2016-09-22T10:16:19.000Z</time>
      </trkpt>
      <trkpt lat="48.70098" lon="1.97331">
        <ele>112.00453948975</ele>
        <time>2016-09-22T10:16:21.000Z</time>
      </trkpt>
      <trkpt lat="48.70096" lon="1.97327">
        <ele>112.23913574219</ele>
        <time>2016-09-22T10:16:24.000Z</time>
      </trkpt>
      <trkpt lat="48.70094" lon="1.97322">
        <ele>112.50505065918</ele>
        <time>2016-09-22T10:16:27.000Z</time>
      </trkpt>
      <trkpt lat="48.70092" lon="1.9732">
        <ele>112.78044128418</ele>
        <time>2016-09-22T10:16:29.000Z</time>
      </trkpt>
      <trkpt lat="48.7009" lon="1.97315">
        <ele>113.08254241943</ele>
        <time>2016-09-22T10:16:32.000Z</time>
      </trkpt>
      <trkpt lat="48.70089" lon="1.9731">
        <ele>113.40749359131</ele>
        <time>2016-09-22T10:16:35.000Z</time>
      </trkpt>
      <trkpt lat="48.70088" lon="1.97308">
        <ele>113.71025085449</ele>
        <time>2016-09-22T10:16:38.000Z</time>
      </trkpt>
      <trkpt lat="48.70087" lon="1.97306">
        <ele>113.96769714355</ele>
        <time>2016-09-22T10:16:40.000Z</time>
      </trkpt>
      <trkpt lat="48.70088" lon="1.97304">
        <ele>114.19362640381</ele>
        <time>2016-09-22T10:16:42.000Z</time>
      </trkpt>
      <trkpt lat="48.70087" lon="1.97301">
        <ele>114.3941192627</ele>
        <time>2016-09-22T10:16:47.000Z</time>
      </trkpt>
      <trkpt lat="48.70085" lon="1.973">
        <ele>114.57397460938</ele>
        <time>2016-09-22T10:16:49.000Z</time>
      </trkpt>
      <trkpt lat="48.70083" lon="1.97296">
        <ele>114.76637268066</ele>
        <time>2016-09-22T10:16:52.000Z</time>
      </trkpt>
      <trkpt lat="48.70082" lon="1.97292">
        <ele>114.98432922363</ele>
        <time>2016-09-22T10:16:55.000Z</time>
      </trkpt>
      <trkpt lat="48.70082" lon="1.9729">
        <ele>115.21173095703</ele>
        <time>2016-09-22T10:16:57.000Z</time>
      </trkpt>
      <trkpt lat="48.70081" lon="1.97288">
        <ele>115.4250869751</ele>
        <time>2016-09-22T10:16:59.000Z</time>
      </trkpt>
      <trkpt lat="48.7008" lon="1.97286">
        <ele>115.62066650391</ele>
        <time>2016-09-22T10:17:01.000Z</time>
      </trkpt>
      <trkpt lat="48.70079" lon="1.97284">
        <ele>115.78509521484</ele>
        <time>2016-09-22T10:17:03.000Z</time>
      </trkpt>
      <trkpt lat="48.70078" lon="1.97282">
        <ele>115.92567443848</ele>
        <time>2016-09-22T10:17:06.000Z</time>
      </trkpt>
      <trkpt lat="48.70077" lon="1.97277">
        <ele>116.1022567749</ele>
        <time>2016-09-22T10:17:09.000Z</time>
      </trkpt>
      <trkpt lat="48.70076" lon="1.97274">
        <ele>116.27940368652</ele>
        <time>2016-09-22T10:17:11.000Z</time>
      </trkpt>
      <trkpt lat="48.70075" lon="1.9727">
        <ele>116.47859191895</ele>
        <time>2016-09-22T10:17:14.000Z</time>
      </trkpt>
      <trkpt lat="48.70073" lon="1.97267">
        <ele>116.69002532959</ele>
        <time>2016-09-22T10:17:17.000Z</time>
      </trkpt>
      <trkpt lat="48.70073" lon="1.97264">
        <ele>116.91957855225</ele>
        <time>2016-09-22T10:17:20.000Z</time>
      </trkpt>
      <trkpt lat="48.70068" lon="1.97255">
        <ele>117.20194244385</ele>
        <time>2016-09-22T10:17:30.000Z</time>
      </trkpt>
      <trkpt lat="48.70066" lon="1.97248">
        <ele>117.5357208252</ele>
        <time>2016-09-22T10:17:33.000Z</time>
      </trkpt>
      <trkpt lat="48.70065" lon="1.97243">
        <ele>117.87839508057</ele>
        <time>2016-09-22T10:17:35.000Z</time>
      </trkpt>
      <trkpt lat="48.70063" lon="1.97235">
        <ele>118.28315734863</ele>
        <time>2016-09-22T10:17:38.000Z</time>
      </trkpt>
      <trkpt lat="48.70061" lon="1.97231">
        <ele>118.69157409668</ele>
        <time>2016-09-22T10:17:40.000Z</time>
      </trkpt>
      <trkpt lat="48.70061" lon="1.97228">
        <ele>119.02947998047</ele>
        <time>2016-09-22T10:17:42.000Z</time>
      </trkpt>
      <trkpt lat="48.70059" lon="1.97225">
        <ele>119.31951904297</ele>
        <time>2016-09-22T10:17:45.000Z</time>
      </trkpt>
      <trkpt lat="48.70057" lon="1.97222">
        <ele>119.59336090088</ele>
        <time>2016-09-22T10:17:48.000Z</time>
      </trkpt>
      <trkpt lat="48.70057" lon="1.9722">
        <ele>119.79140472412</ele>
        <time>2016-09-22T10:17:51.000Z</time>
      </trkpt>
      <trkpt lat="48.70057" lon="1.97218">
        <ele>119.961769104</ele>
        <time>2016-09-22T10:17:53.000Z</time>
      </trkpt>
      <trkpt lat="48.70056" lon="1.97214">
        <ele>120.13659667969</ele>
        <time>2016-09-22T10:17:56.000Z</time>
      </trkpt>
      <trkpt lat="48.70053" lon="1.97212">
        <ele>120.30603027344</ele>
        <time>2016-09-22T10:17:59.000Z</time>
      </trkpt>
      <trkpt lat="48.70051" lon="1.97211">
        <ele>120.44982910156</ele>
        <time>2016-09-22T10:18:01.000Z</time>
      </trkpt>
      <trkpt lat="48.70048" lon="1.97207">
        <ele>120.61932373047</ele>
        <time>2016-09-22T10:18:04.000Z</time>
      </trkpt>
      <trkpt lat="48.70044" lon="1.97203">
        <ele>120.825340271</ele>
        <time>2016-09-22T10:18:07.000Z</time>
      </trkpt>
      <trkpt lat="48.70042" lon="1.97196">
        <ele>121.077003479</ele>
        <time>2016-09-22T10:18:20.000Z</time>
      </trkpt>
      <trkpt lat="48.70039" lon="1.97188">
        <ele>121.39675140381</ele>
        <time>2016-09-22T10:18:27.000Z</time>
      </trkpt>
      <trkpt lat="48.70037" lon="1.97185">
        <ele>121.74672698975</ele>
        <time>2016-09-22T10:18:29.000Z</time>
      </trkpt>
      <trkpt lat="48.70036" lon="1.97182">
        <ele>122.07702636719</ele>
        <time>2016-09-22T10:18:32.000Z</time>
      </trkpt>
      <trkpt lat="48.70034" lon="1.97174">
        <ele>122.44860839844</ele>
        <time>2016-09-22T10:18:45.000Z</time>
      </trkpt>
      <trkpt lat="48.70033" lon="1.9717">
        <ele>122.77990722656</ele>
        <time>2016-09-22T10:18:47.000Z</time>
      </trkpt>
      <trkpt lat="48.70031" lon="1.97164">
        <ele>123.09889221191</ele>
        <time>2016-09-22T10:18:50.000Z</time>
      </trkpt>
      <trkpt lat="48.7003" lon="1.9716">
        <ele>123.43055725098</ele>
        <time>2016-09-22T10:18:52.000Z</time>
      </trkpt>
      <trkpt lat="48.70031" lon="1.97156">
        <ele>123.78244781494</ele>
        <time>2016-09-22T10:18:55.000Z</time>
      </trkpt>
      <trkpt lat="48.70029" lon="1.97151">
        <ele>124.12042236328</ele>
        <time>2016-09-22T10:18:58.000Z</time>
      </trkpt>
      <trkpt lat="48.70027" lon="1.97146">
        <ele>124.49320983887</ele>
        <time>2016-09-22T10:19:01.000Z</time>
      </trkpt>
      <trkpt lat="48.70024" lon="1.97141">
        <ele>124.86612701416</ele>
        <time>2016-09-22T10:19:04.000Z</time>
      </trkpt>
      <trkpt lat="48.70023" lon="1.97136">
        <ele>125.2522354126</ele>
        <time>2016-09-22T10:19:07.000Z</time>
      </trkpt>
      <trkpt lat="48.70021" lon="1.97132">
        <ele>125.65588378906</ele>
        <time>2016-09-22T10:19:10.000Z</time>
      </trkpt>
      <trkpt lat="48.7002" lon="1.97128">
        <ele>126.04350280762</ele>
        <time>2016-09-22T10:19:13.000Z</time>
      </trkpt>
      <trkpt lat="48.7002" lon="1.97125">
        <ele>126.39189147949</ele>
        <time>2016-09-22T10:19:15.000Z</time>
      </trkpt>
      <trkpt lat="48.70018" lon="1.9712">
        <ele>126.73579406738</ele>
        <time>2016-09-22T10:19:18.000Z</time>
      </trkpt>
      <trkpt lat="48.70017" lon="1.97116">
        <ele>127.08078765869</ele>
        <time>2016-09-22T10:19:21.000Z</time>
      </trkpt>
      <trkpt lat="48.70016" lon="1.97113">
        <ele>127.41279602051</ele>
        <time>2016-09-22T10:19:23.000Z</time>
      </trkpt>
      <trkpt lat="48.70016" lon="1.97108">
        <ele>127.74401855469</ele>
        <time>2016-09-22T10:19:26.000Z</time>
      </trkpt>
      <trkpt lat="48.70016" lon="1.97106">
        <ele>128.06312561035</ele>
        <time>2016-09-22T10:19:30.000Z</time>
      </trkpt>
      <trkpt lat="48.70016" lon="1.97103">
        <ele>128.35383605957</ele>
        <time>2016-09-22T10:19:33.000Z</time>
      </trkpt>
      <trkpt lat="48.70015" lon="1.97099">
        <ele>128.62870788574</ele>
        <time>2016-09-22T10:19:35.000Z</time>
      </trkpt>
      <trkpt lat="48.70014" lon="1.97097">
        <ele>128.89695739746</ele>
        <time>2016-09-22T10:19:39.000Z</time>
      </trkpt>
      <trkpt lat="48.70014" lon="1.97094">
        <ele>129.14094543457</ele>
        <time>2016-09-22T10:19:41.000Z</time>
      </trkpt>
      <trkpt lat="48.70013" lon="1.97091">
        <ele>129.40182495117</ele>
        <time>2016-09-22T10:19:44.000Z</time>
      </trkpt>
      <trkpt lat="48.70013" lon="1.97088">
        <ele>129.6597442627</ele>
        <time>2016-09-22T10:19:46.000Z</time>
      </trkpt>
      <trkpt lat="48.70012" lon="1.97082">
        <ele>129.97024536133</ele>
        <time>2016-09-22T10:19:49.000Z</time>
      </trkpt>
      <trkpt lat="48.70011" lon="1.97077">
        <ele>130.3157043457</ele>
        <time>2016-09-22T10:19:51.000Z</time>
      </trkpt>
      <trkpt lat="48.7001" lon="1.97073">
        <ele>130.7033996582</ele>
        <time>2016-09-22T10:19:53.000Z</time>
      </trkpt>
      <trkpt lat="48.70008" lon="1.97066">
        <ele>131.19223022461</ele>
        <time>2016-09-22T10:19:56.000Z</time>
      </trkpt>
      <trkpt lat="48.70006" lon="1.97062">
        <ele>131.72314453125</ele>
        <time>2016-09-22T10:19:59.000Z</time>
      </trkpt>
      <trkpt lat="48.70005" lon="1.97057">
        <ele>132.2341003418</ele>
        <time>2016-09-22T10:20:01.000Z</time>
      </trkpt>
      <trkpt lat="48.70004" lon="1.97052">
        <ele>132.76000976562</ele>
        <time>2016-09-22T10:20:04.000Z</time>
      </trkpt>
      <trkpt lat="48.70004" lon="1.97048">
        <ele>133.27876281738</ele>
        <time>2016-09-22T10:20:07.000Z</time>
      </trkpt>
      <trkpt lat="48.70005" lon="1.97044">
        <ele>133.71281433105</ele>
        <time>2016-09-22T10:20:10.000Z</time>
      </trkpt>
      <trkpt lat="48.70004" lon="1.97042">
        <ele>134.09271240234</ele>
        <time>2016-09-22T10:20:13.000Z</time>
      </trkpt>
      <trkpt lat="48.70004" lon="1.97041">
        <ele>134.41030883789</ele>
        <time>2016-09-22T10:20:16.000Z</time>
      </trkpt>
      <trkpt lat="48.70004" lon="1.97038">
        <ele>134.68544006348</ele>
        <time>2016-09-22T10:20:19.000Z</time>
      </trkpt>
      <trkpt lat="48.70003" lon="1.97036">
        <ele>134.92991638184</ele>
        <time>2016-09-22T10:20:21.000Z</time>
      </trkpt>
      <trkpt lat="48.70004" lon="1.97032">
        <ele>135.16398620605</ele>
        <time>2016-09-22T10:20:23.000Z</time>
      </trkpt>
      <trkpt lat="48.70004" lon="1.9703">
        <ele>135.39743041992</ele>
        <time>2016-09-22T10:20:25.000Z</time>
      </trkpt>
      <trkpt lat="48.70003" lon="1.97026">
        <ele>135.69064331055</ele>
        <time>2016-09-22T10:20:28.000Z</time>
      </trkpt>
      <trkpt lat="48.70004" lon="1.97021">
        <ele>136.00950622559</ele>
        <time>2016-09-22T10:20:30.000Z</time>
      </trkpt>
      <trkpt lat="48.70002" lon="1.97016">
        <ele>136.39657592773</ele>
        <time>2016-09-22T10:20:33.000Z</time>
      </trkpt>
      <trkpt lat="48.70001" lon="1.97012">
        <ele>136.81762695312</ele>
        <time>2016-09-22T10:20:36.000Z</time>
      </trkpt>
      <trkpt lat="48.7" lon="1.97007">
        <ele>137.29927062988</ele>
        <time>2016-09-22T10:20:39.000Z</time>
      </trkpt>
      <trkpt lat="48.69999" lon="1.97004">
        <ele>137.75798034668</ele>
        <time>2016-09-22T10:20:42.000Z</time>
      </trkpt>
      <trkpt lat="48.69999" lon="1.96999">
        <ele>138.20573425293</ele>
        <time>2016-09-22T10:20:44.000Z</time>
      </trkpt>
      <trkpt lat="48.69998" lon="1.96995">
        <ele>138.56968688965</ele>
        <time>2016-09-22T10:20:46.000Z</time>
      </trkpt>
      <trkpt lat="48.69997" lon="1.9699">
        <ele>138.87135314941</ele>
        <time>2016-09-22T10:20:49.000Z</time>
      </trkpt>
      <trkpt lat="48.69997" lon="1.96987">
        <ele>139.09553527832</ele>
        <time>2016-09-22T10:20:51.000Z</time>
      </trkpt>
      <trkpt lat="48.69995" lon="1.96984">
        <ele>139.26889038086</ele>
        <time>2016-09-22T10:20:54.000Z</time>
      </trkpt>
      <trkpt lat="48.69995" lon="1.96981">
        <ele>139.38586425781</ele>
        <time>2016-09-22T10:20:57.000Z</time>
      </trkpt>
      <trkpt lat="48.69994" lon="1.96979">
        <ele>139.48306274414</ele>
        <time>2016-09-22T10:20:59.000Z</time>
      </trkpt>
      <trkpt lat="48.69995" lon="1.96974">
        <ele>139.59408569336</ele>
        <time>2016-09-22T10:21:02.000Z</time>
      </trkpt>
      <trkpt lat="48.69994" lon="1.96969">
        <ele>139.71292114258</ele>
        <time>2016-09-22T10:21:05.000Z</time>
      </trkpt>
      <trkpt lat="48.69993" lon="1.96965">
        <ele>139.84884643555</ele>
        <time>2016-09-22T10:21:08.000Z</time>
      </trkpt>
      <trkpt lat="48.69992" lon="1.96962">
        <ele>139.98834228516</ele>
        <time>2016-09-22T10:21:10.000Z</time>
      </trkpt>
      <trkpt lat="48.69992" lon="1.96957">
        <ele>140.14840698242</ele>
        <time>2016-09-22T10:21:13.000Z</time>
      </trkpt>
      <trkpt lat="48.69994" lon="1.96955">
        <ele>140.28480529785</ele>
        <time>2016-09-22T10:21:16.000Z</time>
      </trkpt>
      <trkpt lat="48.69994" lon="1.96953">
        <ele>140.41098022461</ele>
        <time>2016-09-22T10:21:18.000Z</time>
      </trkpt>
      <trkpt lat="48.69992" lon="1.96949">
        <ele>140.53031921387</ele>
        <time>2016-09-22T10:21:20.000Z</time>
      </trkpt>
      <trkpt lat="48.69992" lon="1.96943">
        <ele>140.67221069336</ele>
        <time>2016-09-22T10:21:23.000Z</time>
      </trkpt>
      <trkpt lat="48.6999" lon="1.96939">
        <ele>140.81161499023</ele>
        <time>2016-09-22T10:21:25.000Z</time>
      </trkpt>
      <trkpt lat="48.69989" lon="1.96934">
        <ele>140.97232055664</ele>
        <time>2016-09-22T10:21:28.000Z</time>
      </trkpt>
      <trkpt lat="48.69989" lon="1.96931">
        <ele>141.13363647461</ele>
        <time>2016-09-22T10:21:30.000Z</time>
      </trkpt>
      <trkpt lat="48.69989" lon="1.96929">
        <ele>141.28009033203</ele>
        <time>2016-09-22T10:21:33.000Z</time>
      </trkpt>
      <trkpt lat="48.69989" lon="1.96924">
        <ele>141.42607116699</ele>
        <time>2016-09-22T10:21:36.000Z</time>
      </trkpt>
      <trkpt lat="48.69987" lon="1.96918">
        <ele>141.58808898926</ele>
        <time>2016-09-22T10:21:42.000Z</time>
      </trkpt>
      <trkpt lat="48.69987" lon="1.96915">
        <ele>141.72694396973</ele>
        <time>2016-09-22T10:21:45.000Z</time>
      </trkpt>
      <trkpt lat="48.69986" lon="1.96911">
        <ele>141.85754394531</ele>
        <time>2016-09-22T10:21:48.000Z</time>
      </trkpt>
      <trkpt lat="48.69986" lon="1.96908">
        <ele>141.98709106445</ele>
        <time>2016-09-22T10:21:51.000Z</time>
      </trkpt>
      <trkpt lat="48.69985" lon="1.96904">
        <ele>142.09300231934</ele>
        <time>2016-09-22T10:21:53.000Z</time>
      </trkpt>
      <trkpt lat="48.69984" lon="1.96901">
        <ele>142.17082214355</ele>
        <time>2016-09-22T10:21:56.000Z</time>
      </trkpt>
      <trkpt lat="48.69982" lon="1.96896">
        <ele>142.26284790039</ele>
        <time>2016-09-22T10:21:59.000Z</time>
      </trkpt>
      <trkpt lat="48.69979" lon="1.96891">
        <ele>142.37857055664</ele>
        <time>2016-09-22T10:22:02.000Z</time>
      </trkpt>
      <trkpt lat="48.69978" lon="1.96889">
        <ele>142.50068664551</ele>
        <time>2016-09-22T10:22:04.000Z</time>
      </trkpt>
      <trkpt lat="48.69978" lon="1.96887">
        <ele>142.62348937988</ele>
        <time>2016-09-22T10:22:06.000Z</time>
      </trkpt>
      <trkpt lat="48.69976" lon="1.96885">
        <ele>142.75141906738</ele>
        <time>2016-09-22T10:22:09.000Z</time>
      </trkpt>
      <trkpt lat="48.69975" lon="1.96882">
        <ele>142.87467956543</ele>
        <time>2016-09-22T10:22:12.000Z</time>
      </trkpt>
      <trkpt lat="48.69975" lon="1.96881">
        <ele>142.97846984863</ele>
        <time>2016-09-22T10:22:14.000Z</time>
      </trkpt>
      <trkpt lat="48.69971" lon="1.96877">
        <ele>143.11892700195</ele>
        <time>2016-09-22T10:22:17.000Z</time>
      </trkpt>
      <trkpt lat="48.6997" lon="1.96873">
        <ele>143.27978515625</ele>
        <time>2016-09-22T10:22:20.000Z</time>
      </trkpt>
      <trkpt lat="48.6997" lon="1.9687">
        <ele>143.44860839844</ele>
        <time>2016-09-22T10:22:23.000Z</time>
      </trkpt>
      <trkpt lat="48.69969" lon="1.96866">
        <ele>143.63827514648</ele>
        <time>2016-09-22T10:22:26.000Z</time>
      </trkpt>
      <trkpt lat="48.69967" lon="1.96864">
        <ele>143.84280395508</ele>
        <time>2016-09-22T10:22:29.000Z</time>
      </trkpt>
      <trkpt lat="48.69964" lon="1.96861">
        <ele>144.07676696777</ele>
        <time>2016-09-22T10:22:32.000Z</time>
      </trkpt>
      <trkpt lat="48.69962" lon="1.96859">
        <ele>144.31773376465</ele>
        <time>2016-09-22T10:22:35.000Z</time>
      </trkpt>
      <trkpt lat="48.6996" lon="1.96858">
        <ele>144.56149291992</ele>
        <time>2016-09-22T10:22:38.000Z</time>
      </trkpt>
      <trkpt lat="48.69959" lon="1.96856">
        <ele>144.79591369629</ele>
        <time>2016-09-22T10:22:40.000Z</time>
      </trkpt>
      <trkpt lat="48.69958" lon="1.96855">
        <ele>145.02012634277</ele>
        <time>2016-09-22T10:22:43.000Z</time>
      </trkpt>
      <trkpt lat="48.69954" lon="1.96852">
        <ele>145.26664733887</ele>
        <time>2016-09-22T10:22:51.000Z</time>
      </trkpt>
      <trkpt lat="48.69952" lon="1.96851">
        <ele>145.51567077637</ele>
        <time>2016-09-22T10:22:53.000Z</time>
      </trkpt>
      <trkpt lat="48.6995" lon="1.9685">
        <ele>145.77645874023</ele>
        <time>2016-09-22T10:22:56.000Z</time>
      </trkpt>
      <trkpt lat="48.69947" lon="1.96849">
        <ele>146.07272338867</ele>
        <time>2016-09-22T10:22:59.000Z</time>
      </trkpt>
      <trkpt lat="48.69945" lon="1.96848">
        <ele>146.38882446289</ele>
        <time>2016-09-22T10:23:01.000Z</time>
      </trkpt>
      <trkpt lat="48.69942" lon="1.96846">
        <ele>146.67414855957</ele>
        <time>2016-09-22T10:23:04.000Z</time>
      </trkpt>
      <trkpt lat="48.6994" lon="1.96845">
        <ele>146.97497558594</ele>
        <time>2016-09-22T10:23:07.000Z</time>
      </trkpt>
      <trkpt lat="48.69938" lon="1.96844">
        <ele>147.27285766602</ele>
        <time>2016-09-22T10:23:09.000Z</time>
      </trkpt>
      <trkpt lat="48.69936" lon="1.96843">
        <ele>147.55392456055</ele>
        <time>2016-09-22T10:23:12.000Z</time>
      </trkpt>
      <trkpt lat="48.69935" lon="1.96843">
        <ele>147.80715942383</ele>
        <time>2016-09-22T10:23:15.000Z</time>
      </trkpt>
      <trkpt lat="48.69932" lon="1.96841">
        <ele>148.08352661133</ele>
        <time>2016-09-22T10:23:18.000Z</time>
      </trkpt>
      <trkpt lat="48.6993" lon="1.9684">
        <ele>148.35214233398</ele>
        <time>2016-09-22T10:23:20.000Z</time>
      </trkpt>
      <trkpt lat="48.69927" lon="1.96838">
        <ele>148.67413330078</ele>
        <time>2016-09-22T10:23:23.000Z</time>
      </trkpt>
      <trkpt lat="48.69925" lon="1.96837">
        <ele>148.99862670898</ele>
        <time>2016-09-22T10:23:25.000Z</time>
      </trkpt>
      <trkpt lat="48.69923" lon="1.96836">
        <ele>149.35961914062</ele>
        <time>2016-09-22T10:23:27.000Z</time>
      </trkpt>
      <trkpt lat="48.6992" lon="1.96833">
        <ele>149.76205444336</ele>
        <time>2016-09-22T10:23:30.000Z</time>
      </trkpt>
      <trkpt lat="48.69917" lon="1.9683">
        <ele>150.2434387207</ele>
        <time>2016-09-22T10:23:33.000Z</time>
      </trkpt>
      <trkpt lat="48.69915" lon="1.96831">
        <ele>150.6309967041</ele>
        <time>2016-09-22T10:23:36.000Z</time>
      </trkpt>
      <trkpt lat="48.69914" lon="1.96831">
        <ele>150.96656799316</ele>
        <time>2016-09-22T10:23:38.000Z</time>
      </trkpt>
      <trkpt lat="48.69908" lon="1.96831">
        <ele>151.34605407715</ele>
        <time>2016-09-22T10:23:53.000Z</time>
      </trkpt>
      <trkpt lat="48.69905" lon="1.96829">
        <ele>151.66410827637</ele>
        <time>2016-09-22T10:23:56.000Z</time>
      </trkpt>
      <trkpt lat="48.69901" lon="1.96824">
        <ele>151.99974060059</ele>
        <time>2016-09-22T10:23:59.000Z</time>
      </trkpt>
      <trkpt lat="48.69899" lon="1.96822">
        <ele>152.42224121094</ele>
        <time>2016-09-22T10:24:01.000Z</time>
      </trkpt>
      <trkpt lat="48.69896" lon="1.9682">
        <ele>152.93391418457</ele>
        <time>2016-09-22T10:24:04.000Z</time>
      </trkpt>
      <trkpt lat="48.69894" lon="1.96818">
        <ele>153.42045593262</ele>
        <time>2016-09-22T10:24:06.000Z</time>
      </trkpt>
      <trkpt lat="48.69891" lon="1.96816">
        <ele>153.92114257812</ele>
        <time>2016-09-22T10:24:09.000Z</time>
      </trkpt>
      <trkpt lat="48.69889" lon="1.96813">
        <ele>154.3544921875</ele>
        <time>2016-09-22T10:24:12.000Z</time>
      </trkpt>
      <trkpt lat="48.69886" lon="1.96812">
        <ele>154.77764892578</ele>
        <time>2016-09-22T10:24:14.000Z</time>
      </trkpt>
      <trkpt lat="48.69883" lon="1.9681">
        <ele>155.19689941406</ele>
        <time>2016-09-22T10:24:17.000Z</time>
      </trkpt>
      <trkpt lat="48.69881" lon="1.9681">
        <ele>155.56951904297</ele>
        <time>2016-09-22T10:24:19.000Z</time>
      </trkpt>
      <trkpt lat="48.69878" lon="1.96809">
        <ele>155.9063873291</ele>
        <time>2016-09-22T10:24:22.000Z</time>
      </trkpt>
      <trkpt lat="48.69875" lon="1.96807">
        <ele>156.26379394531</ele>
        <time>2016-09-22T10:24:25.000Z</time>
      </trkpt>
      <trkpt lat="48.69874" lon="1.96806">
        <ele>156.58674621582</ele>
        <time>2016-09-22T10:24:27.000Z</time>
      </trkpt>
      <trkpt lat="48.6987" lon="1.96804">
        <ele>156.91860961914</ele>
        <time>2016-09-22T10:24:31.000Z</time>
      </trkpt>
      <trkpt lat="48.69866" lon="1.96801">
        <ele>157.34991455078</ele>
        <time>2016-09-22T10:24:40.000Z</time>
      </trkpt>
      <trkpt lat="48.69862" lon="1.96801">
        <ele>157.79846191406</ele>
        <time>2016-09-22T10:24:48.000Z</time>
      </trkpt>
      <trkpt lat="48.6986" lon="1.96799">
        <ele>158.22483825684</ele>
        <time>2016-09-22T10:24:50.000Z</time>
      </trkpt>
      <trkpt lat="48.69857" lon="1.96796">
        <ele>158.7239074707</ele>
        <time>2016-09-22T10:24:53.000Z</time>
      </trkpt>
      <trkpt lat="48.69855" lon="1.96794">
        <ele>159.1967010498</ele>
        <time>2016-09-22T10:24:55.000Z</time>
      </trkpt>
      <trkpt lat="48.69853" lon="1.96794">
        <ele>159.59030151367</ele>
        <time>2016-09-22T10:24:57.000Z</time>
      </trkpt>
      <trkpt lat="48.6985" lon="1.96795">
        <ele>159.92263793945</ele>
        <time>2016-09-22T10:25:00.000Z</time>
      </trkpt>
      <trkpt lat="48.69846" lon="1.96793">
        <ele>160.27754211426</ele>
        <time>2016-09-22T10:25:03.000Z</time>
      </trkpt>
      <trkpt lat="48.69844" lon="1.9679">
        <ele>160.61743164062</ele>
        <time>2016-09-22T10:25:05.000Z</time>
      </trkpt>
      <trkpt lat="48.69842" lon="1.96787">
        <ele>161.00224304199</ele>
        <time>2016-09-22T10:25:08.000Z</time>
      </trkpt>
      <trkpt lat="48.69839" lon="1.96784">
        <ele>161.47448730469</ele>
        <time>2016-09-22T10:25:11.000Z</time>
      </trkpt>
      <trkpt lat="48.69839" lon="1.96782">
        <ele>162.00733947754</ele>
        <time>2016-09-22T10:25:13.000Z</time>
      </trkpt>
      <trkpt lat="48.69836" lon="1.9678">
        <ele>162.51284790039</ele>
        <time>2016-09-22T10:25:18.000Z</time>
      </trkpt>
      <trkpt lat="48.69833" lon="1.96777">
        <ele>163.0684967041</ele>
        <time>2016-09-22T10:25:21.000Z</time>
      </trkpt>
      <trkpt lat="48.69831" lon="1.96775">
        <ele>163.56260681152</ele>
        <time>2016-09-22T10:25:23.000Z</time>
      </trkpt>
      <trkpt lat="48.69829" lon="1.96774">
        <ele>163.99049377441</ele>
        <time>2016-09-22T10:25:26.000Z</time>
      </trkpt>
      <trkpt lat="48.69827" lon="1.96771">
        <ele>164.4402923584</ele>
        <time>2016-09-22T10:25:28.000Z</time>
      </trkpt>
      <trkpt lat="48.69825" lon="1.96768">
        <ele>164.92175292969</ele>
        <time>2016-09-22T10:25:31.000Z</time>
      </trkpt>
      <trkpt lat="48.69823" lon="1.96765">
        <ele>165.37022399902</ele>
        <time>2016-09-22T10:25:34.000Z</time>
      </trkpt>
      <trkpt lat="48.69822" lon="1.96762">
        <ele>165.86227416992</ele>
        <time>2016-09-22T10:25:36.000Z</time>
      </trkpt>
      <trkpt lat="48.69821" lon="1.96758">
        <ele>166.40037536621</ele>
        <time>2016-09-22T10:25:39.000Z</time>
      </trkpt>
      <trkpt lat="48.6982" lon="1.96755">
        <ele>166.93008422852</ele>
        <time>2016-09-22T10:25:41.000Z</time>
      </trkpt>
      <trkpt lat="48.69819" lon="1.96753">
        <ele>167.42155456543</ele>
        <time>2016-09-22T10:25:43.000Z</time>
      </trkpt>
      <trkpt lat="48.69817" lon="1.9675">
        <ele>167.87637329102</ele>
        <time>2016-09-22T10:25:45.000Z</time>
      </trkpt>
      <trkpt lat="48.69816" lon="1.96748">
        <ele>168.27474975586</ele>
        <time>2016-09-22T10:25:47.000Z</time>
      </trkpt>
      <trkpt lat="48.69815" lon="1.96747">
        <ele>168.58554077148</ele>
        <time>2016-09-22T10:25:50.000Z</time>
      </trkpt>
      <trkpt lat="48.69813" lon="1.96743">
        <ele>168.88986206055</ele>
        <time>2016-09-22T10:25:58.000Z</time>
      </trkpt>
      <trkpt lat="48.69811" lon="1.9674">
        <ele>169.19097900391</ele>
        <time>2016-09-22T10:26:01.000Z</time>
      </trkpt>
      <trkpt lat="48.6981" lon="1.96738">
        <ele>169.4331817627</ele>
        <time>2016-09-22T10:26:03.000Z</time>
      </trkpt>
      <trkpt lat="48.69809" lon="1.96731">
        <ele>169.74290466309</ele>
        <time>2016-09-22T10:26:11.000Z</time>
      </trkpt>
      <trkpt lat="48.69807" lon="1.96728">
        <ele>170.08708190918</ele>
        <time>2016-09-22T10:26:14.000Z</time>
      </trkpt>
      <trkpt lat="48.69805" lon="1.96722">
        <ele>170.45413208008</ele>
        <time>2016-09-22T10:26:19.000Z</time>
      </trkpt>
      <trkpt lat="48.69804" lon="1.96718">
        <ele>170.80819702148</ele>
        <time>2016-09-22T10:26:32.000Z</time>
      </trkpt>
      <trkpt lat="48.69801" lon="1.96715">
        <ele>171.21186828613</ele>
        <time>2016-09-22T10:26:34.000Z</time>
      </trkpt>
      <trkpt lat="48.69799" lon="1.9671">
        <ele>171.58299255371</ele>
        <time>2016-09-22T10:26:37.000Z</time>
      </trkpt>
      <trkpt lat="48.69797" lon="1.96703">
        <ele>172.00503540039</ele>
        <time>2016-09-22T10:26:40.000Z</time>
      </trkpt>
      <trkpt lat="48.69796" lon="1.967">
        <ele>172.36206054688</ele>
        <time>2016-09-22T10:26:42.000Z</time>
      </trkpt>
      <trkpt lat="48.69796" lon="1.96696">
        <ele>172.71987915039</ele>
        <time>2016-09-22T10:26:45.000Z</time>
      </trkpt>
      <trkpt lat="48.69794" lon="1.96689">
        <ele>173.10894775391</ele>
        <time>2016-09-22T10:26:52.000Z</time>
      </trkpt>
      <trkpt lat="48.69794" lon="1.96687">
        <ele>173.4633026123</ele>
        <time>2016-09-22T10:27:00.000Z</time>
      </trkpt>
      <trkpt lat="48.69792" lon="1.96682">
        <ele>173.78547668457</ele>
        <time>2016-09-22T10:27:03.000Z</time>
      </trkpt>
      <trkpt lat="48.69791" lon="1.96674">
        <ele>174.18505859375</ele>
        <time>2016-09-22T10:27:09.000Z</time>
      </trkpt>
      <trkpt lat="48.69791" lon="1.96666">
        <ele>174.62197875977</ele>
        <time>2016-09-22T10:27:17.000Z</time>
      </trkpt>
      <trkpt lat="48.69792" lon="1.96663">
        <ele>174.96649169922</ele>
        <time>2016-09-22T10:27:19.000Z</time>
      </trkpt>
      <trkpt lat="48.69792" lon="1.96662">
        <ele>175.27059936523</ele>
        <time>2016-09-22T10:27:21.000Z</time>
      </trkpt>
      <trkpt lat="48.69792" lon="1.96655">
        <ele>175.54216003418</ele>
        <time>2016-09-22T10:27:25.000Z</time>
      </trkpt>
      <trkpt lat="48.6979" lon="1.96647">
        <ele>175.75675964355</ele>
        <time>2016-09-22T10:27:36.000Z</time>
      </trkpt>
      <trkpt lat="48.69789" lon="1.96645">
        <ele>175.89688110352</ele>
        <time>2016-09-22T10:27:38.000Z</time>
      </trkpt>
      <trkpt lat="48.69787" lon="1.96637">
        <ele>176.09259033203</ele>
        <time>2016-09-22T10:27:40.000Z</time>
      </trkpt>
      <trkpt lat="48.69785" lon="1.96631">
        <ele>176.3365020752</ele>
        <time>2016-09-22T10:27:43.000Z</time>
      </trkpt>
      <trkpt lat="48.69785" lon="1.96626">
        <ele>176.57321166992</ele>
        <time>2016-09-22T10:27:46.000Z</time>
      </trkpt>
      <trkpt lat="48.69785" lon="1.96621">
        <ele>176.77734375</ele>
        <time>2016-09-22T10:27:49.000Z</time>
      </trkpt>
      <trkpt lat="48.69785" lon="1.96616">
        <ele>176.99406433105</ele>
        <time>2016-09-22T10:27:52.000Z</time>
      </trkpt>
      <trkpt lat="48.69785" lon="1.96612">
        <ele>177.17231750488</ele>
        <time>2016-09-22T10:27:54.000Z</time>
      </trkpt>
      <trkpt lat="48.69784" lon="1.96607">
        <ele>177.32237243652</ele>
        <time>2016-09-22T10:27:56.000Z</time>
      </trkpt>
      <trkpt lat="48.69783" lon="1.96601">
        <ele>177.48086547852</ele>
        <time>2016-09-22T10:27:59.000Z</time>
      </trkpt>
      <trkpt lat="48.69782" lon="1.96596">
        <ele>177.6636505127</ele>
        <time>2016-09-22T10:28:02.000Z</time>
      </trkpt>
      <trkpt lat="48.6978" lon="1.9659">
        <ele>177.8703918457</ele>
        <time>2016-09-22T10:28:05.000Z</time>
      </trkpt>
      <trkpt lat="48.69778" lon="1.96585">
        <ele>178.0972442627</ele>
        <time>2016-09-22T10:28:08.000Z</time>
      </trkpt>
      <trkpt lat="48.69777" lon="1.9658">
        <ele>178.31655883789</ele>
        <time>2016-09-22T10:28:11.000Z</time>
      </trkpt>
      <trkpt lat="48.69777" lon="1.96576">
        <ele>178.49723815918</ele>
        <time>2016-09-22T10:28:13.000Z</time>
      </trkpt>
      <trkpt lat="48.69776" lon="1.96572">
        <ele>178.63858032227</ele>
        <time>2016-09-22T10:28:15.000Z</time>
      </trkpt>
      <trkpt lat="48.69775" lon="1.96567">
        <ele>178.73733520508</ele>
        <time>2016-09-22T10:28:17.000Z</time>
      </trkpt>
      <trkpt lat="48.69774" lon="1.96563">
        <ele>178.79692077637</ele>
        <time>2016-09-22T10:28:20.000Z</time>
      </trkpt>
      <trkpt lat="48.69775" lon="1.96559">
        <ele>178.83871459961</ele>
        <time>2016-09-22T10:28:23.000Z</time>
      </trkpt>
      <trkpt lat="48.69774" lon="1.96555">
        <ele>178.87977600098</ele>
        <time>2016-09-22T10:28:25.000Z</time>
      </trkpt>
      <trkpt lat="48.69773" lon="1.96548">
        <ele>178.92919921875</ele>
        <time>2016-09-22T10:28:28.000Z</time>
      </trkpt>
      <trkpt lat="48.69771" lon="1.96543">
        <ele>178.97747802734</ele>
        <time>2016-09-22T10:28:30.000Z</time>
      </trkpt>
      <trkpt lat="48.6977" lon="1.96541">
        <ele>179.02404785156</ele>
        <time>2016-09-22T10:28:32.000Z</time>
      </trkpt>
      <trkpt lat="48.69769" lon="1.96538">
        <ele>179.0824432373</ele>
        <time>2016-09-22T10:28:34.000Z</time>
      </trkpt>
      <trkpt lat="48.69769" lon="1.96536">
        <ele>179.13916015625</ele>
        <time>2016-09-22T10:28:36.000Z</time>
      </trkpt>
      <trkpt lat="48.69768" lon="1.96532">
        <ele>179.18893432617</ele>
        <time>2016-09-22T10:28:39.000Z</time>
      </trkpt>
      <trkpt lat="48.69766" lon="1.96527">
        <ele>179.24113464355</ele>
        <time>2016-09-22T10:28:42.000Z</time>
      </trkpt>
      <trkpt lat="48.69765" lon="1.96525">
        <ele>179.29223632812</ele>
        <time>2016-09-22T10:28:44.000Z</time>
      </trkpt>
      <trkpt lat="48.69764" lon="1.96521">
        <ele>179.34283447266</ele>
        <time>2016-09-22T10:28:47.000Z</time>
      </trkpt>
      <trkpt lat="48.69763" lon="1.9652">
        <ele>179.39929199219</ele>
        <time>2016-09-22T10:28:49.000Z</time>
      </trkpt>
      <trkpt lat="48.69763" lon="1.9652">
        <ele>179.39929199219</ele>
        <time>2016-09-22T10:29:09.000Z</time>
      </trkpt>
      <trkpt lat="48.69765" lon="1.96517">
        <ele>179.42250061035</ele>
        <time>2016-09-22T10:29:24.000Z</time>
      </trkpt>
      <trkpt lat="48.6977" lon="1.96519">
        <ele>179.3978729248</ele>
        <time>2016-09-22T10:29:36.000Z</time>
      </trkpt>
      <trkpt lat="48.69771" lon="1.96521">
        <ele>179.35525512695</ele>
        <time>2016-09-22T10:29:41.000Z</time>
      </trkpt>
      <trkpt lat="48.69772" lon="1.96525">
        <ele>179.28958129883</ele>
        <time>2016-09-22T10:29:44.000Z</time>
      </trkpt>
      <trkpt lat="48.69791" lon="1.9656">
        <ele>179.02432250977</ele>
        <time>2016-09-22T11:03:08.000Z</time>
      </trkpt>
      <trkpt lat="48.69786" lon="1.96568">
        <ele>178.81108093262</ele>
        <time>2016-09-22T11:03:11.000Z</time>
      </trkpt>
      <trkpt lat="48.6978" lon="1.96563">
        <ele>178.69407653809</ele>
        <time>2016-09-22T11:03:14.000Z</time>
      </trkpt>
      <trkpt lat="48.69776" lon="1.96561">
        <ele>178.62243652344</ele>
        <time>2016-09-22T11:03:16.000Z</time>
      </trkpt>
      <trkpt lat="48.69776" lon="1.96558">
        <ele>178.56855773926</ele>
        <time>2016-09-22T11:03:18.000Z</time>
      </trkpt>
      <trkpt lat="48.69774" lon="1.96554">
        <ele>178.72482299805</ele>
        <time>2016-09-22T11:03:21.000Z</time>
      </trkpt>
      <trkpt lat="48.69773" lon="1.9655">
        <ele>178.86001586914</ele>
        <time>2016-09-22T11:03:23.000Z</time>
      </trkpt>
      <trkpt lat="48.6977" lon="1.96549">
        <ele>178.95309448242</ele>
        <time>2016-09-22T11:03:26.000Z</time>
      </trkpt>
      <trkpt lat="48.69769" lon="1.96543">
        <ele>179.025390625</ele>
        <time>2016-09-22T11:03:32.000Z</time>
      </trkpt>
      <trkpt lat="48.69769" lon="1.96541">
        <ele>179.09944152832</ele>
        <time>2016-09-22T11:03:35.000Z</time>
      </trkpt>
      <trkpt lat="48.69767" lon="1.96541">
        <ele>179.16319274902</ele>
        <time>2016-09-22T11:03:38.000Z</time>
      </trkpt>
      <trkpt lat="48.69768" lon="1.96545">
        <ele>179.20793151855</ele>
        <time>2016-09-22T11:03:49.000Z</time>
      </trkpt>
      <trkpt lat="48.69767" lon="1.96543">
        <ele>179.23904418945</ele>
        <time>2016-09-22T11:03:52.000Z</time>
      </trkpt>
      <trkpt lat="48.69768" lon="1.96539">
        <ele>179.25141906738</ele>
        <time>2016-09-22T11:03:55.000Z</time>
      </trkpt>
      <trkpt lat="48.69768" lon="1.96535">
        <ele>179.25790405273</ele>
        <time>2016-09-22T11:03:57.000Z</time>
      </trkpt>
      <trkpt lat="48.69767" lon="1.9653">
        <ele>179.26977539062</ele>
        <time>2016-09-22T11:04:00.000Z</time>
      </trkpt>
      <trkpt lat="48.69765" lon="1.96526">
        <ele>179.29927062988</ele>
        <time>2016-09-22T11:04:03.000Z</time>
      </trkpt>
      <trkpt lat="48.69764" lon="1.96523">
        <ele>179.33447265625</ele>
        <time>2016-09-22T11:04:06.000Z</time>
      </trkpt>
      <trkpt lat="48.69762" lon="1.96519">
        <ele>179.38876342773</ele>
        <time>2016-09-22T11:04:09.000Z</time>
      </trkpt>
      <trkpt lat="48.69761" lon="1.96517">
        <ele>179.45780944824</ele>
        <time>2016-09-22T11:04:11.000Z</time>
      </trkpt>
      <trkpt lat="48.69759" lon="1.96514">
        <ele>179.52104187012</ele>
        <time>2016-09-22T11:04:13.000Z</time>
      </trkpt>
      <trkpt lat="48.69757" lon="1.96509">
        <ele>179.59555053711</ele>
        <time>2016-09-22T11:04:16.000Z</time>
      </trkpt>
      <trkpt lat="48.69756" lon="1.96505">
        <ele>179.66567993164</ele>
        <time>2016-09-22T11:04:18.000Z</time>
      </trkpt>
      <trkpt lat="48.69754" lon="1.96498">
        <ele>179.7313079834</ele>
        <time>2016-09-22T11:04:21.000Z</time>
      </trkpt>
      <trkpt lat="48.69753" lon="1.96495">
        <ele>179.79241943359</ele>
        <time>2016-09-22T11:04:23.000Z</time>
      </trkpt>
      <trkpt lat="48.69751" lon="1.9649">
        <ele>179.85775756836</ele>
        <time>2016-09-22T11:04:25.000Z</time>
      </trkpt>
      <trkpt lat="48.69748" lon="1.96485">
        <ele>179.90747070312</ele>
        <time>2016-09-22T11:04:28.000Z</time>
      </trkpt>
      <trkpt lat="48.69745" lon="1.96481">
        <ele>179.94747924805</ele>
        <time>2016-09-22T11:04:31.000Z</time>
      </trkpt>
      <trkpt lat="48.69743" lon="1.96477">
        <ele>179.97772216797</ele>
        <time>2016-09-22T11:04:34.000Z</time>
      </trkpt>
      <trkpt lat="48.69742" lon="1.96476">
        <ele>179.99606323242</ele>
        <time>2016-09-22T11:04:36.000Z</time>
      </trkpt>
      <trkpt lat="48.6974" lon="1.96471">
        <ele>180</ele>
        <time>2016-09-22T11:04:39.000Z</time>
      </trkpt>
      <trkpt lat="48.69738" lon="1.96469">
        <ele>180</ele>
        <time>2016-09-22T11:04:41.000Z</time>
      </trkpt>
      <trkpt lat="48.69737" lon="1.96465">
        <ele>180</ele>
        <time>2016-09-22T11:04:43.000Z</time>
      </trkpt>
      <trkpt lat="48.69735" lon="1.96461">
        <ele>180</ele>
        <time>2016-09-22T11:04:46.000Z</time>
      </trkpt>
      <trkpt lat="48.69735" lon="1.96457">
        <ele>180</ele>
        <time>2016-09-22T11:04:49.000Z</time>
      </trkpt>
      <trkpt lat="48.69733" lon="1.96454">
        <ele>180</ele>
        <time>2016-09-22T11:04:51.000Z</time>
      </trkpt>
      <trkpt lat="48.69732" lon="1.96453">
        <ele>180</ele>
        <time>2016-09-22T11:04:53.000Z</time>
      </trkpt>
      <trkpt lat="48.69731" lon="1.96449">
        <ele>180</ele>
        <time>2016-09-22T11:04:56.000Z</time>
      </trkpt>
      <trkpt lat="48.6973" lon="1.96445">
        <ele>180</ele>
        <time>2016-09-22T11:04:58.000Z</time>
      </trkpt>
      <trkpt lat="48.69728" lon="1.9644">
        <ele>180</ele>
        <time>2016-09-22T11:05:01.000Z</time>
      </trkpt>
      <trkpt lat="48.69727" lon="1.96436">
        <ele>180</ele>
        <time>2016-09-22T11:05:03.000Z</time>
      </trkpt>
      <trkpt lat="48.69725" lon="1.96432">
        <ele>180</ele>
        <time>2016-09-22T11:05:05.000Z</time>
      </trkpt>
      <trkpt lat="48.69723" lon="1.96428">
        <ele>180</ele>
        <time>2016-09-22T11:05:08.000Z</time>
      </trkpt>
      <trkpt lat="48.69721" lon="1.96425">
        <ele>180</ele>
        <time>2016-09-22T11:05:10.000Z</time>
      </trkpt>
      <trkpt lat="48.6972" lon="1.96422">
        <ele>180</ele>
        <time>2016-09-22T11:05:12.000Z</time>
      </trkpt>
      <trkpt lat="48.69719" lon="1.96417">
        <ele>180</ele>
        <time>2016-09-22T11:05:15.000Z</time>
      </trkpt>
      <trkpt lat="48.69719" lon="1.96413">
        <ele>179.99813842773</ele>
        <time>2016-09-22T11:05:18.000Z</time>
      </trkpt>
      <trkpt lat="48.69718" lon="1.96411">
        <ele>179.99491882324</ele>
        <time>2016-09-22T11:05:20.000Z</time>
      </trkpt>
      <trkpt lat="48.69716" lon="1.96407">
        <ele>179.990234375</ele>
        <time>2016-09-22T11:05:23.000Z</time>
      </trkpt>
      <trkpt lat="48.69714" lon="1.96402">
        <ele>179.98542785645</ele>
        <time>2016-09-22T11:05:26.000Z</time>
      </trkpt>
      <trkpt lat="48.69712" lon="1.96399">
        <ele>179.98184204102</ele>
        <time>2016-09-22T11:05:28.000Z</time>
      </trkpt>
      <trkpt lat="48.6971" lon="1.96397">
        <ele>179.98190307617</ele>
        <time>2016-09-22T11:05:30.000Z</time>
      </trkpt>
      <trkpt lat="48.69708" lon="1.96393">
        <ele>179.98522949219</ele>
        <time>2016-09-22T11:05:32.000Z</time>
      </trkpt>
      <trkpt lat="48.69707" lon="1.96391">
        <ele>179.99247741699</ele>
        <time>2016-09-22T11:05:34.000Z</time>
      </trkpt>
      <trkpt lat="48.69706" lon="1.96387">
        <ele>180.00160217285</ele>
        <time>2016-09-22T11:05:37.000Z</time>
      </trkpt>
      <trkpt lat="48.69705" lon="1.96385">
        <ele>180.01055908203</ele>
        <time>2016-09-22T11:05:39.000Z</time>
      </trkpt>
      <trkpt lat="48.69704" lon="1.96382">
        <ele>180.02053833008</ele>
        <time>2016-09-22T11:05:41.000Z</time>
      </trkpt>
      <trkpt lat="48.69703" lon="1.9638">
        <ele>180.03091430664</ele>
        <time>2016-09-22T11:05:43.000Z</time>
      </trkpt>
      <trkpt lat="48.69701" lon="1.96376">
        <ele>180.04588317871</ele>
        <time>2016-09-22T11:05:46.000Z</time>
      </trkpt>
      <trkpt lat="48.69699" lon="1.96372">
        <ele>180.06596374512</ele>
        <time>2016-09-22T11:05:49.000Z</time>
      </trkpt>
      <trkpt lat="48.69698" lon="1.96369">
        <ele>180.08992004395</ele>
        <time>2016-09-22T11:05:52.000Z</time>
      </trkpt>
      <trkpt lat="48.69696" lon="1.96366">
        <ele>180.11758422852</ele>
        <time>2016-09-22T11:05:54.000Z</time>
      </trkpt>
      <trkpt lat="48.69694" lon="1.96363">
        <ele>180.15167236328</ele>
        <time>2016-09-22T11:05:57.000Z</time>
      </trkpt>
      <trkpt lat="48.69692" lon="1.96358">
        <ele>180.18768310547</ele>
        <time>2016-09-22T11:06:00.000Z</time>
      </trkpt>
      <trkpt lat="48.69691" lon="1.96355">
        <ele>180.22541809082</ele>
        <time>2016-09-22T11:06:02.000Z</time>
      </trkpt>
      <trkpt lat="48.69689" lon="1.9635">
        <ele>180.27131652832</ele>
        <time>2016-09-22T11:06:05.000Z</time>
      </trkpt>
      <trkpt lat="48.69687" lon="1.96345">
        <ele>180.32504272461</ele>
        <time>2016-09-22T11:06:08.000Z</time>
      </trkpt>
      <trkpt lat="48.69685" lon="1.9634">
        <ele>180.3835144043</ele>
        <time>2016-09-22T11:06:11.000Z</time>
      </trkpt>
      <trkpt lat="48.69683" lon="1.96334">
        <ele>180.45207214355</ele>
        <time>2016-09-22T11:06:14.000Z</time>
      </trkpt>
      <trkpt lat="48.69681" lon="1.96331">
        <ele>180.52853393555</ele>
        <time>2016-09-22T11:06:16.000Z</time>
      </trkpt>
      <trkpt lat="48.6968" lon="1.96328">
        <ele>180.60815429688</ele>
        <time>2016-09-22T11:06:18.000Z</time>
      </trkpt>
      <trkpt lat="48.69678" lon="1.96325">
        <ele>180.69296264648</ele>
        <time>2016-09-22T11:06:21.000Z</time>
      </trkpt>
      <trkpt lat="48.69677" lon="1.96322">
        <ele>180.78684997559</ele>
        <time>2016-09-22T11:06:24.000Z</time>
      </trkpt>
      <trkpt lat="48.69675" lon="1.96318">
        <ele>180.88493347168</ele>
        <time>2016-09-22T11:06:27.000Z</time>
      </trkpt>
      <trkpt lat="48.69674" lon="1.96314">
        <ele>180.98930358887</ele>
        <time>2016-09-22T11:06:30.000Z</time>
      </trkpt>
      <trkpt lat="48.69673" lon="1.96311">
        <ele>181.09913635254</ele>
        <time>2016-09-22T11:06:32.000Z</time>
      </trkpt>
      <trkpt lat="48.69672" lon="1.96305">
        <ele>181.2230682373</ele>
        <time>2016-09-22T11:06:35.000Z</time>
      </trkpt>
      <trkpt lat="48.6967" lon="1.96301">
        <ele>181.3512878418</ele>
        <time>2016-09-22T11:06:38.000Z</time>
      </trkpt>
      <trkpt lat="48.69669" lon="1.96297">
        <ele>181.49041748047</ele>
        <time>2016-09-22T11:06:41.000Z</time>
      </trkpt>
      <trkpt lat="48.69667" lon="1.96293">
        <ele>181.6392364502</ele>
        <time>2016-09-22T11:06:43.000Z</time>
      </trkpt>
      <trkpt lat="48.69665" lon="1.9629">
        <ele>181.77645874023</ele>
        <time>2016-09-22T11:06:45.000Z</time>
      </trkpt>
      <trkpt lat="48.69663" lon="1.96285">
        <ele>181.90098571777</ele>
        <time>2016-09-22T11:06:48.000Z</time>
      </trkpt>
      <trkpt lat="48.69662" lon="1.96282">
        <ele>182.01295471191</ele>
        <time>2016-09-22T11:06:50.000Z</time>
      </trkpt>
      <trkpt lat="48.69661" lon="1.9628">
        <ele>182.09854125977</ele>
        <time>2016-09-22T11:06:52.000Z</time>
      </trkpt>
      <trkpt lat="48.69658" lon="1.96277">
        <ele>182.16584777832</ele>
        <time>2016-09-22T11:06:55.000Z</time>
      </trkpt>
      <trkpt lat="48.69656" lon="1.96273">
        <ele>182.24226379395</ele>
        <time>2016-09-22T11:06:57.000Z</time>
      </trkpt>
      <trkpt lat="48.69654" lon="1.96268">
        <ele>182.3215637207</ele>
        <time>2016-09-22T11:07:00.000Z</time>
      </trkpt>
      <trkpt lat="48.69653" lon="1.96265">
        <ele>182.39846801758</ele>
        <time>2016-09-22T11:07:03.000Z</time>
      </trkpt>
      <trkpt lat="48.69651" lon="1.96262">
        <ele>182.48721313477</ele>
        <time>2016-09-22T11:07:06.000Z</time>
      </trkpt>
      <trkpt lat="48.6965" lon="1.96258">
        <ele>182.58247375488</ele>
        <time>2016-09-22T11:07:08.000Z</time>
      </trkpt>
      <trkpt lat="48.69649" lon="1.96254">
        <ele>182.6784362793</ele>
        <time>2016-09-22T11:07:10.000Z</time>
      </trkpt>
      <trkpt lat="48.69648" lon="1.96251">
        <ele>182.77249145508</ele>
        <time>2016-09-22T11:07:13.000Z</time>
      </trkpt>
      <trkpt lat="48.69646" lon="1.96247">
        <ele>182.84408569336</ele>
        <time>2016-09-22T11:07:16.000Z</time>
      </trkpt>
      <trkpt lat="48.69644" lon="1.96241">
        <ele>182.8712310791</ele>
        <time>2016-09-22T11:07:19.000Z</time>
      </trkpt>
      <trkpt lat="48.69642" lon="1.96234">
        <ele>182.85067749023</ele>
        <time>2016-09-22T11:07:22.000Z</time>
      </trkpt>
      <trkpt lat="48.6964" lon="1.96231">
        <ele>182.79971313477</ele>
        <time>2016-09-22T11:07:24.000Z</time>
      </trkpt>
      <trkpt lat="48.69638" lon="1.96226">
        <ele>182.70736694336</ele>
        <time>2016-09-22T11:07:27.000Z</time>
      </trkpt>
      <trkpt lat="48.69636" lon="1.96223">
        <ele>182.61503601074</ele>
        <time>2016-09-22T11:07:29.000Z</time>
      </trkpt>
      <trkpt lat="48.69634" lon="1.96218">
        <ele>182.5315246582</ele>
        <time>2016-09-22T11:07:32.000Z</time>
      </trkpt>
      <trkpt lat="48.69632" lon="1.96214">
        <ele>182.46174621582</ele>
        <time>2016-09-22T11:07:34.000Z</time>
      </trkpt>
      <trkpt lat="48.6963" lon="1.96209">
        <ele>182.38320922852</ele>
        <time>2016-09-22T11:07:37.000Z</time>
      </trkpt>
      <trkpt lat="48.69629" lon="1.96203">
        <ele>182.30668640137</ele>
        <time>2016-09-22T11:07:40.000Z</time>
      </trkpt>
      <trkpt lat="48.69628" lon="1.96201">
        <ele>182.23356628418</ele>
        <time>2016-09-22T11:07:42.000Z</time>
      </trkpt>
      <trkpt lat="48.69627" lon="1.96197">
        <ele>182.1618347168</ele>
        <time>2016-09-22T11:07:45.000Z</time>
      </trkpt>
      <trkpt lat="48.69625" lon="1.96191">
        <ele>182.08505249023</ele>
        <time>2016-09-22T11:07:48.000Z</time>
      </trkpt>
      <trkpt lat="48.69624" lon="1.96187">
        <ele>182.01704406738</ele>
        <time>2016-09-22T11:07:50.000Z</time>
      </trkpt>
      <trkpt lat="48.69622" lon="1.96185">
        <ele>181.9593963623</ele>
        <time>2016-09-22T11:07:52.000Z</time>
      </trkpt>
      <trkpt lat="48.69621" lon="1.96181">
        <ele>181.90023803711</ele>
        <time>2016-09-22T11:07:54.000Z</time>
      </trkpt>
      <trkpt lat="48.69619" lon="1.96177">
        <ele>181.84468078613</ele>
        <time>2016-09-22T11:07:57.000Z</time>
      </trkpt>
      <trkpt lat="48.69617" lon="1.96172">
        <ele>181.7946472168</ele>
        <time>2016-09-22T11:08:00.000Z</time>
      </trkpt>
      <trkpt lat="48.69615" lon="1.96168">
        <ele>181.74575805664</ele>
        <time>2016-09-22T11:08:03.000Z</time>
      </trkpt>
      <trkpt lat="48.69613" lon="1.96165">
        <ele>181.68844604492</ele>
        <time>2016-09-22T11:08:06.000Z</time>
      </trkpt>
      <trkpt lat="48.69612" lon="1.96161">
        <ele>181.61721801758</ele>
        <time>2016-09-22T11:08:09.000Z</time>
      </trkpt>
      <trkpt lat="48.69611" lon="1.96156">
        <ele>181.5178527832</ele>
        <time>2016-09-22T11:08:12.000Z</time>
      </trkpt>
      <trkpt lat="48.69609" lon="1.96153">
        <ele>181.41157531738</ele>
        <time>2016-09-22T11:08:14.000Z</time>
      </trkpt>
      <trkpt lat="48.69607" lon="1.96149">
        <ele>181.29104614258</ele>
        <time>2016-09-22T11:08:17.000Z</time>
      </trkpt>
      <trkpt lat="48.69605" lon="1.96146">
        <ele>181.17390441895</ele>
        <time>2016-09-22T11:08:19.000Z</time>
      </trkpt>
      <trkpt lat="48.69603" lon="1.96143">
        <ele>181.06602478027</ele>
        <time>2016-09-22T11:08:21.000Z</time>
      </trkpt>
      <trkpt lat="48.69602" lon="1.96139">
        <ele>180.97789001465</ele>
        <time>2016-09-22T11:08:23.000Z</time>
      </trkpt>
      <trkpt lat="48.696" lon="1.96135">
        <ele>180.89138793945</ele>
        <time>2016-09-22T11:08:26.000Z</time>
      </trkpt>
      <trkpt lat="48.69597" lon="1.96131">
        <ele>180.82232666016</ele>
        <time>2016-09-22T11:08:28.000Z</time>
      </trkpt>
      <trkpt lat="48.69596" lon="1.96128">
        <ele>180.76098632812</ele>
        <time>2016-09-22T11:08:30.000Z</time>
      </trkpt>
      <trkpt lat="48.69594" lon="1.96125">
        <ele>180.70254516602</ele>
        <time>2016-09-22T11:08:33.000Z</time>
      </trkpt>
      <trkpt lat="48.69594" lon="1.96122">
        <ele>180.64456176758</ele>
        <time>2016-09-22T11:08:35.000Z</time>
      </trkpt>
      <trkpt lat="48.69594" lon="1.96119">
        <ele>180.58976745605</ele>
        <time>2016-09-22T11:08:37.000Z</time>
      </trkpt>
      <trkpt lat="48.69593" lon="1.96117">
        <ele>180.53205871582</ele>
        <time>2016-09-22T11:08:39.000Z</time>
      </trkpt>
      <trkpt lat="48.69592" lon="1.96113">
        <ele>180.46566772461</ele>
        <time>2016-09-22T11:08:42.000Z</time>
      </trkpt>
      <trkpt lat="48.6959" lon="1.96106">
        <ele>180.39131164551</ele>
        <time>2016-09-22T11:08:45.000Z</time>
      </trkpt>
      <trkpt lat="48.69588" lon="1.96101">
        <ele>180.3256072998</ele>
        <time>2016-09-22T11:08:48.000Z</time>
      </trkpt>
      <trkpt lat="48.69586" lon="1.96099">
        <ele>180.28433227539</ele>
        <time>2016-09-22T11:08:50.000Z</time>
      </trkpt>
      <trkpt lat="48.69584" lon="1.96095">
        <ele>180.26150512695</ele>
        <time>2016-09-22T11:08:52.000Z</time>
      </trkpt>
      <trkpt lat="48.69582" lon="1.9609">
        <ele>180.20622253418</ele>
        <time>2016-09-22T11:08:55.000Z</time>
      </trkpt>
      <trkpt lat="48.69582" lon="1.96087">
        <ele>180.15596008301</ele>
        <time>2016-09-22T11:08:57.000Z</time>
      </trkpt>
      <trkpt lat="48.69581" lon="1.96083">
        <ele>180.09043884277</ele>
        <time>2016-09-22T11:09:00.000Z</time>
      </trkpt>
      <trkpt lat="48.6958" lon="1.96078">
        <ele>179.97807312012</ele>
        <time>2016-09-22T11:09:03.000Z</time>
      </trkpt>
      <trkpt lat="48.69579" lon="1.96075">
        <ele>179.83348083496</ele>
        <time>2016-09-22T11:09:05.000Z</time>
      </trkpt>
      <trkpt lat="48.69579" lon="1.96072">
        <ele>179.70974731445</ele>
        <time>2016-09-22T11:09:07.000Z</time>
      </trkpt>
      <trkpt lat="48.69578" lon="1.96066">
        <ele>179.56567382812</ele>
        <time>2016-09-22T11:09:10.000Z</time>
      </trkpt>
      <trkpt lat="48.69576" lon="1.96062">
        <ele>179.41271972656</ele>
        <time>2016-09-22T11:09:13.000Z</time>
      </trkpt>
      <trkpt lat="48.69575" lon="1.9606">
        <ele>179.27473449707</ele>
        <time>2016-09-22T11:09:15.000Z</time>
      </trkpt>
      <trkpt lat="48.69574" lon="1.96058">
        <ele>179.13858032227</ele>
        <time>2016-09-22T11:09:17.000Z</time>
      </trkpt>
      <trkpt lat="48.69572" lon="1.96054">
        <ele>178.99224853516</ele>
        <time>2016-09-22T11:09:20.000Z</time>
      </trkpt>
      <trkpt lat="48.6957" lon="1.96052">
        <ele>178.85040283203</ele>
        <time>2016-09-22T11:09:22.000Z</time>
      </trkpt>
      <trkpt lat="48.69567" lon="1.96047">
        <ele>178.69631958008</ele>
        <time>2016-09-22T11:09:25.000Z</time>
      </trkpt>
      <trkpt lat="48.69564" lon="1.96041">
        <ele>178.51547241211</ele>
        <time>2016-09-22T11:09:28.000Z</time>
      </trkpt>
      <trkpt lat="48.69563" lon="1.96035">
        <ele>178.31730651855</ele>
        <time>2016-09-22T11:09:31.000Z</time>
      </trkpt>
      <trkpt lat="48.69561" lon="1.96028">
        <ele>178.11408996582</ele>
        <time>2016-09-22T11:09:34.000Z</time>
      </trkpt>
      <trkpt lat="48.69559" lon="1.96025">
        <ele>177.91528320312</ele>
        <time>2016-09-22T11:09:37.000Z</time>
      </trkpt>
      <trkpt lat="48.69558" lon="1.96024">
        <ele>177.74304199219</ele>
        <time>2016-09-22T11:09:40.000Z</time>
      </trkpt>
      <trkpt lat="48.69555" lon="1.96021">
        <ele>177.59184265137</ele>
        <time>2016-09-22T11:09:42.000Z</time>
      </trkpt>
      <trkpt lat="48.69553" lon="1.96018">
        <ele>177.44515991211</ele>
        <time>2016-09-22T11:09:45.000Z</time>
      </trkpt>
      <trkpt lat="48.69551" lon="1.96016">
        <ele>177.32264709473</ele>
        <time>2016-09-22T11:09:47.000Z</time>
      </trkpt>
      <trkpt lat="48.69549" lon="1.96011">
        <ele>177.19158935547</ele>
        <time>2016-09-22T11:09:50.000Z</time>
      </trkpt>
      <trkpt lat="48.69547" lon="1.96007">
        <ele>177.05461120605</ele>
        <time>2016-09-22T11:09:53.000Z</time>
      </trkpt>
      <trkpt lat="48.69545" lon="1.96002">
        <ele>176.92234802246</ele>
        <time>2016-09-22T11:09:55.000Z</time>
      </trkpt>
      <trkpt lat="48.69542" lon="1.95995">
        <ele>176.76490783691</ele>
        <time>2016-09-22T11:09:58.000Z</time>
      </trkpt>
      <trkpt lat="48.6954" lon="1.95989">
        <ele>176.57429504395</ele>
        <time>2016-09-22T11:10:01.000Z</time>
      </trkpt>
      <trkpt lat="48.69538" lon="1.95986">
        <ele>176.38056945801</ele>
        <time>2016-09-22T11:10:03.000Z</time>
      </trkpt>
      <trkpt lat="48.69537" lon="1.95983">
        <ele>176.1900177002</ele>
        <time>2016-09-22T11:10:05.000Z</time>
      </trkpt>
      <trkpt lat="48.69536" lon="1.9598">
        <ele>175.9951171875</ele>
        <time>2016-09-22T11:10:08.000Z</time>
      </trkpt>
      <trkpt lat="48.69534" lon="1.95977">
        <ele>175.83511352539</ele>
        <time>2016-09-22T11:10:10.000Z</time>
      </trkpt>
      <trkpt lat="48.69532" lon="1.95975">
        <ele>175.69696044922</ele>
        <time>2016-09-22T11:10:12.000Z</time>
      </trkpt>
      <trkpt lat="48.69531" lon="1.95971">
        <ele>175.56677246094</ele>
        <time>2016-09-22T11:10:15.000Z</time>
      </trkpt>
      <trkpt lat="48.6953" lon="1.95968">
        <ele>175.4349822998</ele>
        <time>2016-09-22T11:10:18.000Z</time>
      </trkpt>
      <trkpt lat="48.69527" lon="1.95962">
        <ele>175.28157043457</ele>
        <time>2016-09-22T11:10:21.000Z</time>
      </trkpt>
      <trkpt lat="48.69526" lon="1.95958">
        <ele>175.11877441406</ele>
        <time>2016-09-22T11:10:24.000Z</time>
      </trkpt>
      <trkpt lat="48.69525" lon="1.95955">
        <ele>174.96408081055</ele>
        <time>2016-09-22T11:10:26.000Z</time>
      </trkpt>
      <trkpt lat="48.69524" lon="1.95951">
        <ele>174.80545043945</ele>
        <time>2016-09-22T11:10:28.000Z</time>
      </trkpt>
      <trkpt lat="48.69522" lon="1.95947">
        <ele>174.63807678223</ele>
        <time>2016-09-22T11:10:31.000Z</time>
      </trkpt>
      <trkpt lat="48.6952" lon="1.95943">
        <ele>174.49142456055</ele>
        <time>2016-09-22T11:10:34.000Z</time>
      </trkpt>
      <trkpt lat="48.69518" lon="1.95938">
        <ele>174.33972167969</ele>
        <time>2016-09-22T11:10:37.000Z</time>
      </trkpt>
      <trkpt lat="48.69516" lon="1.95934">
        <ele>174.17414855957</ele>
        <time>2016-09-22T11:10:39.000Z</time>
      </trkpt>
      <trkpt lat="48.69514" lon="1.95927">
        <ele>173.9933013916</ele>
        <time>2016-09-22T11:10:42.000Z</time>
      </trkpt>
      <trkpt lat="48.69511" lon="1.95923">
        <ele>173.81256103516</ele>
        <time>2016-09-22T11:10:44.000Z</time>
      </trkpt>
      <trkpt lat="48.69508" lon="1.95917">
        <ele>173.61494445801</ele>
        <time>2016-09-22T11:10:47.000Z</time>
      </trkpt>
      <trkpt lat="48.69506" lon="1.95912">
        <ele>173.45219421387</ele>
        <time>2016-09-22T11:10:49.000Z</time>
      </trkpt>
      <trkpt lat="48.69505" lon="1.95908">
        <ele>173.32205200195</ele>
        <time>2016-09-22T11:10:51.000Z</time>
      </trkpt>
      <trkpt lat="48.69503" lon="1.95904">
        <ele>173.2414855957</ele>
        <time>2016-09-22T11:10:53.000Z</time>
      </trkpt>
      <trkpt lat="48.69501" lon="1.95899">
        <ele>173.20007324219</ele>
        <time>2016-09-22T11:10:56.000Z</time>
      </trkpt>
      <trkpt lat="48.69499" lon="1.95895">
        <ele>173.2039642334</ele>
        <time>2016-09-22T11:10:58.000Z</time>
      </trkpt>
      <trkpt lat="48.69498" lon="1.95891">
        <ele>173.21574401855</ele>
        <time>2016-09-22T11:11:00.000Z</time>
      </trkpt>
      <trkpt lat="48.69496" lon="1.95885">
        <ele>173.23455810547</ele>
        <time>2016-09-22T11:11:03.000Z</time>
      </trkpt>
      <trkpt lat="48.69496" lon="1.95881">
        <ele>173.25866699219</ele>
        <time>2016-09-22T11:11:05.000Z</time>
      </trkpt>
      <trkpt lat="48.69494" lon="1.95876">
        <ele>173.27992248535</ele>
        <time>2016-09-22T11:11:08.000Z</time>
      </trkpt>
      <trkpt lat="48.69493" lon="1.95873">
        <ele>173.30851745605</ele>
        <time>2016-09-22T11:11:10.000Z</time>
      </trkpt>
      <trkpt lat="48.69492" lon="1.95867">
        <ele>173.34536743164</ele>
        <time>2016-09-22T11:11:13.000Z</time>
      </trkpt>
      <trkpt lat="48.69492" lon="1.95862">
        <ele>173.38458251953</ele>
        <time>2016-09-22T11:11:15.000Z</time>
      </trkpt>
      <trkpt lat="48.6949" lon="1.95857">
        <ele>173.42712402344</ele>
        <time>2016-09-22T11:11:18.000Z</time>
      </trkpt>
      <trkpt lat="48.69489" lon="1.95854">
        <ele>173.47207641602</ele>
        <time>2016-09-22T11:11:21.000Z</time>
      </trkpt>
      <trkpt lat="48.69489" lon="1.95851">
        <ele>173.51583862305</ele>
        <time>2016-09-22T11:11:23.000Z</time>
      </trkpt>
      <trkpt lat="48.69487" lon="1.95848">
        <ele>173.55038452148</ele>
        <time>2016-09-22T11:11:26.000Z</time>
      </trkpt>
      <trkpt lat="48.69485" lon="1.95845">
        <ele>173.5827331543</ele>
        <time>2016-09-22T11:11:28.000Z</time>
      </trkpt>
      <trkpt lat="48.69484" lon="1.95842">
        <ele>173.60983276367</ele>
        <time>2016-09-22T11:11:31.000Z</time>
      </trkpt>
      <trkpt lat="48.69482" lon="1.95839">
        <ele>173.63693237305</ele>
        <time>2016-09-22T11:11:33.000Z</time>
      </trkpt>
      <trkpt lat="48.69481" lon="1.95835">
        <ele>173.66534423828</ele>
        <time>2016-09-22T11:11:36.000Z</time>
      </trkpt>
      <trkpt lat="48.69478" lon="1.95831">
        <ele>173.69448852539</ele>
        <time>2016-09-22T11:11:39.000Z</time>
      </trkpt>
      <trkpt lat="48.69477" lon="1.95829">
        <ele>173.71867370605</ele>
        <time>2016-09-22T11:11:41.000Z</time>
      </trkpt>
      <trkpt lat="48.69476" lon="1.95827">
        <ele>173.73860168457</ele>
        <time>2016-09-22T11:11:43.000Z</time>
      </trkpt>
      <trkpt lat="48.69474" lon="1.95823">
        <ele>173.75872802734</ele>
        <time>2016-09-22T11:11:46.000Z</time>
      </trkpt>
      <trkpt lat="48.69472" lon="1.95819">
        <ele>173.77973937988</ele>
        <time>2016-09-22T11:11:49.000Z</time>
      </trkpt>
      <trkpt lat="48.69471" lon="1.95817">
        <ele>173.80308532715</ele>
        <time>2016-09-22T11:11:51.000Z</time>
      </trkpt>
      <trkpt lat="48.69471" lon="1.95815">
        <ele>173.83053588867</ele>
        <time>2016-09-22T11:11:53.000Z</time>
      </trkpt>
      <trkpt lat="48.69469" lon="1.95811">
        <ele>173.86996459961</ele>
        <time>2016-09-22T11:11:56.000Z</time>
      </trkpt>
      <trkpt lat="48.69468" lon="1.95808">
        <ele>173.91452026367</ele>
        <time>2016-09-22T11:11:59.000Z</time>
      </trkpt>
      <trkpt lat="48.69467" lon="1.95807">
        <ele>173.95707702637</ele>
        <time>2016-09-22T11:12:01.000Z</time>
      </trkpt>
      <trkpt lat="48.69465" lon="1.95804">
        <ele>174.00573730469</ele>
        <time>2016-09-22T11:12:03.000Z</time>
      </trkpt>
      <trkpt lat="48.69463" lon="1.95801">
        <ele>174.06887817383</ele>
        <time>2016-09-22T11:12:06.000Z</time>
      </trkpt>
      <trkpt lat="48.69461" lon="1.958">
        <ele>174.12596130371</ele>
        <time>2016-09-22T11:12:09.000Z</time>
      </trkpt>
      <trkpt lat="48.69459" lon="1.95797">
        <ele>174.19395446777</ele>
        <time>2016-09-22T11:12:11.000Z</time>
      </trkpt>
      <trkpt lat="48.69457" lon="1.95795">
        <ele>174.27529907227</ele>
        <time>2016-09-22T11:12:13.000Z</time>
      </trkpt>
      <trkpt lat="48.69454" lon="1.95788">
        <ele>174.39682006836</ele>
        <time>2016-09-22T11:12:16.000Z</time>
      </trkpt>
      <trkpt lat="48.69452" lon="1.95784">
        <ele>174.52725219727</ele>
        <time>2016-09-22T11:12:18.000Z</time>
      </trkpt>
      <trkpt lat="48.69451" lon="1.95781">
        <ele>174.67558288574</ele>
        <time>2016-09-22T11:12:20.000Z</time>
      </trkpt>
      <trkpt lat="48.6945" lon="1.95779">
        <ele>174.82551574707</ele>
        <time>2016-09-22T11:12:22.000Z</time>
      </trkpt>
      <trkpt lat="48.69447" lon="1.95771">
        <ele>175.02438354492</ele>
        <time>2016-09-22T11:12:28.000Z</time>
      </trkpt>
      <trkpt lat="48.69446" lon="1.95767">
        <ele>175.20983886719</ele>
        <time>2016-09-22T11:12:30.000Z</time>
      </trkpt>
      <trkpt lat="48.69443" lon="1.95759">
        <ele>175.45153808594</ele>
        <time>2016-09-22T11:12:33.000Z</time>
      </trkpt>
      <trkpt lat="48.69441" lon="1.95755">
        <ele>175.72229003906</ele>
        <time>2016-09-22T11:12:35.000Z</time>
      </trkpt>
      <trkpt lat="48.69439" lon="1.95752">
        <ele>176.01631164551</ele>
        <time>2016-09-22T11:12:38.000Z</time>
      </trkpt>
      <trkpt lat="48.69437" lon="1.95744">
        <ele>176.25633239746</ele>
        <time>2016-09-22T11:12:40.000Z</time>
      </trkpt>
      <trkpt lat="48.69435" lon="1.95743">
        <ele>176.47010803223</ele>
        <time>2016-09-22T11:13:00.000Z</time>
      </trkpt>
      <trkpt lat="48.69434" lon="1.95744">
        <ele>176.61820983887</ele>
        <time>2016-09-22T11:13:02.000Z</time>
      </trkpt>
      <trkpt lat="48.69432" lon="1.95746">
        <ele>176.74360656738</ele>
        <time>2016-09-22T11:13:05.000Z</time>
      </trkpt>
      <trkpt lat="48.6943" lon="1.95748">
        <ele>176.85656738281</ele>
        <time>2016-09-22T11:13:08.000Z</time>
      </trkpt>
      <trkpt lat="48.69429" lon="1.95747">
        <ele>176.96838378906</ele>
        <time>2016-09-22T11:13:10.000Z</time>
      </trkpt>
      <trkpt lat="48.69426" lon="1.95747">
        <ele>177.09545898438</ele>
        <time>2016-09-22T11:13:13.000Z</time>
      </trkpt>
      <trkpt lat="48.69425" lon="1.95747">
        <ele>177.22448730469</ele>
        <time>2016-09-22T11:13:15.000Z</time>
      </trkpt>
      <trkpt lat="48.69423" lon="1.95747">
        <ele>177.34234619141</ele>
        <time>2016-09-22T11:13:17.000Z</time>
      </trkpt>
      <trkpt lat="48.69421" lon="1.95748">
        <ele>177.45483398438</ele>
        <time>2016-09-22T11:13:19.000Z</time>
      </trkpt>
      <trkpt lat="48.69417" lon="1.95749">
        <ele>177.60266113281</ele>
        <time>2016-09-22T11:13:22.000Z</time>
      </trkpt>
      <trkpt lat="48.69415" lon="1.9575">
        <ele>177.74334716797</ele>
        <time>2016-09-22T11:13:24.000Z</time>
      </trkpt>
      <trkpt lat="48.6941" lon="1.95751">
        <ele>177.86776733398</ele>
        <time>2016-09-22T11:13:27.000Z</time>
      </trkpt>
      <trkpt lat="48.69408" lon="1.95751">
        <ele>177.98338317871</ele>
        <time>2016-09-22T11:13:29.000Z</time>
      </trkpt>
      <trkpt lat="48.69405" lon="1.95751">
        <ele>178.08760070801</ele>
        <time>2016-09-22T11:13:32.000Z</time>
      </trkpt>
      <trkpt lat="48.69404" lon="1.95751">
        <ele>178.14416503906</ele>
        <time>2016-09-22T11:13:34.000Z</time>
      </trkpt>
      <trkpt lat="48.69402" lon="1.95753">
        <ele>178.17276000977</ele>
        <time>2016-09-22T11:13:37.000Z</time>
      </trkpt>
      <trkpt lat="48.69399" lon="1.95755">
        <ele>178.18627929688</ele>
        <time>2016-09-22T11:13:39.000Z</time>
      </trkpt>
      <trkpt lat="48.69398" lon="1.95755">
        <ele>178.19204711914</ele>
        <time>2016-09-22T11:13:41.000Z</time>
      </trkpt>
      <trkpt lat="48.69396" lon="1.95756">
        <ele>178.18307495117</ele>
        <time>2016-09-22T11:13:44.000Z</time>
      </trkpt>
      <trkpt lat="48.69395" lon="1.95757">
        <ele>178.17604064941</ele>
        <time>2016-09-22T11:13:46.000Z</time>
      </trkpt>
      <trkpt lat="48.69394" lon="1.95758">
        <ele>178.16865539551</ele>
        <time>2016-09-22T11:13:48.000Z</time>
      </trkpt>
      <trkpt lat="48.69393" lon="1.9576">
        <ele>178.14988708496</ele>
        <time>2016-09-22T11:13:50.000Z</time>
      </trkpt>
      <trkpt lat="48.6939" lon="1.95765">
        <ele>178.09861755371</ele>
        <time>2016-09-22T11:13:53.000Z</time>
      </trkpt>
      <trkpt lat="48.69389" lon="1.95769">
        <ele>178.01831054688</ele>
        <time>2016-09-22T11:13:55.000Z</time>
      </trkpt>
      <trkpt lat="48.69388" lon="1.95773">
        <ele>177.89828491211</ele>
        <time>2016-09-22T11:13:57.000Z</time>
      </trkpt>
      <trkpt lat="48.69387" lon="1.95777">
        <ele>177.74880981445</ele>
        <time>2016-09-22T11:13:59.000Z</time>
      </trkpt>
      <trkpt lat="48.69387" lon="1.95779">
        <ele>177.60118103027</ele>
        <time>2016-09-22T11:14:02.000Z</time>
      </trkpt>
      <trkpt lat="48.69389" lon="1.95786">
        <ele>177.4137878418</ele>
        <time>2016-09-22T11:14:09.000Z</time>
      </trkpt>
      <trkpt lat="48.69388" lon="1.9579">
        <ele>177.21389770508</ele>
        <time>2016-09-22T11:14:15.000Z</time>
      </trkpt>
      <trkpt lat="48.69385" lon="1.95798">
        <ele>177.00503540039</ele>
        <time>2016-09-22T11:14:17.000Z</time>
      </trkpt>
      <trkpt lat="48.69383" lon="1.95804">
        <ele>176.79949951172</ele>
        <time>2016-09-22T11:14:22.000Z</time>
      </trkpt>
      <trkpt lat="48.69382" lon="1.95805">
        <ele>176.60375976562</ele>
        <time>2016-09-22T11:14:24.000Z</time>
      </trkpt>
      <trkpt lat="48.69381" lon="1.95811">
        <ele>176.42854309082</ele>
        <time>2016-09-22T11:14:27.000Z</time>
      </trkpt>
      <trkpt lat="48.69381" lon="1.95814">
        <ele>176.27206420898</ele>
        <time>2016-09-22T11:14:29.000Z</time>
      </trkpt>
      <trkpt lat="48.69379" lon="1.95822">
        <ele>176.10664367676</ele>
        <time>2016-09-22T11:14:32.000Z</time>
      </trkpt>
      <trkpt lat="48.69379" lon="1.95828">
        <ele>175.93142700195</ele>
        <time>2016-09-22T11:14:34.000Z</time>
      </trkpt>
      <trkpt lat="48.69379" lon="1.95832">
        <ele>175.7233581543</ele>
        <time>2016-09-22T11:14:36.000Z</time>
      </trkpt>
      <trkpt lat="48.69379" lon="1.95838">
        <ele>175.51550292969</ele>
        <time>2016-09-22T11:14:39.000Z</time>
      </trkpt>
      <trkpt lat="48.69381" lon="1.95846">
        <ele>175.23063659668</ele>
        <time>2016-09-22T11:14:50.000Z</time>
      </trkpt>
      <trkpt lat="48.69379" lon="1.95854">
        <ele>174.94677734375</ele>
        <time>2016-09-22T11:14:53.000Z</time>
      </trkpt>
      <trkpt lat="48.69376" lon="1.95864">
        <ele>174.63876342773</ele>
        <time>2016-09-22T11:14:56.000Z</time>
      </trkpt>
      <trkpt lat="48.69373" lon="1.95874">
        <ele>174.30085754395</ele>
        <time>2016-09-22T11:14:59.000Z</time>
      </trkpt>
      <trkpt lat="48.69371" lon="1.95879">
        <ele>173.98129272461</ele>
        <time>2016-09-22T11:15:01.000Z</time>
      </trkpt>
      <trkpt lat="48.69368" lon="1.95887">
        <ele>173.71255493164</ele>
        <time>2016-09-22T11:15:04.000Z</time>
      </trkpt>
      <trkpt lat="48.69365" lon="1.95892">
        <ele>173.46850585938</ele>
        <time>2016-09-22T11:15:06.000Z</time>
      </trkpt>
      <trkpt lat="48.69362" lon="1.959">
        <ele>173.24211120605</ele>
        <time>2016-09-22T11:15:09.000Z</time>
      </trkpt>
      <trkpt lat="48.69358" lon="1.95904">
        <ele>173.07563781738</ele>
        <time>2016-09-22T11:15:12.000Z</time>
      </trkpt>
      <trkpt lat="48.69357" lon="1.95906">
        <ele>172.93368530273</ele>
        <time>2016-09-22T11:15:14.000Z</time>
      </trkpt>
      <trkpt lat="48.69354" lon="1.95906">
        <ele>172.84971618652</ele>
        <time>2016-09-22T11:15:17.000Z</time>
      </trkpt>
      <trkpt lat="48.69352" lon="1.95906">
        <ele>172.82246398926</ele>
        <time>2016-09-22T11:15:19.000Z</time>
      </trkpt>
      <trkpt lat="48.69348" lon="1.95906">
        <ele>172.86712646484</ele>
        <time>2016-09-22T11:15:22.000Z</time>
      </trkpt>
      <trkpt lat="48.69346" lon="1.95907">
        <ele>172.93637084961</ele>
        <time>2016-09-22T11:15:24.000Z</time>
      </trkpt>
      <trkpt lat="48.69344" lon="1.95908">
        <ele>173.00143432617</ele>
        <time>2016-09-22T11:15:26.000Z</time>
      </trkpt>
      <trkpt lat="48.6934" lon="1.95912">
        <ele>173.05000305176</ele>
        <time>2016-09-22T11:15:29.000Z</time>
      </trkpt>
      <trkpt lat="48.69336" lon="1.95912">
        <ele>173.09481811523</ele>
        <time>2016-09-22T11:15:32.000Z</time>
      </trkpt>
      <trkpt lat="48.69333" lon="1.95912">
        <ele>173.13813781738</ele>
        <time>2016-09-22T11:15:34.000Z</time>
      </trkpt>
      <trkpt lat="48.69331" lon="1.95913">
        <ele>173.17367553711</ele>
        <time>2016-09-22T11:15:36.000Z</time>
      </trkpt>
      <trkpt lat="48.69326" lon="1.95913">
        <ele>173.23181152344</ele>
        <time>2016-09-22T11:15:39.000Z</time>
      </trkpt>
      <trkpt lat="48.69322" lon="1.95915">
        <ele>173.29815673828</ele>
        <time>2016-09-22T11:15:42.000Z</time>
      </trkpt>
      <trkpt lat="48.69317" lon="1.95918">
        <ele>173.31674194336</ele>
        <time>2016-09-22T11:15:45.000Z</time>
      </trkpt>
      <trkpt lat="48.69313" lon="1.95921">
        <ele>173.29072570801</ele>
        <time>2016-09-22T11:15:48.000Z</time>
      </trkpt>
      <trkpt lat="48.6931" lon="1.95924">
        <ele>173.22543334961</ele>
        <time>2016-09-22T11:15:51.000Z</time>
      </trkpt>
      <trkpt lat="48.69306" lon="1.95925">
        <ele>173.14924621582</ele>
        <time>2016-09-22T11:15:54.000Z</time>
      </trkpt>
      <trkpt lat="48.69305" lon="1.95925">
        <ele>173.08619689941</ele>
        <time>2016-09-22T11:15:56.000Z</time>
      </trkpt>
      <trkpt lat="48.69303" lon="1.95922">
        <ele>173.0980682373</ele>
        <time>2016-09-22T11:15:59.000Z</time>
      </trkpt>
      <trkpt lat="48.693" lon="1.95921">
        <ele>173.16932678223</ele>
        <time>2016-09-22T11:16:02.000Z</time>
      </trkpt>
      <trkpt lat="48.69297" lon="1.95922">
        <ele>173.27787780762</ele>
        <time>2016-09-22T11:16:05.000Z</time>
      </trkpt>
      <trkpt lat="48.69295" lon="1.95922">
        <ele>173.38571166992</ele>
        <time>2016-09-22T11:16:07.000Z</time>
      </trkpt>
      <trkpt lat="48.69292" lon="1.95924">
        <ele>173.47232055664</ele>
        <time>2016-09-22T11:16:09.000Z</time>
      </trkpt>
      <trkpt lat="48.6929" lon="1.95926">
        <ele>173.49365234375</ele>
        <time>2016-09-22T11:16:11.000Z</time>
      </trkpt>
      <trkpt lat="48.69288" lon="1.95927">
        <ele>173.48303222656</ele>
        <time>2016-09-22T11:16:13.000Z</time>
      </trkpt>
      <trkpt lat="48.69284" lon="1.95925">
        <ele>173.51315307617</ele>
        <time>2016-09-22T11:16:16.000Z</time>
      </trkpt>
      <trkpt lat="48.69281" lon="1.95925">
        <ele>173.55841064453</ele>
        <time>2016-09-22T11:16:18.000Z</time>
      </trkpt>
      <trkpt lat="48.69278" lon="1.95925">
        <ele>173.62504577637</ele>
        <time>2016-09-22T11:16:21.000Z</time>
      </trkpt>
      <trkpt lat="48.69275" lon="1.95928">
        <ele>173.69943237305</ele>
        <time>2016-09-22T11:16:24.000Z</time>
      </trkpt>
      <trkpt lat="48.69271" lon="1.95931">
        <ele>173.75434875488</ele>
        <time>2016-09-22T11:16:27.000Z</time>
      </trkpt>
      <trkpt lat="48.69269" lon="1.95935">
        <ele>173.74819946289</ele>
        <time>2016-09-22T11:16:29.000Z</time>
      </trkpt>
      <trkpt lat="48.69268" lon="1.95935">
        <ele>173.73559570312</ele>
        <time>2016-09-22T11:16:31.000Z</time>
      </trkpt>
      <trkpt lat="48.69263" lon="1.95935">
        <ele>173.73280334473</ele>
        <time>2016-09-22T11:16:34.000Z</time>
      </trkpt>
      <trkpt lat="48.69258" lon="1.95937">
        <ele>173.76286315918</ele>
        <time>2016-09-22T11:16:37.000Z</time>
      </trkpt>
      <trkpt lat="48.69255" lon="1.95937">
        <ele>173.83145141602</ele>
        <time>2016-09-22T11:16:40.000Z</time>
      </trkpt>
      <trkpt lat="48.69254" lon="1.95937">
        <ele>173.92805480957</ele>
        <time>2016-09-22T11:16:42.000Z</time>
      </trkpt>
      <trkpt lat="48.69252" lon="1.95936">
        <ele>174.03324890137</ele>
        <time>2016-09-22T11:16:44.000Z</time>
      </trkpt>
      <trkpt lat="48.69249" lon="1.95937">
        <ele>174.1286315918</ele>
        <time>2016-09-22T11:16:47.000Z</time>
      </trkpt>
      <trkpt lat="48.69247" lon="1.95937">
        <ele>174.22030639648</ele>
        <time>2016-09-22T11:16:50.000Z</time>
      </trkpt>
      <trkpt lat="48.69246" lon="1.95938">
        <ele>174.30009460449</ele>
        <time>2016-09-22T11:16:52.000Z</time>
      </trkpt>
      <trkpt lat="48.69241" lon="1.95942">
        <ele>174.38331604004</ele>
        <time>2016-09-22T11:16:55.000Z</time>
      </trkpt>
      <trkpt lat="48.69239" lon="1.95942">
        <ele>174.46908569336</ele>
        <time>2016-09-22T11:16:57.000Z</time>
      </trkpt>
      <trkpt lat="48.69238" lon="1.95941">
        <ele>174.56213378906</ele>
        <time>2016-09-22T11:17:00.000Z</time>
      </trkpt>
      <trkpt lat="48.69236" lon="1.9594">
        <ele>174.65878295898</ele>
        <time>2016-09-22T11:17:03.000Z</time>
      </trkpt>
      <trkpt lat="48.69234" lon="1.9594">
        <ele>174.76118469238</ele>
        <time>2016-09-22T11:17:05.000Z</time>
      </trkpt>
      <trkpt lat="48.69231" lon="1.95942">
        <ele>174.86686706543</ele>
        <time>2016-09-22T11:17:08.000Z</time>
      </trkpt>
      <trkpt lat="48.69229" lon="1.95944">
        <ele>174.96356201172</ele>
        <time>2016-09-22T11:17:11.000Z</time>
      </trkpt>
      <trkpt lat="48.69225" lon="1.95944">
        <ele>175.07379150391</ele>
        <time>2016-09-22T11:17:24.000Z</time>
      </trkpt>
      <trkpt lat="48.69224" lon="1.95945">
        <ele>175.1612701416</ele>
        <time>2016-09-22T11:17:31.000Z</time>
      </trkpt>
      <trkpt lat="48.69219" lon="1.95947">
        <ele>175.27169799805</ele>
        <time>2016-09-22T11:17:34.000Z</time>
      </trkpt>
      <trkpt lat="48.69217" lon="1.95948">
        <ele>175.38024902344</ele>
        <time>2016-09-22T11:17:36.000Z</time>
      </trkpt>
      <trkpt lat="48.69214" lon="1.95951">
        <ele>175.4888458252</ele>
        <time>2016-09-22T11:17:39.000Z</time>
      </trkpt>
      <trkpt lat="48.69213" lon="1.95952">
        <ele>175.56237792969</ele>
        <time>2016-09-22T11:17:41.000Z</time>
      </trkpt>
      <trkpt lat="48.69212" lon="1.95953">
        <ele>175.63996887207</ele>
        <time>2016-09-22T11:17:43.000Z</time>
      </trkpt>
      <trkpt lat="48.69211" lon="1.95954">
        <ele>175.6872253418</ele>
        <time>2016-09-22T11:17:46.000Z</time>
      </trkpt>
      <trkpt lat="48.6921" lon="1.95952">
        <ele>175.74060058594</ele>
        <time>2016-09-22T11:17:56.000Z</time>
      </trkpt>
      <trkpt lat="48.69208" lon="1.95948">
        <ele>175.82186889648</ele>
        <time>2016-09-22T11:17:59.000Z</time>
      </trkpt>
      <trkpt lat="48.69208" lon="1.95945">
        <ele>175.92070007324</ele>
        <time>2016-09-22T11:18:01.000Z</time>
      </trkpt>
      <trkpt lat="48.69206" lon="1.95945">
        <ele>176.02835083008</ele>
        <time>2016-09-22T11:18:04.000Z</time>
      </trkpt>
      <trkpt lat="48.69203" lon="1.95949">
        <ele>176.13447570801</ele>
        <time>2016-09-22T11:18:07.000Z</time>
      </trkpt>
      <trkpt lat="48.69202" lon="1.9595">
        <ele>176.2211151123</ele>
        <time>2016-09-22T11:18:10.000Z</time>
      </trkpt>
      <trkpt lat="48.69202" lon="1.9595">
        <ele>176.2211151123</ele>
        <time>2016-09-22T11:18:30.000Z</time>
      </trkpt>
      <trkpt lat="48.69201" lon="1.95956">
        <ele>176.24792480469</ele>
        <time>2016-09-22T11:18:44.000Z</time>
      </trkpt>
      <trkpt lat="48.69201" lon="1.95956">
        <ele>176.24792480469</ele>
        <time>2016-09-22T11:19:04.000Z</time>
      </trkpt>
      <trkpt lat="48.69199" lon="1.95955">
        <ele>176.28405761719</ele>
        <time>2016-09-22T11:19:18.000Z</time>
      </trkpt>
      <trkpt lat="48.69198" lon="1.95955">
        <ele>176.31094360352</ele>
        <time>2016-09-22T11:19:20.000Z</time>
      </trkpt>
      <trkpt lat="48.69198" lon="1.95955">
        <ele>176.31094360352</ele>
        <time>2016-09-22T11:19:40.000Z</time>
      </trkpt>
      <trkpt lat="48.692" lon="1.9595">
        <ele>176.34323120117</ele>
        <time>2016-09-22T11:22:37.000Z</time>
      </trkpt>
      <trkpt lat="48.69201" lon="1.9595">
        <ele>176.36329650879</ele>
        <time>2016-09-22T11:22:40.000Z</time>
      </trkpt>
      <trkpt lat="48.69202" lon="1.9595">
        <ele>176.38235473633</ele>
        <time>2016-09-22T11:22:43.000Z</time>
      </trkpt>
      <trkpt lat="48.69204" lon="1.95949">
        <ele>176.35723876953</ele>
        <time>2016-09-22T11:22:45.000Z</time>
      </trkpt>
      <trkpt lat="48.69206" lon="1.95947">
        <ele>176.3194732666</ele>
        <time>2016-09-22T11:22:48.000Z</time>
      </trkpt>
      <trkpt lat="48.69207" lon="1.95946">
        <ele>176.2607421875</ele>
        <time>2016-09-22T11:22:50.000Z</time>
      </trkpt>
      <trkpt lat="48.69209" lon="1.95944">
        <ele>176.20379638672</ele>
        <time>2016-09-22T11:22:54.000Z</time>
      </trkpt>
      <trkpt lat="48.6921" lon="1.95943">
        <ele>176.15914916992</ele>
        <time>2016-09-22T11:22:56.000Z</time>
      </trkpt>
      <trkpt lat="48.69212" lon="1.95942">
        <ele>176.12466430664</ele>
        <time>2016-09-22T11:22:58.000Z</time>
      </trkpt>
      <trkpt lat="48.69213" lon="1.95939">
        <ele>176.1032409668</ele>
        <time>2016-09-22T11:23:01.000Z</time>
      </trkpt>
      <trkpt lat="48.69213" lon="1.95936">
        <ele>176.10237121582</ele>
        <time>2016-09-22T11:23:03.000Z</time>
      </trkpt>
      <trkpt lat="48.69214" lon="1.95932">
        <ele>176.12420654297</ele>
        <time>2016-09-22T11:23:06.000Z</time>
      </trkpt>
      <trkpt lat="48.69216" lon="1.95928">
        <ele>176.16407775879</ele>
        <time>2016-09-22T11:23:09.000Z</time>
      </trkpt>
      <trkpt lat="48.69217" lon="1.95924">
        <ele>176.22448730469</ele>
        <time>2016-09-22T11:23:11.000Z</time>
      </trkpt>
      <trkpt lat="48.69216" lon="1.95918">
        <ele>176.32022094727</ele>
        <time>2016-09-22T11:23:14.000Z</time>
      </trkpt>
      <trkpt lat="48.69217" lon="1.95914">
        <ele>176.41989135742</ele>
        <time>2016-09-22T11:23:17.000Z</time>
      </trkpt>
      <trkpt lat="48.69217" lon="1.9591">
        <ele>176.5132598877</ele>
        <time>2016-09-22T11:23:19.000Z</time>
      </trkpt>
      <trkpt lat="48.6922" lon="1.95907">
        <ele>176.58779907227</ele>
        <time>2016-09-22T11:23:22.000Z</time>
      </trkpt>
      <trkpt lat="48.69221" lon="1.95901">
        <ele>176.65544128418</ele>
        <time>2016-09-22T11:23:25.000Z</time>
      </trkpt>
      <trkpt lat="48.69221" lon="1.95897">
        <ele>176.69526672363</ele>
        <time>2016-09-22T11:23:28.000Z</time>
      </trkpt>
      <trkpt lat="48.69222" lon="1.95894">
        <ele>176.72428894043</ele>
        <time>2016-09-22T11:23:30.000Z</time>
      </trkpt>
      <trkpt lat="48.69222" lon="1.95891">
        <ele>176.75267028809</ele>
        <time>2016-09-22T11:23:32.000Z</time>
      </trkpt>
      <trkpt lat="48.69223" lon="1.95885">
        <ele>176.81143188477</ele>
        <time>2016-09-22T11:23:35.000Z</time>
      </trkpt>
      <trkpt lat="48.69221" lon="1.95881">
        <ele>176.88674926758</ele>
        <time>2016-09-22T11:23:37.000Z</time>
      </trkpt>
      <trkpt lat="48.69221" lon="1.95876">
        <ele>176.96792602539</ele>
        <time>2016-09-22T11:23:40.000Z</time>
      </trkpt>
      <trkpt lat="48.69222" lon="1.95872">
        <ele>177.0559387207</ele>
        <time>2016-09-22T11:23:42.000Z</time>
      </trkpt>
      <trkpt lat="48.69223" lon="1.95865">
        <ele>177.15498352051</ele>
        <time>2016-09-22T11:23:45.000Z</time>
      </trkpt>
      <trkpt lat="48.69223" lon="1.95857">
        <ele>177.26347351074</ele>
        <time>2016-09-22T11:23:48.000Z</time>
      </trkpt>
      <trkpt lat="48.69223" lon="1.95852">
        <ele>177.36769104004</ele>
        <time>2016-09-22T11:23:50.000Z</time>
      </trkpt>
      <trkpt lat="48.69223" lon="1.95848">
        <ele>177.46769714355</ele>
        <time>2016-09-22T11:23:52.000Z</time>
      </trkpt>
      <trkpt lat="48.69223" lon="1.95843">
        <ele>177.57766723633</ele>
        <time>2016-09-22T11:23:55.000Z</time>
      </trkpt>
      <trkpt lat="48.69223" lon="1.95839">
        <ele>177.68479919434</ele>
        <time>2016-09-22T11:23:58.000Z</time>
      </trkpt>
      <trkpt lat="48.69224" lon="1.95835">
        <ele>177.76846313477</ele>
        <time>2016-09-22T11:24:01.000Z</time>
      </trkpt>
      <trkpt lat="48.69225" lon="1.95832">
        <ele>177.83763122559</ele>
        <time>2016-09-22T11:24:03.000Z</time>
      </trkpt>
      <trkpt lat="48.69227" lon="1.95827">
        <ele>177.90072631836</ele>
        <time>2016-09-22T11:24:06.000Z</time>
      </trkpt>
      <trkpt lat="48.69228" lon="1.95824">
        <ele>177.94857788086</ele>
        <time>2016-09-22T11:24:08.000Z</time>
      </trkpt>
      <trkpt lat="48.6923" lon="1.95819">
        <ele>178.00267028809</ele>
        <time>2016-09-22T11:24:11.000Z</time>
      </trkpt>
      <trkpt lat="48.69229" lon="1.95812">
        <ele>178.08711242676</ele>
        <time>2016-09-22T11:24:14.000Z</time>
      </trkpt>
      <trkpt lat="48.69229" lon="1.95806">
        <ele>178.19729614258</ele>
        <time>2016-09-22T11:24:17.000Z</time>
      </trkpt>
      <trkpt lat="48.69229" lon="1.95802">
        <ele>178.31857299805</ele>
        <time>2016-09-22T11:24:19.000Z</time>
      </trkpt>
      <trkpt lat="48.69231" lon="1.95798">
        <ele>178.44064331055</ele>
        <time>2016-09-22T11:24:22.000Z</time>
      </trkpt>
      <trkpt lat="48.69232" lon="1.95795">
        <ele>178.54208374023</ele>
        <time>2016-09-22T11:24:24.000Z</time>
      </trkpt>
      <trkpt lat="48.69234" lon="1.9579">
        <ele>178.62071228027</ele>
        <time>2016-09-22T11:24:27.000Z</time>
      </trkpt>
      <trkpt lat="48.69234" lon="1.95787">
        <ele>178.6803894043</ele>
        <time>2016-09-22T11:24:29.000Z</time>
      </trkpt>
      <trkpt lat="48.69233" lon="1.95785">
        <ele>178.74072265625</ele>
        <time>2016-09-22T11:24:42.000Z</time>
      </trkpt>
      <trkpt lat="48.69233" lon="1.95786">
        <ele>178.78866577148</ele>
        <time>2016-09-22T11:24:45.000Z</time>
      </trkpt>
      <trkpt lat="48.69233" lon="1.9579">
        <ele>178.81684875488</ele>
        <time>2016-09-22T11:24:57.000Z</time>
      </trkpt>
      <trkpt lat="48.69232" lon="1.95791">
        <ele>178.82914733887</ele>
        <time>2016-09-22T11:25:00.000Z</time>
      </trkpt>
      <trkpt lat="48.6923" lon="1.95795">
        <ele>178.82438659668</ele>
        <time>2016-09-22T11:25:11.000Z</time>
      </trkpt>
      <trkpt lat="48.6923" lon="1.95798">
        <ele>178.7855682373</ele>
        <time>2016-09-22T11:25:13.000Z</time>
      </trkpt>
      <trkpt lat="48.6923" lon="1.95803">
        <ele>178.7243347168</ele>
        <time>2016-09-22T11:25:16.000Z</time>
      </trkpt>
      <trkpt lat="48.69229" lon="1.95808">
        <ele>178.65432739258</ele>
        <time>2016-09-22T11:25:19.000Z</time>
      </trkpt>
      <trkpt lat="48.6923" lon="1.95814">
        <ele>178.55325317383</ele>
        <time>2016-09-22T11:25:22.000Z</time>
      </trkpt>
      <trkpt lat="48.6923" lon="1.95818">
        <ele>178.42527770996</ele>
        <time>2016-09-22T11:25:25.000Z</time>
      </trkpt>
      <trkpt lat="48.69231" lon="1.95822">
        <ele>178.28463745117</ele>
        <time>2016-09-22T11:25:27.000Z</time>
      </trkpt>
      <trkpt lat="48.6923" lon="1.95827">
        <ele>178.14730834961</ele>
        <time>2016-09-22T11:25:30.000Z</time>
      </trkpt>
      <trkpt lat="48.6923" lon="1.95833">
        <ele>178.01264953613</ele>
        <time>2016-09-22T11:25:33.000Z</time>
      </trkpt>
      <trkpt lat="48.69228" lon="1.95837">
        <ele>177.89695739746</ele>
        <time>2016-09-22T11:25:36.000Z</time>
      </trkpt>
      <trkpt lat="48.69228" lon="1.95839">
        <ele>177.8080291748</ele>
        <time>2016-09-22T11:25:38.000Z</time>
      </trkpt>
      <trkpt lat="48.69227" lon="1.95846">
        <ele>177.72218322754</ele>
        <time>2016-09-22T11:25:41.000Z</time>
      </trkpt>
      <trkpt lat="48.69227" lon="1.95848">
        <ele>177.64952087402</ele>
        <time>2016-09-22T11:25:43.000Z</time>
      </trkpt>
      <trkpt lat="48.69226" lon="1.95851">
        <ele>177.59646606445</ele>
        <time>2016-09-22T11:25:45.000Z</time>
      </trkpt>
      <trkpt lat="48.69225" lon="1.95854">
        <ele>177.54820251465</ele>
        <time>2016-09-22T11:25:48.000Z</time>
      </trkpt>
      <trkpt lat="48.69225" lon="1.95859">
        <ele>177.49290466309</ele>
        <time>2016-09-22T11:25:51.000Z</time>
      </trkpt>
      <trkpt lat="48.69224" lon="1.95864">
        <ele>177.4447479248</ele>
        <time>2016-09-22T11:25:54.000Z</time>
      </trkpt>
      <trkpt lat="48.69223" lon="1.95867">
        <ele>177.39497375488</ele>
        <time>2016-09-22T11:25:56.000Z</time>
      </trkpt>
      <trkpt lat="48.69223" lon="1.95871">
        <ele>177.34016418457</ele>
        <time>2016-09-22T11:25:58.000Z</time>
      </trkpt>
      <trkpt lat="48.69221" lon="1.95877">
        <ele>177.28329467773</ele>
        <time>2016-09-22T11:26:01.000Z</time>
      </trkpt>
      <trkpt lat="48.6922" lon="1.95881">
        <ele>177.22743225098</ele>
        <time>2016-09-22T11:26:04.000Z</time>
      </trkpt>
      <trkpt lat="48.6922" lon="1.95888">
        <ele>177.16313171387</ele>
        <time>2016-09-22T11:26:07.000Z</time>
      </trkpt>
      <trkpt lat="48.6922" lon="1.95892">
        <ele>177.09353637695</ele>
        <time>2016-09-22T11:26:09.000Z</time>
      </trkpt>
      <trkpt lat="48.6922" lon="1.95898">
        <ele>177.01377868652</ele>
        <time>2016-09-22T11:26:12.000Z</time>
      </trkpt>
      <trkpt lat="48.69219" lon="1.95901">
        <ele>176.93518066406</ele>
        <time>2016-09-22T11:26:14.000Z</time>
      </trkpt>
      <trkpt lat="48.69218" lon="1.95909">
        <ele>176.84805297852</ele>
        <time>2016-09-22T11:26:17.000Z</time>
      </trkpt>
      <trkpt lat="48.69218" lon="1.95914">
        <ele>176.76773071289</ele>
        <time>2016-09-22T11:26:19.000Z</time>
      </trkpt>
      <trkpt lat="48.69217" lon="1.95921">
        <ele>176.66944885254</ele>
        <time>2016-09-22T11:26:22.000Z</time>
      </trkpt>
      <trkpt lat="48.69217" lon="1.95927">
        <ele>176.55191040039</ele>
        <time>2016-09-22T11:26:25.000Z</time>
      </trkpt>
      <trkpt lat="48.69217" lon="1.95932">
        <ele>176.41482543945</ele>
        <time>2016-09-22T11:26:28.000Z</time>
      </trkpt>
      <trkpt lat="48.69217" lon="1.95935">
        <ele>176.27944946289</ele>
        <time>2016-09-22T11:26:30.000Z</time>
      </trkpt>
      <trkpt lat="48.69215" lon="1.9594">
        <ele>176.14218139648</ele>
        <time>2016-09-22T11:26:33.000Z</time>
      </trkpt>
      <trkpt lat="48.69214" lon="1.95944">
        <ele>176.03186035156</ele>
        <time>2016-09-22T11:26:35.000Z</time>
      </trkpt>
      <trkpt lat="48.69214" lon="1.95944">
        <ele>176.03186035156</ele>
        <time>2016-09-22T11:26:55.000Z</time>
      </trkpt>
      <trkpt lat="48.69215" lon="1.95947">
        <ele>175.93789672852</ele>
        <time>2016-09-22T11:27:16.000Z</time>
      </trkpt>
      <trkpt lat="48.69214" lon="1.95945">
        <ele>175.88638305664</ele>
        <time>2016-09-22T11:27:19.000Z</time>
      </trkpt>
      <trkpt lat="48.69214" lon="1.95945">
        <ele>175.88638305664</ele>
        <time>2016-09-22T11:27:39.000Z</time>
      </trkpt>
      <trkpt lat="48.69217" lon="1.95951">
        <ele>175.78805541992</ele>
        <time>2016-09-22T11:27:44.000Z</time>
      </trkpt>
      <trkpt lat="48.69217" lon="1.95951">
        <ele>175.78805541992</ele>
        <time>2016-09-22T11:28:04.000Z</time>
      </trkpt>
      <trkpt lat="48.69216" lon="1.95952">
        <ele>175.70924377441</ele>
        <time>2016-09-22T11:28:19.000Z</time>
      </trkpt>
      <trkpt lat="48.69215" lon="1.95956">
        <ele>175.6282043457</ele>
        <time>2016-09-22T11:28:24.000Z</time>
      </trkpt>
      <trkpt lat="48.69213" lon="1.95958">
        <ele>175.58143615723</ele>
        <time>2016-09-22T11:28:26.000Z</time>
      </trkpt>
      <trkpt lat="48.6921" lon="1.95959">
        <ele>175.53721618652</ele>
        <time>2016-09-22T11:28:28.000Z</time>
      </trkpt>
      <trkpt lat="48.69207" lon="1.9596">
        <ele>175.58609008789</ele>
        <time>2016-09-22T11:28:30.000Z</time>
      </trkpt>
      <trkpt lat="48.69204" lon="1.95961">
        <ele>175.65438842773</ele>
        <time>2016-09-22T11:28:32.000Z</time>
      </trkpt>
      <trkpt lat="48.692" lon="1.95965">
        <ele>175.76435852051</ele>
        <time>2016-09-22T11:28:35.000Z</time>
      </trkpt>
      <trkpt lat="48.69196" lon="1.9597">
        <ele>175.88079833984</ele>
        <time>2016-09-22T11:28:38.000Z</time>
      </trkpt>
      <trkpt lat="48.69193" lon="1.95974">
        <ele>175.99105834961</ele>
        <time>2016-09-22T11:28:41.000Z</time>
      </trkpt>
      <trkpt lat="48.69191" lon="1.95976">
        <ele>176.07681274414</ele>
        <time>2016-09-22T11:28:43.000Z</time>
      </trkpt>
      <trkpt lat="48.69189" lon="1.95978">
        <ele>176.15596008301</ele>
        <time>2016-09-22T11:28:46.000Z</time>
      </trkpt>
      <trkpt lat="48.69186" lon="1.9598">
        <ele>176.22210693359</ele>
        <time>2016-09-22T11:28:49.000Z</time>
      </trkpt>
      <trkpt lat="48.69185" lon="1.95982">
        <ele>176.27029418945</ele>
        <time>2016-09-22T11:28:52.000Z</time>
      </trkpt>
      <trkpt lat="48.69181" lon="1.95985">
        <ele>176.34796142578</ele>
        <time>2016-09-22T11:29:05.000Z</time>
      </trkpt>
      <trkpt lat="48.69176" lon="1.95987">
        <ele>176.46743774414</ele>
        <time>2016-09-22T11:29:08.000Z</time>
      </trkpt>
      <trkpt lat="48.69171" lon="1.95992">
        <ele>176.60040283203</ele>
        <time>2016-09-22T11:29:11.000Z</time>
      </trkpt>
      <trkpt lat="48.69167" lon="1.95996">
        <ele>176.74920654297</ele>
        <time>2016-09-22T11:29:14.000Z</time>
      </trkpt>
      <trkpt lat="48.69163" lon="1.95999">
        <ele>176.91885375977</ele>
        <time>2016-09-22T11:29:16.000Z</time>
      </trkpt>
      <trkpt lat="48.69157" lon="1.96003">
        <ele>177.08267211914</ele>
        <time>2016-09-22T11:29:19.000Z</time>
      </trkpt>
      <trkpt lat="48.69154" lon="1.96006">
        <ele>177.21166992188</ele>
        <time>2016-09-22T11:29:21.000Z</time>
      </trkpt>
      <trkpt lat="48.69151" lon="1.96009">
        <ele>177.32873535156</ele>
        <time>2016-09-22T11:29:23.000Z</time>
      </trkpt>
      <trkpt lat="48.69147" lon="1.96014">
        <ele>177.41162109375</ele>
        <time>2016-09-22T11:29:25.000Z</time>
      </trkpt>
      <trkpt lat="48.69145" lon="1.96018">
        <ele>177.47221374512</ele>
        <time>2016-09-22T11:29:28.000Z</time>
      </trkpt>
      <trkpt lat="48.69143" lon="1.9602">
        <ele>177.50183105469</ele>
        <time>2016-09-22T11:29:30.000Z</time>
      </trkpt>
      <trkpt lat="48.69141" lon="1.96023">
        <ele>177.51547241211</ele>
        <time>2016-09-22T11:29:33.000Z</time>
      </trkpt>
      <trkpt lat="48.69141" lon="1.96024">
        <ele>177.50422668457</ele>
        <time>2016-09-22T11:29:38.000Z</time>
      </trkpt>
      <trkpt lat="48.69139" lon="1.96024">
        <ele>177.5103302002</ele>
        <time>2016-09-22T11:29:40.000Z</time>
      </trkpt>
      <trkpt lat="48.69135" lon="1.96025">
        <ele>177.54824829102</ele>
        <time>2016-09-22T11:29:57.000Z</time>
      </trkpt>
      <trkpt lat="48.69131" lon="1.96029">
        <ele>177.58340454102</ele>
        <time>2016-09-22T11:30:00.000Z</time>
      </trkpt>
      <trkpt lat="48.6913" lon="1.96031">
        <ele>177.62480163574</ele>
        <time>2016-09-22T11:30:02.000Z</time>
      </trkpt>
      <trkpt lat="48.69125" lon="1.96036">
        <ele>177.67149353027</ele>
        <time>2016-09-22T11:30:05.000Z</time>
      </trkpt>
      <trkpt lat="48.69123" lon="1.96038">
        <ele>177.70059204102</ele>
        <time>2016-09-22T11:30:07.000Z</time>
      </trkpt>
      <trkpt lat="48.69121" lon="1.96041">
        <ele>177.69830322266</ele>
        <time>2016-09-22T11:30:10.000Z</time>
      </trkpt>
      <trkpt lat="48.69119" lon="1.96042">
        <ele>177.69845581055</ele>
        <time>2016-09-22T11:30:12.000Z</time>
      </trkpt>
      <trkpt lat="48.69117" lon="1.96043">
        <ele>177.70112609863</ele>
        <time>2016-09-22T11:30:14.000Z</time>
      </trkpt>
      <trkpt lat="48.69114" lon="1.96044">
        <ele>177.72122192383</ele>
        <time>2016-09-22T11:30:17.000Z</time>
      </trkpt>
      <trkpt lat="48.69112" lon="1.96046">
        <ele>177.74406433105</ele>
        <time>2016-09-22T11:30:20.000Z</time>
      </trkpt>
      <trkpt lat="48.69109" lon="1.96047">
        <ele>177.77607727051</ele>
        <time>2016-09-22T11:30:22.000Z</time>
      </trkpt>
      <trkpt lat="48.69107" lon="1.96049">
        <ele>177.80520629883</ele>
        <time>2016-09-22T11:30:24.000Z</time>
      </trkpt>
      <trkpt lat="48.69105" lon="1.96051">
        <ele>177.82815551758</ele>
        <time>2016-09-22T11:30:26.000Z</time>
      </trkpt>
      <trkpt lat="48.69102" lon="1.96054">
        <ele>177.83625793457</ele>
        <time>2016-09-22T11:30:29.000Z</time>
      </trkpt>
      <trkpt lat="48.69098" lon="1.96056">
        <ele>177.83734130859</ele>
        <time>2016-09-22T11:30:32.000Z</time>
      </trkpt>
      <trkpt lat="48.69095" lon="1.96058">
        <ele>177.83390808105</ele>
        <time>2016-09-22T11:30:35.000Z</time>
      </trkpt>
      <trkpt lat="48.69092" lon="1.96063">
        <ele>177.8134765625</ele>
        <time>2016-09-22T11:30:38.000Z</time>
      </trkpt>
      <trkpt lat="48.69091" lon="1.96064">
        <ele>177.7900390625</ele>
        <time>2016-09-22T11:30:41.000Z</time>
      </trkpt>
      <trkpt lat="48.69089" lon="1.96067">
        <ele>177.75096130371</ele>
        <time>2016-09-22T11:30:44.000Z</time>
      </trkpt>
      <trkpt lat="48.69085" lon="1.9607">
        <ele>177.70367431641</ele>
        <time>2016-09-22T11:30:47.000Z</time>
      </trkpt>
      <trkpt lat="48.69081" lon="1.96073">
        <ele>177.6213684082</ele>
        <time>2016-09-22T11:30:50.000Z</time>
      </trkpt>
      <trkpt lat="48.6908" lon="1.96075">
        <ele>177.52507019043</ele>
        <time>2016-09-22T11:30:52.000Z</time>
      </trkpt>
      <trkpt lat="48.69077" lon="1.96078">
        <ele>177.38412475586</ele>
        <time>2016-09-22T11:30:55.000Z</time>
      </trkpt>
      <trkpt lat="48.69074" lon="1.96081">
        <ele>177.21545410156</ele>
        <time>2016-09-22T11:30:57.000Z</time>
      </trkpt>
      <trkpt lat="48.69071" lon="1.96083">
        <ele>177.01161193848</ele>
        <time>2016-09-22T11:30:59.000Z</time>
      </trkpt>
      <trkpt lat="48.69066" lon="1.96089">
        <ele>176.7342376709</ele>
        <time>2016-09-22T11:31:02.000Z</time>
      </trkpt>
      <trkpt lat="48.6906" lon="1.96095">
        <ele>176.36026000977</ele>
        <time>2016-09-22T11:31:05.000Z</time>
      </trkpt>
      <trkpt lat="48.69057" lon="1.96098">
        <ele>175.98207092285</ele>
        <time>2016-09-22T11:31:07.000Z</time>
      </trkpt>
      <trkpt lat="48.69055" lon="1.96101">
        <ele>175.57621765137</ele>
        <time>2016-09-22T11:31:10.000Z</time>
      </trkpt>
      <trkpt lat="48.69052" lon="1.96103">
        <ele>175.15640258789</ele>
        <time>2016-09-22T11:31:12.000Z</time>
      </trkpt>
      <trkpt lat="48.69049" lon="1.96103">
        <ele>174.81683349609</ele>
        <time>2016-09-22T11:31:15.000Z</time>
      </trkpt>
      <trkpt lat="48.69048" lon="1.96103">
        <ele>174.58442687988</ele>
        <time>2016-09-22T11:31:17.000Z</time>
      </trkpt>
      <trkpt lat="48.69046" lon="1.96105">
        <ele>174.37510681152</ele>
        <time>2016-09-22T11:31:20.000Z</time>
      </trkpt>
      <trkpt lat="48.69047" lon="1.96106">
        <ele>174.22317504883</ele>
        <time>2016-09-22T11:31:23.000Z</time>
      </trkpt>
      <trkpt lat="48.69047" lon="1.96112">
        <ele>174.03779602051</ele>
        <time>2016-09-22T11:31:38.000Z</time>
      </trkpt>
      <trkpt lat="48.69044" lon="1.96117">
        <ele>173.77645874023</ele>
        <time>2016-09-22T11:31:41.000Z</time>
      </trkpt>
      <trkpt lat="48.69041" lon="1.96121">
        <ele>173.43783569336</ele>
        <time>2016-09-22T11:31:44.000Z</time>
      </trkpt>
      <trkpt lat="48.6904" lon="1.96122">
        <ele>173.10466003418</ele>
        <time>2016-09-22T11:31:46.000Z</time>
      </trkpt>
      <trkpt lat="48.69038" lon="1.96126">
        <ele>172.68707275391</ele>
        <time>2016-09-22T11:31:51.000Z</time>
      </trkpt>
      <trkpt lat="48.69039" lon="1.96129">
        <ele>172.33526611328</ele>
        <time>2016-09-22T11:31:53.000Z</time>
      </trkpt>
      <trkpt lat="48.69039" lon="1.96134">
        <ele>171.99749755859</ele>
        <time>2016-09-22T11:31:56.000Z</time>
      </trkpt>
      <trkpt lat="48.69039" lon="1.96138">
        <ele>171.69912719727</ele>
        <time>2016-09-22T11:31:58.000Z</time>
      </trkpt>
      <trkpt lat="48.6904" lon="1.96141">
        <ele>171.37954711914</ele>
        <time>2016-09-22T11:32:00.000Z</time>
      </trkpt>
      <trkpt lat="48.6904" lon="1.96143">
        <ele>171.13217163086</ele>
        <time>2016-09-22T11:32:02.000Z</time>
      </trkpt>
      <trkpt lat="48.69043" lon="1.96145">
        <ele>170.92236328125</ele>
        <time>2016-09-22T11:32:05.000Z</time>
      </trkpt>
      <trkpt lat="48.69043" lon="1.96149">
        <ele>170.76237487793</ele>
        <time>2016-09-22T11:32:07.000Z</time>
      </trkpt>
      <trkpt lat="48.69044" lon="1.96153">
        <ele>170.61930847168</ele>
        <time>2016-09-22T11:32:10.000Z</time>
      </trkpt>
      <trkpt lat="48.69045" lon="1.96156">
        <ele>170.48112487793</ele>
        <time>2016-09-22T11:32:12.000Z</time>
      </trkpt>
      <trkpt lat="48.69046" lon="1.9616">
        <ele>170.33435058594</ele>
        <time>2016-09-22T11:32:15.000Z</time>
      </trkpt>
      <trkpt lat="48.69047" lon="1.96162">
        <ele>170.16416931152</ele>
        <time>2016-09-22T11:32:18.000Z</time>
      </trkpt>
      <trkpt lat="48.69047" lon="1.96169">
        <ele>169.92680358887</ele>
        <time>2016-09-22T11:32:24.000Z</time>
      </trkpt>
      <trkpt lat="48.69047" lon="1.96171">
        <ele>169.70449829102</ele>
        <time>2016-09-22T11:32:26.000Z</time>
      </trkpt>
      <trkpt lat="48.69047" lon="1.96174">
        <ele>169.48571777344</ele>
        <time>2016-09-22T11:32:28.000Z</time>
      </trkpt>
      <trkpt lat="48.69046" lon="1.9618">
        <ele>169.19010925293</ele>
        <time>2016-09-22T11:32:31.000Z</time>
      </trkpt>
      <trkpt lat="48.69046" lon="1.96183">
        <ele>168.87356567383</ele>
        <time>2016-09-22T11:32:33.000Z</time>
      </trkpt>
      <trkpt lat="48.69046" lon="1.96186">
        <ele>168.61689758301</ele>
        <time>2016-09-22T11:32:36.000Z</time>
      </trkpt>
      <trkpt lat="48.69043" lon="1.96194">
        <ele>168.22454833984</ele>
        <time>2016-09-22T11:32:51.000Z</time>
      </trkpt>
      <trkpt lat="48.69044" lon="1.96196">
        <ele>167.8519744873</ele>
        <time>2016-09-22T11:32:54.000Z</time>
      </trkpt>
      <trkpt lat="48.69043" lon="1.96204">
        <ele>167.46455383301</ele>
        <time>2016-09-22T11:33:07.000Z</time>
      </trkpt>
      <trkpt lat="48.69041" lon="1.96207">
        <ele>167.00970458984</ele>
        <time>2016-09-22T11:33:09.000Z</time>
      </trkpt>
      <trkpt lat="48.69038" lon="1.96211">
        <ele>166.46900939941</ele>
        <time>2016-09-22T11:33:12.000Z</time>
      </trkpt>
      <trkpt lat="48.69034" lon="1.96216">
        <ele>165.91583251953</ele>
        <time>2016-09-22T11:33:15.000Z</time>
      </trkpt>
      <trkpt lat="48.69032" lon="1.9622">
        <ele>165.25852966309</ele>
        <time>2016-09-22T11:33:18.000Z</time>
      </trkpt>
      <trkpt lat="48.69029" lon="1.96226">
        <ele>164.5746307373</ele>
        <time>2016-09-22T11:33:21.000Z</time>
      </trkpt>
      <trkpt lat="48.69028" lon="1.96231">
        <ele>163.86323547363</ele>
        <time>2016-09-22T11:33:23.000Z</time>
      </trkpt>
      <trkpt lat="48.69025" lon="1.96237">
        <ele>163.13000488281</ele>
        <time>2016-09-22T11:33:26.000Z</time>
      </trkpt>
      <trkpt lat="48.69024" lon="1.96242">
        <ele>162.46572875977</ele>
        <time>2016-09-22T11:33:28.000Z</time>
      </trkpt>
      <trkpt lat="48.69023" lon="1.96247">
        <ele>161.79870605469</ele>
        <time>2016-09-22T11:33:31.000Z</time>
      </trkpt>
      <trkpt lat="48.69022" lon="1.9625">
        <ele>161.21180725098</ele>
        <time>2016-09-22T11:33:33.000Z</time>
      </trkpt>
      <trkpt lat="48.6902" lon="1.96256">
        <ele>160.64424133301</ele>
        <time>2016-09-22T11:33:36.000Z</time>
      </trkpt>
      <trkpt lat="48.69017" lon="1.96259">
        <ele>160.13258361816</ele>
        <time>2016-09-22T11:33:38.000Z</time>
      </trkpt>
      <trkpt lat="48.69016" lon="1.96263">
        <ele>159.63571166992</ele>
        <time>2016-09-22T11:33:41.000Z</time>
      </trkpt>
      <trkpt lat="48.69014" lon="1.96267">
        <ele>159.20455932617</ele>
        <time>2016-09-22T11:33:43.000Z</time>
      </trkpt>
      <trkpt lat="48.69013" lon="1.9627">
        <ele>158.79023742676</ele>
        <time>2016-09-22T11:33:45.000Z</time>
      </trkpt>
      <trkpt lat="48.69013" lon="1.96272">
        <ele>158.46078491211</ele>
        <time>2016-09-22T11:33:47.000Z</time>
      </trkpt>
      <trkpt lat="48.69012" lon="1.96276">
        <ele>158.16377258301</ele>
        <time>2016-09-22T11:33:50.000Z</time>
      </trkpt>
      <trkpt lat="48.69012" lon="1.9628">
        <ele>157.91366577148</ele>
        <time>2016-09-22T11:33:52.000Z</time>
      </trkpt>
      <trkpt lat="48.69012" lon="1.96284">
        <ele>157.68948364258</ele>
        <time>2016-09-22T11:33:55.000Z</time>
      </trkpt>
      <trkpt lat="48.69011" lon="1.96287">
        <ele>157.48587036133</ele>
        <time>2016-09-22T11:33:58.000Z</time>
      </trkpt>
      <trkpt lat="48.69012" lon="1.96293">
        <ele>157.30014038086</ele>
        <time>2016-09-22T11:34:08.000Z</time>
      </trkpt>
      <trkpt lat="48.69013" lon="1.96295">
        <ele>157.18524169922</ele>
        <time>2016-09-22T11:34:10.000Z</time>
      </trkpt>
      <trkpt lat="48.69014" lon="1.963">
        <ele>157.12191772461</ele>
        <time>2016-09-22T11:34:13.000Z</time>
      </trkpt>
      <trkpt lat="48.69015" lon="1.96303">
        <ele>157.07803344727</ele>
        <time>2016-09-22T11:34:15.000Z</time>
      </trkpt>
      <trkpt lat="48.69015" lon="1.96307">
        <ele>157.05229187012</ele>
        <time>2016-09-22T11:34:17.000Z</time>
      </trkpt>
      <trkpt lat="48.69016" lon="1.96312">
        <ele>157.02310180664</ele>
        <time>2016-09-22T11:34:20.000Z</time>
      </trkpt>
      <trkpt lat="48.69017" lon="1.96319">
        <ele>156.96771240234</ele>
        <time>2016-09-22T11:34:23.000Z</time>
      </trkpt>
      <trkpt lat="48.69018" lon="1.96325">
        <ele>156.89164733887</ele>
        <time>2016-09-22T11:34:26.000Z</time>
      </trkpt>
      <trkpt lat="48.69019" lon="1.9633">
        <ele>156.83174133301</ele>
        <time>2016-09-22T11:34:29.000Z</time>
      </trkpt>
      <trkpt lat="48.69019" lon="1.96336">
        <ele>156.78128051758</ele>
        <time>2016-09-22T11:34:32.000Z</time>
      </trkpt>
      <trkpt lat="48.69019" lon="1.96342">
        <ele>156.7243347168</ele>
        <time>2016-09-22T11:34:35.000Z</time>
      </trkpt>
      <trkpt lat="48.69018" lon="1.9635">
        <ele>156.63591003418</ele>
        <time>2016-09-22T11:34:50.000Z</time>
      </trkpt>
      <trkpt lat="48.69016" lon="1.96353">
        <ele>156.482421875</ele>
        <time>2016-09-22T11:34:54.000Z</time>
      </trkpt>
      <trkpt lat="48.69013" lon="1.96356">
        <ele>156.21745300293</ele>
        <time>2016-09-22T11:34:56.000Z</time>
      </trkpt>
      <trkpt lat="48.69007" lon="1.96356">
        <ele>155.74565124512</ele>
        <time>2016-09-22T11:34:59.000Z</time>
      </trkpt>
      <trkpt lat="48.69004" lon="1.96355">
        <ele>155.17007446289</ele>
        <time>2016-09-22T11:35:01.000Z</time>
      </trkpt>
      <trkpt lat="48.68999" lon="1.96355">
        <ele>154.48240661621</ele>
        <time>2016-09-22T11:35:04.000Z</time>
      </trkpt>
      <trkpt lat="48.68998" lon="1.96355">
        <ele>153.81964111328</ele>
        <time>2016-09-22T11:35:06.000Z</time>
      </trkpt>
      <trkpt lat="48.68994" lon="1.96354">
        <ele>153.17948913574</ele>
        <time>2016-09-22T11:35:09.000Z</time>
      </trkpt>
      <trkpt lat="48.68993" lon="1.96354">
        <ele>152.71145629883</ele>
        <time>2016-09-22T11:35:12.000Z</time>
      </trkpt>
      <trkpt lat="48.68991" lon="1.96352">
        <ele>152.3232421875</ele>
        <time>2016-09-22T11:35:14.000Z</time>
      </trkpt>
      <trkpt lat="48.68989" lon="1.96349">
        <ele>152.0439453125</ele>
        <time>2016-09-22T11:35:17.000Z</time>
      </trkpt>
      <trkpt lat="48.68988" lon="1.96346">
        <ele>151.7861328125</ele>
        <time>2016-09-22T11:35:19.000Z</time>
      </trkpt>
      <trkpt lat="48.68985" lon="1.96341">
        <ele>151.5390625</ele>
        <time>2016-09-22T11:35:22.000Z</time>
      </trkpt>
      <trkpt lat="48.68982" lon="1.96338">
        <ele>151.2705078125</ele>
        <time>2016-09-22T11:35:24.000Z</time>
      </trkpt>
      <trkpt lat="48.6898" lon="1.96335">
        <ele>150.9912109375</ele>
        <time>2016-09-22T11:35:26.000Z</time>
      </trkpt>
      <trkpt lat="48.68979" lon="1.96331">
        <ele>150.7476348877</ele>
        <time>2016-09-22T11:35:28.000Z</time>
      </trkpt>
      <trkpt lat="48.68979" lon="1.96326">
        <ele>150.57803344727</ele>
        <time>2016-09-22T11:35:30.000Z</time>
      </trkpt>
      <trkpt lat="48.68978" lon="1.96322">
        <ele>150.51156616211</ele>
        <time>2016-09-22T11:35:32.000Z</time>
      </trkpt>
      <trkpt lat="48.68979" lon="1.96314">
        <ele>150.59880065918</ele>
        <time>2016-09-22T11:35:35.000Z</time>
      </trkpt>
      <trkpt lat="48.68978" lon="1.96309">
        <ele>150.77624511719</ele>
        <time>2016-09-22T11:35:37.000Z</time>
      </trkpt>
      <trkpt lat="48.68976" lon="1.96305">
        <ele>150.95263671875</ele>
        <time>2016-09-22T11:35:40.000Z</time>
      </trkpt>
      <trkpt lat="48.68973" lon="1.96299">
        <ele>151.0654296875</ele>
        <time>2016-09-22T11:35:43.000Z</time>
      </trkpt>
      <trkpt lat="48.68972" lon="1.96294">
        <ele>151.16625976562</ele>
        <time>2016-09-22T11:35:45.000Z</time>
      </trkpt>
      <trkpt lat="48.68971" lon="1.96291">
        <ele>151.1982421875</ele>
        <time>2016-09-22T11:35:47.000Z</time>
      </trkpt>
      <trkpt lat="48.68972" lon="1.96286">
        <ele>151.26123046875</ele>
        <time>2016-09-22T11:35:50.000Z</time>
      </trkpt>
      <trkpt lat="48.68972" lon="1.96279">
        <ele>151.40783691406</ele>
        <time>2016-09-22T11:35:53.000Z</time>
      </trkpt>
      <trkpt lat="48.68972" lon="1.96276">
        <ele>151.60327148438</ele>
        <time>2016-09-22T11:35:55.000Z</time>
      </trkpt>
      <trkpt lat="48.68972" lon="1.96274">
        <ele>151.81848144531</ele>
        <time>2016-09-22T11:35:58.000Z</time>
      </trkpt>
      <trkpt lat="48.68968" lon="1.96268">
        <ele>151.93737792969</ele>
        <time>2016-09-22T11:36:03.000Z</time>
      </trkpt>
      <trkpt lat="48.68968" lon="1.96268">
        <ele>151.93737792969</ele>
        <time>2016-09-22T11:36:23.000Z</time>
      </trkpt>
      <trkpt lat="48.68965" lon="1.96265">
        <ele>151.94372558594</ele>
        <time>2016-09-22T11:36:26.000Z</time>
      </trkpt>
      <trkpt lat="48.68962" lon="1.96264">
        <ele>151.82275390625</ele>
        <time>2016-09-22T11:36:28.000Z</time>
      </trkpt>
      <trkpt lat="48.68959" lon="1.96265">
        <ele>151.583984375</ele>
        <time>2016-09-22T11:36:30.000Z</time>
      </trkpt>
      <trkpt lat="48.68955" lon="1.96268">
        <ele>151.17932128906</ele>
        <time>2016-09-22T11:36:33.000Z</time>
      </trkpt>
      <trkpt lat="48.68952" lon="1.96268">
        <ele>150.76904296875</ele>
        <time>2016-09-22T11:36:35.000Z</time>
      </trkpt>
      <trkpt lat="48.68947" lon="1.96266">
        <ele>150.30151367188</ele>
        <time>2016-09-22T11:36:38.000Z</time>
      </trkpt>
      <trkpt lat="48.68945" lon="1.96263">
        <ele>149.85888671875</ele>
        <time>2016-09-22T11:36:40.000Z</time>
      </trkpt>
      <trkpt lat="48.68941" lon="1.9626">
        <ele>149.43872070312</ele>
        <time>2016-09-22T11:36:43.000Z</time>
      </trkpt>
      <trkpt lat="48.68937" lon="1.96261">
        <ele>149.01281738281</ele>
        <time>2016-09-22T11:36:50.000Z</time>
      </trkpt>
      <trkpt lat="48.6893" lon="1.96262">
        <ele>148.48364257812</ele>
        <time>2016-09-22T11:37:06.000Z</time>
      </trkpt>
      <trkpt lat="48.68915" lon="1.96271">
        <ele>147.63066101074</ele>
        <time>2016-09-22T11:37:10.000Z</time>
      </trkpt>
      <trkpt lat="48.68909" lon="1.96274">
        <ele>146.82095336914</ele>
        <time>2016-09-22T11:37:12.000Z</time>
      </trkpt>
      <trkpt lat="48.68901" lon="1.96277">
        <ele>146.10079956055</ele>
        <time>2016-09-22T11:37:15.000Z</time>
      </trkpt>
      <trkpt lat="48.68897" lon="1.96278">
        <ele>145.52404785156</ele>
        <time>2016-09-22T11:37:17.000Z</time>
      </trkpt>
      <trkpt lat="48.68892" lon="1.96279">
        <ele>145.15231323242</ele>
        <time>2016-09-22T11:37:20.000Z</time>
      </trkpt>
      <trkpt lat="48.68888" lon="1.96279">
        <ele>145.22569274902</ele>
        <time>2016-09-22T11:37:22.000Z</time>
      </trkpt>
      <trkpt lat="48.68884" lon="1.9628">
        <ele>145.30786132812</ele>
        <time>2016-09-22T11:37:25.000Z</time>
      </trkpt>
      <trkpt lat="48.68881" lon="1.96283">
        <ele>145.35189819336</ele>
        <time>2016-09-22T11:37:28.000Z</time>
      </trkpt>
      <trkpt lat="48.68879" lon="1.96281">
        <ele>145.42141723633</ele>
        <time>2016-09-22T11:37:31.000Z</time>
      </trkpt>
      <trkpt lat="48.68876" lon="1.96278">
        <ele>145.51863098145</ele>
        <time>2016-09-22T11:37:36.000Z</time>
      </trkpt>
      <trkpt lat="48.68873" lon="1.96275">
        <ele>145.65046691895</ele>
        <time>2016-09-22T11:37:38.000Z</time>
      </trkpt>
      <trkpt lat="48.68869" lon="1.96271">
        <ele>145.84219360352</ele>
        <time>2016-09-22T11:37:41.000Z</time>
      </trkpt>
      <trkpt lat="48.68869" lon="1.96269">
        <ele>146.07795715332</ele>
        <time>2016-09-22T11:37:43.000Z</time>
      </trkpt>
      <trkpt lat="48.68867" lon="1.96266">
        <ele>146.32662963867</ele>
        <time>2016-09-22T11:37:45.000Z</time>
      </trkpt>
      <trkpt lat="48.68863" lon="1.96264">
        <ele>146.57958984375</ele>
        <time>2016-09-22T11:37:53.000Z</time>
      </trkpt>
      <trkpt lat="48.6886" lon="1.96263">
        <ele>146.81137084961</ele>
        <time>2016-09-22T11:37:55.000Z</time>
      </trkpt>
      <trkpt lat="48.68857" lon="1.96259">
        <ele>147.03857421875</ele>
        <time>2016-09-22T11:37:58.000Z</time>
      </trkpt>
      <trkpt lat="48.68855" lon="1.96257">
        <ele>147.2827911377</ele>
        <time>2016-09-22T11:38:00.000Z</time>
      </trkpt>
      <trkpt lat="48.68853" lon="1.96255">
        <ele>147.52055358887</ele>
        <time>2016-09-22T11:38:03.000Z</time>
      </trkpt>
      <trkpt lat="48.68848" lon="1.96254">
        <ele>147.75183105469</ele>
        <time>2016-09-22T11:38:21.000Z</time>
      </trkpt>
      <trkpt lat="48.68847" lon="1.96254">
        <ele>147.95581054688</ele>
        <time>2016-09-22T11:38:23.000Z</time>
      </trkpt>
      <trkpt lat="48.68844" lon="1.9626">
        <ele>148.02114868164</ele>
        <time>2016-09-22T11:38:29.000Z</time>
      </trkpt>
      <trkpt lat="48.68842" lon="1.96266">
        <ele>147.98458862305</ele>
        <time>2016-09-22T11:38:32.000Z</time>
      </trkpt>
      <trkpt lat="48.68842" lon="1.96268">
        <ele>147.87873840332</ele>
        <time>2016-09-22T11:38:35.000Z</time>
      </trkpt>
      <trkpt lat="48.68841" lon="1.96271">
        <ele>147.68389892578</ele>
        <time>2016-09-22T11:38:38.000Z</time>
      </trkpt>
      <trkpt lat="48.6884" lon="1.96274">
        <ele>147.44644165039</ele>
        <time>2016-09-22T11:38:40.000Z</time>
      </trkpt>
      <trkpt lat="48.6884" lon="1.96278">
        <ele>147.22427368164</ele>
        <time>2016-09-22T11:38:43.000Z</time>
      </trkpt>
      <trkpt lat="48.68839" lon="1.9628">
        <ele>147.03884887695</ele>
        <time>2016-09-22T11:38:46.000Z</time>
      </trkpt>
      <trkpt lat="48.68838" lon="1.96283">
        <ele>146.84497070312</ele>
        <time>2016-09-22T11:38:49.000Z</time>
      </trkpt>
      <trkpt lat="48.68834" lon="1.96286">
        <ele>146.67932128906</ele>
        <time>2016-09-22T11:38:52.000Z</time>
      </trkpt>
      <trkpt lat="48.68832" lon="1.96287">
        <ele>146.55740356445</ele>
        <time>2016-09-22T11:38:54.000Z</time>
      </trkpt>
      <trkpt lat="48.68829" lon="1.9629">
        <ele>146.50161743164</ele>
        <time>2016-09-22T11:38:57.000Z</time>
      </trkpt>
      <trkpt lat="48.68826" lon="1.96291">
        <ele>146.47897338867</ele>
        <time>2016-09-22T11:38:59.000Z</time>
      </trkpt>
      <trkpt lat="48.68823" lon="1.96293">
        <ele>146.51361083984</ele>
        <time>2016-09-22T11:39:01.000Z</time>
      </trkpt>
      <trkpt lat="48.68821" lon="1.96294">
        <ele>146.57681274414</ele>
        <time>2016-09-22T11:39:03.000Z</time>
      </trkpt>
      <trkpt lat="48.68818" lon="1.96297">
        <ele>146.626953125</ele>
        <time>2016-09-22T11:39:06.000Z</time>
      </trkpt>
      <trkpt lat="48.68818" lon="1.96301">
        <ele>146.61265563965</ele>
        <time>2016-09-22T11:39:10.000Z</time>
      </trkpt>
      <trkpt lat="48.68816" lon="1.96308">
        <ele>146.51110839844</ele>
        <time>2016-09-22T11:39:17.000Z</time>
      </trkpt>
      <trkpt lat="48.68816" lon="1.96308">
        <ele>146.51110839844</ele>
        <time>2016-09-22T11:39:37.000Z</time>
      </trkpt>
      <trkpt lat="48.68814" lon="1.96312">
        <ele>146.35151672363</ele>
        <time>2016-09-22T11:39:38.000Z</time>
      </trkpt>
      <trkpt lat="48.6881" lon="1.96314">
        <ele>146.18774414062</ele>
        <time>2016-09-22T11:39:44.000Z</time>
      </trkpt>
      <trkpt lat="48.68807" lon="1.96316">
        <ele>146.03523254395</ele>
        <time>2016-09-22T11:39:47.000Z</time>
      </trkpt>
      <trkpt lat="48.68802" lon="1.96323">
        <ele>145.89410400391</ele>
        <time>2016-09-22T11:39:50.000Z</time>
      </trkpt>
      <trkpt lat="48.68797" lon="1.96332">
        <ele>145.74917602539</ele>
        <time>2016-09-22T11:39:53.000Z</time>
      </trkpt>
      <trkpt lat="48.68793" lon="1.96337">
        <ele>145.59338378906</ele>
        <time>2016-09-22T11:39:55.000Z</time>
      </trkpt>
      <trkpt lat="48.6879" lon="1.96337">
        <ele>145.46998596191</ele>
        <time>2016-09-22T11:39:57.000Z</time>
      </trkpt>
      <trkpt lat="48.68787" lon="1.96334">
        <ele>145.43269348145</ele>
        <time>2016-09-22T11:40:00.000Z</time>
      </trkpt>
      <trkpt lat="48.68783" lon="1.9633">
        <ele>145.54989624023</ele>
        <time>2016-09-22T11:40:02.000Z</time>
      </trkpt>
      <trkpt lat="48.68778" lon="1.96328">
        <ele>145.84133911133</ele>
        <time>2016-09-22T11:40:05.000Z</time>
      </trkpt>
      <trkpt lat="48.68775" lon="1.96328">
        <ele>146.2180480957</ele>
        <time>2016-09-22T11:40:08.000Z</time>
      </trkpt>
      <trkpt lat="48.68774" lon="1.96326">
        <ele>146.59646606445</ele>
        <time>2016-09-22T11:40:10.000Z</time>
      </trkpt>
      <trkpt lat="48.68772" lon="1.96324">
        <ele>146.95327758789</ele>
        <time>2016-09-22T11:40:13.000Z</time>
      </trkpt>
      <trkpt lat="48.68768" lon="1.96323">
        <ele>147.2645111084</ele>
        <time>2016-09-22T11:40:16.000Z</time>
      </trkpt>
      <trkpt lat="48.68766" lon="1.96322">
        <ele>147.52099609375</ele>
        <time>2016-09-22T11:40:18.000Z</time>
      </trkpt>
      <trkpt lat="48.68765" lon="1.96319">
        <ele>147.81074523926</ele>
        <time>2016-09-22T11:40:21.000Z</time>
      </trkpt>
      <trkpt lat="48.68762" lon="1.96318">
        <ele>148.1128692627</ele>
        <time>2016-09-22T11:40:24.000Z</time>
      </trkpt>
      <trkpt lat="48.68758" lon="1.96318">
        <ele>148.39680480957</ele>
        <time>2016-09-22T11:40:27.000Z</time>
      </trkpt>
      <trkpt lat="48.68755" lon="1.96316">
        <ele>148.68814086914</ele>
        <time>2016-09-22T11:40:30.000Z</time>
      </trkpt>
      <trkpt lat="48.68753" lon="1.96315">
        <ele>148.98545837402</ele>
        <time>2016-09-22T11:40:33.000Z</time>
      </trkpt>
      <trkpt lat="48.68752" lon="1.96314">
        <ele>149.23690795898</ele>
        <time>2016-09-22T11:40:36.000Z</time>
      </trkpt>
      <trkpt lat="48.68752" lon="1.96314">
        <ele>149.23690795898</ele>
        <time>2016-09-22T11:40:56.000Z</time>
      </trkpt>
      <trkpt lat="48.68748" lon="1.96311">
        <ele>149.53039550781</ele>
        <time>2016-09-22T11:40:57.000Z</time>
      </trkpt>
      <trkpt lat="48.68746" lon="1.9631">
        <ele>149.81286621094</ele>
        <time>2016-09-22T11:40:59.000Z</time>
      </trkpt>
      <trkpt lat="48.68744" lon="1.96307">
        <ele>150.07992553711</ele>
        <time>2016-09-22T11:41:01.000Z</time>
      </trkpt>
      <trkpt lat="48.6874" lon="1.96303">
        <ele>150.39010620117</ele>
        <time>2016-09-22T11:41:04.000Z</time>
      </trkpt>
      <trkpt lat="48.68736" lon="1.96301">
        <ele>150.73648071289</ele>
        <time>2016-09-22T11:41:07.000Z</time>
      </trkpt>
      <trkpt lat="48.68731" lon="1.96298">
        <ele>151.05511474609</ele>
        <time>2016-09-22T11:41:27.000Z</time>
      </trkpt>
      <trkpt lat="48.68728" lon="1.96294">
        <ele>151.41735839844</ele>
        <time>2016-09-22T11:41:30.000Z</time>
      </trkpt>
      <trkpt lat="48.68725" lon="1.96291">
        <ele>151.79006958008</ele>
        <time>2016-09-22T11:41:32.000Z</time>
      </trkpt>
      <trkpt lat="48.68721" lon="1.96289">
        <ele>152.13082885742</ele>
        <time>2016-09-22T11:41:35.000Z</time>
      </trkpt>
      <trkpt lat="48.68717" lon="1.96288">
        <ele>152.44508361816</ele>
        <time>2016-09-22T11:41:37.000Z</time>
      </trkpt>
      <trkpt lat="48.68714" lon="1.96287">
        <ele>152.7155456543</ele>
        <time>2016-09-22T11:41:39.000Z</time>
      </trkpt>
      <trkpt lat="48.6871" lon="1.96287">
        <ele>152.90481567383</ele>
        <time>2016-09-22T11:41:42.000Z</time>
      </trkpt>
      <trkpt lat="48.68707" lon="1.96287">
        <ele>153.03779602051</ele>
        <time>2016-09-22T11:41:44.000Z</time>
      </trkpt>
      <trkpt lat="48.68705" lon="1.96285">
        <ele>153.16069030762</ele>
        <time>2016-09-22T11:41:46.000Z</time>
      </trkpt>
      <trkpt lat="48.68703" lon="1.96282">
        <ele>153.31596374512</ele>
        <time>2016-09-22T11:41:49.000Z</time>
      </trkpt>
      <trkpt lat="48.68699" lon="1.96281">
        <ele>153.46536254883</ele>
        <time>2016-09-22T11:41:52.000Z</time>
      </trkpt>
      <trkpt lat="48.68695" lon="1.96281">
        <ele>153.62335205078</ele>
        <time>2016-09-22T11:41:54.000Z</time>
      </trkpt>
      <trkpt lat="48.68692" lon="1.96282">
        <ele>153.77163696289</ele>
        <time>2016-09-22T11:41:57.000Z</time>
      </trkpt>
      <trkpt lat="48.6869" lon="1.96281">
        <ele>153.88151550293</ele>
        <time>2016-09-22T11:41:59.000Z</time>
      </trkpt>
      <trkpt lat="48.68686" lon="1.96282">
        <ele>153.93473815918</ele>
        <time>2016-09-22T11:42:01.000Z</time>
      </trkpt>
      <trkpt lat="48.68683" lon="1.9628">
        <ele>154.00375366211</ele>
        <time>2016-09-22T11:42:04.000Z</time>
      </trkpt>
      <trkpt lat="48.68679" lon="1.96277">
        <ele>154.1263885498</ele>
        <time>2016-09-22T11:42:07.000Z</time>
      </trkpt>
      <trkpt lat="48.68675" lon="1.96276">
        <ele>154.2839050293</ele>
        <time>2016-09-22T11:42:10.000Z</time>
      </trkpt>
      <trkpt lat="48.68673" lon="1.96275">
        <ele>154.44860839844</ele>
        <time>2016-09-22T11:42:12.000Z</time>
      </trkpt>
      <trkpt lat="48.6867" lon="1.96273">
        <ele>154.65438842773</ele>
        <time>2016-09-22T11:42:15.000Z</time>
      </trkpt>
      <trkpt lat="48.68668" lon="1.9627">
        <ele>154.87379455566</ele>
        <time>2016-09-22T11:42:18.000Z</time>
      </trkpt>
      <trkpt lat="48.68668" lon="1.9627">
        <ele>154.87379455566</ele>
        <time>2016-09-22T11:42:38.000Z</time>
      </trkpt>
      <trkpt lat="48.68664" lon="1.96266">
        <ele>155.06120300293</ele>
        <time>2016-09-22T11:42:39.000Z</time>
      </trkpt>
      <trkpt lat="48.68662" lon="1.96265">
        <ele>155.20028686523</ele>
        <time>2016-09-22T11:42:41.000Z</time>
      </trkpt>
      <trkpt lat="48.68658" lon="1.96264">
        <ele>155.30297851562</ele>
        <time>2016-09-22T11:42:44.000Z</time>
      </trkpt>
      <trkpt lat="48.68656" lon="1.96262">
        <ele>155.34927368164</ele>
        <time>2016-09-22T11:42:46.000Z</time>
      </trkpt>
      <trkpt lat="48.68654" lon="1.9626">
        <ele>155.36578369141</ele>
        <time>2016-09-22T11:42:49.000Z</time>
      </trkpt>
      <trkpt lat="48.68653" lon="1.96258">
        <ele>155.35945129395</ele>
        <time>2016-09-22T11:42:51.000Z</time>
      </trkpt>
      <trkpt lat="48.6865" lon="1.96255">
        <ele>155.37879943848</ele>
        <time>2016-09-22T11:42:54.000Z</time>
      </trkpt>
      <trkpt lat="48.68649" lon="1.96254">
        <ele>155.4260559082</ele>
        <time>2016-09-22T11:42:57.000Z</time>
      </trkpt>
      <trkpt lat="48.68644" lon="1.96251">
        <ele>155.46957397461</ele>
        <time>2016-09-22T11:43:00.000Z</time>
      </trkpt>
      <trkpt lat="48.68642" lon="1.96244">
        <ele>155.69165039062</ele>
        <time>2016-09-22T11:43:13.000Z</time>
      </trkpt>
      <trkpt lat="48.68641" lon="1.96239">
        <ele>156.04682922363</ele>
        <time>2016-09-22T11:43:15.000Z</time>
      </trkpt>
      <trkpt lat="48.68637" lon="1.96233">
        <ele>156.56283569336</ele>
        <time>2016-09-22T11:43:18.000Z</time>
      </trkpt>
      <trkpt lat="48.68635" lon="1.9623">
        <ele>157.13970947266</ele>
        <time>2016-09-22T11:43:20.000Z</time>
      </trkpt>
      <trkpt lat="48.68632" lon="1.96228">
        <ele>157.76806640625</ele>
        <time>2016-09-22T11:43:22.000Z</time>
      </trkpt>
      <trkpt lat="48.68629" lon="1.96224">
        <ele>158.29290771484</ele>
        <time>2016-09-22T11:43:25.000Z</time>
      </trkpt>
      <trkpt lat="48.68627" lon="1.96222">
        <ele>158.71350097656</ele>
        <time>2016-09-22T11:43:27.000Z</time>
      </trkpt>
      <trkpt lat="48.68624" lon="1.96219">
        <ele>159.03466796875</ele>
        <time>2016-09-22T11:43:30.000Z</time>
      </trkpt>
      <trkpt lat="48.68622" lon="1.96216">
        <ele>159.36480712891</ele>
        <time>2016-09-22T11:43:33.000Z</time>
      </trkpt>
      <trkpt lat="48.68621" lon="1.96211">
        <ele>159.79754638672</ele>
        <time>2016-09-22T11:43:36.000Z</time>
      </trkpt>
      <trkpt lat="48.68621" lon="1.96208">
        <ele>160.24737548828</ele>
        <time>2016-09-22T11:43:39.000Z</time>
      </trkpt>
      <trkpt lat="48.68621" lon="1.96208">
        <ele>160.24737548828</ele>
        <time>2016-09-22T11:43:59.000Z</time>
      </trkpt>
      <trkpt lat="48.68618" lon="1.962">
        <ele>160.87475585938</ele>
        <time>2016-09-22T11:44:08.000Z</time>
      </trkpt>
      <trkpt lat="48.6862" lon="1.96195">
        <ele>161.61254882812</ele>
        <time>2016-09-22T11:44:11.000Z</time>
      </trkpt>
      <trkpt lat="48.68623" lon="1.96191">
        <ele>162.44415283203</ele>
        <time>2016-09-22T11:44:14.000Z</time>
      </trkpt>
      <trkpt lat="48.68624" lon="1.96188">
        <ele>163.26641845703</ele>
        <time>2016-09-22T11:44:17.000Z</time>
      </trkpt>
      <trkpt lat="48.68625" lon="1.96185">
        <ele>164.06591796875</ele>
        <time>2016-09-22T11:44:20.000Z</time>
      </trkpt>
      <trkpt lat="48.68624" lon="1.96182">
        <ele>164.75482177734</ele>
        <time>2016-09-22T11:44:23.000Z</time>
      </trkpt>
      <trkpt lat="48.68624" lon="1.96182">
        <ele>164.75482177734</ele>
        <time>2016-09-22T11:44:43.000Z</time>
      </trkpt>
      <trkpt lat="48.68623" lon="1.96176">
        <ele>165.44561767578</ele>
        <time>2016-09-22T11:45:02.000Z</time>
      </trkpt>
      <trkpt lat="48.68623" lon="1.96176">
        <ele>165.44561767578</ele>
        <time>2016-09-22T11:45:22.000Z</time>
      </trkpt>
      <trkpt lat="48.68624" lon="1.96175">
        <ele>166.00219726562</ele>
        <time>2016-09-22T11:46:11.000Z</time>
      </trkpt>
      <trkpt lat="48.68624" lon="1.9618">
        <ele>166.26983642578</ele>
        <time>2016-09-22T11:46:13.000Z</time>
      </trkpt>
      <trkpt lat="48.68624" lon="1.96185">
        <ele>166.28717041016</ele>
        <time>2016-09-22T11:46:16.000Z</time>
      </trkpt>
      <trkpt lat="48.68625" lon="1.96187">
        <ele>166.14166259766</ele>
        <time>2016-09-22T11:46:18.000Z</time>
      </trkpt>
      <trkpt lat="48.68626" lon="1.96189">
        <ele>165.74859619141</ele>
        <time>2016-09-22T11:46:20.000Z</time>
      </trkpt>
      <trkpt lat="48.68627" lon="1.96193">
        <ele>165.17822265625</ele>
        <time>2016-09-22T11:46:23.000Z</time>
      </trkpt>
      <trkpt lat="48.68629" lon="1.96196">
        <ele>164.68994140625</ele>
        <time>2016-09-22T11:46:25.000Z</time>
      </trkpt>
      <trkpt lat="48.68631" lon="1.962">
        <ele>164.26434326172</ele>
        <time>2016-09-22T11:46:27.000Z</time>
      </trkpt>
      <trkpt lat="48.68634" lon="1.96205">
        <ele>163.75506591797</ele>
        <time>2016-09-22T11:46:30.000Z</time>
      </trkpt>
      <trkpt lat="48.68634" lon="1.96209">
        <ele>163.16168212891</ele>
        <time>2016-09-22T11:46:32.000Z</time>
      </trkpt>
      <trkpt lat="48.68634" lon="1.96215">
        <ele>162.51812744141</ele>
        <time>2016-09-22T11:46:35.000Z</time>
      </trkpt>
      <trkpt lat="48.68635" lon="1.96219">
        <ele>161.8076171875</ele>
        <time>2016-09-22T11:46:38.000Z</time>
      </trkpt>
      <trkpt lat="48.68636" lon="1.96222">
        <ele>161.13580322266</ele>
        <time>2016-09-22T11:46:41.000Z</time>
      </trkpt>
      <trkpt lat="48.68637" lon="1.96224">
        <ele>160.53784179688</ele>
        <time>2016-09-22T11:46:44.000Z</time>
      </trkpt>
      <trkpt lat="48.68641" lon="1.96226">
        <ele>160.04833984375</ele>
        <time>2016-09-22T11:46:46.000Z</time>
      </trkpt>
      <trkpt lat="48.68647" lon="1.96231">
        <ele>159.63983154297</ele>
        <time>2016-09-22T11:46:49.000Z</time>
      </trkpt>
      <trkpt lat="48.6865" lon="1.96237">
        <ele>159.21105957031</ele>
        <time>2016-09-22T11:47:03.000Z</time>
      </trkpt>
      <trkpt lat="48.68652" lon="1.96241">
        <ele>158.75</ele>
        <time>2016-09-22T11:47:06.000Z</time>
      </trkpt>
      <trkpt lat="48.68653" lon="1.96245">
        <ele>158.22814941406</ele>
        <time>2016-09-22T11:47:09.000Z</time>
      </trkpt>
      <trkpt lat="48.68653" lon="1.9625">
        <ele>157.57989501953</ele>
        <time>2016-09-22T11:47:12.000Z</time>
      </trkpt>
      <trkpt lat="48.68655" lon="1.96252">
        <ele>157.02758789062</ele>
        <time>2016-09-22T11:47:15.000Z</time>
      </trkpt>
      <trkpt lat="48.68657" lon="1.96252">
        <ele>156.65707397461</ele>
        <time>2016-09-22T11:47:17.000Z</time>
      </trkpt>
      <trkpt lat="48.68659" lon="1.96253">
        <ele>156.38397216797</ele>
        <time>2016-09-22T11:47:20.000Z</time>
      </trkpt>
      <trkpt lat="48.68663" lon="1.96255">
        <ele>156.25900268555</ele>
        <time>2016-09-22T11:47:31.000Z</time>
      </trkpt>
      <trkpt lat="48.68666" lon="1.96256">
        <ele>156.3109588623</ele>
        <time>2016-09-22T11:47:51.000Z</time>
      </trkpt>
      <trkpt lat="48.68671" lon="1.96259">
        <ele>156.31872558594</ele>
        <time>2016-09-22T11:47:54.000Z</time>
      </trkpt>
      <trkpt lat="48.68678" lon="1.96263">
        <ele>156.21658325195</ele>
        <time>2016-09-22T11:47:57.000Z</time>
      </trkpt>
      <trkpt lat="48.68685" lon="1.96264">
        <ele>156.07180786133</ele>
        <time>2016-09-22T11:48:00.000Z</time>
      </trkpt>
      <trkpt lat="48.6869" lon="1.96266">
        <ele>155.86660766602</ele>
        <time>2016-09-22T11:48:03.000Z</time>
      </trkpt>
      <trkpt lat="48.68693" lon="1.96266">
        <ele>155.63314819336</ele>
        <time>2016-09-22T11:48:05.000Z</time>
      </trkpt>
      <trkpt lat="48.68697" lon="1.96265">
        <ele>155.4524230957</ele>
        <time>2016-09-22T11:48:08.000Z</time>
      </trkpt>
      <trkpt lat="48.687" lon="1.96265">
        <ele>155.35762023926</ele>
        <time>2016-09-22T11:48:10.000Z</time>
      </trkpt>
      <trkpt lat="48.68708" lon="1.96266">
        <ele>155.25186157227</ele>
        <time>2016-09-22T11:48:13.000Z</time>
      </trkpt>
      <trkpt lat="48.68712" lon="1.96267">
        <ele>155.15705871582</ele>
        <time>2016-09-22T11:48:15.000Z</time>
      </trkpt>
      <trkpt lat="48.68713" lon="1.96268">
        <ele>155.0641784668</ele>
        <time>2016-09-22T11:48:18.000Z</time>
      </trkpt>
      <trkpt lat="48.68717" lon="1.96267">
        <ele>154.96928405762</ele>
        <time>2016-09-22T11:48:21.000Z</time>
      </trkpt>
      <trkpt lat="48.68721" lon="1.96269">
        <ele>154.83094787598</ele>
        <time>2016-09-22T11:48:23.000Z</time>
      </trkpt>
      <trkpt lat="48.68724" lon="1.96272">
        <ele>154.67950439453</ele>
        <time>2016-09-22T11:48:26.000Z</time>
      </trkpt>
      <trkpt lat="48.68726" lon="1.96274">
        <ele>154.51699829102</ele>
        <time>2016-09-22T11:48:28.000Z</time>
      </trkpt>
      <trkpt lat="48.68729" lon="1.96276">
        <ele>154.3084564209</ele>
        <time>2016-09-22T11:48:31.000Z</time>
      </trkpt>
      <trkpt lat="48.68735" lon="1.96279">
        <ele>154.04521179199</ele>
        <time>2016-09-22T11:48:34.000Z</time>
      </trkpt>
      <trkpt lat="48.68741" lon="1.96281">
        <ele>153.75602722168</ele>
        <time>2016-09-22T11:48:36.000Z</time>
      </trkpt>
      <trkpt lat="48.68747" lon="1.96283">
        <ele>153.47845458984</ele>
        <time>2016-09-22T11:48:39.000Z</time>
      </trkpt>
      <trkpt lat="48.68748" lon="1.96284">
        <ele>153.22277832031</ele>
        <time>2016-09-22T11:48:41.000Z</time>
      </trkpt>
      <trkpt lat="48.6875" lon="1.96283">
        <ele>153.01679992676</ele>
        <time>2016-09-22T11:48:44.000Z</time>
      </trkpt>
      <trkpt lat="48.68752" lon="1.96283">
        <ele>152.85116577148</ele>
        <time>2016-09-22T11:48:47.000Z</time>
      </trkpt>
      <trkpt lat="48.68755" lon="1.96284">
        <ele>152.69303894043</ele>
        <time>2016-09-22T11:48:49.000Z</time>
      </trkpt>
      <trkpt lat="48.68758" lon="1.96285">
        <ele>152.51840209961</ele>
        <time>2016-09-22T11:48:51.000Z</time>
      </trkpt>
      <trkpt lat="48.68766" lon="1.96288">
        <ele>152.19934082031</ele>
        <time>2016-09-22T11:48:53.000Z</time>
      </trkpt>
      <trkpt lat="48.68768" lon="1.96289">
        <ele>151.82238769531</ele>
        <time>2016-09-22T11:48:56.000Z</time>
      </trkpt>
      <trkpt lat="48.6877" lon="1.9629">
        <ele>151.43441772461</ele>
        <time>2016-09-22T11:48:59.000Z</time>
      </trkpt>
      <trkpt lat="48.68773" lon="1.9629">
        <ele>151.06237792969</ele>
        <time>2016-09-22T11:49:01.000Z</time>
      </trkpt>
      <trkpt lat="48.68776" lon="1.96292">
        <ele>150.6787109375</ele>
        <time>2016-09-22T11:49:04.000Z</time>
      </trkpt>
      <trkpt lat="48.68779" lon="1.96296">
        <ele>150.34780883789</ele>
        <time>2016-09-22T11:49:07.000Z</time>
      </trkpt>
      <trkpt lat="48.68781" lon="1.96303">
        <ele>149.93263244629</ele>
        <time>2016-09-22T11:49:10.000Z</time>
      </trkpt>
      <trkpt lat="48.68782" lon="1.96307">
        <ele>149.46368408203</ele>
        <time>2016-09-22T11:49:12.000Z</time>
      </trkpt>
      <trkpt lat="48.68784" lon="1.9631">
        <ele>148.96379089355</ele>
        <time>2016-09-22T11:49:15.000Z</time>
      </trkpt>
      <trkpt lat="48.68787" lon="1.96312">
        <ele>148.47001647949</ele>
        <time>2016-09-22T11:49:18.000Z</time>
      </trkpt>
      <trkpt lat="48.68789" lon="1.96313">
        <ele>148.04777526855</ele>
        <time>2016-09-22T11:49:20.000Z</time>
      </trkpt>
      <trkpt lat="48.68792" lon="1.96315">
        <ele>147.68841552734</ele>
        <time>2016-09-22T11:49:23.000Z</time>
      </trkpt>
      <trkpt lat="48.68792" lon="1.96319">
        <ele>147.34741210938</ele>
        <time>2016-09-22T11:49:26.000Z</time>
      </trkpt>
      <trkpt lat="48.68794" lon="1.96323">
        <ele>146.99871826172</ele>
        <time>2016-09-22T11:49:29.000Z</time>
      </trkpt>
      <trkpt lat="48.68797" lon="1.96327">
        <ele>146.61796569824</ele>
        <time>2016-09-22T11:49:32.000Z</time>
      </trkpt>
      <trkpt lat="48.688" lon="1.9633">
        <ele>146.17807006836</ele>
        <time>2016-09-22T11:49:35.000Z</time>
      </trkpt>
      <trkpt lat="48.68802" lon="1.96331">
        <ele>145.78601074219</ele>
        <time>2016-09-22T11:49:37.000Z</time>
      </trkpt>
      <trkpt lat="48.68805" lon="1.96333">
        <ele>145.40246582031</ele>
        <time>2016-09-22T11:49:39.000Z</time>
      </trkpt>
      <trkpt lat="48.68808" lon="1.96335">
        <ele>145.03457641602</ele>
        <time>2016-09-22T11:49:42.000Z</time>
      </trkpt>
      <trkpt lat="48.68811" lon="1.96339">
        <ele>144.67367553711</ele>
        <time>2016-09-22T11:49:45.000Z</time>
      </trkpt>
      <trkpt lat="48.68814" lon="1.96341">
        <ele>144.3334197998</ele>
        <time>2016-09-22T11:49:48.000Z</time>
      </trkpt>
      <trkpt lat="48.68815" lon="1.96344">
        <ele>143.99255371094</ele>
        <time>2016-09-22T11:49:50.000Z</time>
      </trkpt>
      <trkpt lat="48.68815" lon="1.96347">
        <ele>143.65567016602</ele>
        <time>2016-09-22T11:49:53.000Z</time>
      </trkpt>
      <trkpt lat="48.68815" lon="1.96351">
        <ele>143.34013366699</ele>
        <time>2016-09-22T11:49:56.000Z</time>
      </trkpt>
      <trkpt lat="48.68815" lon="1.96353">
        <ele>143.0916595459</ele>
        <time>2016-09-22T11:49:58.000Z</time>
      </trkpt>
      <trkpt lat="48.68816" lon="1.96359">
        <ele>142.81420898438</ele>
        <time>2016-09-22T11:50:01.000Z</time>
      </trkpt>
      <trkpt lat="48.68816" lon="1.96364">
        <ele>142.49353027344</ele>
        <time>2016-09-22T11:50:04.000Z</time>
      </trkpt>
      <trkpt lat="48.68816" lon="1.96368">
        <ele>142.17282104492</ele>
        <time>2016-09-22T11:50:06.000Z</time>
      </trkpt>
      <trkpt lat="48.68816" lon="1.96369">
        <ele>141.87861633301</ele>
        <time>2016-09-22T11:50:09.000Z</time>
      </trkpt>
      <trkpt lat="48.68819" lon="1.9637">
        <ele>141.57376098633</ele>
        <time>2016-09-22T11:50:11.000Z</time>
      </trkpt>
      <trkpt lat="48.68824" lon="1.96372">
        <ele>141.2933807373</ele>
        <time>2016-09-22T11:50:14.000Z</time>
      </trkpt>
      <trkpt lat="48.68824" lon="1.9637">
        <ele>141.11996459961</ele>
        <time>2016-09-22T11:50:17.000Z</time>
      </trkpt>
      <trkpt lat="48.68825" lon="1.9637">
        <ele>140.9856262207</ele>
        <time>2016-09-22T11:50:20.000Z</time>
      </trkpt>
      <trkpt lat="48.68834" lon="1.96369">
        <ele>140.80065917969</ele>
        <time>2016-09-22T11:50:23.000Z</time>
      </trkpt>
      <trkpt lat="48.68839" lon="1.96368">
        <ele>140.68585205078</ele>
        <time>2016-09-22T11:50:26.000Z</time>
      </trkpt>
      <trkpt lat="48.6884" lon="1.96368">
        <ele>140.66317749023</ele>
        <time>2016-09-22T11:50:31.000Z</time>
      </trkpt>
      <trkpt lat="48.68843" lon="1.96369">
        <ele>140.61183166504</ele>
        <time>2016-09-22T11:50:33.000Z</time>
      </trkpt>
      <trkpt lat="48.68845" lon="1.96371">
        <ele>140.55078125</ele>
        <time>2016-09-22T11:50:35.000Z</time>
      </trkpt>
      <trkpt lat="48.68845" lon="1.96375">
        <ele>140.52404785156</ele>
        <time>2016-09-22T11:50:38.000Z</time>
      </trkpt>
      <trkpt lat="48.68844" lon="1.96377">
        <ele>140.43092346191</ele>
        <time>2016-09-22T11:50:40.000Z</time>
      </trkpt>
      <trkpt lat="48.6884" lon="1.96379">
        <ele>140.2767791748</ele>
        <time>2016-09-22T11:50:43.000Z</time>
      </trkpt>
      <trkpt lat="48.68837" lon="1.96382">
        <ele>140.07577514648</ele>
        <time>2016-09-22T11:50:45.000Z</time>
      </trkpt>
      <trkpt lat="48.68834" lon="1.96388">
        <ele>139.78810119629</ele>
        <time>2016-09-22T11:50:48.000Z</time>
      </trkpt>
      <trkpt lat="48.68832" lon="1.96396">
        <ele>139.44493103027</ele>
        <time>2016-09-22T11:50:51.000Z</time>
      </trkpt>
      <trkpt lat="48.68831" lon="1.964">
        <ele>139.0807800293</ele>
        <time>2016-09-22T11:50:53.000Z</time>
      </trkpt>
      <trkpt lat="48.6883" lon="1.96408">
        <ele>138.67250061035</ele>
        <time>2016-09-22T11:50:56.000Z</time>
      </trkpt>
      <trkpt lat="48.6883" lon="1.96416">
        <ele>138.17825317383</ele>
        <time>2016-09-22T11:50:59.000Z</time>
      </trkpt>
      <trkpt lat="48.68832" lon="1.96422">
        <ele>137.68362426758</ele>
        <time>2016-09-22T11:51:01.000Z</time>
      </trkpt>
      <trkpt lat="48.68832" lon="1.96431">
        <ele>137.14030456543</ele>
        <time>2016-09-22T11:51:04.000Z</time>
      </trkpt>
      <trkpt lat="48.68834" lon="1.96436">
        <ele>136.55490112305</ele>
        <time>2016-09-22T11:51:06.000Z</time>
      </trkpt>
      <trkpt lat="48.68835" lon="1.96442">
        <ele>135.99563598633</ele>
        <time>2016-09-22T11:51:09.000Z</time>
      </trkpt>
      <trkpt lat="48.68835" lon="1.96446">
        <ele>135.49572753906</ele>
        <time>2016-09-22T11:51:11.000Z</time>
      </trkpt>
      <trkpt lat="48.68833" lon="1.96454">
        <ele>134.95462036133</ele>
        <time>2016-09-22T11:51:14.000Z</time>
      </trkpt>
      <trkpt lat="48.68831" lon="1.9646">
        <ele>134.47489929199</ele>
        <time>2016-09-22T11:51:17.000Z</time>
      </trkpt>
      <trkpt lat="48.68828" lon="1.96466">
        <ele>134.00410461426</ele>
        <time>2016-09-22T11:51:20.000Z</time>
      </trkpt>
      <trkpt lat="48.68826" lon="1.96471">
        <ele>133.52729797363</ele>
        <time>2016-09-22T11:51:22.000Z</time>
      </trkpt>
      <trkpt lat="48.68826" lon="1.96475">
        <ele>133.04957580566</ele>
        <time>2016-09-22T11:51:24.000Z</time>
      </trkpt>
      <trkpt lat="48.68827" lon="1.96479">
        <ele>132.64791870117</ele>
        <time>2016-09-22T11:51:26.000Z</time>
      </trkpt>
      <trkpt lat="48.68828" lon="1.96485">
        <ele>132.23234558105</ele>
        <time>2016-09-22T11:51:29.000Z</time>
      </trkpt>
      <trkpt lat="48.68828" lon="1.96487">
        <ele>131.86079406738</ele>
        <time>2016-09-22T11:51:31.000Z</time>
      </trkpt>
      <trkpt lat="48.68828" lon="1.96494">
        <ele>131.45538330078</ele>
        <time>2016-09-22T11:51:34.000Z</time>
      </trkpt>
      <trkpt lat="48.68828" lon="1.965">
        <ele>131.02156066895</ele>
        <time>2016-09-22T11:51:37.000Z</time>
      </trkpt>
      <trkpt lat="48.6883" lon="1.96506">
        <ele>130.56753540039</ele>
        <time>2016-09-22T11:51:40.000Z</time>
      </trkpt>
      <trkpt lat="48.6883" lon="1.96511">
        <ele>130.12815856934</ele>
        <time>2016-09-22T11:51:43.000Z</time>
      </trkpt>
      <trkpt lat="48.68829" lon="1.96516">
        <ele>129.66293334961</ele>
        <time>2016-09-22T11:51:45.000Z</time>
      </trkpt>
      <trkpt lat="48.6883" lon="1.9652">
        <ele>129.24548339844</ele>
        <time>2016-09-22T11:51:47.000Z</time>
      </trkpt>
      <trkpt lat="48.6883" lon="1.96524">
        <ele>128.86926269531</ele>
        <time>2016-09-22T11:51:49.000Z</time>
      </trkpt>
      <trkpt lat="48.68829" lon="1.9653">
        <ele>128.49809265137</ele>
        <time>2016-09-22T11:51:52.000Z</time>
      </trkpt>
      <trkpt lat="48.68829" lon="1.96536">
        <ele>128.10609436035</ele>
        <time>2016-09-22T11:51:55.000Z</time>
      </trkpt>
      <trkpt lat="48.68829" lon="1.96544">
        <ele>127.67246246338</ele>
        <time>2016-09-22T11:51:58.000Z</time>
      </trkpt>
      <trkpt lat="48.68829" lon="1.96549">
        <ele>127.21745300293</ele>
        <time>2016-09-22T11:52:01.000Z</time>
      </trkpt>
      <trkpt lat="48.68827" lon="1.96554">
        <ele>126.73498535156</ele>
        <time>2016-09-22T11:52:04.000Z</time>
      </trkpt>
      <trkpt lat="48.68827" lon="1.96559">
        <ele>126.27321624756</ele>
        <time>2016-09-22T11:52:06.000Z</time>
      </trkpt>
      <trkpt lat="48.68827" lon="1.96566">
        <ele>125.78968811035</ele>
        <time>2016-09-22T11:52:09.000Z</time>
      </trkpt>
      <trkpt lat="48.68827" lon="1.96572">
        <ele>125.33087158203</ele>
        <time>2016-09-22T11:52:11.000Z</time>
      </trkpt>
      <trkpt lat="48.68827" lon="1.96578">
        <ele>124.86226654053</ele>
        <time>2016-09-22T11:52:14.000Z</time>
      </trkpt>
      <trkpt lat="48.68827" lon="1.96583">
        <ele>124.40107727051</ele>
        <time>2016-09-22T11:52:16.000Z</time>
      </trkpt>
      <trkpt lat="48.68826" lon="1.96589">
        <ele>123.95243835449</ele>
        <time>2016-09-22T11:52:19.000Z</time>
      </trkpt>
      <trkpt lat="48.68824" lon="1.96593">
        <ele>123.57723236084</ele>
        <time>2016-09-22T11:52:21.000Z</time>
      </trkpt>
      <trkpt lat="48.68823" lon="1.96595">
        <ele>123.2518081665</ele>
        <time>2016-09-22T11:52:23.000Z</time>
      </trkpt>
      <trkpt lat="48.68822" lon="1.96598">
        <ele>122.98722839355</ele>
        <time>2016-09-22T11:52:25.000Z</time>
      </trkpt>
      <trkpt lat="48.68824" lon="1.96603">
        <ele>122.80700683594</ele>
        <time>2016-09-22T11:52:28.000Z</time>
      </trkpt>
      <trkpt lat="48.68824" lon="1.96605">
        <ele>122.68882751465</ele>
        <time>2016-09-22T11:52:30.000Z</time>
      </trkpt>
      <trkpt lat="48.68825" lon="1.9661">
        <ele>122.60897064209</ele>
        <time>2016-09-22T11:52:33.000Z</time>
      </trkpt>
      <trkpt lat="48.68826" lon="1.96612">
        <ele>122.57063293457</ele>
        <time>2016-09-22T11:52:36.000Z</time>
      </trkpt>
      <trkpt lat="48.68826" lon="1.96615">
        <ele>122.53940582275</ele>
        <time>2016-09-22T11:52:38.000Z</time>
      </trkpt>
      <trkpt lat="48.68823" lon="1.96623">
        <ele>122.4031829834</ele>
        <time>2016-09-22T11:52:41.000Z</time>
      </trkpt>
      <trkpt lat="48.68821" lon="1.96628">
        <ele>122.16943359375</ele>
        <time>2016-09-22T11:52:43.000Z</time>
      </trkpt>
      <trkpt lat="48.68819" lon="1.96634">
        <ele>121.87679290771</ele>
        <time>2016-09-22T11:52:45.000Z</time>
      </trkpt>
      <trkpt lat="48.68819" lon="1.96639">
        <ele>121.54122161865</ele>
        <time>2016-09-22T11:52:47.000Z</time>
      </trkpt>
      <trkpt lat="48.68818" lon="1.96643">
        <ele>121.18188476562</ele>
        <time>2016-09-22T11:52:49.000Z</time>
      </trkpt>
      <trkpt lat="48.68817" lon="1.9665">
        <ele>120.84407043457</ele>
        <time>2016-09-22T11:52:52.000Z</time>
      </trkpt>
      <trkpt lat="48.68816" lon="1.96654">
        <ele>120.53666687012</ele>
        <time>2016-09-22T11:52:55.000Z</time>
      </trkpt>
      <trkpt lat="48.68816" lon="1.96659">
        <ele>120.26232910156</ele>
        <time>2016-09-22T11:52:58.000Z</time>
      </trkpt>
      <trkpt lat="48.68816" lon="1.96664">
        <ele>120.01704406738</ele>
        <time>2016-09-22T11:53:01.000Z</time>
      </trkpt>
      <trkpt lat="48.68816" lon="1.96669">
        <ele>119.79245758057</ele>
        <time>2016-09-22T11:53:04.000Z</time>
      </trkpt>
      <trkpt lat="48.68817" lon="1.96672">
        <ele>119.65382385254</ele>
        <time>2016-09-22T11:53:06.000Z</time>
      </trkpt>
      <trkpt lat="48.68816" lon="1.96679">
        <ele>119.53265380859</ele>
        <time>2016-09-22T11:53:09.000Z</time>
      </trkpt>
      <trkpt lat="48.68816" lon="1.96685">
        <ele>119.41481018066</ele>
        <time>2016-09-22T11:53:12.000Z</time>
      </trkpt>
      <trkpt lat="48.68815" lon="1.96693">
        <ele>119.27160644531</ele>
        <time>2016-09-22T11:53:15.000Z</time>
      </trkpt>
      <trkpt lat="48.68816" lon="1.96699">
        <ele>119.14738464355</ele>
        <time>2016-09-22T11:53:18.000Z</time>
      </trkpt>
      <trkpt lat="48.68817" lon="1.96703">
        <ele>119.04331207275</ele>
        <time>2016-09-22T11:53:20.000Z</time>
      </trkpt>
      <trkpt lat="48.68818" lon="1.96707">
        <ele>119.00996398926</ele>
        <time>2016-09-22T11:53:22.000Z</time>
      </trkpt>
      <trkpt lat="48.68819" lon="1.96713">
        <ele>119.01690673828</ele>
        <time>2016-09-22T11:53:25.000Z</time>
      </trkpt>
      <trkpt lat="48.68819" lon="1.96718">
        <ele>119.05833435059</ele>
        <time>2016-09-22T11:53:28.000Z</time>
      </trkpt>
      <trkpt lat="48.68819" lon="1.96722">
        <ele>119.09470367432</ele>
        <time>2016-09-22T11:53:31.000Z</time>
      </trkpt>
      <trkpt lat="48.68819" lon="1.96725">
        <ele>119.11120605469</ele>
        <time>2016-09-22T11:53:33.000Z</time>
      </trkpt>
      <trkpt lat="48.6882" lon="1.96727">
        <ele>119.11047363281</ele>
        <time>2016-09-22T11:53:35.000Z</time>
      </trkpt>
      <trkpt lat="48.6882" lon="1.9673">
        <ele>119.09655761719</ele>
        <time>2016-09-22T11:53:37.000Z</time>
      </trkpt>
      <trkpt lat="48.6882" lon="1.96734">
        <ele>119.07325744629</ele>
        <time>2016-09-22T11:53:40.000Z</time>
      </trkpt>
      <trkpt lat="48.6882" lon="1.96739">
        <ele>119.0471572876</ele>
        <time>2016-09-22T11:53:43.000Z</time>
      </trkpt>
      <trkpt lat="48.68821" lon="1.96743">
        <ele>119.03204345703</ele>
        <time>2016-09-22T11:53:46.000Z</time>
      </trkpt>
      <trkpt lat="48.6882" lon="1.96746">
        <ele>118.9720916748</ele>
        <time>2016-09-22T11:53:49.000Z</time>
      </trkpt>
      <trkpt lat="48.68819" lon="1.96749">
        <ele>118.89820861816</ele>
        <time>2016-09-22T11:53:51.000Z</time>
      </trkpt>
      <trkpt lat="48.68819" lon="1.96752">
        <ele>118.82515716553</ele>
        <time>2016-09-22T11:53:54.000Z</time>
      </trkpt>
      <trkpt lat="48.68819" lon="1.96757">
        <ele>118.72141265869</ele>
        <time>2016-09-22T11:53:57.000Z</time>
      </trkpt>
      <trkpt lat="48.68819" lon="1.96763">
        <ele>118.5785369873</ele>
        <time>2016-09-22T11:54:00.000Z</time>
      </trkpt>
      <trkpt lat="48.68818" lon="1.96769">
        <ele>118.41033935547</ele>
        <time>2016-09-22T11:54:03.000Z</time>
      </trkpt>
      <trkpt lat="48.68816" lon="1.96774">
        <ele>118.20710754395</ele>
        <time>2016-09-22T11:54:05.000Z</time>
      </trkpt>
      <trkpt lat="48.68815" lon="1.96782">
        <ele>117.94400787354</ele>
        <time>2016-09-22T11:54:08.000Z</time>
      </trkpt>
      <trkpt lat="48.68815" lon="1.96787">
        <ele>117.70727539062</ele>
        <time>2016-09-22T11:54:11.000Z</time>
      </trkpt>
      <trkpt lat="48.68814" lon="1.96794">
        <ele>117.44649505615</ele>
        <time>2016-09-22T11:54:13.000Z</time>
      </trkpt>
      <trkpt lat="48.68816" lon="1.968">
        <ele>117.27540588379</ele>
        <time>2016-09-22T11:54:16.000Z</time>
      </trkpt>
      <trkpt lat="48.68816" lon="1.96803">
        <ele>117.1618270874</ele>
        <time>2016-09-22T11:54:18.000Z</time>
      </trkpt>
      <trkpt lat="48.68816" lon="1.96807">
        <ele>117.08017730713</ele>
        <time>2016-09-22T11:54:20.000Z</time>
      </trkpt>
      <trkpt lat="48.68815" lon="1.96814">
        <ele>116.969581604</ele>
        <time>2016-09-22T11:54:23.000Z</time>
      </trkpt>
      <trkpt lat="48.68814" lon="1.96818">
        <ele>116.86653137207</ele>
        <time>2016-09-22T11:54:25.000Z</time>
      </trkpt>
      <trkpt lat="48.68812" lon="1.96822">
        <ele>116.67468261719</ele>
        <time>2016-09-22T11:54:27.000Z</time>
      </trkpt>
      <trkpt lat="48.68812" lon="1.96827">
        <ele>116.45383453369</ele>
        <time>2016-09-22T11:54:30.000Z</time>
      </trkpt>
      <trkpt lat="48.68812" lon="1.9683">
        <ele>116.27250671387</ele>
        <time>2016-09-22T11:54:32.000Z</time>
      </trkpt>
      <trkpt lat="48.68813" lon="1.96833">
        <ele>116.15226745605</ele>
        <time>2016-09-22T11:54:34.000Z</time>
      </trkpt>
      <trkpt lat="48.68815" lon="1.9684">
        <ele>116.08164215088</ele>
        <time>2016-09-22T11:54:37.000Z</time>
      </trkpt>
      <trkpt lat="48.68816" lon="1.96845">
        <ele>116.09049224854</ele>
        <time>2016-09-22T11:54:40.000Z</time>
      </trkpt>
      <trkpt lat="48.68816" lon="1.9685">
        <ele>116.09217834473</ele>
        <time>2016-09-22T11:54:42.000Z</time>
      </trkpt>
      <trkpt lat="48.68816" lon="1.96853">
        <ele>116.08687591553</ele>
        <time>2016-09-22T11:54:44.000Z</time>
      </trkpt>
      <trkpt lat="48.68818" lon="1.96858">
        <ele>116.07180023193</ele>
        <time>2016-09-22T11:54:47.000Z</time>
      </trkpt>
      <trkpt lat="48.68818" lon="1.96861">
        <ele>116.04118347168</ele>
        <time>2016-09-22T11:54:49.000Z</time>
      </trkpt>
      <trkpt lat="48.68818" lon="1.96866">
        <ele>115.96767425537</ele>
        <time>2016-09-22T11:54:52.000Z</time>
      </trkpt>
      <trkpt lat="48.68818" lon="1.96868">
        <ele>115.91485595703</ele>
        <time>2016-09-22T11:54:54.000Z</time>
      </trkpt>
      <trkpt lat="48.68818" lon="1.96872">
        <ele>115.84493255615</ele>
        <time>2016-09-22T11:54:56.000Z</time>
      </trkpt>
      <trkpt lat="48.68819" lon="1.96876">
        <ele>115.77058410645</ele>
        <time>2016-09-22T11:54:58.000Z</time>
      </trkpt>
      <trkpt lat="48.68819" lon="1.9688">
        <ele>115.68874359131</ele>
        <time>2016-09-22T11:55:00.000Z</time>
      </trkpt>
      <trkpt lat="48.68819" lon="1.96886">
        <ele>115.60793304443</ele>
        <time>2016-09-22T11:55:03.000Z</time>
      </trkpt>
      <trkpt lat="48.6882" lon="1.96891">
        <ele>115.52116394043</ele>
        <time>2016-09-22T11:55:06.000Z</time>
      </trkpt>
      <trkpt lat="48.68822" lon="1.96897">
        <ele>115.46131896973</ele>
        <time>2016-09-22T11:55:09.000Z</time>
      </trkpt>
      <trkpt lat="48.68823" lon="1.96901">
        <ele>115.40665435791</ele>
        <time>2016-09-22T11:55:11.000Z</time>
      </trkpt>
      <trkpt lat="48.68822" lon="1.96904">
        <ele>115.33692932129</ele>
        <time>2016-09-22T11:55:13.000Z</time>
      </trkpt>
      <trkpt lat="48.68822" lon="1.96908">
        <ele>115.25994873047</ele>
        <time>2016-09-22T11:55:15.000Z</time>
      </trkpt>
      <trkpt lat="48.68822" lon="1.96913">
        <ele>115.16059875488</ele>
        <time>2016-09-22T11:55:18.000Z</time>
      </trkpt>
      <trkpt lat="48.68822" lon="1.96918">
        <ele>115.02797698975</ele>
        <time>2016-09-22T11:55:21.000Z</time>
      </trkpt>
      <trkpt lat="48.68821" lon="1.96922">
        <ele>114.85612487793</ele>
        <time>2016-09-22T11:55:23.000Z</time>
      </trkpt>
      <trkpt lat="48.68822" lon="1.96927">
        <ele>114.69594573975</ele>
        <time>2016-09-22T11:55:25.000Z</time>
      </trkpt>
      <trkpt lat="48.68823" lon="1.96933">
        <ele>114.56181335449</ele>
        <time>2016-09-22T11:55:28.000Z</time>
      </trkpt>
      <trkpt lat="48.68822" lon="1.96938">
        <ele>114.41835021973</ele>
        <time>2016-09-22T11:55:31.000Z</time>
      </trkpt>
      <trkpt lat="48.68824" lon="1.9694">
        <ele>114.32440185547</ele>
        <time>2016-09-22T11:55:33.000Z</time>
      </trkpt>
      <trkpt lat="48.68825" lon="1.96941">
        <ele>114.28526306152</ele>
        <time>2016-09-22T11:55:35.000Z</time>
      </trkpt>
      <trkpt lat="48.68825" lon="1.96944">
        <ele>114.23764801025</ele>
        <time>2016-09-22T11:55:37.000Z</time>
      </trkpt>
      <trkpt lat="48.68825" lon="1.96948">
        <ele>114.17873382568</ele>
        <time>2016-09-22T11:55:40.000Z</time>
      </trkpt>
      <trkpt lat="48.68826" lon="1.96951">
        <ele>114.16817474365</ele>
        <time>2016-09-22T11:55:42.000Z</time>
      </trkpt>
      <trkpt lat="48.68826" lon="1.96955">
        <ele>114.11512756348</ele>
        <time>2016-09-22T11:55:45.000Z</time>
      </trkpt>
      <trkpt lat="48.68827" lon="1.9696">
        <ele>114.02906799316</ele>
        <time>2016-09-22T11:55:48.000Z</time>
      </trkpt>
      <trkpt lat="48.68829" lon="1.96963">
        <ele>113.98323059082</ele>
        <time>2016-09-22T11:55:51.000Z</time>
      </trkpt>
      <trkpt lat="48.68832" lon="1.96966">
        <ele>113.99090576172</ele>
        <time>2016-09-22T11:55:53.000Z</time>
      </trkpt>
      <trkpt lat="48.68834" lon="1.96973">
        <ele>113.98406982422</ele>
        <time>2016-09-22T11:55:56.000Z</time>
      </trkpt>
      <trkpt lat="48.68834" lon="1.96978">
        <ele>113.96482086182</ele>
        <time>2016-09-22T11:55:58.000Z</time>
      </trkpt>
      <trkpt lat="48.68835" lon="1.96985">
        <ele>113.91111755371</ele>
        <time>2016-09-22T11:56:01.000Z</time>
      </trkpt>
      <trkpt lat="48.68834" lon="1.96993">
        <ele>113.77909088135</ele>
        <time>2016-09-22T11:56:03.000Z</time>
      </trkpt>
      <trkpt lat="48.68833" lon="1.96998">
        <ele>113.56681060791</ele>
        <time>2016-09-22T11:56:05.000Z</time>
      </trkpt>
      <trkpt lat="48.68832" lon="1.97004">
        <ele>113.36059570312</ele>
        <time>2016-09-22T11:56:08.000Z</time>
      </trkpt>
      <trkpt lat="48.68833" lon="1.97006">
        <ele>113.20536804199</ele>
        <time>2016-09-22T11:56:10.000Z</time>
      </trkpt>
      <trkpt lat="48.68834" lon="1.97007">
        <ele>113.12819671631</ele>
        <time>2016-09-22T11:56:13.000Z</time>
      </trkpt>
      <trkpt lat="48.68836" lon="1.97007">
        <ele>113.13835144043</ele>
        <time>2016-09-22T11:56:15.000Z</time>
      </trkpt>
      <trkpt lat="48.68838" lon="1.97009">
        <ele>113.22108459473</ele>
        <time>2016-09-22T11:56:17.000Z</time>
      </trkpt>
      <trkpt lat="48.6884" lon="1.97014">
        <ele>113.3579864502</ele>
        <time>2016-09-22T11:56:20.000Z</time>
      </trkpt>
      <trkpt lat="48.6884" lon="1.97018">
        <ele>113.50632476807</ele>
        <time>2016-09-22T11:56:23.000Z</time>
      </trkpt>
      <trkpt lat="48.68841" lon="1.9702">
        <ele>113.6393661499</ele>
        <time>2016-09-22T11:56:25.000Z</time>
      </trkpt>
      <trkpt lat="48.68842" lon="1.97023">
        <ele>113.77559661865</ele>
        <time>2016-09-22T11:56:28.000Z</time>
      </trkpt>
      <trkpt lat="48.68845" lon="1.97027">
        <ele>113.92964172363</ele>
        <time>2016-09-22T11:56:31.000Z</time>
      </trkpt>
      <trkpt lat="48.68846" lon="1.97032">
        <ele>114.07022857666</ele>
        <time>2016-09-22T11:56:34.000Z</time>
      </trkpt>
      <trkpt lat="48.68847" lon="1.97036">
        <ele>114.20971679688</ele>
        <time>2016-09-22T11:56:37.000Z</time>
      </trkpt>
      <trkpt lat="48.68847" lon="1.9704">
        <ele>114.35050201416</ele>
        <time>2016-09-22T11:56:39.000Z</time>
      </trkpt>
      <trkpt lat="48.68847" lon="1.97045">
        <ele>114.48469543457</ele>
        <time>2016-09-22T11:56:42.000Z</time>
      </trkpt>
      <trkpt lat="48.68847" lon="1.9705">
        <ele>114.60066223145</ele>
        <time>2016-09-22T11:56:45.000Z</time>
      </trkpt>
      <trkpt lat="48.68847" lon="1.97054">
        <ele>114.70497894287</ele>
        <time>2016-09-22T11:56:47.000Z</time>
      </trkpt>
      <trkpt lat="48.68847" lon="1.97056">
        <ele>114.79042816162</ele>
        <time>2016-09-22T11:56:50.000Z</time>
      </trkpt>
      <trkpt lat="48.68847" lon="1.97061">
        <ele>114.87442779541</ele>
        <time>2016-09-22T11:56:53.000Z</time>
      </trkpt>
      <trkpt lat="48.68847" lon="1.97064">
        <ele>114.95371246338</ele>
        <time>2016-09-22T11:56:55.000Z</time>
      </trkpt>
      <trkpt lat="48.68848" lon="1.9707">
        <ele>115.03884124756</ele>
        <time>2016-09-22T11:56:58.000Z</time>
      </trkpt>
      <trkpt lat="48.68848" lon="1.97073">
        <ele>115.12297058105</ele>
        <time>2016-09-22T11:57:00.000Z</time>
      </trkpt>
      <trkpt lat="48.68849" lon="1.97078">
        <ele>115.22470855713</ele>
        <time>2016-09-22T11:57:03.000Z</time>
      </trkpt>
      <trkpt lat="48.6885" lon="1.97081">
        <ele>115.3360824585</ele>
        <time>2016-09-22T11:57:06.000Z</time>
      </trkpt>
      <trkpt lat="48.68851" lon="1.97085">
        <ele>115.4457244873</ele>
        <time>2016-09-22T11:57:09.000Z</time>
      </trkpt>
      <trkpt lat="48.68853" lon="1.97088">
        <ele>115.5337677002</ele>
        <time>2016-09-22T11:57:12.000Z</time>
      </trkpt>
      <trkpt lat="48.68854" lon="1.97089">
        <ele>115.6183013916</ele>
        <time>2016-09-22T11:57:14.000Z</time>
      </trkpt>
      <trkpt lat="48.68855" lon="1.9709">
        <ele>115.68707275391</ele>
        <time>2016-09-22T11:57:16.000Z</time>
      </trkpt>
      <trkpt lat="48.68856" lon="1.97092">
        <ele>115.7353515625</ele>
        <time>2016-09-22T11:57:18.000Z</time>
      </trkpt>
      <trkpt lat="48.68855" lon="1.97096">
        <ele>115.767578125</ele>
        <time>2016-09-22T11:57:20.000Z</time>
      </trkpt>
      <trkpt lat="48.68855" lon="1.97099">
        <ele>115.78515625</ele>
        <time>2016-09-22T11:57:23.000Z</time>
      </trkpt>
      <trkpt lat="48.68855" lon="1.97101">
        <ele>115.791015625</ele>
        <time>2016-09-22T11:57:25.000Z</time>
      </trkpt>
      <trkpt lat="48.68855" lon="1.97104">
        <ele>115.78515625</ele>
        <time>2016-09-22T11:57:27.000Z</time>
      </trkpt>
      <trkpt lat="48.68853" lon="1.97109">
        <ele>115.767578125</ele>
        <time>2016-09-22T11:57:30.000Z</time>
      </trkpt>
      <trkpt lat="48.68853" lon="1.97112">
        <ele>115.7470703125</ele>
        <time>2016-09-22T11:57:33.000Z</time>
      </trkpt>
      <trkpt lat="48.68853" lon="1.97112">
        <ele>115.7470703125</ele>
        <time>2016-09-22T11:57:53.000Z</time>
      </trkpt>
      <trkpt lat="48.68852" lon="1.97116">
        <ele>115.7265625</ele>
        <time>2016-09-22T11:58:01.000Z</time>
      </trkpt>
      <trkpt lat="48.68849" lon="1.97119">
        <ele>115.6826171875</ele>
        <time>2016-09-22T11:58:04.000Z</time>
      </trkpt>
      <trkpt lat="48.68847" lon="1.97122">
        <ele>115.626953125</ele>
        <time>2016-09-22T11:58:06.000Z</time>
      </trkpt>
      <trkpt lat="48.68844" lon="1.97127">
        <ele>115.5625</ele>
        <time>2016-09-22T11:58:09.000Z</time>
      </trkpt>
      <trkpt lat="48.68842" lon="1.97132">
        <ele>115.4833984375</ele>
        <time>2016-09-22T11:58:12.000Z</time>
      </trkpt>
      <trkpt lat="48.68838" lon="1.97134">
        <ele>115.380859375</ele>
        <time>2016-09-22T11:58:15.000Z</time>
      </trkpt>
      <trkpt lat="48.68835" lon="1.97137">
        <ele>115.28125</ele>
        <time>2016-09-22T11:58:17.000Z</time>
      </trkpt>
      <trkpt lat="48.6883" lon="1.97141">
        <ele>115.15325927734</ele>
        <time>2016-09-22T11:58:20.000Z</time>
      </trkpt>
      <trkpt lat="48.68828" lon="1.97145">
        <ele>115.01258850098</ele>
        <time>2016-09-22T11:58:22.000Z</time>
      </trkpt>
      <trkpt lat="48.68826" lon="1.97149">
        <ele>114.87202453613</ele>
        <time>2016-09-22T11:58:24.000Z</time>
      </trkpt>
      <trkpt lat="48.68823" lon="1.97152">
        <ele>114.72951507568</ele>
        <time>2016-09-22T11:58:27.000Z</time>
      </trkpt>
      <trkpt lat="48.68821" lon="1.97153">
        <ele>114.58725738525</ele>
        <time>2016-09-22T11:58:38.000Z</time>
      </trkpt>
      <trkpt lat="48.68819" lon="1.97154">
        <ele>114.47580718994</ele>
        <time>2016-09-22T11:58:40.000Z</time>
      </trkpt>
      <trkpt lat="48.68818" lon="1.97155">
        <ele>114.37873840332</ele>
        <time>2016-09-22T11:58:42.000Z</time>
      </trkpt>
      <trkpt lat="48.68816" lon="1.97157">
        <ele>114.28686523438</ele>
        <time>2016-09-22T11:58:44.000Z</time>
      </trkpt>
      <trkpt lat="48.68814" lon="1.97161">
        <ele>114.20808410645</ele>
        <time>2016-09-22T11:58:47.000Z</time>
      </trkpt>
      <trkpt lat="48.68811" lon="1.97167">
        <ele>114.12724304199</ele>
        <time>2016-09-22T11:58:50.000Z</time>
      </trkpt>
      <trkpt lat="48.68808" lon="1.97172">
        <ele>114.01200866699</ele>
        <time>2016-09-22T11:58:53.000Z</time>
      </trkpt>
      <trkpt lat="48.68804" lon="1.97176">
        <ele>113.86694335938</ele>
        <time>2016-09-22T11:58:55.000Z</time>
      </trkpt>
      <trkpt lat="48.68801" lon="1.9718">
        <ele>113.70391845703</ele>
        <time>2016-09-22T11:58:57.000Z</time>
      </trkpt>
      <trkpt lat="48.68797" lon="1.97185">
        <ele>113.50119781494</ele>
        <time>2016-09-22T11:59:00.000Z</time>
      </trkpt>
      <trkpt lat="48.68795" lon="1.97188">
        <ele>113.29528808594</ele>
        <time>2016-09-22T11:59:02.000Z</time>
      </trkpt>
      <trkpt lat="48.68791" lon="1.97191">
        <ele>113.087890625</ele>
        <time>2016-09-22T11:59:05.000Z</time>
      </trkpt>
      <trkpt lat="48.68789" lon="1.97194">
        <ele>112.90454101562</ele>
        <time>2016-09-22T11:59:07.000Z</time>
      </trkpt>
      <trkpt lat="48.68787" lon="1.97199">
        <ele>112.71502685547</ele>
        <time>2016-09-22T11:59:10.000Z</time>
      </trkpt>
      <trkpt lat="48.68785" lon="1.97203">
        <ele>112.55027008057</ele>
        <time>2016-09-22T11:59:13.000Z</time>
      </trkpt>
      <trkpt lat="48.68783" lon="1.97207">
        <ele>112.38659667969</ele>
        <time>2016-09-22T11:59:15.000Z</time>
      </trkpt>
      <trkpt lat="48.6878" lon="1.97212">
        <ele>112.23199462891</ele>
        <time>2016-09-22T11:59:18.000Z</time>
      </trkpt>
      <trkpt lat="48.68779" lon="1.97215">
        <ele>112.08095550537</ele>
        <time>2016-09-22T11:59:30.000Z</time>
      </trkpt>
      <trkpt lat="48.68777" lon="1.97219">
        <ele>111.93872070312</ele>
        <time>2016-09-22T11:59:33.000Z</time>
      </trkpt>
      <trkpt lat="48.68776" lon="1.97222">
        <ele>111.81573486328</ele>
        <time>2016-09-22T11:59:35.000Z</time>
      </trkpt>
      <trkpt lat="48.68775" lon="1.97218">
        <ele>111.71523284912</ele>
        <time>2016-09-22T11:59:44.000Z</time>
      </trkpt>
      <trkpt lat="48.68774" lon="1.97219">
        <ele>111.64052581787</ele>
        <time>2016-09-22T12:00:04.000Z</time>
      </trkpt>
      <trkpt lat="48.68773" lon="1.97217">
        <ele>111.57672119141</ele>
        <time>2016-09-22T12:00:06.000Z</time>
      </trkpt>
      <trkpt lat="48.68773" lon="1.97217">
        <ele>111.57672119141</ele>
        <time>2016-09-22T12:00:26.000Z</time>
      </trkpt>
      <trkpt lat="48.68772" lon="1.97214">
        <ele>111.5428237915</ele>
        <time>2016-09-22T12:01:23.000Z</time>
      </trkpt>
      <trkpt lat="48.68772" lon="1.97214">
        <ele>111.5428237915</ele>
        <time>2016-09-22T12:01:43.000Z</time>
      </trkpt>
      <trkpt lat="48.6877" lon="1.97211">
        <ele>111.51177978516</ele>
        <time>2016-09-22T12:02:47.000Z</time>
      </trkpt>
      <trkpt lat="48.68772" lon="1.97214">
        <ele>111.49069976807</ele>
        <time>2016-09-22T12:02:51.000Z</time>
      </trkpt>
      <trkpt lat="48.68773" lon="1.97217">
        <ele>111.48315429688</ele>
        <time>2016-09-22T12:02:53.000Z</time>
      </trkpt>
      <trkpt lat="48.68773" lon="1.97222">
        <ele>111.46655273438</ele>
        <time>2016-09-22T12:02:56.000Z</time>
      </trkpt>
      <trkpt lat="48.68773" lon="1.97226">
        <ele>111.44008636475</ele>
        <time>2016-09-22T12:02:59.000Z</time>
      </trkpt>
      <trkpt lat="48.68772" lon="1.97229">
        <ele>111.407371521</ele>
        <time>2016-09-22T12:03:01.000Z</time>
      </trkpt>
      <trkpt lat="48.68771" lon="1.97233">
        <ele>111.35247802734</ele>
        <time>2016-09-22T12:03:04.000Z</time>
      </trkpt>
      <trkpt lat="48.68772" lon="1.97236">
        <ele>111.29538726807</ele>
        <time>2016-09-22T12:03:06.000Z</time>
      </trkpt>
      <trkpt lat="48.68773" lon="1.97238">
        <ele>111.2578125</ele>
        <time>2016-09-22T12:03:08.000Z</time>
      </trkpt>
      <trkpt lat="48.68774" lon="1.9724">
        <ele>111.23757171631</ele>
        <time>2016-09-22T12:04:21.000Z</time>
      </trkpt>
      <trkpt lat="48.68773" lon="1.97241">
        <ele>111.21730804443</ele>
        <time>2016-09-22T12:04:26.000Z</time>
      </trkpt>
      <trkpt lat="48.68774" lon="1.97244">
        <ele>111.21478271484</ele>
        <time>2016-09-22T12:04:28.000Z</time>
      </trkpt>
      <trkpt lat="48.68775" lon="1.97251">
        <ele>111.20853424072</ele>
        <time>2016-09-22T12:04:31.000Z</time>
      </trkpt>
      <trkpt lat="48.68775" lon="1.97255">
        <ele>111.16694641113</ele>
        <time>2016-09-22T12:04:34.000Z</time>
      </trkpt>
      <trkpt lat="48.68775" lon="1.97261">
        <ele>111.08475494385</ele>
        <time>2016-09-22T12:04:37.000Z</time>
      </trkpt>
      <trkpt lat="48.68776" lon="1.97266">
        <ele>110.99360656738</ele>
        <time>2016-09-22T12:04:40.000Z</time>
      </trkpt>
      <trkpt lat="48.68777" lon="1.97269">
        <ele>110.89392089844</ele>
        <time>2016-09-22T12:04:42.000Z</time>
      </trkpt>
      <trkpt lat="48.68779" lon="1.97273">
        <ele>110.79044342041</ele>
        <time>2016-09-22T12:04:45.000Z</time>
      </trkpt>
      <trkpt lat="48.68781" lon="1.97276">
        <ele>110.71573638916</ele>
        <time>2016-09-22T12:04:47.000Z</time>
      </trkpt>
      <trkpt lat="48.68782" lon="1.97281">
        <ele>110.66386413574</ele>
        <time>2016-09-22T12:04:50.000Z</time>
      </trkpt>
      <trkpt lat="48.68783" lon="1.97288">
        <ele>110.6024017334</ele>
        <time>2016-09-22T12:04:53.000Z</time>
      </trkpt>
      <trkpt lat="48.68784" lon="1.97292">
        <ele>110.52126312256</ele>
        <time>2016-09-22T12:04:55.000Z</time>
      </trkpt>
      <trkpt lat="48.68785" lon="1.97299">
        <ele>110.42836761475</ele>
        <time>2016-09-22T12:04:58.000Z</time>
      </trkpt>
      <trkpt lat="48.68786" lon="1.97303">
        <ele>110.31868743896</ele>
        <time>2016-09-22T12:05:00.000Z</time>
      </trkpt>
      <trkpt lat="48.68787" lon="1.97307">
        <ele>110.20417785645</ele>
        <time>2016-09-22T12:05:02.000Z</time>
      </trkpt>
      <trkpt lat="48.68787" lon="1.97311">
        <ele>110.09928131104</ele>
        <time>2016-09-22T12:05:05.000Z</time>
      </trkpt>
      <trkpt lat="48.68787" lon="1.97314">
        <ele>110.00521087646</ele>
        <time>2016-09-22T12:05:07.000Z</time>
      </trkpt>
      <trkpt lat="48.68788" lon="1.97317">
        <ele>109.9260635376</ele>
        <time>2016-09-22T12:05:09.000Z</time>
      </trkpt>
      <trkpt lat="48.68789" lon="1.97321">
        <ele>109.84909820557</ele>
        <time>2016-09-22T12:05:12.000Z</time>
      </trkpt>
      <trkpt lat="48.68789" lon="1.97324">
        <ele>109.77362060547</ele>
        <time>2016-09-22T12:05:14.000Z</time>
      </trkpt>
      <trkpt lat="48.68789" lon="1.97328">
        <ele>109.69798278809</ele>
        <time>2016-09-22T12:05:16.000Z</time>
      </trkpt>
      <trkpt lat="48.68791" lon="1.97335">
        <ele>109.61763000488</ele>
        <time>2016-09-22T12:05:19.000Z</time>
      </trkpt>
      <trkpt lat="48.68792" lon="1.97339">
        <ele>109.54307556152</ele>
        <time>2016-09-22T12:05:21.000Z</time>
      </trkpt>
      <trkpt lat="48.68792" lon="1.97343">
        <ele>109.48530578613</ele>
        <time>2016-09-22T12:05:24.000Z</time>
      </trkpt>
      <trkpt lat="48.68792" lon="1.97347">
        <ele>109.42750549316</ele>
        <time>2016-09-22T12:05:26.000Z</time>
      </trkpt>
      <trkpt lat="48.68792" lon="1.97351">
        <ele>109.38349914551</ele>
        <time>2016-09-22T12:05:28.000Z</time>
      </trkpt>
      <trkpt lat="48.68792" lon="1.97357">
        <ele>109.33927154541</ele>
        <time>2016-09-22T12:05:31.000Z</time>
      </trkpt>
      <trkpt lat="48.68792" lon="1.97363">
        <ele>109.28932952881</ele>
        <time>2016-09-22T12:05:34.000Z</time>
      </trkpt>
      <trkpt lat="48.68792" lon="1.97369">
        <ele>109.22724914551</ele>
        <time>2016-09-22T12:05:37.000Z</time>
      </trkpt>
      <trkpt lat="48.68792" lon="1.97374">
        <ele>109.15870666504</ele>
        <time>2016-09-22T12:05:40.000Z</time>
      </trkpt>
      <trkpt lat="48.68792" lon="1.97377">
        <ele>109.09149169922</ele>
        <time>2016-09-22T12:05:42.000Z</time>
      </trkpt>
      <trkpt lat="48.68792" lon="1.97383">
        <ele>109.03293609619</ele>
        <time>2016-09-22T12:05:45.000Z</time>
      </trkpt>
      <trkpt lat="48.68792" lon="1.97387">
        <ele>108.97170257568</ele>
        <time>2016-09-22T12:05:47.000Z</time>
      </trkpt>
      <trkpt lat="48.68792" lon="1.97392">
        <ele>108.91047668457</ele>
        <time>2016-09-22T12:05:50.000Z</time>
      </trkpt>
      <trkpt lat="48.68792" lon="1.97396">
        <ele>108.85687255859</ele>
        <time>2016-09-22T12:05:52.000Z</time>
      </trkpt>
      <trkpt lat="48.68793" lon="1.97403">
        <ele>108.80543518066</ele>
        <time>2016-09-22T12:05:55.000Z</time>
      </trkpt>
      <trkpt lat="48.68794" lon="1.97409">
        <ele>108.75905609131</ele>
        <time>2016-09-22T12:05:58.000Z</time>
      </trkpt>
      <trkpt lat="48.68795" lon="1.97414">
        <ele>108.72164154053</ele>
        <time>2016-09-22T12:06:01.000Z</time>
      </trkpt>
      <trkpt lat="48.68796" lon="1.9742">
        <ele>108.67753601074</ele>
        <time>2016-09-22T12:06:04.000Z</time>
      </trkpt>
      <trkpt lat="48.68797" lon="1.97425">
        <ele>108.62110900879</ele>
        <time>2016-09-22T12:06:07.000Z</time>
      </trkpt>
      <trkpt lat="48.68797" lon="1.97431">
        <ele>108.54293060303</ele>
        <time>2016-09-22T12:06:10.000Z</time>
      </trkpt>
      <trkpt lat="48.68797" lon="1.97434">
        <ele>108.45393371582</ele>
        <time>2016-09-22T12:06:12.000Z</time>
      </trkpt>
      <trkpt lat="48.68797" lon="1.97438">
        <ele>108.34855651855</ele>
        <time>2016-09-22T12:06:14.000Z</time>
      </trkpt>
      <trkpt lat="48.68798" lon="1.97442">
        <ele>108.24942779541</ele>
        <time>2016-09-22T12:06:16.000Z</time>
      </trkpt>
      <trkpt lat="48.68799" lon="1.97445">
        <ele>108.16473388672</ele>
        <time>2016-09-22T12:06:18.000Z</time>
      </trkpt>
      <trkpt lat="48.68799" lon="1.97446">
        <ele>108.10285949707</ele>
        <time>2016-09-22T12:06:24.000Z</time>
      </trkpt>
      <trkpt lat="48.688" lon="1.97449">
        <ele>108.0446395874</ele>
        <time>2016-09-22T12:06:26.000Z</time>
      </trkpt>
      <trkpt lat="48.688" lon="1.97452">
        <ele>107.99101257324</ele>
        <time>2016-09-22T12:06:28.000Z</time>
      </trkpt>
      <trkpt lat="48.68801" lon="1.97457">
        <ele>107.92740631104</ele>
        <time>2016-09-22T12:06:31.000Z</time>
      </trkpt>
      <trkpt lat="48.68801" lon="1.97461">
        <ele>107.85475921631</ele>
        <time>2016-09-22T12:06:33.000Z</time>
      </trkpt>
      <trkpt lat="48.68801" lon="1.97466">
        <ele>107.75849914551</ele>
        <time>2016-09-22T12:06:36.000Z</time>
      </trkpt>
      <trkpt lat="48.68802" lon="1.9747">
        <ele>107.65653991699</ele>
        <time>2016-09-22T12:06:38.000Z</time>
      </trkpt>
      <trkpt lat="48.68804" lon="1.97475">
        <ele>107.54756164551</ele>
        <time>2016-09-22T12:06:41.000Z</time>
      </trkpt>
      <trkpt lat="48.68808" lon="1.97481">
        <ele>107.44068908691</ele>
        <time>2016-09-22T12:06:44.000Z</time>
      </trkpt>
      <trkpt lat="48.6881" lon="1.97485">
        <ele>107.3374786377</ele>
        <time>2016-09-22T12:06:46.000Z</time>
      </trkpt>
      <trkpt lat="48.68812" lon="1.97488">
        <ele>107.2532119751</ele>
        <time>2016-09-22T12:06:48.000Z</time>
      </trkpt>
      <trkpt lat="48.68816" lon="1.97491">
        <ele>107.17967224121</ele>
        <time>2016-09-22T12:06:50.000Z</time>
      </trkpt>
      <trkpt lat="48.68819" lon="1.97495">
        <ele>107.10569763184</ele>
        <time>2016-09-22T12:06:53.000Z</time>
      </trkpt>
      <trkpt lat="48.68822" lon="1.97499">
        <ele>107.03670501709</ele>
        <time>2016-09-22T12:06:56.000Z</time>
      </trkpt>
      <trkpt lat="48.68823" lon="1.97501">
        <ele>106.97581481934</ele>
        <time>2016-09-22T12:06:58.000Z</time>
      </trkpt>
      <trkpt lat="48.68825" lon="1.97503">
        <ele>106.91152191162</ele>
        <time>2016-09-22T12:07:01.000Z</time>
      </trkpt>
      <trkpt lat="48.68827" lon="1.97504">
        <ele>106.85008239746</ele>
        <time>2016-09-22T12:07:03.000Z</time>
      </trkpt>
      <trkpt lat="48.68831" lon="1.97506">
        <ele>106.80954742432</ele>
        <time>2016-09-22T12:07:06.000Z</time>
      </trkpt>
      <trkpt lat="48.68834" lon="1.97506">
        <ele>106.78871917725</ele>
        <time>2016-09-22T12:07:08.000Z</time>
      </trkpt>
      <trkpt lat="48.68838" lon="1.97507">
        <ele>106.7794418335</ele>
        <time>2016-09-22T12:07:11.000Z</time>
      </trkpt>
      <trkpt lat="48.68841" lon="1.97508">
        <ele>106.78234863281</ele>
        <time>2016-09-22T12:07:13.000Z</time>
      </trkpt>
      <trkpt lat="48.68844" lon="1.97509">
        <ele>106.78938293457</ele>
        <time>2016-09-22T12:07:16.000Z</time>
      </trkpt>
      <trkpt lat="48.68845" lon="1.9751">
        <ele>106.78851318359</ele>
        <time>2016-09-22T12:07:18.000Z</time>
      </trkpt>
      <trkpt lat="48.68847" lon="1.97513">
        <ele>106.76953125</ele>
        <time>2016-09-22T12:07:21.000Z</time>
      </trkpt>
      <trkpt lat="48.68848" lon="1.97516">
        <ele>106.72910308838</ele>
        <time>2016-09-22T12:07:23.000Z</time>
      </trkpt>
      <trkpt lat="48.6885" lon="1.9752">
        <ele>106.66371917725</ele>
        <time>2016-09-22T12:07:26.000Z</time>
      </trkpt>
      <trkpt lat="48.68851" lon="1.97525">
        <ele>106.57033538818</ele>
        <time>2016-09-22T12:07:28.000Z</time>
      </trkpt>
      <trkpt lat="48.68852" lon="1.97531">
        <ele>106.4376449585</ele>
        <time>2016-09-22T12:07:31.000Z</time>
      </trkpt>
      <trkpt lat="48.68852" lon="1.97535">
        <ele>106.29055023193</ele>
        <time>2016-09-22T12:07:33.000Z</time>
      </trkpt>
      <trkpt lat="48.68853" lon="1.97542">
        <ele>106.11753082275</ele>
        <time>2016-09-22T12:07:36.000Z</time>
      </trkpt>
      <trkpt lat="48.68853" lon="1.97545">
        <ele>105.94329833984</ele>
        <time>2016-09-22T12:07:38.000Z</time>
      </trkpt>
      <trkpt lat="48.68853" lon="1.97551">
        <ele>105.75612640381</ele>
        <time>2016-09-22T12:07:41.000Z</time>
      </trkpt>
      <trkpt lat="48.68853" lon="1.97556">
        <ele>105.57922363281</ele>
        <time>2016-09-22T12:07:44.000Z</time>
      </trkpt>
      <trkpt lat="48.68853" lon="1.97563">
        <ele>105.38632965088</ele>
        <time>2016-09-22T12:07:47.000Z</time>
      </trkpt>
      <trkpt lat="48.68852" lon="1.9757">
        <ele>105.18003082275</ele>
        <time>2016-09-22T12:07:50.000Z</time>
      </trkpt>
      <trkpt lat="48.68851" lon="1.97575">
        <ele>104.96421051025</ele>
        <time>2016-09-22T12:07:52.000Z</time>
      </trkpt>
      <trkpt lat="48.6885" lon="1.97581">
        <ele>104.74475097656</ele>
        <time>2016-09-22T12:07:55.000Z</time>
      </trkpt>
      <trkpt lat="48.6885" lon="1.97587">
        <ele>104.51230621338</ele>
        <time>2016-09-22T12:07:58.000Z</time>
      </trkpt>
      <trkpt lat="48.68849" lon="1.97592">
        <ele>104.28195953369</ele>
        <time>2016-09-22T12:08:01.000Z</time>
      </trkpt>
      <trkpt lat="48.68849" lon="1.97596">
        <ele>104.07957458496</ele>
        <time>2016-09-22T12:08:04.000Z</time>
      </trkpt>
      <trkpt lat="48.6885" lon="1.97599">
        <ele>103.89388275146</ele>
        <time>2016-09-22T12:08:06.000Z</time>
      </trkpt>
      <trkpt lat="48.6885" lon="1.97604">
        <ele>103.71635437012</ele>
        <time>2016-09-22T12:08:09.000Z</time>
      </trkpt>
      <trkpt lat="48.68851" lon="1.97609">
        <ele>103.55061340332</ele>
        <time>2016-09-22T12:08:12.000Z</time>
      </trkpt>
      <trkpt lat="48.68851" lon="1.97613">
        <ele>103.39448547363</ele>
        <time>2016-09-22T12:08:15.000Z</time>
      </trkpt>
      <trkpt lat="48.68852" lon="1.97618">
        <ele>103.23529052734</ele>
        <time>2016-09-22T12:08:18.000Z</time>
      </trkpt>
      <trkpt lat="48.68851" lon="1.97625">
        <ele>103.0396270752</ele>
        <time>2016-09-22T12:08:21.000Z</time>
      </trkpt>
      <trkpt lat="48.68851" lon="1.9763">
        <ele>102.83741760254</ele>
        <time>2016-09-22T12:08:23.000Z</time>
      </trkpt>
      <trkpt lat="48.6885" lon="1.97638">
        <ele>102.61445617676</ele>
        <time>2016-09-22T12:08:26.000Z</time>
      </trkpt>
      <trkpt lat="48.6885" lon="1.97643">
        <ele>102.38720703125</ele>
        <time>2016-09-22T12:08:28.000Z</time>
      </trkpt>
      <trkpt lat="48.68849" lon="1.97647">
        <ele>102.16160583496</ele>
        <time>2016-09-22T12:08:30.000Z</time>
      </trkpt>
      <trkpt lat="48.68848" lon="1.97654">
        <ele>101.93757629395</ele>
        <time>2016-09-22T12:08:33.000Z</time>
      </trkpt>
      <trkpt lat="48.68848" lon="1.97658">
        <ele>101.72190093994</ele>
        <time>2016-09-22T12:08:35.000Z</time>
      </trkpt>
      <trkpt lat="48.68848" lon="1.97664">
        <ele>101.51741790771</ele>
        <time>2016-09-22T12:08:38.000Z</time>
      </trkpt>
      <trkpt lat="48.68849" lon="1.97669">
        <ele>101.32479095459</ele>
        <time>2016-09-22T12:08:41.000Z</time>
      </trkpt>
      <trkpt lat="48.68851" lon="1.97675">
        <ele>101.13722991943</ele>
        <time>2016-09-22T12:08:44.000Z</time>
      </trkpt>
      <trkpt lat="48.68853" lon="1.9768">
        <ele>100.98178863525</ele>
        <time>2016-09-22T12:08:47.000Z</time>
      </trkpt>
      <trkpt lat="48.68854" lon="1.97683">
        <ele>100.84959411621</ele>
        <time>2016-09-22T12:08:49.000Z</time>
      </trkpt>
      <trkpt lat="48.68855" lon="1.97686">
        <ele>100.75301361084</ele>
        <time>2016-09-22T12:08:51.000Z</time>
      </trkpt>
      <trkpt lat="48.68858" lon="1.97689">
        <ele>100.66885375977</ele>
        <time>2016-09-22T12:08:54.000Z</time>
      </trkpt>
      <trkpt lat="48.6886" lon="1.97693">
        <ele>100.59815979004</ele>
        <time>2016-09-22T12:08:57.000Z</time>
      </trkpt>
      <trkpt lat="48.68863" lon="1.97695">
        <ele>100.54386901855</ele>
        <time>2016-09-22T12:09:00.000Z</time>
      </trkpt>
      <trkpt lat="48.68864" lon="1.97697">
        <ele>100.49546813965</ele>
        <time>2016-09-22T12:09:02.000Z</time>
      </trkpt>
      <trkpt lat="48.68867" lon="1.97699">
        <ele>100.45194244385</ele>
        <time>2016-09-22T12:09:05.000Z</time>
      </trkpt>
      <trkpt lat="48.68871" lon="1.97702">
        <ele>100.41386413574</ele>
        <time>2016-09-22T12:09:08.000Z</time>
      </trkpt>
      <trkpt lat="48.68872" lon="1.97703">
        <ele>100.38366699219</ele>
        <time>2016-09-22T12:09:10.000Z</time>
      </trkpt>
      <trkpt lat="48.68876" lon="1.97706">
        <ele>100.35335540771</ele>
        <time>2016-09-22T12:09:13.000Z</time>
      </trkpt>
      <trkpt lat="48.68877" lon="1.97708">
        <ele>100.32460021973</ele>
        <time>2016-09-22T12:09:15.000Z</time>
      </trkpt>
      <trkpt lat="48.68878" lon="1.9771">
        <ele>100.29350280762</ele>
        <time>2016-09-22T12:09:18.000Z</time>
      </trkpt>
      <trkpt lat="48.68877" lon="1.97712">
        <ele>100.26268005371</ele>
        <time>2016-09-22T12:09:24.000Z</time>
      </trkpt>
      <trkpt lat="48.6888" lon="1.97713">
        <ele>100.2371673584</ele>
        <time>2016-09-22T12:09:27.000Z</time>
      </trkpt>
      <trkpt lat="48.68883" lon="1.97714">
        <ele>100.21784973145</ele>
        <time>2016-09-22T12:09:29.000Z</time>
      </trkpt>
      <trkpt lat="48.68887" lon="1.97718">
        <ele>100.19758605957</ele>
        <time>2016-09-22T12:09:32.000Z</time>
      </trkpt>
      <trkpt lat="48.68891" lon="1.97721">
        <ele>100.17967224121</ele>
        <time>2016-09-22T12:09:35.000Z</time>
      </trkpt>
      <trkpt lat="48.68895" lon="1.97725">
        <ele>100.16653442383</ele>
        <time>2016-09-22T12:09:38.000Z</time>
      </trkpt>
      <trkpt lat="48.68898" lon="1.97726">
        <ele>100.15171813965</ele>
        <time>2016-09-22T12:09:40.000Z</time>
      </trkpt>
      <trkpt lat="48.68902" lon="1.9773">
        <ele>100.13513183594</ele>
        <time>2016-09-22T12:09:43.000Z</time>
      </trkpt>
      <trkpt lat="48.68904" lon="1.97732">
        <ele>100.12104034424</ele>
        <time>2016-09-22T12:09:45.000Z</time>
      </trkpt>
      <trkpt lat="48.68908" lon="1.97735">
        <ele>100.11043548584</ele>
        <time>2016-09-22T12:09:48.000Z</time>
      </trkpt>
      <trkpt lat="48.68912" lon="1.97738">
        <ele>100.104347229</ele>
        <time>2016-09-22T12:09:51.000Z</time>
      </trkpt>
      <trkpt lat="48.68915" lon="1.97741">
        <ele>100.09899902344</ele>
        <time>2016-09-22T12:09:54.000Z</time>
      </trkpt>
      <trkpt lat="48.68919" lon="1.97743">
        <ele>100.10797119141</ele>
        <time>2016-09-22T12:09:57.000Z</time>
      </trkpt>
      <trkpt lat="48.68922" lon="1.97745">
        <ele>100.13513946533</ele>
        <time>2016-09-22T12:09:59.000Z</time>
      </trkpt>
      <trkpt lat="48.68925" lon="1.97749">
        <ele>100.17726135254</ele>
        <time>2016-09-22T12:10:02.000Z</time>
      </trkpt>
      <trkpt lat="48.68927" lon="1.9775">
        <ele>100.22858428955</ele>
        <time>2016-09-22T12:10:04.000Z</time>
      </trkpt>
      <trkpt lat="48.6893" lon="1.97753">
        <ele>100.29721069336</ele>
        <time>2016-09-22T12:10:07.000Z</time>
      </trkpt>
      <trkpt lat="48.68932" lon="1.97755">
        <ele>100.36682128906</ele>
        <time>2016-09-22T12:10:09.000Z</time>
      </trkpt>
      <trkpt lat="48.68934" lon="1.97756">
        <ele>100.43124389648</ele>
        <time>2016-09-22T12:10:11.000Z</time>
      </trkpt>
      <trkpt lat="48.68936" lon="1.9776">
        <ele>100.48809814453</ele>
        <time>2016-09-22T12:10:14.000Z</time>
      </trkpt>
      <trkpt lat="48.68938" lon="1.97762">
        <ele>100.53927612305</ele>
        <time>2016-09-22T12:10:16.000Z</time>
      </trkpt>
      <trkpt lat="48.68939" lon="1.97762">
        <ele>100.58526611328</ele>
        <time>2016-09-22T12:10:22.000Z</time>
      </trkpt>
      <trkpt lat="48.68941" lon="1.97764">
        <ele>100.62414550781</ele>
        <time>2016-09-22T12:10:24.000Z</time>
      </trkpt>
      <trkpt lat="48.68942" lon="1.97767">
        <ele>100.65356445312</ele>
        <time>2016-09-22T12:10:26.000Z</time>
      </trkpt>
      <trkpt lat="48.68942" lon="1.97773">
        <ele>100.66525268555</ele>
        <time>2016-09-22T12:10:29.000Z</time>
      </trkpt>
      <trkpt lat="48.68942" lon="1.97776">
        <ele>100.66488647461</ele>
        <time>2016-09-22T12:10:32.000Z</time>
      </trkpt>
      <trkpt lat="48.68943" lon="1.97779">
        <ele>100.64810180664</ele>
        <time>2016-09-22T12:10:34.000Z</time>
      </trkpt>
      <trkpt lat="48.68942" lon="1.97781">
        <ele>100.61614990234</ele>
        <time>2016-09-22T12:10:36.000Z</time>
      </trkpt>
      <trkpt lat="48.68942" lon="1.97783">
        <ele>100.57949829102</ele>
        <time>2016-09-22T12:10:41.000Z</time>
      </trkpt>
      <trkpt lat="48.68941" lon="1.97786">
        <ele>100.54248046875</ele>
        <time>2016-09-22T12:10:43.000Z</time>
      </trkpt>
      <trkpt lat="48.68939" lon="1.97788">
        <ele>100.49304199219</ele>
        <time>2016-09-22T12:10:45.000Z</time>
      </trkpt>
      <trkpt lat="48.68936" lon="1.97792">
        <ele>100.41815185547</ele>
        <time>2016-09-22T12:10:48.000Z</time>
      </trkpt>
      <trkpt lat="48.68933" lon="1.97795">
        <ele>100.31658935547</ele>
        <time>2016-09-22T12:10:51.000Z</time>
      </trkpt>
      <trkpt lat="48.6893" lon="1.978">
        <ele>100.18798828125</ele>
        <time>2016-09-22T12:10:54.000Z</time>
      </trkpt>
      <trkpt lat="48.68927" lon="1.97804">
        <ele>100.04339599609</ele>
        <time>2016-09-22T12:10:57.000Z</time>
      </trkpt>
      <trkpt lat="48.68926" lon="1.97807">
        <ele>99.900360107422</ele>
        <time>2016-09-22T12:10:59.000Z</time>
      </trkpt>
      <trkpt lat="48.68924" lon="1.9781">
        <ele>99.768371582031</ele>
        <time>2016-09-22T12:11:01.000Z</time>
      </trkpt>
      <trkpt lat="48.68922" lon="1.97812">
        <ele>99.652069091797</ele>
        <time>2016-09-22T12:11:03.000Z</time>
      </trkpt>
      <trkpt lat="48.68919" lon="1.97816">
        <ele>99.537017822266</ele>
        <time>2016-09-22T12:11:06.000Z</time>
      </trkpt>
      <trkpt lat="48.68917" lon="1.97821">
        <ele>99.4228515625</ele>
        <time>2016-09-22T12:11:09.000Z</time>
      </trkpt>
      <trkpt lat="48.68914" lon="1.97829">
        <ele>99.288833618164</ele>
        <time>2016-09-22T12:11:12.000Z</time>
      </trkpt>
      <trkpt lat="48.68912" lon="1.97833">
        <ele>99.145812988281</ele>
        <time>2016-09-22T12:11:15.000Z</time>
      </trkpt>
      <trkpt lat="48.68911" lon="1.97835">
        <ele>99.009338378906</ele>
        <time>2016-09-22T12:11:17.000Z</time>
      </trkpt>
      <trkpt lat="48.68908" lon="1.97838">
        <ele>98.874359130859</ele>
        <time>2016-09-22T12:11:20.000Z</time>
      </trkpt>
      <trkpt lat="48.68906" lon="1.9784">
        <ele>98.744354248047</ele>
        <time>2016-09-22T12:11:22.000Z</time>
      </trkpt>
      <trkpt lat="48.68904" lon="1.97843">
        <ele>98.634750366211</ele>
        <time>2016-09-22T12:11:24.000Z</time>
      </trkpt>
      <trkpt lat="48.68901" lon="1.97846">
        <ele>98.525909423828</ele>
        <time>2016-09-22T12:11:27.000Z</time>
      </trkpt>
      <trkpt lat="48.68899" lon="1.97851">
        <ele>98.405944824219</ele>
        <time>2016-09-22T12:11:30.000Z</time>
      </trkpt>
      <trkpt lat="48.68896" lon="1.97855">
        <ele>98.281036376953</ele>
        <time>2016-09-22T12:11:33.000Z</time>
      </trkpt>
      <trkpt lat="48.68895" lon="1.97857">
        <ele>98.160339355469</ele>
        <time>2016-09-22T12:11:35.000Z</time>
      </trkpt>
      <trkpt lat="48.68893" lon="1.9786">
        <ele>98.04248046875</ele>
        <time>2016-09-22T12:11:37.000Z</time>
      </trkpt>
      <trkpt lat="48.6889" lon="1.97866">
        <ele>97.911010742188</ele>
        <time>2016-09-22T12:11:40.000Z</time>
      </trkpt>
      <trkpt lat="48.68886" lon="1.97873">
        <ele>97.763519287109</ele>
        <time>2016-09-22T12:11:43.000Z</time>
      </trkpt>
      <trkpt lat="48.68884" lon="1.97877">
        <ele>97.621337890625</ele>
        <time>2016-09-22T12:11:45.000Z</time>
      </trkpt>
      <trkpt lat="48.68881" lon="1.97882">
        <ele>97.466369628906</ele>
        <time>2016-09-22T12:11:48.000Z</time>
      </trkpt>
      <trkpt lat="48.68879" lon="1.97885">
        <ele>97.300048828125</ele>
        <time>2016-09-22T12:11:51.000Z</time>
      </trkpt>
      <trkpt lat="48.68875" lon="1.9789">
        <ele>97.140533447266</ele>
        <time>2016-09-22T12:11:54.000Z</time>
      </trkpt>
      <trkpt lat="48.68872" lon="1.97894">
        <ele>96.991027832031</ele>
        <time>2016-09-22T12:11:57.000Z</time>
      </trkpt>
      <trkpt lat="48.68872" lon="1.97895">
        <ele>96.859619140625</ele>
        <time>2016-09-22T12:11:59.000Z</time>
      </trkpt>
      <trkpt lat="48.6887" lon="1.97898">
        <ele>96.741058349609</ele>
        <time>2016-09-22T12:12:01.000Z</time>
      </trkpt>
      <trkpt lat="48.68867" lon="1.97903">
        <ele>96.618408203125</ele>
        <time>2016-09-22T12:12:04.000Z</time>
      </trkpt>
      <trkpt lat="48.68865" lon="1.97907">
        <ele>96.500732421875</ele>
        <time>2016-09-22T12:12:07.000Z</time>
      </trkpt>
      <trkpt lat="48.68862" lon="1.97912">
        <ele>96.384979248047</ele>
        <time>2016-09-22T12:12:10.000Z</time>
      </trkpt>
      <trkpt lat="48.68861" lon="1.97915">
        <ele>96.259063720703</ele>
        <time>2016-09-22T12:12:12.000Z</time>
      </trkpt>
      <trkpt lat="48.68859" lon="1.97919">
        <ele>96.14037322998</ele>
        <time>2016-09-22T12:12:15.000Z</time>
      </trkpt>
      <trkpt lat="48.68856" lon="1.97923">
        <ele>96.048286437988</ele>
        <time>2016-09-22T12:12:18.000Z</time>
      </trkpt>
      <trkpt lat="48.68855" lon="1.97925">
        <ele>95.984718322754</ele>
        <time>2016-09-22T12:12:20.000Z</time>
      </trkpt>
      <trkpt lat="48.68852" lon="1.97929">
        <ele>95.943984985352</ele>
        <time>2016-09-22T12:12:23.000Z</time>
      </trkpt>
      <trkpt lat="48.68851" lon="1.9793">
        <ele>95.920593261719</ele>
        <time>2016-09-22T12:12:25.000Z</time>
      </trkpt>
      <trkpt lat="48.68848" lon="1.97933">
        <ele>95.901908874512</ele>
        <time>2016-09-22T12:12:28.000Z</time>
      </trkpt>
      <trkpt lat="48.68846" lon="1.97936">
        <ele>95.882423400879</ele>
        <time>2016-09-22T12:12:31.000Z</time>
      </trkpt>
      <trkpt lat="48.68842" lon="1.97939">
        <ele>95.85725402832</ele>
        <time>2016-09-22T12:12:34.000Z</time>
      </trkpt>
      <trkpt lat="48.6884" lon="1.97942">
        <ele>95.838119506836</ele>
        <time>2016-09-22T12:12:36.000Z</time>
      </trkpt>
      <trkpt lat="48.68838" lon="1.97945">
        <ele>95.823333740234</ele>
        <time>2016-09-22T12:12:39.000Z</time>
      </trkpt>
      <trkpt lat="48.68837" lon="1.97947">
        <ele>95.815307617188</ele>
        <time>2016-09-22T12:12:41.000Z</time>
      </trkpt>
      <trkpt lat="48.68834" lon="1.97951">
        <ele>95.816696166992</ele>
        <time>2016-09-22T12:12:44.000Z</time>
      </trkpt>
      <trkpt lat="48.68833" lon="1.97952">
        <ele>95.827827453613</ele>
        <time>2016-09-22T12:12:46.000Z</time>
      </trkpt>
      <trkpt lat="48.6883" lon="1.97957">
        <ele>95.877510070801</ele>
        <time>2016-09-22T12:12:49.000Z</time>
      </trkpt>
      <trkpt lat="48.68827" lon="1.97962">
        <ele>95.97477722168</ele>
        <time>2016-09-22T12:12:52.000Z</time>
      </trkpt>
      <trkpt lat="48.68824" lon="1.97967">
        <ele>96.111511230469</ele>
        <time>2016-09-22T12:12:55.000Z</time>
      </trkpt>
      <trkpt lat="48.68822" lon="1.9797">
        <ele>96.275817871094</ele>
        <time>2016-09-22T12:12:58.000Z</time>
      </trkpt>
      <trkpt lat="48.68821" lon="1.97974">
        <ele>96.471328735352</ele>
        <time>2016-09-22T12:13:00.000Z</time>
      </trkpt>
      <trkpt lat="48.68819" lon="1.97982">
        <ele>96.682640075684</ele>
        <time>2016-09-22T12:13:03.000Z</time>
      </trkpt>
      <trkpt lat="48.68818" lon="1.97986">
        <ele>96.879959106445</ele>
        <time>2016-09-22T12:13:05.000Z</time>
      </trkpt>
      <trkpt lat="48.68817" lon="1.97991">
        <ele>97.076942443848</ele>
        <time>2016-09-22T12:13:08.000Z</time>
      </trkpt>
      <trkpt lat="48.68816" lon="1.97997">
        <ele>97.294013977051</ele>
        <time>2016-09-22T12:13:11.000Z</time>
      </trkpt>
      <trkpt lat="48.68814" lon="1.98001">
        <ele>97.515159606934</ele>
        <time>2016-09-22T12:13:13.000Z</time>
      </trkpt>
      <trkpt lat="48.68813" lon="1.98005">
        <ele>97.71898651123</ele>
        <time>2016-09-22T12:13:15.000Z</time>
      </trkpt>
      <trkpt lat="48.68812" lon="1.98008">
        <ele>97.916854858398</ele>
        <time>2016-09-22T12:13:17.000Z</time>
      </trkpt>
      <trkpt lat="48.6881" lon="1.98013">
        <ele>98.126327514648</ele>
        <time>2016-09-22T12:13:20.000Z</time>
      </trkpt>
      <trkpt lat="48.68807" lon="1.98016">
        <ele>98.317428588867</ele>
        <time>2016-09-22T12:13:23.000Z</time>
      </trkpt>
      <trkpt lat="48.68805" lon="1.98019">
        <ele>98.50170135498</ele>
        <time>2016-09-22T12:13:25.000Z</time>
      </trkpt>
      <trkpt lat="48.68804" lon="1.98022">
        <ele>98.679977416992</ele>
        <time>2016-09-22T12:13:28.000Z</time>
      </trkpt>
      <trkpt lat="48.68802" lon="1.98025">
        <ele>98.862060546875</ele>
        <time>2016-09-22T12:13:31.000Z</time>
      </trkpt>
      <trkpt lat="48.688" lon="1.98029">
        <ele>99.025657653809</ele>
        <time>2016-09-22T12:13:35.000Z</time>
      </trkpt>
      <trkpt lat="48.68801" lon="1.98033">
        <ele>99.172409057617</ele>
        <time>2016-09-22T12:13:37.000Z</time>
      </trkpt>
      <trkpt lat="48.68801" lon="1.98037">
        <ele>99.301940917969</ele>
        <time>2016-09-22T12:13:39.000Z</time>
      </trkpt>
      <trkpt lat="48.68801" lon="1.98043">
        <ele>99.431716918945</ele>
        <time>2016-09-22T12:13:42.000Z</time>
      </trkpt>
      <trkpt lat="48.68801" lon="1.98047">
        <ele>99.55118560791</ele>
        <time>2016-09-22T12:13:45.000Z</time>
      </trkpt>
      <trkpt lat="48.68801" lon="1.98051">
        <ele>99.65699005127</ele>
        <time>2016-09-22T12:13:47.000Z</time>
      </trkpt>
      <trkpt lat="48.68801" lon="1.98057">
        <ele>99.77774810791</ele>
        <time>2016-09-22T12:13:50.000Z</time>
      </trkpt>
      <trkpt lat="48.68801" lon="1.9806">
        <ele>99.899375915527</ele>
        <time>2016-09-22T12:13:52.000Z</time>
      </trkpt>
      <trkpt lat="48.68801" lon="1.98063">
        <ele>100.00547790527</ele>
        <time>2016-09-22T12:13:54.000Z</time>
      </trkpt>
      <trkpt lat="48.68802" lon="1.98065">
        <ele>100.09887695312</ele>
        <time>2016-09-22T12:13:56.000Z</time>
      </trkpt>
      <trkpt lat="48.68803" lon="1.98068">
        <ele>100.18866729736</ele>
        <time>2016-09-22T12:13:59.000Z</time>
      </trkpt>
      <trkpt lat="48.68805" lon="1.98075">
        <ele>100.27239990234</ele>
        <time>2016-09-22T12:14:02.000Z</time>
      </trkpt>
      <trkpt lat="48.68805" lon="1.98081">
        <ele>100.37187957764</ele>
        <time>2016-09-22T12:14:04.000Z</time>
      </trkpt>
      <trkpt lat="48.68806" lon="1.98087">
        <ele>100.49586486816</ele>
        <time>2016-09-22T12:14:07.000Z</time>
      </trkpt>
      <trkpt lat="48.68806" lon="1.98091">
        <ele>100.6524810791</ele>
        <time>2016-09-22T12:14:10.000Z</time>
      </trkpt>
      <trkpt lat="48.68805" lon="1.98094">
        <ele>100.82649230957</ele>
        <time>2016-09-22T12:14:12.000Z</time>
      </trkpt>
      <trkpt lat="48.68805" lon="1.98097">
        <ele>101.00350952148</ele>
        <time>2016-09-22T12:14:14.000Z</time>
      </trkpt>
      <trkpt lat="48.68809" lon="1.98101">
        <ele>101.16516113281</ele>
        <time>2016-09-22T12:14:17.000Z</time>
      </trkpt>
      <trkpt lat="48.68813" lon="1.98104">
        <ele>101.2958984375</ele>
        <time>2016-09-22T12:14:20.000Z</time>
      </trkpt>
      <trkpt lat="48.68814" lon="1.98106">
        <ele>101.39562988281</ele>
        <time>2016-09-22T12:14:22.000Z</time>
      </trkpt>
      <trkpt lat="48.68818" lon="1.98109">
        <ele>101.4775390625</ele>
        <time>2016-09-22T12:14:25.000Z</time>
      </trkpt>
      <trkpt lat="48.68819" lon="1.98111">
        <ele>101.54064941406</ele>
        <time>2016-09-22T12:14:27.000Z</time>
      </trkpt>
      <trkpt lat="48.68823" lon="1.98113">
        <ele>101.5947265625</ele>
        <time>2016-09-22T12:14:30.000Z</time>
      </trkpt>
      <trkpt lat="48.68824" lon="1.98115">
        <ele>101.64709472656</ele>
        <time>2016-09-22T12:14:32.000Z</time>
      </trkpt>
      <trkpt lat="48.68827" lon="1.98117">
        <ele>101.69604492188</ele>
        <time>2016-09-22T12:14:35.000Z</time>
      </trkpt>
      <trkpt lat="48.68831" lon="1.98119">
        <ele>101.72155761719</ele>
        <time>2016-09-22T12:14:38.000Z</time>
      </trkpt>
      <trkpt lat="48.68835" lon="1.9812">
        <ele>101.72587585449</ele>
        <time>2016-09-22T12:14:40.000Z</time>
      </trkpt>
      <trkpt lat="48.68838" lon="1.98121">
        <ele>101.69873809814</ele>
        <time>2016-09-22T12:14:42.000Z</time>
      </trkpt>
      <trkpt lat="48.68842" lon="1.98122">
        <ele>101.63529968262</ele>
        <time>2016-09-22T12:14:45.000Z</time>
      </trkpt>
      <trkpt lat="48.68847" lon="1.98123">
        <ele>101.53932952881</ele>
        <time>2016-09-22T12:14:48.000Z</time>
      </trkpt>
      <trkpt lat="48.6885" lon="1.98125">
        <ele>101.43399810791</ele>
        <time>2016-09-22T12:14:51.000Z</time>
      </trkpt>
      <trkpt lat="48.68852" lon="1.98126">
        <ele>101.33068084717</ele>
        <time>2016-09-22T12:14:53.000Z</time>
      </trkpt>
      <trkpt lat="48.68853" lon="1.98126">
        <ele>101.23727416992</ele>
        <time>2016-09-22T12:14:55.000Z</time>
      </trkpt>
      <trkpt lat="48.68856" lon="1.98127">
        <ele>101.15357971191</ele>
        <time>2016-09-22T12:14:58.000Z</time>
      </trkpt>
      <trkpt lat="48.68859" lon="1.98129">
        <ele>101.07440948486</ele>
        <time>2016-09-22T12:15:01.000Z</time>
      </trkpt>
      <trkpt lat="48.68861" lon="1.98131">
        <ele>100.99794006348</ele>
        <time>2016-09-22T12:15:03.000Z</time>
      </trkpt>
      <trkpt lat="48.68864" lon="1.98132">
        <ele>100.91606903076</ele>
        <time>2016-09-22T12:15:05.000Z</time>
      </trkpt>
      <trkpt lat="48.68868" lon="1.98135">
        <ele>100.82102966309</ele>
        <time>2016-09-22T12:15:08.000Z</time>
      </trkpt>
      <trkpt lat="48.68871" lon="1.98137">
        <ele>100.72783660889</ele>
        <time>2016-09-22T12:15:10.000Z</time>
      </trkpt>
      <trkpt lat="48.68874" lon="1.98139">
        <ele>100.61863708496</ele>
        <time>2016-09-22T12:15:13.000Z</time>
      </trkpt>
      <trkpt lat="48.68878" lon="1.9814">
        <ele>100.49039459229</ele>
        <time>2016-09-22T12:15:16.000Z</time>
      </trkpt>
      <trkpt lat="48.68883" lon="1.98141">
        <ele>100.32357025146</ele>
        <time>2016-09-22T12:15:19.000Z</time>
      </trkpt>
      <trkpt lat="48.68887" lon="1.98141">
        <ele>100.13788604736</ele>
        <time>2016-09-22T12:15:22.000Z</time>
      </trkpt>
      <trkpt lat="48.6889" lon="1.98143">
        <ele>99.94612121582</ele>
        <time>2016-09-22T12:15:25.000Z</time>
      </trkpt>
      <trkpt lat="48.68892" lon="1.98145">
        <ele>99.772750854492</ele>
        <time>2016-09-22T12:15:27.000Z</time>
      </trkpt>
      <trkpt lat="48.68897" lon="1.98147">
        <ele>99.575492858887</ele>
        <time>2016-09-22T12:15:30.000Z</time>
      </trkpt>
      <trkpt lat="48.68902" lon="1.98148">
        <ele>99.373512268066</ele>
        <time>2016-09-22T12:15:33.000Z</time>
      </trkpt>
      <trkpt lat="48.68904" lon="1.98149">
        <ele>99.188896179199</ele>
        <time>2016-09-22T12:15:35.000Z</time>
      </trkpt>
      <trkpt lat="48.68906" lon="1.9815">
        <ele>99.00358581543</ele>
        <time>2016-09-22T12:15:38.000Z</time>
      </trkpt>
      <trkpt lat="48.68909" lon="1.98151">
        <ele>98.805877685547</ele>
        <time>2016-09-22T12:15:40.000Z</time>
      </trkpt>
      <trkpt lat="48.68913" lon="1.98152">
        <ele>98.610572814941</ele>
        <time>2016-09-22T12:15:43.000Z</time>
      </trkpt>
      <trkpt lat="48.68916" lon="1.98152">
        <ele>98.441513061523</ele>
        <time>2016-09-22T12:15:45.000Z</time>
      </trkpt>
      <trkpt lat="48.68919" lon="1.98153">
        <ele>98.292518615723</ele>
        <time>2016-09-22T12:15:48.000Z</time>
      </trkpt>
      <trkpt lat="48.68921" lon="1.98154">
        <ele>98.172225952148</ele>
        <time>2016-09-22T12:15:50.000Z</time>
      </trkpt>
      <trkpt lat="48.68926" lon="1.98154">
        <ele>98.091354370117</ele>
        <time>2016-09-22T12:15:53.000Z</time>
      </trkpt>
      <trkpt lat="48.68931" lon="1.98156">
        <ele>98.076026916504</ele>
        <time>2016-09-22T12:15:56.000Z</time>
      </trkpt>
      <trkpt lat="48.68933" lon="1.98159">
        <ele>98.099235534668</ele>
        <time>2016-09-22T12:15:59.000Z</time>
      </trkpt>
      <trkpt lat="48.68934" lon="1.98165">
        <ele>98.13516998291</ele>
        <time>2016-09-22T12:16:02.000Z</time>
      </trkpt>
      <trkpt lat="48.68934" lon="1.98168">
        <ele>98.181098937988</ele>
        <time>2016-09-22T12:16:04.000Z</time>
      </trkpt>
      <trkpt lat="48.68933" lon="1.98174">
        <ele>98.274642944336</ele>
        <time>2016-09-22T12:16:07.000Z</time>
      </trkpt>
      <trkpt lat="48.68932" lon="1.98177">
        <ele>98.390853881836</ele>
        <time>2016-09-22T12:16:10.000Z</time>
      </trkpt>
      <trkpt lat="48.6893" lon="1.9818">
        <ele>98.526260375977</ele>
        <time>2016-09-22T12:16:12.000Z</time>
      </trkpt>
      <trkpt lat="48.68929" lon="1.98185">
        <ele>98.720817565918</ele>
        <time>2016-09-22T12:16:15.000Z</time>
      </trkpt>
      <trkpt lat="48.68929" lon="1.98189">
        <ele>98.939842224121</ele>
        <time>2016-09-22T12:16:17.000Z</time>
      </trkpt>
      <trkpt lat="48.68928" lon="1.98192">
        <ele>99.133766174316</ele>
        <time>2016-09-22T12:16:19.000Z</time>
      </trkpt>
      <trkpt lat="48.68928" lon="1.98195">
        <ele>99.328102111816</ele>
        <time>2016-09-22T12:16:21.000Z</time>
      </trkpt>
      <trkpt lat="48.68928" lon="1.982">
        <ele>99.55143737793</ele>
        <time>2016-09-22T12:16:24.000Z</time>
      </trkpt>
      <trkpt lat="48.68927" lon="1.98206">
        <ele>99.775360107422</ele>
        <time>2016-09-22T12:16:27.000Z</time>
      </trkpt>
      <trkpt lat="48.68927" lon="1.98209">
        <ele>99.991348266602</ele>
        <time>2016-09-22T12:16:29.000Z</time>
      </trkpt>
      <trkpt lat="48.68927" lon="1.98214">
        <ele>100.23529052734</ele>
        <time>2016-09-22T12:16:32.000Z</time>
      </trkpt>
      <trkpt lat="48.68927" lon="1.98219">
        <ele>100.49691009521</ele>
        <time>2016-09-22T12:16:34.000Z</time>
      </trkpt>
      <trkpt lat="48.68927" lon="1.98224">
        <ele>100.76527404785</ele>
        <time>2016-09-22T12:16:37.000Z</time>
      </trkpt>
      <trkpt lat="48.68927" lon="1.98227">
        <ele>101.00710296631</ele>
        <time>2016-09-22T12:16:39.000Z</time>
      </trkpt>
      <trkpt lat="48.68927" lon="1.98232">
        <ele>101.26174163818</ele>
        <time>2016-09-22T12:16:41.000Z</time>
      </trkpt>
      <trkpt lat="48.68927" lon="1.98238">
        <ele>101.52964019775</ele>
        <time>2016-09-22T12:16:44.000Z</time>
      </trkpt>
      <trkpt lat="48.68927" lon="1.98241">
        <ele>101.77545928955</ele>
        <time>2016-09-22T12:16:46.000Z</time>
      </trkpt>
      <trkpt lat="48.68927" lon="1.98246">
        <ele>102.01338195801</ele>
        <time>2016-09-22T12:16:49.000Z</time>
      </trkpt>
      <trkpt lat="48.68928" lon="1.98249">
        <ele>102.25047302246</ele>
        <time>2016-09-22T12:16:51.000Z</time>
      </trkpt>
      <trkpt lat="48.68929" lon="1.98252">
        <ele>102.47780609131</ele>
        <time>2016-09-22T12:16:53.000Z</time>
      </trkpt>
      <trkpt lat="48.68927" lon="1.98256">
        <ele>102.68757629395</ele>
        <time>2016-09-22T12:16:56.000Z</time>
      </trkpt>
      <trkpt lat="48.68924" lon="1.98259">
        <ele>102.92376708984</ele>
        <time>2016-09-22T12:16:59.000Z</time>
      </trkpt>
      <trkpt lat="48.68922" lon="1.9826">
        <ele>103.13222503662</ele>
        <time>2016-09-22T12:17:01.000Z</time>
      </trkpt>
      <trkpt lat="48.6892" lon="1.98261">
        <ele>103.33348083496</ele>
        <time>2016-09-22T12:17:03.000Z</time>
      </trkpt>
      <trkpt lat="48.68917" lon="1.98261">
        <ele>103.51033782959</ele>
        <time>2016-09-22T12:17:05.000Z</time>
      </trkpt>
      <trkpt lat="48.68915" lon="1.9826">
        <ele>103.64636230469</ele>
        <time>2016-09-22T12:17:07.000Z</time>
      </trkpt>
      <trkpt lat="48.68912" lon="1.9826">
        <ele>103.74736022949</ele>
        <time>2016-09-22T12:17:10.000Z</time>
      </trkpt>
      <trkpt lat="48.68908" lon="1.98262">
        <ele>103.88102722168</ele>
        <time>2016-09-22T12:17:13.000Z</time>
      </trkpt>
      <trkpt lat="48.68906" lon="1.98262">
        <ele>104.00760650635</ele>
        <time>2016-09-22T12:17:15.000Z</time>
      </trkpt>
      <trkpt lat="48.68903" lon="1.98261">
        <ele>104.14793395996</ele>
        <time>2016-09-22T12:17:18.000Z</time>
      </trkpt>
      <trkpt lat="48.689" lon="1.98262">
        <ele>104.31571960449</ele>
        <time>2016-09-22T12:17:20.000Z</time>
      </trkpt>
      <trkpt lat="48.68898" lon="1.98264">
        <ele>104.50040435791</ele>
        <time>2016-09-22T12:17:22.000Z</time>
      </trkpt>
      <trkpt lat="48.68893" lon="1.98266">
        <ele>104.69596099854</ele>
        <time>2016-09-22T12:17:25.000Z</time>
      </trkpt>
      <trkpt lat="48.6889" lon="1.98267">
        <ele>104.91856384277</ele>
        <time>2016-09-22T12:17:27.000Z</time>
      </trkpt>
      <trkpt lat="48.68888" lon="1.98268">
        <ele>105.14968109131</ele>
        <time>2016-09-22T12:17:30.000Z</time>
      </trkpt>
      <trkpt lat="48.68886" lon="1.98269">
        <ele>105.36556243896</ele>
        <time>2016-09-22T12:17:32.000Z</time>
      </trkpt>
      <trkpt lat="48.68883" lon="1.98274">
        <ele>105.64247131348</ele>
        <time>2016-09-22T12:17:35.000Z</time>
      </trkpt>
      <trkpt lat="48.6888" lon="1.98278">
        <ele>105.92696380615</ele>
        <time>2016-09-22T12:17:38.000Z</time>
      </trkpt>
      <trkpt lat="48.68877" lon="1.98281">
        <ele>106.23696136475</ele>
        <time>2016-09-22T12:17:41.000Z</time>
      </trkpt>
      <trkpt lat="48.68875" lon="1.98283">
        <ele>106.55055236816</ele>
        <time>2016-09-22T12:17:43.000Z</time>
      </trkpt>
      <trkpt lat="48.68872" lon="1.98287">
        <ele>106.90598297119</ele>
        <time>2016-09-22T12:17:46.000Z</time>
      </trkpt>
      <trkpt lat="48.68871" lon="1.98289">
        <ele>107.21260070801</ele>
        <time>2016-09-22T12:17:48.000Z</time>
      </trkpt>
      <trkpt lat="48.68869" lon="1.98291">
        <ele>107.48728942871</ele>
        <time>2016-09-22T12:17:50.000Z</time>
      </trkpt>
      <trkpt lat="48.68867" lon="1.98296">
        <ele>107.75984954834</ele>
        <time>2016-09-22T12:17:53.000Z</time>
      </trkpt>
      <trkpt lat="48.68864" lon="1.98301">
        <ele>108.08853912354</ele>
        <time>2016-09-22T12:17:56.000Z</time>
      </trkpt>
      <trkpt lat="48.68861" lon="1.98305">
        <ele>108.41719055176</ele>
        <time>2016-09-22T12:17:59.000Z</time>
      </trkpt>
      <trkpt lat="48.68858" lon="1.98306">
        <ele>108.74381256104</ele>
        <time>2016-09-22T12:18:02.000Z</time>
      </trkpt>
      <trkpt lat="48.68856" lon="1.98307">
        <ele>109.03814697266</ele>
        <time>2016-09-22T12:18:04.000Z</time>
      </trkpt>
      <trkpt lat="48.68855" lon="1.98309">
        <ele>109.29931640625</ele>
        <time>2016-09-22T12:18:06.000Z</time>
      </trkpt>
      <trkpt lat="48.68852" lon="1.98313">
        <ele>109.55086517334</ele>
        <time>2016-09-22T12:18:09.000Z</time>
      </trkpt>
      <trkpt lat="48.6885" lon="1.98317">
        <ele>109.79187011719</ele>
        <time>2016-09-22T12:18:11.000Z</time>
      </trkpt>
      <trkpt lat="48.68847" lon="1.98321">
        <ele>110.06159973145</ele>
        <time>2016-09-22T12:18:14.000Z</time>
      </trkpt>
      <trkpt lat="48.68845" lon="1.98323">
        <ele>110.36582183838</ele>
        <time>2016-09-22T12:18:17.000Z</time>
      </trkpt>
      <trkpt lat="48.68842" lon="1.98326">
        <ele>110.67687988281</ele>
        <time>2016-09-22T12:18:19.000Z</time>
      </trkpt>
      <trkpt lat="48.68839" lon="1.9833">
        <ele>110.97568511963</ele>
        <time>2016-09-22T12:18:22.000Z</time>
      </trkpt>
      <trkpt lat="48.68839" lon="1.98332">
        <ele>111.24880218506</ele>
        <time>2016-09-22T12:18:24.000Z</time>
      </trkpt>
      <trkpt lat="48.68837" lon="1.98333">
        <ele>111.46939849854</ele>
        <time>2016-09-22T12:18:27.000Z</time>
      </trkpt>
      <trkpt lat="48.68835" lon="1.98332">
        <ele>111.64247131348</ele>
        <time>2016-09-22T12:18:29.000Z</time>
      </trkpt>
      <trkpt lat="48.68831" lon="1.98331">
        <ele>111.79758453369</ele>
        <time>2016-09-22T12:18:32.000Z</time>
      </trkpt>
      <trkpt lat="48.68828" lon="1.9833">
        <ele>111.90998840332</ele>
        <time>2016-09-22T12:18:34.000Z</time>
      </trkpt>
      <trkpt lat="48.68823" lon="1.9833">
        <ele>112.05067443848</ele>
        <time>2016-09-22T12:18:37.000Z</time>
      </trkpt>
      <trkpt lat="48.68819" lon="1.98331">
        <ele>112.2172088623</ele>
        <time>2016-09-22T12:18:40.000Z</time>
      </trkpt>
      <trkpt lat="48.68818" lon="1.98333">
        <ele>112.42533874512</ele>
        <time>2016-09-22T12:18:43.000Z</time>
      </trkpt>
      <trkpt lat="48.68817" lon="1.98334">
        <ele>112.63956451416</ele>
        <time>2016-09-22T12:18:46.000Z</time>
      </trkpt>
      <trkpt lat="48.68816" lon="1.98336">
        <ele>112.9008026123</ele>
        <time>2016-09-22T12:18:48.000Z</time>
      </trkpt>
      <trkpt lat="48.68814" lon="1.9834">
        <ele>113.23970031738</ele>
        <time>2016-09-22T12:18:51.000Z</time>
      </trkpt>
      <trkpt lat="48.68813" lon="1.98345">
        <ele>113.71385192871</ele>
        <time>2016-09-22T12:18:54.000Z</time>
      </trkpt>
      <trkpt lat="48.68812" lon="1.9835">
        <ele>114.29133605957</ele>
        <time>2016-09-22T12:18:57.000Z</time>
      </trkpt>
      <trkpt lat="48.68811" lon="1.98352">
        <ele>114.91975402832</ele>
        <time>2016-09-22T12:18:59.000Z</time>
      </trkpt>
      <trkpt lat="48.6881" lon="1.98355">
        <ele>115.5599822998</ele>
        <time>2016-09-22T12:19:02.000Z</time>
      </trkpt>
      <trkpt lat="48.6881" lon="1.98358">
        <ele>116.15989685059</ele>
        <time>2016-09-22T12:19:05.000Z</time>
      </trkpt>
      <trkpt lat="48.6881" lon="1.98362">
        <ele>116.69828033447</ele>
        <time>2016-09-22T12:19:08.000Z</time>
      </trkpt>
      <trkpt lat="48.6881" lon="1.98366">
        <ele>117.22464752197</ele>
        <time>2016-09-22T12:19:11.000Z</time>
      </trkpt>
      <trkpt lat="48.68809" lon="1.98369">
        <ele>117.74947357178</ele>
        <time>2016-09-22T12:19:13.000Z</time>
      </trkpt>
      <trkpt lat="48.68808" lon="1.98371">
        <ele>118.26810455322</ele>
        <time>2016-09-22T12:19:16.000Z</time>
      </trkpt>
      <trkpt lat="48.68808" lon="1.98373">
        <ele>118.73120117188</ele>
        <time>2016-09-22T12:19:18.000Z</time>
      </trkpt>
      <trkpt lat="48.68808" lon="1.98377">
        <ele>119.20756530762</ele>
        <time>2016-09-22T12:19:21.000Z</time>
      </trkpt>
      <trkpt lat="48.68808" lon="1.98381">
        <ele>119.66839599609</ele>
        <time>2016-09-22T12:19:23.000Z</time>
      </trkpt>
      <trkpt lat="48.68809" lon="1.98386">
        <ele>120.1795501709</ele>
        <time>2016-09-22T12:19:25.000Z</time>
      </trkpt>
      <trkpt lat="48.68806" lon="1.98397">
        <ele>120.96473693848</ele>
        <time>2016-09-22T12:19:28.000Z</time>
      </trkpt>
      <trkpt lat="48.68803" lon="1.98411">
        <ele>122.11708831787</ele>
        <time>2016-09-22T12:19:31.000Z</time>
      </trkpt>
      <trkpt lat="48.68804" lon="1.98414">
        <ele>123.21943664551</ele>
        <time>2016-09-22T12:19:33.000Z</time>
      </trkpt>
      <trkpt lat="48.68807" lon="1.98414">
        <ele>124.18386077881</ele>
        <time>2016-09-22T12:19:35.000Z</time>
      </trkpt>
      <trkpt lat="48.6881" lon="1.98414">
        <ele>125.03646087646</ele>
        <time>2016-09-22T12:19:38.000Z</time>
      </trkpt>
      <trkpt lat="48.68811" lon="1.98414">
        <ele>125.52711486816</ele>
        <time>2016-09-22T12:19:40.000Z</time>
      </trkpt>
      <trkpt lat="48.68812" lon="1.98413">
        <ele>125.58437347412</ele>
        <time>2016-09-22T12:19:42.000Z</time>
      </trkpt>
      <trkpt lat="48.68811" lon="1.98416">
        <ele>125.64064788818</ele>
        <time>2016-09-22T12:19:45.000Z</time>
      </trkpt>
      <trkpt lat="48.68808" lon="1.98421">
        <ele>125.80015563965</ele>
        <time>2016-09-22T12:19:47.000Z</time>
      </trkpt>
      <trkpt lat="48.68805" lon="1.98426">
        <ele>126.01403808594</ele>
        <time>2016-09-22T12:19:50.000Z</time>
      </trkpt>
      <trkpt lat="48.68805" lon="1.98431">
        <ele>126.3046875</ele>
        <time>2016-09-22T12:19:53.000Z</time>
      </trkpt>
      <trkpt lat="48.68804" lon="1.98434">
        <ele>126.65724182129</ele>
        <time>2016-09-22T12:19:55.000Z</time>
      </trkpt>
      <trkpt lat="48.68803" lon="1.98436">
        <ele>126.95114898682</ele>
        <time>2016-09-22T12:19:57.000Z</time>
      </trkpt>
      <trkpt lat="48.68801" lon="1.98438">
        <ele>127.19431304932</ele>
        <time>2016-09-22T12:19:59.000Z</time>
      </trkpt>
      <trkpt lat="48.68798" lon="1.98444">
        <ele>127.41717529297</ele>
        <time>2016-09-22T12:20:02.000Z</time>
      </trkpt>
      <trkpt lat="48.68796" lon="1.98446">
        <ele>127.58213043213</ele>
        <time>2016-09-22T12:20:04.000Z</time>
      </trkpt>
      <trkpt lat="48.68794" lon="1.98449">
        <ele>127.73069000244</ele>
        <time>2016-09-22T12:20:07.000Z</time>
      </trkpt>
      <trkpt lat="48.68792" lon="1.98452">
        <ele>127.88040924072</ele>
        <time>2016-09-22T12:20:10.000Z</time>
      </trkpt>
      <trkpt lat="48.6879" lon="1.98456">
        <ele>128.03161621094</ele>
        <time>2016-09-22T12:20:13.000Z</time>
      </trkpt>
      <trkpt lat="48.6879" lon="1.98463">
        <ele>128.20664978027</ele>
        <time>2016-09-22T12:20:16.000Z</time>
      </trkpt>
      <trkpt lat="48.68789" lon="1.98468">
        <ele>128.41955566406</ele>
        <time>2016-09-22T12:20:18.000Z</time>
      </trkpt>
      <trkpt lat="48.68787" lon="1.98475">
        <ele>128.65081787109</ele>
        <time>2016-09-22T12:20:20.000Z</time>
      </trkpt>
      <trkpt lat="48.68785" lon="1.98477">
        <ele>128.85403442383</ele>
        <time>2016-09-22T12:20:23.000Z</time>
      </trkpt>
      <trkpt lat="48.68784" lon="1.98477">
        <ele>129.01188659668</ele>
        <time>2016-09-22T12:20:25.000Z</time>
      </trkpt>
      <trkpt lat="48.68784" lon="1.98479">
        <ele>129.1053314209</ele>
        <time>2016-09-22T12:20:27.000Z</time>
      </trkpt>
      <trkpt lat="48.68784" lon="1.98482">
        <ele>129.18438720703</ele>
        <time>2016-09-22T12:20:30.000Z</time>
      </trkpt>
      <trkpt lat="48.68783" lon="1.98489">
        <ele>129.28514099121</ele>
        <time>2016-09-22T12:20:50.000Z</time>
      </trkpt>
      <trkpt lat="48.68779" lon="1.98495">
        <ele>129.36636352539</ele>
        <time>2016-09-22T12:20:53.000Z</time>
      </trkpt>
      <trkpt lat="48.68777" lon="1.985">
        <ele>129.48091125488</ele>
        <time>2016-09-22T12:20:55.000Z</time>
      </trkpt>
      <trkpt lat="48.68774" lon="1.98509">
        <ele>129.77395629883</ele>
        <time>2016-09-22T12:20:58.000Z</time>
      </trkpt>
      <trkpt lat="48.68772" lon="1.98515">
        <ele>130.15788269043</ele>
        <time>2016-09-22T12:21:00.000Z</time>
      </trkpt>
      <trkpt lat="48.6877" lon="1.9852">
        <ele>130.59191894531</ele>
        <time>2016-09-22T12:21:02.000Z</time>
      </trkpt>
      <trkpt lat="48.68768" lon="1.98527">
        <ele>131.16159057617</ele>
        <time>2016-09-22T12:21:05.000Z</time>
      </trkpt>
      <trkpt lat="48.68765" lon="1.98533">
        <ele>131.83110046387</ele>
        <time>2016-09-22T12:21:08.000Z</time>
      </trkpt>
      <trkpt lat="48.68764" lon="1.98537">
        <ele>132.36332702637</ele>
        <time>2016-09-22T12:21:10.000Z</time>
      </trkpt>
      <trkpt lat="48.68763" lon="1.98541">
        <ele>132.85371398926</ele>
        <time>2016-09-22T12:21:13.000Z</time>
      </trkpt>
      <trkpt lat="48.68762" lon="1.98543">
        <ele>133.27290344238</ele>
        <time>2016-09-22T12:21:15.000Z</time>
      </trkpt>
      <trkpt lat="48.6876" lon="1.98549">
        <ele>133.65490722656</ele>
        <time>2016-09-22T12:21:18.000Z</time>
      </trkpt>
      <trkpt lat="48.68759" lon="1.98551">
        <ele>133.94705200195</ele>
        <time>2016-09-22T12:21:20.000Z</time>
      </trkpt>
      <trkpt lat="48.68756" lon="1.98556">
        <ele>134.23577880859</ele>
        <time>2016-09-22T12:21:23.000Z</time>
      </trkpt>
      <trkpt lat="48.68755" lon="1.98558">
        <ele>134.43626403809</ele>
        <time>2016-09-22T12:21:25.000Z</time>
      </trkpt>
      <trkpt lat="48.68753" lon="1.98559">
        <ele>134.55776977539</ele>
        <time>2016-09-22T12:21:27.000Z</time>
      </trkpt>
      <trkpt lat="48.68753" lon="1.98557">
        <ele>134.54306030273</ele>
        <time>2016-09-22T12:21:30.000Z</time>
      </trkpt>
      <trkpt lat="48.68752" lon="1.98558">
        <ele>134.50601196289</ele>
        <time>2016-09-22T12:21:32.000Z</time>
      </trkpt>
      <trkpt lat="48.6875" lon="1.98562">
        <ele>134.4454498291</ele>
        <time>2016-09-22T12:21:34.000Z</time>
      </trkpt>
      <trkpt lat="48.68747" lon="1.98567">
        <ele>134.59342956543</ele>
        <time>2016-09-22T12:21:37.000Z</time>
      </trkpt>
      <trkpt lat="48.68745" lon="1.9857">
        <ele>134.91398620605</ele>
        <time>2016-09-22T12:21:39.000Z</time>
      </trkpt>
      <trkpt lat="48.68741" lon="1.98574">
        <ele>135.48693847656</ele>
        <time>2016-09-22T12:21:42.000Z</time>
      </trkpt>
      <trkpt lat="48.68739" lon="1.98577">
        <ele>136.17294311523</ele>
        <time>2016-09-22T12:21:44.000Z</time>
      </trkpt>
      <trkpt lat="48.68737" lon="1.98581">
        <ele>136.9730682373</ele>
        <time>2016-09-22T12:21:46.000Z</time>
      </trkpt>
      <trkpt lat="48.68735" lon="1.98584">
        <ele>137.7105255127</ele>
        <time>2016-09-22T12:21:48.000Z</time>
      </trkpt>
      <trkpt lat="48.68734" lon="1.98587">
        <ele>138.41815185547</ele>
        <time>2016-09-22T12:21:51.000Z</time>
      </trkpt>
      <trkpt lat="48.68733" lon="1.98589">
        <ele>139.04301452637</ele>
        <time>2016-09-22T12:21:53.000Z</time>
      </trkpt>
      <trkpt lat="48.68732" lon="1.98592">
        <ele>139.65899658203</ele>
        <time>2016-09-22T12:21:55.000Z</time>
      </trkpt>
      <trkpt lat="48.68731" lon="1.98594">
        <ele>140.22869873047</ele>
        <time>2016-09-22T12:21:57.000Z</time>
      </trkpt>
      <trkpt lat="48.6873" lon="1.98596">
        <ele>140.73336791992</ele>
        <time>2016-09-22T12:22:00.000Z</time>
      </trkpt>
      <trkpt lat="48.68727" lon="1.98601">
        <ele>141.33981323242</ele>
        <time>2016-09-22T12:22:18.000Z</time>
      </trkpt>
      <trkpt lat="48.68724" lon="1.98607">
        <ele>142.09039306641</ele>
        <time>2016-09-22T12:22:21.000Z</time>
      </trkpt>
      <trkpt lat="48.68722" lon="1.98614">
        <ele>142.95863342285</ele>
        <time>2016-09-22T12:22:24.000Z</time>
      </trkpt>
      <trkpt lat="48.68719" lon="1.9862">
        <ele>143.93058776855</ele>
        <time>2016-09-22T12:22:27.000Z</time>
      </trkpt>
      <trkpt lat="48.68718" lon="1.98623">
        <ele>144.90165710449</ele>
        <time>2016-09-22T12:22:29.000Z</time>
      </trkpt>
      <trkpt lat="48.68718" lon="1.98627">
        <ele>145.78952026367</ele>
        <time>2016-09-22T12:22:32.000Z</time>
      </trkpt>
      <trkpt lat="48.68718" lon="1.9863">
        <ele>146.51094055176</ele>
        <time>2016-09-22T12:22:34.000Z</time>
      </trkpt>
      <trkpt lat="48.68717" lon="1.98634">
        <ele>147.09536743164</ele>
        <time>2016-09-22T12:22:37.000Z</time>
      </trkpt>
      <trkpt lat="48.68716" lon="1.98637">
        <ele>147.56571960449</ele>
        <time>2016-09-22T12:22:39.000Z</time>
      </trkpt>
      <trkpt lat="48.68714" lon="1.98643">
        <ele>148.11148071289</ele>
        <time>2016-09-22T12:22:42.000Z</time>
      </trkpt>
      <trkpt lat="48.68714" lon="1.98647">
        <ele>148.6283416748</ele>
        <time>2016-09-22T12:22:45.000Z</time>
      </trkpt>
      <trkpt lat="48.68715" lon="1.98648">
        <ele>149.08236694336</ele>
        <time>2016-09-22T12:22:48.000Z</time>
      </trkpt>
      <trkpt lat="48.68713" lon="1.98648">
        <ele>149.44369506836</ele>
        <time>2016-09-22T12:22:51.000Z</time>
      </trkpt>
      <trkpt lat="48.68712" lon="1.98647">
        <ele>149.70260620117</ele>
        <time>2016-09-22T12:22:53.000Z</time>
      </trkpt>
      <trkpt lat="48.68709" lon="1.98647">
        <ele>149.80122375488</ele>
        <time>2016-09-22T12:22:55.000Z</time>
      </trkpt>
      <trkpt lat="48.68707" lon="1.98649">
        <ele>149.84829711914</ele>
        <time>2016-09-22T12:22:58.000Z</time>
      </trkpt>
      <trkpt lat="48.68707" lon="1.98651">
        <ele>149.90991210938</ele>
        <time>2016-09-22T12:23:00.000Z</time>
      </trkpt>
      <trkpt lat="48.68706" lon="1.98653">
        <ele>150.00888061523</ele>
        <time>2016-09-22T12:23:02.000Z</time>
      </trkpt>
      <trkpt lat="48.68704" lon="1.98655">
        <ele>150.17060852051</ele>
        <time>2016-09-22T12:23:05.000Z</time>
      </trkpt>
      <trkpt lat="48.68704" lon="1.98657">
        <ele>150.37275695801</ele>
        <time>2016-09-22T12:23:07.000Z</time>
      </trkpt>
      <trkpt lat="48.68703" lon="1.98659">
        <ele>150.57678222656</ele>
        <time>2016-09-22T12:23:10.000Z</time>
      </trkpt>
      <trkpt lat="48.68702" lon="1.98663">
        <ele>150.81614685059</ele>
        <time>2016-09-22T12:23:13.000Z</time>
      </trkpt>
      <trkpt lat="48.68702" lon="1.98668">
        <ele>151.1111907959</ele>
        <time>2016-09-22T12:23:16.000Z</time>
      </trkpt>
      <trkpt lat="48.68701" lon="1.98669">
        <ele>151.40179443359</ele>
        <time>2016-09-22T12:23:18.000Z</time>
      </trkpt>
      <trkpt lat="48.68701" lon="1.98672">
        <ele>151.74691772461</ele>
        <time>2016-09-22T12:23:20.000Z</time>
      </trkpt>
      <trkpt lat="48.687" lon="1.98674">
        <ele>152.10551452637</ele>
        <time>2016-09-22T12:23:22.000Z</time>
      </trkpt>
      <trkpt lat="48.68698" lon="1.98677">
        <ele>152.47645568848</ele>
        <time>2016-09-22T12:23:25.000Z</time>
      </trkpt>
      <trkpt lat="48.68696" lon="1.98681">
        <ele>152.8278503418</ele>
        <time>2016-09-22T12:23:27.000Z</time>
      </trkpt>
      <trkpt lat="48.68692" lon="1.98685">
        <ele>153.22668457031</ele>
        <time>2016-09-22T12:23:30.000Z</time>
      </trkpt>
      <trkpt lat="48.6869" lon="1.98686">
        <ele>153.55171203613</ele>
        <time>2016-09-22T12:23:32.000Z</time>
      </trkpt>
      <trkpt lat="48.68688" lon="1.98686">
        <ele>153.78469848633</ele>
        <time>2016-09-22T12:23:34.000Z</time>
      </trkpt>
      <trkpt lat="48.68687" lon="1.98688">
        <ele>153.96957397461</ele>
        <time>2016-09-22T12:23:37.000Z</time>
      </trkpt>
      <trkpt lat="48.68687" lon="1.9869">
        <ele>154.15176391602</ele>
        <time>2016-09-22T12:23:39.000Z</time>
      </trkpt>
      <trkpt lat="48.68688" lon="1.98694">
        <ele>154.35055541992</ele>
        <time>2016-09-22T12:23:42.000Z</time>
      </trkpt>
      <trkpt lat="48.68688" lon="1.98696">
        <ele>154.60635375977</ele>
        <time>2016-09-22T12:23:44.000Z</time>
      </trkpt>
      <trkpt lat="48.68686" lon="1.98698">
        <ele>154.92242431641</ele>
        <time>2016-09-22T12:23:47.000Z</time>
      </trkpt>
      <trkpt lat="48.68686" lon="1.98699">
        <ele>155.24307250977</ele>
        <time>2016-09-22T12:23:49.000Z</time>
      </trkpt>
      <trkpt lat="48.68685" lon="1.98703">
        <ele>155.59172058105</ele>
        <time>2016-09-22T12:23:52.000Z</time>
      </trkpt>
      <trkpt lat="48.68685" lon="1.98713">
        <ele>156.1268157959</ele>
        <time>2016-09-22T12:23:55.000Z</time>
      </trkpt>
      <trkpt lat="48.68684" lon="1.98721">
        <ele>156.8179473877</ele>
        <time>2016-09-22T12:23:57.000Z</time>
      </trkpt>
      <trkpt lat="48.68682" lon="1.98721">
        <ele>157.43551635742</ele>
        <time>2016-09-22T12:24:00.000Z</time>
      </trkpt>
      <trkpt lat="48.68681" lon="1.9872">
        <ele>157.95283508301</ele>
        <time>2016-09-22T12:24:02.000Z</time>
      </trkpt>
      <trkpt lat="48.68676" lon="1.98718">
        <ele>158.21542358398</ele>
        <time>2016-09-22T12:24:05.000Z</time>
      </trkpt>
      <trkpt lat="48.68674" lon="1.98717">
        <ele>158.15112304688</ele>
        <time>2016-09-22T12:24:07.000Z</time>
      </trkpt>
      <trkpt lat="48.68672" lon="1.98718">
        <ele>157.83979797363</ele>
        <time>2016-09-22T12:24:10.000Z</time>
      </trkpt>
      <trkpt lat="48.68671" lon="1.98718">
        <ele>157.54147338867</ele>
        <time>2016-09-22T12:24:12.000Z</time>
      </trkpt>
      <trkpt lat="48.68668" lon="1.98717">
        <ele>157.23379516602</ele>
        <time>2016-09-22T12:24:14.000Z</time>
      </trkpt>
      <trkpt lat="48.68668" lon="1.98719">
        <ele>157.11360168457</ele>
        <time>2016-09-22T12:24:17.000Z</time>
      </trkpt>
      <trkpt lat="48.68666" lon="1.9872">
        <ele>157.0622253418</ele>
        <time>2016-09-22T12:24:20.000Z</time>
      </trkpt>
      <trkpt lat="48.68664" lon="1.98719">
        <ele>157.10549926758</ele>
        <time>2016-09-22T12:24:22.000Z</time>
      </trkpt>
      <trkpt lat="48.68665" lon="1.98727">
        <ele>157.32284545898</ele>
        <time>2016-09-22T12:24:33.000Z</time>
      </trkpt>
      <trkpt lat="48.68664" lon="1.98729">
        <ele>157.70565795898</ele>
        <time>2016-09-22T12:24:38.000Z</time>
      </trkpt>
      <trkpt lat="48.68661" lon="1.98732">
        <ele>158.2264251709</ele>
        <time>2016-09-22T12:24:41.000Z</time>
      </trkpt>
      <trkpt lat="48.68658" lon="1.98735">
        <ele>158.87855529785</ele>
        <time>2016-09-22T12:24:43.000Z</time>
      </trkpt>
      <trkpt lat="48.68655" lon="1.98741">
        <ele>159.68179321289</ele>
        <time>2016-09-22T12:24:46.000Z</time>
      </trkpt>
      <trkpt lat="48.68651" lon="1.98745">
        <ele>160.54180908203</ele>
        <time>2016-09-22T12:24:49.000Z</time>
      </trkpt>
      <trkpt lat="48.68649" lon="1.98747">
        <ele>161.4139251709</ele>
        <time>2016-09-22T12:24:51.000Z</time>
      </trkpt>
      <trkpt lat="48.68646" lon="1.98749">
        <ele>162.22589111328</ele>
        <time>2016-09-22T12:24:54.000Z</time>
      </trkpt>
      <trkpt lat="48.68643" lon="1.98749">
        <ele>162.95048522949</ele>
        <time>2016-09-22T12:24:57.000Z</time>
      </trkpt>
      <trkpt lat="48.68641" lon="1.9875">
        <ele>163.53071594238</ele>
        <time>2016-09-22T12:24:59.000Z</time>
      </trkpt>
      <trkpt lat="48.68638" lon="1.98751">
        <ele>164.00680541992</ele>
        <time>2016-09-22T12:25:01.000Z</time>
      </trkpt>
      <trkpt lat="48.68634" lon="1.98751">
        <ele>164.46957397461</ele>
        <time>2016-09-22T12:25:04.000Z</time>
      </trkpt>
      <trkpt lat="48.68632" lon="1.98753">
        <ele>164.92570495605</ele>
        <time>2016-09-22T12:25:07.000Z</time>
      </trkpt>
      <trkpt lat="48.68631" lon="1.98754">
        <ele>165.34533691406</ele>
        <time>2016-09-22T12:25:09.000Z</time>
      </trkpt>
      <trkpt lat="48.6863" lon="1.98756">
        <ele>165.73709106445</ele>
        <time>2016-09-22T12:25:12.000Z</time>
      </trkpt>
      <trkpt lat="48.68628" lon="1.98755">
        <ele>166.09121704102</ele>
        <time>2016-09-22T12:25:15.000Z</time>
      </trkpt>
      <trkpt lat="48.68627" lon="1.98756">
        <ele>166.38684082031</ele>
        <time>2016-09-22T12:25:18.000Z</time>
      </trkpt>
      <trkpt lat="48.68625" lon="1.98759">
        <ele>166.66902160645</ele>
        <time>2016-09-22T12:25:21.000Z</time>
      </trkpt>
      <trkpt lat="48.68624" lon="1.98759">
        <ele>166.95361328125</ele>
        <time>2016-09-22T12:25:24.000Z</time>
      </trkpt>
      <trkpt lat="48.6862" lon="1.98761">
        <ele>167.3088684082</ele>
        <time>2016-09-22T12:25:27.000Z</time>
      </trkpt>
      <trkpt lat="48.68617" lon="1.98766">
        <ele>167.75166320801</ele>
        <time>2016-09-22T12:25:40.000Z</time>
      </trkpt>
      <trkpt lat="48.68615" lon="1.9877">
        <ele>168.28402709961</ele>
        <time>2016-09-22T12:25:55.000Z</time>
      </trkpt>
      <trkpt lat="48.68611" lon="1.98773">
        <ele>168.83435058594</ele>
        <time>2016-09-22T12:25:57.000Z</time>
      </trkpt>
      <trkpt lat="48.68606" lon="1.98775">
        <ele>169.4758605957</ele>
        <time>2016-09-22T12:26:00.000Z</time>
      </trkpt>
      <trkpt lat="48.68603" lon="1.98777">
        <ele>170.07669067383</ele>
        <time>2016-09-22T12:26:02.000Z</time>
      </trkpt>
      <trkpt lat="48.68602" lon="1.98782">
        <ele>170.60830688477</ele>
        <time>2016-09-22T12:26:04.000Z</time>
      </trkpt>
      <trkpt lat="48.68601" lon="1.98784">
        <ele>171.06015014648</ele>
        <time>2016-09-22T12:26:07.000Z</time>
      </trkpt>
      <trkpt lat="48.68597" lon="1.98791">
        <ele>171.53047180176</ele>
        <time>2016-09-22T12:26:13.000Z</time>
      </trkpt>
      <trkpt lat="48.68594" lon="1.98795">
        <ele>171.96183776855</ele>
        <time>2016-09-22T12:26:32.000Z</time>
      </trkpt>
      <trkpt lat="48.68591" lon="1.98797">
        <ele>172.36145019531</ele>
        <time>2016-09-22T12:26:34.000Z</time>
      </trkpt>
      <trkpt lat="48.68588" lon="1.988">
        <ele>172.76152038574</ele>
        <time>2016-09-22T12:26:37.000Z</time>
      </trkpt>
      <trkpt lat="48.68585" lon="1.98804">
        <ele>173.17068481445</ele>
        <time>2016-09-22T12:26:39.000Z</time>
      </trkpt>
      <trkpt lat="48.68583" lon="1.98807">
        <ele>173.49043273926</ele>
        <time>2016-09-22T12:26:42.000Z</time>
      </trkpt>
      <trkpt lat="48.6858" lon="1.98809">
        <ele>173.72172546387</ele>
        <time>2016-09-22T12:26:45.000Z</time>
      </trkpt>
      <trkpt lat="48.68578" lon="1.98811">
        <ele>173.90081787109</ele>
        <time>2016-09-22T12:26:47.000Z</time>
      </trkpt>
      <trkpt lat="48.68577" lon="1.98812">
        <ele>174.00561523438</ele>
        <time>2016-09-22T12:26:49.000Z</time>
      </trkpt>
      <trkpt lat="48.68575" lon="1.98816">
        <ele>174.06497192383</ele>
        <time>2016-09-22T12:26:51.000Z</time>
      </trkpt>
      <trkpt lat="48.68572" lon="1.98819">
        <ele>174.08409118652</ele>
        <time>2016-09-22T12:26:54.000Z</time>
      </trkpt>
      <trkpt lat="48.68571" lon="1.98818">
        <ele>174.08050537109</ele>
        <time>2016-09-22T12:26:56.000Z</time>
      </trkpt>
      <trkpt lat="48.6857" lon="1.98815">
        <ele>174.06219482422</ele>
        <time>2016-09-22T12:26:59.000Z</time>
      </trkpt>
      <trkpt lat="48.68569" lon="1.98816">
        <ele>174.03730773926</ele>
        <time>2016-09-22T12:27:02.000Z</time>
      </trkpt>
      <trkpt lat="48.68569" lon="1.98818">
        <ele>174.00547790527</ele>
        <time>2016-09-22T12:27:04.000Z</time>
      </trkpt>
      <trkpt lat="48.68568" lon="1.98819">
        <ele>173.97212219238</ele>
        <time>2016-09-22T12:27:07.000Z</time>
      </trkpt>
      <trkpt lat="48.68565" lon="1.98817">
        <ele>173.92890930176</ele>
        <time>2016-09-22T12:27:09.000Z</time>
      </trkpt>
      <trkpt lat="48.68562" lon="1.98818">
        <ele>173.88874816895</ele>
        <time>2016-09-22T12:27:12.000Z</time>
      </trkpt>
      <trkpt lat="48.6856" lon="1.98819">
        <ele>173.8468170166</ele>
        <time>2016-09-22T12:27:14.000Z</time>
      </trkpt>
      <trkpt lat="48.6856" lon="1.98822">
        <ele>173.7967376709</ele>
        <time>2016-09-22T12:27:16.000Z</time>
      </trkpt>
      <trkpt lat="48.6856" lon="1.98827">
        <ele>173.7702331543</ele>
        <time>2016-09-22T12:27:19.000Z</time>
      </trkpt>
      <trkpt lat="48.68562" lon="1.98831">
        <ele>173.79263305664</ele>
        <time>2016-09-22T12:27:21.000Z</time>
      </trkpt>
      <trkpt lat="48.68561" lon="1.98836">
        <ele>173.82650756836</ele>
        <time>2016-09-22T12:27:24.000Z</time>
      </trkpt>
      <trkpt lat="48.6856" lon="1.9884">
        <ele>173.8537902832</ele>
        <time>2016-09-22T12:27:26.000Z</time>
      </trkpt>
      <trkpt lat="48.68558" lon="1.98846">
        <ele>173.85726928711</ele>
        <time>2016-09-22T12:27:29.000Z</time>
      </trkpt>
      <trkpt lat="48.68555" lon="1.98848">
        <ele>173.80661010742</ele>
        <time>2016-09-22T12:27:32.000Z</time>
      </trkpt>
      <trkpt lat="48.68554" lon="1.98848">
        <ele>173.71853637695</ele>
        <time>2016-09-22T12:27:34.000Z</time>
      </trkpt>
      <trkpt lat="48.6855" lon="1.98849">
        <ele>173.60380554199</ele>
        <time>2016-09-22T12:27:37.000Z</time>
      </trkpt>
      <trkpt lat="48.68548" lon="1.98851">
        <ele>173.47709655762</ele>
        <time>2016-09-22T12:27:39.000Z</time>
      </trkpt>
      <trkpt lat="48.68547" lon="1.98854">
        <ele>173.35507202148</ele>
        <time>2016-09-22T12:27:42.000Z</time>
      </trkpt>
      <trkpt lat="48.68546" lon="1.98858">
        <ele>173.25386047363</ele>
        <time>2016-09-22T12:27:44.000Z</time>
      </trkpt>
      <trkpt lat="48.68546" lon="1.98864">
        <ele>173.1589050293</ele>
        <time>2016-09-22T12:27:47.000Z</time>
      </trkpt>
      <trkpt lat="48.68545" lon="1.98865">
        <ele>173.08772277832</ele>
        <time>2016-09-22T12:27:49.000Z</time>
      </trkpt>
      <trkpt lat="48.68544" lon="1.98869">
        <ele>173.03112792969</ele>
        <time>2016-09-22T12:27:52.000Z</time>
      </trkpt>
      <trkpt lat="48.68544" lon="1.98873">
        <ele>172.98458862305</ele>
        <time>2016-09-22T12:27:55.000Z</time>
      </trkpt>
      <trkpt lat="48.68544" lon="1.98875">
        <ele>172.95297241211</ele>
        <time>2016-09-22T12:27:57.000Z</time>
      </trkpt>
      <trkpt lat="48.68545" lon="1.9888">
        <ele>172.92691040039</ele>
        <time>2016-09-22T12:28:00.000Z</time>
      </trkpt>
      <trkpt lat="48.68546" lon="1.98883">
        <ele>172.91200256348</ele>
        <time>2016-09-22T12:28:03.000Z</time>
      </trkpt>
      <trkpt lat="48.68547" lon="1.98889">
        <ele>172.91639709473</ele>
        <time>2016-09-22T12:28:06.000Z</time>
      </trkpt>
      <trkpt lat="48.68547" lon="1.98896">
        <ele>172.91804504395</ele>
        <time>2016-09-22T12:28:09.000Z</time>
      </trkpt>
      <trkpt lat="48.68547" lon="1.98899">
        <ele>172.92413330078</ele>
        <time>2016-09-22T12:28:11.000Z</time>
      </trkpt>
      <trkpt lat="48.68548" lon="1.98903">
        <ele>172.9309387207</ele>
        <time>2016-09-22T12:28:14.000Z</time>
      </trkpt>
      <trkpt lat="48.68548" lon="1.98906">
        <ele>172.93452453613</ele>
        <time>2016-09-22T12:28:16.000Z</time>
      </trkpt>
      <trkpt lat="48.68548" lon="1.98909">
        <ele>172.92855834961</ele>
        <time>2016-09-22T12:28:18.000Z</time>
      </trkpt>
      <trkpt lat="48.68548" lon="1.98914">
        <ele>172.9294128418</ele>
        <time>2016-09-22T12:28:21.000Z</time>
      </trkpt>
      <trkpt lat="48.68547" lon="1.98917">
        <ele>172.91088867188</ele>
        <time>2016-09-22T12:28:23.000Z</time>
      </trkpt>
      <trkpt lat="48.68547" lon="1.98921">
        <ele>172.86186218262</ele>
        <time>2016-09-22T12:28:26.000Z</time>
      </trkpt>
      <trkpt lat="48.68547" lon="1.98925">
        <ele>172.79440307617</ele>
        <time>2016-09-22T12:28:29.000Z</time>
      </trkpt>
      <trkpt lat="48.68547" lon="1.98928">
        <ele>172.70840454102</ele>
        <time>2016-09-22T12:28:30.000Z</time>
      </trkpt>
      <trkpt lat="48.68547" lon="1.98932">
        <ele>172.61010742188</ele>
        <time>2016-09-22T12:28:32.000Z</time>
      </trkpt>
      <trkpt lat="48.68546" lon="1.98935">
        <ele>172.50193786621</ele>
        <time>2016-09-22T12:28:35.000Z</time>
      </trkpt>
      <trkpt lat="48.68546" lon="1.9894">
        <ele>172.39736938477</ele>
        <time>2016-09-22T12:28:38.000Z</time>
      </trkpt>
      <trkpt lat="48.68545" lon="1.98941">
        <ele>172.29862976074</ele>
        <time>2016-09-22T12:28:40.000Z</time>
      </trkpt>
      <trkpt lat="48.68544" lon="1.98945">
        <ele>172.1929473877</ele>
        <time>2016-09-22T12:28:43.000Z</time>
      </trkpt>
      <trkpt lat="48.68543" lon="1.98948">
        <ele>172.07746887207</ele>
        <time>2016-09-22T12:28:45.000Z</time>
      </trkpt>
      <trkpt lat="48.68542" lon="1.98952">
        <ele>171.95866394043</ele>
        <time>2016-09-22T12:28:47.000Z</time>
      </trkpt>
      <trkpt lat="48.68542" lon="1.98956">
        <ele>171.83557128906</ele>
        <time>2016-09-22T12:28:49.000Z</time>
      </trkpt>
      <trkpt lat="48.6854" lon="1.98963">
        <ele>171.67451477051</ele>
        <time>2016-09-22T12:28:52.000Z</time>
      </trkpt>
      <trkpt lat="48.68539" lon="1.98967">
        <ele>171.5160369873</ele>
        <time>2016-09-22T12:28:54.000Z</time>
      </trkpt>
      <trkpt lat="48.68538" lon="1.98972">
        <ele>171.35104370117</ele>
        <time>2016-09-22T12:28:57.000Z</time>
      </trkpt>
      <trkpt lat="48.68536" lon="1.98977">
        <ele>171.17752075195</ele>
        <time>2016-09-22T12:29:00.000Z</time>
      </trkpt>
      <trkpt lat="48.68536" lon="1.9898">
        <ele>171.01420593262</ele>
        <time>2016-09-22T12:29:02.000Z</time>
      </trkpt>
      <trkpt lat="48.68534" lon="1.98984">
        <ele>170.86457824707</ele>
        <time>2016-09-22T12:29:05.000Z</time>
      </trkpt>
      <trkpt lat="48.68533" lon="1.98989">
        <ele>170.71022033691</ele>
        <time>2016-09-22T12:29:08.000Z</time>
      </trkpt>
      <trkpt lat="48.68532" lon="1.98992">
        <ele>170.5728302002</ele>
        <time>2016-09-22T12:29:10.000Z</time>
      </trkpt>
      <trkpt lat="48.68531" lon="1.98995">
        <ele>170.44638061523</ele>
        <time>2016-09-22T12:29:13.000Z</time>
      </trkpt>
      <trkpt lat="48.6853" lon="1.98999">
        <ele>170.31484985352</ele>
        <time>2016-09-22T12:29:16.000Z</time>
      </trkpt>
      <trkpt lat="48.68529" lon="1.99004">
        <ele>170.22326660156</ele>
        <time>2016-09-22T12:29:19.000Z</time>
      </trkpt>
      <trkpt lat="48.68529" lon="1.99009">
        <ele>170.1745300293</ele>
        <time>2016-09-22T12:29:22.000Z</time>
      </trkpt>
      <trkpt lat="48.68528" lon="1.99013">
        <ele>170.15104675293</ele>
        <time>2016-09-22T12:29:25.000Z</time>
      </trkpt>
      <trkpt lat="48.68527" lon="1.99018">
        <ele>170.16275024414</ele>
        <time>2016-09-22T12:29:28.000Z</time>
      </trkpt>
      <trkpt lat="48.68526" lon="1.99023">
        <ele>170.20887756348</ele>
        <time>2016-09-22T12:29:31.000Z</time>
      </trkpt>
      <trkpt lat="48.68524" lon="1.99027">
        <ele>170.25375366211</ele>
        <time>2016-09-22T12:29:34.000Z</time>
      </trkpt>
      <trkpt lat="48.68523" lon="1.99031">
        <ele>170.29235839844</ele>
        <time>2016-09-22T12:29:37.000Z</time>
      </trkpt>
      <trkpt lat="48.68522" lon="1.99034">
        <ele>170.32649230957</ele>
        <time>2016-09-22T12:29:39.000Z</time>
      </trkpt>
      <trkpt lat="48.68521" lon="1.99038">
        <ele>170.36213684082</ele>
        <time>2016-09-22T12:29:42.000Z</time>
      </trkpt>
      <trkpt lat="48.68521" lon="1.9904">
        <ele>170.3950958252</ele>
        <time>2016-09-22T12:29:44.000Z</time>
      </trkpt>
      <trkpt lat="48.6852" lon="1.99044">
        <ele>170.43147277832</ele>
        <time>2016-09-22T12:29:47.000Z</time>
      </trkpt>
      <trkpt lat="48.68519" lon="1.99046">
        <ele>170.46594238281</ele>
        <time>2016-09-22T12:29:49.000Z</time>
      </trkpt>
      <trkpt lat="48.68518" lon="1.99049">
        <ele>170.50422668457</ele>
        <time>2016-09-22T12:29:52.000Z</time>
      </trkpt>
      <trkpt lat="48.68517" lon="1.99052">
        <ele>170.53483581543</ele>
        <time>2016-09-22T12:29:55.000Z</time>
      </trkpt>
      <trkpt lat="48.68516" lon="1.99054">
        <ele>170.56674194336</ele>
        <time>2016-09-22T12:29:58.000Z</time>
      </trkpt>
      <trkpt lat="48.68515" lon="1.99058">
        <ele>170.60171508789</ele>
        <time>2016-09-22T12:30:01.000Z</time>
      </trkpt>
      <trkpt lat="48.68514" lon="1.99061">
        <ele>170.64114379883</ele>
        <time>2016-09-22T12:30:03.000Z</time>
      </trkpt>
      <trkpt lat="48.68513" lon="1.99064">
        <ele>170.68130493164</ele>
        <time>2016-09-22T12:30:05.000Z</time>
      </trkpt>
      <trkpt lat="48.68512" lon="1.99066">
        <ele>170.7204284668</ele>
        <time>2016-09-22T12:30:10.000Z</time>
      </trkpt>
      <trkpt lat="48.68511" lon="1.99069">
        <ele>170.7607421875</ele>
        <time>2016-09-22T12:30:13.000Z</time>
      </trkpt>
      <trkpt lat="48.6851" lon="1.99074">
        <ele>170.80830383301</ele>
        <time>2016-09-22T12:30:15.000Z</time>
      </trkpt>
      <trkpt lat="48.68509" lon="1.99077">
        <ele>170.85774230957</ele>
        <time>2016-09-22T12:30:17.000Z</time>
      </trkpt>
      <trkpt lat="48.68507" lon="1.99084">
        <ele>170.92047119141</ele>
        <time>2016-09-22T12:30:20.000Z</time>
      </trkpt>
      <trkpt lat="48.68505" lon="1.9909">
        <ele>170.98945617676</ele>
        <time>2016-09-22T12:30:23.000Z</time>
      </trkpt>
      <trkpt lat="48.68504" lon="1.99094">
        <ele>171.05619812012</ele>
        <time>2016-09-22T12:30:25.000Z</time>
      </trkpt>
      <trkpt lat="48.68502" lon="1.99098">
        <ele>171.11128234863</ele>
        <time>2016-09-22T12:30:28.000Z</time>
      </trkpt>
      <trkpt lat="48.68501" lon="1.99102">
        <ele>171.16305541992</ele>
        <time>2016-09-22T12:30:31.000Z</time>
      </trkpt>
      <trkpt lat="48.685" lon="1.99108">
        <ele>171.20584106445</ele>
        <time>2016-09-22T12:30:34.000Z</time>
      </trkpt>
      <trkpt lat="48.68499" lon="1.99113">
        <ele>171.24942016602</ele>
        <time>2016-09-22T12:30:37.000Z</time>
      </trkpt>
      <trkpt lat="48.68499" lon="1.99116">
        <ele>171.29406738281</ele>
        <time>2016-09-22T12:30:39.000Z</time>
      </trkpt>
      <trkpt lat="48.68498" lon="1.99118">
        <ele>171.33860778809</ele>
        <time>2016-09-22T12:30:42.000Z</time>
      </trkpt>
      <trkpt lat="48.68497" lon="1.99119">
        <ele>171.37847900391</ele>
        <time>2016-09-22T12:30:47.000Z</time>
      </trkpt>
      <trkpt lat="48.68499" lon="1.99125">
        <ele>171.41784667969</ele>
        <time>2016-09-22T12:30:50.000Z</time>
      </trkpt>
      <trkpt lat="48.68501" lon="1.99128">
        <ele>171.45526123047</ele>
        <time>2016-09-22T12:30:53.000Z</time>
      </trkpt>
      <trkpt lat="48.68505" lon="1.99132">
        <ele>171.49897766113</ele>
        <time>2016-09-22T12:30:55.000Z</time>
      </trkpt>
      <trkpt lat="48.68507" lon="1.99134">
        <ele>171.54479980469</ele>
        <time>2016-09-22T12:30:57.000Z</time>
      </trkpt>
      <trkpt lat="48.68511" lon="1.99138">
        <ele>171.59832763672</ele>
        <time>2016-09-22T12:31:00.000Z</time>
      </trkpt>
      <trkpt lat="48.68513" lon="1.9914">
        <ele>171.64627075195</ele>
        <time>2016-09-22T12:31:02.000Z</time>
      </trkpt>
      <trkpt lat="48.68517" lon="1.99143">
        <ele>171.69297790527</ele>
        <time>2016-09-22T12:31:05.000Z</time>
      </trkpt>
      <trkpt lat="48.68521" lon="1.99145">
        <ele>171.7322845459</ele>
        <time>2016-09-22T12:31:08.000Z</time>
      </trkpt>
      <trkpt lat="48.68522" lon="1.99147">
        <ele>171.76803588867</ele>
        <time>2016-09-22T12:31:10.000Z</time>
      </trkpt>
      <trkpt lat="48.68523" lon="1.9915">
        <ele>171.79922485352</ele>
        <time>2016-09-22T12:31:13.000Z</time>
      </trkpt>
      <trkpt lat="48.68523" lon="1.99152">
        <ele>171.82682800293</ele>
        <time>2016-09-22T12:31:15.000Z</time>
      </trkpt>
      <trkpt lat="48.68523" lon="1.99154">
        <ele>171.85020446777</ele>
        <time>2016-09-22T12:31:22.000Z</time>
      </trkpt>
      <trkpt lat="48.68526" lon="1.99156">
        <ele>171.8724822998</ele>
        <time>2016-09-22T12:31:25.000Z</time>
      </trkpt>
      <trkpt lat="48.6853" lon="1.99158">
        <ele>171.89408874512</ele>
        <time>2016-09-22T12:31:28.000Z</time>
      </trkpt>
      <trkpt lat="48.68533" lon="1.9916">
        <ele>171.91268920898</ele>
        <time>2016-09-22T12:31:30.000Z</time>
      </trkpt>
      <trkpt lat="48.68536" lon="1.99162">
        <ele>171.9319152832</ele>
        <time>2016-09-22T12:31:33.000Z</time>
      </trkpt>
      <trkpt lat="48.68538" lon="1.99166">
        <ele>171.95330810547</ele>
        <time>2016-09-22T12:31:36.000Z</time>
      </trkpt>
      <trkpt lat="48.68542" lon="1.99168">
        <ele>171.97343444824</ele>
        <time>2016-09-22T12:31:39.000Z</time>
      </trkpt>
      <trkpt lat="48.68545" lon="1.99169">
        <ele>171.99174499512</ele>
        <time>2016-09-22T12:31:41.000Z</time>
      </trkpt>
      <trkpt lat="48.68548" lon="1.9917">
        <ele>172.01203918457</ele>
        <time>2016-09-22T12:31:44.000Z</time>
      </trkpt>
      <trkpt lat="48.6855" lon="1.99172">
        <ele>172.03520202637</ele>
        <time>2016-09-22T12:31:46.000Z</time>
      </trkpt>
      <trkpt lat="48.68554" lon="1.99176">
        <ele>172.0641784668</ele>
        <time>2016-09-22T12:31:49.000Z</time>
      </trkpt>
      <trkpt lat="48.68557" lon="1.99178">
        <ele>172.09939575195</ele>
        <time>2016-09-22T12:31:51.000Z</time>
      </trkpt>
      <trkpt lat="48.68559" lon="1.99183">
        <ele>172.14974975586</ele>
        <time>2016-09-22T12:31:54.000Z</time>
      </trkpt>
      <trkpt lat="48.6856" lon="1.99188">
        <ele>172.21527099609</ele>
        <time>2016-09-22T12:31:57.000Z</time>
      </trkpt>
      <trkpt lat="48.6856" lon="1.99193">
        <ele>172.28813171387</ele>
        <time>2016-09-22T12:31:59.000Z</time>
      </trkpt>
      <trkpt lat="48.6856" lon="1.99199">
        <ele>172.37008666992</ele>
        <time>2016-09-22T12:32:02.000Z</time>
      </trkpt>
      <trkpt lat="48.68559" lon="1.99203">
        <ele>172.45204162598</ele>
        <time>2016-09-22T12:32:04.000Z</time>
      </trkpt>
      <trkpt lat="48.68557" lon="1.99208">
        <ele>172.53118896484</ele>
        <time>2016-09-22T12:32:07.000Z</time>
      </trkpt>
      <trkpt lat="48.68555" lon="1.99213">
        <ele>172.60021972656</ele>
        <time>2016-09-22T12:32:10.000Z</time>
      </trkpt>
      <trkpt lat="48.68553" lon="1.99216">
        <ele>172.66067504883</ele>
        <time>2016-09-22T12:32:12.000Z</time>
      </trkpt>
      <trkpt lat="48.68552" lon="1.99219">
        <ele>172.70802307129</ele>
        <time>2016-09-22T12:32:14.000Z</time>
      </trkpt>
      <trkpt lat="48.6855" lon="1.99225">
        <ele>172.75456237793</ele>
        <time>2016-09-22T12:32:17.000Z</time>
      </trkpt>
      <trkpt lat="48.68548" lon="1.99228">
        <ele>172.79000854492</ele>
        <time>2016-09-22T12:32:19.000Z</time>
      </trkpt>
      <trkpt lat="48.68546" lon="1.99233">
        <ele>172.81887817383</ele>
        <time>2016-09-22T12:32:22.000Z</time>
      </trkpt>
      <trkpt lat="48.68544" lon="1.99237">
        <ele>172.84567260742</ele>
        <time>2016-09-22T12:32:25.000Z</time>
      </trkpt>
      <trkpt lat="48.68542" lon="1.99242">
        <ele>172.86779785156</ele>
        <time>2016-09-22T12:32:28.000Z</time>
      </trkpt>
      <trkpt lat="48.6854" lon="1.99245">
        <ele>172.88146972656</ele>
        <time>2016-09-22T12:32:30.000Z</time>
      </trkpt>
      <trkpt lat="48.68538" lon="1.99251">
        <ele>172.89784240723</ele>
        <time>2016-09-22T12:32:33.000Z</time>
      </trkpt>
      <trkpt lat="48.68537" lon="1.99255">
        <ele>172.9116973877</ele>
        <time>2016-09-22T12:32:35.000Z</time>
      </trkpt>
      <trkpt lat="48.68534" lon="1.9926">
        <ele>172.92433166504</ele>
        <time>2016-09-22T12:32:38.000Z</time>
      </trkpt>
      <trkpt lat="48.68533" lon="1.99263">
        <ele>172.93585205078</ele>
        <time>2016-09-22T12:32:40.000Z</time>
      </trkpt>
      <trkpt lat="48.68531" lon="1.99267">
        <ele>172.94415283203</ele>
        <time>2016-09-22T12:32:43.000Z</time>
      </trkpt>
      <trkpt lat="48.6853" lon="1.9927">
        <ele>172.95080566406</ele>
        <time>2016-09-22T12:32:45.000Z</time>
      </trkpt>
      <trkpt lat="48.68528" lon="1.99273">
        <ele>172.95367431641</ele>
        <time>2016-09-22T12:32:48.000Z</time>
      </trkpt>
      <trkpt lat="48.68526" lon="1.99276">
        <ele>172.95349121094</ele>
        <time>2016-09-22T12:32:50.000Z</time>
      </trkpt>
      <trkpt lat="48.68525" lon="1.9928">
        <ele>172.95355224609</ele>
        <time>2016-09-22T12:32:52.000Z</time>
      </trkpt>
      <trkpt lat="48.68523" lon="1.99284">
        <ele>172.95574951172</ele>
        <time>2016-09-22T12:32:55.000Z</time>
      </trkpt>
      <trkpt lat="48.6852" lon="1.99286">
        <ele>172.94677734375</ele>
        <time>2016-09-22T12:32:58.000Z</time>
      </trkpt>
      <trkpt lat="48.68518" lon="1.99292">
        <ele>172.94604492188</ele>
        <time>2016-09-22T12:33:01.000Z</time>
      </trkpt>
      <trkpt lat="48.68517" lon="1.99296">
        <ele>172.95104980469</ele>
        <time>2016-09-22T12:33:03.000Z</time>
      </trkpt>
      <trkpt lat="48.68516" lon="1.99302">
        <ele>172.96142578125</ele>
        <time>2016-09-22T12:33:06.000Z</time>
      </trkpt>
      <trkpt lat="48.68515" lon="1.99306">
        <ele>172.97769165039</ele>
        <time>2016-09-22T12:33:08.000Z</time>
      </trkpt>
      <trkpt lat="48.68514" lon="1.9931">
        <ele>173.0065612793</ele>
        <time>2016-09-22T12:33:10.000Z</time>
      </trkpt>
      <trkpt lat="48.68513" lon="1.99316">
        <ele>173.03549194336</ele>
        <time>2016-09-22T12:33:13.000Z</time>
      </trkpt>
      <trkpt lat="48.68512" lon="1.9932">
        <ele>173.06401062012</ele>
        <time>2016-09-22T12:33:15.000Z</time>
      </trkpt>
      <trkpt lat="48.6851" lon="1.99324">
        <ele>173.08930969238</ele>
        <time>2016-09-22T12:33:17.000Z</time>
      </trkpt>
      <trkpt lat="48.68509" lon="1.99329">
        <ele>173.11552429199</ele>
        <time>2016-09-22T12:33:20.000Z</time>
      </trkpt>
      <trkpt lat="48.68508" lon="1.99334">
        <ele>173.1413269043</ele>
        <time>2016-09-22T12:33:23.000Z</time>
      </trkpt>
      <trkpt lat="48.68506" lon="1.99339">
        <ele>173.17744445801</ele>
        <time>2016-09-22T12:33:26.000Z</time>
      </trkpt>
      <trkpt lat="48.68505" lon="1.99345">
        <ele>173.22940063477</ele>
        <time>2016-09-22T12:33:29.000Z</time>
      </trkpt>
      <trkpt lat="48.68504" lon="1.99349">
        <ele>173.29364013672</ele>
        <time>2016-09-22T12:33:31.000Z</time>
      </trkpt>
      <trkpt lat="48.68504" lon="1.99355">
        <ele>173.37582397461</ele>
        <time>2016-09-22T12:33:34.000Z</time>
      </trkpt>
      <trkpt lat="48.68504" lon="1.99359">
        <ele>173.4729309082</ele>
        <time>2016-09-22T12:33:37.000Z</time>
      </trkpt>
      <trkpt lat="48.68502" lon="1.99363">
        <ele>173.56761169434</ele>
        <time>2016-09-22T12:33:39.000Z</time>
      </trkpt>
      <trkpt lat="48.68501" lon="1.99371">
        <ele>173.67306518555</ele>
        <time>2016-09-22T12:33:42.000Z</time>
      </trkpt>
      <trkpt lat="48.68498" lon="1.99377">
        <ele>173.7907409668</ele>
        <time>2016-09-22T12:33:45.000Z</time>
      </trkpt>
      <trkpt lat="48.68497" lon="1.9938">
        <ele>173.8995513916</ele>
        <time>2016-09-22T12:33:47.000Z</time>
      </trkpt>
      <trkpt lat="48.68496" lon="1.99382">
        <ele>173.99626159668</ele>
        <time>2016-09-22T12:33:49.000Z</time>
      </trkpt>
      <trkpt lat="48.68495" lon="1.99384">
        <ele>174.08554077148</ele>
        <time>2016-09-22T12:33:51.000Z</time>
      </trkpt>
      <trkpt lat="48.68493" lon="1.99388">
        <ele>174.16432189941</ele>
        <time>2016-09-22T12:33:54.000Z</time>
      </trkpt>
      <trkpt lat="48.68493" lon="1.9939">
        <ele>174.220703125</ele>
        <time>2016-09-22T12:33:56.000Z</time>
      </trkpt>
      <trkpt lat="48.68493" lon="1.99393">
        <ele>174.27481079102</ele>
        <time>2016-09-22T12:34:06.000Z</time>
      </trkpt>
      <trkpt lat="48.68491" lon="1.994">
        <ele>174.3508605957</ele>
        <time>2016-09-22T12:34:09.000Z</time>
      </trkpt>
      <trkpt lat="48.68489" lon="1.99407">
        <ele>174.44696044922</ele>
        <time>2016-09-22T12:34:12.000Z</time>
      </trkpt>
      <trkpt lat="48.68488" lon="1.99411">
        <ele>174.53628540039</ele>
        <time>2016-09-22T12:34:14.000Z</time>
      </trkpt>
      <trkpt lat="48.68486" lon="1.99417">
        <ele>174.63594055176</ele>
        <time>2016-09-22T12:34:17.000Z</time>
      </trkpt>
      <trkpt lat="48.68485" lon="1.99421">
        <ele>174.71018981934</ele>
        <time>2016-09-22T12:34:19.000Z</time>
      </trkpt>
      <trkpt lat="48.68483" lon="1.99425">
        <ele>174.7414855957</ele>
        <time>2016-09-22T12:34:22.000Z</time>
      </trkpt>
      <trkpt lat="48.68481" lon="1.99429">
        <ele>174.73184204102</ele>
        <time>2016-09-22T12:34:25.000Z</time>
      </trkpt>
      <trkpt lat="48.68481" lon="1.99434">
        <ele>174.69445800781</ele>
        <time>2016-09-22T12:34:27.000Z</time>
      </trkpt>
      <trkpt lat="48.68479" lon="1.9944">
        <ele>174.62185668945</ele>
        <time>2016-09-22T12:34:30.000Z</time>
      </trkpt>
      <trkpt lat="48.68476" lon="1.99446">
        <ele>174.541015625</ele>
        <time>2016-09-22T12:34:33.000Z</time>
      </trkpt>
      <trkpt lat="48.68474" lon="1.99451">
        <ele>174.45455932617</ele>
        <time>2016-09-22T12:34:36.000Z</time>
      </trkpt>
      <trkpt lat="48.68472" lon="1.99456">
        <ele>174.37013244629</ele>
        <time>2016-09-22T12:34:38.000Z</time>
      </trkpt>
      <trkpt lat="48.6847" lon="1.99462">
        <ele>174.2783203125</ele>
        <time>2016-09-22T12:34:41.000Z</time>
      </trkpt>
      <trkpt lat="48.68468" lon="1.99466">
        <ele>174.1901550293</ele>
        <time>2016-09-22T12:34:43.000Z</time>
      </trkpt>
      <trkpt lat="48.68467" lon="1.9947">
        <ele>174.10928344727</ele>
        <time>2016-09-22T12:34:45.000Z</time>
      </trkpt>
      <trkpt lat="48.68464" lon="1.99476">
        <ele>174.0287322998</ele>
        <time>2016-09-22T12:34:48.000Z</time>
      </trkpt>
      <trkpt lat="48.68463" lon="1.99479">
        <ele>173.95071411133</ele>
        <time>2016-09-22T12:34:50.000Z</time>
      </trkpt>
      <trkpt lat="48.68461" lon="1.99484">
        <ele>173.87580871582</ele>
        <time>2016-09-22T12:34:53.000Z</time>
      </trkpt>
      <trkpt lat="48.6846" lon="1.99488">
        <ele>173.80444335938</ele>
        <time>2016-09-22T12:34:55.000Z</time>
      </trkpt>
      <trkpt lat="48.68459" lon="1.99493">
        <ele>173.72970581055</ele>
        <time>2016-09-22T12:34:58.000Z</time>
      </trkpt>
      <trkpt lat="48.68457" lon="1.99497">
        <ele>173.66159057617</ele>
        <time>2016-09-22T12:35:00.000Z</time>
      </trkpt>
      <trkpt lat="48.68455" lon="1.99502">
        <ele>173.58847045898</ele>
        <time>2016-09-22T12:35:03.000Z</time>
      </trkpt>
      <trkpt lat="48.68453" lon="1.99506">
        <ele>173.52453613281</ele>
        <time>2016-09-22T12:35:06.000Z</time>
      </trkpt>
      <trkpt lat="48.68451" lon="1.99511">
        <ele>173.46296691895</ele>
        <time>2016-09-22T12:35:09.000Z</time>
      </trkpt>
      <trkpt lat="48.6845" lon="1.99514">
        <ele>173.41304016113</ele>
        <time>2016-09-22T12:35:11.000Z</time>
      </trkpt>
      <trkpt lat="48.68449" lon="1.99518">
        <ele>173.36819458008</ele>
        <time>2016-09-22T12:35:14.000Z</time>
      </trkpt>
      <trkpt lat="48.68448" lon="1.9952">
        <ele>173.33567810059</ele>
        <time>2016-09-22T12:35:16.000Z</time>
      </trkpt>
      <trkpt lat="48.68447" lon="1.99525">
        <ele>173.30654907227</ele>
        <time>2016-09-22T12:35:19.000Z</time>
      </trkpt>
      <trkpt lat="48.68445" lon="1.9953">
        <ele>173.2780456543</ele>
        <time>2016-09-22T12:35:22.000Z</time>
      </trkpt>
      <trkpt lat="48.68442" lon="1.99536">
        <ele>173.24545288086</ele>
        <time>2016-09-22T12:35:25.000Z</time>
      </trkpt>
      <trkpt lat="48.6844" lon="1.99542">
        <ele>173.2133026123</ele>
        <time>2016-09-22T12:35:28.000Z</time>
      </trkpt>
      <trkpt lat="48.68439" lon="1.99544">
        <ele>173.18098449707</ele>
        <time>2016-09-22T12:35:30.000Z</time>
      </trkpt>
      <trkpt lat="48.68437" lon="1.99549">
        <ele>173.14990234375</ele>
        <time>2016-09-22T12:35:33.000Z</time>
      </trkpt>
      <trkpt lat="48.68435" lon="1.99553">
        <ele>173.1233215332</ele>
        <time>2016-09-22T12:35:36.000Z</time>
      </trkpt>
      <trkpt lat="48.68433" lon="1.99559">
        <ele>173.10078430176</ele>
        <time>2016-09-22T12:35:39.000Z</time>
      </trkpt>
      <trkpt lat="48.68432" lon="1.99563">
        <ele>173.08183288574</ele>
        <time>2016-09-22T12:35:41.000Z</time>
      </trkpt>
      <trkpt lat="48.68431" lon="1.99568">
        <ele>173.06311035156</ele>
        <time>2016-09-22T12:35:44.000Z</time>
      </trkpt>
      <trkpt lat="48.68429" lon="1.99571">
        <ele>173.04740905762</ele>
        <time>2016-09-22T12:35:46.000Z</time>
      </trkpt>
      <trkpt lat="48.68427" lon="1.99574">
        <ele>173.03401184082</ele>
        <time>2016-09-22T12:35:48.000Z</time>
      </trkpt>
      <trkpt lat="48.68425" lon="1.99576">
        <ele>173.02407836914</ele>
        <time>2016-09-22T12:35:51.000Z</time>
      </trkpt>
      <trkpt lat="48.68422" lon="1.9958">
        <ele>173.01557922363</ele>
        <time>2016-09-22T12:35:54.000Z</time>
      </trkpt>
      <trkpt lat="48.68421" lon="1.99583">
        <ele>173.00967407227</ele>
        <time>2016-09-22T12:35:56.000Z</time>
      </trkpt>
      <trkpt lat="48.6842" lon="1.99588">
        <ele>173.00468444824</ele>
        <time>2016-09-22T12:35:59.000Z</time>
      </trkpt>
      <trkpt lat="48.68419" lon="1.99595">
        <ele>173.00106811523</ele>
        <time>2016-09-22T12:36:02.000Z</time>
      </trkpt>
      <trkpt lat="48.68417" lon="1.99602">
        <ele>172.9991607666</ele>
        <time>2016-09-22T12:36:05.000Z</time>
      </trkpt>
      <trkpt lat="48.68415" lon="1.99606">
        <ele>173.00207519531</ele>
        <time>2016-09-22T12:36:07.000Z</time>
      </trkpt>
      <trkpt lat="48.68414" lon="1.99611">
        <ele>173.00955200195</ele>
        <time>2016-09-22T12:36:10.000Z</time>
      </trkpt>
      <trkpt lat="48.68413" lon="1.99616">
        <ele>173.02197265625</ele>
        <time>2016-09-22T12:36:12.000Z</time>
      </trkpt>
      <trkpt lat="48.68412" lon="1.99619">
        <ele>173.0378112793</ele>
        <time>2016-09-22T12:36:14.000Z</time>
      </trkpt>
      <trkpt lat="48.6841" lon="1.99626">
        <ele>173.05987548828</ele>
        <time>2016-09-22T12:36:17.000Z</time>
      </trkpt>
      <trkpt lat="48.68408" lon="1.9963">
        <ele>173.08967590332</ele>
        <time>2016-09-22T12:36:20.000Z</time>
      </trkpt>
      <trkpt lat="48.68406" lon="1.99633">
        <ele>173.12385559082</ele>
        <time>2016-09-22T12:36:22.000Z</time>
      </trkpt>
      <trkpt lat="48.68405" lon="1.99638">
        <ele>173.15835571289</ele>
        <time>2016-09-22T12:36:25.000Z</time>
      </trkpt>
      <trkpt lat="48.68405" lon="1.99641">
        <ele>173.19082641602</ele>
        <time>2016-09-22T12:36:28.000Z</time>
      </trkpt>
      <trkpt lat="48.68404" lon="1.99645">
        <ele>173.22122192383</ele>
        <time>2016-09-22T12:36:30.000Z</time>
      </trkpt>
      <trkpt lat="48.68403" lon="1.99648">
        <ele>173.24482727051</ele>
        <time>2016-09-22T12:36:32.000Z</time>
      </trkpt>
      <trkpt lat="48.68402" lon="1.99651">
        <ele>173.26652526855</ele>
        <time>2016-09-22T12:36:34.000Z</time>
      </trkpt>
      <trkpt lat="48.68401" lon="1.99655">
        <ele>173.28881835938</ele>
        <time>2016-09-22T12:36:36.000Z</time>
      </trkpt>
      <trkpt lat="48.684" lon="1.9966">
        <ele>173.31962585449</ele>
        <time>2016-09-22T12:36:39.000Z</time>
      </trkpt>
      <trkpt lat="48.68398" lon="1.99663">
        <ele>173.3532409668</ele>
        <time>2016-09-22T12:36:42.000Z</time>
      </trkpt>
      <trkpt lat="48.68397" lon="1.99668">
        <ele>173.39804077148</ele>
        <time>2016-09-22T12:36:45.000Z</time>
      </trkpt>
      <trkpt lat="48.68394" lon="1.99673">
        <ele>173.4645690918</ele>
        <time>2016-09-22T12:36:48.000Z</time>
      </trkpt>
      <trkpt lat="48.68393" lon="1.99677">
        <ele>173.54426574707</ele>
        <time>2016-09-22T12:36:50.000Z</time>
      </trkpt>
      <trkpt lat="48.68391" lon="1.99682">
        <ele>173.6371307373</ele>
        <time>2016-09-22T12:36:53.000Z</time>
      </trkpt>
      <trkpt lat="48.68389" lon="1.99687">
        <ele>173.74771118164</ele>
        <time>2016-09-22T12:36:56.000Z</time>
      </trkpt>
      <trkpt lat="48.68388" lon="1.99691">
        <ele>173.86239624023</ele>
        <time>2016-09-22T12:36:58.000Z</time>
      </trkpt>
      <trkpt lat="48.68386" lon="1.99696">
        <ele>173.96806335449</ele>
        <time>2016-09-22T12:37:01.000Z</time>
      </trkpt>
      <trkpt lat="48.68385" lon="1.997">
        <ele>174.07052612305</ele>
        <time>2016-09-22T12:37:04.000Z</time>
      </trkpt>
      <trkpt lat="48.68383" lon="1.99703">
        <ele>174.16578674316</ele>
        <time>2016-09-22T12:37:07.000Z</time>
      </trkpt>
      <trkpt lat="48.68382" lon="1.99706">
        <ele>174.24885559082</ele>
        <time>2016-09-22T12:37:09.000Z</time>
      </trkpt>
      <trkpt lat="48.6838" lon="1.99713">
        <ele>174.33267211914</ele>
        <time>2016-09-22T12:37:12.000Z</time>
      </trkpt>
      <trkpt lat="48.68378" lon="1.99719">
        <ele>174.41828918457</ele>
        <time>2016-09-22T12:37:14.000Z</time>
      </trkpt>
      <trkpt lat="48.68376" lon="1.99724">
        <ele>174.50297546387</ele>
        <time>2016-09-22T12:37:16.000Z</time>
      </trkpt>
      <trkpt lat="48.68375" lon="1.99726">
        <ele>174.57934570312</ele>
        <time>2016-09-22T12:37:18.000Z</time>
      </trkpt>
      <trkpt lat="48.68373" lon="1.99727">
        <ele>174.6471862793</ele>
        <time>2016-09-22T12:37:20.000Z</time>
      </trkpt>
      <trkpt lat="48.68372" lon="1.99727">
        <ele>174.69674682617</ele>
        <time>2016-09-22T12:37:23.000Z</time>
      </trkpt>
      <trkpt lat="48.6837" lon="1.99728">
        <ele>174.72872924805</ele>
        <time>2016-09-22T12:37:26.000Z</time>
      </trkpt>
      <trkpt lat="48.68369" lon="1.9973">
        <ele>174.75314331055</ele>
        <time>2016-09-22T12:37:28.000Z</time>
      </trkpt>
      <trkpt lat="48.68367" lon="1.99734">
        <ele>174.77815246582</ele>
        <time>2016-09-22T12:37:30.000Z</time>
      </trkpt>
      <trkpt lat="48.68365" lon="1.99741">
        <ele>174.81407165527</ele>
        <time>2016-09-22T12:37:33.000Z</time>
      </trkpt>
      <trkpt lat="48.68363" lon="1.99748">
        <ele>174.86116027832</ele>
        <time>2016-09-22T12:37:36.000Z</time>
      </trkpt>
      <trkpt lat="48.68362" lon="1.99753">
        <ele>174.90560913086</ele>
        <time>2016-09-22T12:37:38.000Z</time>
      </trkpt>
      <trkpt lat="48.68361" lon="1.99759">
        <ele>174.93827819824</ele>
        <time>2016-09-22T12:37:41.000Z</time>
      </trkpt>
      <trkpt lat="48.68359" lon="1.99766">
        <ele>174.95874023438</ele>
        <time>2016-09-22T12:37:44.000Z</time>
      </trkpt>
      <trkpt lat="48.68357" lon="1.99772">
        <ele>174.96032714844</ele>
        <time>2016-09-22T12:37:46.000Z</time>
      </trkpt>
      <trkpt lat="48.68357" lon="1.99776">
        <ele>174.9464263916</ele>
        <time>2016-09-22T12:37:48.000Z</time>
      </trkpt>
      <trkpt lat="48.68355" lon="1.99782">
        <ele>174.92860412598</ele>
        <time>2016-09-22T12:37:51.000Z</time>
      </trkpt>
      <trkpt lat="48.68354" lon="1.99789">
        <ele>174.9133605957</ele>
        <time>2016-09-22T12:37:54.000Z</time>
      </trkpt>
      <trkpt lat="48.68352" lon="1.99795">
        <ele>174.90110778809</ele>
        <time>2016-09-22T12:37:57.000Z</time>
      </trkpt>
      <trkpt lat="48.68351" lon="1.99799">
        <ele>174.8923034668</ele>
        <time>2016-09-22T12:37:59.000Z</time>
      </trkpt>
      <trkpt lat="48.68349" lon="1.99802">
        <ele>174.88510131836</ele>
        <time>2016-09-22T12:38:01.000Z</time>
      </trkpt>
      <trkpt lat="48.68348" lon="1.99807">
        <ele>174.88134765625</ele>
        <time>2016-09-22T12:38:03.000Z</time>
      </trkpt>
      <trkpt lat="48.68346" lon="1.99811">
        <ele>174.88101196289</ele>
        <time>2016-09-22T12:38:06.000Z</time>
      </trkpt>
      <trkpt lat="48.68344" lon="1.99816">
        <ele>174.88487243652</ele>
        <time>2016-09-22T12:38:09.000Z</time>
      </trkpt>
      <trkpt lat="48.68343" lon="1.99821">
        <ele>174.8896484375</ele>
        <time>2016-09-22T12:38:12.000Z</time>
      </trkpt>
      <trkpt lat="48.68341" lon="1.99824">
        <ele>174.89744567871</ele>
        <time>2016-09-22T12:38:14.000Z</time>
      </trkpt>
      <trkpt lat="48.68338" lon="1.99828">
        <ele>174.91040039062</ele>
        <time>2016-09-22T12:38:17.000Z</time>
      </trkpt>
      <trkpt lat="48.68337" lon="1.99832">
        <ele>174.92462158203</ele>
        <time>2016-09-22T12:38:20.000Z</time>
      </trkpt>
      <trkpt lat="48.68336" lon="1.99837">
        <ele>174.93908691406</ele>
        <time>2016-09-22T12:38:23.000Z</time>
      </trkpt>
      <trkpt lat="48.68335" lon="1.9984">
        <ele>174.95559692383</ele>
        <time>2016-09-22T12:38:25.000Z</time>
      </trkpt>
      <trkpt lat="48.68333" lon="1.99846">
        <ele>174.97204589844</ele>
        <time>2016-09-22T12:38:28.000Z</time>
      </trkpt>
      <trkpt lat="48.68333" lon="1.99848">
        <ele>174.98266601562</ele>
        <time>2016-09-22T12:38:30.000Z</time>
      </trkpt>
      <trkpt lat="48.68332" lon="1.99854">
        <ele>174.99038696289</ele>
        <time>2016-09-22T12:38:33.000Z</time>
      </trkpt>
      <trkpt lat="48.6833" lon="1.99858">
        <ele>174.99395751953</ele>
        <time>2016-09-22T12:38:35.000Z</time>
      </trkpt>
      <trkpt lat="48.68329" lon="1.99865">
        <ele>174.99261474609</ele>
        <time>2016-09-22T12:38:38.000Z</time>
      </trkpt>
      <trkpt lat="48.68328" lon="1.99869">
        <ele>174.98670959473</ele>
        <time>2016-09-22T12:38:40.000Z</time>
      </trkpt>
      <trkpt lat="48.68326" lon="1.99876">
        <ele>174.97798156738</ele>
        <time>2016-09-22T12:38:43.000Z</time>
      </trkpt>
      <trkpt lat="48.68323" lon="1.99882">
        <ele>174.9645690918</ele>
        <time>2016-09-22T12:38:46.000Z</time>
      </trkpt>
      <trkpt lat="48.68322" lon="1.99885">
        <ele>174.94895935059</ele>
        <time>2016-09-22T12:38:48.000Z</time>
      </trkpt>
      <trkpt lat="48.6832" lon="1.99888">
        <ele>174.93244934082</ele>
        <time>2016-09-22T12:38:50.000Z</time>
      </trkpt>
      <trkpt lat="48.68319" lon="1.99891">
        <ele>174.91470336914</ele>
        <time>2016-09-22T12:38:52.000Z</time>
      </trkpt>
      <trkpt lat="48.68317" lon="1.99896">
        <ele>174.89511108398</ele>
        <time>2016-09-22T12:38:55.000Z</time>
      </trkpt>
      <trkpt lat="48.68317" lon="1.99897">
        <ele>174.87881469727</ele>
        <time>2016-09-22T12:38:57.000Z</time>
      </trkpt>
      <trkpt lat="48.68316" lon="1.99899">
        <ele>174.86334228516</ele>
        <time>2016-09-22T12:39:07.000Z</time>
      </trkpt>
      <trkpt lat="48.68314" lon="1.99903">
        <ele>174.84440612793</ele>
        <time>2016-09-22T12:39:10.000Z</time>
      </trkpt>
      <trkpt lat="48.68312" lon="1.99909">
        <ele>174.82086181641</ele>
        <time>2016-09-22T12:39:13.000Z</time>
      </trkpt>
      <trkpt lat="48.6831" lon="1.99914">
        <ele>174.7958984375</ele>
        <time>2016-09-22T12:39:15.000Z</time>
      </trkpt>
      <trkpt lat="48.68308" lon="1.9992">
        <ele>174.76718139648</ele>
        <time>2016-09-22T12:39:18.000Z</time>
      </trkpt>
      <trkpt lat="48.68306" lon="1.99923">
        <ele>174.74069213867</ele>
        <time>2016-09-22T12:39:20.000Z</time>
      </trkpt>
      <trkpt lat="48.68304" lon="1.99926">
        <ele>174.71870422363</ele>
        <time>2016-09-22T12:39:22.000Z</time>
      </trkpt>
      <trkpt lat="48.68303" lon="1.99929">
        <ele>174.70468139648</ele>
        <time>2016-09-22T12:39:24.000Z</time>
      </trkpt>
      <trkpt lat="48.68301" lon="1.99935">
        <ele>174.69766235352</ele>
        <time>2016-09-22T12:39:27.000Z</time>
      </trkpt>
      <trkpt lat="48.68299" lon="1.9994">
        <ele>174.6976776123</ele>
        <time>2016-09-22T12:39:30.000Z</time>
      </trkpt>
      <trkpt lat="48.68297" lon="1.99945">
        <ele>174.69897460938</ele>
        <time>2016-09-22T12:39:33.000Z</time>
      </trkpt>
      <trkpt lat="48.68295" lon="1.9995">
        <ele>174.7052154541</ele>
        <time>2016-09-22T12:39:36.000Z</time>
      </trkpt>
      <trkpt lat="48.68293" lon="1.99955">
        <ele>174.71479797363</ele>
        <time>2016-09-22T12:39:39.000Z</time>
      </trkpt>
      <trkpt lat="48.68291" lon="1.99959">
        <ele>174.72640991211</ele>
        <time>2016-09-22T12:39:42.000Z</time>
      </trkpt>
      <trkpt lat="48.6829" lon="1.99964">
        <ele>174.7396697998</ele>
        <time>2016-09-22T12:39:45.000Z</time>
      </trkpt>
      <trkpt lat="48.68288" lon="1.99967">
        <ele>174.75444030762</ele>
        <time>2016-09-22T12:39:47.000Z</time>
      </trkpt>
      <trkpt lat="48.68285" lon="1.99973">
        <ele>174.77143859863</ele>
        <time>2016-09-22T12:39:50.000Z</time>
      </trkpt>
      <trkpt lat="48.68282" lon="1.99976">
        <ele>174.78761291504</ele>
        <time>2016-09-22T12:39:53.000Z</time>
      </trkpt>
      <trkpt lat="48.68281" lon="1.99979">
        <ele>174.80513000488</ele>
        <time>2016-09-22T12:39:55.000Z</time>
      </trkpt>
      <trkpt lat="48.68278" lon="1.99985">
        <ele>174.82705688477</ele>
        <time>2016-09-22T12:39:58.000Z</time>
      </trkpt>
      <trkpt lat="48.68275" lon="1.99988">
        <ele>174.85005187988</ele>
        <time>2016-09-22T12:40:00.000Z</time>
      </trkpt>
      <trkpt lat="48.68274" lon="1.99989">
        <ele>174.86979675293</ele>
        <time>2016-09-22T12:40:03.000Z</time>
      </trkpt>
      <trkpt lat="48.6827" lon="1.99994">
        <ele>174.8935546875</ele>
        <time>2016-09-22T12:40:06.000Z</time>
      </trkpt>
      <trkpt lat="48.68269" lon="1.99996">
        <ele>174.91836547852</ele>
        <time>2016-09-22T12:40:09.000Z</time>
      </trkpt>
      <trkpt lat="48.68267" lon="2">
        <ele>174.94273376465</ele>
        <time>2016-09-22T12:40:12.000Z</time>
      </trkpt>
      <trkpt lat="48.68264" lon="2.00007">
        <ele>174.96606445312</ele>
        <time>2016-09-22T12:40:15.000Z</time>
      </trkpt>
      <trkpt lat="48.68262" lon="2.00012">
        <ele>174.98875427246</ele>
        <time>2016-09-22T12:40:18.000Z</time>
      </trkpt>
      <trkpt lat="48.6826" lon="2.00015">
        <ele>175.00473022461</ele>
        <time>2016-09-22T12:40:20.000Z</time>
      </trkpt>
      <trkpt lat="48.68258" lon="2.0002">
        <ele>175.01583862305</ele>
        <time>2016-09-22T12:40:23.000Z</time>
      </trkpt>
      <trkpt lat="48.68255" lon="2.00025">
        <ele>175.0191192627</ele>
        <time>2016-09-22T12:40:26.000Z</time>
      </trkpt>
      <trkpt lat="48.68253" lon="2.00028">
        <ele>175.01856994629</ele>
        <time>2016-09-22T12:40:29.000Z</time>
      </trkpt>
      <trkpt lat="48.68252" lon="2.0003">
        <ele>175.0160369873</ele>
        <time>2016-09-22T12:40:32.000Z</time>
      </trkpt>
      <trkpt lat="48.68252" lon="2.00032">
        <ele>175.01356506348</ele>
        <time>2016-09-22T12:40:39.000Z</time>
      </trkpt>
      <trkpt lat="48.68251" lon="2.00033">
        <ele>175.00984191895</ele>
        <time>2016-09-22T12:40:41.000Z</time>
      </trkpt>
      <trkpt lat="48.68249" lon="2.00038">
        <ele>175.00190734863</ele>
        <time>2016-09-22T12:40:44.000Z</time>
      </trkpt>
      <trkpt lat="48.68248" lon="2.00042">
        <ele>174.99055480957</ele>
        <time>2016-09-22T12:40:47.000Z</time>
      </trkpt>
      <trkpt lat="48.68246" lon="2.00045">
        <ele>174.97506713867</ele>
        <time>2016-09-22T12:40:50.000Z</time>
      </trkpt>
      <trkpt lat="48.68244" lon="2.00046">
        <ele>174.95175170898</ele>
        <time>2016-09-22T12:40:52.000Z</time>
      </trkpt>
      <trkpt lat="48.68242" lon="2.00046">
        <ele>174.92207336426</ele>
        <time>2016-09-22T12:40:55.000Z</time>
      </trkpt>
      <trkpt lat="48.68242" lon="2.00046">
        <ele>174.92207336426</ele>
        <time>2016-09-22T12:41:15.000Z</time>
      </trkpt>
      <trkpt lat="48.68239" lon="2.00053">
        <ele>174.88467407227</ele>
        <time>2016-09-22T12:42:45.000Z</time>
      </trkpt>
      <trkpt lat="48.68237" lon="2.00057">
        <ele>174.84237670898</ele>
        <time>2016-09-22T12:42:48.000Z</time>
      </trkpt>
      <trkpt lat="48.68237" lon="2.00061">
        <ele>174.80006408691</ele>
        <time>2016-09-22T12:42:51.000Z</time>
      </trkpt>
      <trkpt lat="48.68236" lon="2.00064">
        <ele>174.76084899902</ele>
        <time>2016-09-22T12:42:53.000Z</time>
      </trkpt>
      <trkpt lat="48.68235" lon="2.00068">
        <ele>174.7239074707</ele>
        <time>2016-09-22T12:42:56.000Z</time>
      </trkpt>
      <trkpt lat="48.68234" lon="2.0007">
        <ele>174.69519042969</ele>
        <time>2016-09-22T12:42:58.000Z</time>
      </trkpt>
      <trkpt lat="48.68233" lon="2.00073">
        <ele>174.67280578613</ele>
        <time>2016-09-22T12:43:00.000Z</time>
      </trkpt>
      <trkpt lat="48.68232" lon="2.00077">
        <ele>174.64779663086</ele>
        <time>2016-09-22T12:43:03.000Z</time>
      </trkpt>
      <trkpt lat="48.68231" lon="2.00081">
        <ele>174.61953735352</ele>
        <time>2016-09-22T12:43:06.000Z</time>
      </trkpt>
      <trkpt lat="48.6823" lon="2.00084">
        <ele>174.5842590332</ele>
        <time>2016-09-22T12:43:09.000Z</time>
      </trkpt>
      <trkpt lat="48.68228" lon="2.00086">
        <ele>174.54331970215</ele>
        <time>2016-09-22T12:43:11.000Z</time>
      </trkpt>
      <trkpt lat="48.68227" lon="2.00088">
        <ele>174.49368286133</ele>
        <time>2016-09-22T12:43:14.000Z</time>
      </trkpt>
      <trkpt lat="48.68226" lon="2.0009">
        <ele>174.4411315918</ele>
        <time>2016-09-22T12:43:25.000Z</time>
      </trkpt>
      <trkpt lat="48.68224" lon="2.00092">
        <ele>174.38510131836</ele>
        <time>2016-09-22T12:43:27.000Z</time>
      </trkpt>
      <trkpt lat="48.68223" lon="2.00093">
        <ele>174.33058166504</ele>
        <time>2016-09-22T12:43:29.000Z</time>
      </trkpt>
      <trkpt lat="48.68219" lon="2.00094">
        <ele>174.2727355957</ele>
        <time>2016-09-22T12:43:32.000Z</time>
      </trkpt>
      <trkpt lat="48.68216" lon="2.00093">
        <ele>174.21569824219</ele>
        <time>2016-09-22T12:43:35.000Z</time>
      </trkpt>
      <trkpt lat="48.68213" lon="2.00093">
        <ele>174.15811157227</ele>
        <time>2016-09-22T12:43:38.000Z</time>
      </trkpt>
      <trkpt lat="48.68211" lon="2.00092">
        <ele>174.10411071777</ele>
        <time>2016-09-22T12:43:40.000Z</time>
      </trkpt>
      <trkpt lat="48.68208" lon="2.00091">
        <ele>174.05079650879</ele>
        <time>2016-09-22T12:43:43.000Z</time>
      </trkpt>
      <trkpt lat="48.68205" lon="2.0009">
        <ele>173.99848937988</ele>
        <time>2016-09-22T12:43:46.000Z</time>
      </trkpt>
      <trkpt lat="48.68202" lon="2.00089">
        <ele>173.94439697266</ele>
        <time>2016-09-22T12:43:49.000Z</time>
      </trkpt>
      <trkpt lat="48.68199" lon="2.00088">
        <ele>173.88917541504</ele>
        <time>2016-09-22T12:43:51.000Z</time>
      </trkpt>
      <trkpt lat="48.68196" lon="2.00088">
        <ele>173.82751464844</ele>
        <time>2016-09-22T12:43:54.000Z</time>
      </trkpt>
      <trkpt lat="48.68192" lon="2.00087">
        <ele>173.75952148438</ele>
        <time>2016-09-22T12:43:57.000Z</time>
      </trkpt>
      <trkpt lat="48.6819" lon="2.00086">
        <ele>173.69277954102</ele>
        <time>2016-09-22T12:44:00.000Z</time>
      </trkpt>
      <trkpt lat="48.68186" lon="2.00085">
        <ele>173.61962890625</ele>
        <time>2016-09-22T12:44:03.000Z</time>
      </trkpt>
      <trkpt lat="48.68182" lon="2.00085">
        <ele>173.53898620605</ele>
        <time>2016-09-22T12:44:06.000Z</time>
      </trkpt>
      <trkpt lat="48.68179" lon="2.00084">
        <ele>173.46273803711</ele>
        <time>2016-09-22T12:44:08.000Z</time>
      </trkpt>
      <trkpt lat="48.68176" lon="2.00084">
        <ele>173.38471984863</ele>
        <time>2016-09-22T12:44:11.000Z</time>
      </trkpt>
      <trkpt lat="48.68173" lon="2.00083">
        <ele>173.30404663086</ele>
        <time>2016-09-22T12:44:13.000Z</time>
      </trkpt>
      <trkpt lat="48.68169" lon="2.00082">
        <ele>173.22695922852</ele>
        <time>2016-09-22T12:44:16.000Z</time>
      </trkpt>
      <trkpt lat="48.68166" lon="2.00082">
        <ele>173.1569519043</ele>
        <time>2016-09-22T12:44:19.000Z</time>
      </trkpt>
      <trkpt lat="48.68163" lon="2.00082">
        <ele>173.09648132324</ele>
        <time>2016-09-22T12:44:22.000Z</time>
      </trkpt>
      <trkpt lat="48.68159" lon="2.00082">
        <ele>173.05419921875</ele>
        <time>2016-09-22T12:44:25.000Z</time>
      </trkpt>
      <trkpt lat="48.68159" lon="2.00082">
        <ele>173.05419921875</ele>
        <time>2016-09-22T12:44:45.000Z</time>
      </trkpt>
      <trkpt lat="48.68158" lon="2.00082">
        <ele>173.02638244629</ele>
        <time>2016-09-22T12:45:27.000Z</time>
      </trkpt>
      <trkpt lat="48.68156" lon="2.00081">
        <ele>173.0168762207</ele>
        <time>2016-09-22T12:45:29.000Z</time>
      </trkpt>
      <trkpt lat="48.68155" lon="2.0008">
        <ele>173.02172851562</ele>
        <time>2016-09-22T12:45:31.000Z</time>
      </trkpt>
      <trkpt lat="48.68152" lon="2.00079">
        <ele>173.02905273438</ele>
        <time>2016-09-22T12:45:34.000Z</time>
      </trkpt>
      <trkpt lat="48.6815" lon="2.00079">
        <ele>173.03677368164</ele>
        <time>2016-09-22T12:45:36.000Z</time>
      </trkpt>
      <trkpt lat="48.68147" lon="2.00079">
        <ele>173.04296875</ele>
        <time>2016-09-22T12:45:38.000Z</time>
      </trkpt>
      <trkpt lat="48.68145" lon="2.00079">
        <ele>173.04760742188</ele>
        <time>2016-09-22T12:45:40.000Z</time>
      </trkpt>
      <trkpt lat="48.68142" lon="2.00077">
        <ele>173.05419921875</ele>
        <time>2016-09-22T12:45:43.000Z</time>
      </trkpt>
      <trkpt lat="48.68139" lon="2.00076">
        <ele>173.06262207031</ele>
        <time>2016-09-22T12:45:46.000Z</time>
      </trkpt>
      <trkpt lat="48.68135" lon="2.00073">
        <ele>173.07737731934</ele>
        <time>2016-09-22T12:45:49.000Z</time>
      </trkpt>
      <trkpt lat="48.68133" lon="2.00071">
        <ele>173.09799194336</ele>
        <time>2016-09-22T12:45:51.000Z</time>
      </trkpt>
      <trkpt lat="48.68131" lon="2.0007">
        <ele>173.11897277832</ele>
        <time>2016-09-22T12:45:53.000Z</time>
      </trkpt>
      <trkpt lat="48.68129" lon="2.00071">
        <ele>173.13485717773</ele>
        <time>2016-09-22T12:45:55.000Z</time>
      </trkpt>
      <trkpt lat="48.68125" lon="2.0007">
        <ele>173.1488494873</ele>
        <time>2016-09-22T12:45:58.000Z</time>
      </trkpt>
      <trkpt lat="48.68123" lon="2.00069">
        <ele>173.15737915039</ele>
        <time>2016-09-22T12:46:00.000Z</time>
      </trkpt>
      <trkpt lat="48.68121" lon="2.00069">
        <ele>173.16223144531</ele>
        <time>2016-09-22T12:46:02.000Z</time>
      </trkpt>
      <trkpt lat="48.6812" lon="2.00067">
        <ele>173.17001342773</ele>
        <time>2016-09-22T12:46:05.000Z</time>
      </trkpt>
      <trkpt lat="48.68117" lon="2.00066">
        <ele>173.18075561523</ele>
        <time>2016-09-22T12:46:08.000Z</time>
      </trkpt>
      <trkpt lat="48.68114" lon="2.00066">
        <ele>173.1911315918</ele>
        <time>2016-09-22T12:46:10.000Z</time>
      </trkpt>
      <trkpt lat="48.68113" lon="2.00064">
        <ele>173.20300292969</ele>
        <time>2016-09-22T12:46:12.000Z</time>
      </trkpt>
      <trkpt lat="48.68111" lon="2.00063">
        <ele>173.21594238281</ele>
        <time>2016-09-22T12:46:14.000Z</time>
      </trkpt>
      <trkpt lat="48.68106" lon="2.00063">
        <ele>173.2247467041</ele>
        <time>2016-09-22T12:46:17.000Z</time>
      </trkpt>
      <trkpt lat="48.68103" lon="2.00062">
        <ele>173.2346496582</ele>
        <time>2016-09-22T12:46:19.000Z</time>
      </trkpt>
      <trkpt lat="48.681" lon="2.00058">
        <ele>173.25271606445</ele>
        <time>2016-09-22T12:46:22.000Z</time>
      </trkpt>
      <trkpt lat="48.68098" lon="2.00056">
        <ele>173.2717590332</ele>
        <time>2016-09-22T12:46:25.000Z</time>
      </trkpt>
      <trkpt lat="48.68096" lon="2.00056">
        <ele>173.29052734375</ele>
        <time>2016-09-22T12:46:28.000Z</time>
      </trkpt>
      <trkpt lat="48.68095" lon="2.00056">
        <ele>173.30914306641</ele>
        <time>2016-09-22T12:46:31.000Z</time>
      </trkpt>
      <trkpt lat="48.68091" lon="2.00057">
        <ele>173.32064819336</ele>
        <time>2016-09-22T12:46:42.000Z</time>
      </trkpt>
      <trkpt lat="48.68086" lon="2.00057">
        <ele>173.32385253906</ele>
        <time>2016-09-22T12:46:45.000Z</time>
      </trkpt>
      <trkpt lat="48.68081" lon="2.00057">
        <ele>173.32327270508</ele>
        <time>2016-09-22T12:46:48.000Z</time>
      </trkpt>
      <trkpt lat="48.68079" lon="2.00057">
        <ele>173.32119750977</ele>
        <time>2016-09-22T12:46:50.000Z</time>
      </trkpt>
      <trkpt lat="48.68076" lon="2.00055">
        <ele>173.32174682617</ele>
        <time>2016-09-22T12:46:52.000Z</time>
      </trkpt>
      <trkpt lat="48.68074" lon="2.00056">
        <ele>173.32614135742</ele>
        <time>2016-09-22T12:46:55.000Z</time>
      </trkpt>
      <trkpt lat="48.68072" lon="2.00056">
        <ele>173.32797241211</ele>
        <time>2016-09-22T12:46:58.000Z</time>
      </trkpt>
      <trkpt lat="48.68072" lon="2.00056">
        <ele>173.32797241211</ele>
        <time>2016-09-22T12:47:18.000Z</time>
      </trkpt>
      <trkpt lat="48.68071" lon="2.00057">
        <ele>173.32693481445</ele>
        <time>2016-09-22T12:48:09.000Z</time>
      </trkpt>
      <trkpt lat="48.68073" lon="2.00056">
        <ele>173.32723999023</ele>
        <time>2016-09-22T12:48:21.000Z</time>
      </trkpt>
      <trkpt lat="48.68074" lon="2.00056">
        <ele>173.32507324219</ele>
        <time>2016-09-22T12:48:23.000Z</time>
      </trkpt>
      <trkpt lat="48.68075" lon="2.00057">
        <ele>173.322265625</ele>
        <time>2016-09-22T12:48:26.000Z</time>
      </trkpt>
      <trkpt lat="48.68077" lon="2.00059">
        <ele>173.31564331055</ele>
        <time>2016-09-22T12:48:29.000Z</time>
      </trkpt>
      <trkpt lat="48.68079" lon="2.00059">
        <ele>173.31118774414</ele>
        <time>2016-09-22T12:48:31.000Z</time>
      </trkpt>
      <trkpt lat="48.68083" lon="2.00061">
        <ele>173.30081176758</ele>
        <time>2016-09-22T12:48:34.000Z</time>
      </trkpt>
      <trkpt lat="48.68085" lon="2.00062">
        <ele>173.28732299805</ele>
        <time>2016-09-22T12:48:36.000Z</time>
      </trkpt>
      <trkpt lat="48.68087" lon="2.00062">
        <ele>173.27377319336</ele>
        <time>2016-09-22T12:48:38.000Z</time>
      </trkpt>
      <trkpt lat="48.6809" lon="2.00064">
        <ele>173.26065063477</ele>
        <time>2016-09-22T12:48:41.000Z</time>
      </trkpt>
      <trkpt lat="48.68093" lon="2.00064">
        <ele>173.24743652344</ele>
        <time>2016-09-22T12:48:44.000Z</time>
      </trkpt>
      <trkpt lat="48.68099" lon="2.00065">
        <ele>173.23623657227</ele>
        <time>2016-09-22T12:48:47.000Z</time>
      </trkpt>
      <trkpt lat="48.68103" lon="2.00066">
        <ele>173.22717285156</ele>
        <time>2016-09-22T12:48:50.000Z</time>
      </trkpt>
      <trkpt lat="48.68105" lon="2.00066">
        <ele>173.21769714355</ele>
        <time>2016-09-22T12:48:52.000Z</time>
      </trkpt>
      <trkpt lat="48.68107" lon="2.00067">
        <ele>173.21090698242</ele>
        <time>2016-09-22T12:48:54.000Z</time>
      </trkpt>
      <trkpt lat="48.6811" lon="2.00067">
        <ele>173.20370483398</ele>
        <time>2016-09-22T12:48:57.000Z</time>
      </trkpt>
      <trkpt lat="48.68114" lon="2.00068">
        <ele>173.19757080078</ele>
        <time>2016-09-22T12:49:00.000Z</time>
      </trkpt>
      <trkpt lat="48.68118" lon="2.00069">
        <ele>173.18878173828</ele>
        <time>2016-09-22T12:49:03.000Z</time>
      </trkpt>
      <trkpt lat="48.68122" lon="2.00071">
        <ele>173.17687988281</ele>
        <time>2016-09-22T12:49:06.000Z</time>
      </trkpt>
      <trkpt lat="48.68126" lon="2.00073">
        <ele>173.1630859375</ele>
        <time>2016-09-22T12:49:09.000Z</time>
      </trkpt>
      <trkpt lat="48.6813" lon="2.00073">
        <ele>173.1499786377</ele>
        <time>2016-09-22T12:49:12.000Z</time>
      </trkpt>
      <trkpt lat="48.68134" lon="2.00073">
        <ele>173.13702392578</ele>
        <time>2016-09-22T12:49:14.000Z</time>
      </trkpt>
      <trkpt lat="48.68138" lon="2.00074">
        <ele>173.12512207031</ele>
        <time>2016-09-22T12:49:16.000Z</time>
      </trkpt>
      <trkpt lat="48.68142" lon="2.00077">
        <ele>173.11242675781</ele>
        <time>2016-09-22T12:49:19.000Z</time>
      </trkpt>
      <trkpt lat="48.68144" lon="2.00077">
        <ele>173.10287475586</ele>
        <time>2016-09-22T12:49:21.000Z</time>
      </trkpt>
      <trkpt lat="48.68148" lon="2.00074">
        <ele>173.10012817383</ele>
        <time>2016-09-22T12:49:26.000Z</time>
      </trkpt>
      <trkpt lat="48.6815" lon="2.00075">
        <ele>173.09573364258</ele>
        <time>2016-09-22T12:49:28.000Z</time>
      </trkpt>
      <trkpt lat="48.68153" lon="2.00077">
        <ele>173.09017944336</ele>
        <time>2016-09-22T12:49:30.000Z</time>
      </trkpt>
      <trkpt lat="48.68157" lon="2.00078">
        <ele>173.08670043945</ele>
        <time>2016-09-22T12:49:33.000Z</time>
      </trkpt>
      <trkpt lat="48.68161" lon="2.00078">
        <ele>173.08316040039</ele>
        <time>2016-09-22T12:49:36.000Z</time>
      </trkpt>
      <trkpt lat="48.68164" lon="2.00079">
        <ele>173.07202148438</ele>
        <time>2016-09-22T12:49:38.000Z</time>
      </trkpt>
      <trkpt lat="48.68167" lon="2.0008">
        <ele>173.06381225586</ele>
        <time>2016-09-22T12:49:41.000Z</time>
      </trkpt>
      <trkpt lat="48.6817" lon="2.0008">
        <ele>173.06951904297</ele>
        <time>2016-09-22T12:49:43.000Z</time>
      </trkpt>
      <trkpt lat="48.68172" lon="2.00081">
        <ele>173.0874786377</ele>
        <time>2016-09-22T12:49:45.000Z</time>
      </trkpt>
      <trkpt lat="48.68175" lon="2.00083">
        <ele>173.11483764648</ele>
        <time>2016-09-22T12:49:47.000Z</time>
      </trkpt>
      <trkpt lat="48.68178" lon="2.00084">
        <ele>173.15840148926</ele>
        <time>2016-09-22T12:49:49.000Z</time>
      </trkpt>
      <trkpt lat="48.68182" lon="2.00085">
        <ele>173.22180175781</ele>
        <time>2016-09-22T12:49:52.000Z</time>
      </trkpt>
      <trkpt lat="48.68185" lon="2.00085">
        <ele>173.28883361816</ele>
        <time>2016-09-22T12:49:54.000Z</time>
      </trkpt>
      <trkpt lat="48.68188" lon="2.00087">
        <ele>173.36434936523</ele>
        <time>2016-09-22T12:49:57.000Z</time>
      </trkpt>
      <trkpt lat="48.68191" lon="2.00087">
        <ele>173.44218444824</ele>
        <time>2016-09-22T12:49:59.000Z</time>
      </trkpt>
      <trkpt lat="48.68194" lon="2.00088">
        <ele>173.5178527832</ele>
        <time>2016-09-22T12:50:02.000Z</time>
      </trkpt>
      <trkpt lat="48.68197" lon="2.00088">
        <ele>173.58947753906</ele>
        <time>2016-09-22T12:50:06.000Z</time>
      </trkpt>
      <trkpt lat="48.682" lon="2.00089">
        <ele>173.65574645996</ele>
        <time>2016-09-22T12:50:07.000Z</time>
      </trkpt>
      <trkpt lat="48.68202" lon="2.0009">
        <ele>173.7162322998</ele>
        <time>2016-09-22T12:50:09.000Z</time>
      </trkpt>
      <trkpt lat="48.68204" lon="2.00091">
        <ele>173.77322387695</ele>
        <time>2016-09-22T12:50:12.000Z</time>
      </trkpt>
      <trkpt lat="48.68206" lon="2.00093">
        <ele>173.82066345215</ele>
        <time>2016-09-22T12:50:15.000Z</time>
      </trkpt>
      <trkpt lat="48.68209" lon="2.00093">
        <ele>173.86630249023</ele>
        <time>2016-09-22T12:50:17.000Z</time>
      </trkpt>
      <trkpt lat="48.68212" lon="2.00093">
        <ele>173.91409301758</ele>
        <time>2016-09-22T12:50:20.000Z</time>
      </trkpt>
      <trkpt lat="48.68216" lon="2.00093">
        <ele>173.96611022949</ele>
        <time>2016-09-22T12:50:23.000Z</time>
      </trkpt>
      <trkpt lat="48.6822" lon="2.00092">
        <ele>174.02702331543</ele>
        <time>2016-09-22T12:50:26.000Z</time>
      </trkpt>
      <trkpt lat="48.68221" lon="2.00093">
        <ele>174.08840942383</ele>
        <time>2016-09-22T12:50:28.000Z</time>
      </trkpt>
      <trkpt lat="48.68225" lon="2.00093">
        <ele>174.14953613281</ele>
        <time>2016-09-22T12:50:31.000Z</time>
      </trkpt>
      <trkpt lat="48.68229" lon="2.00093">
        <ele>174.21490478516</ele>
        <time>2016-09-22T12:50:34.000Z</time>
      </trkpt>
      <trkpt lat="48.68233" lon="2.00095">
        <ele>174.2776184082</ele>
        <time>2016-09-22T12:50:37.000Z</time>
      </trkpt>
      <trkpt lat="48.68238" lon="2.00096">
        <ele>174.33680725098</ele>
        <time>2016-09-22T12:50:40.000Z</time>
      </trkpt>
      <trkpt lat="48.6824" lon="2.00097">
        <ele>174.39643859863</ele>
        <time>2016-09-22T12:50:42.000Z</time>
      </trkpt>
      <trkpt lat="48.68243" lon="2.00098">
        <ele>174.44937133789</ele>
        <time>2016-09-22T12:50:45.000Z</time>
      </trkpt>
      <trkpt lat="48.68246" lon="2.00099">
        <ele>174.49269104004</ele>
        <time>2016-09-22T12:50:47.000Z</time>
      </trkpt>
      <trkpt lat="48.68248" lon="2.001">
        <ele>174.52461242676</ele>
        <time>2016-09-22T12:50:49.000Z</time>
      </trkpt>
      <trkpt lat="48.6825" lon="2.001">
        <ele>174.54719543457</ele>
        <time>2016-09-22T12:50:51.000Z</time>
      </trkpt>
      <trkpt lat="48.68252" lon="2.00101">
        <ele>174.56869506836</ele>
        <time>2016-09-22T12:50:53.000Z</time>
      </trkpt>
      <trkpt lat="48.68254" lon="2.00102">
        <ele>174.58224487305</ele>
        <time>2016-09-22T12:50:56.000Z</time>
      </trkpt>
      <trkpt lat="48.68256" lon="2.00103">
        <ele>174.59196472168</ele>
        <time>2016-09-22T12:50:58.000Z</time>
      </trkpt>
      <trkpt lat="48.68258" lon="2.00103">
        <ele>174.60006713867</ele>
        <time>2016-09-22T12:51:01.000Z</time>
      </trkpt>
      <trkpt lat="48.68258" lon="2.00105">
        <ele>174.59820556641</ele>
        <time>2016-09-22T12:51:13.000Z</time>
      </trkpt>
      <trkpt lat="48.68259" lon="2.00105">
        <ele>174.59332275391</ele>
        <time>2016-09-22T12:51:15.000Z</time>
      </trkpt>
      <trkpt lat="48.68259" lon="2.00105">
        <ele>174.59332275391</ele>
        <time>2016-09-22T12:51:35.000Z</time>
      </trkpt>
      <trkpt lat="48.68262" lon="2.00103">
        <ele>174.61047363281</ele>
        <time>2016-09-22T12:52:27.000Z</time>
      </trkpt>
      <trkpt lat="48.6826" lon="2.00101">
        <ele>174.62817382812</ele>
        <time>2016-09-22T12:52:30.000Z</time>
      </trkpt>
      <trkpt lat="48.68256" lon="2.001">
        <ele>174.64050292969</ele>
        <time>2016-09-22T12:52:33.000Z</time>
      </trkpt>
      <trkpt lat="48.68253" lon="2.001">
        <ele>174.65411376953</ele>
        <time>2016-09-22T12:52:35.000Z</time>
      </trkpt>
      <trkpt lat="48.6825" lon="2.00098">
        <ele>174.66714477539</ele>
        <time>2016-09-22T12:52:38.000Z</time>
      </trkpt>
      <trkpt lat="48.68248" lon="2.00099">
        <ele>174.64965820312</ele>
        <time>2016-09-22T12:52:40.000Z</time>
      </trkpt>
      <trkpt lat="48.68245" lon="2.00101">
        <ele>174.60632324219</ele>
        <time>2016-09-22T12:52:43.000Z</time>
      </trkpt>
      <trkpt lat="48.68243" lon="2.00104">
        <ele>174.55244445801</ele>
        <time>2016-09-22T12:52:45.000Z</time>
      </trkpt>
      <trkpt lat="48.68241" lon="2.00106">
        <ele>174.49066162109</ele>
        <time>2016-09-22T12:52:48.000Z</time>
      </trkpt>
      <trkpt lat="48.68239" lon="2.00111">
        <ele>174.40335083008</ele>
        <time>2016-09-22T12:52:51.000Z</time>
      </trkpt>
      <trkpt lat="48.68238" lon="2.00115">
        <ele>174.30712890625</ele>
        <time>2016-09-22T12:52:54.000Z</time>
      </trkpt>
      <trkpt lat="48.68238" lon="2.00117">
        <ele>174.22746276855</ele>
        <time>2016-09-22T12:52:56.000Z</time>
      </trkpt>
      <trkpt lat="48.68238" lon="2.00122">
        <ele>174.14297485352</ele>
        <time>2016-09-22T12:52:59.000Z</time>
      </trkpt>
      <trkpt lat="48.68237" lon="2.00128">
        <ele>174.0495300293</ele>
        <time>2016-09-22T12:53:02.000Z</time>
      </trkpt>
      <trkpt lat="48.68237" lon="2.00133">
        <ele>173.96322631836</ele>
        <time>2016-09-22T12:53:05.000Z</time>
      </trkpt>
      <trkpt lat="48.68237" lon="2.00138">
        <ele>173.87715148926</ele>
        <time>2016-09-22T12:53:08.000Z</time>
      </trkpt>
      <trkpt lat="48.68237" lon="2.00143">
        <ele>173.77919006348</ele>
        <time>2016-09-22T12:53:11.000Z</time>
      </trkpt>
      <trkpt lat="48.68236" lon="2.00146">
        <ele>173.69055175781</ele>
        <time>2016-09-22T12:53:13.000Z</time>
      </trkpt>
      <trkpt lat="48.68235" lon="2.0015">
        <ele>173.61024475098</ele>
        <time>2016-09-22T12:53:16.000Z</time>
      </trkpt>
      <trkpt lat="48.68234" lon="2.00155">
        <ele>173.53344726562</ele>
        <time>2016-09-22T12:53:18.000Z</time>
      </trkpt>
      <trkpt lat="48.68234" lon="2.00162">
        <ele>173.44943237305</ele>
        <time>2016-09-22T12:53:21.000Z</time>
      </trkpt>
      <trkpt lat="48.68234" lon="2.00166">
        <ele>173.37112426758</ele>
        <time>2016-09-22T12:53:23.000Z</time>
      </trkpt>
      <trkpt lat="48.68234" lon="2.00169">
        <ele>173.30125427246</ele>
        <time>2016-09-22T12:53:26.000Z</time>
      </trkpt>
      <trkpt lat="48.68233" lon="2.00173">
        <ele>173.24404907227</ele>
        <time>2016-09-22T12:53:29.000Z</time>
      </trkpt>
      <trkpt lat="48.68233" lon="2.00179">
        <ele>173.20101928711</ele>
        <time>2016-09-22T12:53:32.000Z</time>
      </trkpt>
      <trkpt lat="48.68233" lon="2.00185">
        <ele>173.17936706543</ele>
        <time>2016-09-22T12:53:35.000Z</time>
      </trkpt>
      <trkpt lat="48.68233" lon="2.00191">
        <ele>173.16741943359</ele>
        <time>2016-09-22T12:53:38.000Z</time>
      </trkpt>
      <trkpt lat="48.68233" lon="2.00196">
        <ele>173.15599060059</ele>
        <time>2016-09-22T12:53:40.000Z</time>
      </trkpt>
      <trkpt lat="48.68232" lon="2.00201">
        <ele>173.14430236816</ele>
        <time>2016-09-22T12:53:43.000Z</time>
      </trkpt>
      <trkpt lat="48.68232" lon="2.00207">
        <ele>173.13151550293</ele>
        <time>2016-09-22T12:53:46.000Z</time>
      </trkpt>
      <trkpt lat="48.68232" lon="2.00213">
        <ele>173.11990356445</ele>
        <time>2016-09-22T12:53:49.000Z</time>
      </trkpt>
      <trkpt lat="48.68232" lon="2.00216">
        <ele>173.11038208008</ele>
        <time>2016-09-22T12:53:51.000Z</time>
      </trkpt>
      <trkpt lat="48.68231" lon="2.0022">
        <ele>173.10113525391</ele>
        <time>2016-09-22T12:53:54.000Z</time>
      </trkpt>
      <trkpt lat="48.68231" lon="2.00226">
        <ele>173.09007263184</ele>
        <time>2016-09-22T12:53:57.000Z</time>
      </trkpt>
      <trkpt lat="48.6823" lon="2.00231">
        <ele>173.0788269043</ele>
        <time>2016-09-22T12:53:59.000Z</time>
      </trkpt>
      <trkpt lat="48.68229" lon="2.00238">
        <ele>173.06649780273</ele>
        <time>2016-09-22T12:54:02.000Z</time>
      </trkpt>
      <trkpt lat="48.68229" lon="2.00241">
        <ele>173.05361938477</ele>
        <time>2016-09-22T12:54:06.000Z</time>
      </trkpt>
      <trkpt lat="48.68229" lon="2.00246">
        <ele>173.0397644043</ele>
        <time>2016-09-22T12:54:08.000Z</time>
      </trkpt>
      <trkpt lat="48.68229" lon="2.00253">
        <ele>173.02436828613</ele>
        <time>2016-09-22T12:54:11.000Z</time>
      </trkpt>
      <trkpt lat="48.68229" lon="2.00257">
        <ele>173.00886535645</ele>
        <time>2016-09-22T12:54:13.000Z</time>
      </trkpt>
      <trkpt lat="48.68228" lon="2.00264">
        <ele>172.99264526367</ele>
        <time>2016-09-22T12:54:16.000Z</time>
      </trkpt>
      <trkpt lat="48.68227" lon="2.00272">
        <ele>172.9733581543</ele>
        <time>2016-09-22T12:54:19.000Z</time>
      </trkpt>
      <trkpt lat="48.68227" lon="2.00275">
        <ele>172.95440673828</ele>
        <time>2016-09-22T12:54:21.000Z</time>
      </trkpt>
      <trkpt lat="48.68227" lon="2.0028">
        <ele>172.93669128418</ele>
        <time>2016-09-22T12:54:23.000Z</time>
      </trkpt>
      <trkpt lat="48.68226" lon="2.00283">
        <ele>172.91809082031</ele>
        <time>2016-09-22T12:54:25.000Z</time>
      </trkpt>
      <trkpt lat="48.68224" lon="2.00289">
        <ele>172.89797973633</ele>
        <time>2016-09-22T12:54:28.000Z</time>
      </trkpt>
      <trkpt lat="48.68224" lon="2.00292">
        <ele>172.88064575195</ele>
        <time>2016-09-22T12:54:31.000Z</time>
      </trkpt>
      <trkpt lat="48.68224" lon="2.00298">
        <ele>172.861328125</ele>
        <time>2016-09-22T12:54:39.000Z</time>
      </trkpt>
      <trkpt lat="48.68224" lon="2.00304">
        <ele>172.83987426758</ele>
        <time>2016-09-22T12:54:42.000Z</time>
      </trkpt>
      <trkpt lat="48.68222" lon="2.0031">
        <ele>172.81428527832</ele>
        <time>2016-09-22T12:54:45.000Z</time>
      </trkpt>
      <trkpt lat="48.68222" lon="2.00315">
        <ele>172.7914276123</ele>
        <time>2016-09-22T12:54:47.000Z</time>
      </trkpt>
      <trkpt lat="48.68223" lon="2.00322">
        <ele>172.76657104492</ele>
        <time>2016-09-22T12:54:50.000Z</time>
      </trkpt>
      <trkpt lat="48.68222" lon="2.00327">
        <ele>172.74060058594</ele>
        <time>2016-09-22T12:54:52.000Z</time>
      </trkpt>
      <trkpt lat="48.68222" lon="2.00331">
        <ele>172.71563720703</ele>
        <time>2016-09-22T12:54:54.000Z</time>
      </trkpt>
      <trkpt lat="48.68221" lon="2.00338">
        <ele>172.69581604004</ele>
        <time>2016-09-22T12:54:57.000Z</time>
      </trkpt>
      <trkpt lat="48.68219" lon="2.00331">
        <ele>172.67512512207</ele>
        <time>2016-09-22T12:55:04.000Z</time>
      </trkpt>
      <trkpt lat="48.68219" lon="2.00331">
        <ele>172.67512512207</ele>
        <time>2016-09-22T12:55:24.000Z</time>
      </trkpt>
      <trkpt lat="48.68217" lon="2.00335">
        <ele>172.65298461914</ele>
        <time>2016-09-22T12:55:31.000Z</time>
      </trkpt>
      <trkpt lat="48.68217" lon="2.00341">
        <ele>172.63436889648</ele>
        <time>2016-09-22T12:55:33.000Z</time>
      </trkpt>
      <trkpt lat="48.68216" lon="2.00349">
        <ele>172.61911010742</ele>
        <time>2016-09-22T12:55:36.000Z</time>
      </trkpt>
      <trkpt lat="48.68216" lon="2.00353">
        <ele>172.60641479492</ele>
        <time>2016-09-22T12:55:38.000Z</time>
      </trkpt>
      <trkpt lat="48.68216" lon="2.00359">
        <ele>172.5966796875</ele>
        <time>2016-09-22T12:55:40.000Z</time>
      </trkpt>
      <trkpt lat="48.68216" lon="2.00364">
        <ele>172.5927734375</ele>
        <time>2016-09-22T12:55:42.000Z</time>
      </trkpt>
      <trkpt lat="48.68215" lon="2.00368">
        <ele>172.58984375</ele>
        <time>2016-09-22T12:55:45.000Z</time>
      </trkpt>
      <trkpt lat="48.68214" lon="2.00372">
        <ele>172.5859375</ele>
        <time>2016-09-22T12:55:47.000Z</time>
      </trkpt>
      <trkpt lat="48.68214" lon="2.00378">
        <ele>172.5810546875</ele>
        <time>2016-09-22T12:55:50.000Z</time>
      </trkpt>
      <trkpt lat="48.68214" lon="2.00382">
        <ele>172.576171875</ele>
        <time>2016-09-22T12:55:52.000Z</time>
      </trkpt>
      <trkpt lat="48.68213" lon="2.00388">
        <ele>172.5693359375</ele>
        <time>2016-09-22T12:55:55.000Z</time>
      </trkpt>
      <trkpt lat="48.68213" lon="2.00396">
        <ele>172.564453125</ele>
        <time>2016-09-22T12:55:58.000Z</time>
      </trkpt>
      <trkpt lat="48.68213" lon="2.00399">
        <ele>172.560546875</ele>
        <time>2016-09-22T12:56:00.000Z</time>
      </trkpt>
      <trkpt lat="48.68212" lon="2.00404">
        <ele>172.5556640625</ele>
        <time>2016-09-22T12:56:03.000Z</time>
      </trkpt>
      <trkpt lat="48.68212" lon="2.00407">
        <ele>172.5517578125</ele>
        <time>2016-09-22T12:56:05.000Z</time>
      </trkpt>
      <trkpt lat="48.68212" lon="2.00411">
        <ele>172.548828125</ele>
        <time>2016-09-22T12:56:08.000Z</time>
      </trkpt>
      <trkpt lat="48.68211" lon="2.00415">
        <ele>172.54296875</ele>
        <time>2016-09-22T12:56:11.000Z</time>
      </trkpt>
      <trkpt lat="48.68209" lon="2.00415">
        <ele>172.533203125</ele>
        <time>2016-09-22T12:56:28.000Z</time>
      </trkpt>
      <trkpt lat="48.68206" lon="2.00414">
        <ele>172.51953125</ele>
        <time>2016-09-22T12:56:31.000Z</time>
      </trkpt>
      <trkpt lat="48.68205" lon="2.00413">
        <ele>172.5029296875</ele>
        <time>2016-09-22T12:56:33.000Z</time>
      </trkpt>
      <trkpt lat="48.68204" lon="2.00413">
        <ele>172.484375</ele>
        <time>2016-09-22T12:56:35.000Z</time>
      </trkpt>
      <trkpt lat="48.68203" lon="2.00412">
        <ele>172.4658203125</ele>
        <time>2016-09-22T12:56:38.000Z</time>
      </trkpt>
      <trkpt lat="48.68201" lon="2.00411">
        <ele>172.447265625</ele>
        <time>2016-09-22T12:56:40.000Z</time>
      </trkpt>
      <trkpt lat="48.682" lon="2.0041">
        <ele>172.4306640625</ele>
        <time>2016-09-22T12:56:42.000Z</time>
      </trkpt>
      <trkpt lat="48.682" lon="2.0041">
        <ele>172.4306640625</ele>
        <time>2016-09-22T12:57:02.000Z</time>
      </trkpt>
      <trkpt lat="48.68199" lon="2.00407">
        <ele>172.4150390625</ele>
        <time>2016-09-22T12:58:59.000Z</time>
      </trkpt>
      <trkpt lat="48.68196" lon="2.00407">
        <ele>172.3974609375</ele>
        <time>2016-09-22T12:59:13.000Z</time>
      </trkpt>
      <trkpt lat="48.68195" lon="2.00407">
        <ele>172.37890625</ele>
        <time>2016-09-22T12:59:18.000Z</time>
      </trkpt>
      <trkpt lat="48.68192" lon="2.00405">
        <ele>172.357421875</ele>
        <time>2016-09-22T12:59:21.000Z</time>
      </trkpt>
      <trkpt lat="48.68192" lon="2.00405">
        <ele>172.3388671875</ele>
        <time>2016-09-22T12:59:24.000Z</time>
      </trkpt>
      <trkpt lat="48.68189" lon="2.00404">
        <ele>172.3154296875</ele>
        <time>2016-09-22T12:59:26.000Z</time>
      </trkpt>
      <trkpt lat="48.68187" lon="2.00403">
        <ele>172.291015625</ele>
        <time>2016-09-22T12:59:29.000Z</time>
      </trkpt>
      <trkpt lat="48.68185" lon="2.00403">
        <ele>172.265625</ele>
        <time>2016-09-22T12:59:32.000Z</time>
      </trkpt>
      <trkpt lat="48.68184" lon="2.00402">
        <ele>172.24609375</ele>
        <time>2016-09-22T12:59:36.000Z</time>
      </trkpt>
      <trkpt lat="48.68182" lon="2.00402">
        <ele>172.2216796875</ele>
        <time>2016-09-22T12:59:38.000Z</time>
      </trkpt>
      <trkpt lat="48.68177" lon="2.004">
        <ele>172.193359375</ele>
        <time>2016-09-22T12:59:41.000Z</time>
      </trkpt>
      <trkpt lat="48.68175" lon="2.004">
        <ele>172.1650390625</ele>
        <time>2016-09-22T12:59:43.000Z</time>
      </trkpt>
      <trkpt lat="48.68171" lon="2.004">
        <ele>172.1318359375</ele>
        <time>2016-09-22T12:59:46.000Z</time>
      </trkpt>
      <trkpt lat="48.68167" lon="2.00398">
        <ele>172.0908203125</ele>
        <time>2016-09-22T12:59:49.000Z</time>
      </trkpt>
      <trkpt lat="48.68163" lon="2.00399">
        <ele>172.06327819824</ele>
        <time>2016-09-22T12:59:51.000Z</time>
      </trkpt>
      <trkpt lat="48.68159" lon="2.00401">
        <ele>172.05722045898</ele>
        <time>2016-09-22T12:59:54.000Z</time>
      </trkpt>
      <trkpt lat="48.68156" lon="2.00401">
        <ele>172.06484985352</ele>
        <time>2016-09-22T12:59:56.000Z</time>
      </trkpt>
      <trkpt lat="48.68152" lon="2.00402">
        <ele>172.08906555176</ele>
        <time>2016-09-22T12:59:59.000Z</time>
      </trkpt>
      <trkpt lat="48.68148" lon="2.00401">
        <ele>172.1318359375</ele>
        <time>2016-09-22T13:00:02.000Z</time>
      </trkpt>
      <trkpt lat="48.68147" lon="2.004">
        <ele>172.171875</ele>
        <time>2016-09-22T13:00:04.000Z</time>
      </trkpt>
      <trkpt lat="48.68143" lon="2.00398">
        <ele>172.2099609375</ele>
        <time>2016-09-22T13:00:07.000Z</time>
      </trkpt>
      <trkpt lat="48.68141" lon="2.00396">
        <ele>172.244140625</ele>
        <time>2016-09-22T13:00:10.000Z</time>
      </trkpt>
      <trkpt lat="48.68139" lon="2.00394">
        <ele>172.2763671875</ele>
        <time>2016-09-22T13:00:13.000Z</time>
      </trkpt>
      <trkpt lat="48.68138" lon="2.00392">
        <ele>172.302734375</ele>
        <time>2016-09-22T13:00:17.000Z</time>
      </trkpt>
      <trkpt lat="48.68135" lon="2.00392">
        <ele>172.3291015625</ele>
        <time>2016-09-22T13:00:19.000Z</time>
      </trkpt>
      <trkpt lat="48.68133" lon="2.00392">
        <ele>172.3525390625</ele>
        <time>2016-09-22T13:00:22.000Z</time>
      </trkpt>
      <trkpt lat="48.68132" lon="2.00391">
        <ele>172.3759765625</ele>
        <time>2016-09-22T13:00:24.000Z</time>
      </trkpt>
      <trkpt lat="48.68128" lon="2.00391">
        <ele>172.4013671875</ele>
        <time>2016-09-22T13:00:27.000Z</time>
      </trkpt>
      <trkpt lat="48.68125" lon="2.00389">
        <ele>172.4326171875</ele>
        <time>2016-09-22T13:00:30.000Z</time>
      </trkpt>
      <trkpt lat="48.68123" lon="2.00389">
        <ele>172.462890625</ele>
        <time>2016-09-22T13:00:32.000Z</time>
      </trkpt>
      <trkpt lat="48.6812" lon="2.00389">
        <ele>172.4951171875</ele>
        <time>2016-09-22T13:00:35.000Z</time>
      </trkpt>
      <trkpt lat="48.68118" lon="2.00389">
        <ele>172.5263671875</ele>
        <time>2016-09-22T13:00:37.000Z</time>
      </trkpt>
      <trkpt lat="48.68115" lon="2.00387">
        <ele>172.5576171875</ele>
        <time>2016-09-22T13:00:40.000Z</time>
      </trkpt>
      <trkpt lat="48.68113" lon="2.00387">
        <ele>172.5859375</ele>
        <time>2016-09-22T13:00:43.000Z</time>
      </trkpt>
      <trkpt lat="48.6811" lon="2.00386">
        <ele>172.6162109375</ele>
        <time>2016-09-22T13:00:45.000Z</time>
      </trkpt>
      <trkpt lat="48.68107" lon="2.00385">
        <ele>172.646484375</ele>
        <time>2016-09-22T13:00:48.000Z</time>
      </trkpt>
      <trkpt lat="48.68103" lon="2.00384">
        <ele>172.6826171875</ele>
        <time>2016-09-22T13:00:51.000Z</time>
      </trkpt>
      <trkpt lat="48.681" lon="2.00382">
        <ele>172.71875</ele>
        <time>2016-09-22T13:00:54.000Z</time>
      </trkpt>
      <trkpt lat="48.68097" lon="2.0038">
        <ele>172.7568359375</ele>
        <time>2016-09-22T13:00:57.000Z</time>
      </trkpt>
      <trkpt lat="48.68095" lon="2.00379">
        <ele>172.794921875</ele>
        <time>2016-09-22T13:00:59.000Z</time>
      </trkpt>
      <trkpt lat="48.68092" lon="2.00379">
        <ele>172.830078125</ele>
        <time>2016-09-22T13:01:02.000Z</time>
      </trkpt>
      <trkpt lat="48.68091" lon="2.00379">
        <ele>172.8603515625</ele>
        <time>2016-09-22T13:01:05.000Z</time>
      </trkpt>
      <trkpt lat="48.68087" lon="2.00377">
        <ele>172.8916015625</ele>
        <time>2016-09-22T13:01:08.000Z</time>
      </trkpt>
      <trkpt lat="48.68083" lon="2.00377">
        <ele>172.92265319824</ele>
        <time>2016-09-22T13:01:11.000Z</time>
      </trkpt>
      <trkpt lat="48.68079" lon="2.00375">
        <ele>172.93807983398</ele>
        <time>2016-09-22T13:01:14.000Z</time>
      </trkpt>
      <trkpt lat="48.68076" lon="2.00375">
        <ele>172.94180297852</ele>
        <time>2016-09-22T13:01:16.000Z</time>
      </trkpt>
      <trkpt lat="48.68072" lon="2.00374">
        <ele>172.93281555176</ele>
        <time>2016-09-22T13:01:19.000Z</time>
      </trkpt>
      <trkpt lat="48.68066" lon="2.00373">
        <ele>172.900390625</ele>
        <time>2016-09-22T13:01:22.000Z</time>
      </trkpt>
      <trkpt lat="48.68061" lon="2.00372">
        <ele>172.849609375</ele>
        <time>2016-09-22T13:01:24.000Z</time>
      </trkpt>
      <trkpt lat="48.68058" lon="2.00372">
        <ele>172.7998046875</ele>
        <time>2016-09-22T13:01:27.000Z</time>
      </trkpt>
      <trkpt lat="48.68055" lon="2.00373">
        <ele>172.7509765625</ele>
        <time>2016-09-22T13:01:31.000Z</time>
      </trkpt>
      <trkpt lat="48.68055" lon="2.00378">
        <ele>172.708984375</ele>
        <time>2016-09-22T13:01:34.000Z</time>
      </trkpt>
      <trkpt lat="48.68055" lon="2.00382">
        <ele>172.6826171875</ele>
        <time>2016-09-22T13:01:37.000Z</time>
      </trkpt>
      <trkpt lat="48.68055" lon="2.00386">
        <ele>172.6669921875</ele>
        <time>2016-09-22T13:01:39.000Z</time>
      </trkpt>
      <trkpt lat="48.68054" lon="2.00391">
        <ele>172.6572265625</ele>
        <time>2016-09-22T13:01:42.000Z</time>
      </trkpt>
      <trkpt lat="48.68053" lon="2.00397">
        <ele>172.650390625</ele>
        <time>2016-09-22T13:01:45.000Z</time>
      </trkpt>
      <trkpt lat="48.68052" lon="2.004">
        <ele>172.642578125</ele>
        <time>2016-09-22T13:01:48.000Z</time>
      </trkpt>
      <trkpt lat="48.68051" lon="2.00407">
        <ele>172.6328125</ele>
        <time>2016-09-22T13:01:51.000Z</time>
      </trkpt>
      <trkpt lat="48.68051" lon="2.00409">
        <ele>172.623046875</ele>
        <time>2016-09-22T13:01:53.000Z</time>
      </trkpt>
      <trkpt lat="48.6805" lon="2.00414">
        <ele>172.615234375</ele>
        <time>2016-09-22T13:01:56.000Z</time>
      </trkpt>
      <trkpt lat="48.68049" lon="2.0042">
        <ele>172.607421875</ele>
        <time>2016-09-22T13:01:59.000Z</time>
      </trkpt>
      <trkpt lat="48.68047" lon="2.00424">
        <ele>172.5966796875</ele>
        <time>2016-09-22T13:02:02.000Z</time>
      </trkpt>
      <trkpt lat="48.68046" lon="2.00426">
        <ele>172.583984375</ele>
        <time>2016-09-22T13:02:04.000Z</time>
      </trkpt>
      <trkpt lat="48.68046" lon="2.00428">
        <ele>172.572265625</ele>
        <time>2016-09-22T13:02:11.000Z</time>
      </trkpt>
      <trkpt lat="48.68048" lon="2.00432">
        <ele>172.56640625</ele>
        <time>2016-09-22T13:02:14.000Z</time>
      </trkpt>
      <trkpt lat="48.68051" lon="2.00435">
        <ele>172.5703125</ele>
        <time>2016-09-22T13:02:17.000Z</time>
      </trkpt>
      <trkpt lat="48.68053" lon="2.00441">
        <ele>172.5859375</ele>
        <time>2016-09-22T13:02:20.000Z</time>
      </trkpt>
      <trkpt lat="48.68056" lon="2.00447">
        <ele>172.6103515625</ele>
        <time>2016-09-22T13:02:23.000Z</time>
      </trkpt>
      <trkpt lat="48.68058" lon="2.00452">
        <ele>172.6376953125</ele>
        <time>2016-09-22T13:02:26.000Z</time>
      </trkpt>
      <trkpt lat="48.6806" lon="2.00458">
        <ele>172.6650390625</ele>
        <time>2016-09-22T13:02:29.000Z</time>
      </trkpt>
      <trkpt lat="48.68061" lon="2.00462">
        <ele>172.689453125</ele>
        <time>2016-09-22T13:02:32.000Z</time>
      </trkpt>
      <trkpt lat="48.68061" lon="2.00466">
        <ele>172.7080078125</ele>
        <time>2016-09-22T13:02:34.000Z</time>
      </trkpt>
      <trkpt lat="48.6806" lon="2.00471">
        <ele>172.716796875</ele>
        <time>2016-09-22T13:02:37.000Z</time>
      </trkpt>
      <trkpt lat="48.68058" lon="2.00475">
        <ele>172.71875</ele>
        <time>2016-09-22T13:02:40.000Z</time>
      </trkpt>
      <trkpt lat="48.68058" lon="2.00478">
        <ele>172.71484375</ele>
        <time>2016-09-22T13:02:42.000Z</time>
      </trkpt>
      <trkpt lat="48.68056" lon="2.00484">
        <ele>172.7041015625</ele>
        <time>2016-09-22T13:02:45.000Z</time>
      </trkpt>
      <trkpt lat="48.68055" lon="2.00487">
        <ele>172.6884765625</ele>
        <time>2016-09-22T13:02:48.000Z</time>
      </trkpt>
      <trkpt lat="48.68054" lon="2.00491">
        <ele>172.67578125</ele>
        <time>2016-09-22T13:02:50.000Z</time>
      </trkpt>
      <trkpt lat="48.68053" lon="2.00495">
        <ele>172.6640625</ele>
        <time>2016-09-22T13:02:52.000Z</time>
      </trkpt>
      <trkpt lat="48.68053" lon="2.005">
        <ele>172.6513671875</ele>
        <time>2016-09-22T13:02:55.000Z</time>
      </trkpt>
      <trkpt lat="48.68053" lon="2.00505">
        <ele>172.63806152344</ele>
        <time>2016-09-22T13:03:00.000Z</time>
      </trkpt>
      <trkpt lat="48.68054" lon="2.0051">
        <ele>172.62829589844</ele>
        <time>2016-09-22T13:03:03.000Z</time>
      </trkpt>
      <trkpt lat="48.68056" lon="2.00511">
        <ele>172.62371826172</ele>
        <time>2016-09-22T13:03:11.000Z</time>
      </trkpt>
      <trkpt lat="48.68055" lon="2.00513">
        <ele>172.61796569824</ele>
        <time>2016-09-22T13:03:14.000Z</time>
      </trkpt>
      <trkpt lat="48.68055" lon="2.00514">
        <ele>172.61134338379</ele>
        <time>2016-09-22T13:03:16.000Z</time>
      </trkpt>
      <trkpt lat="48.68053" lon="2.00518">
        <ele>172.59968566895</ele>
        <time>2016-09-22T13:03:19.000Z</time>
      </trkpt>
      <trkpt lat="48.68053" lon="2.00522">
        <ele>172.58596801758</ele>
        <time>2016-09-22T13:03:22.000Z</time>
      </trkpt>
      <trkpt lat="48.68053" lon="2.00525">
        <ele>172.5671081543</ele>
        <time>2016-09-22T13:03:24.000Z</time>
      </trkpt>
      <trkpt lat="48.68051" lon="2.00532">
        <ele>172.53747558594</ele>
        <time>2016-09-22T13:03:35.000Z</time>
      </trkpt>
      <trkpt lat="48.68051" lon="2.00534">
        <ele>172.50834655762</ele>
        <time>2016-09-22T13:03:53.000Z</time>
      </trkpt>
      <trkpt lat="48.68055" lon="2.00536">
        <ele>172.49841308594</ele>
        <time>2016-09-22T13:03:58.000Z</time>
      </trkpt>
      <trkpt lat="48.68056" lon="2.00535">
        <ele>172.49951171875</ele>
        <time>2016-09-22T13:04:00.000Z</time>
      </trkpt>
      <trkpt lat="48.68058" lon="2.00535">
        <ele>172.50456237793</ele>
        <time>2016-09-22T13:04:03.000Z</time>
      </trkpt>
      <trkpt lat="48.68058" lon="2.00535">
        <ele>172.50456237793</ele>
        <time>2016-09-22T13:04:23.000Z</time>
      </trkpt>
      <trkpt lat="48.68059" lon="2.00534">
        <ele>172.52996826172</ele>
        <time>2016-09-22T13:04:24.000Z</time>
      </trkpt>
      <trkpt lat="48.68047" lon="2.0053">
        <ele>172.52014160156</ele>
        <time>2016-09-22T13:08:22.000Z</time>
      </trkpt>
      <trkpt lat="48.68044" lon="2.00529">
        <ele>172.49147033691</ele>
        <time>2016-09-22T13:08:25.000Z</time>
      </trkpt>
      <trkpt lat="48.6804" lon="2.00528">
        <ele>172.44381713867</ele>
        <time>2016-09-22T13:08:28.000Z</time>
      </trkpt>
      <trkpt lat="48.68037" lon="2.00527">
        <ele>172.38369750977</ele>
        <time>2016-09-22T13:08:31.000Z</time>
      </trkpt>
      <trkpt lat="48.68032" lon="2.00528">
        <ele>172.30369567871</ele>
        <time>2016-09-22T13:08:34.000Z</time>
      </trkpt>
      <trkpt lat="48.6803" lon="2.00528">
        <ele>172.25300598145</ele>
        <time>2016-09-22T13:08:36.000Z</time>
      </trkpt>
      <trkpt lat="48.68028" lon="2.00528">
        <ele>172.20445251465</ele>
        <time>2016-09-22T13:08:38.000Z</time>
      </trkpt>
      <trkpt lat="48.68025" lon="2.00526">
        <ele>172.15924072266</ele>
        <time>2016-09-22T13:08:41.000Z</time>
      </trkpt>
      <trkpt lat="48.68022" lon="2.00524">
        <ele>172.11779785156</ele>
        <time>2016-09-22T13:08:43.000Z</time>
      </trkpt>
      <trkpt lat="48.68019" lon="2.00522">
        <ele>172.08612060547</ele>
        <time>2016-09-22T13:08:45.000Z</time>
      </trkpt>
      <trkpt lat="48.68017" lon="2.00518">
        <ele>172.06144714355</ele>
        <time>2016-09-22T13:08:48.000Z</time>
      </trkpt>
      <trkpt lat="48.68015" lon="2.00515">
        <ele>172.04292297363</ele>
        <time>2016-09-22T13:08:50.000Z</time>
      </trkpt>
      <trkpt lat="48.68013" lon="2.00513">
        <ele>172.03396606445</ele>
        <time>2016-09-22T13:08:52.000Z</time>
      </trkpt>
      <trkpt lat="48.68011" lon="2.0051">
        <ele>172.02883911133</ele>
        <time>2016-09-22T13:08:55.000Z</time>
      </trkpt>
      <trkpt lat="48.68009" lon="2.0051">
        <ele>172.02171325684</ele>
        <time>2016-09-22T13:08:57.000Z</time>
      </trkpt>
      <trkpt lat="48.68007" lon="2.00509">
        <ele>172.01351928711</ele>
        <time>2016-09-22T13:08:59.000Z</time>
      </trkpt>
      <trkpt lat="48.68003" lon="2.00506">
        <ele>172.0026550293</ele>
        <time>2016-09-22T13:09:02.000Z</time>
      </trkpt>
      <trkpt lat="48.68002" lon="2.00503">
        <ele>171.99378967285</ele>
        <time>2016-09-22T13:09:04.000Z</time>
      </trkpt>
      <trkpt lat="48.68" lon="2.00499">
        <ele>171.98895263672</ele>
        <time>2016-09-22T13:09:06.000Z</time>
      </trkpt>
      <trkpt lat="48.67997" lon="2.00495">
        <ele>171.98373413086</ele>
        <time>2016-09-22T13:09:09.000Z</time>
      </trkpt>
      <trkpt lat="48.67996" lon="2.00493">
        <ele>171.97956848145</ele>
        <time>2016-09-22T13:09:11.000Z</time>
      </trkpt>
      <trkpt lat="48.67995" lon="2.00489">
        <ele>171.97659301758</ele>
        <time>2016-09-22T13:09:14.000Z</time>
      </trkpt>
      <trkpt lat="48.67993" lon="2.00487">
        <ele>171.96662902832</ele>
        <time>2016-09-22T13:09:16.000Z</time>
      </trkpt>
      <trkpt lat="48.6799" lon="2.00483">
        <ele>171.95185852051</ele>
        <time>2016-09-22T13:09:19.000Z</time>
      </trkpt>
      <trkpt lat="48.67989" lon="2.0048">
        <ele>171.94409179688</ele>
        <time>2016-09-22T13:09:21.000Z</time>
      </trkpt>
      <trkpt lat="48.67988" lon="2.00477">
        <ele>171.93807983398</ele>
        <time>2016-09-22T13:09:23.000Z</time>
      </trkpt>
      <trkpt lat="48.67987" lon="2.00473">
        <ele>171.93598937988</ele>
        <time>2016-09-22T13:09:26.000Z</time>
      </trkpt>
      <trkpt lat="48.67985" lon="2.00469">
        <ele>171.93867492676</ele>
        <time>2016-09-22T13:09:29.000Z</time>
      </trkpt>
      <trkpt lat="48.67984" lon="2.00468">
        <ele>171.94442749023</ele>
        <time>2016-09-22T13:09:31.000Z</time>
      </trkpt>
      <trkpt lat="48.67982" lon="2.00467">
        <ele>171.9485168457</ele>
        <time>2016-09-22T13:09:34.000Z</time>
      </trkpt>
      <trkpt lat="48.6798" lon="2.00465">
        <ele>171.95373535156</ele>
        <time>2016-09-22T13:09:36.000Z</time>
      </trkpt>
      <trkpt lat="48.67979" lon="2.00461">
        <ele>171.96102905273</ele>
        <time>2016-09-22T13:09:39.000Z</time>
      </trkpt>
      <trkpt lat="48.67977" lon="2.00459">
        <ele>171.96942138672</ele>
        <time>2016-09-22T13:09:41.000Z</time>
      </trkpt>
      <trkpt lat="48.67974" lon="2.00456">
        <ele>171.98115539551</ele>
        <time>2016-09-22T13:09:44.000Z</time>
      </trkpt>
      <trkpt lat="48.67973" lon="2.00454">
        <ele>171.99792480469</ele>
        <time>2016-09-22T13:09:46.000Z</time>
      </trkpt>
      <trkpt lat="48.67971" lon="2.0045">
        <ele>172.01893615723</ele>
        <time>2016-09-22T13:09:49.000Z</time>
      </trkpt>
      <trkpt lat="48.6797" lon="2.00447">
        <ele>172.04219055176</ele>
        <time>2016-09-22T13:09:52.000Z</time>
      </trkpt>
      <trkpt lat="48.67966" lon="2.00443">
        <ele>172.07328796387</ele>
        <time>2016-09-22T13:09:55.000Z</time>
      </trkpt>
      <trkpt lat="48.67966" lon="2.00441">
        <ele>172.10427856445</ele>
        <time>2016-09-22T13:09:57.000Z</time>
      </trkpt>
      <trkpt lat="48.67964" lon="2.00437">
        <ele>172.14163208008</ele>
        <time>2016-09-22T13:10:00.000Z</time>
      </trkpt>
      <trkpt lat="48.67963" lon="2.00433">
        <ele>172.18112182617</ele>
        <time>2016-09-22T13:10:02.000Z</time>
      </trkpt>
      <trkpt lat="48.67962" lon="2.00429">
        <ele>172.22549438477</ele>
        <time>2016-09-22T13:10:05.000Z</time>
      </trkpt>
      <trkpt lat="48.6796" lon="2.00428">
        <ele>172.2666015625</ele>
        <time>2016-09-22T13:10:07.000Z</time>
      </trkpt>
      <trkpt lat="48.67958" lon="2.00425">
        <ele>172.31257629395</ele>
        <time>2016-09-22T13:10:10.000Z</time>
      </trkpt>
      <trkpt lat="48.67957" lon="2.00424">
        <ele>172.35430908203</ele>
        <time>2016-09-22T13:10:12.000Z</time>
      </trkpt>
      <trkpt lat="48.67955" lon="2.0042">
        <ele>172.39994812012</ele>
        <time>2016-09-22T13:10:15.000Z</time>
      </trkpt>
      <trkpt lat="48.67954" lon="2.00418">
        <ele>172.44241333008</ele>
        <time>2016-09-22T13:10:17.000Z</time>
      </trkpt>
      <trkpt lat="48.67952" lon="2.00417">
        <ele>172.48428344727</ele>
        <time>2016-09-22T13:10:19.000Z</time>
      </trkpt>
      <trkpt lat="48.6795" lon="2.00415">
        <ele>172.52505493164</ele>
        <time>2016-09-22T13:10:22.000Z</time>
      </trkpt>
      <trkpt lat="48.67949" lon="2.00414">
        <ele>172.56498718262</ele>
        <time>2016-09-22T13:10:25.000Z</time>
      </trkpt>
      <trkpt lat="48.67947" lon="2.00413">
        <ele>172.59934997559</ele>
        <time>2016-09-22T13:10:27.000Z</time>
      </trkpt>
      <trkpt lat="48.67945" lon="2.00413">
        <ele>172.63035583496</ele>
        <time>2016-09-22T13:10:29.000Z</time>
      </trkpt>
      <trkpt lat="48.67942" lon="2.00412">
        <ele>172.66435241699</ele>
        <time>2016-09-22T13:10:31.000Z</time>
      </trkpt>
      <trkpt lat="48.67939" lon="2.0041">
        <ele>172.70132446289</ele>
        <time>2016-09-22T13:10:34.000Z</time>
      </trkpt>
      <trkpt lat="48.67936" lon="2.00408">
        <ele>172.74472045898</ele>
        <time>2016-09-22T13:10:37.000Z</time>
      </trkpt>
      <trkpt lat="48.67932" lon="2.00406">
        <ele>172.79537963867</ele>
        <time>2016-09-22T13:10:40.000Z</time>
      </trkpt>
      <trkpt lat="48.67931" lon="2.00405">
        <ele>172.84878540039</ele>
        <time>2016-09-22T13:10:42.000Z</time>
      </trkpt>
      <trkpt lat="48.6793" lon="2.00403">
        <ele>172.89817810059</ele>
        <time>2016-09-22T13:10:45.000Z</time>
      </trkpt>
      <trkpt lat="48.67928" lon="2.004">
        <ele>172.94665527344</ele>
        <time>2016-09-22T13:10:48.000Z</time>
      </trkpt>
      <trkpt lat="48.67931" lon="2.00398">
        <ele>172.98036193848</ele>
        <time>2016-09-22T13:10:51.000Z</time>
      </trkpt>
      <trkpt lat="48.67929" lon="2.00396">
        <ele>173.00901794434</ele>
        <time>2016-09-22T13:10:54.000Z</time>
      </trkpt>
      <trkpt lat="48.67928" lon="2.00392">
        <ele>173.04196166992</ele>
        <time>2016-09-22T13:10:57.000Z</time>
      </trkpt>
      <trkpt lat="48.67928" lon="2.00389">
        <ele>173.07638549805</ele>
        <time>2016-09-22T13:10:59.000Z</time>
      </trkpt>
      <trkpt lat="48.67927" lon="2.00384">
        <ele>173.11256408691</ele>
        <time>2016-09-22T13:11:02.000Z</time>
      </trkpt>
      <trkpt lat="48.67926" lon="2.0038">
        <ele>173.16401672363</ele>
        <time>2016-09-22T13:11:05.000Z</time>
      </trkpt>
      <trkpt lat="48.67927" lon="2.00376">
        <ele>173.2124786377</ele>
        <time>2016-09-22T13:11:07.000Z</time>
      </trkpt>
      <trkpt lat="48.67927" lon="2.00373">
        <ele>173.25410461426</ele>
        <time>2016-09-22T13:11:09.000Z</time>
      </trkpt>
      <trkpt lat="48.67928" lon="2.00368">
        <ele>173.29907226562</ele>
        <time>2016-09-22T13:11:12.000Z</time>
      </trkpt>
      <trkpt lat="48.67929" lon="2.00363">
        <ele>173.33786010742</ele>
        <time>2016-09-22T13:11:15.000Z</time>
      </trkpt>
      <trkpt lat="48.67929" lon="2.00358">
        <ele>173.37403869629</ele>
        <time>2016-09-22T13:11:18.000Z</time>
      </trkpt>
      <trkpt lat="48.67929" lon="2.00351">
        <ele>173.41816711426</ele>
        <time>2016-09-22T13:11:21.000Z</time>
      </trkpt>
      <trkpt lat="48.67928" lon="2.00345">
        <ele>173.47135925293</ele>
        <time>2016-09-22T13:11:23.000Z</time>
      </trkpt>
      <trkpt lat="48.67928" lon="2.0034">
        <ele>173.52780151367</ele>
        <time>2016-09-22T13:11:26.000Z</time>
      </trkpt>
      <trkpt lat="48.67928" lon="2.00337">
        <ele>173.5834197998</ele>
        <time>2016-09-22T13:11:28.000Z</time>
      </trkpt>
      <trkpt lat="48.67928" lon="2.00334">
        <ele>173.63442993164</ele>
        <time>2016-09-22T13:11:31.000Z</time>
      </trkpt>
      <trkpt lat="48.6793" lon="2.0033">
        <ele>173.66215515137</ele>
        <time>2016-09-22T13:11:34.000Z</time>
      </trkpt>
      <trkpt lat="48.67931" lon="2.00327">
        <ele>173.66381835938</ele>
        <time>2016-09-22T13:11:36.000Z</time>
      </trkpt>
      <trkpt lat="48.67933" lon="2.00323">
        <ele>173.63818359375</ele>
        <time>2016-09-22T13:11:39.000Z</time>
      </trkpt>
      <trkpt lat="48.67934" lon="2.00321">
        <ele>173.60136413574</ele>
        <time>2016-09-22T13:11:41.000Z</time>
      </trkpt>
      <trkpt lat="48.67934" lon="2.00316">
        <ele>173.54972839355</ele>
        <time>2016-09-22T13:11:44.000Z</time>
      </trkpt>
      <trkpt lat="48.67934" lon="2.00314">
        <ele>173.50622558594</ele>
        <time>2016-09-22T13:11:46.000Z</time>
      </trkpt>
      <trkpt lat="48.67932" lon="2.00312">
        <ele>173.4794921875</ele>
        <time>2016-09-22T13:11:49.000Z</time>
      </trkpt>
      <trkpt lat="48.67931" lon="2.00312">
        <ele>173.46903991699</ele>
        <time>2016-09-22T13:11:51.000Z</time>
      </trkpt>
      <trkpt lat="48.67931" lon="2.00314">
        <ele>173.4711151123</ele>
        <time>2016-09-22T13:11:54.000Z</time>
      </trkpt>
      <trkpt lat="48.6793" lon="2.00318">
        <ele>173.4935760498</ele>
        <time>2016-09-22T13:11:57.000Z</time>
      </trkpt>
      <trkpt lat="48.67929" lon="2.00323">
        <ele>173.52899169922</ele>
        <time>2016-09-22T13:12:00.000Z</time>
      </trkpt>
      <trkpt lat="48.67926" lon="2.00328">
        <ele>173.57815551758</ele>
        <time>2016-09-22T13:12:02.000Z</time>
      </trkpt>
      <trkpt lat="48.67924" lon="2.00333">
        <ele>173.64624023438</ele>
        <time>2016-09-22T13:12:05.000Z</time>
      </trkpt>
      <trkpt lat="48.67922" lon="2.00336">
        <ele>173.71029663086</ele>
        <time>2016-09-22T13:12:07.000Z</time>
      </trkpt>
      <trkpt lat="48.67921" lon="2.00338">
        <ele>173.76417541504</ele>
        <time>2016-09-22T13:12:09.000Z</time>
      </trkpt>
      <trkpt lat="48.6792" lon="2.0034">
        <ele>173.80824279785</ele>
        <time>2016-09-22T13:12:11.000Z</time>
      </trkpt>
      <trkpt lat="48.67918" lon="2.00343">
        <ele>173.83372497559</ele>
        <time>2016-09-22T13:12:14.000Z</time>
      </trkpt>
      <trkpt lat="48.67918" lon="2.00348">
        <ele>173.83171081543</ele>
        <time>2016-09-22T13:12:17.000Z</time>
      </trkpt>
      <trkpt lat="48.67916" lon="2.00351">
        <ele>173.82307434082</ele>
        <time>2016-09-22T13:12:19.000Z</time>
      </trkpt>
      <trkpt lat="48.67913" lon="2.00356">
        <ele>173.79716491699</ele>
        <time>2016-09-22T13:12:22.000Z</time>
      </trkpt>
      <trkpt lat="48.67912" lon="2.00359">
        <ele>173.76095581055</ele>
        <time>2016-09-22T13:12:25.000Z</time>
      </trkpt>
      <trkpt lat="48.67912" lon="2.00361">
        <ele>173.71864318848</ele>
        <time>2016-09-22T13:12:27.000Z</time>
      </trkpt>
      <trkpt lat="48.6791" lon="2.00365">
        <ele>173.67155456543</ele>
        <time>2016-09-22T13:12:30.000Z</time>
      </trkpt>
      <trkpt lat="48.67908" lon="2.00369">
        <ele>173.61642456055</ele>
        <time>2016-09-22T13:12:33.000Z</time>
      </trkpt>
      <trkpt lat="48.67908" lon="2.00371">
        <ele>173.57371520996</ele>
        <time>2016-09-22T13:12:35.000Z</time>
      </trkpt>
      <trkpt lat="48.67907" lon="2.00376">
        <ele>173.52670288086</ele>
        <time>2016-09-22T13:12:40.000Z</time>
      </trkpt>
      <trkpt lat="48.67905" lon="2.00378">
        <ele>173.4806060791</ele>
        <time>2016-09-22T13:12:43.000Z</time>
      </trkpt>
      <trkpt lat="48.67902" lon="2.00382">
        <ele>173.43356323242</ele>
        <time>2016-09-22T13:12:46.000Z</time>
      </trkpt>
      <trkpt lat="48.679" lon="2.00386">
        <ele>173.39022827148</ele>
        <time>2016-09-22T13:12:49.000Z</time>
      </trkpt>
      <trkpt lat="48.67896" lon="2.0039">
        <ele>173.34115600586</ele>
        <time>2016-09-22T13:12:52.000Z</time>
      </trkpt>
      <trkpt lat="48.67894" lon="2.00393">
        <ele>173.29789733887</ele>
        <time>2016-09-22T13:12:54.000Z</time>
      </trkpt>
      <trkpt lat="48.67892" lon="2.00398">
        <ele>173.25021362305</ele>
        <time>2016-09-22T13:12:57.000Z</time>
      </trkpt>
      <trkpt lat="48.67889" lon="2.00403">
        <ele>173.20446777344</ele>
        <time>2016-09-22T13:13:00.000Z</time>
      </trkpt>
      <trkpt lat="48.67887" lon="2.00407">
        <ele>173.16116333008</ele>
        <time>2016-09-22T13:13:02.000Z</time>
      </trkpt>
      <trkpt lat="48.67884" lon="2.00412">
        <ele>173.119140625</ele>
        <time>2016-09-22T13:13:05.000Z</time>
      </trkpt>
      <trkpt lat="48.67883" lon="2.00415">
        <ele>173.08010864258</ele>
        <time>2016-09-22T13:13:07.000Z</time>
      </trkpt>
      <trkpt lat="48.67882" lon="2.00418">
        <ele>173.04191589355</ele>
        <time>2016-09-22T13:13:09.000Z</time>
      </trkpt>
      <trkpt lat="48.6788" lon="2.00423">
        <ele>172.994140625</ele>
        <time>2016-09-22T13:13:12.000Z</time>
      </trkpt>
      <trkpt lat="48.67879" lon="2.00427">
        <ele>172.94190979004</ele>
        <time>2016-09-22T13:13:14.000Z</time>
      </trkpt>
      <trkpt lat="48.67877" lon="2.0043">
        <ele>172.88688659668</ele>
        <time>2016-09-22T13:13:17.000Z</time>
      </trkpt>
      <trkpt lat="48.67875" lon="2.00432">
        <ele>172.82887268066</ele>
        <time>2016-09-22T13:13:19.000Z</time>
      </trkpt>
      <trkpt lat="48.67873" lon="2.00436">
        <ele>172.76580810547</ele>
        <time>2016-09-22T13:13:22.000Z</time>
      </trkpt>
      <trkpt lat="48.67871" lon="2.00439">
        <ele>172.71264648438</ele>
        <time>2016-09-22T13:13:24.000Z</time>
      </trkpt>
      <trkpt lat="48.6787" lon="2.00441">
        <ele>172.66468811035</ele>
        <time>2016-09-22T13:13:26.000Z</time>
      </trkpt>
      <trkpt lat="48.67868" lon="2.00444">
        <ele>172.61868286133</ele>
        <time>2016-09-22T13:13:29.000Z</time>
      </trkpt>
      <trkpt lat="48.67868" lon="2.00447">
        <ele>172.57225036621</ele>
        <time>2016-09-22T13:13:32.000Z</time>
      </trkpt>
      <trkpt lat="48.67867" lon="2.00448">
        <ele>172.53482055664</ele>
        <time>2016-09-22T13:13:34.000Z</time>
      </trkpt>
      <trkpt lat="48.67865" lon="2.0045">
        <ele>172.50129699707</ele>
        <time>2016-09-22T13:13:36.000Z</time>
      </trkpt>
      <trkpt lat="48.67863" lon="2.00453">
        <ele>172.46603393555</ele>
        <time>2016-09-22T13:13:38.000Z</time>
      </trkpt>
      <trkpt lat="48.67862" lon="2.00457">
        <ele>172.43110656738</ele>
        <time>2016-09-22T13:13:40.000Z</time>
      </trkpt>
      <trkpt lat="48.67859" lon="2.00462">
        <ele>172.39053344727</ele>
        <time>2016-09-22T13:13:43.000Z</time>
      </trkpt>
      <trkpt lat="48.67856" lon="2.00466">
        <ele>172.3469543457</ele>
        <time>2016-09-22T13:13:46.000Z</time>
      </trkpt>
      <trkpt lat="48.67853" lon="2.0047">
        <ele>172.29919433594</ele>
        <time>2016-09-22T13:13:49.000Z</time>
      </trkpt>
      <trkpt lat="48.67851" lon="2.00474">
        <ele>172.25140380859</ele>
        <time>2016-09-22T13:13:51.000Z</time>
      </trkpt>
      <trkpt lat="48.67849" lon="2.00478">
        <ele>172.2041015625</ele>
        <time>2016-09-22T13:13:54.000Z</time>
      </trkpt>
      <trkpt lat="48.67847" lon="2.00482">
        <ele>172.1646270752</ele>
        <time>2016-09-22T13:13:57.000Z</time>
      </trkpt>
      <trkpt lat="48.67845" lon="2.00486">
        <ele>172.12503051758</ele>
        <time>2016-09-22T13:14:00.000Z</time>
      </trkpt>
      <trkpt lat="48.67842" lon="2.00491">
        <ele>172.08778381348</ele>
        <time>2016-09-22T13:14:02.000Z</time>
      </trkpt>
      <trkpt lat="48.6784" lon="2.00495">
        <ele>172.05076599121</ele>
        <time>2016-09-22T13:14:04.000Z</time>
      </trkpt>
      <trkpt lat="48.67838" lon="2.00501">
        <ele>172.01644897461</ele>
        <time>2016-09-22T13:14:07.000Z</time>
      </trkpt>
      <trkpt lat="48.67836" lon="2.00502">
        <ele>171.99258422852</ele>
        <time>2016-09-22T13:14:10.000Z</time>
      </trkpt>
      <trkpt lat="48.67834" lon="2.00503">
        <ele>171.98031616211</ele>
        <time>2016-09-22T13:14:12.000Z</time>
      </trkpt>
      <trkpt lat="48.67831" lon="2.00502">
        <ele>171.98933410645</ele>
        <time>2016-09-22T13:14:15.000Z</time>
      </trkpt>
      <trkpt lat="48.67827" lon="2.00507">
        <ele>172.0224609375</ele>
        <time>2016-09-22T13:14:18.000Z</time>
      </trkpt>
      <trkpt lat="48.67824" lon="2.00512">
        <ele>172.0732421875</ele>
        <time>2016-09-22T13:14:21.000Z</time>
      </trkpt>
      <trkpt lat="48.67821" lon="2.00519">
        <ele>172.13105773926</ele>
        <time>2016-09-22T13:14:24.000Z</time>
      </trkpt>
      <trkpt lat="48.6782" lon="2.00522">
        <ele>172.18745422363</ele>
        <time>2016-09-22T13:14:26.000Z</time>
      </trkpt>
      <trkpt lat="48.67819" lon="2.00526">
        <ele>172.2336730957</ele>
        <time>2016-09-22T13:14:29.000Z</time>
      </trkpt>
      <trkpt lat="48.67818" lon="2.00529">
        <ele>172.26528930664</ele>
        <time>2016-09-22T13:14:31.000Z</time>
      </trkpt>
      <trkpt lat="48.67817" lon="2.00532">
        <ele>172.28831481934</ele>
        <time>2016-09-22T13:14:33.000Z</time>
      </trkpt>
      <trkpt lat="48.67815" lon="2.00536">
        <ele>172.30389404297</ele>
        <time>2016-09-22T13:14:36.000Z</time>
      </trkpt>
      <trkpt lat="48.67813" lon="2.00539">
        <ele>172.32270812988</ele>
        <time>2016-09-22T13:14:39.000Z</time>
      </trkpt>
      <trkpt lat="48.67812" lon="2.00541">
        <ele>172.3397064209</ele>
        <time>2016-09-22T13:14:41.000Z</time>
      </trkpt>
      <trkpt lat="48.6781" lon="2.00546">
        <ele>172.36190795898</ele>
        <time>2016-09-22T13:14:44.000Z</time>
      </trkpt>
      <trkpt lat="48.67808" lon="2.00551">
        <ele>172.38423156738</ele>
        <time>2016-09-22T13:14:47.000Z</time>
      </trkpt>
      <trkpt lat="48.67807" lon="2.00553">
        <ele>172.40200805664</ele>
        <time>2016-09-22T13:14:49.000Z</time>
      </trkpt>
      <trkpt lat="48.67806" lon="2.00557">
        <ele>172.41520690918</ele>
        <time>2016-09-22T13:14:52.000Z</time>
      </trkpt>
      <trkpt lat="48.67804" lon="2.00564">
        <ele>172.42599487305</ele>
        <time>2016-09-22T13:14:55.000Z</time>
      </trkpt>
      <trkpt lat="48.67805" lon="2.00572">
        <ele>172.42169189453</ele>
        <time>2016-09-22T13:14:58.000Z</time>
      </trkpt>
      <trkpt lat="48.67806" lon="2.00576">
        <ele>172.40676879883</ele>
        <time>2016-09-22T13:15:00.000Z</time>
      </trkpt>
      <trkpt lat="48.67809" lon="2.0058">
        <ele>172.38119506836</ele>
        <time>2016-09-22T13:15:03.000Z</time>
      </trkpt>
      <trkpt lat="48.67811" lon="2.00584">
        <ele>172.34616088867</ele>
        <time>2016-09-22T13:15:05.000Z</time>
      </trkpt>
      <trkpt lat="48.67815" lon="2.00589">
        <ele>172.29104614258</ele>
        <time>2016-09-22T13:15:08.000Z</time>
      </trkpt>
      <trkpt lat="48.67817" lon="2.00591">
        <ele>172.23240661621</ele>
        <time>2016-09-22T13:15:10.000Z</time>
      </trkpt>
      <trkpt lat="48.6782" lon="2.00593">
        <ele>172.16976928711</ele>
        <time>2016-09-22T13:15:12.000Z</time>
      </trkpt>
      <trkpt lat="48.67823" lon="2.00597">
        <ele>172.10189819336</ele>
        <time>2016-09-22T13:15:15.000Z</time>
      </trkpt>
      <trkpt lat="48.67826" lon="2.006">
        <ele>172.02600097656</ele>
        <time>2016-09-22T13:15:18.000Z</time>
      </trkpt>
      <trkpt lat="48.6783" lon="2.00605">
        <ele>171.95181274414</ele>
        <time>2016-09-22T13:15:21.000Z</time>
      </trkpt>
      <trkpt lat="48.67833" lon="2.00609">
        <ele>171.87113952637</ele>
        <time>2016-09-22T13:15:24.000Z</time>
      </trkpt>
      <trkpt lat="48.67836" lon="2.00611">
        <ele>171.79177856445</ele>
        <time>2016-09-22T13:15:27.000Z</time>
      </trkpt>
      <trkpt lat="48.6784" lon="2.00615">
        <ele>171.71493530273</ele>
        <time>2016-09-22T13:15:30.000Z</time>
      </trkpt>
      <trkpt lat="48.67841" lon="2.00618">
        <ele>171.64370727539</ele>
        <time>2016-09-22T13:15:32.000Z</time>
      </trkpt>
      <trkpt lat="48.67844" lon="2.00623">
        <ele>171.57885742188</ele>
        <time>2016-09-22T13:15:35.000Z</time>
      </trkpt>
      <trkpt lat="48.67848" lon="2.00627">
        <ele>171.51748657227</ele>
        <time>2016-09-22T13:15:38.000Z</time>
      </trkpt>
      <trkpt lat="48.67851" lon="2.00632">
        <ele>171.45349121094</ele>
        <time>2016-09-22T13:15:41.000Z</time>
      </trkpt>
      <trkpt lat="48.67853" lon="2.00635">
        <ele>171.39639282227</ele>
        <time>2016-09-22T13:15:43.000Z</time>
      </trkpt>
      <trkpt lat="48.67855" lon="2.00637">
        <ele>171.3433380127</ele>
        <time>2016-09-22T13:15:46.000Z</time>
      </trkpt>
      <trkpt lat="48.67857" lon="2.00639">
        <ele>171.29885864258</ele>
        <time>2016-09-22T13:15:48.000Z</time>
      </trkpt>
      <trkpt lat="48.6786" lon="2.00641">
        <ele>171.26286315918</ele>
        <time>2016-09-22T13:15:50.000Z</time>
      </trkpt>
      <trkpt lat="48.67864" lon="2.00646">
        <ele>171.22897338867</ele>
        <time>2016-09-22T13:15:53.000Z</time>
      </trkpt>
      <trkpt lat="48.67866" lon="2.00649">
        <ele>171.19723510742</ele>
        <time>2016-09-22T13:15:55.000Z</time>
      </trkpt>
      <trkpt lat="48.67869" lon="2.00652">
        <ele>171.1657409668</ele>
        <time>2016-09-22T13:15:58.000Z</time>
      </trkpt>
      <trkpt lat="48.67871" lon="2.00657">
        <ele>171.1314239502</ele>
        <time>2016-09-22T13:16:01.000Z</time>
      </trkpt>
      <trkpt lat="48.67873" lon="2.0066">
        <ele>171.09902954102</ele>
        <time>2016-09-22T13:16:03.000Z</time>
      </trkpt>
      <trkpt lat="48.67874" lon="2.00663">
        <ele>171.07278442383</ele>
        <time>2016-09-22T13:16:05.000Z</time>
      </trkpt>
      <trkpt lat="48.67876" lon="2.00666">
        <ele>171.04736328125</ele>
        <time>2016-09-22T13:16:07.000Z</time>
      </trkpt>
      <trkpt lat="48.6788" lon="2.0067">
        <ele>171.03106689453</ele>
        <time>2016-09-22T13:16:10.000Z</time>
      </trkpt>
      <trkpt lat="48.67882" lon="2.00673">
        <ele>171.02429199219</ele>
        <time>2016-09-22T13:16:12.000Z</time>
      </trkpt>
      <trkpt lat="48.67886" lon="2.00678">
        <ele>171.02510070801</ele>
        <time>2016-09-22T13:16:15.000Z</time>
      </trkpt>
      <trkpt lat="48.67889" lon="2.00681">
        <ele>171.03234863281</ele>
        <time>2016-09-22T13:16:18.000Z</time>
      </trkpt>
      <trkpt lat="48.67894" lon="2.00685">
        <ele>171.0439453125</ele>
        <time>2016-09-22T13:16:21.000Z</time>
      </trkpt>
      <trkpt lat="48.67896" lon="2.00688">
        <ele>171.05340576172</ele>
        <time>2016-09-22T13:16:23.000Z</time>
      </trkpt>
      <trkpt lat="48.67897" lon="2.00691">
        <ele>171.06045532227</ele>
        <time>2016-09-22T13:16:25.000Z</time>
      </trkpt>
      <trkpt lat="48.679" lon="2.00694">
        <ele>171.0640411377</ele>
        <time>2016-09-22T13:16:28.000Z</time>
      </trkpt>
      <trkpt lat="48.67903" lon="2.00698">
        <ele>171.06437683105</ele>
        <time>2016-09-22T13:16:31.000Z</time>
      </trkpt>
      <trkpt lat="48.67906" lon="2.00701">
        <ele>171.06265258789</ele>
        <time>2016-09-22T13:16:33.000Z</time>
      </trkpt>
      <trkpt lat="48.67909" lon="2.00704">
        <ele>171.05790710449</ele>
        <time>2016-09-22T13:16:36.000Z</time>
      </trkpt>
      <trkpt lat="48.67911" lon="2.00707">
        <ele>171.05122375488</ele>
        <time>2016-09-22T13:16:38.000Z</time>
      </trkpt>
      <trkpt lat="48.67913" lon="2.00709">
        <ele>171.04243469238</ele>
        <time>2016-09-22T13:16:40.000Z</time>
      </trkpt>
      <trkpt lat="48.67916" lon="2.00713">
        <ele>171.03135681152</ele>
        <time>2016-09-22T13:16:43.000Z</time>
      </trkpt>
      <trkpt lat="48.67918" lon="2.00717">
        <ele>171.02053833008</ele>
        <time>2016-09-22T13:16:46.000Z</time>
      </trkpt>
      <trkpt lat="48.67921" lon="2.00721">
        <ele>171.01217651367</ele>
        <time>2016-09-22T13:16:49.000Z</time>
      </trkpt>
      <trkpt lat="48.67924" lon="2.00725">
        <ele>171.0055847168</ele>
        <time>2016-09-22T13:16:52.000Z</time>
      </trkpt>
      <trkpt lat="48.67928" lon="2.00729">
        <ele>171.00108337402</ele>
        <time>2016-09-22T13:16:55.000Z</time>
      </trkpt>
      <trkpt lat="48.6793" lon="2.00732">
        <ele>171</ele>
        <time>2016-09-22T13:16:58.000Z</time>
      </trkpt>
      <trkpt lat="48.67932" lon="2.00735">
        <ele>171</ele>
        <time>2016-09-22T13:17:00.000Z</time>
      </trkpt>
      <trkpt lat="48.67934" lon="2.00739">
        <ele>171</ele>
        <time>2016-09-22T13:17:03.000Z</time>
      </trkpt>
      <trkpt lat="48.67936" lon="2.0074">
        <ele>171</ele>
        <time>2016-09-22T13:17:05.000Z</time>
      </trkpt>
      <trkpt lat="48.67937" lon="2.00742">
        <ele>171</ele>
        <time>2016-09-22T13:17:09.000Z</time>
      </trkpt>
      <trkpt lat="48.6794" lon="2.00745">
        <ele>171</ele>
        <time>2016-09-22T13:17:12.000Z</time>
      </trkpt>
      <trkpt lat="48.67942" lon="2.00748">
        <ele>171</ele>
        <time>2016-09-22T13:17:14.000Z</time>
      </trkpt>
      <trkpt lat="48.67944" lon="2.0075">
        <ele>170.9990234375</ele>
        <time>2016-09-22T13:17:16.000Z</time>
      </trkpt>
      <trkpt lat="48.67946" lon="2.00753">
        <ele>170.97708129883</ele>
        <time>2016-09-22T13:17:18.000Z</time>
      </trkpt>
      <trkpt lat="48.6795" lon="2.00757">
        <ele>170.92704772949</ele>
        <time>2016-09-22T13:17:21.000Z</time>
      </trkpt>
      <trkpt lat="48.67952" lon="2.00759">
        <ele>170.85897827148</ele>
        <time>2016-09-22T13:17:23.000Z</time>
      </trkpt>
      <trkpt lat="48.67954" lon="2.00762">
        <ele>170.77029418945</ele>
        <time>2016-09-22T13:17:25.000Z</time>
      </trkpt>
      <trkpt lat="48.67958" lon="2.00766">
        <ele>170.65301513672</ele>
        <time>2016-09-22T13:17:28.000Z</time>
      </trkpt>
      <trkpt lat="48.6796" lon="2.00769">
        <ele>170.53857421875</ele>
        <time>2016-09-22T13:17:30.000Z</time>
      </trkpt>
      <trkpt lat="48.67963" lon="2.00773">
        <ele>170.42129516602</ele>
        <time>2016-09-22T13:17:33.000Z</time>
      </trkpt>
      <trkpt lat="48.67967" lon="2.00777">
        <ele>170.29476928711</ele>
        <time>2016-09-22T13:17:36.000Z</time>
      </trkpt>
      <trkpt lat="48.67969" lon="2.00781">
        <ele>170.16201782227</ele>
        <time>2016-09-22T13:17:39.000Z</time>
      </trkpt>
      <trkpt lat="48.6797" lon="2.00784">
        <ele>170.03805541992</ele>
        <time>2016-09-22T13:17:41.000Z</time>
      </trkpt>
      <trkpt lat="48.67973" lon="2.00787">
        <ele>169.91079711914</ele>
        <time>2016-09-22T13:17:43.000Z</time>
      </trkpt>
      <trkpt lat="48.67976" lon="2.0079">
        <ele>169.78793334961</ele>
        <time>2016-09-22T13:17:46.000Z</time>
      </trkpt>
      <trkpt lat="48.67979" lon="2.00793">
        <ele>169.66983032227</ele>
        <time>2016-09-22T13:17:49.000Z</time>
      </trkpt>
      <trkpt lat="48.67981" lon="2.00796">
        <ele>169.56271362305</ele>
        <time>2016-09-22T13:17:51.000Z</time>
      </trkpt>
      <trkpt lat="48.67983" lon="2.00798">
        <ele>169.45852661133</ele>
        <time>2016-09-22T13:17:53.000Z</time>
      </trkpt>
      <trkpt lat="48.67987" lon="2.00802">
        <ele>169.35021972656</ele>
        <time>2016-09-22T13:17:56.000Z</time>
      </trkpt>
      <trkpt lat="48.67991" lon="2.00805">
        <ele>169.24154663086</ele>
        <time>2016-09-22T13:17:59.000Z</time>
      </trkpt>
      <trkpt lat="48.67993" lon="2.00808">
        <ele>169.13598632812</ele>
        <time>2016-09-22T13:18:01.000Z</time>
      </trkpt>
      <trkpt lat="48.67995" lon="2.00811">
        <ele>169.02182006836</ele>
        <time>2016-09-22T13:18:04.000Z</time>
      </trkpt>
      <trkpt lat="48.67997" lon="2.00813">
        <ele>168.91386413574</ele>
        <time>2016-09-22T13:18:06.000Z</time>
      </trkpt>
      <trkpt lat="48.67997" lon="2.00816">
        <ele>168.80795288086</ele>
        <time>2016-09-22T13:18:09.000Z</time>
      </trkpt>
      <trkpt lat="48.68" lon="2.0082">
        <ele>168.70561218262</ele>
        <time>2016-09-22T13:18:12.000Z</time>
      </trkpt>
      <trkpt lat="48.68003" lon="2.00823">
        <ele>168.66076660156</ele>
        <time>2016-09-22T13:18:15.000Z</time>
      </trkpt>
      <trkpt lat="48.68005" lon="2.00825">
        <ele>168.65933227539</ele>
        <time>2016-09-22T13:18:17.000Z</time>
      </trkpt>
      <trkpt lat="48.68007" lon="2.00829">
        <ele>168.70219421387</ele>
        <time>2016-09-22T13:18:20.000Z</time>
      </trkpt>
      <trkpt lat="48.6801" lon="2.00834">
        <ele>168.80136108398</ele>
        <time>2016-09-22T13:18:23.000Z</time>
      </trkpt>
      <trkpt lat="48.68012" lon="2.00837">
        <ele>168.95571899414</ele>
        <time>2016-09-22T13:18:25.000Z</time>
      </trkpt>
      <trkpt lat="48.68015" lon="2.00841">
        <ele>169.11883544922</ele>
        <time>2016-09-22T13:18:28.000Z</time>
      </trkpt>
      <trkpt lat="48.68019" lon="2.00844">
        <ele>169.35189819336</ele>
        <time>2016-09-22T13:18:31.000Z</time>
      </trkpt>
      <trkpt lat="48.68021" lon="2.00846">
        <ele>169.59976196289</ele>
        <time>2016-09-22T13:18:33.000Z</time>
      </trkpt>
      <trkpt lat="48.68024" lon="2.00848">
        <ele>169.86741638184</ele>
        <time>2016-09-22T13:18:36.000Z</time>
      </trkpt>
      <trkpt lat="48.68028" lon="2.00851">
        <ele>170.1796875</ele>
        <time>2016-09-22T13:18:39.000Z</time>
      </trkpt>
      <trkpt lat="48.68031" lon="2.00852">
        <ele>170.4992980957</ele>
        <time>2016-09-22T13:18:41.000Z</time>
      </trkpt>
      <trkpt lat="48.68034" lon="2.00853">
        <ele>170.7759552002</ele>
        <time>2016-09-22T13:18:43.000Z</time>
      </trkpt>
      <trkpt lat="48.68037" lon="2.00855">
        <ele>171.07171630859</ele>
        <time>2016-09-22T13:18:46.000Z</time>
      </trkpt>
      <trkpt lat="48.68038" lon="2.00856">
        <ele>171.33688354492</ele>
        <time>2016-09-22T13:18:49.000Z</time>
      </trkpt>
      <trkpt lat="48.68041" lon="2.00856">
        <ele>171.57279968262</ele>
        <time>2016-09-22T13:18:52.000Z</time>
      </trkpt>
      <trkpt lat="48.68044" lon="2.00859">
        <ele>171.8125</ele>
        <time>2016-09-22T13:18:55.000Z</time>
      </trkpt>
      <trkpt lat="48.68046" lon="2.00862">
        <ele>172.02792358398</ele>
        <time>2016-09-22T13:18:57.000Z</time>
      </trkpt>
      <trkpt lat="48.68048" lon="2.00864">
        <ele>172.20610046387</ele>
        <time>2016-09-22T13:18:59.000Z</time>
      </trkpt>
      <trkpt lat="48.6805" lon="2.00866">
        <ele>172.38383483887</ele>
        <time>2016-09-22T13:19:02.000Z</time>
      </trkpt>
      <trkpt lat="48.6805" lon="2.00868">
        <ele>172.5153503418</ele>
        <time>2016-09-22T13:19:04.000Z</time>
      </trkpt>
      <trkpt lat="48.68049" lon="2.0087">
        <ele>172.56643676758</ele>
        <time>2016-09-22T13:19:06.000Z</time>
      </trkpt>
      <trkpt lat="48.68046" lon="2.00871">
        <ele>172.5288848877</ele>
        <time>2016-09-22T13:19:09.000Z</time>
      </trkpt>
      <trkpt lat="48.68045" lon="2.00872">
        <ele>172.43910217285</ele>
        <time>2016-09-22T13:19:11.000Z</time>
      </trkpt>
      <trkpt lat="48.68043" lon="2.00872">
        <ele>172.29751586914</ele>
        <time>2016-09-22T13:19:13.000Z</time>
      </trkpt>
      <trkpt lat="48.68041" lon="2.00872">
        <ele>172.11624145508</ele>
        <time>2016-09-22T13:19:16.000Z</time>
      </trkpt>
      <trkpt lat="48.6804" lon="2.00871">
        <ele>171.94625854492</ele>
        <time>2016-09-22T13:19:19.000Z</time>
      </trkpt>
      <trkpt lat="48.68039" lon="2.00871">
        <ele>171.82133483887</ele>
        <time>2016-09-22T13:19:21.000Z</time>
      </trkpt>
      <trkpt lat="48.68035" lon="2.00871">
        <ele>171.63542175293</ele>
        <time>2016-09-22T13:19:24.000Z</time>
      </trkpt>
      <trkpt lat="48.6803" lon="2.00872">
        <ele>171.38984680176</ele>
        <time>2016-09-22T13:19:27.000Z</time>
      </trkpt>
      <trkpt lat="48.68026" lon="2.00872">
        <ele>171.12309265137</ele>
        <time>2016-09-22T13:19:30.000Z</time>
      </trkpt>
      <trkpt lat="48.68023" lon="2.00871">
        <ele>170.79428100586</ele>
        <time>2016-09-22T13:19:33.000Z</time>
      </trkpt>
      <trkpt lat="48.68021" lon="2.00872">
        <ele>170.45565795898</ele>
        <time>2016-09-22T13:19:35.000Z</time>
      </trkpt>
      <trkpt lat="48.68019" lon="2.00874">
        <ele>170.16868591309</ele>
        <time>2016-09-22T13:19:37.000Z</time>
      </trkpt>
      <trkpt lat="48.6802" lon="2.00875">
        <ele>169.98432922363</ele>
        <time>2016-09-22T13:19:41.000Z</time>
      </trkpt>
      <trkpt lat="48.6802" lon="2.00878">
        <ele>169.85400390625</ele>
        <time>2016-09-22T13:19:43.000Z</time>
      </trkpt>
      <trkpt lat="48.68018" lon="2.00883">
        <ele>169.75323486328</ele>
        <time>2016-09-22T13:19:46.000Z</time>
      </trkpt>
      <trkpt lat="48.68016" lon="2.00887">
        <ele>169.63652038574</ele>
        <time>2016-09-22T13:19:49.000Z</time>
      </trkpt>
      <trkpt lat="48.68013" lon="2.00889">
        <ele>169.5161895752</ele>
        <time>2016-09-22T13:19:51.000Z</time>
      </trkpt>
      <trkpt lat="48.68009" lon="2.00891">
        <ele>169.30606079102</ele>
        <time>2016-09-22T13:19:54.000Z</time>
      </trkpt>
      <trkpt lat="48.68004" lon="2.00894">
        <ele>169.01943969727</ele>
        <time>2016-09-22T13:19:57.000Z</time>
      </trkpt>
      <trkpt lat="48.68002" lon="2.00897">
        <ele>168.73611450195</ele>
        <time>2016-09-22T13:19:59.000Z</time>
      </trkpt>
      <trkpt lat="48.67999" lon="2.00902">
        <ele>168.47738647461</ele>
        <time>2016-09-22T13:20:02.000Z</time>
      </trkpt>
      <trkpt lat="48.67997" lon="2.00904">
        <ele>168.2646484375</ele>
        <time>2016-09-22T13:20:04.000Z</time>
      </trkpt>
      <trkpt lat="48.67995" lon="2.00905">
        <ele>168.13581848145</ele>
        <time>2016-09-22T13:20:07.000Z</time>
      </trkpt>
      <trkpt lat="48.67993" lon="2.00912">
        <ele>168.0987701416</ele>
        <time>2016-09-22T13:20:22.000Z</time>
      </trkpt>
      <trkpt lat="48.67994" lon="2.00916">
        <ele>168.09811401367</ele>
        <time>2016-09-22T13:20:25.000Z</time>
      </trkpt>
      <trkpt lat="48.67995" lon="2.00919">
        <ele>168.11468505859</ele>
        <time>2016-09-22T13:20:27.000Z</time>
      </trkpt>
      <trkpt lat="48.67995" lon="2.00922">
        <ele>168.12124633789</ele>
        <time>2016-09-22T13:20:29.000Z</time>
      </trkpt>
      <trkpt lat="48.67995" lon="2.00926">
        <ele>168.12483215332</ele>
        <time>2016-09-22T13:20:32.000Z</time>
      </trkpt>
      <trkpt lat="48.67994" lon="2.00931">
        <ele>168.1248626709</ele>
        <time>2016-09-22T13:20:34.000Z</time>
      </trkpt>
      <trkpt lat="48.67994" lon="2.00936">
        <ele>168.12890625</ele>
        <time>2016-09-22T13:20:36.000Z</time>
      </trkpt>
      <trkpt lat="48.67994" lon="2.00943">
        <ele>168.138671875</ele>
        <time>2016-09-22T13:20:39.000Z</time>
      </trkpt>
      <trkpt lat="48.67992" lon="2.00951">
        <ele>168.154296875</ele>
        <time>2016-09-22T13:20:42.000Z</time>
      </trkpt>
      <trkpt lat="48.67993" lon="2.00958">
        <ele>168.1640625</ele>
        <time>2016-09-22T13:20:45.000Z</time>
      </trkpt>
      <trkpt lat="48.67993" lon="2.00962">
        <ele>168.16796875</ele>
        <time>2016-09-22T13:20:47.000Z</time>
      </trkpt>
      <trkpt lat="48.67992" lon="2.00966">
        <ele>168.173828125</ele>
        <time>2016-09-22T13:20:49.000Z</time>
      </trkpt>
      <trkpt lat="48.67993" lon="2.0097">
        <ele>168.17578125</ele>
        <time>2016-09-22T13:20:51.000Z</time>
      </trkpt>
      <trkpt lat="48.67994" lon="2.00973">
        <ele>168.169921875</ele>
        <time>2016-09-22T13:20:53.000Z</time>
      </trkpt>
      <trkpt lat="48.67993" lon="2.00976">
        <ele>168.169921875</ele>
        <time>2016-09-22T13:20:55.000Z</time>
      </trkpt>
      <trkpt lat="48.67992" lon="2.00981">
        <ele>168.173828125</ele>
        <time>2016-09-22T13:20:58.000Z</time>
      </trkpt>
      <trkpt lat="48.67991" lon="2.00986">
        <ele>168.181640625</ele>
        <time>2016-09-22T13:21:01.000Z</time>
      </trkpt>
      <trkpt lat="48.6799" lon="2.00989">
        <ele>168.1953125</ele>
        <time>2016-09-22T13:21:04.000Z</time>
      </trkpt>
      <trkpt lat="48.6799" lon="2.00993">
        <ele>168.2109375</ele>
        <time>2016-09-22T13:21:07.000Z</time>
      </trkpt>
      <trkpt lat="48.6799" lon="2.00996">
        <ele>168.224609375</ele>
        <time>2016-09-22T13:21:10.000Z</time>
      </trkpt>
      <trkpt lat="48.67989" lon="2.01">
        <ele>168.23318481445</ele>
        <time>2016-09-22T13:21:13.000Z</time>
      </trkpt>
      <trkpt lat="48.67989" lon="2.01002">
        <ele>168.21276855469</ele>
        <time>2016-09-22T13:21:16.000Z</time>
      </trkpt>
      <trkpt lat="48.67987" lon="2.01009">
        <ele>168.11416625977</ele>
        <time>2016-09-22T13:21:19.000Z</time>
      </trkpt>
      <trkpt lat="48.67987" lon="2.01012">
        <ele>167.97346496582</ele>
        <time>2016-09-22T13:21:23.000Z</time>
      </trkpt>
      <trkpt lat="48.67987" lon="2.01015">
        <ele>167.79203796387</ele>
        <time>2016-09-22T13:21:25.000Z</time>
      </trkpt>
      <trkpt lat="48.67986" lon="2.0102">
        <ele>167.55253601074</ele>
        <time>2016-09-22T13:21:28.000Z</time>
      </trkpt>
      <trkpt lat="48.67986" lon="2.01026">
        <ele>167.26615905762</ele>
        <time>2016-09-22T13:21:31.000Z</time>
      </trkpt>
      <trkpt lat="48.67984" lon="2.0103">
        <ele>167.00407409668</ele>
        <time>2016-09-22T13:21:33.000Z</time>
      </trkpt>
      <trkpt lat="48.67984" lon="2.01033">
        <ele>166.75357055664</ele>
        <time>2016-09-22T13:21:35.000Z</time>
      </trkpt>
      <trkpt lat="48.67982" lon="2.01035">
        <ele>166.51579284668</ele>
        <time>2016-09-22T13:21:38.000Z</time>
      </trkpt>
      <trkpt lat="48.67982" lon="2.01041">
        <ele>166.25283813477</ele>
        <time>2016-09-22T13:21:41.000Z</time>
      </trkpt>
      <trkpt lat="48.67983" lon="2.01046">
        <ele>166.00228881836</ele>
        <time>2016-09-22T13:21:43.000Z</time>
      </trkpt>
      <trkpt lat="48.67983" lon="2.01049">
        <ele>165.75650024414</ele>
        <time>2016-09-22T13:21:45.000Z</time>
      </trkpt>
      <trkpt lat="48.67984" lon="2.01053">
        <ele>165.49075317383</ele>
        <time>2016-09-22T13:21:47.000Z</time>
      </trkpt>
      <trkpt lat="48.67984" lon="2.01059">
        <ele>165.17976379395</ele>
        <time>2016-09-22T13:21:50.000Z</time>
      </trkpt>
      <trkpt lat="48.67984" lon="2.01063">
        <ele>164.89938354492</ele>
        <time>2016-09-22T13:21:53.000Z</time>
      </trkpt>
      <trkpt lat="48.67982" lon="2.01068">
        <ele>164.6160736084</ele>
        <time>2016-09-22T13:21:56.000Z</time>
      </trkpt>
      <trkpt lat="48.67981" lon="2.01071">
        <ele>164.33908081055</ele>
        <time>2016-09-22T13:21:58.000Z</time>
      </trkpt>
      <trkpt lat="48.67981" lon="2.01076">
        <ele>164.04776000977</ele>
        <time>2016-09-22T13:22:01.000Z</time>
      </trkpt>
      <trkpt lat="48.6798" lon="2.0108">
        <ele>163.77702331543</ele>
        <time>2016-09-22T13:22:03.000Z</time>
      </trkpt>
      <trkpt lat="48.67979" lon="2.01086">
        <ele>163.4945526123</ele>
        <time>2016-09-22T13:22:06.000Z</time>
      </trkpt>
      <trkpt lat="48.6798" lon="2.01092">
        <ele>163.23799133301</ele>
        <time>2016-09-22T13:22:09.000Z</time>
      </trkpt>
      <trkpt lat="48.6798" lon="2.01096">
        <ele>163.00204467773</ele>
        <time>2016-09-22T13:22:12.000Z</time>
      </trkpt>
      <trkpt lat="48.67979" lon="2.01098">
        <ele>162.8154296875</ele>
        <time>2016-09-22T13:22:14.000Z</time>
      </trkpt>
      <trkpt lat="48.67978" lon="2.01101">
        <ele>162.65943908691</ele>
        <time>2016-09-22T13:22:18.000Z</time>
      </trkpt>
      <trkpt lat="48.67979" lon="2.01104">
        <ele>162.55274963379</ele>
        <time>2016-09-22T13:22:21.000Z</time>
      </trkpt>
      <trkpt lat="48.67978" lon="2.01109">
        <ele>162.44958496094</ele>
        <time>2016-09-22T13:22:24.000Z</time>
      </trkpt>
      <trkpt lat="48.67976" lon="2.01113">
        <ele>162.34228515625</ele>
        <time>2016-09-22T13:22:26.000Z</time>
      </trkpt>
      <trkpt lat="48.67975" lon="2.01115">
        <ele>162.23062133789</ele>
        <time>2016-09-22T13:22:28.000Z</time>
      </trkpt>
      <trkpt lat="48.67976" lon="2.01118">
        <ele>162.12336730957</ele>
        <time>2016-09-22T13:22:31.000Z</time>
      </trkpt>
      <trkpt lat="48.67978" lon="2.01123">
        <ele>162.00891113281</ele>
        <time>2016-09-22T13:22:34.000Z</time>
      </trkpt>
      <trkpt lat="48.67979" lon="2.01127">
        <ele>161.9013671875</ele>
        <time>2016-09-22T13:22:36.000Z</time>
      </trkpt>
      <trkpt lat="48.67979" lon="2.01131">
        <ele>161.79621887207</ele>
        <time>2016-09-22T13:22:38.000Z</time>
      </trkpt>
      <trkpt lat="48.67978" lon="2.01135">
        <ele>161.68151855469</ele>
        <time>2016-09-22T13:22:41.000Z</time>
      </trkpt>
      <trkpt lat="48.67978" lon="2.0114">
        <ele>161.55368041992</ele>
        <time>2016-09-22T13:22:44.000Z</time>
      </trkpt>
      <trkpt lat="48.67979" lon="2.01145">
        <ele>161.42472839355</ele>
        <time>2016-09-22T13:22:47.000Z</time>
      </trkpt>
      <trkpt lat="48.67979" lon="2.01151">
        <ele>161.28507995605</ele>
        <time>2016-09-22T13:22:50.000Z</time>
      </trkpt>
      <trkpt lat="48.67979" lon="2.01153">
        <ele>161.15298461914</ele>
        <time>2016-09-22T13:22:52.000Z</time>
      </trkpt>
      <trkpt lat="48.67979" lon="2.01159">
        <ele>161.01553344727</ele>
        <time>2016-09-22T13:22:55.000Z</time>
      </trkpt>
      <trkpt lat="48.67978" lon="2.01162">
        <ele>160.8840637207</ele>
        <time>2016-09-22T13:22:57.000Z</time>
      </trkpt>
      <trkpt lat="48.67978" lon="2.01165">
        <ele>160.75573730469</ele>
        <time>2016-09-22T13:22:59.000Z</time>
      </trkpt>
      <trkpt lat="48.67978" lon="2.01169">
        <ele>160.64619445801</ele>
        <time>2016-09-22T13:23:02.000Z</time>
      </trkpt>
      <trkpt lat="48.67976" lon="2.01177">
        <ele>160.52557373047</ele>
        <time>2016-09-22T13:23:05.000Z</time>
      </trkpt>
      <trkpt lat="48.67975" lon="2.01182">
        <ele>160.42465209961</ele>
        <time>2016-09-22T13:23:07.000Z</time>
      </trkpt>
      <trkpt lat="48.67973" lon="2.01191">
        <ele>160.32679748535</ele>
        <time>2016-09-22T13:23:10.000Z</time>
      </trkpt>
      <trkpt lat="48.67974" lon="2.01197">
        <ele>160.23977661133</ele>
        <time>2016-09-22T13:23:13.000Z</time>
      </trkpt>
      <trkpt lat="48.67974" lon="2.012">
        <ele>160.16206359863</ele>
        <time>2016-09-22T13:23:15.000Z</time>
      </trkpt>
      <trkpt lat="48.67974" lon="2.01206">
        <ele>160.09783935547</ele>
        <time>2016-09-22T13:23:18.000Z</time>
      </trkpt>
      <trkpt lat="48.67976" lon="2.01212">
        <ele>160.03036499023</ele>
        <time>2016-09-22T13:23:21.000Z</time>
      </trkpt>
      <trkpt lat="48.67975" lon="2.01216">
        <ele>159.97463989258</ele>
        <time>2016-09-22T13:23:23.000Z</time>
      </trkpt>
      <trkpt lat="48.67975" lon="2.0122">
        <ele>159.92176818848</ele>
        <time>2016-09-22T13:23:25.000Z</time>
      </trkpt>
      <trkpt lat="48.67976" lon="2.01224">
        <ele>159.85708618164</ele>
        <time>2016-09-22T13:23:28.000Z</time>
      </trkpt>
      <trkpt lat="48.67976" lon="2.01228">
        <ele>159.79681396484</ele>
        <time>2016-09-22T13:23:31.000Z</time>
      </trkpt>
      <trkpt lat="48.67978" lon="2.0123">
        <ele>159.7396697998</ele>
        <time>2016-09-22T13:23:33.000Z</time>
      </trkpt>
      <trkpt lat="48.67979" lon="2.01235">
        <ele>159.66654968262</ele>
        <time>2016-09-22T13:23:35.000Z</time>
      </trkpt>
      <trkpt lat="48.67981" lon="2.01238">
        <ele>159.56803894043</ele>
        <time>2016-09-22T13:23:38.000Z</time>
      </trkpt>
      <trkpt lat="48.67981" lon="2.01241">
        <ele>159.48327636719</ele>
        <time>2016-09-22T13:23:41.000Z</time>
      </trkpt>
      <trkpt lat="48.67978" lon="2.01243">
        <ele>159.42919921875</ele>
        <time>2016-09-22T13:23:44.000Z</time>
      </trkpt>
      <trkpt lat="48.67976" lon="2.01242">
        <ele>159.40786743164</ele>
        <time>2016-09-22T13:23:46.000Z</time>
      </trkpt>
      <trkpt lat="48.67974" lon="2.01244">
        <ele>159.42874145508</ele>
        <time>2016-09-22T13:23:48.000Z</time>
      </trkpt>
      <trkpt lat="48.6797" lon="2.01249">
        <ele>159.5199432373</ele>
        <time>2016-09-22T13:23:51.000Z</time>
      </trkpt>
      <trkpt lat="48.67967" lon="2.01255">
        <ele>159.67219543457</ele>
        <time>2016-09-22T13:23:54.000Z</time>
      </trkpt>
      <trkpt lat="48.67963" lon="2.01261">
        <ele>159.87185668945</ele>
        <time>2016-09-22T13:23:57.000Z</time>
      </trkpt>
      <trkpt lat="48.67959" lon="2.01267">
        <ele>160.11837768555</ele>
        <time>2016-09-22T13:24:00.000Z</time>
      </trkpt>
      <trkpt lat="48.67957" lon="2.01271">
        <ele>160.39379882812</ele>
        <time>2016-09-22T13:24:02.000Z</time>
      </trkpt>
      <trkpt lat="48.67955" lon="2.01277">
        <ele>160.68795776367</ele>
        <time>2016-09-22T13:24:05.000Z</time>
      </trkpt>
      <trkpt lat="48.67954" lon="2.0128">
        <ele>160.94522094727</ele>
        <time>2016-09-22T13:24:07.000Z</time>
      </trkpt>
      <trkpt lat="48.67954" lon="2.01281">
        <ele>161.14370727539</ele>
        <time>2016-09-22T13:24:09.000Z</time>
      </trkpt>
      <trkpt lat="48.67953" lon="2.01285">
        <ele>161.29635620117</ele>
        <time>2016-09-22T13:24:12.000Z</time>
      </trkpt>
      <trkpt lat="48.67952" lon="2.01287">
        <ele>161.43508911133</ele>
        <time>2016-09-22T13:24:14.000Z</time>
      </trkpt>
      <trkpt lat="48.6795" lon="2.01288">
        <ele>161.55659484863</ele>
        <time>2016-09-22T13:24:16.000Z</time>
      </trkpt>
      <trkpt lat="48.6795" lon="2.0129">
        <ele>161.66567993164</ele>
        <time>2016-09-22T13:24:19.000Z</time>
      </trkpt>
      <trkpt lat="48.67949" lon="2.01293">
        <ele>161.78405761719</ele>
        <time>2016-09-22T13:24:22.000Z</time>
      </trkpt>
      <trkpt lat="48.67949" lon="2.01295">
        <ele>161.89714050293</ele>
        <time>2016-09-22T13:24:25.000Z</time>
      </trkpt>
      <trkpt lat="48.67949" lon="2.01295">
        <ele>161.89714050293</ele>
        <time>2016-09-22T13:24:45.000Z</time>
      </trkpt>
      <trkpt lat="48.67946" lon="2.01296">
        <ele>162.02742004395</ele>
        <time>2016-09-22T13:24:50.000Z</time>
      </trkpt>
      <trkpt lat="48.67944" lon="2.013">
        <ele>162.17561340332</ele>
        <time>2016-09-22T13:24:53.000Z</time>
      </trkpt>
      <trkpt lat="48.67941" lon="2.01303">
        <ele>162.37582397461</ele>
        <time>2016-09-22T13:24:56.000Z</time>
      </trkpt>
      <trkpt lat="48.67939" lon="2.01305">
        <ele>162.60415649414</ele>
        <time>2016-09-22T13:24:58.000Z</time>
      </trkpt>
      <trkpt lat="48.67937" lon="2.01307">
        <ele>162.86125183105</ele>
        <time>2016-09-22T13:25:00.000Z</time>
      </trkpt>
      <trkpt lat="48.67935" lon="2.01309">
        <ele>163.11018371582</ele>
        <time>2016-09-22T13:25:03.000Z</time>
      </trkpt>
      <trkpt lat="48.67932" lon="2.01313">
        <ele>163.38316345215</ele>
        <time>2016-09-22T13:25:13.000Z</time>
      </trkpt>
      <trkpt lat="48.67929" lon="2.01314">
        <ele>163.65298461914</ele>
        <time>2016-09-22T13:25:15.000Z</time>
      </trkpt>
      <trkpt lat="48.67927" lon="2.01314">
        <ele>163.90913391113</ele>
        <time>2016-09-22T13:25:18.000Z</time>
      </trkpt>
      <trkpt lat="48.67923" lon="2.01315">
        <ele>164.1923828125</ele>
        <time>2016-09-22T13:25:26.000Z</time>
      </trkpt>
      <trkpt lat="48.67921" lon="2.01315">
        <ele>164.46469116211</ele>
        <time>2016-09-22T13:25:29.000Z</time>
      </trkpt>
      <trkpt lat="48.6792" lon="2.01316">
        <ele>164.69104003906</ele>
        <time>2016-09-22T13:25:32.000Z</time>
      </trkpt>
      <trkpt lat="48.67918" lon="2.01316">
        <ele>164.90214538574</ele>
        <time>2016-09-22T13:25:35.000Z</time>
      </trkpt>
      <trkpt lat="48.67915" lon="2.01317">
        <ele>165.16195678711</ele>
        <time>2016-09-22T13:25:43.000Z</time>
      </trkpt>
      <trkpt lat="48.67913" lon="2.01317">
        <ele>165.38768005371</ele>
        <time>2016-09-22T13:25:49.000Z</time>
      </trkpt>
      <trkpt lat="48.67912" lon="2.01317">
        <ele>165.63046264648</ele>
        <time>2016-09-22T13:25:52.000Z</time>
      </trkpt>
      <trkpt lat="48.67909" lon="2.01318">
        <ele>165.92962646484</ele>
        <time>2016-09-22T13:25:59.000Z</time>
      </trkpt>
      <trkpt lat="48.67907" lon="2.0132">
        <ele>166.24337768555</ele>
        <time>2016-09-22T13:26:01.000Z</time>
      </trkpt>
      <trkpt lat="48.67905" lon="2.01322">
        <ele>166.56323242188</ele>
        <time>2016-09-22T13:26:04.000Z</time>
      </trkpt>
      <trkpt lat="48.67905" lon="2.01322">
        <ele>166.56323242188</ele>
        <time>2016-09-22T13:26:24.000Z</time>
      </trkpt>
      <trkpt lat="48.67902" lon="2.01327">
        <ele>166.96611022949</ele>
        <time>2016-09-22T13:26:25.000Z</time>
      </trkpt>
      <trkpt lat="48.67899" lon="2.01332">
        <ele>167.43270874023</ele>
        <time>2016-09-22T13:26:28.000Z</time>
      </trkpt>
      <trkpt lat="48.67898" lon="2.01334">
        <ele>167.85635375977</ele>
        <time>2016-09-22T13:26:30.000Z</time>
      </trkpt>
      <trkpt lat="48.67896" lon="2.01337">
        <ele>168.29260253906</ele>
        <time>2016-09-22T13:26:32.000Z</time>
      </trkpt>
      <trkpt lat="48.67895" lon="2.01338">
        <ele>168.67794799805</ele>
        <time>2016-09-22T13:26:34.000Z</time>
      </trkpt>
      <trkpt lat="48.67892" lon="2.0134">
        <ele>169.01722717285</ele>
        <time>2016-09-22T13:26:37.000Z</time>
      </trkpt>
      <trkpt lat="48.67891" lon="2.01342">
        <ele>169.2805480957</ele>
        <time>2016-09-22T13:26:39.000Z</time>
      </trkpt>
      <trkpt lat="48.67889" lon="2.01343">
        <ele>169.54089355469</ele>
        <time>2016-09-22T13:26:41.000Z</time>
      </trkpt>
      <trkpt lat="48.67887" lon="2.01345">
        <ele>169.78793334961</ele>
        <time>2016-09-22T13:26:44.000Z</time>
      </trkpt>
      <trkpt lat="48.67886" lon="2.01345">
        <ele>170.02711486816</ele>
        <time>2016-09-22T13:26:46.000Z</time>
      </trkpt>
      <trkpt lat="48.67882" lon="2.01348">
        <ele>170.30651855469</ele>
        <time>2016-09-22T13:26:55.000Z</time>
      </trkpt>
      <trkpt lat="48.67877" lon="2.0135">
        <ele>170.65603637695</ele>
        <time>2016-09-22T13:27:02.000Z</time>
      </trkpt>
      <trkpt lat="48.67874" lon="2.01352">
        <ele>171.03388977051</ele>
        <time>2016-09-22T13:27:08.000Z</time>
      </trkpt>
      <trkpt lat="48.67873" lon="2.01353">
        <ele>171.38236999512</ele>
        <time>2016-09-22T13:27:10.000Z</time>
      </trkpt>
      <trkpt lat="48.67871" lon="2.01355">
        <ele>171.74032592773</ele>
        <time>2016-09-22T13:27:13.000Z</time>
      </trkpt>
      <trkpt lat="48.6787" lon="2.01356">
        <ele>171.99858093262</ele>
        <time>2016-09-22T13:27:15.000Z</time>
      </trkpt>
      <trkpt lat="48.67869" lon="2.01359">
        <ele>172.16471862793</ele>
        <time>2016-09-22T13:27:18.000Z</time>
      </trkpt>
      <trkpt lat="48.67869" lon="2.01363">
        <ele>172.24307250977</ele>
        <time>2016-09-22T13:27:21.000Z</time>
      </trkpt>
      <trkpt lat="48.67868" lon="2.01365">
        <ele>172.2961730957</ele>
        <time>2016-09-22T13:27:23.000Z</time>
      </trkpt>
      <trkpt lat="48.67868" lon="2.01365">
        <ele>172.2961730957</ele>
        <time>2016-09-22T13:27:43.000Z</time>
      </trkpt>
      <trkpt lat="48.67866" lon="2.01367">
        <ele>172.34530639648</ele>
        <time>2016-09-22T13:30:08.000Z</time>
      </trkpt>
      <trkpt lat="48.67865" lon="2.01372">
        <ele>172.36471557617</ele>
        <time>2016-09-22T13:30:26.000Z</time>
      </trkpt>
      <trkpt lat="48.67866" lon="2.01375">
        <ele>172.34651184082</ele>
        <time>2016-09-22T13:30:28.000Z</time>
      </trkpt>
      <trkpt lat="48.67867" lon="2.01381">
        <ele>172.30027770996</ele>
        <time>2016-09-22T13:30:31.000Z</time>
      </trkpt>
      <trkpt lat="48.67867" lon="2.01385">
        <ele>172.22494506836</ele>
        <time>2016-09-22T13:30:33.000Z</time>
      </trkpt>
      <trkpt lat="48.67867" lon="2.01389">
        <ele>172.09309387207</ele>
        <time>2016-09-22T13:30:35.000Z</time>
      </trkpt>
      <trkpt lat="48.67867" lon="2.01396">
        <ele>171.9440612793</ele>
        <time>2016-09-22T13:30:38.000Z</time>
      </trkpt>
      <trkpt lat="48.67868" lon="2.01402">
        <ele>171.78942871094</ele>
        <time>2016-09-22T13:30:40.000Z</time>
      </trkpt>
      <trkpt lat="48.67867" lon="2.01408">
        <ele>171.65637207031</ele>
        <time>2016-09-22T13:30:43.000Z</time>
      </trkpt>
      <trkpt lat="48.67865" lon="2.01412">
        <ele>171.54403686523</ele>
        <time>2016-09-22T13:30:45.000Z</time>
      </trkpt>
      <trkpt lat="48.67864" lon="2.01417">
        <ele>171.43327331543</ele>
        <time>2016-09-22T13:30:48.000Z</time>
      </trkpt>
      <trkpt lat="48.67864" lon="2.0142">
        <ele>171.36929321289</ele>
        <time>2016-09-22T13:30:50.000Z</time>
      </trkpt>
      <trkpt lat="48.67864" lon="2.01425">
        <ele>171.35122680664</ele>
        <time>2016-09-22T13:30:53.000Z</time>
      </trkpt>
      <trkpt lat="48.67863" lon="2.0143">
        <ele>171.3762512207</ele>
        <time>2016-09-22T13:30:56.000Z</time>
      </trkpt>
      <trkpt lat="48.67862" lon="2.01434">
        <ele>171.42399597168</ele>
        <time>2016-09-22T13:30:58.000Z</time>
      </trkpt>
      <trkpt lat="48.67861" lon="2.01438">
        <ele>171.50407409668</ele>
        <time>2016-09-22T13:31:01.000Z</time>
      </trkpt>
      <trkpt lat="48.67861" lon="2.01443">
        <ele>171.58955383301</ele>
        <time>2016-09-22T13:31:04.000Z</time>
      </trkpt>
      <trkpt lat="48.67861" lon="2.01447">
        <ele>171.67097473145</ele>
        <time>2016-09-22T13:31:06.000Z</time>
      </trkpt>
      <trkpt lat="48.67862" lon="2.01452">
        <ele>171.74594116211</ele>
        <time>2016-09-22T13:31:09.000Z</time>
      </trkpt>
      <trkpt lat="48.67862" lon="2.01454">
        <ele>171.81451416016</ele>
        <time>2016-09-22T13:31:11.000Z</time>
      </trkpt>
      <trkpt lat="48.67863" lon="2.01459">
        <ele>171.88424682617</ele>
        <time>2016-09-22T13:31:14.000Z</time>
      </trkpt>
      <trkpt lat="48.67864" lon="2.01463">
        <ele>171.94976806641</ele>
        <time>2016-09-22T13:31:16.000Z</time>
      </trkpt>
      <trkpt lat="48.67863" lon="2.01469">
        <ele>172.02169799805</ele>
        <time>2016-09-22T13:31:19.000Z</time>
      </trkpt>
      <trkpt lat="48.67862" lon="2.01474">
        <ele>172.09237670898</ele>
        <time>2016-09-22T13:31:21.000Z</time>
      </trkpt>
      <trkpt lat="48.6786" lon="2.0148">
        <ele>172.17068481445</ele>
        <time>2016-09-22T13:31:24.000Z</time>
      </trkpt>
      <trkpt lat="48.67859" lon="2.01482">
        <ele>172.23667907715</ele>
        <time>2016-09-22T13:31:26.000Z</time>
      </trkpt>
      <trkpt lat="48.6786" lon="2.01485">
        <ele>172.30130004883</ele>
        <time>2016-09-22T13:31:28.000Z</time>
      </trkpt>
      <trkpt lat="48.6786" lon="2.0149">
        <ele>172.36193847656</ele>
        <time>2016-09-22T13:31:31.000Z</time>
      </trkpt>
      <trkpt lat="48.6786" lon="2.01493">
        <ele>172.41773986816</ele>
        <time>2016-09-22T13:31:34.000Z</time>
      </trkpt>
      <trkpt lat="48.6786" lon="2.01496">
        <ele>172.46977233887</ele>
        <time>2016-09-22T13:31:36.000Z</time>
      </trkpt>
      <trkpt lat="48.6786" lon="2.01501">
        <ele>172.53482055664</ele>
        <time>2016-09-22T13:31:39.000Z</time>
      </trkpt>
      <trkpt lat="48.67861" lon="2.01504">
        <ele>172.60501098633</ele>
        <time>2016-09-22T13:31:41.000Z</time>
      </trkpt>
      <trkpt lat="48.67863" lon="2.01507">
        <ele>172.68263244629</ele>
        <time>2016-09-22T13:31:44.000Z</time>
      </trkpt>
      <trkpt lat="48.67864" lon="2.0151">
        <ele>172.7716217041</ele>
        <time>2016-09-22T13:31:47.000Z</time>
      </trkpt>
      <trkpt lat="48.67865" lon="2.01516">
        <ele>172.88293457031</ele>
        <time>2016-09-22T13:31:50.000Z</time>
      </trkpt>
      <trkpt lat="48.67865" lon="2.0152">
        <ele>173.0009765625</ele>
        <time>2016-09-22T13:31:52.000Z</time>
      </trkpt>
      <trkpt lat="48.67866" lon="2.01527">
        <ele>173.13598632812</ele>
        <time>2016-09-22T13:31:55.000Z</time>
      </trkpt>
      <trkpt lat="48.67866" lon="2.01532">
        <ele>173.27374267578</ele>
        <time>2016-09-22T13:31:57.000Z</time>
      </trkpt>
      <trkpt lat="48.67867" lon="2.01538">
        <ele>173.42041015625</ele>
        <time>2016-09-22T13:32:00.000Z</time>
      </trkpt>
      <trkpt lat="48.67868" lon="2.01541">
        <ele>173.55432128906</ele>
        <time>2016-09-22T13:32:02.000Z</time>
      </trkpt>
      <trkpt lat="48.67871" lon="2.01545">
        <ele>173.69982910156</ele>
        <time>2016-09-22T13:32:05.000Z</time>
      </trkpt>
      <trkpt lat="48.67871" lon="2.0155">
        <ele>173.83258056641</ele>
        <time>2016-09-22T13:32:08.000Z</time>
      </trkpt>
      <trkpt lat="48.67871" lon="2.01553">
        <ele>173.95416259766</ele>
        <time>2016-09-22T13:32:10.000Z</time>
      </trkpt>
      <trkpt lat="48.67871" lon="2.01557">
        <ele>174.06604003906</ele>
        <time>2016-09-22T13:32:13.000Z</time>
      </trkpt>
      <trkpt lat="48.67871" lon="2.01559">
        <ele>174.16912841797</ele>
        <time>2016-09-22T13:32:15.000Z</time>
      </trkpt>
      <trkpt lat="48.67872" lon="2.01563">
        <ele>174.26293945312</ele>
        <time>2016-09-22T13:32:18.000Z</time>
      </trkpt>
      <trkpt lat="48.67871" lon="2.01568">
        <ele>174.35131835938</ele>
        <time>2016-09-22T13:32:20.000Z</time>
      </trkpt>
      <trkpt lat="48.67871" lon="2.01571">
        <ele>174.44201660156</ele>
        <time>2016-09-22T13:32:22.000Z</time>
      </trkpt>
      <trkpt lat="48.67873" lon="2.01574">
        <ele>174.53472900391</ele>
        <time>2016-09-22T13:32:24.000Z</time>
      </trkpt>
      <trkpt lat="48.67873" lon="2.0158">
        <ele>174.64556884766</ele>
        <time>2016-09-22T13:32:27.000Z</time>
      </trkpt>
      <trkpt lat="48.67873" lon="2.01584">
        <ele>174.7451171875</ele>
        <time>2016-09-22T13:32:29.000Z</time>
      </trkpt>
      <trkpt lat="48.67873" lon="2.01587">
        <ele>174.83757019043</ele>
        <time>2016-09-22T13:32:31.000Z</time>
      </trkpt>
      <trkpt lat="48.67873" lon="2.01594">
        <ele>174.93246459961</ele>
        <time>2016-09-22T13:32:34.000Z</time>
      </trkpt>
      <trkpt lat="48.67873" lon="2.01603">
        <ele>175.02117919922</ele>
        <time>2016-09-22T13:32:37.000Z</time>
      </trkpt>
      <trkpt lat="48.67873" lon="2.01607">
        <ele>175.09063720703</ele>
        <time>2016-09-22T13:32:40.000Z</time>
      </trkpt>
      <trkpt lat="48.67875" lon="2.01613">
        <ele>175.1676940918</ele>
        <time>2016-09-22T13:32:43.000Z</time>
      </trkpt>
      <trkpt lat="48.67876" lon="2.01619">
        <ele>175.26235961914</ele>
        <time>2016-09-22T13:32:46.000Z</time>
      </trkpt>
      <trkpt lat="48.67878" lon="2.01624">
        <ele>175.36514282227</ele>
        <time>2016-09-22T13:32:48.000Z</time>
      </trkpt>
      <trkpt lat="48.67878" lon="2.01628">
        <ele>175.46189880371</ele>
        <time>2016-09-22T13:32:50.000Z</time>
      </trkpt>
      <trkpt lat="48.67879" lon="2.01633">
        <ele>175.56785583496</ele>
        <time>2016-09-22T13:32:53.000Z</time>
      </trkpt>
      <trkpt lat="48.67879" lon="2.01636">
        <ele>175.66316223145</ele>
        <time>2016-09-22T13:32:55.000Z</time>
      </trkpt>
      <trkpt lat="48.6788" lon="2.01643">
        <ele>175.75332641602</ele>
        <time>2016-09-22T13:33:11.000Z</time>
      </trkpt>
      <trkpt lat="48.67881" lon="2.01647">
        <ele>175.83638000488</ele>
        <time>2016-09-22T13:33:16.000Z</time>
      </trkpt>
      <trkpt lat="48.67883" lon="2.01656">
        <ele>175.94486999512</ele>
        <time>2016-09-22T13:33:19.000Z</time>
      </trkpt>
      <trkpt lat="48.67883" lon="2.01662">
        <ele>176.05859375</ele>
        <time>2016-09-22T13:33:21.000Z</time>
      </trkpt>
      <trkpt lat="48.67885" lon="2.01671">
        <ele>176.18486022949</ele>
        <time>2016-09-22T13:33:24.000Z</time>
      </trkpt>
      <trkpt lat="48.67886" lon="2.01681">
        <ele>176.27600097656</ele>
        <time>2016-09-22T13:33:27.000Z</time>
      </trkpt>
      <trkpt lat="48.67887" lon="2.01686">
        <ele>176.33898925781</ele>
        <time>2016-09-22T13:33:29.000Z</time>
      </trkpt>
      <trkpt lat="48.67888" lon="2.01692">
        <ele>176.36326599121</ele>
        <time>2016-09-22T13:33:32.000Z</time>
      </trkpt>
      <trkpt lat="48.67889" lon="2.017">
        <ele>176.34753417969</ele>
        <time>2016-09-22T13:33:35.000Z</time>
      </trkpt>
      <trkpt lat="48.67889" lon="2.01708">
        <ele>176.29415893555</ele>
        <time>2016-09-22T13:33:38.000Z</time>
      </trkpt>
      <trkpt lat="48.67889" lon="2.01715">
        <ele>176.2370300293</ele>
        <time>2016-09-22T13:33:43.000Z</time>
      </trkpt>
      <trkpt lat="48.67889" lon="2.01719">
        <ele>176.1780090332</ele>
        <time>2016-09-22T13:33:43.000Z</time>
      </trkpt>
      <trkpt lat="48.67889" lon="2.01722">
        <ele>176.11923217773</ele>
        <time>2016-09-22T13:33:45.000Z</time>
      </trkpt>
      <trkpt lat="48.67889" lon="2.01725">
        <ele>176.06701660156</ele>
        <time>2016-09-22T13:33:47.000Z</time>
      </trkpt>
      <trkpt lat="48.6789" lon="2.01729">
        <ele>176.02304077148</ele>
        <time>2016-09-22T13:33:50.000Z</time>
      </trkpt>
      <trkpt lat="48.67891" lon="2.01734">
        <ele>175.99264526367</ele>
        <time>2016-09-22T13:33:53.000Z</time>
      </trkpt>
      <trkpt lat="48.67891" lon="2.0174">
        <ele>175.96611022949</ele>
        <time>2016-09-22T13:33:56.000Z</time>
      </trkpt>
      <trkpt lat="48.67892" lon="2.01744">
        <ele>175.94024658203</ele>
        <time>2016-09-22T13:33:59.000Z</time>
      </trkpt>
      <trkpt lat="48.67893" lon="2.01747">
        <ele>175.92224121094</ele>
        <time>2016-09-22T13:34:01.000Z</time>
      </trkpt>
      <trkpt lat="48.67894" lon="2.01752">
        <ele>175.90466308594</ele>
        <time>2016-09-22T13:34:04.000Z</time>
      </trkpt>
      <trkpt lat="48.67894" lon="2.01758">
        <ele>175.87460327148</ele>
        <time>2016-09-22T13:34:07.000Z</time>
      </trkpt>
      <trkpt lat="48.67894" lon="2.01761">
        <ele>175.8387298584</ele>
        <time>2016-09-22T13:34:09.000Z</time>
      </trkpt>
      <trkpt lat="48.67894" lon="2.01766">
        <ele>175.78025817871</ele>
        <time>2016-09-22T13:34:12.000Z</time>
      </trkpt>
      <trkpt lat="48.67894" lon="2.01769">
        <ele>175.71018981934</ele>
        <time>2016-09-22T13:34:14.000Z</time>
      </trkpt>
      <trkpt lat="48.67894" lon="2.01772">
        <ele>175.63668823242</ele>
        <time>2016-09-22T13:34:16.000Z</time>
      </trkpt>
      <trkpt lat="48.67892" lon="2.01777">
        <ele>175.55172729492</ele>
        <time>2016-09-22T13:34:19.000Z</time>
      </trkpt>
      <trkpt lat="48.67892" lon="2.0178">
        <ele>175.46629333496</ele>
        <time>2016-09-22T13:34:21.000Z</time>
      </trkpt>
      <trkpt lat="48.67891" lon="2.01785">
        <ele>175.38031005859</ele>
        <time>2016-09-22T13:34:24.000Z</time>
      </trkpt>
      <trkpt lat="48.67889" lon="2.01789">
        <ele>175.28161621094</ele>
        <time>2016-09-22T13:34:27.000Z</time>
      </trkpt>
      <trkpt lat="48.67889" lon="2.01794">
        <ele>175.1760559082</ele>
        <time>2016-09-22T13:34:30.000Z</time>
      </trkpt>
      <trkpt lat="48.67889" lon="2.01798">
        <ele>175.08549499512</ele>
        <time>2016-09-22T13:34:33.000Z</time>
      </trkpt>
      <trkpt lat="48.67889" lon="2.01801">
        <ele>174.9987487793</ele>
        <time>2016-09-22T13:34:35.000Z</time>
      </trkpt>
      <trkpt lat="48.67889" lon="2.01806">
        <ele>174.91452026367</ele>
        <time>2016-09-22T13:34:38.000Z</time>
      </trkpt>
      <trkpt lat="48.67887" lon="2.01811">
        <ele>174.83079528809</ele>
        <time>2016-09-22T13:34:41.000Z</time>
      </trkpt>
      <trkpt lat="48.67887" lon="2.01816">
        <ele>174.74757385254</ele>
        <time>2016-09-22T13:34:44.000Z</time>
      </trkpt>
      <trkpt lat="48.67887" lon="2.0182">
        <ele>174.66592407227</ele>
        <time>2016-09-22T13:34:46.000Z</time>
      </trkpt>
      <trkpt lat="48.67888" lon="2.01827">
        <ele>174.57434082031</ele>
        <time>2016-09-22T13:34:49.000Z</time>
      </trkpt>
      <trkpt lat="48.67889" lon="2.01831">
        <ele>174.49490356445</ele>
        <time>2016-09-22T13:34:52.000Z</time>
      </trkpt>
      <trkpt lat="48.67889" lon="2.01834">
        <ele>174.435546875</ele>
        <time>2016-09-22T13:34:55.000Z</time>
      </trkpt>
      <trkpt lat="48.6789" lon="2.01837">
        <ele>174.3879699707</ele>
        <time>2016-09-22T13:34:58.000Z</time>
      </trkpt>
      <trkpt lat="48.67889" lon="2.0184">
        <ele>174.34559631348</ele>
        <time>2016-09-22T13:35:00.000Z</time>
      </trkpt>
      <trkpt lat="48.67889" lon="2.01843">
        <ele>174.31709289551</ele>
        <time>2016-09-22T13:35:03.000Z</time>
      </trkpt>
      <trkpt lat="48.67889" lon="2.01846">
        <ele>174.28971862793</ele>
        <time>2016-09-22T13:35:05.000Z</time>
      </trkpt>
      <trkpt lat="48.67888" lon="2.01849">
        <ele>174.25645446777</ele>
        <time>2016-09-22T13:35:07.000Z</time>
      </trkpt>
      <trkpt lat="48.67887" lon="2.01855">
        <ele>174.21165466309</ele>
        <time>2016-09-22T13:35:10.000Z</time>
      </trkpt>
      <trkpt lat="48.67886" lon="2.01863">
        <ele>174.15249633789</ele>
        <time>2016-09-22T13:35:13.000Z</time>
      </trkpt>
      <trkpt lat="48.67884" lon="2.01869">
        <ele>174.07322692871</ele>
        <time>2016-09-22T13:35:16.000Z</time>
      </trkpt>
      <trkpt lat="48.67882" lon="2.01873">
        <ele>173.98425292969</ele>
        <time>2016-09-22T13:35:18.000Z</time>
      </trkpt>
      <trkpt lat="48.67881" lon="2.01877">
        <ele>173.88754272461</ele>
        <time>2016-09-22T13:35:20.000Z</time>
      </trkpt>
      <trkpt lat="48.67881" lon="2.01883">
        <ele>173.79054260254</ele>
        <time>2016-09-22T13:35:23.000Z</time>
      </trkpt>
      <trkpt lat="48.6788" lon="2.01887">
        <ele>173.7025604248</ele>
        <time>2016-09-22T13:35:26.000Z</time>
      </trkpt>
      <trkpt lat="48.6788" lon="2.01889">
        <ele>173.6342010498</ele>
        <time>2016-09-22T13:35:28.000Z</time>
      </trkpt>
      <trkpt lat="48.67879" lon="2.01893">
        <ele>173.5736541748</ele>
        <time>2016-09-22T13:35:31.000Z</time>
      </trkpt>
      <trkpt lat="48.67879" lon="2.01895">
        <ele>173.52241516113</ele>
        <time>2016-09-22T13:35:34.000Z</time>
      </trkpt>
      <trkpt lat="48.67879" lon="2.01895">
        <ele>173.52241516113</ele>
        <time>2016-09-22T13:35:54.000Z</time>
      </trkpt>
      <trkpt lat="48.67879" lon="2.019">
        <ele>173.47343444824</ele>
        <time>2016-09-22T13:36:02.000Z</time>
      </trkpt>
      <trkpt lat="48.67877" lon="2.01904">
        <ele>173.412109375</ele>
        <time>2016-09-22T13:36:04.000Z</time>
      </trkpt>
      <trkpt lat="48.67875" lon="2.01911">
        <ele>173.31619262695</ele>
        <time>2016-09-22T13:36:07.000Z</time>
      </trkpt>
      <trkpt lat="48.67875" lon="2.01919">
        <ele>173.20077514648</ele>
        <time>2016-09-22T13:36:10.000Z</time>
      </trkpt>
      <trkpt lat="48.67875" lon="2.01923">
        <ele>173.07217407227</ele>
        <time>2016-09-22T13:36:12.000Z</time>
      </trkpt>
      <trkpt lat="48.67875" lon="2.01926">
        <ele>172.94241333008</ele>
        <time>2016-09-22T13:36:15.000Z</time>
      </trkpt>
      <trkpt lat="48.67875" lon="2.01928">
        <ele>172.82702636719</ele>
        <time>2016-09-22T13:36:17.000Z</time>
      </trkpt>
      <trkpt lat="48.67875" lon="2.01931">
        <ele>172.72900390625</ele>
        <time>2016-09-22T13:36:20.000Z</time>
      </trkpt>
      <trkpt lat="48.67873" lon="2.0194">
        <ele>172.60116577148</ele>
        <time>2016-09-22T13:36:23.000Z</time>
      </trkpt>
      <trkpt lat="48.67873" lon="2.01946">
        <ele>172.45953369141</ele>
        <time>2016-09-22T13:36:25.000Z</time>
      </trkpt>
      <trkpt lat="48.67872" lon="2.01953">
        <ele>172.29006958008</ele>
        <time>2016-09-22T13:36:28.000Z</time>
      </trkpt>
      <trkpt lat="48.67871" lon="2.01959">
        <ele>172.0994720459</ele>
        <time>2016-09-22T13:36:31.000Z</time>
      </trkpt>
      <trkpt lat="48.67871" lon="2.01963">
        <ele>171.9089050293</ele>
        <time>2016-09-22T13:36:33.000Z</time>
      </trkpt>
      <trkpt lat="48.6787" lon="2.01969">
        <ele>171.74809265137</ele>
        <time>2016-09-22T13:36:38.000Z</time>
      </trkpt>
      <trkpt lat="48.6787" lon="2.01975">
        <ele>171.59275817871</ele>
        <time>2016-09-22T13:36:39.000Z</time>
      </trkpt>
      <trkpt lat="48.6787" lon="2.0198">
        <ele>171.45433044434</ele>
        <time>2016-09-22T13:36:42.000Z</time>
      </trkpt>
      <trkpt lat="48.67869" lon="2.01984">
        <ele>171.33316040039</ele>
        <time>2016-09-22T13:36:45.000Z</time>
      </trkpt>
      <trkpt lat="48.67868" lon="2.01988">
        <ele>171.21899414062</ele>
        <time>2016-09-22T13:36:47.000Z</time>
      </trkpt>
      <trkpt lat="48.67868" lon="2.01995">
        <ele>171.10385131836</ele>
        <time>2016-09-22T13:36:50.000Z</time>
      </trkpt>
      <trkpt lat="48.67868" lon="2.02">
        <ele>170.9947052002</ele>
        <time>2016-09-22T13:36:52.000Z</time>
      </trkpt>
      <trkpt lat="48.67867" lon="2.02008">
        <ele>170.88969421387</ele>
        <time>2016-09-22T13:36:55.000Z</time>
      </trkpt>
      <trkpt lat="48.67867" lon="2.02017">
        <ele>170.77474975586</ele>
        <time>2016-09-22T13:36:58.000Z</time>
      </trkpt>
      <trkpt lat="48.67867" lon="2.02023">
        <ele>170.6607208252</ele>
        <time>2016-09-22T13:37:01.000Z</time>
      </trkpt>
      <trkpt lat="48.67865" lon="2.02027">
        <ele>170.57827758789</ele>
        <time>2016-09-22T13:37:04.000Z</time>
      </trkpt>
      <trkpt lat="48.67865" lon="2.02031">
        <ele>170.51844787598</ele>
        <time>2016-09-22T13:37:07.000Z</time>
      </trkpt>
      <trkpt lat="48.67865" lon="2.02034">
        <ele>170.46597290039</ele>
        <time>2016-09-22T13:37:09.000Z</time>
      </trkpt>
      <trkpt lat="48.67866" lon="2.0204">
        <ele>170.40873718262</ele>
        <time>2016-09-22T13:37:12.000Z</time>
      </trkpt>
      <trkpt lat="48.67866" lon="2.02044">
        <ele>170.35400390625</ele>
        <time>2016-09-22T13:37:14.000Z</time>
      </trkpt>
      <trkpt lat="48.67867" lon="2.0205">
        <ele>170.27340698242</ele>
        <time>2016-09-22T13:37:17.000Z</time>
      </trkpt>
      <trkpt lat="48.67868" lon="2.02055">
        <ele>170.16751098633</ele>
        <time>2016-09-22T13:37:20.000Z</time>
      </trkpt>
      <trkpt lat="48.67867" lon="2.02062">
        <ele>170.0612487793</ele>
        <time>2016-09-22T13:37:23.000Z</time>
      </trkpt>
      <trkpt lat="48.67867" lon="2.02066">
        <ele>169.97543334961</ele>
        <time>2016-09-22T13:37:25.000Z</time>
      </trkpt>
      <trkpt lat="48.67867" lon="2.0207">
        <ele>169.89533996582</ele>
        <time>2016-09-22T13:37:27.000Z</time>
      </trkpt>
      <trkpt lat="48.67867" lon="2.02075">
        <ele>169.82218933105</ele>
        <time>2016-09-22T13:37:29.000Z</time>
      </trkpt>
      <trkpt lat="48.67868" lon="2.02081">
        <ele>169.7469329834</ele>
        <time>2016-09-22T13:37:32.000Z</time>
      </trkpt>
      <trkpt lat="48.67868" lon="2.02084">
        <ele>169.68376159668</ele>
        <time>2016-09-22T13:37:34.000Z</time>
      </trkpt>
      <trkpt lat="48.67868" lon="2.02092">
        <ele>169.6717376709</ele>
        <time>2016-09-22T13:37:37.000Z</time>
      </trkpt>
      <trkpt lat="48.67868" lon="2.02096">
        <ele>169.69412231445</ele>
        <time>2016-09-22T13:37:40.000Z</time>
      </trkpt>
      <trkpt lat="48.67868" lon="2.02101">
        <ele>169.76547241211</ele>
        <time>2016-09-22T13:37:43.000Z</time>
      </trkpt>
      <trkpt lat="48.67868" lon="2.02106">
        <ele>169.89419555664</ele>
        <time>2016-09-22T13:37:45.000Z</time>
      </trkpt>
      <trkpt lat="48.67867" lon="2.02114">
        <ele>170.07528686523</ele>
        <time>2016-09-22T13:37:48.000Z</time>
      </trkpt>
      <trkpt lat="48.67867" lon="2.02119">
        <ele>170.24572753906</ele>
        <time>2016-09-22T13:37:50.000Z</time>
      </trkpt>
      <trkpt lat="48.67865" lon="2.02123">
        <ele>170.42317199707</ele>
        <time>2016-09-22T13:37:52.000Z</time>
      </trkpt>
      <trkpt lat="48.67865" lon="2.02129">
        <ele>170.61141967773</ele>
        <time>2016-09-22T13:37:55.000Z</time>
      </trkpt>
      <trkpt lat="48.67867" lon="2.02136">
        <ele>170.79479980469</ele>
        <time>2016-09-22T13:37:58.000Z</time>
      </trkpt>
      <trkpt lat="48.67867" lon="2.02139">
        <ele>170.9457244873</ele>
        <time>2016-09-22T13:38:01.000Z</time>
      </trkpt>
      <trkpt lat="48.67867" lon="2.02144">
        <ele>171.09140014648</ele>
        <time>2016-09-22T13:38:04.000Z</time>
      </trkpt>
      <trkpt lat="48.67868" lon="2.02149">
        <ele>171.22708129883</ele>
        <time>2016-09-22T13:38:06.000Z</time>
      </trkpt>
      <trkpt lat="48.67868" lon="2.02152">
        <ele>171.33847045898</ele>
        <time>2016-09-22T13:38:09.000Z</time>
      </trkpt>
      <trkpt lat="48.67868" lon="2.02159">
        <ele>171.46997070312</ele>
        <time>2016-09-22T13:38:12.000Z</time>
      </trkpt>
      <trkpt lat="48.67868" lon="2.02166">
        <ele>171.62521362305</ele>
        <time>2016-09-22T13:38:18.000Z</time>
      </trkpt>
      <trkpt lat="48.67869" lon="2.02171">
        <ele>171.76626586914</ele>
        <time>2016-09-22T13:38:21.000Z</time>
      </trkpt>
      <trkpt lat="48.67871" lon="2.02178">
        <ele>171.89848327637</ele>
        <time>2016-09-22T13:38:24.000Z</time>
      </trkpt>
      <trkpt lat="48.67873" lon="2.02182">
        <ele>172.02519226074</ele>
        <time>2016-09-22T13:38:26.000Z</time>
      </trkpt>
      <trkpt lat="48.67872" lon="2.0219">
        <ele>172.12687683105</ele>
        <time>2016-09-22T13:38:29.000Z</time>
      </trkpt>
      <trkpt lat="48.67871" lon="2.022">
        <ele>172.20967102051</ele>
        <time>2016-09-22T13:38:32.000Z</time>
      </trkpt>
      <trkpt lat="48.67872" lon="2.02206">
        <ele>172.29499816895</ele>
        <time>2016-09-22T13:38:34.000Z</time>
      </trkpt>
      <trkpt lat="48.67871" lon="2.02216">
        <ele>172.38737487793</ele>
        <time>2016-09-22T13:38:37.000Z</time>
      </trkpt>
      <trkpt lat="48.67871" lon="2.02222">
        <ele>172.48330688477</ele>
        <time>2016-09-22T13:38:39.000Z</time>
      </trkpt>
      <trkpt lat="48.67869" lon="2.02231">
        <ele>172.58029174805</ele>
        <time>2016-09-22T13:38:42.000Z</time>
      </trkpt>
      <trkpt lat="48.67868" lon="2.02237">
        <ele>172.66928100586</ele>
        <time>2016-09-22T13:38:45.000Z</time>
      </trkpt>
      <trkpt lat="48.67868" lon="2.02241">
        <ele>172.75190734863</ele>
        <time>2016-09-22T13:38:47.000Z</time>
      </trkpt>
      <trkpt lat="48.67867" lon="2.02248">
        <ele>172.82873535156</ele>
        <time>2016-09-22T13:38:50.000Z</time>
      </trkpt>
      <trkpt lat="48.67866" lon="2.02254">
        <ele>172.8757019043</ele>
        <time>2016-09-22T13:38:53.000Z</time>
      </trkpt>
      <trkpt lat="48.67867" lon="2.02259">
        <ele>172.87197875977</ele>
        <time>2016-09-22T13:38:55.000Z</time>
      </trkpt>
      <trkpt lat="48.67868" lon="2.02265">
        <ele>172.82247924805</ele>
        <time>2016-09-22T13:38:58.000Z</time>
      </trkpt>
      <trkpt lat="48.67867" lon="2.0227">
        <ele>172.74090576172</ele>
        <time>2016-09-22T13:39:01.000Z</time>
      </trkpt>
      <trkpt lat="48.67865" lon="2.02273">
        <ele>172.62478637695</ele>
        <time>2016-09-22T13:39:03.000Z</time>
      </trkpt>
      <trkpt lat="48.67863" lon="2.02279">
        <ele>172.50187683105</ele>
        <time>2016-09-22T13:39:06.000Z</time>
      </trkpt>
      <trkpt lat="48.67862" lon="2.02281">
        <ele>172.39974975586</ele>
        <time>2016-09-22T13:39:08.000Z</time>
      </trkpt>
      <trkpt lat="48.67862" lon="2.02286">
        <ele>172.30783081055</ele>
        <time>2016-09-22T13:39:11.000Z</time>
      </trkpt>
      <trkpt lat="48.67863" lon="2.02289">
        <ele>172.21728515625</ele>
        <time>2016-09-22T13:39:13.000Z</time>
      </trkpt>
      <trkpt lat="48.67868" lon="2.02294">
        <ele>172.09848022461</ele>
        <time>2016-09-22T13:39:16.000Z</time>
      </trkpt>
      <trkpt lat="48.67869" lon="2.02296">
        <ele>171.9914855957</ele>
        <time>2016-09-22T13:39:18.000Z</time>
      </trkpt>
      <trkpt lat="48.67869" lon="2.02299">
        <ele>171.87239074707</ele>
        <time>2016-09-22T13:39:21.000Z</time>
      </trkpt>
      <trkpt lat="48.67868" lon="2.02305">
        <ele>171.74971008301</ele>
        <time>2016-09-22T13:39:24.000Z</time>
      </trkpt>
      <trkpt lat="48.67867" lon="2.02309">
        <ele>171.63217163086</ele>
        <time>2016-09-22T13:39:26.000Z</time>
      </trkpt>
      <trkpt lat="48.67866" lon="2.02312">
        <ele>171.54458618164</ele>
        <time>2016-09-22T13:39:28.000Z</time>
      </trkpt>
      <trkpt lat="48.67866" lon="2.02316">
        <ele>171.44915771484</ele>
        <time>2016-09-22T13:39:31.000Z</time>
      </trkpt>
      <trkpt lat="48.67864" lon="2.02323">
        <ele>171.34985351562</ele>
        <time>2016-09-22T13:39:38.000Z</time>
      </trkpt>
      <trkpt lat="48.67863" lon="2.02329">
        <ele>171.2554473877</ele>
        <time>2016-09-22T13:39:41.000Z</time>
      </trkpt>
      <trkpt lat="48.67863" lon="2.02334">
        <ele>171.1561126709</ele>
        <time>2016-09-22T13:39:43.000Z</time>
      </trkpt>
      <trkpt lat="48.67864" lon="2.02339">
        <ele>171.04553222656</ele>
        <time>2016-09-22T13:39:46.000Z</time>
      </trkpt>
      <trkpt lat="48.67867" lon="2.02342">
        <ele>170.92202758789</ele>
        <time>2016-09-22T13:39:49.000Z</time>
      </trkpt>
      <trkpt lat="48.67868" lon="2.02344">
        <ele>170.80947875977</ele>
        <time>2016-09-22T13:39:52.000Z</time>
      </trkpt>
      <trkpt lat="48.67865" lon="2.02341">
        <ele>170.75459289551</ele>
        <time>2016-09-22T13:39:59.000Z</time>
      </trkpt>
      <trkpt lat="48.67864" lon="2.02345">
        <ele>170.71267700195</ele>
        <time>2016-09-22T13:40:02.000Z</time>
      </trkpt>
      <trkpt lat="48.67863" lon="2.02347">
        <ele>170.6978302002</ele>
        <time>2016-09-22T13:40:04.000Z</time>
      </trkpt>
      <trkpt lat="48.67858" lon="2.0235">
        <ele>170.75248718262</ele>
        <time>2016-09-22T13:40:24.000Z</time>
      </trkpt>
      <trkpt lat="48.67854" lon="2.02351">
        <ele>170.85940551758</ele>
        <time>2016-09-22T13:40:27.000Z</time>
      </trkpt>
      <trkpt lat="48.67851" lon="2.02352">
        <ele>170.94676208496</ele>
        <time>2016-09-22T13:40:29.000Z</time>
      </trkpt>
      <trkpt lat="48.6785" lon="2.02354">
        <ele>171.05094909668</ele>
        <time>2016-09-22T13:40:31.000Z</time>
      </trkpt>
      <trkpt lat="48.67848" lon="2.02354">
        <ele>171.17289733887</ele>
        <time>2016-09-22T13:40:33.000Z</time>
      </trkpt>
      <trkpt lat="48.67846" lon="2.02353">
        <ele>171.27139282227</ele>
        <time>2016-09-22T13:40:36.000Z</time>
      </trkpt>
      <trkpt lat="48.67843" lon="2.02354">
        <ele>171.36090087891</ele>
        <time>2016-09-22T13:40:39.000Z</time>
      </trkpt>
      <trkpt lat="48.67841" lon="2.02355">
        <ele>171.4453125</ele>
        <time>2016-09-22T13:40:41.000Z</time>
      </trkpt>
      <trkpt lat="48.67839" lon="2.02356">
        <ele>171.54263305664</ele>
        <time>2016-09-22T13:40:43.000Z</time>
      </trkpt>
      <trkpt lat="48.67836" lon="2.02356">
        <ele>171.64755249023</ele>
        <time>2016-09-22T13:40:46.000Z</time>
      </trkpt>
      <trkpt lat="48.67834" lon="2.02356">
        <ele>171.75267028809</ele>
        <time>2016-09-22T13:40:49.000Z</time>
      </trkpt>
      <trkpt lat="48.67832" lon="2.0236">
        <ele>171.83869934082</ele>
        <time>2016-09-22T13:40:52.000Z</time>
      </trkpt>
      <trkpt lat="48.6783" lon="2.02362">
        <ele>171.90948486328</ele>
        <time>2016-09-22T13:40:54.000Z</time>
      </trkpt>
      <trkpt lat="48.67829" lon="2.02365">
        <ele>171.95651245117</ele>
        <time>2016-09-22T13:40:57.000Z</time>
      </trkpt>
      <trkpt lat="48.67826" lon="2.02371">
        <ele>171.97415161133</ele>
        <time>2016-09-22T13:41:02.000Z</time>
      </trkpt>
      <trkpt lat="48.67824" lon="2.02375">
        <ele>171.97343444824</ele>
        <time>2016-09-22T13:41:19.000Z</time>
      </trkpt>
      <trkpt lat="48.67822" lon="2.02376">
        <ele>171.9596862793</ele>
        <time>2016-09-22T13:41:21.000Z</time>
      </trkpt>
      <trkpt lat="48.67817" lon="2.02378">
        <ele>171.94125366211</ele>
        <time>2016-09-22T13:41:24.000Z</time>
      </trkpt>
      <trkpt lat="48.67813" lon="2.02379">
        <ele>171.91918945312</ele>
        <time>2016-09-22T13:41:27.000Z</time>
      </trkpt>
      <trkpt lat="48.67809" lon="2.02381">
        <ele>171.89347839355</ele>
        <time>2016-09-22T13:41:31.000Z</time>
      </trkpt>
      <trkpt lat="48.67806" lon="2.02382">
        <ele>171.86671447754</ele>
        <time>2016-09-22T13:41:34.000Z</time>
      </trkpt>
      <trkpt lat="48.67804" lon="2.02383">
        <ele>171.83964538574</ele>
        <time>2016-09-22T13:41:36.000Z</time>
      </trkpt>
      <trkpt lat="48.678" lon="2.02383">
        <ele>171.8129119873</ele>
        <time>2016-09-22T13:41:39.000Z</time>
      </trkpt>
      <trkpt lat="48.67798" lon="2.02384">
        <ele>171.78744506836</ele>
        <time>2016-09-22T13:41:41.000Z</time>
      </trkpt>
      <trkpt lat="48.67795" lon="2.02385">
        <ele>171.76412963867</ele>
        <time>2016-09-22T13:41:44.000Z</time>
      </trkpt>
      <trkpt lat="48.67794" lon="2.02385">
        <ele>171.74353027344</ele>
        <time>2016-09-22T13:41:46.000Z</time>
      </trkpt>
      <trkpt lat="48.67792" lon="2.02386">
        <ele>171.72200012207</ele>
        <time>2016-09-22T13:41:49.000Z</time>
      </trkpt>
      <trkpt lat="48.67788" lon="2.02386">
        <ele>171.70083618164</ele>
        <time>2016-09-22T13:41:52.000Z</time>
      </trkpt>
      <trkpt lat="48.67787" lon="2.02386">
        <ele>171.68258666992</ele>
        <time>2016-09-22T13:41:55.000Z</time>
      </trkpt>
      <trkpt lat="48.67782" lon="2.02386">
        <ele>171.66253662109</ele>
        <time>2016-09-22T13:42:02.000Z</time>
      </trkpt>
      <trkpt lat="48.67781" lon="2.02383">
        <ele>171.64630126953</ele>
        <time>2016-09-22T13:42:17.000Z</time>
      </trkpt>
      <trkpt lat="48.67778" lon="2.02381">
        <ele>171.63473510742</ele>
        <time>2016-09-22T13:42:20.000Z</time>
      </trkpt>
      <trkpt lat="48.67776" lon="2.0238">
        <ele>171.62612915039</ele>
        <time>2016-09-22T13:42:22.000Z</time>
      </trkpt>
      <trkpt lat="48.67774" lon="2.02381">
        <ele>171.61567687988</ele>
        <time>2016-09-22T13:42:24.000Z</time>
      </trkpt>
      <trkpt lat="48.67771" lon="2.0238">
        <ele>171.60855102539</ele>
        <time>2016-09-22T13:42:27.000Z</time>
      </trkpt>
      <trkpt lat="48.6777" lon="2.02379">
        <ele>171.59902954102</ele>
        <time>2016-09-22T13:42:29.000Z</time>
      </trkpt>
      <trkpt lat="48.67767" lon="2.0238">
        <ele>171.583984375</ele>
        <time>2016-09-22T13:42:32.000Z</time>
      </trkpt>
      <trkpt lat="48.67763" lon="2.02381">
        <ele>171.56552124023</ele>
        <time>2016-09-22T13:42:35.000Z</time>
      </trkpt>
      <trkpt lat="48.6776" lon="2.0238">
        <ele>171.54641723633</ele>
        <time>2016-09-22T13:42:37.000Z</time>
      </trkpt>
      <trkpt lat="48.67757" lon="2.02382">
        <ele>171.52336120605</ele>
        <time>2016-09-22T13:42:40.000Z</time>
      </trkpt>
      <trkpt lat="48.67752" lon="2.02384">
        <ele>171.48880004883</ele>
        <time>2016-09-22T13:42:43.000Z</time>
      </trkpt>
      <trkpt lat="48.67749" lon="2.02386">
        <ele>171.45373535156</ele>
        <time>2016-09-22T13:42:46.000Z</time>
      </trkpt>
      <trkpt lat="48.67745" lon="2.02387">
        <ele>171.42601013184</ele>
        <time>2016-09-22T13:42:49.000Z</time>
      </trkpt>
      <trkpt lat="48.67742" lon="2.02386">
        <ele>171.40711975098</ele>
        <time>2016-09-22T13:42:52.000Z</time>
      </trkpt>
      <trkpt lat="48.67741" lon="2.02385">
        <ele>171.39999389648</ele>
        <time>2016-09-22T13:42:54.000Z</time>
      </trkpt>
      <trkpt lat="48.67739" lon="2.02383">
        <ele>171.40913391113</ele>
        <time>2016-09-22T13:42:57.000Z</time>
      </trkpt>
      <trkpt lat="48.67737" lon="2.02381">
        <ele>171.43270874023</ele>
        <time>2016-09-22T13:43:00.000Z</time>
      </trkpt>
      <trkpt lat="48.67736" lon="2.0238">
        <ele>171.45803833008</ele>
        <time>2016-09-22T13:43:02.000Z</time>
      </trkpt>
      <trkpt lat="48.67731" lon="2.0238">
        <ele>171.48442077637</ele>
        <time>2016-09-22T13:43:10.000Z</time>
      </trkpt>
      <trkpt lat="48.67728" lon="2.0238">
        <ele>171.5083770752</ele>
        <time>2016-09-22T13:43:14.000Z</time>
      </trkpt>
      <trkpt lat="48.67725" lon="2.02382">
        <ele>171.52690124512</ele>
        <time>2016-09-22T13:43:16.000Z</time>
      </trkpt>
      <trkpt lat="48.6772" lon="2.02383">
        <ele>171.53608703613</ele>
        <time>2016-09-22T13:43:19.000Z</time>
      </trkpt>
      <trkpt lat="48.67717" lon="2.02384">
        <ele>171.54307556152</ele>
        <time>2016-09-22T13:43:21.000Z</time>
      </trkpt>
      <trkpt lat="48.67714" lon="2.02385">
        <ele>171.54385375977</ele>
        <time>2016-09-22T13:43:23.000Z</time>
      </trkpt>
      <trkpt lat="48.67709" lon="2.02385">
        <ele>171.54582214355</ele>
        <time>2016-09-22T13:43:26.000Z</time>
      </trkpt>
      <trkpt lat="48.67704" lon="2.02387">
        <ele>171.5481262207</ele>
        <time>2016-09-22T13:43:29.000Z</time>
      </trkpt>
      <trkpt lat="48.677" lon="2.02388">
        <ele>171.54862976074</ele>
        <time>2016-09-22T13:43:31.000Z</time>
      </trkpt>
      <trkpt lat="48.67698" lon="2.02389">
        <ele>171.54753112793</ele>
        <time>2016-09-22T13:43:33.000Z</time>
      </trkpt>
      <trkpt lat="48.67694" lon="2.02388">
        <ele>171.55569458008</ele>
        <time>2016-09-22T13:43:36.000Z</time>
      </trkpt>
      <trkpt lat="48.67691" lon="2.02388">
        <ele>171.56225585938</ele>
        <time>2016-09-22T13:43:38.000Z</time>
      </trkpt>
      <trkpt lat="48.67688" lon="2.0239">
        <ele>171.56521606445</ele>
        <time>2016-09-22T13:43:41.000Z</time>
      </trkpt>
      <trkpt lat="48.67686" lon="2.0239">
        <ele>171.56980895996</ele>
        <time>2016-09-22T13:43:43.000Z</time>
      </trkpt>
      <trkpt lat="48.67684" lon="2.0239">
        <ele>171.57620239258</ele>
        <time>2016-09-22T13:43:45.000Z</time>
      </trkpt>
      <trkpt lat="48.67681" lon="2.0239">
        <ele>171.57475280762</ele>
        <time>2016-09-22T13:43:47.000Z</time>
      </trkpt>
      <trkpt lat="48.6768" lon="2.0239">
        <ele>171.57290649414</ele>
        <time>2016-09-22T13:43:50.000Z</time>
      </trkpt>
      <trkpt lat="48.67676" lon="2.0239">
        <ele>171.57943725586</ele>
        <time>2016-09-22T13:43:53.000Z</time>
      </trkpt>
      <trkpt lat="48.67674" lon="2.02391">
        <ele>171.5859375</ele>
        <time>2016-09-22T13:43:55.000Z</time>
      </trkpt>
      <trkpt lat="48.6767" lon="2.02393">
        <ele>171.58520507812</ele>
        <time>2016-09-22T13:43:58.000Z</time>
      </trkpt>
      <trkpt lat="48.67665" lon="2.02395">
        <ele>171.58401489258</ele>
        <time>2016-09-22T13:44:01.000Z</time>
      </trkpt>
      <trkpt lat="48.67661" lon="2.02396">
        <ele>171.61003112793</ele>
        <time>2016-09-22T13:44:04.000Z</time>
      </trkpt>
      <trkpt lat="48.67657" lon="2.02398">
        <ele>171.63916015625</ele>
        <time>2016-09-22T13:44:07.000Z</time>
      </trkpt>
      <trkpt lat="48.67655" lon="2.024">
        <ele>171.67907714844</ele>
        <time>2016-09-22T13:44:09.000Z</time>
      </trkpt>
      <trkpt lat="48.67653" lon="2.02403">
        <ele>171.72665405273</ele>
        <time>2016-09-22T13:44:12.000Z</time>
      </trkpt>
      <trkpt lat="48.67651" lon="2.02404">
        <ele>171.78439331055</ele>
        <time>2016-09-22T13:44:14.000Z</time>
      </trkpt>
      <trkpt lat="48.67647" lon="2.02405">
        <ele>171.83198547363</ele>
        <time>2016-09-22T13:44:17.000Z</time>
      </trkpt>
      <trkpt lat="48.67644" lon="2.02405">
        <ele>171.89332580566</ele>
        <time>2016-09-22T13:44:20.000Z</time>
      </trkpt>
      <trkpt lat="48.67642" lon="2.02405">
        <ele>171.95472717285</ele>
        <time>2016-09-22T13:44:22.000Z</time>
      </trkpt>
      <trkpt lat="48.67636" lon="2.02408">
        <ele>172.04942321777</ele>
        <time>2016-09-22T13:44:25.000Z</time>
      </trkpt>
      <trkpt lat="48.67632" lon="2.02408">
        <ele>172.16354370117</ele>
        <time>2016-09-22T13:44:28.000Z</time>
      </trkpt>
      <trkpt lat="48.67627" lon="2.02407">
        <ele>172.29306030273</ele>
        <time>2016-09-22T13:44:37.000Z</time>
      </trkpt>
      <trkpt lat="48.67625" lon="2.02408">
        <ele>172.41607666016</ele>
        <time>2016-09-22T13:44:39.000Z</time>
      </trkpt>
      <trkpt lat="48.6762" lon="2.02411">
        <ele>172.55453491211</ele>
        <time>2016-09-22T13:44:42.000Z</time>
      </trkpt>
      <trkpt lat="48.67616" lon="2.02413">
        <ele>172.67468261719</ele>
        <time>2016-09-22T13:44:45.000Z</time>
      </trkpt>
      <trkpt lat="48.67612" lon="2.02414">
        <ele>172.78923034668</ele>
        <time>2016-09-22T13:44:48.000Z</time>
      </trkpt>
      <trkpt lat="48.6761" lon="2.02413">
        <ele>172.88925170898</ele>
        <time>2016-09-22T13:44:51.000Z</time>
      </trkpt>
      <trkpt lat="48.67606" lon="2.02414">
        <ele>173.00225830078</ele>
        <time>2016-09-22T13:44:54.000Z</time>
      </trkpt>
      <trkpt lat="48.67603" lon="2.02414">
        <ele>173.10562133789</ele>
        <time>2016-09-22T13:44:56.000Z</time>
      </trkpt>
      <trkpt lat="48.676" lon="2.02416">
        <ele>173.21426391602</ele>
        <time>2016-09-22T13:44:59.000Z</time>
      </trkpt>
      <trkpt lat="48.67596" lon="2.02417">
        <ele>173.3196105957</ele>
        <time>2016-09-22T13:45:02.000Z</time>
      </trkpt>
      <trkpt lat="48.67595" lon="2.02416">
        <ele>173.42301940918</ele>
        <time>2016-09-22T13:45:04.000Z</time>
      </trkpt>
      <trkpt lat="48.67593" lon="2.02415">
        <ele>173.5087890625</ele>
        <time>2016-09-22T13:45:06.000Z</time>
      </trkpt>
      <trkpt lat="48.6759" lon="2.02415">
        <ele>173.60272216797</ele>
        <time>2016-09-22T13:45:09.000Z</time>
      </trkpt>
      <trkpt lat="48.67587" lon="2.02415">
        <ele>173.6946105957</ele>
        <time>2016-09-22T13:45:11.000Z</time>
      </trkpt>
      <trkpt lat="48.67582" lon="2.02417">
        <ele>173.78234863281</ele>
        <time>2016-09-22T13:45:14.000Z</time>
      </trkpt>
      <trkpt lat="48.67579" lon="2.0242">
        <ele>173.8381652832</ele>
        <time>2016-09-22T13:45:16.000Z</time>
      </trkpt>
      <trkpt lat="48.67575" lon="2.02422">
        <ele>173.86215209961</ele>
        <time>2016-09-22T13:45:19.000Z</time>
      </trkpt>
      <trkpt lat="48.67574" lon="2.02424">
        <ele>173.85818481445</ele>
        <time>2016-09-22T13:45:21.000Z</time>
      </trkpt>
      <trkpt lat="48.67572" lon="2.02427">
        <ele>173.82991027832</ele>
        <time>2016-09-22T13:45:24.000Z</time>
      </trkpt>
      <trkpt lat="48.67572" lon="2.02427">
        <ele>173.82991027832</ele>
        <time>2016-09-22T13:45:44.000Z</time>
      </trkpt>
      <trkpt lat="48.67573" lon="2.02431">
        <ele>173.80233764648</ele>
        <time>2016-09-22T13:46:10.000Z</time>
      </trkpt>
      <trkpt lat="48.67571" lon="2.02421">
        <ele>173.74601745605</ele>
        <time>2016-09-22T13:48:51.000Z</time>
      </trkpt>
      <trkpt lat="48.67573" lon="2.02424">
        <ele>173.73544311523</ele>
        <time>2016-09-22T13:48:54.000Z</time>
      </trkpt>
      <trkpt lat="48.67577" lon="2.02429">
        <ele>173.76568603516</ele>
        <time>2016-09-22T13:49:01.000Z</time>
      </trkpt>
      <trkpt lat="48.67577" lon="2.0243">
        <ele>173.80899047852</ele>
        <time>2016-09-22T13:49:03.000Z</time>
      </trkpt>
      <trkpt lat="48.67579" lon="2.02433">
        <ele>173.85020446777</ele>
        <time>2016-09-22T13:49:04.000Z</time>
      </trkpt>
      <trkpt lat="48.6758" lon="2.02436">
        <ele>173.95292663574</ele>
        <time>2016-09-22T13:49:06.000Z</time>
      </trkpt>
      <trkpt lat="48.67584" lon="2.0244">
        <ele>174.05673217773</ele>
        <time>2016-09-22T13:49:09.000Z</time>
      </trkpt>
      <trkpt lat="48.67587" lon="2.02442">
        <ele>174.10108947754</ele>
        <time>2016-09-22T13:49:12.000Z</time>
      </trkpt>
      <trkpt lat="48.6759" lon="2.02446">
        <ele>174.11042785645</ele>
        <time>2016-09-22T13:49:14.000Z</time>
      </trkpt>
      <trkpt lat="48.67595" lon="2.02449">
        <ele>174.05981445312</ele>
        <time>2016-09-22T13:49:17.000Z</time>
      </trkpt>
      <trkpt lat="48.67598" lon="2.02451">
        <ele>173.94789123535</ele>
        <time>2016-09-22T13:49:19.000Z</time>
      </trkpt>
      <trkpt lat="48.67603" lon="2.02453">
        <ele>173.75708007812</ele>
        <time>2016-09-22T13:49:22.000Z</time>
      </trkpt>
      <trkpt lat="48.67607" lon="2.02454">
        <ele>173.55180358887</ele>
        <time>2016-09-22T13:49:25.000Z</time>
      </trkpt>
      <trkpt lat="48.67609" lon="2.02455">
        <ele>173.34463500977</ele>
        <time>2016-09-22T13:49:28.000Z</time>
      </trkpt>
      <trkpt lat="48.67605" lon="2.02452">
        <ele>173.22863769531</ele>
        <time>2016-09-22T13:49:35.000Z</time>
      </trkpt>
      <trkpt lat="48.67599" lon="2.02447">
        <ele>173.21768188477</ele>
        <time>2016-09-22T13:49:38.000Z</time>
      </trkpt>
      <trkpt lat="48.67594" lon="2.02444">
        <ele>173.31730651855</ele>
        <time>2016-09-22T13:49:41.000Z</time>
      </trkpt>
      <trkpt lat="48.67588" lon="2.02439">
        <ele>173.50953674316</ele>
        <time>2016-09-22T13:49:44.000Z</time>
      </trkpt>
      <trkpt lat="48.67585" lon="2.02438">
        <ele>173.75450134277</ele>
        <time>2016-09-22T13:49:46.000Z</time>
      </trkpt>
      <trkpt lat="48.6758" lon="2.02435">
        <ele>173.93937683105</ele>
        <time>2016-09-22T13:49:49.000Z</time>
      </trkpt>
      <trkpt lat="48.67577" lon="2.02433">
        <ele>174.03530883789</ele>
        <time>2016-09-22T13:49:51.000Z</time>
      </trkpt>
      <trkpt lat="48.67574" lon="2.02429">
        <ele>174.0433807373</ele>
        <time>2016-09-22T13:49:54.000Z</time>
      </trkpt>
      <trkpt lat="48.67572" lon="2.02427">
        <ele>173.98001098633</ele>
        <time>2016-09-22T13:49:57.000Z</time>
      </trkpt>
      <trkpt lat="48.67574" lon="2.02428">
        <ele>173.9058380127</ele>
        <time>2016-09-22T13:49:59.000Z</time>
      </trkpt>
      <trkpt lat="48.67575" lon="2.0243">
        <ele>173.85751342773</ele>
        <time>2016-09-22T13:50:01.000Z</time>
      </trkpt>
      <trkpt lat="48.67579" lon="2.02435">
        <ele>173.87200927734</ele>
        <time>2016-09-22T13:50:04.000Z</time>
      </trkpt>
      <trkpt lat="48.6758" lon="2.02438">
        <ele>173.93885803223</ele>
        <time>2016-09-22T13:50:06.000Z</time>
      </trkpt>
      <trkpt lat="48.67583" lon="2.02442">
        <ele>174.04832458496</ele>
        <time>2016-09-22T13:50:08.000Z</time>
      </trkpt>
      <trkpt lat="48.67588" lon="2.02447">
        <ele>174.11190795898</ele>
        <time>2016-09-22T13:50:11.000Z</time>
      </trkpt>
      <trkpt lat="48.6759" lon="2.02449">
        <ele>174.14529418945</ele>
        <time>2016-09-22T13:50:13.000Z</time>
      </trkpt>
      <trkpt lat="48.67594" lon="2.02452">
        <ele>174.10200500488</ele>
        <time>2016-09-22T13:50:16.000Z</time>
      </trkpt>
      <trkpt lat="48.67596" lon="2.02453">
        <ele>174.01107788086</ele>
        <time>2016-09-22T13:50:18.000Z</time>
      </trkpt>
      <trkpt lat="48.67598" lon="2.02455">
        <ele>173.86701965332</ele>
        <time>2016-09-22T13:50:20.000Z</time>
      </trkpt>
      <trkpt lat="48.67604" lon="2.02457">
        <ele>173.69410705566</ele>
        <time>2016-09-22T13:50:23.000Z</time>
      </trkpt>
      <trkpt lat="48.67609" lon="2.02458">
        <ele>173.47982788086</ele>
        <time>2016-09-22T13:50:25.000Z</time>
      </trkpt>
      <trkpt lat="48.67613" lon="2.02459">
        <ele>173.25170898438</ele>
        <time>2016-09-22T13:50:27.000Z</time>
      </trkpt>
      <trkpt lat="48.67617" lon="2.02462">
        <ele>173.0022277832</ele>
        <time>2016-09-22T13:50:29.000Z</time>
      </trkpt>
      <trkpt lat="48.6762" lon="2.02465">
        <ele>172.72770690918</ele>
        <time>2016-09-22T13:50:32.000Z</time>
      </trkpt>
      <trkpt lat="48.67624" lon="2.02469">
        <ele>172.46362304688</ele>
        <time>2016-09-22T13:50:35.000Z</time>
      </trkpt>
      <trkpt lat="48.67626" lon="2.02471">
        <ele>172.22027587891</ele>
        <time>2016-09-22T13:50:37.000Z</time>
      </trkpt>
      <trkpt lat="48.67628" lon="2.02473">
        <ele>171.99996948242</ele>
        <time>2016-09-22T13:50:39.000Z</time>
      </trkpt>
      <trkpt lat="48.67634" lon="2.02477">
        <ele>171.73129272461</ele>
        <time>2016-09-22T13:50:42.000Z</time>
      </trkpt>
      <trkpt lat="48.6764" lon="2.02481">
        <ele>171.42419433594</ele>
        <time>2016-09-22T13:50:45.000Z</time>
      </trkpt>
      <trkpt lat="48.67642" lon="2.02483">
        <ele>171.11392211914</ele>
        <time>2016-09-22T13:50:47.000Z</time>
      </trkpt>
      <trkpt lat="48.67645" lon="2.02486">
        <ele>170.79899597168</ele>
        <time>2016-09-22T13:50:49.000Z</time>
      </trkpt>
      <trkpt lat="48.67648" lon="2.02489">
        <ele>170.45199584961</ele>
        <time>2016-09-22T13:50:51.000Z</time>
      </trkpt>
      <trkpt lat="48.67652" lon="2.02492">
        <ele>170.12265014648</ele>
        <time>2016-09-22T13:50:53.000Z</time>
      </trkpt>
      <trkpt lat="48.67653" lon="2.02495">
        <ele>169.8434753418</ele>
        <time>2016-09-22T13:50:56.000Z</time>
      </trkpt>
      <trkpt lat="48.67655" lon="2.02499">
        <ele>169.56558227539</ele>
        <time>2016-09-22T13:50:58.000Z</time>
      </trkpt>
      <trkpt lat="48.67661" lon="2.02502">
        <ele>169.1986541748</ele>
        <time>2016-09-22T13:51:01.000Z</time>
      </trkpt>
      <trkpt lat="48.67665" lon="2.02505">
        <ele>168.78791809082</ele>
        <time>2016-09-22T13:51:03.000Z</time>
      </trkpt>
      <trkpt lat="48.6767" lon="2.02509">
        <ele>168.38493347168</ele>
        <time>2016-09-22T13:51:06.000Z</time>
      </trkpt>
      <trkpt lat="48.67673" lon="2.02514">
        <ele>167.97085571289</ele>
        <time>2016-09-22T13:51:09.000Z</time>
      </trkpt>
      <trkpt lat="48.67674" lon="2.02515">
        <ele>167.58906555176</ele>
        <time>2016-09-22T13:51:11.000Z</time>
      </trkpt>
      <trkpt lat="48.67676" lon="2.02518">
        <ele>167.31071472168</ele>
        <time>2016-09-22T13:51:13.000Z</time>
      </trkpt>
      <trkpt lat="48.6768" lon="2.02521">
        <ele>167.08868408203</ele>
        <time>2016-09-22T13:51:16.000Z</time>
      </trkpt>
      <trkpt lat="48.67684" lon="2.02524">
        <ele>166.9009552002</ele>
        <time>2016-09-22T13:51:19.000Z</time>
      </trkpt>
      <trkpt lat="48.67687" lon="2.02526">
        <ele>166.73889160156</ele>
        <time>2016-09-22T13:51:21.000Z</time>
      </trkpt>
      <trkpt lat="48.67688" lon="2.02528">
        <ele>166.56307983398</ele>
        <time>2016-09-22T13:51:24.000Z</time>
      </trkpt>
      <trkpt lat="48.67689" lon="2.0253">
        <ele>166.38070678711</ele>
        <time>2016-09-22T13:51:26.000Z</time>
      </trkpt>
      <trkpt lat="48.67691" lon="2.02533">
        <ele>166.21487426758</ele>
        <time>2016-09-22T13:51:28.000Z</time>
      </trkpt>
      <trkpt lat="48.67693" lon="2.02535">
        <ele>166.04043579102</ele>
        <time>2016-09-22T13:51:31.000Z</time>
      </trkpt>
      <trkpt lat="48.67696" lon="2.02538">
        <ele>165.84754943848</ele>
        <time>2016-09-22T13:51:33.000Z</time>
      </trkpt>
      <trkpt lat="48.677" lon="2.0254">
        <ele>165.64437866211</ele>
        <time>2016-09-22T13:51:36.000Z</time>
      </trkpt>
      <trkpt lat="48.67704" lon="2.02543">
        <ele>165.42929077148</ele>
        <time>2016-09-22T13:51:39.000Z</time>
      </trkpt>
      <trkpt lat="48.67709" lon="2.02543">
        <ele>165.22244262695</ele>
        <time>2016-09-22T13:51:42.000Z</time>
      </trkpt>
      <trkpt lat="48.67711" lon="2.02544">
        <ele>165.04327392578</ele>
        <time>2016-09-22T13:51:44.000Z</time>
      </trkpt>
      <trkpt lat="48.67713" lon="2.02544">
        <ele>164.90267944336</ele>
        <time>2016-09-22T13:51:46.000Z</time>
      </trkpt>
      <trkpt lat="48.67715" lon="2.02543">
        <ele>164.81478881836</ele>
        <time>2016-09-22T13:51:48.000Z</time>
      </trkpt>
      <trkpt lat="48.67717" lon="2.02543">
        <ele>164.7744140625</ele>
        <time>2016-09-22T13:51:50.000Z</time>
      </trkpt>
      <trkpt lat="48.67719" lon="2.02544">
        <ele>164.73527526855</ele>
        <time>2016-09-22T13:51:53.000Z</time>
      </trkpt>
      <trkpt lat="48.67721" lon="2.02546">
        <ele>164.68099975586</ele>
        <time>2016-09-22T13:51:55.000Z</time>
      </trkpt>
      <trkpt lat="48.67727" lon="2.02546">
        <ele>164.60266113281</ele>
        <time>2016-09-22T13:51:58.000Z</time>
      </trkpt>
      <trkpt lat="48.6773" lon="2.02548">
        <ele>164.4709777832</ele>
        <time>2016-09-22T13:52:01.000Z</time>
      </trkpt>
      <trkpt lat="48.67731" lon="2.02549">
        <ele>164.32157897949</ele>
        <time>2016-09-22T13:52:03.000Z</time>
      </trkpt>
      <trkpt lat="48.67735" lon="2.02549">
        <ele>164.18127441406</ele>
        <time>2016-09-22T13:52:06.000Z</time>
      </trkpt>
      <trkpt lat="48.67739" lon="2.02549">
        <ele>164.05488586426</ele>
        <time>2016-09-22T13:52:08.000Z</time>
      </trkpt>
      <trkpt lat="48.67744" lon="2.0255">
        <ele>163.92889404297</ele>
        <time>2016-09-22T13:52:11.000Z</time>
      </trkpt>
      <trkpt lat="48.67747" lon="2.0255">
        <ele>163.8343963623</ele>
        <time>2016-09-22T13:52:13.000Z</time>
      </trkpt>
      <trkpt lat="48.67751" lon="2.02551">
        <ele>163.71885681152</ele>
        <time>2016-09-22T13:52:16.000Z</time>
      </trkpt>
      <trkpt lat="48.67754" lon="2.02551">
        <ele>163.61148071289</ele>
        <time>2016-09-22T13:52:18.000Z</time>
      </trkpt>
      <trkpt lat="48.67759" lon="2.02552">
        <ele>163.48693847656</ele>
        <time>2016-09-22T13:52:21.000Z</time>
      </trkpt>
      <trkpt lat="48.67763" lon="2.02553">
        <ele>163.33793640137</ele>
        <time>2016-09-22T13:52:24.000Z</time>
      </trkpt>
      <trkpt lat="48.67768" lon="2.02554">
        <ele>163.17245483398</ele>
        <time>2016-09-22T13:52:27.000Z</time>
      </trkpt>
      <trkpt lat="48.6777" lon="2.02553">
        <ele>163.03843688965</ele>
        <time>2016-09-22T13:52:29.000Z</time>
      </trkpt>
      <trkpt lat="48.67772" lon="2.02553">
        <ele>162.90383911133</ele>
        <time>2016-09-22T13:52:31.000Z</time>
      </trkpt>
      <trkpt lat="48.67775" lon="2.02554">
        <ele>162.76518249512</ele>
        <time>2016-09-22T13:52:34.000Z</time>
      </trkpt>
      <trkpt lat="48.67779" lon="2.02555">
        <ele>162.65888977051</ele>
        <time>2016-09-22T13:52:36.000Z</time>
      </trkpt>
      <trkpt lat="48.67785" lon="2.02554">
        <ele>162.55833435059</ele>
        <time>2016-09-22T13:52:39.000Z</time>
      </trkpt>
      <trkpt lat="48.67787" lon="2.02556">
        <ele>162.41934204102</ele>
        <time>2016-09-22T13:52:41.000Z</time>
      </trkpt>
      <trkpt lat="48.6779" lon="2.02559">
        <ele>162.19351196289</ele>
        <time>2016-09-22T13:52:44.000Z</time>
      </trkpt>
      <trkpt lat="48.67792" lon="2.02561">
        <ele>161.94789123535</ele>
        <time>2016-09-22T13:52:47.000Z</time>
      </trkpt>
      <trkpt lat="48.67794" lon="2.02563">
        <ele>161.67039489746</ele>
        <time>2016-09-22T13:52:49.000Z</time>
      </trkpt>
      <trkpt lat="48.67796" lon="2.02563">
        <ele>161.39254760742</ele>
        <time>2016-09-22T13:52:51.000Z</time>
      </trkpt>
      <trkpt lat="48.67801" lon="2.02564">
        <ele>161.10720825195</ele>
        <time>2016-09-22T13:52:54.000Z</time>
      </trkpt>
      <trkpt lat="48.67806" lon="2.02565">
        <ele>160.86581420898</ele>
        <time>2016-09-22T13:52:57.000Z</time>
      </trkpt>
      <trkpt lat="48.67808" lon="2.02565">
        <ele>160.66854858398</ele>
        <time>2016-09-22T13:52:59.000Z</time>
      </trkpt>
      <trkpt lat="48.67813" lon="2.02565">
        <ele>160.51091003418</ele>
        <time>2016-09-22T13:53:02.000Z</time>
      </trkpt>
      <trkpt lat="48.67816" lon="2.02564">
        <ele>160.3752746582</ele>
        <time>2016-09-22T13:53:04.000Z</time>
      </trkpt>
      <trkpt lat="48.67818" lon="2.02564">
        <ele>160.29164123535</ele>
        <time>2016-09-22T13:53:06.000Z</time>
      </trkpt>
      <trkpt lat="48.67822" lon="2.02562">
        <ele>160.27890014648</ele>
        <time>2016-09-22T13:53:09.000Z</time>
      </trkpt>
      <trkpt lat="48.67824" lon="2.02562">
        <ele>160.28622436523</ele>
        <time>2016-09-22T13:53:11.000Z</time>
      </trkpt>
      <trkpt lat="48.67827" lon="2.02561">
        <ele>160.30905151367</ele>
        <time>2016-09-22T13:53:13.000Z</time>
      </trkpt>
      <trkpt lat="48.6783" lon="2.0256">
        <ele>160.33662414551</ele>
        <time>2016-09-22T13:53:16.000Z</time>
      </trkpt>
      <trkpt lat="48.67831" lon="2.0256">
        <ele>160.36291503906</ele>
        <time>2016-09-22T13:53:18.000Z</time>
      </trkpt>
      <trkpt lat="48.67834" lon="2.02561">
        <ele>160.35176086426</ele>
        <time>2016-09-22T13:53:21.000Z</time>
      </trkpt>
      <trkpt lat="48.67837" lon="2.02561">
        <ele>160.32356262207</ele>
        <time>2016-09-22T13:53:23.000Z</time>
      </trkpt>
      <trkpt lat="48.67838" lon="2.02561">
        <ele>160.27621459961</ele>
        <time>2016-09-22T13:53:26.000Z</time>
      </trkpt>
      <trkpt lat="48.67843" lon="2.02564">
        <ele>160.16081237793</ele>
        <time>2016-09-22T13:53:29.000Z</time>
      </trkpt>
      <trkpt lat="48.67847" lon="2.02562">
        <ele>160.08126831055</ele>
        <time>2016-09-22T13:53:35.000Z</time>
      </trkpt>
      <trkpt lat="48.67849" lon="2.02562">
        <ele>160.02584838867</ele>
        <time>2016-09-22T13:53:37.000Z</time>
      </trkpt>
      <trkpt lat="48.67853" lon="2.02561">
        <ele>159.98391723633</ele>
        <time>2016-09-22T13:53:40.000Z</time>
      </trkpt>
      <trkpt lat="48.67856" lon="2.02563">
        <ele>159.9234161377</ele>
        <time>2016-09-22T13:53:42.000Z</time>
      </trkpt>
      <trkpt lat="48.67859" lon="2.02565">
        <ele>159.87167358398</ele>
        <time>2016-09-22T13:53:44.000Z</time>
      </trkpt>
      <trkpt lat="48.67862" lon="2.0257">
        <ele>159.69502258301</ele>
        <time>2016-09-22T13:53:47.000Z</time>
      </trkpt>
      <trkpt lat="48.67865" lon="2.02575">
        <ele>159.41445922852</ele>
        <time>2016-09-22T13:53:50.000Z</time>
      </trkpt>
      <trkpt lat="48.67867" lon="2.02579">
        <ele>159.0651550293</ele>
        <time>2016-09-22T13:53:52.000Z</time>
      </trkpt>
      <trkpt lat="48.67869" lon="2.02583">
        <ele>158.67112731934</ele>
        <time>2016-09-22T13:53:55.000Z</time>
      </trkpt>
      <trkpt lat="48.67872" lon="2.02587">
        <ele>158.34768676758</ele>
        <time>2016-09-22T13:53:58.000Z</time>
      </trkpt>
      <trkpt lat="48.67875" lon="2.02592">
        <ele>158.12832641602</ele>
        <time>2016-09-22T13:54:01.000Z</time>
      </trkpt>
      <trkpt lat="48.67878" lon="2.02597">
        <ele>158.02249145508</ele>
        <time>2016-09-22T13:54:04.000Z</time>
      </trkpt>
      <trkpt lat="48.6788" lon="2.026">
        <ele>157.99452209473</ele>
        <time>2016-09-22T13:54:06.000Z</time>
      </trkpt>
      <trkpt lat="48.67883" lon="2.02604">
        <ele>158.0625</ele>
        <time>2016-09-22T13:54:09.000Z</time>
      </trkpt>
      <trkpt lat="48.67885" lon="2.02607">
        <ele>158.126953125</ele>
        <time>2016-09-22T13:54:11.000Z</time>
      </trkpt>
      <trkpt lat="48.67887" lon="2.02611">
        <ele>158.1875</ele>
        <time>2016-09-22T13:54:14.000Z</time>
      </trkpt>
      <trkpt lat="48.67889" lon="2.02613">
        <ele>158.23828125</ele>
        <time>2016-09-22T13:54:16.000Z</time>
      </trkpt>
      <trkpt lat="48.67891" lon="2.02615">
        <ele>158.2890625</ele>
        <time>2016-09-22T13:54:18.000Z</time>
      </trkpt>
      <trkpt lat="48.67892" lon="2.02618">
        <ele>158.33203125</ele>
        <time>2016-09-22T13:54:20.000Z</time>
      </trkpt>
      <trkpt lat="48.67894" lon="2.02622">
        <ele>158.37109375</ele>
        <time>2016-09-22T13:54:23.000Z</time>
      </trkpt>
      <trkpt lat="48.67894" lon="2.02626">
        <ele>158.404296875</ele>
        <time>2016-09-22T13:54:26.000Z</time>
      </trkpt>
      <trkpt lat="48.67895" lon="2.02631">
        <ele>158.43359375</ele>
        <time>2016-09-22T13:54:29.000Z</time>
      </trkpt>
      <trkpt lat="48.67897" lon="2.02635">
        <ele>158.46484375</ele>
        <time>2016-09-22T13:54:32.000Z</time>
      </trkpt>
      <trkpt lat="48.67899" lon="2.02639">
        <ele>158.49609375</ele>
        <time>2016-09-22T13:54:35.000Z</time>
      </trkpt>
      <trkpt lat="48.67902" lon="2.02642">
        <ele>158.537109375</ele>
        <time>2016-09-22T13:54:38.000Z</time>
      </trkpt>
      <trkpt lat="48.67904" lon="2.02643">
        <ele>158.5859375</ele>
        <time>2016-09-22T13:54:40.000Z</time>
      </trkpt>
      <trkpt lat="48.67907" lon="2.02645">
        <ele>158.64453125</ele>
        <time>2016-09-22T13:54:43.000Z</time>
      </trkpt>
      <trkpt lat="48.67908" lon="2.02646">
        <ele>158.697265625</ele>
        <time>2016-09-22T13:54:45.000Z</time>
      </trkpt>
      <trkpt lat="48.67908" lon="2.02648">
        <ele>158.744140625</ele>
        <time>2016-09-22T13:54:47.000Z</time>
      </trkpt>
      <trkpt lat="48.6791" lon="2.02651">
        <ele>158.78515625</ele>
        <time>2016-09-22T13:54:50.000Z</time>
      </trkpt>
      <trkpt lat="48.67912" lon="2.02653">
        <ele>158.822265625</ele>
        <time>2016-09-22T13:54:53.000Z</time>
      </trkpt>
      <trkpt lat="48.67914" lon="2.02655">
        <ele>158.85546875</ele>
        <time>2016-09-22T13:54:56.000Z</time>
      </trkpt>
      <trkpt lat="48.67915" lon="2.02656">
        <ele>158.888671875</ele>
        <time>2016-09-22T13:54:58.000Z</time>
      </trkpt>
      <trkpt lat="48.67916" lon="2.02657">
        <ele>158.92578125</ele>
        <time>2016-09-22T13:55:00.000Z</time>
      </trkpt>
      <trkpt lat="48.67921" lon="2.02658">
        <ele>158.93943786621</ele>
        <time>2016-09-22T13:55:11.000Z</time>
      </trkpt>
      <trkpt lat="48.67922" lon="2.02659">
        <ele>158.93893432617</ele>
        <time>2016-09-22T13:55:21.000Z</time>
      </trkpt>
      <trkpt lat="48.67925" lon="2.0266">
        <ele>158.91792297363</ele>
        <time>2016-09-22T13:55:24.000Z</time>
      </trkpt>
      <trkpt lat="48.67926" lon="2.02661">
        <ele>158.88662719727</ele>
        <time>2016-09-22T13:55:27.000Z</time>
      </trkpt>
      <trkpt lat="48.6793" lon="2.02664">
        <ele>158.82752990723</ele>
        <time>2016-09-22T13:55:31.000Z</time>
      </trkpt>
      <trkpt lat="48.67935" lon="2.02663">
        <ele>158.76277160645</ele>
        <time>2016-09-22T13:55:39.000Z</time>
      </trkpt>
      <trkpt lat="48.67937" lon="2.02664">
        <ele>158.69357299805</ele>
        <time>2016-09-22T13:55:43.000Z</time>
      </trkpt>
      <trkpt lat="48.67941" lon="2.02668">
        <ele>158.62156677246</ele>
        <time>2016-09-22T13:55:46.000Z</time>
      </trkpt>
      <trkpt lat="48.67944" lon="2.02669">
        <ele>158.56440734863</ele>
        <time>2016-09-22T13:55:48.000Z</time>
      </trkpt>
      <trkpt lat="48.67945" lon="2.02671">
        <ele>158.53964233398</ele>
        <time>2016-09-22T13:55:50.000Z</time>
      </trkpt>
      <trkpt lat="48.67946" lon="2.02675">
        <ele>158.57525634766</ele>
        <time>2016-09-22T13:55:53.000Z</time>
      </trkpt>
      <trkpt lat="48.67948" lon="2.02678">
        <ele>158.65240478516</ele>
        <time>2016-09-22T13:55:55.000Z</time>
      </trkpt>
      <trkpt lat="48.67951" lon="2.02681">
        <ele>158.76150512695</ele>
        <time>2016-09-22T13:55:58.000Z</time>
      </trkpt>
      <trkpt lat="48.67953" lon="2.02682">
        <ele>158.86676025391</ele>
        <time>2016-09-22T13:56:00.000Z</time>
      </trkpt>
      <trkpt lat="48.67958" lon="2.02688">
        <ele>159.00369262695</ele>
        <time>2016-09-22T13:56:10.000Z</time>
      </trkpt>
      <trkpt lat="48.67963" lon="2.02692">
        <ele>159.13078308105</ele>
        <time>2016-09-22T13:56:22.000Z</time>
      </trkpt>
      <trkpt lat="48.67964" lon="2.02694">
        <ele>159.24267578125</ele>
        <time>2016-09-22T13:56:24.000Z</time>
      </trkpt>
      <trkpt lat="48.67967" lon="2.02698">
        <ele>159.37673950195</ele>
        <time>2016-09-22T13:56:26.000Z</time>
      </trkpt>
      <trkpt lat="48.6797" lon="2.02704">
        <ele>159.56185913086</ele>
        <time>2016-09-22T13:56:29.000Z</time>
      </trkpt>
      <trkpt lat="48.67972" lon="2.02707">
        <ele>159.72969055176</ele>
        <time>2016-09-22T13:56:31.000Z</time>
      </trkpt>
      <trkpt lat="48.67975" lon="2.0271">
        <ele>159.88427734375</ele>
        <time>2016-09-22T13:56:34.000Z</time>
      </trkpt>
      <trkpt lat="48.67981" lon="2.02714">
        <ele>160.04867553711</ele>
        <time>2016-09-22T13:56:37.000Z</time>
      </trkpt>
      <trkpt lat="48.67983" lon="2.02717">
        <ele>160.20095825195</ele>
        <time>2016-09-22T13:56:40.000Z</time>
      </trkpt>
      <trkpt lat="48.67983" lon="2.02719">
        <ele>160.31198120117</ele>
        <time>2016-09-22T13:56:42.000Z</time>
      </trkpt>
      <trkpt lat="48.67984" lon="2.02723">
        <ele>160.44274902344</ele>
        <time>2016-09-22T13:56:45.000Z</time>
      </trkpt>
      <trkpt lat="48.67984" lon="2.02726">
        <ele>160.595703125</ele>
        <time>2016-09-22T13:56:47.000Z</time>
      </trkpt>
      <trkpt lat="48.67985" lon="2.0273">
        <ele>160.76155090332</ele>
        <time>2016-09-22T13:56:50.000Z</time>
      </trkpt>
      <trkpt lat="48.67986" lon="2.02732">
        <ele>160.92971801758</ele>
        <time>2016-09-22T13:56:52.000Z</time>
      </trkpt>
      <trkpt lat="48.67986" lon="2.02736">
        <ele>161.13056945801</ele>
        <time>2016-09-22T13:56:55.000Z</time>
      </trkpt>
      <trkpt lat="48.67987" lon="2.0274">
        <ele>161.32238769531</ele>
        <time>2016-09-22T13:56:58.000Z</time>
      </trkpt>
      <trkpt lat="48.67987" lon="2.02743">
        <ele>161.50784301758</ele>
        <time>2016-09-22T13:57:00.000Z</time>
      </trkpt>
      <trkpt lat="48.67987" lon="2.02745">
        <ele>161.68969726562</ele>
        <time>2016-09-22T13:57:02.000Z</time>
      </trkpt>
      <trkpt lat="48.67987" lon="2.02748">
        <ele>161.87411499023</ele>
        <time>2016-09-22T13:57:05.000Z</time>
      </trkpt>
      <trkpt lat="48.67986" lon="2.02751">
        <ele>162.03225708008</ele>
        <time>2016-09-22T13:57:07.000Z</time>
      </trkpt>
      <trkpt lat="48.67985" lon="2.02755">
        <ele>162.14530944824</ele>
        <time>2016-09-22T13:57:10.000Z</time>
      </trkpt>
      <trkpt lat="48.67984" lon="2.02757">
        <ele>162.2204284668</ele>
        <time>2016-09-22T13:57:12.000Z</time>
      </trkpt>
      <trkpt lat="48.67984" lon="2.02762">
        <ele>162.24664306641</ele>
        <time>2016-09-22T13:57:15.000Z</time>
      </trkpt>
      <trkpt lat="48.67983" lon="2.02765">
        <ele>162.23550415039</ele>
        <time>2016-09-22T13:57:18.000Z</time>
      </trkpt>
      <trkpt lat="48.67982" lon="2.02768">
        <ele>162.1943359375</ele>
        <time>2016-09-22T13:57:21.000Z</time>
      </trkpt>
      <trkpt lat="48.67982" lon="2.02772">
        <ele>162.15263366699</ele>
        <time>2016-09-22T13:57:24.000Z</time>
      </trkpt>
      <trkpt lat="48.67981" lon="2.02778">
        <ele>162.1036529541</ele>
        <time>2016-09-22T13:57:27.000Z</time>
      </trkpt>
      <trkpt lat="48.6798" lon="2.02781">
        <ele>162.06857299805</ele>
        <time>2016-09-22T13:57:29.000Z</time>
      </trkpt>
      <trkpt lat="48.67979" lon="2.02783">
        <ele>162.03982543945</ele>
        <time>2016-09-22T13:57:31.000Z</time>
      </trkpt>
      <trkpt lat="48.67978" lon="2.02787">
        <ele>162.01847839355</ele>
        <time>2016-09-22T13:57:33.000Z</time>
      </trkpt>
      <trkpt lat="48.67976" lon="2.0279">
        <ele>162.01396179199</ele>
        <time>2016-09-22T13:57:36.000Z</time>
      </trkpt>
      <trkpt lat="48.67974" lon="2.02796">
        <ele>162.02346801758</ele>
        <time>2016-09-22T13:57:39.000Z</time>
      </trkpt>
      <trkpt lat="48.67975" lon="2.02801">
        <ele>162.01005554199</ele>
        <time>2016-09-22T13:57:42.000Z</time>
      </trkpt>
      <trkpt lat="48.67977" lon="2.02805">
        <ele>161.96504211426</ele>
        <time>2016-09-22T13:57:45.000Z</time>
      </trkpt>
      <trkpt lat="48.67976" lon="2.02809">
        <ele>161.91215515137</ele>
        <time>2016-09-22T13:57:47.000Z</time>
      </trkpt>
      <trkpt lat="48.67976" lon="2.02816">
        <ele>161.83755493164</ele>
        <time>2016-09-22T13:57:50.000Z</time>
      </trkpt>
      <trkpt lat="48.67976" lon="2.02825">
        <ele>161.74238586426</ele>
        <time>2016-09-22T13:57:53.000Z</time>
      </trkpt>
      <trkpt lat="48.67974" lon="2.0283">
        <ele>161.67587280273</ele>
        <time>2016-09-22T13:57:55.000Z</time>
      </trkpt>
      <trkpt lat="48.67973" lon="2.02836">
        <ele>161.66304016113</ele>
        <time>2016-09-22T13:57:58.000Z</time>
      </trkpt>
      <trkpt lat="48.67971" lon="2.02844">
        <ele>161.70190429688</ele>
        <time>2016-09-22T13:58:01.000Z</time>
      </trkpt>
      <trkpt lat="48.6797" lon="2.02851">
        <ele>161.79316711426</ele>
        <time>2016-09-22T13:58:04.000Z</time>
      </trkpt>
      <trkpt lat="48.6797" lon="2.02857">
        <ele>161.93684387207</ele>
        <time>2016-09-22T13:58:07.000Z</time>
      </trkpt>
      <trkpt lat="48.67969" lon="2.02864">
        <ele>162.10578918457</ele>
        <time>2016-09-22T13:58:10.000Z</time>
      </trkpt>
      <trkpt lat="48.67969" lon="2.02869">
        <ele>162.27333068848</ele>
        <time>2016-09-22T13:58:12.000Z</time>
      </trkpt>
      <trkpt lat="48.67969" lon="2.02874">
        <ele>162.41555786133</ele>
        <time>2016-09-22T13:58:14.000Z</time>
      </trkpt>
      <trkpt lat="48.67969" lon="2.02878">
        <ele>162.54162597656</ele>
        <time>2016-09-22T13:58:16.000Z</time>
      </trkpt>
      <trkpt lat="48.67969" lon="2.02883">
        <ele>162.64912414551</ele>
        <time>2016-09-22T13:58:19.000Z</time>
      </trkpt>
      <trkpt lat="48.67968" lon="2.02885">
        <ele>162.74078369141</ele>
        <time>2016-09-22T13:58:21.000Z</time>
      </trkpt>
      <trkpt lat="48.67967" lon="2.02892">
        <ele>162.85211181641</ele>
        <time>2016-09-22T13:58:24.000Z</time>
      </trkpt>
      <trkpt lat="48.67966" lon="2.02897">
        <ele>162.96932983398</ele>
        <time>2016-09-22T13:58:26.000Z</time>
      </trkpt>
      <trkpt lat="48.67966" lon="2.029">
        <ele>163.08731079102</ele>
        <time>2016-09-22T13:58:28.000Z</time>
      </trkpt>
      <trkpt lat="48.67965" lon="2.02906">
        <ele>163.21580505371</ele>
        <time>2016-09-22T13:58:31.000Z</time>
      </trkpt>
      <trkpt lat="48.67965" lon="2.0291">
        <ele>163.34524536133</ele>
        <time>2016-09-22T13:58:33.000Z</time>
      </trkpt>
      <trkpt lat="48.67965" lon="2.02914">
        <ele>163.44432067871</ele>
        <time>2016-09-22T13:58:35.000Z</time>
      </trkpt>
      <trkpt lat="48.67966" lon="2.02916">
        <ele>163.52456665039</ele>
        <time>2016-09-22T13:58:38.000Z</time>
      </trkpt>
      <trkpt lat="48.67966" lon="2.02916">
        <ele>163.52456665039</ele>
        <time>2016-09-22T13:58:58.000Z</time>
      </trkpt>
      <trkpt lat="48.67963" lon="2.02915">
        <ele>163.60482788086</ele>
        <time>2016-09-22T13:59:19.000Z</time>
      </trkpt>
      <trkpt lat="48.67962" lon="2.02912">
        <ele>163.65994262695</ele>
        <time>2016-09-22T13:59:22.000Z</time>
      </trkpt>
      <trkpt lat="48.67961" lon="2.0291">
        <ele>163.703125</ele>
        <time>2016-09-22T13:59:24.000Z</time>
      </trkpt>
      <trkpt lat="48.6796" lon="2.02909">
        <ele>163.73811340332</ele>
        <time>2016-09-22T13:59:26.000Z</time>
      </trkpt>
      <trkpt lat="48.6796" lon="2.02909">
        <ele>163.73811340332</ele>
        <time>2016-09-22T13:59:46.000Z</time>
      </trkpt>
      <trkpt lat="48.6796" lon="2.02911">
        <ele>163.77682495117</ele>
        <time>2016-09-22T14:00:11.000Z</time>
      </trkpt>
      <trkpt lat="48.67959" lon="2.02915">
        <ele>163.81047058105</ele>
        <time>2016-09-22T14:00:30.000Z</time>
      </trkpt>
      <trkpt lat="48.67959" lon="2.02915">
        <ele>163.81047058105</ele>
        <time>2016-09-22T14:00:50.000Z</time>
      </trkpt>
      <trkpt lat="48.67961" lon="2.02918">
        <ele>163.84045410156</ele>
        <time>2016-09-22T14:00:57.000Z</time>
      </trkpt>
      <trkpt lat="48.67964" lon="2.0292">
        <ele>163.84201049805</ele>
        <time>2016-09-22T14:00:59.000Z</time>
      </trkpt>
      <trkpt lat="48.6797" lon="2.02924">
        <ele>163.79911804199</ele>
        <time>2016-09-22T14:01:02.000Z</time>
      </trkpt>
      <trkpt lat="48.67973" lon="2.02929">
        <ele>163.73643493652</ele>
        <time>2016-09-22T14:01:05.000Z</time>
      </trkpt>
      <trkpt lat="48.67974" lon="2.02932">
        <ele>163.65475463867</ele>
        <time>2016-09-22T14:01:07.000Z</time>
      </trkpt>
      <trkpt lat="48.67975" lon="2.02935">
        <ele>163.57852172852</ele>
        <time>2016-09-22T14:01:09.000Z</time>
      </trkpt>
      <trkpt lat="48.67976" lon="2.02938">
        <ele>163.52835083008</ele>
        <time>2016-09-22T14:01:11.000Z</time>
      </trkpt>
      <trkpt lat="48.67978" lon="2.02939">
        <ele>163.50842285156</ele>
        <time>2016-09-22T14:01:14.000Z</time>
      </trkpt>
      <trkpt lat="48.67982" lon="2.0294">
        <ele>163.46643066406</ele>
        <time>2016-09-22T14:01:20.000Z</time>
      </trkpt>
      <trkpt lat="48.67984" lon="2.0294">
        <ele>163.4084777832</ele>
        <time>2016-09-22T14:01:22.000Z</time>
      </trkpt>
      <trkpt lat="48.67988" lon="2.02941">
        <ele>163.31925964355</ele>
        <time>2016-09-22T14:01:25.000Z</time>
      </trkpt>
      <trkpt lat="48.67991" lon="2.02941">
        <ele>163.20303344727</ele>
        <time>2016-09-22T14:01:28.000Z</time>
      </trkpt>
      <trkpt lat="48.67995" lon="2.02942">
        <ele>163.07119750977</ele>
        <time>2016-09-22T14:01:31.000Z</time>
      </trkpt>
      <trkpt lat="48.67999" lon="2.02944">
        <ele>162.95143127441</ele>
        <time>2016-09-22T14:01:34.000Z</time>
      </trkpt>
      <trkpt lat="48.68002" lon="2.02945">
        <ele>162.85287475586</ele>
        <time>2016-09-22T14:01:37.000Z</time>
      </trkpt>
      <trkpt lat="48.68005" lon="2.02947">
        <ele>162.81365966797</ele>
        <time>2016-09-22T14:01:40.000Z</time>
      </trkpt>
      <trkpt lat="48.68008" lon="2.02949">
        <ele>162.83108520508</ele>
        <time>2016-09-22T14:01:43.000Z</time>
      </trkpt>
      <trkpt lat="48.68011" lon="2.02952">
        <ele>162.9016418457</ele>
        <time>2016-09-22T14:01:46.000Z</time>
      </trkpt>
      <trkpt lat="48.68015" lon="2.02954">
        <ele>163.02160644531</ele>
        <time>2016-09-22T14:01:49.000Z</time>
      </trkpt>
      <trkpt lat="48.68018" lon="2.02955">
        <ele>163.17092895508</ele>
        <time>2016-09-22T14:01:52.000Z</time>
      </trkpt>
      <trkpt lat="48.68022" lon="2.02957">
        <ele>163.32202148438</ele>
        <time>2016-09-22T14:01:55.000Z</time>
      </trkpt>
      <trkpt lat="48.68024" lon="2.02959">
        <ele>163.46211242676</ele>
        <time>2016-09-22T14:01:57.000Z</time>
      </trkpt>
      <trkpt lat="48.68026" lon="2.02961">
        <ele>163.5982208252</ele>
        <time>2016-09-22T14:01:59.000Z</time>
      </trkpt>
      <trkpt lat="48.68028" lon="2.02964">
        <ele>163.73442077637</ele>
        <time>2016-09-22T14:02:02.000Z</time>
      </trkpt>
      <trkpt lat="48.6803" lon="2.02966">
        <ele>163.86236572266</ele>
        <time>2016-09-22T14:02:04.000Z</time>
      </trkpt>
      <trkpt lat="48.68033" lon="2.02969">
        <ele>163.99662780762</ele>
        <time>2016-09-22T14:02:07.000Z</time>
      </trkpt>
      <trkpt lat="48.68035" lon="2.02975">
        <ele>164.15644836426</ele>
        <time>2016-09-22T14:02:10.000Z</time>
      </trkpt>
      <trkpt lat="48.68035" lon="2.02978">
        <ele>164.31274414062</ele>
        <time>2016-09-22T14:02:12.000Z</time>
      </trkpt>
      <trkpt lat="48.68034" lon="2.02981">
        <ele>164.45077514648</ele>
        <time>2016-09-22T14:02:14.000Z</time>
      </trkpt>
      <trkpt lat="48.68036" lon="2.02985">
        <ele>164.5989074707</ele>
        <time>2016-09-22T14:02:17.000Z</time>
      </trkpt>
      <trkpt lat="48.68037" lon="2.02988">
        <ele>164.73519897461</ele>
        <time>2016-09-22T14:02:20.000Z</time>
      </trkpt>
      <trkpt lat="48.68039" lon="2.02995">
        <ele>164.87911987305</ele>
        <time>2016-09-22T14:02:23.000Z</time>
      </trkpt>
      <trkpt lat="48.68042" lon="2.02995">
        <ele>165.0315246582</ele>
        <time>2016-09-22T14:02:26.000Z</time>
      </trkpt>
      <trkpt lat="48.68044" lon="2.02997">
        <ele>165.18962097168</ele>
        <time>2016-09-22T14:02:28.000Z</time>
      </trkpt>
      <trkpt lat="48.68044" lon="2.03">
        <ele>165.33200073242</ele>
        <time>2016-09-22T14:02:31.000Z</time>
      </trkpt>
      <trkpt lat="48.68044" lon="2.03001">
        <ele>165.45388793945</ele>
        <time>2016-09-22T14:02:33.000Z</time>
      </trkpt>
      <trkpt lat="48.68047" lon="2.03003">
        <ele>165.54251098633</ele>
        <time>2016-09-22T14:02:35.000Z</time>
      </trkpt>
      <trkpt lat="48.6805" lon="2.03003">
        <ele>165.62690734863</ele>
        <time>2016-09-22T14:02:37.000Z</time>
      </trkpt>
      <trkpt lat="48.68052" lon="2.03002">
        <ele>165.7054901123</ele>
        <time>2016-09-22T14:02:40.000Z</time>
      </trkpt>
      <trkpt lat="48.68051" lon="2.03007">
        <ele>165.7691192627</ele>
        <time>2016-09-22T14:02:54.000Z</time>
      </trkpt>
      <trkpt lat="48.68049" lon="2.03012">
        <ele>165.82122802734</ele>
        <time>2016-09-22T14:02:57.000Z</time>
      </trkpt>
      <trkpt lat="48.68046" lon="2.03014">
        <ele>165.83923339844</ele>
        <time>2016-09-22T14:02:59.000Z</time>
      </trkpt>
      <trkpt lat="48.68044" lon="2.03015">
        <ele>165.82563781738</ele>
        <time>2016-09-22T14:03:01.000Z</time>
      </trkpt>
      <trkpt lat="48.68043" lon="2.03017">
        <ele>165.79943847656</ele>
        <time>2016-09-22T14:03:04.000Z</time>
      </trkpt>
      <trkpt lat="48.68042" lon="2.03019">
        <ele>165.77069091797</ele>
        <time>2016-09-22T14:03:06.000Z</time>
      </trkpt>
      <trkpt lat="48.68041" lon="2.03023">
        <ele>165.75105285645</ele>
        <time>2016-09-22T14:03:09.000Z</time>
      </trkpt>
      <trkpt lat="48.6804" lon="2.03025">
        <ele>165.7492980957</ele>
        <time>2016-09-22T14:03:11.000Z</time>
      </trkpt>
      <trkpt lat="48.6804" lon="2.03029">
        <ele>165.76498413086</ele>
        <time>2016-09-22T14:03:14.000Z</time>
      </trkpt>
      <trkpt lat="48.6804" lon="2.03032">
        <ele>165.78927612305</ele>
        <time>2016-09-22T14:03:16.000Z</time>
      </trkpt>
      <trkpt lat="48.6804" lon="2.03037">
        <ele>165.82479858398</ele>
        <time>2016-09-22T14:03:19.000Z</time>
      </trkpt>
      <trkpt lat="48.6804" lon="2.0304">
        <ele>165.86569213867</ele>
        <time>2016-09-22T14:03:21.000Z</time>
      </trkpt>
      <trkpt lat="48.6804" lon="2.03045">
        <ele>165.91513061523</ele>
        <time>2016-09-22T14:03:24.000Z</time>
      </trkpt>
      <trkpt lat="48.6804" lon="2.03049">
        <ele>165.96658325195</ele>
        <time>2016-09-22T14:03:26.000Z</time>
      </trkpt>
      <trkpt lat="48.6804" lon="2.03053">
        <ele>166.02131652832</ele>
        <time>2016-09-22T14:03:28.000Z</time>
      </trkpt>
      <trkpt lat="48.68038" lon="2.03058">
        <ele>166.07498168945</ele>
        <time>2016-09-22T14:03:31.000Z</time>
      </trkpt>
      <trkpt lat="48.68037" lon="2.03061">
        <ele>166.12930297852</ele>
        <time>2016-09-22T14:03:34.000Z</time>
      </trkpt>
      <trkpt lat="48.68037" lon="2.03067">
        <ele>166.18725585938</ele>
        <time>2016-09-22T14:03:37.000Z</time>
      </trkpt>
      <trkpt lat="48.68037" lon="2.03071">
        <ele>166.24678039551</ele>
        <time>2016-09-22T14:03:39.000Z</time>
      </trkpt>
      <trkpt lat="48.68036" lon="2.03077">
        <ele>166.31555175781</ele>
        <time>2016-09-22T14:03:42.000Z</time>
      </trkpt>
      <trkpt lat="48.68035" lon="2.0308">
        <ele>166.38569641113</ele>
        <time>2016-09-22T14:03:44.000Z</time>
      </trkpt>
      <trkpt lat="48.68034" lon="2.03086">
        <ele>166.46011352539</ele>
        <time>2016-09-22T14:03:47.000Z</time>
      </trkpt>
      <trkpt lat="48.68035" lon="2.03092">
        <ele>166.52206420898</ele>
        <time>2016-09-22T14:03:50.000Z</time>
      </trkpt>
      <trkpt lat="48.68034" lon="2.03097">
        <ele>166.57844543457</ele>
        <time>2016-09-22T14:03:53.000Z</time>
      </trkpt>
      <trkpt lat="48.68034" lon="2.031">
        <ele>166.61943054199</ele>
        <time>2016-09-22T14:03:55.000Z</time>
      </trkpt>
      <trkpt lat="48.68034" lon="2.03103">
        <ele>166.65127563477</ele>
        <time>2016-09-22T14:03:57.000Z</time>
      </trkpt>
      <trkpt lat="48.68034" lon="2.03107">
        <ele>166.67265319824</ele>
        <time>2016-09-22T14:04:00.000Z</time>
      </trkpt>
      <trkpt lat="48.68033" lon="2.03111">
        <ele>166.69482421875</ele>
        <time>2016-09-22T14:04:02.000Z</time>
      </trkpt>
      <trkpt lat="48.68033" lon="2.03115">
        <ele>166.71493530273</ele>
        <time>2016-09-22T14:04:04.000Z</time>
      </trkpt>
      <trkpt lat="48.68032" lon="2.03121">
        <ele>166.73806762695</ele>
        <time>2016-09-22T14:04:07.000Z</time>
      </trkpt>
      <trkpt lat="48.68031" lon="2.03125">
        <ele>166.76200866699</ele>
        <time>2016-09-22T14:04:09.000Z</time>
      </trkpt>
      <trkpt lat="48.68029" lon="2.03133">
        <ele>166.79084777832</ele>
        <time>2016-09-22T14:04:12.000Z</time>
      </trkpt>
      <trkpt lat="48.68028" lon="2.03137">
        <ele>166.81958007812</ele>
        <time>2016-09-22T14:04:14.000Z</time>
      </trkpt>
      <trkpt lat="48.68027" lon="2.03143">
        <ele>166.85006713867</ele>
        <time>2016-09-22T14:04:17.000Z</time>
      </trkpt>
      <trkpt lat="48.68027" lon="2.03149">
        <ele>166.8782043457</ele>
        <time>2016-09-22T14:04:20.000Z</time>
      </trkpt>
      <trkpt lat="48.68025" lon="2.03155">
        <ele>166.90676879883</ele>
        <time>2016-09-22T14:04:24.000Z</time>
      </trkpt>
      <trkpt lat="48.68025" lon="2.03158">
        <ele>166.92874145508</ele>
        <time>2016-09-22T14:04:26.000Z</time>
      </trkpt>
      <trkpt lat="48.68025" lon="2.03162">
        <ele>166.94931030273</ele>
        <time>2016-09-22T14:04:28.000Z</time>
      </trkpt>
      <trkpt lat="48.68025" lon="2.03168">
        <ele>166.97579956055</ele>
        <time>2016-09-22T14:04:31.000Z</time>
      </trkpt>
      <trkpt lat="48.68024" lon="2.03175">
        <ele>167.02792358398</ele>
        <time>2016-09-22T14:04:34.000Z</time>
      </trkpt>
      <trkpt lat="48.68024" lon="2.03178">
        <ele>167.09230041504</ele>
        <time>2016-09-22T14:04:36.000Z</time>
      </trkpt>
      <trkpt lat="48.68024" lon="2.03182">
        <ele>167.17079162598</ele>
        <time>2016-09-22T14:04:38.000Z</time>
      </trkpt>
      <trkpt lat="48.68023" lon="2.03187">
        <ele>167.27233886719</ele>
        <time>2016-09-22T14:04:41.000Z</time>
      </trkpt>
      <trkpt lat="48.68023" lon="2.03191">
        <ele>167.37854003906</ele>
        <time>2016-09-22T14:04:43.000Z</time>
      </trkpt>
      <trkpt lat="48.68021" lon="2.03194">
        <ele>167.47302246094</ele>
        <time>2016-09-22T14:04:45.000Z</time>
      </trkpt>
      <trkpt lat="48.6802" lon="2.032">
        <ele>167.57806396484</ele>
        <time>2016-09-22T14:04:48.000Z</time>
      </trkpt>
      <trkpt lat="48.68018" lon="2.03204">
        <ele>167.68505859375</ele>
        <time>2016-09-22T14:04:50.000Z</time>
      </trkpt>
      <trkpt lat="48.68018" lon="2.03207">
        <ele>167.78112792969</ele>
        <time>2016-09-22T14:04:52.000Z</time>
      </trkpt>
      <trkpt lat="48.68017" lon="2.03212">
        <ele>167.88427734375</ele>
        <time>2016-09-22T14:04:55.000Z</time>
      </trkpt>
      <trkpt lat="48.68016" lon="2.03218">
        <ele>167.99975585938</ele>
        <time>2016-09-22T14:04:58.000Z</time>
      </trkpt>
      <trkpt lat="48.68016" lon="2.03222">
        <ele>168.10479736328</ele>
        <time>2016-09-22T14:05:00.000Z</time>
      </trkpt>
      <trkpt lat="48.68016" lon="2.03225">
        <ele>168.20788574219</ele>
        <time>2016-09-22T14:05:02.000Z</time>
      </trkpt>
      <trkpt lat="48.68015" lon="2.03232">
        <ele>168.32525634766</ele>
        <time>2016-09-22T14:05:05.000Z</time>
      </trkpt>
      <trkpt lat="48.68013" lon="2.03237">
        <ele>168.44561767578</ele>
        <time>2016-09-22T14:05:08.000Z</time>
      </trkpt>
      <trkpt lat="48.68013" lon="2.03241">
        <ele>168.55584716797</ele>
        <time>2016-09-22T14:05:10.000Z</time>
      </trkpt>
      <trkpt lat="48.68012" lon="2.03247">
        <ele>168.67669677734</ele>
        <time>2016-09-22T14:05:13.000Z</time>
      </trkpt>
      <trkpt lat="48.6801" lon="2.03253">
        <ele>168.79537963867</ele>
        <time>2016-09-22T14:05:16.000Z</time>
      </trkpt>
      <trkpt lat="48.68009" lon="2.03258">
        <ele>168.8861541748</ele>
        <time>2016-09-22T14:05:19.000Z</time>
      </trkpt>
      <trkpt lat="48.68009" lon="2.03262">
        <ele>168.95126342773</ele>
        <time>2016-09-22T14:05:21.000Z</time>
      </trkpt>
      <trkpt lat="48.68008" lon="2.03268">
        <ele>168.9967956543</ele>
        <time>2016-09-22T14:05:24.000Z</time>
      </trkpt>
      <trkpt lat="48.68007" lon="2.03272">
        <ele>169.01507568359</ele>
        <time>2016-09-22T14:05:26.000Z</time>
      </trkpt>
      <trkpt lat="48.68007" lon="2.03277">
        <ele>169.01954650879</ele>
        <time>2016-09-22T14:05:28.000Z</time>
      </trkpt>
      <trkpt lat="48.68006" lon="2.03284">
        <ele>169.02334594727</ele>
        <time>2016-09-22T14:05:31.000Z</time>
      </trkpt>
      <trkpt lat="48.68005" lon="2.03288">
        <ele>169.02615356445</ele>
        <time>2016-09-22T14:05:33.000Z</time>
      </trkpt>
      <trkpt lat="48.68006" lon="2.03292">
        <ele>169.0290222168</ele>
        <time>2016-09-22T14:05:36.000Z</time>
      </trkpt>
      <trkpt lat="48.68006" lon="2.03293">
        <ele>169.03196716309</ele>
        <time>2016-09-22T14:05:38.000Z</time>
      </trkpt>
      <trkpt lat="48.68007" lon="2.03298">
        <ele>169.03616333008</ele>
        <time>2016-09-22T14:05:41.000Z</time>
      </trkpt>
      <trkpt lat="48.68007" lon="2.03301">
        <ele>169.0399017334</ele>
        <time>2016-09-22T14:05:43.000Z</time>
      </trkpt>
      <trkpt lat="48.68006" lon="2.03305">
        <ele>169.04386901855</ele>
        <time>2016-09-22T14:05:45.000Z</time>
      </trkpt>
      <trkpt lat="48.68005" lon="2.03312">
        <ele>169.04568481445</ele>
        <time>2016-09-22T14:05:48.000Z</time>
      </trkpt>
      <trkpt lat="48.68003" lon="2.03319">
        <ele>169.04382324219</ele>
        <time>2016-09-22T14:05:51.000Z</time>
      </trkpt>
      <trkpt lat="48.68002" lon="2.03325">
        <ele>169.0387878418</ele>
        <time>2016-09-22T14:05:54.000Z</time>
      </trkpt>
      <trkpt lat="48.68001" lon="2.0333">
        <ele>169.03205871582</ele>
        <time>2016-09-22T14:05:57.000Z</time>
      </trkpt>
      <trkpt lat="48.68001" lon="2.03334">
        <ele>169.02536010742</ele>
        <time>2016-09-22T14:06:00.000Z</time>
      </trkpt>
      <trkpt lat="48.68002" lon="2.03337">
        <ele>169.02066040039</ele>
        <time>2016-09-22T14:06:02.000Z</time>
      </trkpt>
      <trkpt lat="48.68002" lon="2.03341">
        <ele>169.01986694336</ele>
        <time>2016-09-22T14:06:04.000Z</time>
      </trkpt>
      <trkpt lat="48.68003" lon="2.03347">
        <ele>169.02136230469</ele>
        <time>2016-09-22T14:06:07.000Z</time>
      </trkpt>
      <trkpt lat="48.68003" lon="2.0335">
        <ele>169.025390625</ele>
        <time>2016-09-22T14:06:09.000Z</time>
      </trkpt>
      <trkpt lat="48.68003" lon="2.03356">
        <ele>169.029296875</ele>
        <time>2016-09-22T14:06:12.000Z</time>
      </trkpt>
      <trkpt lat="48.68003" lon="2.03361">
        <ele>169.033203125</ele>
        <time>2016-09-22T14:06:15.000Z</time>
      </trkpt>
      <trkpt lat="48.68003" lon="2.03366">
        <ele>169.03515625</ele>
        <time>2016-09-22T14:06:18.000Z</time>
      </trkpt>
      <trkpt lat="48.68003" lon="2.03369">
        <ele>169.03515625</ele>
        <time>2016-09-22T14:06:20.000Z</time>
      </trkpt>
      <trkpt lat="48.68002" lon="2.03372">
        <ele>169.033203125</ele>
        <time>2016-09-22T14:06:22.000Z</time>
      </trkpt>
      <trkpt lat="48.68002" lon="2.03378">
        <ele>169.03125</ele>
        <time>2016-09-22T14:06:25.000Z</time>
      </trkpt>
      <trkpt lat="48.68002" lon="2.03381">
        <ele>169.0283203125</ele>
        <time>2016-09-22T14:06:27.000Z</time>
      </trkpt>
      <trkpt lat="48.68003" lon="2.03386">
        <ele>169.02734375</ele>
        <time>2016-09-22T14:06:30.000Z</time>
      </trkpt>
      <trkpt lat="48.68003" lon="2.0339">
        <ele>169.02734375</ele>
        <time>2016-09-22T14:06:32.000Z</time>
      </trkpt>
      <trkpt lat="48.68003" lon="2.03394">
        <ele>169.0283203125</ele>
        <time>2016-09-22T14:06:34.000Z</time>
      </trkpt>
      <trkpt lat="48.68003" lon="2.03399">
        <ele>169.0302734375</ele>
        <time>2016-09-22T14:06:37.000Z</time>
      </trkpt>
      <trkpt lat="48.68003" lon="2.03403">
        <ele>169.0322265625</ele>
        <time>2016-09-22T14:06:39.000Z</time>
      </trkpt>
      <trkpt lat="48.68003" lon="2.03407">
        <ele>169.033203125</ele>
        <time>2016-09-22T14:06:41.000Z</time>
      </trkpt>
      <trkpt lat="48.68003" lon="2.03413">
        <ele>169.03515625</ele>
        <time>2016-09-22T14:06:44.000Z</time>
      </trkpt>
      <trkpt lat="48.68003" lon="2.03418">
        <ele>169.03726196289</ele>
        <time>2016-09-22T14:06:47.000Z</time>
      </trkpt>
      <trkpt lat="48.68003" lon="2.03422">
        <ele>169.03877258301</ele>
        <time>2016-09-22T14:06:49.000Z</time>
      </trkpt>
      <trkpt lat="48.68004" lon="2.03429">
        <ele>169.04202270508</ele>
        <time>2016-09-22T14:06:52.000Z</time>
      </trkpt>
      <trkpt lat="48.68004" lon="2.03435">
        <ele>169.04708862305</ele>
        <time>2016-09-22T14:06:55.000Z</time>
      </trkpt>
      <trkpt lat="48.68004" lon="2.03439">
        <ele>169.05168151855</ele>
        <time>2016-09-22T14:06:57.000Z</time>
      </trkpt>
      <trkpt lat="48.68005" lon="2.03445">
        <ele>169.05812072754</ele>
        <time>2016-09-22T14:07:00.000Z</time>
      </trkpt>
      <trkpt lat="48.68005" lon="2.03449">
        <ele>169.06605529785</ele>
        <time>2016-09-22T14:07:02.000Z</time>
      </trkpt>
      <trkpt lat="48.68005" lon="2.03455">
        <ele>169.07458496094</ele>
        <time>2016-09-22T14:07:05.000Z</time>
      </trkpt>
      <trkpt lat="48.68005" lon="2.03461">
        <ele>169.08227539062</ele>
        <time>2016-09-22T14:07:08.000Z</time>
      </trkpt>
      <trkpt lat="48.68005" lon="2.03465">
        <ele>169.08854675293</ele>
        <time>2016-09-22T14:07:10.000Z</time>
      </trkpt>
      <trkpt lat="48.68005" lon="2.03471">
        <ele>169.09524536133</ele>
        <time>2016-09-22T14:07:13.000Z</time>
      </trkpt>
      <trkpt lat="48.68006" lon="2.03476">
        <ele>169.10250854492</ele>
        <time>2016-09-22T14:07:16.000Z</time>
      </trkpt>
      <trkpt lat="48.68007" lon="2.03481">
        <ele>169.11349487305</ele>
        <time>2016-09-22T14:07:19.000Z</time>
      </trkpt>
      <trkpt lat="48.68007" lon="2.03485">
        <ele>169.12603759766</ele>
        <time>2016-09-22T14:07:21.000Z</time>
      </trkpt>
      <trkpt lat="48.68008" lon="2.03491">
        <ele>169.14453125</ele>
        <time>2016-09-22T14:07:24.000Z</time>
      </trkpt>
      <trkpt lat="48.68008" lon="2.03495">
        <ele>169.16348266602</ele>
        <time>2016-09-22T14:07:26.000Z</time>
      </trkpt>
      <trkpt lat="48.68008" lon="2.03499">
        <ele>169.17904663086</ele>
        <time>2016-09-22T14:07:28.000Z</time>
      </trkpt>
      <trkpt lat="48.68008" lon="2.03506">
        <ele>169.21662902832</ele>
        <time>2016-09-22T14:07:31.000Z</time>
      </trkpt>
      <trkpt lat="48.68008" lon="2.0351">
        <ele>169.27116394043</ele>
        <time>2016-09-22T14:07:33.000Z</time>
      </trkpt>
      <trkpt lat="48.68008" lon="2.03517">
        <ele>169.35403442383</ele>
        <time>2016-09-22T14:07:36.000Z</time>
      </trkpt>
      <trkpt lat="48.68008" lon="2.03524">
        <ele>169.4633026123</ele>
        <time>2016-09-22T14:07:39.000Z</time>
      </trkpt>
      <trkpt lat="48.68009" lon="2.03528">
        <ele>169.59219360352</ele>
        <time>2016-09-22T14:07:41.000Z</time>
      </trkpt>
      <trkpt lat="48.6801" lon="2.03534">
        <ele>169.72346496582</ele>
        <time>2016-09-22T14:07:44.000Z</time>
      </trkpt>
      <trkpt lat="48.6801" lon="2.03541">
        <ele>169.86860656738</ele>
        <time>2016-09-22T14:07:47.000Z</time>
      </trkpt>
      <trkpt lat="48.6801" lon="2.03544">
        <ele>169.99732971191</ele>
        <time>2016-09-22T14:07:49.000Z</time>
      </trkpt>
      <trkpt lat="48.68011" lon="2.03548">
        <ele>170.11636352539</ele>
        <time>2016-09-22T14:07:51.000Z</time>
      </trkpt>
      <trkpt lat="48.68011" lon="2.03553">
        <ele>170.23701477051</ele>
        <time>2016-09-22T14:07:53.000Z</time>
      </trkpt>
      <trkpt lat="48.68012" lon="2.0356">
        <ele>170.36250305176</ele>
        <time>2016-09-22T14:07:56.000Z</time>
      </trkpt>
      <trkpt lat="48.68013" lon="2.03566">
        <ele>170.48638916016</ele>
        <time>2016-09-22T14:07:59.000Z</time>
      </trkpt>
      <trkpt lat="48.68013" lon="2.0357">
        <ele>170.60908508301</ele>
        <time>2016-09-22T14:08:01.000Z</time>
      </trkpt>
      <trkpt lat="48.68014" lon="2.03573">
        <ele>170.72998046875</ele>
        <time>2016-09-22T14:08:03.000Z</time>
      </trkpt>
      <trkpt lat="48.68014" lon="2.03579">
        <ele>170.85565185547</ele>
        <time>2016-09-22T14:08:06.000Z</time>
      </trkpt>
      <trkpt lat="48.68015" lon="2.03583">
        <ele>170.96580505371</ele>
        <time>2016-09-22T14:08:09.000Z</time>
      </trkpt>
      <trkpt lat="48.68015" lon="2.0359">
        <ele>171.01872253418</ele>
        <time>2016-09-22T14:08:12.000Z</time>
      </trkpt>
      <trkpt lat="48.68016" lon="2.03597">
        <ele>171.02688598633</ele>
        <time>2016-09-22T14:08:15.000Z</time>
      </trkpt>
      <trkpt lat="48.68016" lon="2.03603">
        <ele>170.99142456055</ele>
        <time>2016-09-22T14:08:18.000Z</time>
      </trkpt>
      <trkpt lat="48.68017" lon="2.03607">
        <ele>170.91589355469</ele>
        <time>2016-09-22T14:08:20.000Z</time>
      </trkpt>
      <trkpt lat="48.68019" lon="2.03614">
        <ele>170.80082702637</ele>
        <time>2016-09-22T14:08:23.000Z</time>
      </trkpt>
      <trkpt lat="48.68019" lon="2.03617">
        <ele>170.6949005127</ele>
        <time>2016-09-22T14:08:25.000Z</time>
      </trkpt>
      <trkpt lat="48.68018" lon="2.03621">
        <ele>170.5989074707</ele>
        <time>2016-09-22T14:08:28.000Z</time>
      </trkpt>
      <trkpt lat="48.68018" lon="2.03625">
        <ele>170.50827026367</ele>
        <time>2016-09-22T14:08:31.000Z</time>
      </trkpt>
      <trkpt lat="48.68018" lon="2.0363">
        <ele>170.41304016113</ele>
        <time>2016-09-22T14:08:34.000Z</time>
      </trkpt>
      <trkpt lat="48.68017" lon="2.03635">
        <ele>170.31463623047</ele>
        <time>2016-09-22T14:08:37.000Z</time>
      </trkpt>
      <trkpt lat="48.68016" lon="2.0364">
        <ele>170.20523071289</ele>
        <time>2016-09-22T14:08:40.000Z</time>
      </trkpt>
      <trkpt lat="48.68016" lon="2.03646">
        <ele>170.08781433105</ele>
        <time>2016-09-22T14:08:43.000Z</time>
      </trkpt>
      <trkpt lat="48.68017" lon="2.03652">
        <ele>169.96952819824</ele>
        <time>2016-09-22T14:08:46.000Z</time>
      </trkpt>
      <trkpt lat="48.68018" lon="2.03656">
        <ele>169.85775756836</ele>
        <time>2016-09-22T14:08:48.000Z</time>
      </trkpt>
      <trkpt lat="48.6802" lon="2.03662">
        <ele>169.75434875488</ele>
        <time>2016-09-22T14:08:51.000Z</time>
      </trkpt>
      <trkpt lat="48.68021" lon="2.03666">
        <ele>169.6653137207</ele>
        <time>2016-09-22T14:08:54.000Z</time>
      </trkpt>
      <trkpt lat="48.68021" lon="2.03671">
        <ele>169.60949707031</ele>
        <time>2016-09-22T14:08:57.000Z</time>
      </trkpt>
      <trkpt lat="48.68022" lon="2.03677">
        <ele>169.5887298584</ele>
        <time>2016-09-22T14:09:00.000Z</time>
      </trkpt>
      <trkpt lat="48.68022" lon="2.03683">
        <ele>169.58955383301</ele>
        <time>2016-09-22T14:09:03.000Z</time>
      </trkpt>
      <trkpt lat="48.68021" lon="2.03689">
        <ele>169.61392211914</ele>
        <time>2016-09-22T14:09:06.000Z</time>
      </trkpt>
      <trkpt lat="48.68021" lon="2.03693">
        <ele>169.65811157227</ele>
        <time>2016-09-22T14:09:08.000Z</time>
      </trkpt>
      <trkpt lat="48.68022" lon="2.03697">
        <ele>169.70523071289</ele>
        <time>2016-09-22T14:09:10.000Z</time>
      </trkpt>
      <trkpt lat="48.68023" lon="2.03701">
        <ele>169.74819946289</ele>
        <time>2016-09-22T14:09:12.000Z</time>
      </trkpt>
      <trkpt lat="48.68023" lon="2.03705">
        <ele>169.78970336914</ele>
        <time>2016-09-22T14:09:14.000Z</time>
      </trkpt>
      <trkpt lat="48.68023" lon="2.03708">
        <ele>169.82894897461</ele>
        <time>2016-09-22T14:09:16.000Z</time>
      </trkpt>
      <trkpt lat="48.68022" lon="2.03714">
        <ele>169.86979675293</ele>
        <time>2016-09-22T14:09:19.000Z</time>
      </trkpt>
      <trkpt lat="48.68022" lon="2.03717">
        <ele>169.90771484375</ele>
        <time>2016-09-22T14:09:21.000Z</time>
      </trkpt>
      <trkpt lat="48.68023" lon="2.03722">
        <ele>169.94595336914</ele>
        <time>2016-09-22T14:09:24.000Z</time>
      </trkpt>
      <trkpt lat="48.68023" lon="2.03726">
        <ele>169.9832611084</ele>
        <time>2016-09-22T14:09:26.000Z</time>
      </trkpt>
      <trkpt lat="48.68023" lon="2.03732">
        <ele>170.02519226074</ele>
        <time>2016-09-22T14:09:29.000Z</time>
      </trkpt>
      <trkpt lat="48.68023" lon="2.03737">
        <ele>170.06713867188</ele>
        <time>2016-09-22T14:09:32.000Z</time>
      </trkpt>
      <trkpt lat="48.68023" lon="2.03741">
        <ele>170.10958862305</ele>
        <time>2016-09-22T14:09:34.000Z</time>
      </trkpt>
      <trkpt lat="48.68023" lon="2.03746">
        <ele>170.150390625</ele>
        <time>2016-09-22T14:09:37.000Z</time>
      </trkpt>
      <trkpt lat="48.68023" lon="2.03749">
        <ele>170.19194030762</ele>
        <time>2016-09-22T14:09:39.000Z</time>
      </trkpt>
      <trkpt lat="48.68024" lon="2.03754">
        <ele>170.22860717773</ele>
        <time>2016-09-22T14:09:42.000Z</time>
      </trkpt>
      <trkpt lat="48.68024" lon="2.03757">
        <ele>170.26010131836</ele>
        <time>2016-09-22T14:09:44.000Z</time>
      </trkpt>
      <trkpt lat="48.68024" lon="2.03761">
        <ele>170.28756713867</ele>
        <time>2016-09-22T14:09:46.000Z</time>
      </trkpt>
      <trkpt lat="48.68024" lon="2.03767">
        <ele>170.31169128418</ele>
        <time>2016-09-22T14:09:49.000Z</time>
      </trkpt>
      <trkpt lat="48.68024" lon="2.03769">
        <ele>170.33065795898</ele>
        <time>2016-09-22T14:09:51.000Z</time>
      </trkpt>
      <trkpt lat="48.68024" lon="2.03773">
        <ele>170.34643554688</ele>
        <time>2016-09-22T14:09:54.000Z</time>
      </trkpt>
      <trkpt lat="48.68025" lon="2.03777">
        <ele>170.36260986328</ele>
        <time>2016-09-22T14:09:56.000Z</time>
      </trkpt>
      <trkpt lat="48.68025" lon="2.03781">
        <ele>170.38012695312</ele>
        <time>2016-09-22T14:09:58.000Z</time>
      </trkpt>
      <trkpt lat="48.68025" lon="2.03786">
        <ele>170.39686584473</ele>
        <time>2016-09-22T14:10:01.000Z</time>
      </trkpt>
      <trkpt lat="48.68026" lon="2.03791">
        <ele>170.41822814941</ele>
        <time>2016-09-22T14:10:03.000Z</time>
      </trkpt>
      <trkpt lat="48.68027" lon="2.03797">
        <ele>170.44277954102</ele>
        <time>2016-09-22T14:10:06.000Z</time>
      </trkpt>
      <trkpt lat="48.68027" lon="2.03801">
        <ele>170.46643066406</ele>
        <time>2016-09-22T14:10:08.000Z</time>
      </trkpt>
      <trkpt lat="48.68025" lon="2.03807">
        <ele>170.48541259766</ele>
        <time>2016-09-22T14:10:11.000Z</time>
      </trkpt>
      <trkpt lat="48.68025" lon="2.03813">
        <ele>170.50305175781</ele>
        <time>2016-09-22T14:10:14.000Z</time>
      </trkpt>
      <trkpt lat="48.68023" lon="2.03819">
        <ele>170.5115814209</ele>
        <time>2016-09-22T14:10:17.000Z</time>
      </trkpt>
      <trkpt lat="48.68022" lon="2.03823">
        <ele>170.50923156738</ele>
        <time>2016-09-22T14:10:19.000Z</time>
      </trkpt>
      <trkpt lat="48.68021" lon="2.03827">
        <ele>170.50245666504</ele>
        <time>2016-09-22T14:10:21.000Z</time>
      </trkpt>
      <trkpt lat="48.6802" lon="2.0383">
        <ele>170.49481201172</ele>
        <time>2016-09-22T14:10:24.000Z</time>
      </trkpt>
      <trkpt lat="48.6802" lon="2.03833">
        <ele>170.48596191406</ele>
        <time>2016-09-22T14:10:26.000Z</time>
      </trkpt>
      <trkpt lat="48.6802" lon="2.03837">
        <ele>170.48004150391</ele>
        <time>2016-09-22T14:10:28.000Z</time>
      </trkpt>
      <trkpt lat="48.6802" lon="2.03842">
        <ele>170.47857666016</ele>
        <time>2016-09-22T14:10:31.000Z</time>
      </trkpt>
      <trkpt lat="48.68019" lon="2.03846">
        <ele>170.47274780273</ele>
        <time>2016-09-22T14:10:33.000Z</time>
      </trkpt>
      <trkpt lat="48.68019" lon="2.03848">
        <ele>170.46864318848</ele>
        <time>2016-09-22T14:10:36.000Z</time>
      </trkpt>
      <trkpt lat="48.68018" lon="2.03854">
        <ele>170.45703125</ele>
        <time>2016-09-22T14:10:39.000Z</time>
      </trkpt>
      <trkpt lat="48.68016" lon="2.03858">
        <ele>170.435546875</ele>
        <time>2016-09-22T14:10:41.000Z</time>
      </trkpt>
      <trkpt lat="48.68014" lon="2.03862">
        <ele>170.408203125</ele>
        <time>2016-09-22T14:10:43.000Z</time>
      </trkpt>
      <trkpt lat="48.68013" lon="2.03866">
        <ele>170.3828125</ele>
        <time>2016-09-22T14:10:45.000Z</time>
      </trkpt>
      <trkpt lat="48.68013" lon="2.0387">
        <ele>170.35546875</ele>
        <time>2016-09-22T14:10:48.000Z</time>
      </trkpt>
      <trkpt lat="48.68013" lon="2.03872">
        <ele>170.333984375</ele>
        <time>2016-09-22T14:10:53.000Z</time>
      </trkpt>
      <trkpt lat="48.68013" lon="2.03876">
        <ele>170.322265625</ele>
        <time>2016-09-22T14:10:55.000Z</time>
      </trkpt>
      <trkpt lat="48.68013" lon="2.03881">
        <ele>170.318359375</ele>
        <time>2016-09-22T14:10:57.000Z</time>
      </trkpt>
      <trkpt lat="48.68014" lon="2.03889">
        <ele>170.322265625</ele>
        <time>2016-09-22T14:11:00.000Z</time>
      </trkpt>
      <trkpt lat="48.68014" lon="2.03894">
        <ele>170.328125</ele>
        <time>2016-09-22T14:11:02.000Z</time>
      </trkpt>
      <trkpt lat="48.68013" lon="2.03903">
        <ele>170.330078125</ele>
        <time>2016-09-22T14:11:05.000Z</time>
      </trkpt>
      <trkpt lat="48.68013" lon="2.03907">
        <ele>170.330078125</ele>
        <time>2016-09-22T14:11:07.000Z</time>
      </trkpt>
      <trkpt lat="48.68013" lon="2.03912">
        <ele>170.326171875</ele>
        <time>2016-09-22T14:11:09.000Z</time>
      </trkpt>
      <trkpt lat="48.68013" lon="2.03918">
        <ele>170.318359375</ele>
        <time>2016-09-22T14:11:12.000Z</time>
      </trkpt>
      <trkpt lat="48.68013" lon="2.03923">
        <ele>170.310546875</ele>
        <time>2016-09-22T14:11:15.000Z</time>
      </trkpt>
      <trkpt lat="48.68013" lon="2.03927">
        <ele>170.306640625</ele>
        <time>2016-09-22T14:11:17.000Z</time>
      </trkpt>
      <trkpt lat="48.68013" lon="2.03935">
        <ele>170.3046875</ele>
        <time>2016-09-22T14:11:20.000Z</time>
      </trkpt>
      <trkpt lat="48.68013" lon="2.03939">
        <ele>170.3046875</ele>
        <time>2016-09-22T14:11:22.000Z</time>
      </trkpt>
      <trkpt lat="48.68013" lon="2.03944">
        <ele>170.3046875</ele>
        <time>2016-09-22T14:11:24.000Z</time>
      </trkpt>
      <trkpt lat="48.68012" lon="2.0395">
        <ele>170.302734375</ele>
        <time>2016-09-22T14:11:27.000Z</time>
      </trkpt>
      <trkpt lat="48.68013" lon="2.03957">
        <ele>170.3046875</ele>
        <time>2016-09-22T14:11:30.000Z</time>
      </trkpt>
      <trkpt lat="48.68013" lon="2.03961">
        <ele>170.30859375</ele>
        <time>2016-09-22T14:11:32.000Z</time>
      </trkpt>
      <trkpt lat="48.68014" lon="2.03965">
        <ele>170.314453125</ele>
        <time>2016-09-22T14:11:34.000Z</time>
      </trkpt>
      <trkpt lat="48.68015" lon="2.03973">
        <ele>170.32421875</ele>
        <time>2016-09-22T14:11:37.000Z</time>
      </trkpt>
      <trkpt lat="48.68015" lon="2.03981">
        <ele>170.3359375</ele>
        <time>2016-09-22T14:11:40.000Z</time>
      </trkpt>
      <trkpt lat="48.68015" lon="2.03986">
        <ele>170.341796875</ele>
        <time>2016-09-22T14:11:42.000Z</time>
      </trkpt>
      <trkpt lat="48.68015" lon="2.03989">
        <ele>170.34765625</ele>
        <time>2016-09-22T14:11:44.000Z</time>
      </trkpt>
      <trkpt lat="48.68016" lon="2.03996">
        <ele>170.359375</ele>
        <time>2016-09-22T14:11:47.000Z</time>
      </trkpt>
      <trkpt lat="48.68016" lon="2.04003">
        <ele>170.36909484863</ele>
        <time>2016-09-22T14:11:50.000Z</time>
      </trkpt>
      <trkpt lat="48.68016" lon="2.0401">
        <ele>170.39347839355</ele>
        <time>2016-09-22T14:11:53.000Z</time>
      </trkpt>
      <trkpt lat="48.68017" lon="2.04017">
        <ele>170.43786621094</ele>
        <time>2016-09-22T14:11:56.000Z</time>
      </trkpt>
      <trkpt lat="48.68017" lon="2.04022">
        <ele>170.49125671387</ele>
        <time>2016-09-22T14:11:58.000Z</time>
      </trkpt>
      <trkpt lat="48.68017" lon="2.04027">
        <ele>170.54467773438</ele>
        <time>2016-09-22T14:12:00.000Z</time>
      </trkpt>
      <trkpt lat="48.68016" lon="2.04031">
        <ele>170.60348510742</ele>
        <time>2016-09-22T14:12:02.000Z</time>
      </trkpt>
      <trkpt lat="48.68016" lon="2.04037">
        <ele>170.65620422363</ele>
        <time>2016-09-22T14:12:05.000Z</time>
      </trkpt>
      <trkpt lat="48.68015" lon="2.04041">
        <ele>170.69514465332</ele>
        <time>2016-09-22T14:12:07.000Z</time>
      </trkpt>
      <trkpt lat="48.68015" lon="2.04048">
        <ele>170.73564147949</ele>
        <time>2016-09-22T14:12:10.000Z</time>
      </trkpt>
      <trkpt lat="48.68016" lon="2.04052">
        <ele>170.77993774414</ele>
        <time>2016-09-22T14:12:13.000Z</time>
      </trkpt>
      <trkpt lat="48.68015" lon="2.04053">
        <ele>170.81832885742</ele>
        <time>2016-09-22T14:12:25.000Z</time>
      </trkpt>
      <trkpt lat="48.68015" lon="2.04059">
        <ele>170.85897827148</ele>
        <time>2016-09-22T14:12:28.000Z</time>
      </trkpt>
      <trkpt lat="48.68016" lon="2.04062">
        <ele>170.90176391602</ele>
        <time>2016-09-22T14:12:30.000Z</time>
      </trkpt>
      <trkpt lat="48.68016" lon="2.04064">
        <ele>170.9376373291</ele>
        <time>2016-09-22T14:12:32.000Z</time>
      </trkpt>
      <trkpt lat="48.68016" lon="2.04067">
        <ele>170.96896362305</ele>
        <time>2016-09-22T14:12:34.000Z</time>
      </trkpt>
      <trkpt lat="48.68016" lon="2.04073">
        <ele>171.00924682617</ele>
        <time>2016-09-22T14:12:37.000Z</time>
      </trkpt>
      <trkpt lat="48.68016" lon="2.04078">
        <ele>171.04954528809</ele>
        <time>2016-09-22T14:12:40.000Z</time>
      </trkpt>
      <trkpt lat="48.68016" lon="2.04085">
        <ele>171.0962677002</ele>
        <time>2016-09-22T14:12:43.000Z</time>
      </trkpt>
      <trkpt lat="48.68016" lon="2.04088">
        <ele>171.14584350586</ele>
        <time>2016-09-22T14:12:45.000Z</time>
      </trkpt>
      <trkpt lat="48.68017" lon="2.04094">
        <ele>171.2060546875</ele>
        <time>2016-09-22T14:12:48.000Z</time>
      </trkpt>
      <trkpt lat="48.68017" lon="2.04101">
        <ele>171.2709197998</ele>
        <time>2016-09-22T14:12:51.000Z</time>
      </trkpt>
      <trkpt lat="48.68017" lon="2.04106">
        <ele>171.3359375</ele>
        <time>2016-09-22T14:12:53.000Z</time>
      </trkpt>
      <trkpt lat="48.68017" lon="2.04111">
        <ele>171.40083312988</ele>
        <time>2016-09-22T14:12:55.000Z</time>
      </trkpt>
      <trkpt lat="48.68017" lon="2.04118">
        <ele>171.47494506836</ele>
        <time>2016-09-22T14:12:58.000Z</time>
      </trkpt>
      <trkpt lat="48.68016" lon="2.04125">
        <ele>171.54684448242</ele>
        <time>2016-09-22T14:13:01.000Z</time>
      </trkpt>
      <trkpt lat="48.68016" lon="2.04129">
        <ele>171.61154174805</ele>
        <time>2016-09-22T14:13:03.000Z</time>
      </trkpt>
      <trkpt lat="48.68016" lon="2.04133">
        <ele>171.67427062988</ele>
        <time>2016-09-22T14:13:05.000Z</time>
      </trkpt>
      <trkpt lat="48.68016" lon="2.04139">
        <ele>171.73908996582</ele>
        <time>2016-09-22T14:13:08.000Z</time>
      </trkpt>
      <trkpt lat="48.68016" lon="2.04143">
        <ele>171.79707336426</ele>
        <time>2016-09-22T14:13:10.000Z</time>
      </trkpt>
      <trkpt lat="48.68016" lon="2.04147">
        <ele>171.84944152832</ele>
        <time>2016-09-22T14:13:12.000Z</time>
      </trkpt>
      <trkpt lat="48.68016" lon="2.04153">
        <ele>171.90795898438</ele>
        <time>2016-09-22T14:13:15.000Z</time>
      </trkpt>
      <trkpt lat="48.68016" lon="2.04157">
        <ele>171.9651184082</ele>
        <time>2016-09-22T14:13:17.000Z</time>
      </trkpt>
      <trkpt lat="48.68015" lon="2.04159">
        <ele>172.01141357422</ele>
        <time>2016-09-22T14:13:19.000Z</time>
      </trkpt>
      <trkpt lat="48.68015" lon="2.04163">
        <ele>172.05581665039</ele>
        <time>2016-09-22T14:13:22.000Z</time>
      </trkpt>
      <trkpt lat="48.68015" lon="2.04167">
        <ele>172.09780883789</ele>
        <time>2016-09-22T14:13:24.000Z</time>
      </trkpt>
      <trkpt lat="48.68015" lon="2.04174">
        <ele>172.10931396484</ele>
        <time>2016-09-22T14:13:27.000Z</time>
      </trkpt>
      <trkpt lat="48.68014" lon="2.0418">
        <ele>172.09674072266</ele>
        <time>2016-09-22T14:13:30.000Z</time>
      </trkpt>
      <trkpt lat="48.68014" lon="2.04186">
        <ele>172.0671081543</ele>
        <time>2016-09-22T14:13:33.000Z</time>
      </trkpt>
      <trkpt lat="48.68014" lon="2.0419">
        <ele>172.01895141602</ele>
        <time>2016-09-22T14:13:35.000Z</time>
      </trkpt>
      <trkpt lat="48.68014" lon="2.04196">
        <ele>171.94812011719</ele>
        <time>2016-09-22T14:13:38.000Z</time>
      </trkpt>
      <trkpt lat="48.68014" lon="2.04201">
        <ele>171.88278198242</ele>
        <time>2016-09-22T14:13:40.000Z</time>
      </trkpt>
      <trkpt lat="48.68013" lon="2.04205">
        <ele>171.82302856445</ele>
        <time>2016-09-22T14:13:42.000Z</time>
      </trkpt>
      <trkpt lat="48.68013" lon="2.04211">
        <ele>171.75942993164</ele>
        <time>2016-09-22T14:13:45.000Z</time>
      </trkpt>
      <trkpt lat="48.68014" lon="2.04216">
        <ele>171.69595336914</ele>
        <time>2016-09-22T14:13:48.000Z</time>
      </trkpt>
      <trkpt lat="48.68014" lon="2.04219">
        <ele>171.64016723633</ele>
        <time>2016-09-22T14:13:50.000Z</time>
      </trkpt>
      <trkpt lat="48.68014" lon="2.04223">
        <ele>171.58602905273</ele>
        <time>2016-09-22T14:13:52.000Z</time>
      </trkpt>
      <trkpt lat="48.68013" lon="2.04228">
        <ele>171.53076171875</ele>
        <time>2016-09-22T14:13:54.000Z</time>
      </trkpt>
      <trkpt lat="48.68013" lon="2.04232">
        <ele>171.4826965332</ele>
        <time>2016-09-22T14:13:56.000Z</time>
      </trkpt>
      <trkpt lat="48.68013" lon="2.04238">
        <ele>171.4281463623</ele>
        <time>2016-09-22T14:13:59.000Z</time>
      </trkpt>
      <trkpt lat="48.68011" lon="2.04241">
        <ele>171.36874389648</ele>
        <time>2016-09-22T14:14:01.000Z</time>
      </trkpt>
      <trkpt lat="48.68011" lon="2.04245">
        <ele>171.30807495117</ele>
        <time>2016-09-22T14:14:03.000Z</time>
      </trkpt>
      <trkpt lat="48.68011" lon="2.0425">
        <ele>171.24876403809</ele>
        <time>2016-09-22T14:14:05.000Z</time>
      </trkpt>
      <trkpt lat="48.6801" lon="2.04255">
        <ele>171.19552612305</ele>
        <time>2016-09-22T14:14:08.000Z</time>
      </trkpt>
      <trkpt lat="48.6801" lon="2.0426">
        <ele>171.15525817871</ele>
        <time>2016-09-22T14:14:10.000Z</time>
      </trkpt>
      <trkpt lat="48.68009" lon="2.04265">
        <ele>171.12501525879</ele>
        <time>2016-09-22T14:14:13.000Z</time>
      </trkpt>
      <trkpt lat="48.68009" lon="2.04269">
        <ele>171.10371398926</ele>
        <time>2016-09-22T14:14:15.000Z</time>
      </trkpt>
      <trkpt lat="48.68008" lon="2.04274">
        <ele>171.09104919434</ele>
        <time>2016-09-22T14:14:18.000Z</time>
      </trkpt>
      <trkpt lat="48.68007" lon="2.04279">
        <ele>171.07954406738</ele>
        <time>2016-09-22T14:14:21.000Z</time>
      </trkpt>
      <trkpt lat="48.68006" lon="2.04283">
        <ele>171.06790161133</ele>
        <time>2016-09-22T14:14:23.000Z</time>
      </trkpt>
      <trkpt lat="48.68005" lon="2.04287">
        <ele>171.05632019043</ele>
        <time>2016-09-22T14:14:26.000Z</time>
      </trkpt>
      <trkpt lat="48.68003" lon="2.0429">
        <ele>171.04441833496</ele>
        <time>2016-09-22T14:14:28.000Z</time>
      </trkpt>
      <trkpt lat="48.68003" lon="2.04295">
        <ele>171.03311157227</ele>
        <time>2016-09-22T14:14:31.000Z</time>
      </trkpt>
      <trkpt lat="48.68003" lon="2.04297">
        <ele>171.02420043945</ele>
        <time>2016-09-22T14:14:33.000Z</time>
      </trkpt>
      <trkpt lat="48.68002" lon="2.04302">
        <ele>171.01770019531</ele>
        <time>2016-09-22T14:14:36.000Z</time>
      </trkpt>
      <trkpt lat="48.68002" lon="2.04305">
        <ele>171.0132598877</ele>
        <time>2016-09-22T14:14:38.000Z</time>
      </trkpt>
      <trkpt lat="48.68002" lon="2.0431">
        <ele>171.01020812988</ele>
        <time>2016-09-22T14:14:41.000Z</time>
      </trkpt>
      <trkpt lat="48.68" lon="2.04315">
        <ele>171.00744628906</ele>
        <time>2016-09-22T14:14:44.000Z</time>
      </trkpt>
      <trkpt lat="48.67998" lon="2.04321">
        <ele>171.00015258789</ele>
        <time>2016-09-22T14:14:47.000Z</time>
      </trkpt>
      <trkpt lat="48.67998" lon="2.04325">
        <ele>170.99253845215</ele>
        <time>2016-09-22T14:14:49.000Z</time>
      </trkpt>
      <trkpt lat="48.67997" lon="2.04328">
        <ele>170.98419189453</ele>
        <time>2016-09-22T14:14:51.000Z</time>
      </trkpt>
      <trkpt lat="48.67996" lon="2.04335">
        <ele>170.97720336914</ele>
        <time>2016-09-22T14:14:54.000Z</time>
      </trkpt>
      <trkpt lat="48.67996" lon="2.04338">
        <ele>170.97842407227</ele>
        <time>2016-09-22T14:14:56.000Z</time>
      </trkpt>
      <trkpt lat="48.67995" lon="2.04342">
        <ele>170.99044799805</ele>
        <time>2016-09-22T14:14:59.000Z</time>
      </trkpt>
      <trkpt lat="48.67993" lon="2.04346">
        <ele>171.00665283203</ele>
        <time>2016-09-22T14:15:01.000Z</time>
      </trkpt>
      <trkpt lat="48.67991" lon="2.04351">
        <ele>171.03009033203</ele>
        <time>2016-09-22T14:15:04.000Z</time>
      </trkpt>
      <trkpt lat="48.6799" lon="2.04355">
        <ele>171.05851745605</ele>
        <time>2016-09-22T14:15:07.000Z</time>
      </trkpt>
      <trkpt lat="48.6799" lon="2.04358">
        <ele>171.08476257324</ele>
        <time>2016-09-22T14:15:09.000Z</time>
      </trkpt>
      <trkpt lat="48.6799" lon="2.04363">
        <ele>171.11672973633</ele>
        <time>2016-09-22T14:15:12.000Z</time>
      </trkpt>
      <trkpt lat="48.67989" lon="2.04368">
        <ele>171.15141296387</ele>
        <time>2016-09-22T14:15:15.000Z</time>
      </trkpt>
      <trkpt lat="48.67987" lon="2.04371">
        <ele>171.17956542969</ele>
        <time>2016-09-22T14:15:17.000Z</time>
      </trkpt>
      <trkpt lat="48.67986" lon="2.04377">
        <ele>171.20782470703</ele>
        <time>2016-09-22T14:15:20.000Z</time>
      </trkpt>
      <trkpt lat="48.67984" lon="2.04383">
        <ele>171.23930358887</ele>
        <time>2016-09-22T14:15:23.000Z</time>
      </trkpt>
      <trkpt lat="48.67983" lon="2.04387">
        <ele>171.26266479492</ele>
        <time>2016-09-22T14:15:25.000Z</time>
      </trkpt>
      <trkpt lat="48.67982" lon="2.04392">
        <ele>171.28628540039</ele>
        <time>2016-09-22T14:15:28.000Z</time>
      </trkpt>
      <trkpt lat="48.67981" lon="2.04397">
        <ele>171.31468200684</ele>
        <time>2016-09-22T14:15:31.000Z</time>
      </trkpt>
      <trkpt lat="48.6798" lon="2.04401">
        <ele>171.33923339844</ele>
        <time>2016-09-22T14:15:34.000Z</time>
      </trkpt>
      <trkpt lat="48.67978" lon="2.04408">
        <ele>171.36010742188</ele>
        <time>2016-09-22T14:15:37.000Z</time>
      </trkpt>
      <trkpt lat="48.67977" lon="2.04416">
        <ele>171.38618469238</ele>
        <time>2016-09-22T14:15:40.000Z</time>
      </trkpt>
      <trkpt lat="48.67975" lon="2.04424">
        <ele>171.41337585449</ele>
        <time>2016-09-22T14:15:43.000Z</time>
      </trkpt>
      <trkpt lat="48.67974" lon="2.04431">
        <ele>171.44630432129</ele>
        <time>2016-09-22T14:15:46.000Z</time>
      </trkpt>
      <trkpt lat="48.67973" lon="2.04437">
        <ele>171.48724365234</ele>
        <time>2016-09-22T14:15:49.000Z</time>
      </trkpt>
      <trkpt lat="48.67972" lon="2.04442">
        <ele>171.53366088867</ele>
        <time>2016-09-22T14:15:52.000Z</time>
      </trkpt>
      <trkpt lat="48.67971" lon="2.04445">
        <ele>171.57806396484</ele>
        <time>2016-09-22T14:15:54.000Z</time>
      </trkpt>
      <trkpt lat="48.6797" lon="2.04449">
        <ele>171.6226348877</ele>
        <time>2016-09-22T14:15:56.000Z</time>
      </trkpt>
      <trkpt lat="48.67969" lon="2.04454">
        <ele>171.66641235352</ele>
        <time>2016-09-22T14:15:59.000Z</time>
      </trkpt>
      <trkpt lat="48.67968" lon="2.04457">
        <ele>171.70738220215</ele>
        <time>2016-09-22T14:16:01.000Z</time>
      </trkpt>
      <trkpt lat="48.67967" lon="2.04462">
        <ele>171.75032043457</ele>
        <time>2016-09-22T14:16:04.000Z</time>
      </trkpt>
      <trkpt lat="48.67965" lon="2.04465">
        <ele>171.79672241211</ele>
        <time>2016-09-22T14:16:07.000Z</time>
      </trkpt>
      <trkpt lat="48.67963" lon="2.04467">
        <ele>171.83946228027</ele>
        <time>2016-09-22T14:16:09.000Z</time>
      </trkpt>
      <trkpt lat="48.67962" lon="2.04469">
        <ele>171.87954711914</ele>
        <time>2016-09-22T14:16:11.000Z</time>
      </trkpt>
      <trkpt lat="48.67961" lon="2.04472">
        <ele>171.92268371582</ele>
        <time>2016-09-22T14:16:13.000Z</time>
      </trkpt>
      <trkpt lat="48.67959" lon="2.04477">
        <ele>171.97146606445</ele>
        <time>2016-09-22T14:16:16.000Z</time>
      </trkpt>
      <trkpt lat="48.67958" lon="2.04481">
        <ele>172.02313232422</ele>
        <time>2016-09-22T14:16:18.000Z</time>
      </trkpt>
      <trkpt lat="48.67957" lon="2.04485">
        <ele>172.08758544922</ele>
        <time>2016-09-22T14:16:21.000Z</time>
      </trkpt>
      <trkpt lat="48.67956" lon="2.04486">
        <ele>172.15155029297</ele>
        <time>2016-09-22T14:16:23.000Z</time>
      </trkpt>
      <trkpt lat="48.67954" lon="2.04489">
        <ele>172.21809387207</ele>
        <time>2016-09-22T14:16:26.000Z</time>
      </trkpt>
      <trkpt lat="48.67954" lon="2.04492">
        <ele>172.27885437012</ele>
        <time>2016-09-22T14:16:30.000Z</time>
      </trkpt>
      <trkpt lat="48.67952" lon="2.04498">
        <ele>172.35417175293</ele>
        <time>2016-09-22T14:16:33.000Z</time>
      </trkpt>
      <trkpt lat="48.67951" lon="2.04505">
        <ele>172.44186401367</ele>
        <time>2016-09-22T14:16:36.000Z</time>
      </trkpt>
      <trkpt lat="48.6795" lon="2.0451">
        <ele>172.54116821289</ele>
        <time>2016-09-22T14:16:38.000Z</time>
      </trkpt>
      <trkpt lat="48.67948" lon="2.04517">
        <ele>172.65382385254</ele>
        <time>2016-09-22T14:16:41.000Z</time>
      </trkpt>
      <trkpt lat="48.67947" lon="2.04521">
        <ele>172.77085876465</ele>
        <time>2016-09-22T14:16:43.000Z</time>
      </trkpt>
      <trkpt lat="48.67945" lon="2.04528">
        <ele>172.88656616211</ele>
        <time>2016-09-22T14:16:46.000Z</time>
      </trkpt>
      <trkpt lat="48.67944" lon="2.04534">
        <ele>172.99423217773</ele>
        <time>2016-09-22T14:16:49.000Z</time>
      </trkpt>
      <trkpt lat="48.67944" lon="2.0454">
        <ele>173.10325622559</ele>
        <time>2016-09-22T14:16:52.000Z</time>
      </trkpt>
      <trkpt lat="48.67942" lon="2.04543">
        <ele>173.19741821289</ele>
        <time>2016-09-22T14:16:54.000Z</time>
      </trkpt>
      <trkpt lat="48.67941" lon="2.04548">
        <ele>173.29273986816</ele>
        <time>2016-09-22T14:16:57.000Z</time>
      </trkpt>
      <trkpt lat="48.6794" lon="2.04551">
        <ele>173.37219238281</ele>
        <time>2016-09-22T14:16:59.000Z</time>
      </trkpt>
      <trkpt lat="48.67939" lon="2.04558">
        <ele>173.45104980469</ele>
        <time>2016-09-22T14:17:02.000Z</time>
      </trkpt>
      <trkpt lat="48.67937" lon="2.04562">
        <ele>173.52323913574</ele>
        <time>2016-09-22T14:17:04.000Z</time>
      </trkpt>
      <trkpt lat="48.67936" lon="2.04568">
        <ele>173.60427856445</ele>
        <time>2016-09-22T14:17:07.000Z</time>
      </trkpt>
      <trkpt lat="48.67934" lon="2.04572">
        <ele>173.68084716797</ele>
        <time>2016-09-22T14:17:09.000Z</time>
      </trkpt>
      <trkpt lat="48.67934" lon="2.04576">
        <ele>173.75651550293</ele>
        <time>2016-09-22T14:17:11.000Z</time>
      </trkpt>
      <trkpt lat="48.67933" lon="2.04579">
        <ele>173.82112121582</ele>
        <time>2016-09-22T14:17:13.000Z</time>
      </trkpt>
      <trkpt lat="48.67932" lon="2.04582">
        <ele>173.88368225098</ele>
        <time>2016-09-22T14:17:15.000Z</time>
      </trkpt>
      <trkpt lat="48.6793" lon="2.04589">
        <ele>173.93801879883</ele>
        <time>2016-09-22T14:17:18.000Z</time>
      </trkpt>
      <trkpt lat="48.67929" lon="2.04594">
        <ele>173.98831176758</ele>
        <time>2016-09-22T14:17:20.000Z</time>
      </trkpt>
      <trkpt lat="48.67928" lon="2.04598">
        <ele>174.03694152832</ele>
        <time>2016-09-22T14:17:22.000Z</time>
      </trkpt>
      <trkpt lat="48.67927" lon="2.04604">
        <ele>174.08731079102</ele>
        <time>2016-09-22T14:17:25.000Z</time>
      </trkpt>
      <trkpt lat="48.67926" lon="2.04609">
        <ele>174.13806152344</ele>
        <time>2016-09-22T14:17:28.000Z</time>
      </trkpt>
      <trkpt lat="48.67925" lon="2.04612">
        <ele>174.1845703125</ele>
        <time>2016-09-22T14:17:30.000Z</time>
      </trkpt>
      <trkpt lat="48.67923" lon="2.04618">
        <ele>174.23599243164</ele>
        <time>2016-09-22T14:17:33.000Z</time>
      </trkpt>
      <trkpt lat="48.67922" lon="2.04623">
        <ele>174.29350280762</ele>
        <time>2016-09-22T14:17:36.000Z</time>
      </trkpt>
      <trkpt lat="48.6792" lon="2.04626">
        <ele>174.35075378418</ele>
        <time>2016-09-22T14:17:38.000Z</time>
      </trkpt>
      <trkpt lat="48.6792" lon="2.0463">
        <ele>174.40658569336</ele>
        <time>2016-09-22T14:17:40.000Z</time>
      </trkpt>
      <trkpt lat="48.67919" lon="2.04633">
        <ele>174.46339416504</ele>
        <time>2016-09-22T14:17:42.000Z</time>
      </trkpt>
      <trkpt lat="48.67918" lon="2.04639">
        <ele>174.52346801758</ele>
        <time>2016-09-22T14:17:45.000Z</time>
      </trkpt>
      <trkpt lat="48.67916" lon="2.04644">
        <ele>174.58654785156</ele>
        <time>2016-09-22T14:17:48.000Z</time>
      </trkpt>
      <trkpt lat="48.67916" lon="2.04648">
        <ele>174.6396484375</ele>
        <time>2016-09-22T14:17:50.000Z</time>
      </trkpt>
      <trkpt lat="48.67915" lon="2.04653">
        <ele>174.68612670898</ele>
        <time>2016-09-22T14:17:53.000Z</time>
      </trkpt>
      <trkpt lat="48.67914" lon="2.04657">
        <ele>174.72573852539</ele>
        <time>2016-09-22T14:17:55.000Z</time>
      </trkpt>
      <trkpt lat="48.67913" lon="2.04664">
        <ele>174.75039672852</ele>
        <time>2016-09-22T14:17:58.000Z</time>
      </trkpt>
      <trkpt lat="48.67912" lon="2.04667">
        <ele>174.75561523438</ele>
        <time>2016-09-22T14:18:00.000Z</time>
      </trkpt>
      <trkpt lat="48.67911" lon="2.04671">
        <ele>174.73550415039</ele>
        <time>2016-09-22T14:18:02.000Z</time>
      </trkpt>
      <trkpt lat="48.6791" lon="2.04676">
        <ele>174.68049621582</ele>
        <time>2016-09-22T14:18:05.000Z</time>
      </trkpt>
      <trkpt lat="48.67908" lon="2.04682">
        <ele>174.58204650879</ele>
        <time>2016-09-22T14:18:08.000Z</time>
      </trkpt>
      <trkpt lat="48.67908" lon="2.04685">
        <ele>174.45776367188</ele>
        <time>2016-09-22T14:18:10.000Z</time>
      </trkpt>
      <trkpt lat="48.67907" lon="2.04691">
        <ele>174.29940795898</ele>
        <time>2016-09-22T14:18:13.000Z</time>
      </trkpt>
      <trkpt lat="48.67905" lon="2.04697">
        <ele>174.12924194336</ele>
        <time>2016-09-22T14:18:16.000Z</time>
      </trkpt>
      <trkpt lat="48.67904" lon="2.04702">
        <ele>173.95834350586</ele>
        <time>2016-09-22T14:18:19.000Z</time>
      </trkpt>
      <trkpt lat="48.67904" lon="2.04706">
        <ele>173.80419921875</ele>
        <time>2016-09-22T14:18:21.000Z</time>
      </trkpt>
      <trkpt lat="48.67902" lon="2.04712">
        <ele>173.63456726074</ele>
        <time>2016-09-22T14:18:24.000Z</time>
      </trkpt>
      <trkpt lat="48.67901" lon="2.04716">
        <ele>173.47866821289</ele>
        <time>2016-09-22T14:18:26.000Z</time>
      </trkpt>
      <trkpt lat="48.679" lon="2.04719">
        <ele>173.33757019043</ele>
        <time>2016-09-22T14:18:28.000Z</time>
      </trkpt>
      <trkpt lat="48.67899" lon="2.04725">
        <ele>173.19662475586</ele>
        <time>2016-09-22T14:18:31.000Z</time>
      </trkpt>
      <trkpt lat="48.67899" lon="2.04728">
        <ele>173.06451416016</ele>
        <time>2016-09-22T14:18:33.000Z</time>
      </trkpt>
      <trkpt lat="48.67897" lon="2.04732">
        <ele>172.93869018555</ele>
        <time>2016-09-22T14:18:36.000Z</time>
      </trkpt>
      <trkpt lat="48.67896" lon="2.04737">
        <ele>172.80291748047</ele>
        <time>2016-09-22T14:18:39.000Z</time>
      </trkpt>
      <trkpt lat="48.67894" lon="2.04741">
        <ele>172.66241455078</ele>
        <time>2016-09-22T14:18:42.000Z</time>
      </trkpt>
      <trkpt lat="48.67893" lon="2.04747">
        <ele>172.52334594727</ele>
        <time>2016-09-22T14:18:45.000Z</time>
      </trkpt>
      <trkpt lat="48.67892" lon="2.04752">
        <ele>172.37629699707</ele>
        <time>2016-09-22T14:18:48.000Z</time>
      </trkpt>
      <trkpt lat="48.67891" lon="2.04758">
        <ele>172.24389648438</ele>
        <time>2016-09-22T14:18:51.000Z</time>
      </trkpt>
      <trkpt lat="48.67891" lon="2.04762">
        <ele>172.13558959961</ele>
        <time>2016-09-22T14:18:53.000Z</time>
      </trkpt>
      <trkpt lat="48.67889" lon="2.04767">
        <ele>172.03335571289</ele>
        <time>2016-09-22T14:18:56.000Z</time>
      </trkpt>
      <trkpt lat="48.67888" lon="2.04773">
        <ele>171.94577026367</ele>
        <time>2016-09-22T14:18:59.000Z</time>
      </trkpt>
      <trkpt lat="48.67886" lon="2.04778">
        <ele>171.86552429199</ele>
        <time>2016-09-22T14:19:02.000Z</time>
      </trkpt>
      <trkpt lat="48.67885" lon="2.04784">
        <ele>171.78421020508</ele>
        <time>2016-09-22T14:19:05.000Z</time>
      </trkpt>
      <trkpt lat="48.67884" lon="2.04788">
        <ele>171.69779968262</ele>
        <time>2016-09-22T14:19:07.000Z</time>
      </trkpt>
      <trkpt lat="48.67883" lon="2.04794">
        <ele>171.61805725098</ele>
        <time>2016-09-22T14:19:10.000Z</time>
      </trkpt>
      <trkpt lat="48.67882" lon="2.048">
        <ele>171.53984069824</ele>
        <time>2016-09-22T14:19:13.000Z</time>
      </trkpt>
      <trkpt lat="48.6788" lon="2.04805">
        <ele>171.46203613281</ele>
        <time>2016-09-22T14:19:16.000Z</time>
      </trkpt>
      <trkpt lat="48.67879" lon="2.04808">
        <ele>171.39668273926</ele>
        <time>2016-09-22T14:19:18.000Z</time>
      </trkpt>
      <trkpt lat="48.67878" lon="2.04814">
        <ele>171.3293762207</ele>
        <time>2016-09-22T14:19:21.000Z</time>
      </trkpt>
      <trkpt lat="48.67877" lon="2.04819">
        <ele>171.26177978516</ele>
        <time>2016-09-22T14:19:24.000Z</time>
      </trkpt>
      <trkpt lat="48.67876" lon="2.04823">
        <ele>171.20025634766</ele>
        <time>2016-09-22T14:19:26.000Z</time>
      </trkpt>
      <trkpt lat="48.67875" lon="2.04827">
        <ele>171.14637756348</ele>
        <time>2016-09-22T14:19:28.000Z</time>
      </trkpt>
      <trkpt lat="48.67875" lon="2.04832">
        <ele>171.0888671875</ele>
        <time>2016-09-22T14:19:31.000Z</time>
      </trkpt>
      <trkpt lat="48.67873" lon="2.04837">
        <ele>171.04223632812</ele>
        <time>2016-09-22T14:19:34.000Z</time>
      </trkpt>
      <trkpt lat="48.67872" lon="2.04843">
        <ele>171.00337219238</ele>
        <time>2016-09-22T14:19:37.000Z</time>
      </trkpt>
      <trkpt lat="48.67871" lon="2.04849">
        <ele>170.96768188477</ele>
        <time>2016-09-22T14:19:40.000Z</time>
      </trkpt>
      <trkpt lat="48.6787" lon="2.04854">
        <ele>170.93461608887</ele>
        <time>2016-09-22T14:19:43.000Z</time>
      </trkpt>
      <trkpt lat="48.67869" lon="2.04858">
        <ele>170.90625</ele>
        <time>2016-09-22T14:19:45.000Z</time>
      </trkpt>
      <trkpt lat="48.67868" lon="2.04863">
        <ele>170.87890625</ele>
        <time>2016-09-22T14:19:48.000Z</time>
      </trkpt>
      <trkpt lat="48.67867" lon="2.04866">
        <ele>170.853515625</ele>
        <time>2016-09-22T14:19:50.000Z</time>
      </trkpt>
      <trkpt lat="48.67866" lon="2.04871">
        <ele>170.828125</ele>
        <time>2016-09-22T14:19:53.000Z</time>
      </trkpt>
      <trkpt lat="48.67865" lon="2.04875">
        <ele>170.802734375</ele>
        <time>2016-09-22T14:19:55.000Z</time>
      </trkpt>
      <trkpt lat="48.67863" lon="2.04881">
        <ele>170.7734375</ele>
        <time>2016-09-22T14:19:58.000Z</time>
      </trkpt>
      <trkpt lat="48.67861" lon="2.04887">
        <ele>170.740234375</ele>
        <time>2016-09-22T14:20:01.000Z</time>
      </trkpt>
      <trkpt lat="48.67859" lon="2.04892">
        <ele>170.703125</ele>
        <time>2016-09-22T14:20:04.000Z</time>
      </trkpt>
      <trkpt lat="48.67859" lon="2.04895">
        <ele>170.66796875</ele>
        <time>2016-09-22T14:20:06.000Z</time>
      </trkpt>
      <trkpt lat="48.67857" lon="2.04899">
        <ele>170.6328125</ele>
        <time>2016-09-22T14:20:08.000Z</time>
      </trkpt>
      <trkpt lat="48.67856" lon="2.04904">
        <ele>170.6015625</ele>
        <time>2016-09-22T14:20:11.000Z</time>
      </trkpt>
      <trkpt lat="48.67855" lon="2.0491">
        <ele>170.57421875</ele>
        <time>2016-09-22T14:20:14.000Z</time>
      </trkpt>
      <trkpt lat="48.67854" lon="2.04914">
        <ele>170.548828125</ele>
        <time>2016-09-22T14:20:16.000Z</time>
      </trkpt>
      <trkpt lat="48.67853" lon="2.0492">
        <ele>170.52792358398</ele>
        <time>2016-09-22T14:20:19.000Z</time>
      </trkpt>
      <trkpt lat="48.67852" lon="2.04927">
        <ele>170.52145385742</ele>
        <time>2016-09-22T14:20:22.000Z</time>
      </trkpt>
      <trkpt lat="48.6785" lon="2.04931">
        <ele>170.52180480957</ele>
        <time>2016-09-22T14:20:24.000Z</time>
      </trkpt>
      <trkpt lat="48.6785" lon="2.04935">
        <ele>170.53231811523</ele>
        <time>2016-09-22T14:20:26.000Z</time>
      </trkpt>
      <trkpt lat="48.67849" lon="2.04941">
        <ele>170.55528259277</ele>
        <time>2016-09-22T14:20:29.000Z</time>
      </trkpt>
      <trkpt lat="48.67848" lon="2.04944">
        <ele>170.58151245117</ele>
        <time>2016-09-22T14:20:31.000Z</time>
      </trkpt>
      <trkpt lat="48.67847" lon="2.04948">
        <ele>170.60263061523</ele>
        <time>2016-09-22T14:20:33.000Z</time>
      </trkpt>
      <trkpt lat="48.67847" lon="2.04953">
        <ele>170.62985229492</ele>
        <time>2016-09-22T14:20:36.000Z</time>
      </trkpt>
      <trkpt lat="48.67846" lon="2.04956">
        <ele>170.65533447266</ele>
        <time>2016-09-22T14:20:38.000Z</time>
      </trkpt>
      <trkpt lat="48.67845" lon="2.04962">
        <ele>170.68142700195</ele>
        <time>2016-09-22T14:20:41.000Z</time>
      </trkpt>
      <trkpt lat="48.67844" lon="2.04966">
        <ele>170.70838928223</ele>
        <time>2016-09-22T14:20:43.000Z</time>
      </trkpt>
      <trkpt lat="48.67843" lon="2.04971">
        <ele>170.74069213867</ele>
        <time>2016-09-22T14:20:46.000Z</time>
      </trkpt>
      <trkpt lat="48.67842" lon="2.04974">
        <ele>170.77182006836</ele>
        <time>2016-09-22T14:20:48.000Z</time>
      </trkpt>
      <trkpt lat="48.67842" lon="2.04977">
        <ele>170.80220031738</ele>
        <time>2016-09-22T14:20:50.000Z</time>
      </trkpt>
      <trkpt lat="48.67841" lon="2.0498">
        <ele>170.82962036133</ele>
        <time>2016-09-22T14:20:52.000Z</time>
      </trkpt>
      <trkpt lat="48.6784" lon="2.04986">
        <ele>170.86148071289</ele>
        <time>2016-09-22T14:20:55.000Z</time>
      </trkpt>
      <trkpt lat="48.67839" lon="2.0499">
        <ele>170.8903503418</ele>
        <time>2016-09-22T14:20:57.000Z</time>
      </trkpt>
      <trkpt lat="48.67838" lon="2.04993">
        <ele>170.91795349121</ele>
        <time>2016-09-22T14:20:59.000Z</time>
      </trkpt>
      <trkpt lat="48.67836" lon="2.04998">
        <ele>170.94827270508</ele>
        <time>2016-09-22T14:21:02.000Z</time>
      </trkpt>
      <trkpt lat="48.67833" lon="2.04999">
        <ele>170.96423339844</ele>
        <time>2016-09-22T14:21:05.000Z</time>
      </trkpt>
      <trkpt lat="48.67829" lon="2.04999">
        <ele>170.91227722168</ele>
        <time>2016-09-22T14:21:08.000Z</time>
      </trkpt>
      <trkpt lat="48.67826" lon="2.04999">
        <ele>170.81367492676</ele>
        <time>2016-09-22T14:21:10.000Z</time>
      </trkpt>
      <trkpt lat="48.67822" lon="2.04999">
        <ele>170.65208435059</ele>
        <time>2016-09-22T14:21:13.000Z</time>
      </trkpt>
      <trkpt lat="48.6782" lon="2.04998">
        <ele>170.44850158691</ele>
        <time>2016-09-22T14:21:15.000Z</time>
      </trkpt>
      <trkpt lat="48.67816" lon="2.04995">
        <ele>170.20762634277</ele>
        <time>2016-09-22T14:21:18.000Z</time>
      </trkpt>
      <trkpt lat="48.67813" lon="2.04991">
        <ele>169.98558044434</ele>
        <time>2016-09-22T14:21:21.000Z</time>
      </trkpt>
      <trkpt lat="48.6781" lon="2.04988">
        <ele>169.76184082031</ele>
        <time>2016-09-22T14:21:24.000Z</time>
      </trkpt>
      <trkpt lat="48.67808" lon="2.04985">
        <ele>169.57131958008</ele>
        <time>2016-09-22T14:21:26.000Z</time>
      </trkpt>
      <trkpt lat="48.67805" lon="2.04982">
        <ele>169.37808227539</ele>
        <time>2016-09-22T14:21:29.000Z</time>
      </trkpt>
      <trkpt lat="48.67801" lon="2.04978">
        <ele>169.19229125977</ele>
        <time>2016-09-22T14:21:32.000Z</time>
      </trkpt>
      <trkpt lat="48.67798" lon="2.04974">
        <ele>169.01826477051</ele>
        <time>2016-09-22T14:21:35.000Z</time>
      </trkpt>
      <trkpt lat="48.67797" lon="2.04973">
        <ele>168.87162780762</ele>
        <time>2016-09-22T14:21:37.000Z</time>
      </trkpt>
      <trkpt lat="48.67794" lon="2.04972">
        <ele>168.71894836426</ele>
        <time>2016-09-22T14:21:40.000Z</time>
      </trkpt>
      <trkpt lat="48.67791" lon="2.04972">
        <ele>168.57228088379</ele>
        <time>2016-09-22T14:21:42.000Z</time>
      </trkpt>
      <trkpt lat="48.67789" lon="2.04972">
        <ele>168.44427490234</ele>
        <time>2016-09-22T14:21:44.000Z</time>
      </trkpt>
      <trkpt lat="48.67786" lon="2.0497">
        <ele>168.3215637207</ele>
        <time>2016-09-22T14:21:46.000Z</time>
      </trkpt>
      <trkpt lat="48.67785" lon="2.04968">
        <ele>168.19815063477</ele>
        <time>2016-09-22T14:21:48.000Z</time>
      </trkpt>
      <trkpt lat="48.67782" lon="2.04965">
        <ele>168.09265136719</ele>
        <time>2016-09-22T14:21:51.000Z</time>
      </trkpt>
      <trkpt lat="48.6778" lon="2.04962">
        <ele>168.01187133789</ele>
        <time>2016-09-22T14:21:53.000Z</time>
      </trkpt>
      <trkpt lat="48.67779" lon="2.04959">
        <ele>167.9462890625</ele>
        <time>2016-09-22T14:21:55.000Z</time>
      </trkpt>
      <trkpt lat="48.67777" lon="2.04957">
        <ele>167.89724731445</ele>
        <time>2016-09-22T14:21:57.000Z</time>
      </trkpt>
      <trkpt lat="48.67775" lon="2.04954">
        <ele>167.85485839844</ele>
        <time>2016-09-22T14:22:00.000Z</time>
      </trkpt>
      <trkpt lat="48.67772" lon="2.0495">
        <ele>167.81733703613</ele>
        <time>2016-09-22T14:22:03.000Z</time>
      </trkpt>
      <trkpt lat="48.67769" lon="2.04947">
        <ele>167.78198242188</ele>
        <time>2016-09-22T14:22:06.000Z</time>
      </trkpt>
      <trkpt lat="48.67767" lon="2.04945">
        <ele>167.74867248535</ele>
        <time>2016-09-22T14:22:08.000Z</time>
      </trkpt>
      <trkpt lat="48.67765" lon="2.04942">
        <ele>167.7191619873</ele>
        <time>2016-09-22T14:22:10.000Z</time>
      </trkpt>
      <trkpt lat="48.67764" lon="2.04939">
        <ele>167.70095825195</ele>
        <time>2016-09-22T14:22:12.000Z</time>
      </trkpt>
      <trkpt lat="48.6776" lon="2.04936">
        <ele>167.68444824219</ele>
        <time>2016-09-22T14:22:15.000Z</time>
      </trkpt>
      <trkpt lat="48.67757" lon="2.04932">
        <ele>167.6770324707</ele>
        <time>2016-09-22T14:22:18.000Z</time>
      </trkpt>
      <trkpt lat="48.67756" lon="2.0493">
        <ele>167.67678833008</ele>
        <time>2016-09-22T14:22:20.000Z</time>
      </trkpt>
      <trkpt lat="48.67754" lon="2.04928">
        <ele>167.6852722168</ele>
        <time>2016-09-22T14:22:22.000Z</time>
      </trkpt>
      <trkpt lat="48.67752" lon="2.04925">
        <ele>167.6975402832</ele>
        <time>2016-09-22T14:22:25.000Z</time>
      </trkpt>
      <trkpt lat="48.67751" lon="2.04922">
        <ele>167.73065185547</ele>
        <time>2016-09-22T14:22:27.000Z</time>
      </trkpt>
      <trkpt lat="48.67748" lon="2.04918">
        <ele>167.75494384766</ele>
        <time>2016-09-22T14:22:30.000Z</time>
      </trkpt>
      <trkpt lat="48.67747" lon="2.04915">
        <ele>167.75212097168</ele>
        <time>2016-09-22T14:22:32.000Z</time>
      </trkpt>
      <trkpt lat="48.67745" lon="2.04912">
        <ele>167.72082519531</ele>
        <time>2016-09-22T14:22:34.000Z</time>
      </trkpt>
      <trkpt lat="48.67743" lon="2.04909">
        <ele>167.6399230957</ele>
        <time>2016-09-22T14:22:36.000Z</time>
      </trkpt>
      <trkpt lat="48.6774" lon="2.04904">
        <ele>167.49607849121</ele>
        <time>2016-09-22T14:22:39.000Z</time>
      </trkpt>
      <trkpt lat="48.67736" lon="2.04901">
        <ele>167.29499816895</ele>
        <time>2016-09-22T14:22:42.000Z</time>
      </trkpt>
      <trkpt lat="48.67735" lon="2.04899">
        <ele>167.08419799805</ele>
        <time>2016-09-22T14:22:44.000Z</time>
      </trkpt>
      <trkpt lat="48.67732" lon="2.04894">
        <ele>166.85919189453</ele>
        <time>2016-09-22T14:22:47.000Z</time>
      </trkpt>
      <trkpt lat="48.67729" lon="2.0489">
        <ele>166.63595581055</ele>
        <time>2016-09-22T14:22:50.000Z</time>
      </trkpt>
      <trkpt lat="48.67726" lon="2.04887">
        <ele>166.41320800781</ele>
        <time>2016-09-22T14:22:53.000Z</time>
      </trkpt>
      <trkpt lat="48.67725" lon="2.04885">
        <ele>166.2370300293</ele>
        <time>2016-09-22T14:22:55.000Z</time>
      </trkpt>
      <trkpt lat="48.67722" lon="2.04883">
        <ele>166.05326843262</ele>
        <time>2016-09-22T14:22:58.000Z</time>
      </trkpt>
      <trkpt lat="48.6772" lon="2.04881">
        <ele>165.88452148438</ele>
        <time>2016-09-22T14:23:00.000Z</time>
      </trkpt>
      <trkpt lat="48.67718" lon="2.04878">
        <ele>165.73313903809</ele>
        <time>2016-09-22T14:23:03.000Z</time>
      </trkpt>
      <trkpt lat="48.67716" lon="2.04875">
        <ele>165.60107421875</ele>
        <time>2016-09-22T14:23:06.000Z</time>
      </trkpt>
      <trkpt lat="48.67714" lon="2.04873">
        <ele>165.46569824219</ele>
        <time>2016-09-22T14:23:08.000Z</time>
      </trkpt>
      <trkpt lat="48.67712" lon="2.04871">
        <ele>165.34587097168</ele>
        <time>2016-09-22T14:23:10.000Z</time>
      </trkpt>
      <trkpt lat="48.6771" lon="2.04869">
        <ele>165.22958374023</ele>
        <time>2016-09-22T14:23:12.000Z</time>
      </trkpt>
      <trkpt lat="48.67708" lon="2.04866">
        <ele>165.11894226074</ele>
        <time>2016-09-22T14:23:15.000Z</time>
      </trkpt>
      <trkpt lat="48.67707" lon="2.04865">
        <ele>165.02871704102</ele>
        <time>2016-09-22T14:23:17.000Z</time>
      </trkpt>
      <trkpt lat="48.67706" lon="2.04862">
        <ele>164.93695068359</ele>
        <time>2016-09-22T14:23:21.000Z</time>
      </trkpt>
      <trkpt lat="48.67703" lon="2.0486">
        <ele>164.85096740723</ele>
        <time>2016-09-22T14:23:23.000Z</time>
      </trkpt>
      <trkpt lat="48.67701" lon="2.04857">
        <ele>164.75325012207</ele>
        <time>2016-09-22T14:23:26.000Z</time>
      </trkpt>
      <trkpt lat="48.67699" lon="2.04855">
        <ele>164.65701293945</ele>
        <time>2016-09-22T14:23:28.000Z</time>
      </trkpt>
      <trkpt lat="48.67696" lon="2.04851">
        <ele>164.56071472168</ele>
        <time>2016-09-22T14:23:31.000Z</time>
      </trkpt>
      <trkpt lat="48.67696" lon="2.04847">
        <ele>164.48837280273</ele>
        <time>2016-09-22T14:23:33.000Z</time>
      </trkpt>
      <trkpt lat="48.67694" lon="2.04845">
        <ele>164.4211730957</ele>
        <time>2016-09-22T14:23:35.000Z</time>
      </trkpt>
      <trkpt lat="48.67689" lon="2.04842">
        <ele>164.34017944336</ele>
        <time>2016-09-22T14:23:38.000Z</time>
      </trkpt>
      <trkpt lat="48.67686" lon="2.04839">
        <ele>164.25276184082</ele>
        <time>2016-09-22T14:23:41.000Z</time>
      </trkpt>
      <trkpt lat="48.67683" lon="2.04836">
        <ele>164.16026306152</ele>
        <time>2016-09-22T14:23:44.000Z</time>
      </trkpt>
      <trkpt lat="48.67681" lon="2.04834">
        <ele>164.04678344727</ele>
        <time>2016-09-22T14:23:46.000Z</time>
      </trkpt>
      <trkpt lat="48.67678" lon="2.04834">
        <ele>163.9185333252</ele>
        <time>2016-09-22T14:23:49.000Z</time>
      </trkpt>
      <trkpt lat="48.67677" lon="2.04834">
        <ele>163.81631469727</ele>
        <time>2016-09-22T14:23:52.000Z</time>
      </trkpt>
      <trkpt lat="48.67678" lon="2.04838">
        <ele>163.72094726562</ele>
        <time>2016-09-22T14:23:54.000Z</time>
      </trkpt>
      <trkpt lat="48.67678" lon="2.04841">
        <ele>163.62857055664</ele>
        <time>2016-09-22T14:23:57.000Z</time>
      </trkpt>
      <trkpt lat="48.67679" lon="2.04847">
        <ele>163.52749633789</ele>
        <time>2016-09-22T14:24:00.000Z</time>
      </trkpt>
      <trkpt lat="48.67677" lon="2.0485">
        <ele>163.40728759766</ele>
        <time>2016-09-22T14:24:03.000Z</time>
      </trkpt>
      <trkpt lat="48.67677" lon="2.04853">
        <ele>163.29307556152</ele>
        <time>2016-09-22T14:24:05.000Z</time>
      </trkpt>
      <trkpt lat="48.67679" lon="2.04856">
        <ele>163.19931030273</ele>
        <time>2016-09-22T14:24:08.000Z</time>
      </trkpt>
      <trkpt lat="48.67682" lon="2.0486">
        <ele>163.1330871582</ele>
        <time>2016-09-22T14:24:11.000Z</time>
      </trkpt>
      <trkpt lat="48.67683" lon="2.04862">
        <ele>163.0891418457</ele>
        <time>2016-09-22T14:24:13.000Z</time>
      </trkpt>
      <trkpt lat="48.67685" lon="2.04865">
        <ele>163.10957336426</ele>
        <time>2016-09-22T14:24:15.000Z</time>
      </trkpt>
      <trkpt lat="48.67686" lon="2.04869">
        <ele>163.14190673828</ele>
        <time>2016-09-22T14:24:18.000Z</time>
      </trkpt>
      <trkpt lat="48.67688" lon="2.04874">
        <ele>163.16931152344</ele>
        <time>2016-09-22T14:24:21.000Z</time>
      </trkpt>
      <trkpt lat="48.67689" lon="2.04878">
        <ele>163.17163085938</ele>
        <time>2016-09-22T14:24:23.000Z</time>
      </trkpt>
      <trkpt lat="48.67689" lon="2.04884">
        <ele>163.15333557129</ele>
        <time>2016-09-22T14:24:26.000Z</time>
      </trkpt>
      <trkpt lat="48.67691" lon="2.04891">
        <ele>163.1171875</ele>
        <time>2016-09-22T14:24:29.000Z</time>
      </trkpt>
      <trkpt lat="48.67694" lon="2.04895">
        <ele>163.10920715332</ele>
        <time>2016-09-22T14:24:32.000Z</time>
      </trkpt>
      <trkpt lat="48.67696" lon="2.04898">
        <ele>163.11828613281</ele>
        <time>2016-09-22T14:24:34.000Z</time>
      </trkpt>
      <trkpt lat="48.67698" lon="2.04903">
        <ele>163.15579223633</ele>
        <time>2016-09-22T14:24:37.000Z</time>
      </trkpt>
      <trkpt lat="48.67699" lon="2.04908">
        <ele>163.20971679688</ele>
        <time>2016-09-22T14:24:40.000Z</time>
      </trkpt>
      <trkpt lat="48.67699" lon="2.04911">
        <ele>163.25183105469</ele>
        <time>2016-09-22T14:24:42.000Z</time>
      </trkpt>
      <trkpt lat="48.67699" lon="2.04914">
        <ele>163.24349975586</ele>
        <time>2016-09-22T14:24:45.000Z</time>
      </trkpt>
      <trkpt lat="48.677" lon="2.04917">
        <ele>163.2261505127</ele>
        <time>2016-09-22T14:24:48.000Z</time>
      </trkpt>
      <trkpt lat="48.677" lon="2.04919">
        <ele>163.17834472656</ele>
        <time>2016-09-22T14:24:50.000Z</time>
      </trkpt>
      <trkpt lat="48.677" lon="2.04923">
        <ele>163.11839294434</ele>
        <time>2016-09-22T14:24:52.000Z</time>
      </trkpt>
      <trkpt lat="48.67701" lon="2.0493">
        <ele>163.0309753418</ele>
        <time>2016-09-22T14:24:55.000Z</time>
      </trkpt>
      <trkpt lat="48.67702" lon="2.04937">
        <ele>162.93769836426</ele>
        <time>2016-09-22T14:24:58.000Z</time>
      </trkpt>
      <trkpt lat="48.67703" lon="2.0494">
        <ele>162.83657836914</ele>
        <time>2016-09-22T14:25:00.000Z</time>
      </trkpt>
      <trkpt lat="48.67704" lon="2.04946">
        <ele>162.72650146484</ele>
        <time>2016-09-22T14:25:03.000Z</time>
      </trkpt>
      <trkpt lat="48.67704" lon="2.04951">
        <ele>162.60430908203</ele>
        <time>2016-09-22T14:25:05.000Z</time>
      </trkpt>
      <trkpt lat="48.67703" lon="2.04957">
        <ele>162.46536254883</ele>
        <time>2016-09-22T14:25:09.000Z</time>
      </trkpt>
      <trkpt lat="48.67704" lon="2.04961">
        <ele>162.32476806641</ele>
        <time>2016-09-22T14:25:12.000Z</time>
      </trkpt>
      <trkpt lat="48.67704" lon="2.04964">
        <ele>162.1615447998</ele>
        <time>2016-09-22T14:25:14.000Z</time>
      </trkpt>
      <trkpt lat="48.67703" lon="2.04967">
        <ele>161.98742675781</ele>
        <time>2016-09-22T14:25:16.000Z</time>
      </trkpt>
      <trkpt lat="48.67702" lon="2.04972">
        <ele>161.78857421875</ele>
        <time>2016-09-22T14:25:19.000Z</time>
      </trkpt>
      <trkpt lat="48.67701" lon="2.04979">
        <ele>161.57522583008</ele>
        <time>2016-09-22T14:25:22.000Z</time>
      </trkpt>
      <trkpt lat="48.677" lon="2.04985">
        <ele>161.32775878906</ele>
        <time>2016-09-22T14:25:25.000Z</time>
      </trkpt>
      <trkpt lat="48.67699" lon="2.04989">
        <ele>161.06945800781</ele>
        <time>2016-09-22T14:25:27.000Z</time>
      </trkpt>
      <trkpt lat="48.67699" lon="2.04992">
        <ele>160.81805419922</ele>
        <time>2016-09-22T14:25:29.000Z</time>
      </trkpt>
      <trkpt lat="48.67699" lon="2.04999">
        <ele>160.56854248047</ele>
        <time>2016-09-22T14:25:32.000Z</time>
      </trkpt>
      <trkpt lat="48.67699" lon="2.05003">
        <ele>160.36238098145</ele>
        <time>2016-09-22T14:25:34.000Z</time>
      </trkpt>
      <trkpt lat="48.67698" lon="2.05009">
        <ele>160.17147827148</ele>
        <time>2016-09-22T14:25:37.000Z</time>
      </trkpt>
      <trkpt lat="48.67697" lon="2.05013">
        <ele>159.98954772949</ele>
        <time>2016-09-22T14:25:39.000Z</time>
      </trkpt>
      <trkpt lat="48.67696" lon="2.05018">
        <ele>159.80583190918</ele>
        <time>2016-09-22T14:25:41.000Z</time>
      </trkpt>
      <trkpt lat="48.67696" lon="2.05024">
        <ele>159.6448059082</ele>
        <time>2016-09-22T14:25:44.000Z</time>
      </trkpt>
      <trkpt lat="48.67695" lon="2.05029">
        <ele>159.47900390625</ele>
        <time>2016-09-22T14:25:46.000Z</time>
      </trkpt>
      <trkpt lat="48.67695" lon="2.05035">
        <ele>159.33486938477</ele>
        <time>2016-09-22T14:25:49.000Z</time>
      </trkpt>
      <trkpt lat="48.67695" lon="2.05041">
        <ele>159.1951751709</ele>
        <time>2016-09-22T14:25:52.000Z</time>
      </trkpt>
      <trkpt lat="48.67696" lon="2.05044">
        <ele>159.07249450684</ele>
        <time>2016-09-22T14:25:54.000Z</time>
      </trkpt>
      <trkpt lat="48.67695" lon="2.0505">
        <ele>158.95352172852</ele>
        <time>2016-09-22T14:25:57.000Z</time>
      </trkpt>
      <trkpt lat="48.67695" lon="2.05055">
        <ele>158.84074401855</ele>
        <time>2016-09-22T14:25:59.000Z</time>
      </trkpt>
      <trkpt lat="48.67694" lon="2.0506">
        <ele>158.72970581055</ele>
        <time>2016-09-22T14:26:01.000Z</time>
      </trkpt>
      <trkpt lat="48.67694" lon="2.05065">
        <ele>158.60661315918</ele>
        <time>2016-09-22T14:26:03.000Z</time>
      </trkpt>
      <trkpt lat="48.67695" lon="2.05071">
        <ele>158.48696899414</ele>
        <time>2016-09-22T14:26:06.000Z</time>
      </trkpt>
      <trkpt lat="48.67696" lon="2.05077">
        <ele>158.38418579102</ele>
        <time>2016-09-22T14:26:09.000Z</time>
      </trkpt>
      <trkpt lat="48.67694" lon="2.05081">
        <ele>158.27412414551</ele>
        <time>2016-09-22T14:26:11.000Z</time>
      </trkpt>
      <trkpt lat="48.67694" lon="2.05086">
        <ele>158.16371154785</ele>
        <time>2016-09-22T14:26:14.000Z</time>
      </trkpt>
      <trkpt lat="48.67694" lon="2.05089">
        <ele>158.08226013184</ele>
        <time>2016-09-22T14:26:16.000Z</time>
      </trkpt>
      <trkpt lat="48.67694" lon="2.05095">
        <ele>157.98626708984</ele>
        <time>2016-09-22T14:26:19.000Z</time>
      </trkpt>
      <trkpt lat="48.67694" lon="2.05099">
        <ele>157.89192199707</ele>
        <time>2016-09-22T14:26:21.000Z</time>
      </trkpt>
      <trkpt lat="48.67695" lon="2.05102">
        <ele>157.82844543457</ele>
        <time>2016-09-22T14:26:23.000Z</time>
      </trkpt>
      <trkpt lat="48.67695" lon="2.05107">
        <ele>157.77874755859</ele>
        <time>2016-09-22T14:26:26.000Z</time>
      </trkpt>
      <trkpt lat="48.67694" lon="2.05112">
        <ele>157.70590209961</ele>
        <time>2016-09-22T14:26:29.000Z</time>
      </trkpt>
      <trkpt lat="48.67693" lon="2.05117">
        <ele>157.61921691895</ele>
        <time>2016-09-22T14:26:32.000Z</time>
      </trkpt>
      <trkpt lat="48.67694" lon="2.0512">
        <ele>157.53866577148</ele>
        <time>2016-09-22T14:26:34.000Z</time>
      </trkpt>
      <trkpt lat="48.67694" lon="2.05126">
        <ele>157.45388793945</ele>
        <time>2016-09-22T14:26:37.000Z</time>
      </trkpt>
      <trkpt lat="48.67695" lon="2.05131">
        <ele>157.37646484375</ele>
        <time>2016-09-22T14:26:39.000Z</time>
      </trkpt>
      <trkpt lat="48.67695" lon="2.05136">
        <ele>157.30654907227</ele>
        <time>2016-09-22T14:26:41.000Z</time>
      </trkpt>
      <trkpt lat="48.67694" lon="2.05141">
        <ele>157.24751281738</ele>
        <time>2016-09-22T14:26:44.000Z</time>
      </trkpt>
      <trkpt lat="48.67693" lon="2.05145">
        <ele>157.1548614502</ele>
        <time>2016-09-22T14:27:01.000Z</time>
      </trkpt>
      <trkpt lat="48.67693" lon="2.05146">
        <ele>157.06625366211</ele>
        <time>2016-09-22T14:27:05.000Z</time>
      </trkpt>
      <trkpt lat="48.67694" lon="2.05146">
        <ele>157.00180053711</ele>
        <time>2016-09-22T14:27:07.000Z</time>
      </trkpt>
      <trkpt lat="48.67698" lon="2.05148">
        <ele>156.99171447754</ele>
        <time>2016-09-22T14:27:27.000Z</time>
      </trkpt>
      <trkpt lat="48.677" lon="2.05154">
        <ele>157.02169799805</ele>
        <time>2016-09-22T14:27:30.000Z</time>
      </trkpt>
      <trkpt lat="48.67702" lon="2.0516">
        <ele>157.0989074707</ele>
        <time>2016-09-22T14:27:33.000Z</time>
      </trkpt>
      <trkpt lat="48.67704" lon="2.05163">
        <ele>157.17956542969</ele>
        <time>2016-09-22T14:27:35.000Z</time>
      </trkpt>
      <trkpt lat="48.67705" lon="2.05166">
        <ele>157.24540710449</ele>
        <time>2016-09-22T14:27:37.000Z</time>
      </trkpt>
      <trkpt lat="48.67707" lon="2.05171">
        <ele>157.25109863281</ele>
        <time>2016-09-22T14:27:40.000Z</time>
      </trkpt>
      <trkpt lat="48.6771" lon="2.05177">
        <ele>157.18420410156</ele>
        <time>2016-09-22T14:27:43.000Z</time>
      </trkpt>
      <trkpt lat="48.6771" lon="2.05181">
        <ele>157.0630645752</ele>
        <time>2016-09-22T14:27:45.000Z</time>
      </trkpt>
      <trkpt lat="48.67714" lon="2.05184">
        <ele>156.9308013916</ele>
        <time>2016-09-22T14:27:48.000Z</time>
      </trkpt>
      <trkpt lat="48.67716" lon="2.05187">
        <ele>156.7776184082</ele>
        <time>2016-09-22T14:27:51.000Z</time>
      </trkpt>
      <trkpt lat="48.67717" lon="2.05189">
        <ele>156.64459228516</ele>
        <time>2016-09-22T14:27:53.000Z</time>
      </trkpt>
      <trkpt lat="48.6772" lon="2.05194">
        <ele>156.51748657227</ele>
        <time>2016-09-22T14:27:56.000Z</time>
      </trkpt>
      <trkpt lat="48.67721" lon="2.05198">
        <ele>156.3807220459</ele>
        <time>2016-09-22T14:27:59.000Z</time>
      </trkpt>
      <trkpt lat="48.67722" lon="2.05202">
        <ele>156.20741271973</ele>
        <time>2016-09-22T14:28:02.000Z</time>
      </trkpt>
      <trkpt lat="48.67723" lon="2.05203">
        <ele>156.05619812012</ele>
        <time>2016-09-22T14:28:04.000Z</time>
      </trkpt>
      <trkpt lat="48.67727" lon="2.05203">
        <ele>155.94804382324</ele>
        <time>2016-09-22T14:28:07.000Z</time>
      </trkpt>
      <trkpt lat="48.67729" lon="2.05203">
        <ele>155.89375305176</ele>
        <time>2016-09-22T14:28:10.000Z</time>
      </trkpt>
      <trkpt lat="48.67731" lon="2.05205">
        <ele>155.88375854492</ele>
        <time>2016-09-22T14:28:15.000Z</time>
      </trkpt>
      <trkpt lat="48.67731" lon="2.05208">
        <ele>155.88662719727</ele>
        <time>2016-09-22T14:28:18.000Z</time>
      </trkpt>
      <trkpt lat="48.67731" lon="2.05211">
        <ele>155.82975769043</ele>
        <time>2016-09-22T14:28:21.000Z</time>
      </trkpt>
      <trkpt lat="48.67731" lon="2.05214">
        <ele>155.69003295898</ele>
        <time>2016-09-22T14:28:25.000Z</time>
      </trkpt>
      <trkpt lat="48.6773" lon="2.05217">
        <ele>155.50134277344</ele>
        <time>2016-09-22T14:28:27.000Z</time>
      </trkpt>
      <trkpt lat="48.67731" lon="2.0522">
        <ele>155.27151489258</ele>
        <time>2016-09-22T14:28:30.000Z</time>
      </trkpt>
      <trkpt lat="48.67731" lon="2.0522">
        <ele>155.27151489258</ele>
        <time>2016-09-22T14:28:50.000Z</time>
      </trkpt>
      <trkpt lat="48.67727" lon="2.05218">
        <ele>155.07650756836</ele>
        <time>2016-09-22T14:29:18.000Z</time>
      </trkpt>
      <trkpt lat="48.67727" lon="2.0522">
        <ele>154.91386413574</ele>
        <time>2016-09-22T14:29:34.000Z</time>
      </trkpt>
      <trkpt lat="48.67728" lon="2.05218">
        <ele>154.83558654785</ele>
        <time>2016-09-22T14:29:36.000Z</time>
      </trkpt>
      <trkpt lat="48.6773" lon="2.05219">
        <ele>154.79934692383</ele>
        <time>2016-09-22T14:29:38.000Z</time>
      </trkpt>
      <trkpt lat="48.67735" lon="2.05222">
        <ele>154.8031463623</ele>
        <time>2016-09-22T14:29:47.000Z</time>
      </trkpt>
      <trkpt lat="48.67737" lon="2.05224">
        <ele>154.79165649414</ele>
        <time>2016-09-22T14:30:00.000Z</time>
      </trkpt>
      <trkpt lat="48.67741" lon="2.05226">
        <ele>154.79306030273</ele>
        <time>2016-09-22T14:30:03.000Z</time>
      </trkpt>
      <trkpt lat="48.67745" lon="2.05228">
        <ele>154.75047302246</ele>
        <time>2016-09-22T14:30:06.000Z</time>
      </trkpt>
      <trkpt lat="48.67747" lon="2.0523">
        <ele>154.68547058105</ele>
        <time>2016-09-22T14:30:08.000Z</time>
      </trkpt>
      <trkpt lat="48.67751" lon="2.05234">
        <ele>154.60902404785</ele>
        <time>2016-09-22T14:30:11.000Z</time>
      </trkpt>
      <trkpt lat="48.67752" lon="2.05239">
        <ele>154.49465942383</ele>
        <time>2016-09-22T14:30:13.000Z</time>
      </trkpt>
      <trkpt lat="48.67756" lon="2.05244">
        <ele>154.38861083984</ele>
        <time>2016-09-22T14:30:16.000Z</time>
      </trkpt>
      <trkpt lat="48.67762" lon="2.05246">
        <ele>154.35043334961</ele>
        <time>2016-09-22T14:30:19.000Z</time>
      </trkpt>
      <trkpt lat="48.67766" lon="2.05248">
        <ele>154.37673950195</ele>
        <time>2016-09-22T14:30:21.000Z</time>
      </trkpt>
      <trkpt lat="48.67771" lon="2.05253">
        <ele>154.41459655762</ele>
        <time>2016-09-22T14:30:24.000Z</time>
      </trkpt>
      <trkpt lat="48.67775" lon="2.05256">
        <ele>154.54573059082</ele>
        <time>2016-09-22T14:30:26.000Z</time>
      </trkpt>
      <trkpt lat="48.67781" lon="2.05256">
        <ele>154.77348327637</ele>
        <time>2016-09-22T14:30:28.000Z</time>
      </trkpt>
      <trkpt lat="48.67786" lon="2.05257">
        <ele>155.00593566895</ele>
        <time>2016-09-22T14:30:31.000Z</time>
      </trkpt>
      <trkpt lat="48.67791" lon="2.05259">
        <ele>155.27255249023</ele>
        <time>2016-09-22T14:30:34.000Z</time>
      </trkpt>
      <trkpt lat="48.67795" lon="2.05261">
        <ele>155.56951904297</ele>
        <time>2016-09-22T14:30:36.000Z</time>
      </trkpt>
      <trkpt lat="48.67801" lon="2.05264">
        <ele>155.88208007812</ele>
        <time>2016-09-22T14:30:39.000Z</time>
      </trkpt>
      <trkpt lat="48.67804" lon="2.05266">
        <ele>156.10534667969</ele>
        <time>2016-09-22T14:30:41.000Z</time>
      </trkpt>
      <trkpt lat="48.67807" lon="2.05269">
        <ele>156.2583770752</ele>
        <time>2016-09-22T14:30:44.000Z</time>
      </trkpt>
      <trkpt lat="48.67808" lon="2.05273">
        <ele>156.28381347656</ele>
        <time>2016-09-22T14:30:47.000Z</time>
      </trkpt>
      <trkpt lat="48.67812" lon="2.05275">
        <ele>156.31597900391</ele>
        <time>2016-09-22T14:30:50.000Z</time>
      </trkpt>
      <trkpt lat="48.67815" lon="2.05275">
        <ele>156.36541748047</ele>
        <time>2016-09-22T14:30:52.000Z</time>
      </trkpt>
      <trkpt lat="48.67822" lon="2.05274">
        <ele>156.54971313477</ele>
        <time>2016-09-22T14:30:55.000Z</time>
      </trkpt>
      <trkpt lat="48.67826" lon="2.05274">
        <ele>156.81335449219</ele>
        <time>2016-09-22T14:30:57.000Z</time>
      </trkpt>
      <trkpt lat="48.6783" lon="2.05274">
        <ele>157.20352172852</ele>
        <time>2016-09-22T14:30:59.000Z</time>
      </trkpt>
      <trkpt lat="48.67834" lon="2.05275">
        <ele>157.6088104248</ele>
        <time>2016-09-22T14:31:02.000Z</time>
      </trkpt>
      <trkpt lat="48.67836" lon="2.05277">
        <ele>157.94581604004</ele>
        <time>2016-09-22T14:31:04.000Z</time>
      </trkpt>
      <trkpt lat="48.67839" lon="2.0528">
        <ele>158.12614440918</ele>
        <time>2016-09-22T14:31:07.000Z</time>
      </trkpt>
      <trkpt lat="48.67842" lon="2.05281">
        <ele>158.24235534668</ele>
        <time>2016-09-22T14:31:09.000Z</time>
      </trkpt>
      <trkpt lat="48.67844" lon="2.05284">
        <ele>158.26615905762</ele>
        <time>2016-09-22T14:31:11.000Z</time>
      </trkpt>
      <trkpt lat="48.67845" lon="2.05288">
        <ele>158.16763305664</ele>
        <time>2016-09-22T14:31:14.000Z</time>
      </trkpt>
      <trkpt lat="48.67845" lon="2.05291">
        <ele>158.01962280273</ele>
        <time>2016-09-22T14:31:16.000Z</time>
      </trkpt>
      <trkpt lat="48.67847" lon="2.05293">
        <ele>157.87797546387</ele>
        <time>2016-09-22T14:31:19.000Z</time>
      </trkpt>
      <trkpt lat="48.67849" lon="2.05296">
        <ele>157.69755554199</ele>
        <time>2016-09-22T14:31:21.000Z</time>
      </trkpt>
      <trkpt lat="48.67852" lon="2.05298">
        <ele>157.54866027832</ele>
        <time>2016-09-22T14:31:24.000Z</time>
      </trkpt>
      <trkpt lat="48.67858" lon="2.05298">
        <ele>157.56925964355</ele>
        <time>2016-09-22T14:31:27.000Z</time>
      </trkpt>
      <trkpt lat="48.67862" lon="2.053">
        <ele>157.6743927002</ele>
        <time>2016-09-22T14:31:29.000Z</time>
      </trkpt>
      <trkpt lat="48.67865" lon="2.05301">
        <ele>157.81649780273</ele>
        <time>2016-09-22T14:31:31.000Z</time>
      </trkpt>
      <trkpt lat="48.67868" lon="2.05303">
        <ele>157.99154663086</ele>
        <time>2016-09-22T14:31:34.000Z</time>
      </trkpt>
      <trkpt lat="48.6787" lon="2.05306">
        <ele>158.14405822754</ele>
        <time>2016-09-22T14:31:37.000Z</time>
      </trkpt>
      <trkpt lat="48.67872" lon="2.05307">
        <ele>158.21336364746</ele>
        <time>2016-09-22T14:31:39.000Z</time>
      </trkpt>
      <trkpt lat="48.67874" lon="2.0531">
        <ele>158.22883605957</ele>
        <time>2016-09-22T14:31:41.000Z</time>
      </trkpt>
      <trkpt lat="48.67876" lon="2.05314">
        <ele>158.16938781738</ele>
        <time>2016-09-22T14:31:44.000Z</time>
      </trkpt>
      <trkpt lat="48.67883" lon="2.05315">
        <ele>158.21228027344</ele>
        <time>2016-09-22T14:31:47.000Z</time>
      </trkpt>
      <trkpt lat="48.67889" lon="2.05312">
        <ele>158.42984008789</ele>
        <time>2016-09-22T14:31:50.000Z</time>
      </trkpt>
      <trkpt lat="48.67895" lon="2.05316">
        <ele>158.67294311523</ele>
        <time>2016-09-22T14:31:53.000Z</time>
      </trkpt>
      <trkpt lat="48.67898" lon="2.05321">
        <ele>158.90353393555</ele>
        <time>2016-09-22T14:31:56.000Z</time>
      </trkpt>
      <trkpt lat="48.679" lon="2.05324">
        <ele>159.15872192383</ele>
        <time>2016-09-22T14:31:58.000Z</time>
      </trkpt>
      <trkpt lat="48.67902" lon="2.05325">
        <ele>159.31893920898</ele>
        <time>2016-09-22T14:32:00.000Z</time>
      </trkpt>
      <trkpt lat="48.67904" lon="2.05328">
        <ele>159.32073974609</ele>
        <time>2016-09-22T14:32:03.000Z</time>
      </trkpt>
      <trkpt lat="48.67905" lon="2.05332">
        <ele>159.22203063965</ele>
        <time>2016-09-22T14:32:06.000Z</time>
      </trkpt>
      <trkpt lat="48.67908" lon="2.05335">
        <ele>159.1455078125</ele>
        <time>2016-09-22T14:32:09.000Z</time>
      </trkpt>
      <trkpt lat="48.67913" lon="2.05336">
        <ele>159.1589050293</ele>
        <time>2016-09-22T14:32:12.000Z</time>
      </trkpt>
      <trkpt lat="48.67915" lon="2.05337">
        <ele>159.16593933105</ele>
        <time>2016-09-22T14:32:14.000Z</time>
      </trkpt>
      <trkpt lat="48.67918" lon="2.05338">
        <ele>159.16459655762</ele>
        <time>2016-09-22T14:32:16.000Z</time>
      </trkpt>
      <trkpt lat="48.6792" lon="2.0534">
        <ele>159.22836303711</ele>
        <time>2016-09-22T14:32:18.000Z</time>
      </trkpt>
      <trkpt lat="48.67922" lon="2.0534">
        <ele>159.31498718262</ele>
        <time>2016-09-22T14:32:20.000Z</time>
      </trkpt>
      <trkpt lat="48.67926" lon="2.05342">
        <ele>159.32531738281</ele>
        <time>2016-09-22T14:32:23.000Z</time>
      </trkpt>
      <trkpt lat="48.67931" lon="2.05344">
        <ele>159.33918762207</ele>
        <time>2016-09-22T14:32:25.000Z</time>
      </trkpt>
      <trkpt lat="48.67935" lon="2.05347">
        <ele>159.33619689941</ele>
        <time>2016-09-22T14:32:28.000Z</time>
      </trkpt>
      <trkpt lat="48.67938" lon="2.05351">
        <ele>159.26467895508</ele>
        <time>2016-09-22T14:32:31.000Z</time>
      </trkpt>
      <trkpt lat="48.67942" lon="2.05353">
        <ele>159.17092895508</ele>
        <time>2016-09-22T14:32:33.000Z</time>
      </trkpt>
      <trkpt lat="48.67946" lon="2.05355">
        <ele>159.11108398438</ele>
        <time>2016-09-22T14:32:36.000Z</time>
      </trkpt>
      <trkpt lat="48.67948" lon="2.05356">
        <ele>159.03852844238</ele>
        <time>2016-09-22T14:32:38.000Z</time>
      </trkpt>
      <trkpt lat="48.67952" lon="2.05357">
        <ele>159.00137329102</ele>
        <time>2016-09-22T14:32:41.000Z</time>
      </trkpt>
      <trkpt lat="48.67953" lon="2.05359">
        <ele>159.02224731445</ele>
        <time>2016-09-22T14:32:44.000Z</time>
      </trkpt>
      <trkpt lat="48.67954" lon="2.05362">
        <ele>158.9983215332</ele>
        <time>2016-09-22T14:32:46.000Z</time>
      </trkpt>
      <trkpt lat="48.67957" lon="2.05365">
        <ele>158.9068145752</ele>
        <time>2016-09-22T14:32:49.000Z</time>
      </trkpt>
      <trkpt lat="48.6796" lon="2.05369">
        <ele>158.78329467773</ele>
        <time>2016-09-22T14:32:52.000Z</time>
      </trkpt>
      <trkpt lat="48.67965" lon="2.05372">
        <ele>158.65835571289</ele>
        <time>2016-09-22T14:32:55.000Z</time>
      </trkpt>
      <trkpt lat="48.67967" lon="2.05373">
        <ele>158.54354858398</ele>
        <time>2016-09-22T14:32:57.000Z</time>
      </trkpt>
      <trkpt lat="48.6797" lon="2.05374">
        <ele>158.4952545166</ele>
        <time>2016-09-22T14:32:59.000Z</time>
      </trkpt>
      <trkpt lat="48.67973" lon="2.05375">
        <ele>158.52265930176</ele>
        <time>2016-09-22T14:33:02.000Z</time>
      </trkpt>
      <trkpt lat="48.67975" lon="2.05376">
        <ele>158.58863830566</ele>
        <time>2016-09-22T14:33:04.000Z</time>
      </trkpt>
      <trkpt lat="48.67976" lon="2.0538">
        <ele>158.59100341797</ele>
        <time>2016-09-22T14:33:07.000Z</time>
      </trkpt>
      <trkpt lat="48.67978" lon="2.05383">
        <ele>158.55740356445</ele>
        <time>2016-09-22T14:33:10.000Z</time>
      </trkpt>
      <trkpt lat="48.67981" lon="2.05384">
        <ele>158.53395080566</ele>
        <time>2016-09-22T14:33:12.000Z</time>
      </trkpt>
      <trkpt lat="48.67984" lon="2.05386">
        <ele>158.5040435791</ele>
        <time>2016-09-22T14:33:15.000Z</time>
      </trkpt>
      <trkpt lat="48.67986" lon="2.0539">
        <ele>158.40422058105</ele>
        <time>2016-09-22T14:33:18.000Z</time>
      </trkpt>
      <trkpt lat="48.67989" lon="2.05395">
        <ele>158.32992553711</ele>
        <time>2016-09-22T14:33:21.000Z</time>
      </trkpt>
      <trkpt lat="48.67991" lon="2.05396">
        <ele>158.29458618164</ele>
        <time>2016-09-22T14:33:23.000Z</time>
      </trkpt>
      <trkpt lat="48.67992" lon="2.05397">
        <ele>158.21893310547</ele>
        <time>2016-09-22T14:33:25.000Z</time>
      </trkpt>
      <trkpt lat="48.67996" lon="2.05398">
        <ele>158.20315551758</ele>
        <time>2016-09-22T14:33:28.000Z</time>
      </trkpt>
      <trkpt lat="48.67999" lon="2.05398">
        <ele>158.29658508301</ele>
        <time>2016-09-22T14:33:30.000Z</time>
      </trkpt>
      <trkpt lat="48.68005" lon="2.054">
        <ele>158.41494750977</ele>
        <time>2016-09-22T14:33:33.000Z</time>
      </trkpt>
      <trkpt lat="48.68008" lon="2.05403">
        <ele>158.50674438477</ele>
        <time>2016-09-22T14:33:36.000Z</time>
      </trkpt>
      <trkpt lat="48.68009" lon="2.05406">
        <ele>158.58027648926</ele>
        <time>2016-09-22T14:33:38.000Z</time>
      </trkpt>
      <trkpt lat="48.68011" lon="2.05408">
        <ele>158.53060913086</ele>
        <time>2016-09-22T14:33:40.000Z</time>
      </trkpt>
      <trkpt lat="48.68014" lon="2.05411">
        <ele>158.41561889648</ele>
        <time>2016-09-22T14:33:42.000Z</time>
      </trkpt>
      <trkpt lat="48.68017" lon="2.05413">
        <ele>158.28929138184</ele>
        <time>2016-09-22T14:33:44.000Z</time>
      </trkpt>
      <trkpt lat="48.68021" lon="2.05414">
        <ele>158.21189880371</ele>
        <time>2016-09-22T14:33:46.000Z</time>
      </trkpt>
      <trkpt lat="48.68025" lon="2.05416">
        <ele>158.18661499023</ele>
        <time>2016-09-22T14:33:49.000Z</time>
      </trkpt>
      <trkpt lat="48.6803" lon="2.05417">
        <ele>158.2300567627</ele>
        <time>2016-09-22T14:33:52.000Z</time>
      </trkpt>
      <trkpt lat="48.68034" lon="2.05419">
        <ele>158.25442504883</ele>
        <time>2016-09-22T14:33:55.000Z</time>
      </trkpt>
      <trkpt lat="48.68037" lon="2.05422">
        <ele>158.20652770996</ele>
        <time>2016-09-22T14:33:58.000Z</time>
      </trkpt>
      <trkpt lat="48.68043" lon="2.05424">
        <ele>158.13525390625</ele>
        <time>2016-09-22T14:34:01.000Z</time>
      </trkpt>
      <trkpt lat="48.68044" lon="2.05425">
        <ele>158.00967407227</ele>
        <time>2016-09-22T14:34:03.000Z</time>
      </trkpt>
      <trkpt lat="48.68048" lon="2.05428">
        <ele>157.77554321289</ele>
        <time>2016-09-22T14:34:06.000Z</time>
      </trkpt>
      <trkpt lat="48.68051" lon="2.05429">
        <ele>157.58322143555</ele>
        <time>2016-09-22T14:34:08.000Z</time>
      </trkpt>
      <trkpt lat="48.68055" lon="2.0543">
        <ele>157.46817016602</ele>
        <time>2016-09-22T14:34:11.000Z</time>
      </trkpt>
      <trkpt lat="48.68057" lon="2.05432">
        <ele>157.30633544922</ele>
        <time>2016-09-22T14:34:13.000Z</time>
      </trkpt>
      <trkpt lat="48.6806" lon="2.05435">
        <ele>157.11140441895</ele>
        <time>2016-09-22T14:34:16.000Z</time>
      </trkpt>
      <trkpt lat="48.68063" lon="2.05437">
        <ele>156.9585723877</ele>
        <time>2016-09-22T14:34:19.000Z</time>
      </trkpt>
      <trkpt lat="48.68064" lon="2.0544">
        <ele>156.72903442383</ele>
        <time>2016-09-22T14:34:21.000Z</time>
      </trkpt>
      <trkpt lat="48.68066" lon="2.05443">
        <ele>156.42231750488</ele>
        <time>2016-09-22T14:34:25.000Z</time>
      </trkpt>
      <trkpt lat="48.68068" lon="2.05445">
        <ele>156.10478210449</ele>
        <time>2016-09-22T14:34:26.000Z</time>
      </trkpt>
      <trkpt lat="48.68071" lon="2.05449">
        <ele>155.76553344727</ele>
        <time>2016-09-22T14:34:29.000Z</time>
      </trkpt>
      <trkpt lat="48.68074" lon="2.05453">
        <ele>155.35131835938</ele>
        <time>2016-09-22T14:34:32.000Z</time>
      </trkpt>
      <trkpt lat="48.68077" lon="2.05456">
        <ele>154.92785644531</ele>
        <time>2016-09-22T14:34:35.000Z</time>
      </trkpt>
      <trkpt lat="48.6808" lon="2.05458">
        <ele>154.55505371094</ele>
        <time>2016-09-22T14:34:38.000Z</time>
      </trkpt>
      <trkpt lat="48.68084" lon="2.05461">
        <ele>154.19856262207</ele>
        <time>2016-09-22T14:34:41.000Z</time>
      </trkpt>
      <trkpt lat="48.68087" lon="2.05462">
        <ele>153.90901184082</ele>
        <time>2016-09-22T14:34:43.000Z</time>
      </trkpt>
      <trkpt lat="48.6809" lon="2.05464">
        <ele>153.67753601074</ele>
        <time>2016-09-22T14:34:45.000Z</time>
      </trkpt>
      <trkpt lat="48.68092" lon="2.05466">
        <ele>153.47877502441</ele>
        <time>2016-09-22T14:34:47.000Z</time>
      </trkpt>
      <trkpt lat="48.68095" lon="2.0547">
        <ele>153.23338317871</ele>
        <time>2016-09-22T14:34:50.000Z</time>
      </trkpt>
      <trkpt lat="48.681" lon="2.05471">
        <ele>153.03804016113</ele>
        <time>2016-09-22T14:34:53.000Z</time>
      </trkpt>
      <trkpt lat="48.68103" lon="2.05473">
        <ele>152.81582641602</ele>
        <time>2016-09-22T14:34:56.000Z</time>
      </trkpt>
      <trkpt lat="48.68106" lon="2.05476">
        <ele>152.59228515625</ele>
        <time>2016-09-22T14:34:59.000Z</time>
      </trkpt>
      <trkpt lat="48.68109" lon="2.05478">
        <ele>152.41058349609</ele>
        <time>2016-09-22T14:35:01.000Z</time>
      </trkpt>
      <trkpt lat="48.68114" lon="2.05478">
        <ele>152.34484863281</ele>
        <time>2016-09-22T14:35:04.000Z</time>
      </trkpt>
      <trkpt lat="48.68118" lon="2.05481">
        <ele>152.27090454102</ele>
        <time>2016-09-22T14:35:10.000Z</time>
      </trkpt>
      <trkpt lat="48.68119" lon="2.05483">
        <ele>152.21366882324</ele>
        <time>2016-09-22T14:35:13.000Z</time>
      </trkpt>
      <trkpt lat="48.68121" lon="2.05486">
        <ele>152.14726257324</ele>
        <time>2016-09-22T14:35:15.000Z</time>
      </trkpt>
      <trkpt lat="48.68125" lon="2.05489">
        <ele>152.07119750977</ele>
        <time>2016-09-22T14:35:18.000Z</time>
      </trkpt>
      <trkpt lat="48.68129" lon="2.05491">
        <ele>151.9797668457</ele>
        <time>2016-09-22T14:35:21.000Z</time>
      </trkpt>
      <trkpt lat="48.68131" lon="2.05493">
        <ele>151.86944580078</ele>
        <time>2016-09-22T14:35:23.000Z</time>
      </trkpt>
      <trkpt lat="48.68134" lon="2.05495">
        <ele>151.79090881348</ele>
        <time>2016-09-22T14:35:26.000Z</time>
      </trkpt>
      <trkpt lat="48.68136" lon="2.05499">
        <ele>151.7357635498</ele>
        <time>2016-09-22T14:35:28.000Z</time>
      </trkpt>
      <trkpt lat="48.6814" lon="2.05504">
        <ele>151.63455200195</ele>
        <time>2016-09-22T14:35:31.000Z</time>
      </trkpt>
      <trkpt lat="48.68142" lon="2.05507">
        <ele>151.46469116211</ele>
        <time>2016-09-22T14:35:33.000Z</time>
      </trkpt>
      <trkpt lat="48.68145" lon="2.0551">
        <ele>151.27560424805</ele>
        <time>2016-09-22T14:35:35.000Z</time>
      </trkpt>
      <trkpt lat="48.68148" lon="2.05514">
        <ele>151.00044250488</ele>
        <time>2016-09-22T14:35:38.000Z</time>
      </trkpt>
      <trkpt lat="48.68149" lon="2.05516">
        <ele>150.73738098145</ele>
        <time>2016-09-22T14:35:40.000Z</time>
      </trkpt>
      <trkpt lat="48.68151" lon="2.05517">
        <ele>150.54672241211</ele>
        <time>2016-09-22T14:35:42.000Z</time>
      </trkpt>
      <trkpt lat="48.68155" lon="2.0552">
        <ele>150.38078308105</ele>
        <time>2016-09-22T14:35:45.000Z</time>
      </trkpt>
      <trkpt lat="48.68157" lon="2.05522">
        <ele>150.23782348633</ele>
        <time>2016-09-22T14:35:47.000Z</time>
      </trkpt>
      <trkpt lat="48.68158" lon="2.05524">
        <ele>150.13333129883</ele>
        <time>2016-09-22T14:35:49.000Z</time>
      </trkpt>
      <trkpt lat="48.6816" lon="2.05527">
        <ele>149.99795532227</ele>
        <time>2016-09-22T14:35:52.000Z</time>
      </trkpt>
      <trkpt lat="48.68162" lon="2.05532">
        <ele>149.74472045898</ele>
        <time>2016-09-22T14:35:55.000Z</time>
      </trkpt>
      <trkpt lat="48.68164" lon="2.05536">
        <ele>149.4165802002</ele>
        <time>2016-09-22T14:35:58.000Z</time>
      </trkpt>
      <trkpt lat="48.68166" lon="2.05539">
        <ele>149.0599822998</ele>
        <time>2016-09-22T14:36:00.000Z</time>
      </trkpt>
      <trkpt lat="48.68169" lon="2.05542">
        <ele>148.70957946777</ele>
        <time>2016-09-22T14:36:02.000Z</time>
      </trkpt>
      <trkpt lat="48.68172" lon="2.05545">
        <ele>148.41772460938</ele>
        <time>2016-09-22T14:36:05.000Z</time>
      </trkpt>
      <trkpt lat="48.68176" lon="2.05548">
        <ele>148.24215698242</ele>
        <time>2016-09-22T14:36:08.000Z</time>
      </trkpt>
      <trkpt lat="48.6818" lon="2.0555">
        <ele>148.17684936523</ele>
        <time>2016-09-22T14:36:11.000Z</time>
      </trkpt>
      <trkpt lat="48.68182" lon="2.05553">
        <ele>148.13475036621</ele>
        <time>2016-09-22T14:36:13.000Z</time>
      </trkpt>
      <trkpt lat="48.68183" lon="2.05557">
        <ele>148.07160949707</ele>
        <time>2016-09-22T14:36:15.000Z</time>
      </trkpt>
      <trkpt lat="48.68184" lon="2.05563">
        <ele>147.86701965332</ele>
        <time>2016-09-22T14:36:18.000Z</time>
      </trkpt>
      <trkpt lat="48.68184" lon="2.05567">
        <ele>147.58906555176</ele>
        <time>2016-09-22T14:36:20.000Z</time>
      </trkpt>
      <trkpt lat="48.68187" lon="2.05572">
        <ele>147.24200439453</ele>
        <time>2016-09-22T14:36:23.000Z</time>
      </trkpt>
      <trkpt lat="48.68189" lon="2.05574">
        <ele>146.92637634277</ele>
        <time>2016-09-22T14:36:25.000Z</time>
      </trkpt>
      <trkpt lat="48.68193" lon="2.05575">
        <ele>146.75253295898</ele>
        <time>2016-09-22T14:36:27.000Z</time>
      </trkpt>
      <trkpt lat="48.68196" lon="2.05577">
        <ele>146.77612304688</ele>
        <time>2016-09-22T14:36:29.000Z</time>
      </trkpt>
      <trkpt lat="48.68198" lon="2.05579">
        <ele>146.87777709961</ele>
        <time>2016-09-22T14:36:31.000Z</time>
      </trkpt>
      <trkpt lat="48.682" lon="2.05582">
        <ele>147.04776000977</ele>
        <time>2016-09-22T14:36:34.000Z</time>
      </trkpt>
      <trkpt lat="48.68203" lon="2.05586">
        <ele>147.21394348145</ele>
        <time>2016-09-22T14:36:37.000Z</time>
      </trkpt>
      <trkpt lat="48.68206" lon="2.0559">
        <ele>147.30755615234</ele>
        <time>2016-09-22T14:36:40.000Z</time>
      </trkpt>
      <trkpt lat="48.68209" lon="2.05595">
        <ele>147.36201477051</ele>
        <time>2016-09-22T14:36:43.000Z</time>
      </trkpt>
      <trkpt lat="48.6821" lon="2.056">
        <ele>147.35263061523</ele>
        <time>2016-09-22T14:36:46.000Z</time>
      </trkpt>
      <trkpt lat="48.68211" lon="2.05602">
        <ele>147.29402160645</ele>
        <time>2016-09-22T14:36:48.000Z</time>
      </trkpt>
      <trkpt lat="48.68212" lon="2.05606">
        <ele>147.21762084961</ele>
        <time>2016-09-22T14:36:51.000Z</time>
      </trkpt>
      <trkpt lat="48.68214" lon="2.0561">
        <ele>147.13998413086</ele>
        <time>2016-09-22T14:36:54.000Z</time>
      </trkpt>
      <trkpt lat="48.68217" lon="2.05614">
        <ele>147.06846618652</ele>
        <time>2016-09-22T14:36:57.000Z</time>
      </trkpt>
      <trkpt lat="48.68221" lon="2.05619">
        <ele>147.06838989258</ele>
        <time>2016-09-22T14:37:00.000Z</time>
      </trkpt>
      <trkpt lat="48.68222" lon="2.05624">
        <ele>147.08547973633</ele>
        <time>2016-09-22T14:37:03.000Z</time>
      </trkpt>
      <trkpt lat="48.68224" lon="2.0563">
        <ele>147.0849609375</ele>
        <time>2016-09-22T14:37:06.000Z</time>
      </trkpt>
      <trkpt lat="48.68227" lon="2.05635">
        <ele>147.08505249023</ele>
        <time>2016-09-22T14:37:09.000Z</time>
      </trkpt>
      <trkpt lat="48.68228" lon="2.05639">
        <ele>147.02597045898</ele>
        <time>2016-09-22T14:37:11.000Z</time>
      </trkpt>
      <trkpt lat="48.6823" lon="2.05643">
        <ele>146.95001220703</ele>
        <time>2016-09-22T14:37:13.000Z</time>
      </trkpt>
      <trkpt lat="48.68232" lon="2.0565">
        <ele>146.85552978516</ele>
        <time>2016-09-22T14:37:16.000Z</time>
      </trkpt>
      <trkpt lat="48.68234" lon="2.05655">
        <ele>146.79525756836</ele>
        <time>2016-09-22T14:37:19.000Z</time>
      </trkpt>
      <trkpt lat="48.68238" lon="2.05659">
        <ele>146.85177612305</ele>
        <time>2016-09-22T14:37:22.000Z</time>
      </trkpt>
      <trkpt lat="48.68242" lon="2.0566">
        <ele>147.03842163086</ele>
        <time>2016-09-22T14:37:24.000Z</time>
      </trkpt>
      <trkpt lat="48.68246" lon="2.05664">
        <ele>147.34346008301</ele>
        <time>2016-09-22T14:37:27.000Z</time>
      </trkpt>
      <trkpt lat="48.68248" lon="2.05666">
        <ele>147.73234558105</ele>
        <time>2016-09-22T14:37:29.000Z</time>
      </trkpt>
      <trkpt lat="48.68249" lon="2.0567">
        <ele>148.07897949219</ele>
        <time>2016-09-22T14:37:31.000Z</time>
      </trkpt>
      <trkpt lat="48.6825" lon="2.05673">
        <ele>148.28088378906</ele>
        <time>2016-09-22T14:37:33.000Z</time>
      </trkpt>
      <trkpt lat="48.68252" lon="2.05677">
        <ele>148.34056091309</ele>
        <time>2016-09-22T14:37:35.000Z</time>
      </trkpt>
      <trkpt lat="48.68253" lon="2.05685">
        <ele>148.11346435547</ele>
        <time>2016-09-22T14:37:39.000Z</time>
      </trkpt>
      <trkpt lat="48.68253" lon="2.05688">
        <ele>147.76989746094</ele>
        <time>2016-09-22T14:37:40.000Z</time>
      </trkpt>
      <trkpt lat="48.68256" lon="2.05693">
        <ele>147.43916320801</ele>
        <time>2016-09-22T14:37:43.000Z</time>
      </trkpt>
      <trkpt lat="48.68258" lon="2.05698">
        <ele>147.1044921875</ele>
        <time>2016-09-22T14:37:46.000Z</time>
      </trkpt>
      <trkpt lat="48.68259" lon="2.05703">
        <ele>146.73181152344</ele>
        <time>2016-09-22T14:37:50.000Z</time>
      </trkpt>
      <trkpt lat="48.68261" lon="2.05708">
        <ele>146.46090698242</ele>
        <time>2016-09-22T14:37:52.000Z</time>
      </trkpt>
      <trkpt lat="48.68261" lon="2.05713">
        <ele>146.16639709473</ele>
        <time>2016-09-22T14:37:55.000Z</time>
      </trkpt>
      <trkpt lat="48.68263" lon="2.05719">
        <ele>145.84465026855</ele>
        <time>2016-09-22T14:37:58.000Z</time>
      </trkpt>
      <trkpt lat="48.68264" lon="2.05723">
        <ele>145.53797912598</ele>
        <time>2016-09-22T14:38:00.000Z</time>
      </trkpt>
      <trkpt lat="48.68266" lon="2.05725">
        <ele>145.31062316895</ele>
        <time>2016-09-22T14:38:02.000Z</time>
      </trkpt>
      <trkpt lat="48.68268" lon="2.0573">
        <ele>145.15975952148</ele>
        <time>2016-09-22T14:38:05.000Z</time>
      </trkpt>
      <trkpt lat="48.6827" lon="2.05735">
        <ele>145.09754943848</ele>
        <time>2016-09-22T14:38:08.000Z</time>
      </trkpt>
      <trkpt lat="48.6827" lon="2.0574">
        <ele>144.99923706055</ele>
        <time>2016-09-22T14:38:10.000Z</time>
      </trkpt>
      <trkpt lat="48.68272" lon="2.05746">
        <ele>144.85726928711</ele>
        <time>2016-09-22T14:38:13.000Z</time>
      </trkpt>
      <trkpt lat="48.68275" lon="2.05752">
        <ele>144.73249816895</ele>
        <time>2016-09-22T14:38:16.000Z</time>
      </trkpt>
      <trkpt lat="48.68275" lon="2.05758">
        <ele>144.46295166016</ele>
        <time>2016-09-22T14:38:19.000Z</time>
      </trkpt>
      <trkpt lat="48.68275" lon="2.05763">
        <ele>144.14358520508</ele>
        <time>2016-09-22T14:38:21.000Z</time>
      </trkpt>
      <trkpt lat="48.68277" lon="2.05766">
        <ele>143.90556335449</ele>
        <time>2016-09-22T14:38:23.000Z</time>
      </trkpt>
      <trkpt lat="48.68279" lon="2.0577">
        <ele>143.73941040039</ele>
        <time>2016-09-22T14:38:26.000Z</time>
      </trkpt>
      <trkpt lat="48.68281" lon="2.05774">
        <ele>143.5666809082</ele>
        <time>2016-09-22T14:38:29.000Z</time>
      </trkpt>
      <trkpt lat="48.68283" lon="2.05779">
        <ele>143.52163696289</ele>
        <time>2016-09-22T14:38:33.000Z</time>
      </trkpt>
      <trkpt lat="48.68283" lon="2.05782">
        <ele>143.4778137207</ele>
        <time>2016-09-22T14:38:34.000Z</time>
      </trkpt>
      <trkpt lat="48.68284" lon="2.05788">
        <ele>143.36734008789</ele>
        <time>2016-09-22T14:38:37.000Z</time>
      </trkpt>
      <trkpt lat="48.68285" lon="2.05792">
        <ele>143.20071411133</ele>
        <time>2016-09-22T14:38:40.000Z</time>
      </trkpt>
      <trkpt lat="48.68287" lon="2.05798">
        <ele>142.99356079102</ele>
        <time>2016-09-22T14:38:43.000Z</time>
      </trkpt>
      <trkpt lat="48.68288" lon="2.05801">
        <ele>142.779296875</ele>
        <time>2016-09-22T14:38:45.000Z</time>
      </trkpt>
      <trkpt lat="48.68289" lon="2.05807">
        <ele>142.54902648926</ele>
        <time>2016-09-22T14:38:48.000Z</time>
      </trkpt>
      <trkpt lat="48.6829" lon="2.05813">
        <ele>142.28071594238</ele>
        <time>2016-09-22T14:38:51.000Z</time>
      </trkpt>
      <trkpt lat="48.6829" lon="2.05817">
        <ele>142.0047454834</ele>
        <time>2016-09-22T14:38:54.000Z</time>
      </trkpt>
      <trkpt lat="48.68292" lon="2.05824">
        <ele>141.70219421387</ele>
        <time>2016-09-22T14:38:57.000Z</time>
      </trkpt>
      <trkpt lat="48.68295" lon="2.05828">
        <ele>141.47018432617</ele>
        <time>2016-09-22T14:39:00.000Z</time>
      </trkpt>
      <trkpt lat="48.68298" lon="2.05832">
        <ele>141.38874816895</ele>
        <time>2016-09-22T14:39:03.000Z</time>
      </trkpt>
      <trkpt lat="48.683" lon="2.05836">
        <ele>141.45434570312</ele>
        <time>2016-09-22T14:39:05.000Z</time>
      </trkpt>
      <trkpt lat="48.68304" lon="2.0584">
        <ele>141.66061401367</ele>
        <time>2016-09-22T14:39:08.000Z</time>
      </trkpt>
      <trkpt lat="48.68307" lon="2.05845">
        <ele>141.9613494873</ele>
        <time>2016-09-22T14:39:11.000Z</time>
      </trkpt>
      <trkpt lat="48.68309" lon="2.05849">
        <ele>142.21455383301</ele>
        <time>2016-09-22T14:39:13.000Z</time>
      </trkpt>
      <trkpt lat="48.6831" lon="2.05852">
        <ele>142.39883422852</ele>
        <time>2016-09-22T14:39:15.000Z</time>
      </trkpt>
      <trkpt lat="48.68311" lon="2.05856">
        <ele>142.51370239258</ele>
        <time>2016-09-22T14:39:18.000Z</time>
      </trkpt>
      <trkpt lat="48.68313" lon="2.0586">
        <ele>142.54574584961</ele>
        <time>2016-09-22T14:39:21.000Z</time>
      </trkpt>
      <trkpt lat="48.68315" lon="2.05865">
        <ele>142.49609375</ele>
        <time>2016-09-22T14:39:24.000Z</time>
      </trkpt>
      <trkpt lat="48.68315" lon="2.05872">
        <ele>142.30094909668</ele>
        <time>2016-09-22T14:39:27.000Z</time>
      </trkpt>
      <trkpt lat="48.68316" lon="2.05875">
        <ele>142.06497192383</ele>
        <time>2016-09-22T14:39:29.000Z</time>
      </trkpt>
      <trkpt lat="48.68317" lon="2.05879">
        <ele>141.84053039551</ele>
        <time>2016-09-22T14:39:32.000Z</time>
      </trkpt>
      <trkpt lat="48.68317" lon="2.05881">
        <ele>141.5876159668</ele>
        <time>2016-09-22T14:39:34.000Z</time>
      </trkpt>
      <trkpt lat="48.68319" lon="2.05883">
        <ele>141.38073730469</ele>
        <time>2016-09-22T14:39:36.000Z</time>
      </trkpt>
      <trkpt lat="48.68322" lon="2.05887">
        <ele>141.33476257324</ele>
        <time>2016-09-22T14:39:39.000Z</time>
      </trkpt>
      <trkpt lat="48.68324" lon="2.0589">
        <ele>141.34561157227</ele>
        <time>2016-09-22T14:39:41.000Z</time>
      </trkpt>
      <trkpt lat="48.68325" lon="2.05893">
        <ele>141.36312866211</ele>
        <time>2016-09-22T14:39:43.000Z</time>
      </trkpt>
      <trkpt lat="48.68325" lon="2.05899">
        <ele>141.25985717773</ele>
        <time>2016-09-22T14:39:46.000Z</time>
      </trkpt>
      <trkpt lat="48.68325" lon="2.05904">
        <ele>141.05506896973</ele>
        <time>2016-09-22T14:39:48.000Z</time>
      </trkpt>
      <trkpt lat="48.68326" lon="2.05909">
        <ele>140.71890258789</ele>
        <time>2016-09-22T14:39:50.000Z</time>
      </trkpt>
      <trkpt lat="48.68328" lon="2.05917">
        <ele>140.23454284668</ele>
        <time>2016-09-22T14:39:53.000Z</time>
      </trkpt>
      <trkpt lat="48.68329" lon="2.05921">
        <ele>139.71432495117</ele>
        <time>2016-09-22T14:39:55.000Z</time>
      </trkpt>
      <trkpt lat="48.68331" lon="2.05928">
        <ele>139.26194763184</ele>
        <time>2016-09-22T14:39:58.000Z</time>
      </trkpt>
      <trkpt lat="48.68334" lon="2.05931">
        <ele>138.91720581055</ele>
        <time>2016-09-22T14:40:00.000Z</time>
      </trkpt>
      <trkpt lat="48.68339" lon="2.05935">
        <ele>138.81274414062</ele>
        <time>2016-09-22T14:40:03.000Z</time>
      </trkpt>
      <trkpt lat="48.68342" lon="2.05937">
        <ele>138.93095397949</ele>
        <time>2016-09-22T14:40:05.000Z</time>
      </trkpt>
      <trkpt lat="48.68344" lon="2.05939">
        <ele>139.13645935059</ele>
        <time>2016-09-22T14:40:07.000Z</time>
      </trkpt>
      <trkpt lat="48.68345" lon="2.05942">
        <ele>139.37739562988</ele>
        <time>2016-09-22T14:40:09.000Z</time>
      </trkpt>
      <trkpt lat="48.68347" lon="2.05948">
        <ele>139.5768737793</ele>
        <time>2016-09-22T14:40:12.000Z</time>
      </trkpt>
      <trkpt lat="48.68349" lon="2.05954">
        <ele>139.62268066406</ele>
        <time>2016-09-22T14:40:15.000Z</time>
      </trkpt>
      <trkpt lat="48.68351" lon="2.05958">
        <ele>139.54739379883</ele>
        <time>2016-09-22T14:40:18.000Z</time>
      </trkpt>
      <trkpt lat="48.68354" lon="2.05964">
        <ele>139.4035949707</ele>
        <time>2016-09-22T14:40:20.000Z</time>
      </trkpt>
      <trkpt lat="48.68355" lon="2.05968">
        <ele>139.2522277832</ele>
        <time>2016-09-22T14:40:22.000Z</time>
      </trkpt>
      <trkpt lat="48.68356" lon="2.05974">
        <ele>139.03471374512</ele>
        <time>2016-09-22T14:40:25.000Z</time>
      </trkpt>
      <trkpt lat="48.68356" lon="2.05977">
        <ele>138.77165222168</ele>
        <time>2016-09-22T14:40:27.000Z</time>
      </trkpt>
      <trkpt lat="48.68359" lon="2.05981">
        <ele>138.52041625977</ele>
        <time>2016-09-22T14:40:30.000Z</time>
      </trkpt>
      <trkpt lat="48.68359" lon="2.05987">
        <ele>138.21173095703</ele>
        <time>2016-09-22T14:40:33.000Z</time>
      </trkpt>
      <trkpt lat="48.6836" lon="2.0599">
        <ele>137.8889465332</ele>
        <time>2016-09-22T14:40:35.000Z</time>
      </trkpt>
      <trkpt lat="48.68362" lon="2.05994">
        <ele>137.66082763672</ele>
        <time>2016-09-22T14:40:38.000Z</time>
      </trkpt>
      <trkpt lat="48.68365" lon="2.05997">
        <ele>137.53483581543</ele>
        <time>2016-09-22T14:40:40.000Z</time>
      </trkpt>
      <trkpt lat="48.68369" lon="2.06">
        <ele>137.50588989258</ele>
        <time>2016-09-22T14:40:43.000Z</time>
      </trkpt>
      <trkpt lat="48.68373" lon="2.06002">
        <ele>137.68832397461</ele>
        <time>2016-09-22T14:40:46.000Z</time>
      </trkpt>
      <trkpt lat="48.68376" lon="2.06003">
        <ele>137.98635864258</ele>
        <time>2016-09-22T14:40:48.000Z</time>
      </trkpt>
      <trkpt lat="48.68378" lon="2.06005">
        <ele>138.34649658203</ele>
        <time>2016-09-22T14:40:51.000Z</time>
      </trkpt>
      <trkpt lat="48.6838" lon="2.06008">
        <ele>138.65907287598</ele>
        <time>2016-09-22T14:40:53.000Z</time>
      </trkpt>
      <trkpt lat="48.68381" lon="2.06014">
        <ele>138.77763366699</ele>
        <time>2016-09-22T14:40:57.000Z</time>
      </trkpt>
      <trkpt lat="48.68382" lon="2.06017">
        <ele>138.765625</ele>
        <time>2016-09-22T14:40:59.000Z</time>
      </trkpt>
      <trkpt lat="48.68384" lon="2.06018">
        <ele>138.72685241699</ele>
        <time>2016-09-22T14:41:01.000Z</time>
      </trkpt>
      <trkpt lat="48.68385" lon="2.06019">
        <ele>138.66586303711</ele>
        <time>2016-09-22T14:41:04.000Z</time>
      </trkpt>
      <trkpt lat="48.68386" lon="2.06021">
        <ele>138.59609985352</ele>
        <time>2016-09-22T14:41:06.000Z</time>
      </trkpt>
      <trkpt lat="48.68387" lon="2.06024">
        <ele>138.59837341309</ele>
        <time>2016-09-22T14:41:08.000Z</time>
      </trkpt>
      <trkpt lat="48.68388" lon="2.06028">
        <ele>138.56007385254</ele>
        <time>2016-09-22T14:41:11.000Z</time>
      </trkpt>
      <trkpt lat="48.6839" lon="2.06033">
        <ele>138.42277526855</ele>
        <time>2016-09-22T14:41:13.000Z</time>
      </trkpt>
      <trkpt lat="48.68391" lon="2.0604">
        <ele>138.16902160645</ele>
        <time>2016-09-22T14:41:16.000Z</time>
      </trkpt>
      <trkpt lat="48.68393" lon="2.06043">
        <ele>137.90791320801</ele>
        <time>2016-09-22T14:41:19.000Z</time>
      </trkpt>
      <trkpt lat="48.68394" lon="2.06047">
        <ele>137.66340637207</ele>
        <time>2016-09-22T14:41:20.000Z</time>
      </trkpt>
      <trkpt lat="48.68397" lon="2.06051">
        <ele>137.45962524414</ele>
        <time>2016-09-22T14:41:23.000Z</time>
      </trkpt>
      <trkpt lat="48.68399" lon="2.06055">
        <ele>137.32388305664</ele>
        <time>2016-09-22T14:41:26.000Z</time>
      </trkpt>
      <trkpt lat="48.68401" lon="2.06057">
        <ele>137.2802734375</ele>
        <time>2016-09-22T14:41:29.000Z</time>
      </trkpt>
      <trkpt lat="48.68403" lon="2.06062">
        <ele>137.22480773926</ele>
        <time>2016-09-22T14:41:32.000Z</time>
      </trkpt>
      <trkpt lat="48.68404" lon="2.06065">
        <ele>137.15823364258</ele>
        <time>2016-09-22T14:41:35.000Z</time>
      </trkpt>
      <trkpt lat="48.68406" lon="2.06067">
        <ele>137.09785461426</ele>
        <time>2016-09-22T14:41:37.000Z</time>
      </trkpt>
      <trkpt lat="48.68407" lon="2.0607">
        <ele>137.0357208252</ele>
        <time>2016-09-22T14:41:40.000Z</time>
      </trkpt>
      <trkpt lat="48.68409" lon="2.06073">
        <ele>136.93008422852</ele>
        <time>2016-09-22T14:41:42.000Z</time>
      </trkpt>
      <trkpt lat="48.6841" lon="2.06078">
        <ele>136.81465148926</ele>
        <time>2016-09-22T14:41:45.000Z</time>
      </trkpt>
      <trkpt lat="48.68413" lon="2.06081">
        <ele>136.73526000977</ele>
        <time>2016-09-22T14:41:48.000Z</time>
      </trkpt>
      <trkpt lat="48.68417" lon="2.06083">
        <ele>136.76846313477</ele>
        <time>2016-09-22T14:41:51.000Z</time>
      </trkpt>
      <trkpt lat="48.68419" lon="2.06085">
        <ele>136.8217010498</ele>
        <time>2016-09-22T14:41:53.000Z</time>
      </trkpt>
      <trkpt lat="48.6842" lon="2.06088">
        <ele>136.89457702637</ele>
        <time>2016-09-22T14:41:56.000Z</time>
      </trkpt>
      <trkpt lat="48.68421" lon="2.06089">
        <ele>137.06759643555</ele>
        <time>2016-09-22T14:41:58.000Z</time>
      </trkpt>
      <trkpt lat="48.68423" lon="2.06089">
        <ele>137.28916931152</ele>
        <time>2016-09-22T14:42:00.000Z</time>
      </trkpt>
      <trkpt lat="48.68425" lon="2.06089">
        <ele>137.48661804199</ele>
        <time>2016-09-22T14:42:03.000Z</time>
      </trkpt>
      <trkpt lat="48.68427" lon="2.0609">
        <ele>137.73168945312</ele>
        <time>2016-09-22T14:42:05.000Z</time>
      </trkpt>
      <trkpt lat="48.68431" lon="2.06089">
        <ele>138.20109558105</ele>
        <time>2016-09-22T14:42:08.000Z</time>
      </trkpt>
      <trkpt lat="48.68433" lon="2.0609">
        <ele>138.69671630859</ele>
        <time>2016-09-22T14:42:10.000Z</time>
      </trkpt>
      <trkpt lat="48.68436" lon="2.06093">
        <ele>139.15693664551</ele>
        <time>2016-09-22T14:42:12.000Z</time>
      </trkpt>
      <trkpt lat="48.68437" lon="2.06098">
        <ele>139.44467163086</ele>
        <time>2016-09-22T14:42:15.000Z</time>
      </trkpt>
      <trkpt lat="48.68439" lon="2.06102">
        <ele>139.65707397461</ele>
        <time>2016-09-22T14:42:18.000Z</time>
      </trkpt>
      <trkpt lat="48.68443" lon="2.06105">
        <ele>139.77326965332</ele>
        <time>2016-09-22T14:42:21.000Z</time>
      </trkpt>
      <trkpt lat="48.68445" lon="2.06104">
        <ele>139.9008026123</ele>
        <time>2016-09-22T14:42:24.000Z</time>
      </trkpt>
      <trkpt lat="48.68448" lon="2.06107">
        <ele>140.06367492676</ele>
        <time>2016-09-22T14:42:27.000Z</time>
      </trkpt>
      <trkpt lat="48.68449" lon="2.06111">
        <ele>140.24702453613</ele>
        <time>2016-09-22T14:42:29.000Z</time>
      </trkpt>
      <trkpt lat="48.68449" lon="2.06115">
        <ele>140.34922790527</ele>
        <time>2016-09-22T14:42:32.000Z</time>
      </trkpt>
      <trkpt lat="48.68451" lon="2.06118">
        <ele>140.34547424316</ele>
        <time>2016-09-22T14:42:35.000Z</time>
      </trkpt>
      <trkpt lat="48.68452" lon="2.0612">
        <ele>140.24183654785</ele>
        <time>2016-09-22T14:42:37.000Z</time>
      </trkpt>
      <trkpt lat="48.68456" lon="2.06122">
        <ele>140.17611694336</ele>
        <time>2016-09-22T14:42:40.000Z</time>
      </trkpt>
      <trkpt lat="48.68459" lon="2.06123">
        <ele>140.28988647461</ele>
        <time>2016-09-22T14:42:43.000Z</time>
      </trkpt>
      <trkpt lat="48.68462" lon="2.06128">
        <ele>140.45268249512</ele>
        <time>2016-09-22T14:42:46.000Z</time>
      </trkpt>
      <trkpt lat="48.68464" lon="2.06131">
        <ele>140.58969116211</ele>
        <time>2016-09-22T14:42:49.000Z</time>
      </trkpt>
      <trkpt lat="48.68465" lon="2.06135">
        <ele>140.68699645996</ele>
        <time>2016-09-22T14:42:52.000Z</time>
      </trkpt>
      <trkpt lat="48.68467" lon="2.06137">
        <ele>140.68112182617</ele>
        <time>2016-09-22T14:42:54.000Z</time>
      </trkpt>
      <trkpt lat="48.68468" lon="2.06141">
        <ele>140.50912475586</ele>
        <time>2016-09-22T14:42:56.000Z</time>
      </trkpt>
      <trkpt lat="48.6847" lon="2.06143">
        <ele>140.37535095215</ele>
        <time>2016-09-22T14:42:59.000Z</time>
      </trkpt>
      <trkpt lat="48.68473" lon="2.06145">
        <ele>140.33572387695</ele>
        <time>2016-09-22T14:43:02.000Z</time>
      </trkpt>
      <trkpt lat="48.68475" lon="2.06147">
        <ele>140.38070678711</ele>
        <time>2016-09-22T14:43:04.000Z</time>
      </trkpt>
      <trkpt lat="48.68478" lon="2.0615">
        <ele>140.44804382324</ele>
        <time>2016-09-22T14:43:07.000Z</time>
      </trkpt>
      <trkpt lat="48.68481" lon="2.06154">
        <ele>140.57431030273</ele>
        <time>2016-09-22T14:43:09.000Z</time>
      </trkpt>
      <trkpt lat="48.68486" lon="2.06156">
        <ele>140.77516174316</ele>
        <time>2016-09-22T14:43:12.000Z</time>
      </trkpt>
      <trkpt lat="48.68491" lon="2.06156">
        <ele>141.06526184082</ele>
        <time>2016-09-22T14:43:15.000Z</time>
      </trkpt>
      <trkpt lat="48.68494" lon="2.06158">
        <ele>141.39472961426</ele>
        <time>2016-09-22T14:43:17.000Z</time>
      </trkpt>
      <trkpt lat="48.68496" lon="2.06159">
        <ele>141.77340698242</ele>
        <time>2016-09-22T14:43:19.000Z</time>
      </trkpt>
      <trkpt lat="48.685" lon="2.0616">
        <ele>142.21112060547</ele>
        <time>2016-09-22T14:43:22.000Z</time>
      </trkpt>
      <trkpt lat="48.68504" lon="2.06161">
        <ele>142.55087280273</ele>
        <time>2016-09-22T14:43:24.000Z</time>
      </trkpt>
      <trkpt lat="48.6851" lon="2.06161">
        <ele>142.75332641602</ele>
        <time>2016-09-22T14:43:27.000Z</time>
      </trkpt>
      <trkpt lat="48.68513" lon="2.06162">
        <ele>142.85060119629</ele>
        <time>2016-09-22T14:43:29.000Z</time>
      </trkpt>
      <trkpt lat="48.68517" lon="2.06161">
        <ele>142.90620422363</ele>
        <time>2016-09-22T14:43:32.000Z</time>
      </trkpt>
      <trkpt lat="48.68518" lon="2.06163">
        <ele>142.86117553711</ele>
        <time>2016-09-22T14:43:34.000Z</time>
      </trkpt>
      <trkpt lat="48.6852" lon="2.06165">
        <ele>142.79409790039</ele>
        <time>2016-09-22T14:43:36.000Z</time>
      </trkpt>
      <trkpt lat="48.68522" lon="2.06168">
        <ele>142.63479614258</ele>
        <time>2016-09-22T14:43:39.000Z</time>
      </trkpt>
      <trkpt lat="48.68524" lon="2.06167">
        <ele>142.5150604248</ele>
        <time>2016-09-22T14:43:41.000Z</time>
      </trkpt>
      <trkpt lat="48.68527" lon="2.06166">
        <ele>142.40544128418</ele>
        <time>2016-09-22T14:43:43.000Z</time>
      </trkpt>
      <trkpt lat="48.68533" lon="2.06167">
        <ele>142.33633422852</ele>
        <time>2016-09-22T14:43:46.000Z</time>
      </trkpt>
      <trkpt lat="48.68538" lon="2.06168">
        <ele>142.30294799805</ele>
        <time>2016-09-22T14:43:48.000Z</time>
      </trkpt>
      <trkpt lat="48.68542" lon="2.06168">
        <ele>142.33819580078</ele>
        <time>2016-09-22T14:43:50.000Z</time>
      </trkpt>
      <trkpt lat="48.68545" lon="2.06168">
        <ele>142.37532043457</ele>
        <time>2016-09-22T14:43:53.000Z</time>
      </trkpt>
      <trkpt lat="48.68549" lon="2.06169">
        <ele>142.36976623535</ele>
        <time>2016-09-22T14:43:55.000Z</time>
      </trkpt>
      <trkpt lat="48.6855" lon="2.06172">
        <ele>142.32168579102</ele>
        <time>2016-09-22T14:43:58.000Z</time>
      </trkpt>
      <trkpt lat="48.68553" lon="2.06173">
        <ele>142.26647949219</ele>
        <time>2016-09-22T14:44:00.000Z</time>
      </trkpt>
      <trkpt lat="48.68555" lon="2.06174">
        <ele>142.20280456543</ele>
        <time>2016-09-22T14:44:02.000Z</time>
      </trkpt>
      <trkpt lat="48.68558" lon="2.06176">
        <ele>142.11331176758</ele>
        <time>2016-09-22T14:44:04.000Z</time>
      </trkpt>
      <trkpt lat="48.68561" lon="2.06179">
        <ele>141.9927520752</ele>
        <time>2016-09-22T14:44:07.000Z</time>
      </trkpt>
      <trkpt lat="48.68564" lon="2.06181">
        <ele>141.89064025879</ele>
        <time>2016-09-22T14:44:09.000Z</time>
      </trkpt>
      <trkpt lat="48.68567" lon="2.06182">
        <ele>141.78620910645</ele>
        <time>2016-09-22T14:44:11.000Z</time>
      </trkpt>
      <trkpt lat="48.6857" lon="2.06186">
        <ele>141.64909362793</ele>
        <time>2016-09-22T14:44:14.000Z</time>
      </trkpt>
      <trkpt lat="48.68572" lon="2.06188">
        <ele>141.50386047363</ele>
        <time>2016-09-22T14:44:16.000Z</time>
      </trkpt>
      <trkpt lat="48.68574" lon="2.06188">
        <ele>141.39878845215</ele>
        <time>2016-09-22T14:44:18.000Z</time>
      </trkpt>
      <trkpt lat="48.68577" lon="2.06189">
        <ele>141.31307983398</ele>
        <time>2016-09-22T14:44:21.000Z</time>
      </trkpt>
      <trkpt lat="48.68579" lon="2.06191">
        <ele>141.24063110352</ele>
        <time>2016-09-22T14:44:23.000Z</time>
      </trkpt>
      <trkpt lat="48.68581" lon="2.06191">
        <ele>141.21321105957</ele>
        <time>2016-09-22T14:44:25.000Z</time>
      </trkpt>
      <trkpt lat="48.68583" lon="2.06191">
        <ele>141.20848083496</ele>
        <time>2016-09-22T14:44:27.000Z</time>
      </trkpt>
      <trkpt lat="48.68586" lon="2.06193">
        <ele>141.09289550781</ele>
        <time>2016-09-22T14:44:30.000Z</time>
      </trkpt>
      <trkpt lat="48.68591" lon="2.06193">
        <ele>140.79496765137</ele>
        <time>2016-09-22T14:44:33.000Z</time>
      </trkpt>
      <trkpt lat="48.68597" lon="2.06194">
        <ele>140.28268432617</ele>
        <time>2016-09-22T14:44:36.000Z</time>
      </trkpt>
      <trkpt lat="48.68603" lon="2.06195">
        <ele>139.51327514648</ele>
        <time>2016-09-22T14:44:39.000Z</time>
      </trkpt>
      <trkpt lat="48.68605" lon="2.06196">
        <ele>138.66864013672</ele>
        <time>2016-09-22T14:44:41.000Z</time>
      </trkpt>
      <trkpt lat="48.68608" lon="2.06196">
        <ele>137.82983398438</ele>
        <time>2016-09-22T14:44:44.000Z</time>
      </trkpt>
      <trkpt lat="48.68612" lon="2.06196">
        <ele>137.01354980469</ele>
        <time>2016-09-22T14:44:47.000Z</time>
      </trkpt>
      <trkpt lat="48.68618" lon="2.06194">
        <ele>136.23992919922</ele>
        <time>2016-09-22T14:44:50.000Z</time>
      </trkpt>
      <trkpt lat="48.68621" lon="2.06194">
        <ele>135.60491943359</ele>
        <time>2016-09-22T14:44:52.000Z</time>
      </trkpt>
      <trkpt lat="48.68625" lon="2.06193">
        <ele>134.94079589844</ele>
        <time>2016-09-22T14:44:55.000Z</time>
      </trkpt>
      <trkpt lat="48.68629" lon="2.06192">
        <ele>134.23107910156</ele>
        <time>2016-09-22T14:44:58.000Z</time>
      </trkpt>
      <trkpt lat="48.68632" lon="2.06192">
        <ele>133.60614013672</ele>
        <time>2016-09-22T14:45:00.000Z</time>
      </trkpt>
      <trkpt lat="48.68635" lon="2.06191">
        <ele>133.03521728516</ele>
        <time>2016-09-22T14:45:03.000Z</time>
      </trkpt>
      <trkpt lat="48.68637" lon="2.0619">
        <ele>132.51904296875</ele>
        <time>2016-09-22T14:45:05.000Z</time>
      </trkpt>
      <trkpt lat="48.68641" lon="2.0619">
        <ele>131.99664306641</ele>
        <time>2016-09-22T14:45:08.000Z</time>
      </trkpt>
      <trkpt lat="48.68642" lon="2.0619">
        <ele>131.56286621094</ele>
        <time>2016-09-22T14:45:10.000Z</time>
      </trkpt>
      <trkpt lat="48.68644" lon="2.06189">
        <ele>131.14154052734</ele>
        <time>2016-09-22T14:45:12.000Z</time>
      </trkpt>
      <trkpt lat="48.68646" lon="2.06189">
        <ele>130.7802734375</ele>
        <time>2016-09-22T14:45:15.000Z</time>
      </trkpt>
      <trkpt lat="48.68648" lon="2.06188">
        <ele>130.42376708984</ele>
        <time>2016-09-22T14:45:18.000Z</time>
      </trkpt>
      <trkpt lat="48.68649" lon="2.06187">
        <ele>130.14837646484</ele>
        <time>2016-09-22T14:45:20.000Z</time>
      </trkpt>
      <trkpt lat="48.68652" lon="2.06186">
        <ele>129.86437988281</ele>
        <time>2016-09-22T14:45:23.000Z</time>
      </trkpt>
      <trkpt lat="48.68656" lon="2.06184">
        <ele>129.52893066406</ele>
        <time>2016-09-22T14:45:26.000Z</time>
      </trkpt>
      <trkpt lat="48.6866" lon="2.06183">
        <ele>129.11328125</ele>
        <time>2016-09-22T14:45:29.000Z</time>
      </trkpt>
      <trkpt lat="48.68663" lon="2.06182">
        <ele>128.64801025391</ele>
        <time>2016-09-22T14:45:32.000Z</time>
      </trkpt>
      <trkpt lat="48.68668" lon="2.0618">
        <ele>128.10073852539</ele>
        <time>2016-09-22T14:45:35.000Z</time>
      </trkpt>
      <trkpt lat="48.6867" lon="2.06178">
        <ele>127.60012054443</ele>
        <time>2016-09-22T14:45:37.000Z</time>
      </trkpt>
      <trkpt lat="48.68674" lon="2.06177">
        <ele>127.16526031494</ele>
        <time>2016-09-22T14:45:40.000Z</time>
      </trkpt>
      <trkpt lat="48.68677" lon="2.06177">
        <ele>126.81613922119</ele>
        <time>2016-09-22T14:45:42.000Z</time>
      </trkpt>
      <trkpt lat="48.6868" lon="2.06177">
        <ele>126.50721740723</ele>
        <time>2016-09-22T14:45:44.000Z</time>
      </trkpt>
      <trkpt lat="48.68683" lon="2.06175">
        <ele>126.27821350098</ele>
        <time>2016-09-22T14:45:47.000Z</time>
      </trkpt>
      <trkpt lat="48.68687" lon="2.06176">
        <ele>126.00177001953</ele>
        <time>2016-09-22T14:45:50.000Z</time>
      </trkpt>
      <trkpt lat="48.68691" lon="2.06176">
        <ele>125.68133544922</ele>
        <time>2016-09-22T14:45:52.000Z</time>
      </trkpt>
      <trkpt lat="48.68697" lon="2.06175">
        <ele>125.32011413574</ele>
        <time>2016-09-22T14:45:55.000Z</time>
      </trkpt>
      <trkpt lat="48.687" lon="2.06174">
        <ele>124.98350524902</ele>
        <time>2016-09-22T14:45:58.000Z</time>
      </trkpt>
      <trkpt lat="48.68705" lon="2.06173">
        <ele>124.59858703613</ele>
        <time>2016-09-22T14:46:04.000Z</time>
      </trkpt>
      <trkpt lat="48.6871" lon="2.06171">
        <ele>124.20572662354</ele>
        <time>2016-09-22T14:46:13.000Z</time>
      </trkpt>
      <trkpt lat="48.68714" lon="2.06171">
        <ele>123.84028625488</ele>
        <time>2016-09-22T14:46:15.000Z</time>
      </trkpt>
      <trkpt lat="48.68716" lon="2.06171">
        <ele>123.52766418457</ele>
        <time>2016-09-22T14:46:17.000Z</time>
      </trkpt>
      <trkpt lat="48.68721" lon="2.06171">
        <ele>123.15434265137</ele>
        <time>2016-09-22T14:46:20.000Z</time>
      </trkpt>
      <trkpt lat="48.68724" lon="2.06169">
        <ele>122.83290863037</ele>
        <time>2016-09-22T14:46:23.000Z</time>
      </trkpt>
      <trkpt lat="48.68726" lon="2.06167">
        <ele>122.59260559082</ele>
        <time>2016-09-22T14:46:25.000Z</time>
      </trkpt>
      <trkpt lat="48.68728" lon="2.06164">
        <ele>122.38076019287</ele>
        <time>2016-09-22T14:46:27.000Z</time>
      </trkpt>
      <trkpt lat="48.68731" lon="2.06162">
        <ele>122.17911529541</ele>
        <time>2016-09-22T14:46:29.000Z</time>
      </trkpt>
      <trkpt lat="48.68733" lon="2.06161">
        <ele>122.03105163574</ele>
        <time>2016-09-22T14:46:31.000Z</time>
      </trkpt>
      <trkpt lat="48.68735" lon="2.06161">
        <ele>121.87509918213</ele>
        <time>2016-09-22T14:46:33.000Z</time>
      </trkpt>
      <trkpt lat="48.68738" lon="2.0616">
        <ele>121.65791320801</ele>
        <time>2016-09-22T14:46:35.000Z</time>
      </trkpt>
      <trkpt lat="48.68741" lon="2.06158">
        <ele>121.42834472656</ele>
        <time>2016-09-22T14:46:37.000Z</time>
      </trkpt>
      <trkpt lat="48.68744" lon="2.06157">
        <ele>121.19319152832</ele>
        <time>2016-09-22T14:46:39.000Z</time>
      </trkpt>
      <trkpt lat="48.68747" lon="2.06155">
        <ele>120.93952941895</ele>
        <time>2016-09-22T14:46:42.000Z</time>
      </trkpt>
      <trkpt lat="48.68751" lon="2.06154">
        <ele>120.67482757568</ele>
        <time>2016-09-22T14:46:45.000Z</time>
      </trkpt>
      <trkpt lat="48.68755" lon="2.06153">
        <ele>120.47967529297</ele>
        <time>2016-09-22T14:46:48.000Z</time>
      </trkpt>
      <trkpt lat="48.68758" lon="2.06151">
        <ele>120.34593200684</ele>
        <time>2016-09-22T14:46:50.000Z</time>
      </trkpt>
      <trkpt lat="48.68762" lon="2.06149">
        <ele>120.27641296387</ele>
        <time>2016-09-22T14:46:53.000Z</time>
      </trkpt>
      <trkpt lat="48.68765" lon="2.06148">
        <ele>120.28749847412</ele>
        <time>2016-09-22T14:46:55.000Z</time>
      </trkpt>
      <trkpt lat="48.68768" lon="2.06147">
        <ele>120.3606338501</ele>
        <time>2016-09-22T14:46:57.000Z</time>
      </trkpt>
      <trkpt lat="48.6877" lon="2.06146">
        <ele>120.44106292725</ele>
        <time>2016-09-22T14:47:00.000Z</time>
      </trkpt>
      <trkpt lat="48.68773" lon="2.06145">
        <ele>120.52310943604</ele>
        <time>2016-09-22T14:47:02.000Z</time>
      </trkpt>
      <trkpt lat="48.68777" lon="2.06144">
        <ele>120.61161804199</ele>
        <time>2016-09-22T14:47:05.000Z</time>
      </trkpt>
      <trkpt lat="48.68779" lon="2.06143">
        <ele>120.70151519775</ele>
        <time>2016-09-22T14:47:07.000Z</time>
      </trkpt>
      <trkpt lat="48.68782" lon="2.0614">
        <ele>120.83666992188</ele>
        <time>2016-09-22T14:47:10.000Z</time>
      </trkpt>
      <trkpt lat="48.68787" lon="2.06139">
        <ele>120.99340820312</ele>
        <time>2016-09-22T14:47:13.000Z</time>
      </trkpt>
      <trkpt lat="48.68792" lon="2.06138">
        <ele>121.17567443848</ele>
        <time>2016-09-22T14:47:16.000Z</time>
      </trkpt>
      <trkpt lat="48.68795" lon="2.06138">
        <ele>121.35168457031</ele>
        <time>2016-09-22T14:47:18.000Z</time>
      </trkpt>
      <trkpt lat="48.68798" lon="2.06137">
        <ele>121.53310394287</ele>
        <time>2016-09-22T14:47:21.000Z</time>
      </trkpt>
      <trkpt lat="48.688" lon="2.06137">
        <ele>121.67552185059</ele>
        <time>2016-09-22T14:47:23.000Z</time>
      </trkpt>
      <trkpt lat="48.68801" lon="2.06136">
        <ele>121.80037689209</ele>
        <time>2016-09-22T14:47:26.000Z</time>
      </trkpt>
      <trkpt lat="48.68804" lon="2.06136">
        <ele>121.90625</ele>
        <time>2016-09-22T14:47:29.000Z</time>
      </trkpt>
      <trkpt lat="48.68808" lon="2.06135">
        <ele>122.03731536865</ele>
        <time>2016-09-22T14:47:32.000Z</time>
      </trkpt>
      <trkpt lat="48.68813" lon="2.06132">
        <ele>122.23059082031</ele>
        <time>2016-09-22T14:47:35.000Z</time>
      </trkpt>
      <trkpt lat="48.68815" lon="2.0613">
        <ele>122.46535491943</ele>
        <time>2016-09-22T14:47:38.000Z</time>
      </trkpt>
      <trkpt lat="48.68819" lon="2.06128">
        <ele>122.74802398682</ele>
        <time>2016-09-22T14:47:41.000Z</time>
      </trkpt>
      <trkpt lat="48.68821" lon="2.06128">
        <ele>123.0503692627</ele>
        <time>2016-09-22T14:47:43.000Z</time>
      </trkpt>
      <trkpt lat="48.68825" lon="2.06127">
        <ele>123.36381530762</ele>
        <time>2016-09-22T14:47:46.000Z</time>
      </trkpt>
      <trkpt lat="48.68827" lon="2.06126">
        <ele>123.62043762207</ele>
        <time>2016-09-22T14:47:48.000Z</time>
      </trkpt>
      <trkpt lat="48.68829" lon="2.06126">
        <ele>123.83695983887</ele>
        <time>2016-09-22T14:47:50.000Z</time>
      </trkpt>
      <trkpt lat="48.68832" lon="2.06124">
        <ele>124.07353210449</ele>
        <time>2016-09-22T14:47:53.000Z</time>
      </trkpt>
      <trkpt lat="48.68837" lon="2.06122">
        <ele>124.338722229</ele>
        <time>2016-09-22T14:48:01.000Z</time>
      </trkpt>
      <trkpt lat="48.68839" lon="2.06122">
        <ele>124.5743637085</ele>
        <time>2016-09-22T14:48:03.000Z</time>
      </trkpt>
      <trkpt lat="48.68841" lon="2.06121">
        <ele>124.81803131104</ele>
        <time>2016-09-22T14:48:05.000Z</time>
      </trkpt>
      <trkpt lat="48.68845" lon="2.06119">
        <ele>125.11350250244</ele>
        <time>2016-09-22T14:48:08.000Z</time>
      </trkpt>
      <trkpt lat="48.68848" lon="2.06118">
        <ele>125.37436676025</ele>
        <time>2016-09-22T14:48:10.000Z</time>
      </trkpt>
      <trkpt lat="48.68855" lon="2.06117">
        <ele>125.62577819824</ele>
        <time>2016-09-22T14:48:13.000Z</time>
      </trkpt>
      <trkpt lat="48.68858" lon="2.06116">
        <ele>125.88053894043</ele>
        <time>2016-09-22T14:48:15.000Z</time>
      </trkpt>
      <trkpt lat="48.6886" lon="2.06116">
        <ele>126.11285400391</ele>
        <time>2016-09-22T14:48:17.000Z</time>
      </trkpt>
      <trkpt lat="48.68863" lon="2.06116">
        <ele>126.28310394287</ele>
        <time>2016-09-22T14:48:19.000Z</time>
      </trkpt>
      <trkpt lat="48.68867" lon="2.06117">
        <ele>126.41721343994</ele>
        <time>2016-09-22T14:48:22.000Z</time>
      </trkpt>
      <trkpt lat="48.68871" lon="2.06116">
        <ele>126.54538726807</ele>
        <time>2016-09-22T14:48:25.000Z</time>
      </trkpt>
      <trkpt lat="48.68874" lon="2.06115">
        <ele>126.6796875</ele>
        <time>2016-09-22T14:48:28.000Z</time>
      </trkpt>
      <trkpt lat="48.68878" lon="2.06114">
        <ele>126.85947418213</ele>
        <time>2016-09-22T14:48:31.000Z</time>
      </trkpt>
      <trkpt lat="48.68882" lon="2.06112">
        <ele>127.10758209229</ele>
        <time>2016-09-22T14:48:34.000Z</time>
      </trkpt>
      <trkpt lat="48.68884" lon="2.0611">
        <ele>127.4287109375</ele>
        <time>2016-09-22T14:48:36.000Z</time>
      </trkpt>
      <trkpt lat="48.68888" lon="2.06109">
        <ele>127.75728607178</ele>
        <time>2016-09-22T14:48:39.000Z</time>
      </trkpt>
      <trkpt lat="48.6889" lon="2.06108">
        <ele>128.07263183594</ele>
        <time>2016-09-22T14:48:41.000Z</time>
      </trkpt>
      <trkpt lat="48.68894" lon="2.06108">
        <ele>128.35229492188</ele>
        <time>2016-09-22T14:48:44.000Z</time>
      </trkpt>
      <trkpt lat="48.689" lon="2.06108">
        <ele>128.61239624023</ele>
        <time>2016-09-22T14:48:47.000Z</time>
      </trkpt>
      <trkpt lat="48.68904" lon="2.06106">
        <ele>128.86126708984</ele>
        <time>2016-09-22T14:48:49.000Z</time>
      </trkpt>
      <trkpt lat="48.68908" lon="2.06105">
        <ele>129.11161804199</ele>
        <time>2016-09-22T14:48:51.000Z</time>
      </trkpt>
      <trkpt lat="48.68912" lon="2.06105">
        <ele>129.3683013916</ele>
        <time>2016-09-22T14:48:54.000Z</time>
      </trkpt>
      <trkpt lat="48.68917" lon="2.06104">
        <ele>129.66009521484</ele>
        <time>2016-09-22T14:48:57.000Z</time>
      </trkpt>
      <trkpt lat="48.68919" lon="2.06105">
        <ele>129.90078735352</ele>
        <time>2016-09-22T14:48:59.000Z</time>
      </trkpt>
      <trkpt lat="48.68921" lon="2.06105">
        <ele>130.05206298828</ele>
        <time>2016-09-22T14:49:01.000Z</time>
      </trkpt>
      <trkpt lat="48.68924" lon="2.06107">
        <ele>130.09941101074</ele>
        <time>2016-09-22T14:49:04.000Z</time>
      </trkpt>
      <trkpt lat="48.68926" lon="2.06109">
        <ele>130.05326843262</ele>
        <time>2016-09-22T14:49:07.000Z</time>
      </trkpt>
      <trkpt lat="48.68929" lon="2.06109">
        <ele>129.9333190918</ele>
        <time>2016-09-22T14:49:10.000Z</time>
      </trkpt>
      <trkpt lat="48.6893" lon="2.06109">
        <ele>129.81718444824</ele>
        <time>2016-09-22T14:49:12.000Z</time>
      </trkpt>
      <trkpt lat="48.68932" lon="2.06109">
        <ele>129.73197937012</ele>
        <time>2016-09-22T14:49:15.000Z</time>
      </trkpt>
      <trkpt lat="48.68937" lon="2.06108">
        <ele>129.72671508789</ele>
        <time>2016-09-22T14:49:18.000Z</time>
      </trkpt>
      <trkpt lat="48.68941" lon="2.06108">
        <ele>129.81491088867</ele>
        <time>2016-09-22T14:49:21.000Z</time>
      </trkpt>
      <trkpt lat="48.68945" lon="2.06109">
        <ele>129.90908813477</ele>
        <time>2016-09-22T14:49:24.000Z</time>
      </trkpt>
      <trkpt lat="48.68948" lon="2.0611">
        <ele>129.96597290039</ele>
        <time>2016-09-22T14:49:27.000Z</time>
      </trkpt>
      <trkpt lat="48.68949" lon="2.0611">
        <ele>129.99044799805</ele>
        <time>2016-09-22T14:49:29.000Z</time>
      </trkpt>
      <trkpt lat="48.68953" lon="2.06111">
        <ele>129.9841003418</ele>
        <time>2016-09-22T14:49:32.000Z</time>
      </trkpt>
      <trkpt lat="48.68956" lon="2.06109">
        <ele>130.0139465332</ele>
        <time>2016-09-22T14:49:34.000Z</time>
      </trkpt>
      <trkpt lat="48.68961" lon="2.06108">
        <ele>130.12445068359</ele>
        <time>2016-09-22T14:49:37.000Z</time>
      </trkpt>
      <trkpt lat="48.68964" lon="2.06107">
        <ele>130.28591918945</ele>
        <time>2016-09-22T14:49:39.000Z</time>
      </trkpt>
      <trkpt lat="48.68966" lon="2.06106">
        <ele>130.4966583252</ele>
        <time>2016-09-22T14:49:41.000Z</time>
      </trkpt>
      <trkpt lat="48.6897" lon="2.06102">
        <ele>130.84860229492</ele>
        <time>2016-09-22T14:49:44.000Z</time>
      </trkpt>
      <trkpt lat="48.68972" lon="2.061">
        <ele>131.20297241211</ele>
        <time>2016-09-22T14:49:46.000Z</time>
      </trkpt>
      <trkpt lat="48.68977" lon="2.06099">
        <ele>131.52908325195</ele>
        <time>2016-09-22T14:49:49.000Z</time>
      </trkpt>
      <trkpt lat="48.6898" lon="2.061">
        <ele>131.83493041992</ele>
        <time>2016-09-22T14:49:51.000Z</time>
      </trkpt>
      <trkpt lat="48.68984" lon="2.06101">
        <ele>132.08418273926</ele>
        <time>2016-09-22T14:49:54.000Z</time>
      </trkpt>
      <trkpt lat="48.68986" lon="2.06102">
        <ele>132.14018249512</ele>
        <time>2016-09-22T14:49:57.000Z</time>
      </trkpt>
      <trkpt lat="48.68988" lon="2.06103">
        <ele>132.12353515625</ele>
        <time>2016-09-22T14:49:59.000Z</time>
      </trkpt>
      <trkpt lat="48.68991" lon="2.06103">
        <ele>132.08038330078</ele>
        <time>2016-09-22T14:50:02.000Z</time>
      </trkpt>
      <trkpt lat="48.68995" lon="2.06102">
        <ele>132.07928466797</ele>
        <time>2016-09-22T14:50:04.000Z</time>
      </trkpt>
      <trkpt lat="48.68999" lon="2.06102">
        <ele>132.11445617676</ele>
        <time>2016-09-22T14:50:07.000Z</time>
      </trkpt>
      <trkpt lat="48.69003" lon="2.06102">
        <ele>132.18748474121</ele>
        <time>2016-09-22T14:50:10.000Z</time>
      </trkpt>
      <trkpt lat="48.69007" lon="2.06102">
        <ele>132.26693725586</ele>
        <time>2016-09-22T14:50:13.000Z</time>
      </trkpt>
      <trkpt lat="48.6901" lon="2.06101">
        <ele>132.35801696777</ele>
        <time>2016-09-22T14:50:15.000Z</time>
      </trkpt>
      <trkpt lat="48.69014" lon="2.061">
        <ele>132.41133117676</ele>
        <time>2016-09-22T14:50:17.000Z</time>
      </trkpt>
      <trkpt lat="48.69018" lon="2.061">
        <ele>132.44038391113</ele>
        <time>2016-09-22T14:50:20.000Z</time>
      </trkpt>
      <trkpt lat="48.6902" lon="2.06101">
        <ele>132.45854187012</ele>
        <time>2016-09-22T14:50:22.000Z</time>
      </trkpt>
      <trkpt lat="48.69023" lon="2.06101">
        <ele>132.46873474121</ele>
        <time>2016-09-22T14:50:24.000Z</time>
      </trkpt>
      <trkpt lat="48.69025" lon="2.06101">
        <ele>132.45658874512</ele>
        <time>2016-09-22T14:50:26.000Z</time>
      </trkpt>
      <trkpt lat="48.69028" lon="2.06102">
        <ele>132.40299987793</ele>
        <time>2016-09-22T14:50:29.000Z</time>
      </trkpt>
      <trkpt lat="48.69032" lon="2.06102">
        <ele>132.34997558594</ele>
        <time>2016-09-22T14:50:32.000Z</time>
      </trkpt>
      <trkpt lat="48.69036" lon="2.06102">
        <ele>132.30854797363</ele>
        <time>2016-09-22T14:50:35.000Z</time>
      </trkpt>
      <trkpt lat="48.69039" lon="2.06101">
        <ele>132.29170227051</ele>
        <time>2016-09-22T14:50:37.000Z</time>
      </trkpt>
      <trkpt lat="48.69042" lon="2.06101">
        <ele>132.28405761719</ele>
        <time>2016-09-22T14:50:40.000Z</time>
      </trkpt>
      <trkpt lat="48.69043" lon="2.06101">
        <ele>132.30871582031</ele>
        <time>2016-09-22T14:50:43.000Z</time>
      </trkpt>
      <trkpt lat="48.69041" lon="2.06103">
        <ele>132.28350830078</ele>
        <time>2016-09-22T14:50:47.000Z</time>
      </trkpt>
      <trkpt lat="48.69044" lon="2.06103">
        <ele>132.26077270508</ele>
        <time>2016-09-22T14:50:50.000Z</time>
      </trkpt>
      <trkpt lat="48.69048" lon="2.06104">
        <ele>132.17362976074</ele>
        <time>2016-09-22T14:50:53.000Z</time>
      </trkpt>
      <trkpt lat="48.69054" lon="2.06105">
        <ele>132.04020690918</ele>
        <time>2016-09-22T14:50:56.000Z</time>
      </trkpt>
      <trkpt lat="48.6906" lon="2.06104">
        <ele>131.93792724609</ele>
        <time>2016-09-22T14:50:59.000Z</time>
      </trkpt>
      <trkpt lat="48.69064" lon="2.06103">
        <ele>131.9024810791</ele>
        <time>2016-09-22T14:51:02.000Z</time>
      </trkpt>
      <trkpt lat="48.69068" lon="2.06103">
        <ele>131.8713684082</ele>
        <time>2016-09-22T14:51:05.000Z</time>
      </trkpt>
      <trkpt lat="48.69069" lon="2.06103">
        <ele>131.8837890625</ele>
        <time>2016-09-22T14:51:07.000Z</time>
      </trkpt>
      <trkpt lat="48.69073" lon="2.06103">
        <ele>131.92587280273</ele>
        <time>2016-09-22T14:51:10.000Z</time>
      </trkpt>
      <trkpt lat="48.69075" lon="2.06102">
        <ele>131.95779418945</ele>
        <time>2016-09-22T14:51:12.000Z</time>
      </trkpt>
      <trkpt lat="48.69076" lon="2.06098">
        <ele>132.1003112793</ele>
        <time>2016-09-22T14:51:15.000Z</time>
      </trkpt>
      <trkpt lat="48.6908" lon="2.06099">
        <ele>132.2212677002</ele>
        <time>2016-09-22T14:51:18.000Z</time>
      </trkpt>
      <trkpt lat="48.69083" lon="2.061">
        <ele>132.30017089844</ele>
        <time>2016-09-22T14:51:20.000Z</time>
      </trkpt>
      <trkpt lat="48.69085" lon="2.061">
        <ele>132.36695861816</ele>
        <time>2016-09-22T14:51:22.000Z</time>
      </trkpt>
      <trkpt lat="48.69086" lon="2.061">
        <ele>132.40840148926</ele>
        <time>2016-09-22T14:51:24.000Z</time>
      </trkpt>
      <trkpt lat="48.6909" lon="2.061">
        <ele>132.28811645508</ele>
        <time>2016-09-22T14:51:27.000Z</time>
      </trkpt>
      <trkpt lat="48.69092" lon="2.061">
        <ele>132.15298461914</ele>
        <time>2016-09-22T14:51:30.000Z</time>
      </trkpt>
      <trkpt lat="48.69095" lon="2.061">
        <ele>132.03254699707</ele>
        <time>2016-09-22T14:51:32.000Z</time>
      </trkpt>
      <trkpt lat="48.69098" lon="2.061">
        <ele>131.90451049805</ele>
        <time>2016-09-22T14:51:34.000Z</time>
      </trkpt>
      <trkpt lat="48.69102" lon="2.06099">
        <ele>131.75782775879</ele>
        <time>2016-09-22T14:51:37.000Z</time>
      </trkpt>
      <trkpt lat="48.69106" lon="2.06099">
        <ele>131.62480163574</ele>
        <time>2016-09-22T14:51:40.000Z</time>
      </trkpt>
      <trkpt lat="48.69108" lon="2.06098">
        <ele>131.5309753418</ele>
        <time>2016-09-22T14:51:42.000Z</time>
      </trkpt>
      <trkpt lat="48.6911" lon="2.06098">
        <ele>131.44738769531</ele>
        <time>2016-09-22T14:51:44.000Z</time>
      </trkpt>
      <trkpt lat="48.69112" lon="2.06098">
        <ele>131.36166381836</ele>
        <time>2016-09-22T14:51:46.000Z</time>
      </trkpt>
      <trkpt lat="48.69117" lon="2.06097">
        <ele>131.27040100098</ele>
        <time>2016-09-22T14:51:49.000Z</time>
      </trkpt>
      <trkpt lat="48.6912" lon="2.06096">
        <ele>131.21020507812</ele>
        <time>2016-09-22T14:51:51.000Z</time>
      </trkpt>
      <trkpt lat="48.69122" lon="2.06094">
        <ele>131.16177368164</ele>
        <time>2016-09-22T14:51:53.000Z</time>
      </trkpt>
      <trkpt lat="48.69125" lon="2.06092">
        <ele>131.16018676758</ele>
        <time>2016-09-22T14:51:56.000Z</time>
      </trkpt>
      <trkpt lat="48.69129" lon="2.0609">
        <ele>131.19633483887</ele>
        <time>2016-09-22T14:51:59.000Z</time>
      </trkpt>
      <trkpt lat="48.6913" lon="2.0609">
        <ele>131.24336242676</ele>
        <time>2016-09-22T14:52:02.000Z</time>
      </trkpt>
      <trkpt lat="48.69133" lon="2.06089">
        <ele>131.2688293457</ele>
        <time>2016-09-22T14:52:05.000Z</time>
      </trkpt>
      <trkpt lat="48.69138" lon="2.06087">
        <ele>131.28492736816</ele>
        <time>2016-09-22T14:52:16.000Z</time>
      </trkpt>
      <trkpt lat="48.69138" lon="2.06088">
        <ele>131.25076293945</ele>
        <time>2016-09-22T14:52:33.000Z</time>
      </trkpt>
      <trkpt lat="48.69139" lon="2.06091">
        <ele>131.11679077148</ele>
        <time>2016-09-22T14:52:35.000Z</time>
      </trkpt>
      <trkpt lat="48.6914" lon="2.06094">
        <ele>130.90866088867</ele>
        <time>2016-09-22T14:52:38.000Z</time>
      </trkpt>
      <trkpt lat="48.6914" lon="2.06097">
        <ele>130.63073730469</ele>
        <time>2016-09-22T14:52:40.000Z</time>
      </trkpt>
      <trkpt lat="48.69141" lon="2.06098">
        <ele>130.30368041992</ele>
        <time>2016-09-22T14:52:42.000Z</time>
      </trkpt>
      <trkpt lat="48.69144" lon="2.06103">
        <ele>129.82780456543</ele>
        <time>2016-09-22T14:52:45.000Z</time>
      </trkpt>
      <trkpt lat="48.69143" lon="2.0611">
        <ele>129.27294921875</ele>
        <time>2016-09-22T14:52:56.000Z</time>
      </trkpt>
      <trkpt lat="48.6914" lon="2.06112">
        <ele>128.7954864502</ele>
        <time>2016-09-22T14:52:59.000Z</time>
      </trkpt>
      <trkpt lat="48.69139" lon="2.06112">
        <ele>128.39611816406</ele>
        <time>2016-09-22T14:53:01.000Z</time>
      </trkpt>
      <trkpt lat="48.69136" lon="2.06117">
        <ele>127.95296478271</ele>
        <time>2016-09-22T14:53:06.000Z</time>
      </trkpt>
      <trkpt lat="48.69136" lon="2.06117">
        <ele>127.95296478271</ele>
        <time>2016-09-22T14:53:26.000Z</time>
      </trkpt>
      <trkpt lat="48.69132" lon="2.0612">
        <ele>127.61714172363</ele>
        <time>2016-09-22T14:54:20.000Z</time>
      </trkpt>
      <trkpt lat="48.69131" lon="2.06122">
        <ele>127.41941070557</ele>
        <time>2016-09-22T14:54:22.000Z</time>
      </trkpt>
      <trkpt lat="48.69128" lon="2.06122">
        <ele>127.25756835938</ele>
        <time>2016-09-22T14:54:25.000Z</time>
      </trkpt>
      <trkpt lat="48.69128" lon="2.0612">
        <ele>127.1608505249</ele>
        <time>2016-09-22T14:54:27.000Z</time>
      </trkpt>
      <trkpt lat="48.69128" lon="2.06115">
        <ele>127.29069519043</ele>
        <time>2016-09-22T14:54:30.000Z</time>
      </trkpt>
      <trkpt lat="48.69128" lon="2.06112">
        <ele>127.56559753418</ele>
        <time>2016-09-22T14:54:33.000Z</time>
      </trkpt>
      <trkpt lat="48.69127" lon="2.06104">
        <ele>128.08227539062</ele>
        <time>2016-09-22T14:54:36.000Z</time>
      </trkpt>
      <trkpt lat="48.69127" lon="2.061">
        <ele>128.70056152344</ele>
        <time>2016-09-22T14:54:39.000Z</time>
      </trkpt>
      <trkpt lat="48.69128" lon="2.06093">
        <ele>129.42492675781</ele>
        <time>2016-09-22T14:54:44.000Z</time>
      </trkpt>
      <trkpt lat="48.69128" lon="2.06097">
        <ele>129.90718078613</ele>
        <time>2016-09-22T14:54:50.000Z</time>
      </trkpt>
      <trkpt lat="48.69131" lon="2.06098">
        <ele>130.25212097168</ele>
        <time>2016-09-22T14:54:53.000Z</time>
      </trkpt>
      <trkpt lat="48.69131" lon="2.06097">
        <ele>130.38858032227</ele>
        <time>2016-09-22T14:54:55.000Z</time>
      </trkpt>
      <trkpt lat="48.69136" lon="2.06092">
        <ele>130.48666381836</ele>
        <time>2016-09-22T14:55:06.000Z</time>
      </trkpt>
      <trkpt lat="48.69136" lon="2.06092">
        <ele>130.48666381836</ele>
        <time>2016-09-22T14:55:26.000Z</time>
      </trkpt>
      <trkpt lat="48.69138" lon="2.06092">
        <ele>130.41845703125</ele>
        <time>2016-09-22T14:55:27.000Z</time>
      </trkpt>
      <trkpt lat="48.6914" lon="2.06093">
        <ele>130.38592529297</ele>
        <time>2016-09-22T14:55:30.000Z</time>
      </trkpt>
      <trkpt lat="48.69144" lon="2.06092">
        <ele>130.39506530762</ele>
        <time>2016-09-22T14:55:33.000Z</time>
      </trkpt>
      <trkpt lat="48.69148" lon="2.06091">
        <ele>130.36433410645</ele>
        <time>2016-09-22T14:55:35.000Z</time>
      </trkpt>
      <trkpt lat="48.69151" lon="2.06091">
        <ele>130.2193145752</ele>
        <time>2016-09-22T14:55:37.000Z</time>
      </trkpt>
      <trkpt lat="48.69154" lon="2.06092">
        <ele>130.04081726074</ele>
        <time>2016-09-22T14:55:39.000Z</time>
      </trkpt>
      <trkpt lat="48.69156" lon="2.06092">
        <ele>129.90243530273</ele>
        <time>2016-09-22T14:55:41.000Z</time>
      </trkpt>
      <trkpt lat="48.6916" lon="2.0609">
        <ele>129.77484130859</ele>
        <time>2016-09-22T14:55:44.000Z</time>
      </trkpt>
      <trkpt lat="48.69166" lon="2.06089">
        <ele>129.62423706055</ele>
        <time>2016-09-22T14:55:47.000Z</time>
      </trkpt>
      <trkpt lat="48.69171" lon="2.06089">
        <ele>129.42155456543</ele>
        <time>2016-09-22T14:55:49.000Z</time>
      </trkpt>
      <trkpt lat="48.69175" lon="2.06088">
        <ele>129.17883300781</ele>
        <time>2016-09-22T14:55:51.000Z</time>
      </trkpt>
      <trkpt lat="48.69181" lon="2.06085">
        <ele>128.92193603516</ele>
        <time>2016-09-22T14:55:54.000Z</time>
      </trkpt>
      <trkpt lat="48.69183" lon="2.06083">
        <ele>128.67353820801</ele>
        <time>2016-09-22T14:55:56.000Z</time>
      </trkpt>
      <trkpt lat="48.69186" lon="2.0608">
        <ele>128.50413513184</ele>
        <time>2016-09-22T14:55:59.000Z</time>
      </trkpt>
      <trkpt lat="48.69188" lon="2.06079">
        <ele>128.42851257324</ele>
        <time>2016-09-22T14:56:01.000Z</time>
      </trkpt>
      <trkpt lat="48.69189" lon="2.06077">
        <ele>128.43215942383</ele>
        <time>2016-09-22T14:56:03.000Z</time>
      </trkpt>
      <trkpt lat="48.69192" lon="2.06077">
        <ele>128.45553588867</ele>
        <time>2016-09-22T14:56:06.000Z</time>
      </trkpt>
      <trkpt lat="48.69193" lon="2.06075">
        <ele>128.48570251465</ele>
        <time>2016-09-22T14:56:08.000Z</time>
      </trkpt>
      <trkpt lat="48.69195" lon="2.06074">
        <ele>128.48384094238</ele>
        <time>2016-09-22T14:56:10.000Z</time>
      </trkpt>
      <trkpt lat="48.69198" lon="2.06074">
        <ele>128.41024780273</ele>
        <time>2016-09-22T14:56:13.000Z</time>
      </trkpt>
      <trkpt lat="48.69199" lon="2.06074">
        <ele>128.30685424805</ele>
        <time>2016-09-22T14:56:15.000Z</time>
      </trkpt>
      <trkpt lat="48.69201" lon="2.06074">
        <ele>128.20011901855</ele>
        <time>2016-09-22T14:56:17.000Z</time>
      </trkpt>
      <trkpt lat="48.69202" lon="2.06073">
        <ele>128.06259155273</ele>
        <time>2016-09-22T14:56:20.000Z</time>
      </trkpt>
      <trkpt lat="48.69204" lon="2.06073">
        <ele>127.9047088623</ele>
        <time>2016-09-22T14:56:22.000Z</time>
      </trkpt>
      <trkpt lat="48.69208" lon="2.0607">
        <ele>127.8221282959</ele>
        <time>2016-09-22T14:56:25.000Z</time>
      </trkpt>
      <trkpt lat="48.69212" lon="2.06066">
        <ele>127.81037902832</ele>
        <time>2016-09-22T14:56:28.000Z</time>
      </trkpt>
      <trkpt lat="48.69215" lon="2.06064">
        <ele>127.80462646484</ele>
        <time>2016-09-22T14:56:30.000Z</time>
      </trkpt>
      <trkpt lat="48.6922" lon="2.06061">
        <ele>127.78790283203</ele>
        <time>2016-09-22T14:56:33.000Z</time>
      </trkpt>
      <trkpt lat="48.69224" lon="2.0606">
        <ele>127.74998474121</ele>
        <time>2016-09-22T14:56:36.000Z</time>
      </trkpt>
      <trkpt lat="48.69227" lon="2.0606">
        <ele>127.61720275879</ele>
        <time>2016-09-22T14:56:38.000Z</time>
      </trkpt>
      <trkpt lat="48.69231" lon="2.06059">
        <ele>127.38816833496</ele>
        <time>2016-09-22T14:56:40.000Z</time>
      </trkpt>
      <trkpt lat="48.69234" lon="2.06058">
        <ele>127.11057281494</ele>
        <time>2016-09-22T14:56:42.000Z</time>
      </trkpt>
      <trkpt lat="48.69239" lon="2.06058">
        <ele>126.76091003418</ele>
        <time>2016-09-22T14:56:44.000Z</time>
      </trkpt>
      <trkpt lat="48.69241" lon="2.06053">
        <ele>126.54927062988</ele>
        <time>2016-09-22T14:56:47.000Z</time>
      </trkpt>
      <trkpt lat="48.69242" lon="2.0605">
        <ele>126.49196624756</ele>
        <time>2016-09-22T14:56:49.000Z</time>
      </trkpt>
      <trkpt lat="48.69243" lon="2.06049">
        <ele>126.49304199219</ele>
        <time>2016-09-22T14:56:51.000Z</time>
      </trkpt>
      <trkpt lat="48.69246" lon="2.06049">
        <ele>126.47174072266</ele>
        <time>2016-09-22T14:56:54.000Z</time>
      </trkpt>
      <trkpt lat="48.69249" lon="2.06048">
        <ele>126.53056335449</ele>
        <time>2016-09-22T14:56:56.000Z</time>
      </trkpt>
      <trkpt lat="48.69252" lon="2.06046">
        <ele>126.46397399902</ele>
        <time>2016-09-22T14:56:59.000Z</time>
      </trkpt>
      <trkpt lat="48.69255" lon="2.06043">
        <ele>126.31640625</ele>
        <time>2016-09-22T14:57:02.000Z</time>
      </trkpt>
      <trkpt lat="48.69257" lon="2.0604">
        <ele>126.19203948975</ele>
        <time>2016-09-22T14:57:04.000Z</time>
      </trkpt>
      <trkpt lat="48.69258" lon="2.06035">
        <ele>126.2804107666</ele>
        <time>2016-09-22T14:57:07.000Z</time>
      </trkpt>
      <trkpt lat="48.6926" lon="2.06033">
        <ele>126.35241699219</ele>
        <time>2016-09-22T14:57:10.000Z</time>
      </trkpt>
      <trkpt lat="48.69264" lon="2.06031">
        <ele>126.41003417969</ele>
        <time>2016-09-22T14:57:13.000Z</time>
      </trkpt>
      <trkpt lat="48.69267" lon="2.06027">
        <ele>126.47961425781</ele>
        <time>2016-09-22T14:57:16.000Z</time>
      </trkpt>
      <trkpt lat="48.69271" lon="2.06025">
        <ele>126.43835449219</ele>
        <time>2016-09-22T14:57:19.000Z</time>
      </trkpt>
      <trkpt lat="48.69275" lon="2.06024">
        <ele>126.23461914062</ele>
        <time>2016-09-22T14:57:21.000Z</time>
      </trkpt>
      <trkpt lat="48.69276" lon="2.06022">
        <ele>126.04357910156</ele>
        <time>2016-09-22T14:57:23.000Z</time>
      </trkpt>
      <trkpt lat="48.69279" lon="2.0602">
        <ele>125.86755371094</ele>
        <time>2016-09-22T14:57:26.000Z</time>
      </trkpt>
      <trkpt lat="48.69284" lon="2.06019">
        <ele>125.58544921875</ele>
        <time>2016-09-22T14:57:29.000Z</time>
      </trkpt>
      <trkpt lat="48.69287" lon="2.06018">
        <ele>125.31176757812</ele>
        <time>2016-09-22T14:57:32.000Z</time>
      </trkpt>
      <trkpt lat="48.6929" lon="2.06017">
        <ele>125.00988769531</ele>
        <time>2016-09-22T14:57:34.000Z</time>
      </trkpt>
      <trkpt lat="48.69293" lon="2.06016">
        <ele>124.66442871094</ele>
        <time>2016-09-22T14:57:36.000Z</time>
      </trkpt>
      <trkpt lat="48.69297" lon="2.06014">
        <ele>124.29028320312</ele>
        <time>2016-09-22T14:57:39.000Z</time>
      </trkpt>
      <trkpt lat="48.693" lon="2.06012">
        <ele>123.96789550781</ele>
        <time>2016-09-22T14:57:42.000Z</time>
      </trkpt>
      <trkpt lat="48.69302" lon="2.06011">
        <ele>123.68103027344</ele>
        <time>2016-09-22T14:57:44.000Z</time>
      </trkpt>
      <trkpt lat="48.69306" lon="2.06009">
        <ele>123.40539550781</ele>
        <time>2016-09-22T14:57:47.000Z</time>
      </trkpt>
      <trkpt lat="48.69308" lon="2.06007">
        <ele>123.18908691406</ele>
        <time>2016-09-22T14:57:50.000Z</time>
      </trkpt>
      <trkpt lat="48.69312" lon="2.06005">
        <ele>122.9990234375</ele>
        <time>2016-09-22T14:57:53.000Z</time>
      </trkpt>
      <trkpt lat="48.69313" lon="2.06004">
        <ele>122.82568359375</ele>
        <time>2016-09-22T14:57:55.000Z</time>
      </trkpt>
      <trkpt lat="48.69316" lon="2.06002">
        <ele>122.65942382812</ele>
        <time>2016-09-22T14:57:57.000Z</time>
      </trkpt>
      <trkpt lat="48.6932" lon="2.06">
        <ele>122.48046875</ele>
        <time>2016-09-22T14:58:00.000Z</time>
      </trkpt>
      <trkpt lat="48.69324" lon="2.05998">
        <ele>122.24291992188</ele>
        <time>2016-09-22T14:58:03.000Z</time>
      </trkpt>
      <trkpt lat="48.69328" lon="2.05997">
        <ele>121.98156738281</ele>
        <time>2016-09-22T14:58:05.000Z</time>
      </trkpt>
      <trkpt lat="48.69333" lon="2.05995">
        <ele>121.65478515625</ele>
        <time>2016-09-22T14:58:08.000Z</time>
      </trkpt>
      <trkpt lat="48.69336" lon="2.05992">
        <ele>121.32973480225</ele>
        <time>2016-09-22T14:58:11.000Z</time>
      </trkpt>
      <trkpt lat="48.69339" lon="2.0599">
        <ele>121.05158996582</ele>
        <time>2016-09-22T14:58:13.000Z</time>
      </trkpt>
      <trkpt lat="48.69342" lon="2.05989">
        <ele>120.80206298828</ele>
        <time>2016-09-22T14:58:15.000Z</time>
      </trkpt>
      <trkpt lat="48.69345" lon="2.05987">
        <ele>120.5892791748</ele>
        <time>2016-09-22T14:58:17.000Z</time>
      </trkpt>
      <trkpt lat="48.6935" lon="2.05985">
        <ele>120.39302062988</ele>
        <time>2016-09-22T14:58:20.000Z</time>
      </trkpt>
      <trkpt lat="48.69353" lon="2.05984">
        <ele>120.15937805176</ele>
        <time>2016-09-22T14:58:23.000Z</time>
      </trkpt>
      <trkpt lat="48.69357" lon="2.05983">
        <ele>119.87545013428</ele>
        <time>2016-09-22T14:58:25.000Z</time>
      </trkpt>
      <trkpt lat="48.69361" lon="2.05982">
        <ele>119.54909515381</ele>
        <time>2016-09-22T14:58:28.000Z</time>
      </trkpt>
      <trkpt lat="48.69364" lon="2.05981">
        <ele>119.20649719238</ele>
        <time>2016-09-22T14:58:30.000Z</time>
      </trkpt>
      <trkpt lat="48.69365" lon="2.0598">
        <ele>118.93283843994</ele>
        <time>2016-09-22T14:58:32.000Z</time>
      </trkpt>
      <trkpt lat="48.6937" lon="2.05977">
        <ele>118.67391204834</ele>
        <time>2016-09-22T14:58:35.000Z</time>
      </trkpt>
      <trkpt lat="48.69373" lon="2.05976">
        <ele>118.43479919434</ele>
        <time>2016-09-22T14:58:37.000Z</time>
      </trkpt>
      <trkpt lat="48.69374" lon="2.05975">
        <ele>118.24839782715</ele>
        <time>2016-09-22T14:58:39.000Z</time>
      </trkpt>
      <trkpt lat="48.69377" lon="2.05973">
        <ele>118.07969665527</ele>
        <time>2016-09-22T14:58:42.000Z</time>
      </trkpt>
      <trkpt lat="48.69381" lon="2.05971">
        <ele>117.86873626709</ele>
        <time>2016-09-22T14:58:45.000Z</time>
      </trkpt>
      <trkpt lat="48.69383" lon="2.0597">
        <ele>117.68696594238</ele>
        <time>2016-09-22T14:58:47.000Z</time>
      </trkpt>
      <trkpt lat="48.69386" lon="2.05968">
        <ele>117.51049804688</ele>
        <time>2016-09-22T14:58:49.000Z</time>
      </trkpt>
      <trkpt lat="48.69391" lon="2.05965">
        <ele>117.28886413574</ele>
        <time>2016-09-22T14:58:52.000Z</time>
      </trkpt>
      <trkpt lat="48.69395" lon="2.05963">
        <ele>117.05043029785</ele>
        <time>2016-09-22T14:58:54.000Z</time>
      </trkpt>
      <trkpt lat="48.69398" lon="2.05961">
        <ele>116.80635070801</ele>
        <time>2016-09-22T14:58:57.000Z</time>
      </trkpt>
      <trkpt lat="48.694" lon="2.0596">
        <ele>116.56638336182</ele>
        <time>2016-09-22T14:59:00.000Z</time>
      </trkpt>
      <trkpt lat="48.69402" lon="2.05961">
        <ele>116.32553863525</ele>
        <time>2016-09-22T14:59:02.000Z</time>
      </trkpt>
      <trkpt lat="48.69405" lon="2.05959">
        <ele>116.11165618896</ele>
        <time>2016-09-22T14:59:04.000Z</time>
      </trkpt>
      <trkpt lat="48.6941" lon="2.05955">
        <ele>115.8829574585</ele>
        <time>2016-09-22T14:59:07.000Z</time>
      </trkpt>
      <trkpt lat="48.69412" lon="2.05953">
        <ele>115.68476867676</ele>
        <time>2016-09-22T14:59:09.000Z</time>
      </trkpt>
      <trkpt lat="48.69415" lon="2.05951">
        <ele>115.46601867676</ele>
        <time>2016-09-22T14:59:12.000Z</time>
      </trkpt>
      <trkpt lat="48.69419" lon="2.05949">
        <ele>115.28620910645</ele>
        <time>2016-09-22T14:59:14.000Z</time>
      </trkpt>
      <trkpt lat="48.69423" lon="2.05947">
        <ele>115.10661315918</ele>
        <time>2016-09-22T14:59:17.000Z</time>
      </trkpt>
      <trkpt lat="48.69426" lon="2.05947">
        <ele>114.96207427979</ele>
        <time>2016-09-22T14:59:19.000Z</time>
      </trkpt>
      <trkpt lat="48.69429" lon="2.05946">
        <ele>114.82073974609</ele>
        <time>2016-09-22T14:59:21.000Z</time>
      </trkpt>
      <trkpt lat="48.69431" lon="2.05943">
        <ele>114.74639892578</ele>
        <time>2016-09-22T14:59:24.000Z</time>
      </trkpt>
      <trkpt lat="48.69432" lon="2.05942">
        <ele>114.68086242676</ele>
        <time>2016-09-22T14:59:26.000Z</time>
      </trkpt>
      <trkpt lat="48.69434" lon="2.0594">
        <ele>114.66967773438</ele>
        <time>2016-09-22T14:59:28.000Z</time>
      </trkpt>
      <trkpt lat="48.69436" lon="2.05937">
        <ele>114.72688293457</ele>
        <time>2016-09-22T14:59:31.000Z</time>
      </trkpt>
      <trkpt lat="48.69437" lon="2.05935">
        <ele>114.83839416504</ele>
        <time>2016-09-22T14:59:34.000Z</time>
      </trkpt>
      <trkpt lat="48.69444" lon="2.05932">
        <ele>114.89168548584</ele>
        <time>2016-09-22T14:59:37.000Z</time>
      </trkpt>
      <trkpt lat="48.69447" lon="2.0593">
        <ele>114.9295425415</ele>
        <time>2016-09-22T14:59:39.000Z</time>
      </trkpt>
      <trkpt lat="48.69449" lon="2.05927">
        <ele>114.99086761475</ele>
        <time>2016-09-22T14:59:42.000Z</time>
      </trkpt>
      <trkpt lat="48.69451" lon="2.05926">
        <ele>114.99411773682</ele>
        <time>2016-09-22T14:59:44.000Z</time>
      </trkpt>
      <trkpt lat="48.69456" lon="2.05925">
        <ele>114.92691802979</ele>
        <time>2016-09-22T14:59:47.000Z</time>
      </trkpt>
      <trkpt lat="48.6946" lon="2.05924">
        <ele>114.84104919434</ele>
        <time>2016-09-22T14:59:50.000Z</time>
      </trkpt>
      <trkpt lat="48.69463" lon="2.05924">
        <ele>114.73902893066</ele>
        <time>2016-09-22T14:59:53.000Z</time>
      </trkpt>
      <trkpt lat="48.69465" lon="2.05922">
        <ele>114.60500335693</ele>
        <time>2016-09-22T14:59:55.000Z</time>
      </trkpt>
      <trkpt lat="48.69468" lon="2.05919">
        <ele>114.49409484863</ele>
        <time>2016-09-22T14:59:58.000Z</time>
      </trkpt>
      <trkpt lat="48.69471" lon="2.05918">
        <ele>114.40747070312</ele>
        <time>2016-09-22T15:00:01.000Z</time>
      </trkpt>
      <trkpt lat="48.69475" lon="2.05917">
        <ele>114.31056213379</ele>
        <time>2016-09-22T15:00:04.000Z</time>
      </trkpt>
      <trkpt lat="48.69477" lon="2.05917">
        <ele>114.21879577637</ele>
        <time>2016-09-22T15:00:06.000Z</time>
      </trkpt>
      <trkpt lat="48.69481" lon="2.05917">
        <ele>114.05820465088</ele>
        <time>2016-09-22T15:00:09.000Z</time>
      </trkpt>
      <trkpt lat="48.69484" lon="2.05916">
        <ele>113.84261322021</ele>
        <time>2016-09-22T15:00:12.000Z</time>
      </trkpt>
      <trkpt lat="48.69486" lon="2.05915">
        <ele>113.63842773438</ele>
        <time>2016-09-22T15:00:14.000Z</time>
      </trkpt>
      <trkpt lat="48.6949" lon="2.05913">
        <ele>113.47802734375</ele>
        <time>2016-09-22T15:00:17.000Z</time>
      </trkpt>
      <trkpt lat="48.69494" lon="2.05911">
        <ele>113.33540344238</ele>
        <time>2016-09-22T15:00:20.000Z</time>
      </trkpt>
      <trkpt lat="48.69499" lon="2.05909">
        <ele>113.21482849121</ele>
        <time>2016-09-22T15:00:23.000Z</time>
      </trkpt>
      <trkpt lat="48.69506" lon="2.05907">
        <ele>113.14640808105</ele>
        <time>2016-09-22T15:00:26.000Z</time>
      </trkpt>
      <trkpt lat="48.69511" lon="2.05906">
        <ele>113.109375</ele>
        <time>2016-09-22T15:00:29.000Z</time>
      </trkpt>
      <trkpt lat="48.69514" lon="2.05906">
        <ele>113.08317565918</ele>
        <time>2016-09-22T15:00:32.000Z</time>
      </trkpt>
      <trkpt lat="48.69515" lon="2.05905">
        <ele>113.08897399902</ele>
        <time>2016-09-22T15:00:35.000Z</time>
      </trkpt>
      <trkpt lat="48.69516" lon="2.05904">
        <ele>113.17140960693</ele>
        <time>2016-09-22T15:00:37.000Z</time>
      </trkpt>
      <trkpt lat="48.69519" lon="2.05902">
        <ele>113.2875213623</ele>
        <time>2016-09-22T15:00:40.000Z</time>
      </trkpt>
      <trkpt lat="48.69522" lon="2.059">
        <ele>113.40531921387</ele>
        <time>2016-09-22T15:00:42.000Z</time>
      </trkpt>
      <trkpt lat="48.69525" lon="2.05898">
        <ele>113.57698822021</ele>
        <time>2016-09-22T15:00:44.000Z</time>
      </trkpt>
      <trkpt lat="48.69529" lon="2.05898">
        <ele>113.72802734375</ele>
        <time>2016-09-22T15:00:47.000Z</time>
      </trkpt>
      <trkpt lat="48.69531" lon="2.05899">
        <ele>113.82132720947</ele>
        <time>2016-09-22T15:00:49.000Z</time>
      </trkpt>
      <trkpt lat="48.69536" lon="2.05901">
        <ele>113.82759094238</ele>
        <time>2016-09-22T15:00:52.000Z</time>
      </trkpt>
      <trkpt lat="48.69539" lon="2.05902">
        <ele>113.77547454834</ele>
        <time>2016-09-22T15:00:54.000Z</time>
      </trkpt>
      <trkpt lat="48.69542" lon="2.05903">
        <ele>113.65403747559</ele>
        <time>2016-09-22T15:00:56.000Z</time>
      </trkpt>
      <trkpt lat="48.69546" lon="2.05904">
        <ele>113.51240539551</ele>
        <time>2016-09-22T15:00:59.000Z</time>
      </trkpt>
      <trkpt lat="48.69549" lon="2.05904">
        <ele>113.40747070312</ele>
        <time>2016-09-22T15:01:01.000Z</time>
      </trkpt>
      <trkpt lat="48.69553" lon="2.05901">
        <ele>113.3902130127</ele>
        <time>2016-09-22T15:01:03.000Z</time>
      </trkpt>
      <trkpt lat="48.69557" lon="2.05899">
        <ele>113.44425201416</ele>
        <time>2016-09-22T15:01:06.000Z</time>
      </trkpt>
      <trkpt lat="48.69561" lon="2.05898">
        <ele>113.53642272949</ele>
        <time>2016-09-22T15:01:09.000Z</time>
      </trkpt>
      <trkpt lat="48.69565" lon="2.05897">
        <ele>113.66920471191</ele>
        <time>2016-09-22T15:01:11.000Z</time>
      </trkpt>
      <trkpt lat="48.69569" lon="2.05897">
        <ele>113.79103088379</ele>
        <time>2016-09-22T15:01:14.000Z</time>
      </trkpt>
      <trkpt lat="48.69572" lon="2.05897">
        <ele>113.85942077637</ele>
        <time>2016-09-22T15:01:16.000Z</time>
      </trkpt>
      <trkpt lat="48.69576" lon="2.05898">
        <ele>113.8824005127</ele>
        <time>2016-09-22T15:01:18.000Z</time>
      </trkpt>
      <trkpt lat="48.69577" lon="2.05897">
        <ele>113.89294433594</ele>
        <time>2016-09-22T15:01:20.000Z</time>
      </trkpt>
      <trkpt lat="48.6958" lon="2.05898">
        <ele>113.85768127441</ele>
        <time>2016-09-22T15:01:23.000Z</time>
      </trkpt>
      <trkpt lat="48.69582" lon="2.05901">
        <ele>113.7765045166</ele>
        <time>2016-09-22T15:01:26.000Z</time>
      </trkpt>
      <trkpt lat="48.69584" lon="2.05902">
        <ele>113.68615722656</ele>
        <time>2016-09-22T15:01:28.000Z</time>
      </trkpt>
      <trkpt lat="48.69586" lon="2.05903">
        <ele>113.61088562012</ele>
        <time>2016-09-22T15:01:30.000Z</time>
      </trkpt>
      <trkpt lat="48.69587" lon="2.05904">
        <ele>113.52504730225</ele>
        <time>2016-09-22T15:01:34.000Z</time>
      </trkpt>
      <trkpt lat="48.69589" lon="2.05904">
        <ele>113.48173522949</ele>
        <time>2016-09-22T15:01:36.000Z</time>
      </trkpt>
      <trkpt lat="48.69591" lon="2.05904">
        <ele>113.50270080566</ele>
        <time>2016-09-22T15:01:38.000Z</time>
      </trkpt>
      <trkpt lat="48.69592" lon="2.05905">
        <ele>113.52587890625</ele>
        <time>2016-09-22T15:01:41.000Z</time>
      </trkpt>
      <trkpt lat="48.69595" lon="2.05907">
        <ele>113.53769683838</ele>
        <time>2016-09-22T15:01:44.000Z</time>
      </trkpt>
      <trkpt lat="48.696" lon="2.05908">
        <ele>113.5712890625</ele>
        <time>2016-09-22T15:01:47.000Z</time>
      </trkpt>
      <trkpt lat="48.69603" lon="2.05909">
        <ele>113.60949707031</ele>
        <time>2016-09-22T15:01:50.000Z</time>
      </trkpt>
      <trkpt lat="48.69606" lon="2.0591">
        <ele>113.63706207275</ele>
        <time>2016-09-22T15:01:52.000Z</time>
      </trkpt>
      <trkpt lat="48.69611" lon="2.05912">
        <ele>113.69058990479</ele>
        <time>2016-09-22T15:01:55.000Z</time>
      </trkpt>
      <trkpt lat="48.69614" lon="2.05914">
        <ele>113.72772216797</ele>
        <time>2016-09-22T15:01:57.000Z</time>
      </trkpt>
      <trkpt lat="48.69619" lon="2.05917">
        <ele>113.74574279785</ele>
        <time>2016-09-22T15:02:00.000Z</time>
      </trkpt>
      <trkpt lat="48.69622" lon="2.05918">
        <ele>113.74751281738</ele>
        <time>2016-09-22T15:02:03.000Z</time>
      </trkpt>
      <trkpt lat="48.69627" lon="2.05919">
        <ele>113.7393951416</ele>
        <time>2016-09-22T15:02:06.000Z</time>
      </trkpt>
      <trkpt lat="48.69632" lon="2.05921">
        <ele>113.74222564697</ele>
        <time>2016-09-22T15:02:09.000Z</time>
      </trkpt>
      <trkpt lat="48.69635" lon="2.05921">
        <ele>113.77559661865</ele>
        <time>2016-09-22T15:02:12.000Z</time>
      </trkpt>
      <trkpt lat="48.69639" lon="2.05922">
        <ele>113.83335113525</ele>
        <time>2016-09-22T15:02:15.000Z</time>
      </trkpt>
      <trkpt lat="48.69643" lon="2.05923">
        <ele>113.8731842041</ele>
        <time>2016-09-22T15:02:18.000Z</time>
      </trkpt>
      <trkpt lat="48.69647" lon="2.05925">
        <ele>113.90980529785</ele>
        <time>2016-09-22T15:02:21.000Z</time>
      </trkpt>
      <trkpt lat="48.6965" lon="2.05925">
        <ele>113.96144104004</ele>
        <time>2016-09-22T15:02:23.000Z</time>
      </trkpt>
      <trkpt lat="48.69656" lon="2.05926">
        <ele>114.02238464355</ele>
        <time>2016-09-22T15:02:26.000Z</time>
      </trkpt>
      <trkpt lat="48.69658" lon="2.05927">
        <ele>114.04195404053</ele>
        <time>2016-09-22T15:02:28.000Z</time>
      </trkpt>
      <trkpt lat="48.69661" lon="2.05928">
        <ele>114.06512451172</ele>
        <time>2016-09-22T15:02:30.000Z</time>
      </trkpt>
      <trkpt lat="48.69663" lon="2.05929">
        <ele>114.09482574463</ele>
        <time>2016-09-22T15:02:32.000Z</time>
      </trkpt>
      <trkpt lat="48.69665" lon="2.0593">
        <ele>114.0912322998</ele>
        <time>2016-09-22T15:02:34.000Z</time>
      </trkpt>
      <trkpt lat="48.69667" lon="2.05931">
        <ele>114.03820800781</ele>
        <time>2016-09-22T15:02:37.000Z</time>
      </trkpt>
      <trkpt lat="48.69669" lon="2.05932">
        <ele>113.9761505127</ele>
        <time>2016-09-22T15:02:40.000Z</time>
      </trkpt>
      <trkpt lat="48.69671" lon="2.05933">
        <ele>113.90329742432</ele>
        <time>2016-09-22T15:02:42.000Z</time>
      </trkpt>
      <trkpt lat="48.69673" lon="2.05933">
        <ele>113.82432556152</ele>
        <time>2016-09-22T15:02:45.000Z</time>
      </trkpt>
      <trkpt lat="48.69674" lon="2.05934">
        <ele>113.72145080566</ele>
        <time>2016-09-22T15:02:47.000Z</time>
      </trkpt>
      <trkpt lat="48.6968" lon="2.05936">
        <ele>113.59322357178</ele>
        <time>2016-09-22T15:02:50.000Z</time>
      </trkpt>
      <trkpt lat="48.69684" lon="2.05937">
        <ele>113.47624206543</ele>
        <time>2016-09-22T15:02:52.000Z</time>
      </trkpt>
      <trkpt lat="48.69688" lon="2.05936">
        <ele>113.40036773682</ele>
        <time>2016-09-22T15:02:55.000Z</time>
      </trkpt>
      <trkpt lat="48.69691" lon="2.05936">
        <ele>113.34462738037</ele>
        <time>2016-09-22T15:02:57.000Z</time>
      </trkpt>
      <trkpt lat="48.69695" lon="2.05937">
        <ele>113.27319335938</ele>
        <time>2016-09-22T15:03:00.000Z</time>
      </trkpt>
      <trkpt lat="48.69697" lon="2.05938">
        <ele>113.2495880127</ele>
        <time>2016-09-22T15:03:02.000Z</time>
      </trkpt>
      <trkpt lat="48.69698" lon="2.05939">
        <ele>113.2088470459</ele>
        <time>2016-09-22T15:03:05.000Z</time>
      </trkpt>
      <trkpt lat="48.69701" lon="2.0594">
        <ele>113.11533355713</ele>
        <time>2016-09-22T15:03:07.000Z</time>
      </trkpt>
      <trkpt lat="48.69704" lon="2.05941">
        <ele>113.00337219238</ele>
        <time>2016-09-22T15:03:10.000Z</time>
      </trkpt>
      <trkpt lat="48.69707" lon="2.05941">
        <ele>112.91176605225</ele>
        <time>2016-09-22T15:03:12.000Z</time>
      </trkpt>
      <trkpt lat="48.69709" lon="2.05942">
        <ele>112.80407714844</ele>
        <time>2016-09-22T15:03:14.000Z</time>
      </trkpt>
      <trkpt lat="48.69714" lon="2.05942">
        <ele>112.74757385254</ele>
        <time>2016-09-22T15:03:17.000Z</time>
      </trkpt>
      <trkpt lat="48.69717" lon="2.05944">
        <ele>112.67070007324</ele>
        <time>2016-09-22T15:03:24.000Z</time>
      </trkpt>
      <trkpt lat="48.69719" lon="2.05944">
        <ele>112.59869384766</ele>
        <time>2016-09-22T15:03:26.000Z</time>
      </trkpt>
      <trkpt lat="48.69721" lon="2.05945">
        <ele>112.51837158203</ele>
        <time>2016-09-22T15:03:29.000Z</time>
      </trkpt>
      <trkpt lat="48.69724" lon="2.05948">
        <ele>112.3981552124</ele>
        <time>2016-09-22T15:03:31.000Z</time>
      </trkpt>
      <trkpt lat="48.69727" lon="2.05949">
        <ele>112.23377990723</ele>
        <time>2016-09-22T15:03:34.000Z</time>
      </trkpt>
      <trkpt lat="48.69729" lon="2.0595">
        <ele>112.1095199585</ele>
        <time>2016-09-22T15:03:37.000Z</time>
      </trkpt>
      <trkpt lat="48.69732" lon="2.05951">
        <ele>111.957862854</ele>
        <time>2016-09-22T15:03:39.000Z</time>
      </trkpt>
      <trkpt lat="48.69736" lon="2.05953">
        <ele>111.79188537598</ele>
        <time>2016-09-22T15:03:42.000Z</time>
      </trkpt>
      <trkpt lat="48.69739" lon="2.05955">
        <ele>111.63844299316</ele>
        <time>2016-09-22T15:03:44.000Z</time>
      </trkpt>
      <trkpt lat="48.69745" lon="2.05958">
        <ele>111.46164703369</ele>
        <time>2016-09-22T15:03:47.000Z</time>
      </trkpt>
      <trkpt lat="48.69748" lon="2.0596">
        <ele>111.25590515137</ele>
        <time>2016-09-22T15:03:49.000Z</time>
      </trkpt>
      <trkpt lat="48.6975" lon="2.05963">
        <ele>111.00064849854</ele>
        <time>2016-09-22T15:03:52.000Z</time>
      </trkpt>
      <trkpt lat="48.69753" lon="2.05966">
        <ele>110.68385314941</ele>
        <time>2016-09-22T15:03:55.000Z</time>
      </trkpt>
      <trkpt lat="48.69756" lon="2.05967">
        <ele>110.35483551025</ele>
        <time>2016-09-22T15:03:57.000Z</time>
      </trkpt>
      <trkpt lat="48.69759" lon="2.05969">
        <ele>109.9854888916</ele>
        <time>2016-09-22T15:04:00.000Z</time>
      </trkpt>
      <trkpt lat="48.69762" lon="2.0597">
        <ele>109.6008682251</ele>
        <time>2016-09-22T15:04:02.000Z</time>
      </trkpt>
      <trkpt lat="48.69766" lon="2.05973">
        <ele>109.19496154785</ele>
        <time>2016-09-22T15:04:05.000Z</time>
      </trkpt>
      <trkpt lat="48.6977" lon="2.05974">
        <ele>108.8331451416</ele>
        <time>2016-09-22T15:04:07.000Z</time>
      </trkpt>
      <trkpt lat="48.69773" lon="2.05974">
        <ele>108.51344299316</ele>
        <time>2016-09-22T15:04:09.000Z</time>
      </trkpt>
      <trkpt lat="48.69777" lon="2.05976">
        <ele>108.2092666626</ele>
        <time>2016-09-22T15:04:12.000Z</time>
      </trkpt>
      <trkpt lat="48.6978" lon="2.05978">
        <ele>107.87341308594</ele>
        <time>2016-09-22T15:04:14.000Z</time>
      </trkpt>
      <trkpt lat="48.69787" lon="2.05982">
        <ele>107.51182556152</ele>
        <time>2016-09-22T15:04:17.000Z</time>
      </trkpt>
      <trkpt lat="48.69791" lon="2.05984">
        <ele>107.14326477051</ele>
        <time>2016-09-22T15:04:19.000Z</time>
      </trkpt>
      <trkpt lat="48.69794" lon="2.05986">
        <ele>106.74040222168</ele>
        <time>2016-09-22T15:04:21.000Z</time>
      </trkpt>
      <trkpt lat="48.69799" lon="2.05988">
        <ele>106.3461151123</ele>
        <time>2016-09-22T15:04:24.000Z</time>
      </trkpt>
      <trkpt lat="48.69801" lon="2.05989">
        <ele>106.00067138672</ele>
        <time>2016-09-22T15:04:26.000Z</time>
      </trkpt>
      <trkpt lat="48.69803" lon="2.05991">
        <ele>105.75577545166</ele>
        <time>2016-09-22T15:04:28.000Z</time>
      </trkpt>
      <trkpt lat="48.69806" lon="2.05992">
        <ele>105.53363037109</ele>
        <time>2016-09-22T15:04:31.000Z</time>
      </trkpt>
      <trkpt lat="48.69807" lon="2.05994">
        <ele>105.33203125</ele>
        <time>2016-09-22T15:04:33.000Z</time>
      </trkpt>
      <trkpt lat="48.69808" lon="2.05996">
        <ele>105.16496276855</ele>
        <time>2016-09-22T15:04:35.000Z</time>
      </trkpt>
      <trkpt lat="48.6981" lon="2.05998">
        <ele>105.00309753418</ele>
        <time>2016-09-22T15:04:38.000Z</time>
      </trkpt>
      <trkpt lat="48.69811" lon="2.06">
        <ele>104.84167480469</ele>
        <time>2016-09-22T15:04:40.000Z</time>
      </trkpt>
      <trkpt lat="48.69814" lon="2.06001">
        <ele>104.69338226318</ele>
        <time>2016-09-22T15:04:42.000Z</time>
      </trkpt>
      <trkpt lat="48.69817" lon="2.06001">
        <ele>104.56011962891</ele>
        <time>2016-09-22T15:04:45.000Z</time>
      </trkpt>
      <trkpt lat="48.6982" lon="2.06002">
        <ele>104.44044494629</ele>
        <time>2016-09-22T15:04:47.000Z</time>
      </trkpt>
      <trkpt lat="48.69825" lon="2.06003">
        <ele>104.31791687012</ele>
        <time>2016-09-22T15:04:51.000Z</time>
      </trkpt>
      <trkpt lat="48.69829" lon="2.06006">
        <ele>104.16752624512</ele>
        <time>2016-09-22T15:05:06.000Z</time>
      </trkpt>
      <trkpt lat="48.69832" lon="2.0601">
        <ele>103.99754333496</ele>
        <time>2016-09-22T15:05:09.000Z</time>
      </trkpt>
      <trkpt lat="48.69837" lon="2.06015">
        <ele>103.75106048584</ele>
        <time>2016-09-22T15:05:12.000Z</time>
      </trkpt>
      <trkpt lat="48.69841" lon="2.06018">
        <ele>103.45269775391</ele>
        <time>2016-09-22T15:05:14.000Z</time>
      </trkpt>
      <trkpt lat="48.69842" lon="2.06021">
        <ele>103.15810394287</ele>
        <time>2016-09-22T15:05:16.000Z</time>
      </trkpt>
      <trkpt lat="48.69847" lon="2.06024">
        <ele>102.83563232422</ele>
        <time>2016-09-22T15:05:19.000Z</time>
      </trkpt>
      <trkpt lat="48.69852" lon="2.06029">
        <ele>102.48474121094</ele>
        <time>2016-09-22T15:05:21.000Z</time>
      </trkpt>
      <trkpt lat="48.69857" lon="2.06034">
        <ele>102.1443939209</ele>
        <time>2016-09-22T15:05:24.000Z</time>
      </trkpt>
      <trkpt lat="48.69861" lon="2.06039">
        <ele>101.81373596191</ele>
        <time>2016-09-22T15:05:27.000Z</time>
      </trkpt>
      <trkpt lat="48.69866" lon="2.06042">
        <ele>101.4588394165</ele>
        <time>2016-09-22T15:05:30.000Z</time>
      </trkpt>
      <trkpt lat="48.69869" lon="2.06044">
        <ele>101.15325927734</ele>
        <time>2016-09-22T15:05:32.000Z</time>
      </trkpt>
      <trkpt lat="48.69872" lon="2.06046">
        <ele>100.89524841309</ele>
        <time>2016-09-22T15:05:35.000Z</time>
      </trkpt>
      <trkpt lat="48.69874" lon="2.06047">
        <ele>100.69999694824</ele>
        <time>2016-09-22T15:05:38.000Z</time>
      </trkpt>
      <trkpt lat="48.69876" lon="2.06048">
        <ele>100.54080963135</ele>
        <time>2016-09-22T15:05:41.000Z</time>
      </trkpt>
      <trkpt lat="48.69878" lon="2.0605">
        <ele>100.41905212402</ele>
        <time>2016-09-22T15:05:43.000Z</time>
      </trkpt>
      <trkpt lat="48.6988" lon="2.06051">
        <ele>100.31401062012</ele>
        <time>2016-09-22T15:05:45.000Z</time>
      </trkpt>
      <trkpt lat="48.69883" lon="2.06054">
        <ele>100.2054977417</ele>
        <time>2016-09-22T15:05:48.000Z</time>
      </trkpt>
      <trkpt lat="48.69888" lon="2.06058">
        <ele>100.07061004639</ele>
        <time>2016-09-22T15:05:51.000Z</time>
      </trkpt>
      <trkpt lat="48.69893" lon="2.06061">
        <ele>99.930786132812</ele>
        <time>2016-09-22T15:05:54.000Z</time>
      </trkpt>
      <trkpt lat="48.69897" lon="2.06064">
        <ele>99.77734375</ele>
        <time>2016-09-22T15:05:57.000Z</time>
      </trkpt>
      <trkpt lat="48.69901" lon="2.06066">
        <ele>99.619728088379</ele>
        <time>2016-09-22T15:05:59.000Z</time>
      </trkpt>
      <trkpt lat="48.69904" lon="2.06067">
        <ele>99.478012084961</ele>
        <time>2016-09-22T15:06:01.000Z</time>
      </trkpt>
      <trkpt lat="48.69908" lon="2.0607">
        <ele>99.363662719727</ele>
        <time>2016-09-22T15:06:04.000Z</time>
      </trkpt>
      <trkpt lat="48.69911" lon="2.06073">
        <ele>99.265029907227</ele>
        <time>2016-09-22T15:06:06.000Z</time>
      </trkpt>
      <trkpt lat="48.69916" lon="2.06079">
        <ele>99.179824829102</ele>
        <time>2016-09-22T15:06:09.000Z</time>
      </trkpt>
      <trkpt lat="48.69918" lon="2.06083">
        <ele>99.094337463379</ele>
        <time>2016-09-22T15:06:11.000Z</time>
      </trkpt>
      <trkpt lat="48.6992" lon="2.06087">
        <ele>98.96549987793</ele>
        <time>2016-09-22T15:06:14.000Z</time>
      </trkpt>
      <trkpt lat="48.69921" lon="2.0609">
        <ele>98.802268981934</ele>
        <time>2016-09-22T15:06:18.000Z</time>
      </trkpt>
      <trkpt lat="48.69927" lon="2.06093">
        <ele>98.549713134766</ele>
        <time>2016-09-22T15:06:21.000Z</time>
      </trkpt>
      <trkpt lat="48.69932" lon="2.06098">
        <ele>98.206893920898</ele>
        <time>2016-09-22T15:06:24.000Z</time>
      </trkpt>
      <trkpt lat="48.69934" lon="2.061">
        <ele>97.837753295898</ele>
        <time>2016-09-22T15:06:26.000Z</time>
      </trkpt>
      <trkpt lat="48.69936" lon="2.06103">
        <ele>97.47380065918</ele>
        <time>2016-09-22T15:06:29.000Z</time>
      </trkpt>
      <trkpt lat="48.69936" lon="2.06108">
        <ele>97.132987976074</ele>
        <time>2016-09-22T15:06:32.000Z</time>
      </trkpt>
      <trkpt lat="48.69938" lon="2.06111">
        <ele>96.83967590332</ele>
        <time>2016-09-22T15:06:35.000Z</time>
      </trkpt>
      <trkpt lat="48.69941" lon="2.06113">
        <ele>96.610656738281</ele>
        <time>2016-09-22T15:06:37.000Z</time>
      </trkpt>
      <trkpt lat="48.69946" lon="2.06116">
        <ele>96.347854614258</ele>
        <time>2016-09-22T15:06:40.000Z</time>
      </trkpt>
      <trkpt lat="48.69948" lon="2.06117">
        <ele>96.097694396973</ele>
        <time>2016-09-22T15:06:43.000Z</time>
      </trkpt>
      <trkpt lat="48.6995" lon="2.06119">
        <ele>95.851203918457</ele>
        <time>2016-09-22T15:06:46.000Z</time>
      </trkpt>
      <trkpt lat="48.69956" lon="2.0612">
        <ele>95.580108642578</ele>
        <time>2016-09-22T15:06:50.000Z</time>
      </trkpt>
      <trkpt lat="48.6996" lon="2.06125">
        <ele>95.278366088867</ele>
        <time>2016-09-22T15:06:53.000Z</time>
      </trkpt>
      <trkpt lat="48.69962" lon="2.06129">
        <ele>95.011764526367</ele>
        <time>2016-09-22T15:06:56.000Z</time>
      </trkpt>
      <trkpt lat="48.69964" lon="2.06132">
        <ele>94.748878479004</ele>
        <time>2016-09-22T15:06:58.000Z</time>
      </trkpt>
      <trkpt lat="48.69967" lon="2.06136">
        <ele>94.465431213379</ele>
        <time>2016-09-22T15:07:00.000Z</time>
      </trkpt>
      <trkpt lat="48.69968" lon="2.06139">
        <ele>94.231239318848</ele>
        <time>2016-09-22T15:07:03.000Z</time>
      </trkpt>
      <trkpt lat="48.6997" lon="2.06142">
        <ele>94.037071228027</ele>
        <time>2016-09-22T15:07:05.000Z</time>
      </trkpt>
      <trkpt lat="48.69975" lon="2.06146">
        <ele>93.823448181152</ele>
        <time>2016-09-22T15:07:08.000Z</time>
      </trkpt>
      <trkpt lat="48.6998" lon="2.0615">
        <ele>93.59228515625</ele>
        <time>2016-09-22T15:07:11.000Z</time>
      </trkpt>
      <trkpt lat="48.69983" lon="2.06154">
        <ele>93.369110107422</ele>
        <time>2016-09-22T15:07:14.000Z</time>
      </trkpt>
      <trkpt lat="48.69986" lon="2.06157">
        <ele>93.137130737305</ele>
        <time>2016-09-22T15:07:17.000Z</time>
      </trkpt>
      <trkpt lat="48.69989" lon="2.0616">
        <ele>92.908378601074</ele>
        <time>2016-09-22T15:07:19.000Z</time>
      </trkpt>
      <trkpt lat="48.69991" lon="2.06162">
        <ele>92.714820861816</ele>
        <time>2016-09-22T15:07:22.000Z</time>
      </trkpt>
      <trkpt lat="48.69993" lon="2.06166">
        <ele>92.551826477051</ele>
        <time>2016-09-22T15:07:25.000Z</time>
      </trkpt>
      <trkpt lat="48.69996" lon="2.06167">
        <ele>92.400482177734</ele>
        <time>2016-09-22T15:07:27.000Z</time>
      </trkpt>
      <trkpt lat="48.69999" lon="2.06169">
        <ele>92.255760192871</ele>
        <time>2016-09-22T15:07:30.000Z</time>
      </trkpt>
      <trkpt lat="48.70001" lon="2.06172">
        <ele>92.108818054199</ele>
        <time>2016-09-22T15:07:33.000Z</time>
      </trkpt>
      <trkpt lat="48.70004" lon="2.06176">
        <ele>91.940956115723</ele>
        <time>2016-09-22T15:07:36.000Z</time>
      </trkpt>
      <trkpt lat="48.70005" lon="2.06177">
        <ele>91.777534484863</ele>
        <time>2016-09-22T15:07:38.000Z</time>
      </trkpt>
      <trkpt lat="48.70007" lon="2.06179">
        <ele>91.615608215332</ele>
        <time>2016-09-22T15:07:40.000Z</time>
      </trkpt>
      <trkpt lat="48.7001" lon="2.06183">
        <ele>91.430892944336</ele>
        <time>2016-09-22T15:07:43.000Z</time>
      </trkpt>
      <trkpt lat="48.70012" lon="2.06185">
        <ele>91.259056091309</ele>
        <time>2016-09-22T15:07:45.000Z</time>
      </trkpt>
      <trkpt lat="48.70015" lon="2.0619">
        <ele>91.089530944824</ele>
        <time>2016-09-22T15:07:48.000Z</time>
      </trkpt>
      <trkpt lat="48.70017" lon="2.06193">
        <ele>90.905883789062</ele>
        <time>2016-09-22T15:07:50.000Z</time>
      </trkpt>
      <trkpt lat="48.70021" lon="2.06198">
        <ele>90.695037841797</ele>
        <time>2016-09-22T15:07:53.000Z</time>
      </trkpt>
      <trkpt lat="48.70024" lon="2.06201">
        <ele>90.500961303711</ele>
        <time>2016-09-22T15:07:55.000Z</time>
      </trkpt>
      <trkpt lat="48.70029" lon="2.06205">
        <ele>90.277610778809</ele>
        <time>2016-09-22T15:07:58.000Z</time>
      </trkpt>
      <trkpt lat="48.70032" lon="2.0621">
        <ele>90.066650390625</ele>
        <time>2016-09-22T15:08:01.000Z</time>
      </trkpt>
      <trkpt lat="48.70035" lon="2.06214">
        <ele>89.855690002441</ele>
        <time>2016-09-22T15:08:04.000Z</time>
      </trkpt>
      <trkpt lat="48.70037" lon="2.06217">
        <ele>89.673950195312</ele>
        <time>2016-09-22T15:08:06.000Z</time>
      </trkpt>
      <trkpt lat="48.70041" lon="2.06222">
        <ele>89.500099182129</ele>
        <time>2016-09-22T15:08:09.000Z</time>
      </trkpt>
      <trkpt lat="48.70045" lon="2.06228">
        <ele>89.339111328125</ele>
        <time>2016-09-22T15:08:12.000Z</time>
      </trkpt>
      <trkpt lat="48.70049" lon="2.06234">
        <ele>89.186935424805</ele>
        <time>2016-09-22T15:08:19.000Z</time>
      </trkpt>
      <trkpt lat="48.70053" lon="2.0624">
        <ele>89.040214538574</ele>
        <time>2016-09-22T15:08:22.000Z</time>
      </trkpt>
      <trkpt lat="48.70055" lon="2.06246">
        <ele>88.907493591309</ele>
        <time>2016-09-22T15:08:25.000Z</time>
      </trkpt>
      <trkpt lat="48.70057" lon="2.06249">
        <ele>88.795875549316</ele>
        <time>2016-09-22T15:08:28.000Z</time>
      </trkpt>
      <trkpt lat="48.70059" lon="2.06251">
        <ele>88.704460144043</ele>
        <time>2016-09-22T15:08:30.000Z</time>
      </trkpt>
      <trkpt lat="48.70062" lon="2.06255">
        <ele>88.613487243652</ele>
        <time>2016-09-22T15:08:32.000Z</time>
      </trkpt>
      <trkpt lat="48.70066" lon="2.0626">
        <ele>88.517227172852</ele>
        <time>2016-09-22T15:08:35.000Z</time>
      </trkpt>
      <trkpt lat="48.70068" lon="2.06264">
        <ele>88.407264709473</ele>
        <time>2016-09-22T15:08:38.000Z</time>
      </trkpt>
      <trkpt lat="48.7007" lon="2.0627">
        <ele>88.282409667969</ele>
        <time>2016-09-22T15:08:41.000Z</time>
      </trkpt>
      <trkpt lat="48.70071" lon="2.06274">
        <ele>88.15478515625</ele>
        <time>2016-09-22T15:08:44.000Z</time>
      </trkpt>
      <trkpt lat="48.70073" lon="2.06278">
        <ele>88.034141540527</ele>
        <time>2016-09-22T15:08:46.000Z</time>
      </trkpt>
      <trkpt lat="48.70075" lon="2.06281">
        <ele>87.93334197998</ele>
        <time>2016-09-22T15:08:48.000Z</time>
      </trkpt>
      <trkpt lat="48.70076" lon="2.06284">
        <ele>87.842407226562</ele>
        <time>2016-09-22T15:08:51.000Z</time>
      </trkpt>
      <trkpt lat="48.70077" lon="2.06287">
        <ele>87.764755249023</ele>
        <time>2016-09-22T15:08:53.000Z</time>
      </trkpt>
      <trkpt lat="48.70079" lon="2.06292">
        <ele>87.690322875977</ele>
        <time>2016-09-22T15:08:56.000Z</time>
      </trkpt>
      <trkpt lat="48.70082" lon="2.06298">
        <ele>87.611892700195</ele>
        <time>2016-09-22T15:08:59.000Z</time>
      </trkpt>
      <trkpt lat="48.70086" lon="2.06303">
        <ele>87.528434753418</ele>
        <time>2016-09-22T15:09:02.000Z</time>
      </trkpt>
      <trkpt lat="48.70088" lon="2.06305">
        <ele>87.446472167969</ele>
        <time>2016-09-22T15:09:04.000Z</time>
      </trkpt>
      <trkpt lat="48.7009" lon="2.06307">
        <ele>87.367446899414</ele>
        <time>2016-09-22T15:09:07.000Z</time>
      </trkpt>
      <trkpt lat="48.70092" lon="2.06311">
        <ele>87.290336608887</ele>
        <time>2016-09-22T15:09:10.000Z</time>
      </trkpt>
      <trkpt lat="48.70096" lon="2.06315">
        <ele>87.216552734375</ele>
        <time>2016-09-22T15:09:13.000Z</time>
      </trkpt>
      <trkpt lat="48.70099" lon="2.06319">
        <ele>87.146575927734</ele>
        <time>2016-09-22T15:09:16.000Z</time>
      </trkpt>
      <trkpt lat="48.701" lon="2.06322">
        <ele>87.077728271484</ele>
        <time>2016-09-22T15:09:18.000Z</time>
      </trkpt>
      <trkpt lat="48.70102" lon="2.06326">
        <ele>87.002136230469</ele>
        <time>2016-09-22T15:09:21.000Z</time>
      </trkpt>
      <trkpt lat="48.70104" lon="2.06331">
        <ele>86.926483154297</ele>
        <time>2016-09-22T15:09:24.000Z</time>
      </trkpt>
      <trkpt lat="48.70106" lon="2.06333">
        <ele>86.859771728516</ele>
        <time>2016-09-22T15:09:26.000Z</time>
      </trkpt>
      <trkpt lat="48.70106" lon="2.06336">
        <ele>86.795532226562</ele>
        <time>2016-09-22T15:09:28.000Z</time>
      </trkpt>
      <trkpt lat="48.70107" lon="2.0634">
        <ele>86.715293884277</ele>
        <time>2016-09-22T15:09:31.000Z</time>
      </trkpt>
      <trkpt lat="48.70108" lon="2.06345">
        <ele>86.623580932617</ele>
        <time>2016-09-22T15:09:33.000Z</time>
      </trkpt>
      <trkpt lat="48.7011" lon="2.0635">
        <ele>86.523574829102</ele>
        <time>2016-09-22T15:09:35.000Z</time>
      </trkpt>
      <trkpt lat="48.70111" lon="2.06358">
        <ele>86.392379760742</ele>
        <time>2016-09-22T15:09:38.000Z</time>
      </trkpt>
      <trkpt lat="48.70113" lon="2.06361">
        <ele>86.258430480957</ele>
        <time>2016-09-22T15:09:40.000Z</time>
      </trkpt>
      <trkpt lat="48.70114" lon="2.06365">
        <ele>86.135917663574</ele>
        <time>2016-09-22T15:09:42.000Z</time>
      </trkpt>
      <trkpt lat="48.70116" lon="2.06368">
        <ele>86.026924133301</ele>
        <time>2016-09-22T15:09:44.000Z</time>
      </trkpt>
      <trkpt lat="48.70118" lon="2.06372">
        <ele>85.924621582031</ele>
        <time>2016-09-22T15:09:47.000Z</time>
      </trkpt>
      <trkpt lat="48.70121" lon="2.06379">
        <ele>85.838806152344</ele>
        <time>2016-09-22T15:09:50.000Z</time>
      </trkpt>
      <trkpt lat="48.70125" lon="2.06384">
        <ele>85.757095336914</ele>
        <time>2016-09-22T15:09:53.000Z</time>
      </trkpt>
      <trkpt lat="48.70125" lon="2.06386">
        <ele>85.684707641602</ele>
        <time>2016-09-22T15:09:55.000Z</time>
      </trkpt>
      <trkpt lat="48.70128" lon="2.0639">
        <ele>85.618629455566</ele>
        <time>2016-09-22T15:09:58.000Z</time>
      </trkpt>
      <trkpt lat="48.70131" lon="2.06393">
        <ele>85.563903808594</ele>
        <time>2016-09-22T15:10:00.000Z</time>
      </trkpt>
      <trkpt lat="48.70132" lon="2.06399">
        <ele>85.523239135742</ele>
        <time>2016-09-22T15:10:03.000Z</time>
      </trkpt>
      <trkpt lat="48.70134" lon="2.06403">
        <ele>85.485488891602</ele>
        <time>2016-09-22T15:10:06.000Z</time>
      </trkpt>
      <trkpt lat="48.70136" lon="2.06406">
        <ele>85.45475769043</ele>
        <time>2016-09-22T15:10:09.000Z</time>
      </trkpt>
      <trkpt lat="48.70138" lon="2.0641">
        <ele>85.431663513184</ele>
        <time>2016-09-22T15:10:11.000Z</time>
      </trkpt>
      <trkpt lat="48.7014" lon="2.06412">
        <ele>85.413833618164</ele>
        <time>2016-09-22T15:10:13.000Z</time>
      </trkpt>
      <trkpt lat="48.70141" lon="2.06415">
        <ele>85.405075073242</ele>
        <time>2016-09-22T15:10:15.000Z</time>
      </trkpt>
      <trkpt lat="48.70143" lon="2.06419">
        <ele>85.402267456055</ele>
        <time>2016-09-22T15:10:17.000Z</time>
      </trkpt>
      <trkpt lat="48.70145" lon="2.06423">
        <ele>85.396911621094</ele>
        <time>2016-09-22T15:10:19.000Z</time>
      </trkpt>
      <trkpt lat="48.70147" lon="2.06428">
        <ele>85.383743286133</ele>
        <time>2016-09-22T15:10:22.000Z</time>
      </trkpt>
      <trkpt lat="48.70148" lon="2.06434">
        <ele>85.359367370605</ele>
        <time>2016-09-22T15:10:25.000Z</time>
      </trkpt>
      <trkpt lat="48.70148" lon="2.06439">
        <ele>85.322891235352</ele>
        <time>2016-09-22T15:10:28.000Z</time>
      </trkpt>
      <trkpt lat="48.70149" lon="2.06443">
        <ele>85.284286499023</ele>
        <time>2016-09-22T15:10:30.000Z</time>
      </trkpt>
      <trkpt lat="48.70152" lon="2.06447">
        <ele>85.254898071289</ele>
        <time>2016-09-22T15:10:33.000Z</time>
      </trkpt>
      <trkpt lat="48.70154" lon="2.06449">
        <ele>85.238319396973</ele>
        <time>2016-09-22T15:10:35.000Z</time>
      </trkpt>
      <trkpt lat="48.70156" lon="2.06454">
        <ele>85.233352661133</ele>
        <time>2016-09-22T15:10:38.000Z</time>
      </trkpt>
      <trkpt lat="48.70158" lon="2.06457">
        <ele>85.241401672363</ele>
        <time>2016-09-22T15:10:40.000Z</time>
      </trkpt>
      <trkpt lat="48.70161" lon="2.06463">
        <ele>85.256675720215</ele>
        <time>2016-09-22T15:10:43.000Z</time>
      </trkpt>
      <trkpt lat="48.70162" lon="2.06467">
        <ele>85.261367797852</ele>
        <time>2016-09-22T15:10:45.000Z</time>
      </trkpt>
      <trkpt lat="48.70163" lon="2.06471">
        <ele>85.257949829102</ele>
        <time>2016-09-22T15:10:48.000Z</time>
      </trkpt>
      <trkpt lat="48.70164" lon="2.06474">
        <ele>85.253509521484</ele>
        <time>2016-09-22T15:10:51.000Z</time>
      </trkpt>
      <trkpt lat="48.70166" lon="2.06476">
        <ele>85.256271362305</ele>
        <time>2016-09-22T15:10:53.000Z</time>
      </trkpt>
      <trkpt lat="48.7017" lon="2.06481">
        <ele>85.182258605957</ele>
        <time>2016-09-22T15:10:56.000Z</time>
      </trkpt>
      <trkpt lat="48.70172" lon="2.06483">
        <ele>85.066589355469</ele>
        <time>2016-09-22T15:10:58.000Z</time>
      </trkpt>
      <trkpt lat="48.70176" lon="2.06488">
        <ele>84.879585266113</ele>
        <time>2016-09-22T15:11:01.000Z</time>
      </trkpt>
      <trkpt lat="48.70177" lon="2.06492">
        <ele>84.644996643066</ele>
        <time>2016-09-22T15:11:03.000Z</time>
      </trkpt>
      <trkpt lat="48.70179" lon="2.06496">
        <ele>84.370544433594</ele>
        <time>2016-09-22T15:11:05.000Z</time>
      </trkpt>
      <trkpt lat="48.7018" lon="2.06499">
        <ele>84.138824462891</ele>
        <time>2016-09-22T15:11:07.000Z</time>
      </trkpt>
      <trkpt lat="48.70182" lon="2.06504">
        <ele>83.888969421387</ele>
        <time>2016-09-22T15:11:10.000Z</time>
      </trkpt>
      <trkpt lat="48.70182" lon="2.06508">
        <ele>83.66690826416</ele>
        <time>2016-09-22T15:11:12.000Z</time>
      </trkpt>
      <trkpt lat="48.70184" lon="2.06512">
        <ele>83.419769287109</ele>
        <time>2016-09-22T15:11:15.000Z</time>
      </trkpt>
      <trkpt lat="48.70186" lon="2.06516">
        <ele>83.147850036621</ele>
        <time>2016-09-22T15:11:17.000Z</time>
      </trkpt>
      <trkpt lat="48.70189" lon="2.06522">
        <ele>82.824897766113</ele>
        <time>2016-09-22T15:11:20.000Z</time>
      </trkpt>
      <trkpt lat="48.7019" lon="2.06524">
        <ele>82.534057617188</ele>
        <time>2016-09-22T15:11:22.000Z</time>
      </trkpt>
      <trkpt lat="48.70191" lon="2.06531">
        <ele>82.217422485352</ele>
        <time>2016-09-22T15:11:25.000Z</time>
      </trkpt>
      <trkpt lat="48.70192" lon="2.06534">
        <ele>81.936424255371</ele>
        <time>2016-09-22T15:11:27.000Z</time>
      </trkpt>
      <trkpt lat="48.70193" lon="2.06537">
        <ele>81.674392700195</ele>
        <time>2016-09-22T15:11:29.000Z</time>
      </trkpt>
      <trkpt lat="48.70195" lon="2.06542">
        <ele>81.436538696289</ele>
        <time>2016-09-22T15:11:32.000Z</time>
      </trkpt>
      <trkpt lat="48.70196" lon="2.06545">
        <ele>81.19450378418</ele>
        <time>2016-09-22T15:11:35.000Z</time>
      </trkpt>
      <trkpt lat="48.70197" lon="2.06548">
        <ele>80.99333190918</ele>
        <time>2016-09-22T15:11:37.000Z</time>
      </trkpt>
      <trkpt lat="48.70199" lon="2.06551">
        <ele>80.78980255127</ele>
        <time>2016-09-22T15:11:40.000Z</time>
      </trkpt>
      <trkpt lat="48.70201" lon="2.06557">
        <ele>80.566833496094</ele>
        <time>2016-09-22T15:11:43.000Z</time>
      </trkpt>
      <trkpt lat="48.70201" lon="2.06561">
        <ele>80.369407653809</ele>
        <time>2016-09-22T15:11:45.000Z</time>
      </trkpt>
      <trkpt lat="48.70201" lon="2.06568">
        <ele>80.17138671875</ele>
        <time>2016-09-22T15:11:48.000Z</time>
      </trkpt>
      <trkpt lat="48.70202" lon="2.06571">
        <ele>79.98014831543</ele>
        <time>2016-09-22T15:11:50.000Z</time>
      </trkpt>
      <trkpt lat="48.70203" lon="2.06577">
        <ele>79.787452697754</ele>
        <time>2016-09-22T15:11:53.000Z</time>
      </trkpt>
      <trkpt lat="48.70205" lon="2.06583">
        <ele>79.598304748535</ele>
        <time>2016-09-22T15:11:56.000Z</time>
      </trkpt>
      <trkpt lat="48.70206" lon="2.06588">
        <ele>79.435737609863</ele>
        <time>2016-09-22T15:11:59.000Z</time>
      </trkpt>
      <trkpt lat="48.70207" lon="2.0659">
        <ele>79.300224304199</ele>
        <time>2016-09-22T15:12:01.000Z</time>
      </trkpt>
      <trkpt lat="48.7021" lon="2.06595">
        <ele>79.17308807373</ele>
        <time>2016-09-22T15:12:04.000Z</time>
      </trkpt>
      <trkpt lat="48.70212" lon="2.066">
        <ele>79.073379516602</ele>
        <time>2016-09-22T15:12:07.000Z</time>
      </trkpt>
      <trkpt lat="48.70213" lon="2.06603">
        <ele>79.023445129395</ele>
        <time>2016-09-22T15:12:09.000Z</time>
      </trkpt>
      <trkpt lat="48.70215" lon="2.06606">
        <ele>78.973518371582</ele>
        <time>2016-09-22T15:12:12.000Z</time>
      </trkpt>
      <trkpt lat="48.70216" lon="2.0661">
        <ele>78.932960510254</ele>
        <time>2016-09-22T15:12:15.000Z</time>
      </trkpt>
      <trkpt lat="48.70216" lon="2.06616">
        <ele>78.920257568359</ele>
        <time>2016-09-22T15:12:18.000Z</time>
      </trkpt>
      <trkpt lat="48.70216" lon="2.0662">
        <ele>78.928382873535</ele>
        <time>2016-09-22T15:12:21.000Z</time>
      </trkpt>
      <trkpt lat="48.70216" lon="2.06623">
        <ele>78.943138122559</ele>
        <time>2016-09-22T15:12:23.000Z</time>
      </trkpt>
      <trkpt lat="48.70216" lon="2.06626">
        <ele>78.971755981445</ele>
        <time>2016-09-22T15:12:25.000Z</time>
      </trkpt>
      <trkpt lat="48.70216" lon="2.06634">
        <ele>79.012985229492</ele>
        <time>2016-09-22T15:12:28.000Z</time>
      </trkpt>
      <trkpt lat="48.70217" lon="2.06637">
        <ele>79.044586181641</ele>
        <time>2016-09-22T15:12:30.000Z</time>
      </trkpt>
      <trkpt lat="48.70218" lon="2.06642">
        <ele>79.073501586914</ele>
        <time>2016-09-22T15:12:33.000Z</time>
      </trkpt>
      <trkpt lat="48.70218" lon="2.06646">
        <ele>79.108863830566</ele>
        <time>2016-09-22T15:12:35.000Z</time>
      </trkpt>
      <trkpt lat="48.70219" lon="2.06651">
        <ele>79.144599914551</ele>
        <time>2016-09-22T15:12:38.000Z</time>
      </trkpt>
      <trkpt lat="48.70221" lon="2.0666">
        <ele>79.178329467773</ele>
        <time>2016-09-22T15:12:40.000Z</time>
      </trkpt>
      <trkpt lat="48.70222" lon="2.06663">
        <ele>79.214302062988</ele>
        <time>2016-09-22T15:12:42.000Z</time>
      </trkpt>
      <trkpt lat="48.70222" lon="2.06667">
        <ele>79.253662109375</ele>
        <time>2016-09-22T15:12:45.000Z</time>
      </trkpt>
      <trkpt lat="48.70223" lon="2.06672">
        <ele>79.283042907715</ele>
        <time>2016-09-22T15:12:47.000Z</time>
      </trkpt>
      <trkpt lat="48.70224" lon="2.06676">
        <ele>79.30298614502</ele>
        <time>2016-09-22T15:12:50.000Z</time>
      </trkpt>
      <trkpt lat="48.70226" lon="2.06682">
        <ele>79.307479858398</ele>
        <time>2016-09-22T15:12:53.000Z</time>
      </trkpt>
      <trkpt lat="48.70227" lon="2.06686">
        <ele>79.3037109375</ele>
        <time>2016-09-22T15:12:55.000Z</time>
      </trkpt>
      <trkpt lat="48.70229" lon="2.0669">
        <ele>79.2880859375</ele>
        <time>2016-09-22T15:12:58.000Z</time>
      </trkpt>
      <trkpt lat="48.70232" lon="2.06697">
        <ele>79.2685546875</ele>
        <time>2016-09-22T15:13:01.000Z</time>
      </trkpt>
      <trkpt lat="48.70235" lon="2.06701">
        <ele>79.2431640625</ele>
        <time>2016-09-22T15:13:04.000Z</time>
      </trkpt>
      <trkpt lat="48.70236" lon="2.06704">
        <ele>79.21875</ele>
        <time>2016-09-22T15:13:06.000Z</time>
      </trkpt>
      <trkpt lat="48.70238" lon="2.06709">
        <ele>79.193359375</ele>
        <time>2016-09-22T15:13:09.000Z</time>
      </trkpt>
      <trkpt lat="48.70238" lon="2.06712">
        <ele>79.171875</ele>
        <time>2016-09-22T15:13:11.000Z</time>
      </trkpt>
      <trkpt lat="48.70238" lon="2.06718">
        <ele>79.15625</ele>
        <time>2016-09-22T15:13:14.000Z</time>
      </trkpt>
      <trkpt lat="48.70238" lon="2.0672">
        <ele>79.1484375</ele>
        <time>2016-09-22T15:13:16.000Z</time>
      </trkpt>
      <trkpt lat="48.70238" lon="2.06724">
        <ele>79.14453125</ele>
        <time>2016-09-22T15:13:19.000Z</time>
      </trkpt>
      <trkpt lat="48.70237" lon="2.06728">
        <ele>79.146484375</ele>
        <time>2016-09-22T15:13:21.000Z</time>
      </trkpt>
      <trkpt lat="48.70237" lon="2.06733">
        <ele>79.1494140625</ele>
        <time>2016-09-22T15:13:24.000Z</time>
      </trkpt>
      <trkpt lat="48.70237" lon="2.06736">
        <ele>79.15234375</ele>
        <time>2016-09-22T15:13:26.000Z</time>
      </trkpt>
      <trkpt lat="48.70238" lon="2.0674">
        <ele>79.1533203125</ele>
        <time>2016-09-22T15:13:29.000Z</time>
      </trkpt>
      <trkpt lat="48.70238" lon="2.06745">
        <ele>79.15234375</ele>
        <time>2016-09-22T15:13:32.000Z</time>
      </trkpt>
      <trkpt lat="48.70238" lon="2.06749">
        <ele>79.1494140625</ele>
        <time>2016-09-22T15:13:35.000Z</time>
      </trkpt>
      <trkpt lat="48.70239" lon="2.06753">
        <ele>79.1435546875</ele>
        <time>2016-09-22T15:13:37.000Z</time>
      </trkpt>
      <trkpt lat="48.7024" lon="2.06756">
        <ele>79.13671875</ele>
        <time>2016-09-22T15:13:39.000Z</time>
      </trkpt>
      <trkpt lat="48.70242" lon="2.0676">
        <ele>79.126953125</ele>
        <time>2016-09-22T15:13:42.000Z</time>
      </trkpt>
      <trkpt lat="48.70242" lon="2.06763">
        <ele>79.1181640625</ele>
        <time>2016-09-22T15:13:44.000Z</time>
      </trkpt>
      <trkpt lat="48.70243" lon="2.06765">
        <ele>79.1083984375</ele>
        <time>2016-09-22T15:13:47.000Z</time>
      </trkpt>
      <trkpt lat="48.70243" lon="2.06767">
        <ele>79.099609375</ele>
        <time>2016-09-22T15:13:49.000Z</time>
      </trkpt>
      <trkpt lat="48.70244" lon="2.06771">
        <ele>79.08984375</ele>
        <time>2016-09-22T15:13:52.000Z</time>
      </trkpt>
      <trkpt lat="48.70245" lon="2.06777">
        <ele>79.0830078125</ele>
        <time>2016-09-22T15:13:55.000Z</time>
      </trkpt>
      <trkpt lat="48.70246" lon="2.0678">
        <ele>79.0732421875</ele>
        <time>2016-09-22T15:13:57.000Z</time>
      </trkpt>
      <trkpt lat="48.70247" lon="2.06788">
        <ele>79.0625</ele>
        <time>2016-09-22T15:14:00.000Z</time>
      </trkpt>
      <trkpt lat="48.70247" lon="2.06793">
        <ele>79.0517578125</ele>
        <time>2016-09-22T15:14:02.000Z</time>
      </trkpt>
      <trkpt lat="48.70248" lon="2.06796">
        <ele>79.041015625</ele>
        <time>2016-09-22T15:14:04.000Z</time>
      </trkpt>
      <trkpt lat="48.70248" lon="2.068">
        <ele>79.0322265625</ele>
        <time>2016-09-22T15:14:06.000Z</time>
      </trkpt>
      <trkpt lat="48.70248" lon="2.06804">
        <ele>79.0263671875</ele>
        <time>2016-09-22T15:14:08.000Z</time>
      </trkpt>
      <trkpt lat="48.70248" lon="2.06811">
        <ele>79.0234375</ele>
        <time>2016-09-22T15:14:11.000Z</time>
      </trkpt>
      <trkpt lat="48.70249" lon="2.06817">
        <ele>79.0205078125</ele>
        <time>2016-09-22T15:14:14.000Z</time>
      </trkpt>
      <trkpt lat="48.70249" lon="2.06822">
        <ele>79.0185546875</ele>
        <time>2016-09-22T15:14:17.000Z</time>
      </trkpt>
      <trkpt lat="48.7025" lon="2.06829">
        <ele>79.015625</ele>
        <time>2016-09-22T15:14:20.000Z</time>
      </trkpt>
      <trkpt lat="48.70251" lon="2.06832">
        <ele>79.00505065918</ele>
        <time>2016-09-22T15:14:22.000Z</time>
      </trkpt>
      <trkpt lat="48.70251" lon="2.06836">
        <ele>79.004745483398</ele>
        <time>2016-09-22T15:14:25.000Z</time>
      </trkpt>
      <trkpt lat="48.70251" lon="2.0684">
        <ele>79.020217895508</ele>
        <time>2016-09-22T15:14:27.000Z</time>
      </trkpt>
      <trkpt lat="48.70252" lon="2.06846">
        <ele>79.055587768555</ele>
        <time>2016-09-22T15:14:30.000Z</time>
      </trkpt>
      <trkpt lat="48.70253" lon="2.0685">
        <ele>79.106224060059</ele>
        <time>2016-09-22T15:14:32.000Z</time>
      </trkpt>
      <trkpt lat="48.70253" lon="2.06857">
        <ele>79.189926147461</ele>
        <time>2016-09-22T15:14:35.000Z</time>
      </trkpt>
      <trkpt lat="48.70253" lon="2.06861">
        <ele>79.280212402344</ele>
        <time>2016-09-22T15:14:37.000Z</time>
      </trkpt>
      <trkpt lat="48.70254" lon="2.06868">
        <ele>79.377838134766</ele>
        <time>2016-09-22T15:14:40.000Z</time>
      </trkpt>
      <trkpt lat="48.70254" lon="2.06872">
        <ele>79.47575378418</ele>
        <time>2016-09-22T15:14:42.000Z</time>
      </trkpt>
      <trkpt lat="48.70253" lon="2.06878">
        <ele>79.596488952637</ele>
        <time>2016-09-22T15:14:45.000Z</time>
      </trkpt>
      <trkpt lat="48.70254" lon="2.06882">
        <ele>79.700576782227</ele>
        <time>2016-09-22T15:14:47.000Z</time>
      </trkpt>
      <trkpt lat="48.70256" lon="2.06888">
        <ele>79.797782897949</ele>
        <time>2016-09-22T15:14:50.000Z</time>
      </trkpt>
      <trkpt lat="48.70256" lon="2.06892">
        <ele>79.879188537598</ele>
        <time>2016-09-22T15:14:52.000Z</time>
      </trkpt>
      <trkpt lat="48.70256" lon="2.06898">
        <ele>79.974975585938</ele>
        <time>2016-09-22T15:14:55.000Z</time>
      </trkpt>
      <trkpt lat="48.70255" lon="2.06902">
        <ele>80.068183898926</ele>
        <time>2016-09-22T15:14:57.000Z</time>
      </trkpt>
      <trkpt lat="48.70256" lon="2.06908">
        <ele>80.166122436523</ele>
        <time>2016-09-22T15:15:00.000Z</time>
      </trkpt>
      <trkpt lat="48.70256" lon="2.06912">
        <ele>80.273483276367</ele>
        <time>2016-09-22T15:15:02.000Z</time>
      </trkpt>
      <trkpt lat="48.70256" lon="2.06918">
        <ele>80.390991210938</ele>
        <time>2016-09-22T15:15:05.000Z</time>
      </trkpt>
      <trkpt lat="48.70257" lon="2.06921">
        <ele>80.459098815918</ele>
        <time>2016-09-22T15:15:07.000Z</time>
      </trkpt>
      <trkpt lat="48.70258" lon="2.06926">
        <ele>80.479049682617</ele>
        <time>2016-09-22T15:15:10.000Z</time>
      </trkpt>
      <trkpt lat="48.70259" lon="2.06931">
        <ele>80.483901977539</ele>
        <time>2016-09-22T15:15:13.000Z</time>
      </trkpt>
      <trkpt lat="48.70259" lon="2.06933">
        <ele>80.465484619141</ele>
        <time>2016-09-22T15:15:15.000Z</time>
      </trkpt>
      <trkpt lat="48.7026" lon="2.06935">
        <ele>80.422241210938</ele>
        <time>2016-09-22T15:15:18.000Z</time>
      </trkpt>
      <trkpt lat="48.7026" lon="2.06939">
        <ele>80.392807006836</ele>
        <time>2016-09-22T15:15:20.000Z</time>
      </trkpt>
      <trkpt lat="48.70259" lon="2.06944">
        <ele>80.391647338867</ele>
        <time>2016-09-22T15:15:23.000Z</time>
      </trkpt>
      <trkpt lat="48.70261" lon="2.06947">
        <ele>80.384323120117</ele>
        <time>2016-09-22T15:15:26.000Z</time>
      </trkpt>
      <trkpt lat="48.70262" lon="2.0695">
        <ele>80.36937713623</ele>
        <time>2016-09-22T15:15:28.000Z</time>
      </trkpt>
      <trkpt lat="48.70263" lon="2.06954">
        <ele>80.353408813477</ele>
        <time>2016-09-22T15:15:31.000Z</time>
      </trkpt>
      <trkpt lat="48.70266" lon="2.06957">
        <ele>80.306831359863</ele>
        <time>2016-09-22T15:15:34.000Z</time>
      </trkpt>
      <trkpt lat="48.70267" lon="2.06959">
        <ele>80.240432739258</ele>
        <time>2016-09-22T15:15:36.000Z</time>
      </trkpt>
      <trkpt lat="48.70268" lon="2.06962">
        <ele>80.173721313477</ele>
        <time>2016-09-22T15:15:38.000Z</time>
      </trkpt>
      <trkpt lat="48.70271" lon="2.06967">
        <ele>80.10173034668</ele>
        <time>2016-09-22T15:15:41.000Z</time>
      </trkpt>
      <trkpt lat="48.70273" lon="2.06971">
        <ele>80.026596069336</ele>
        <time>2016-09-22T15:15:43.000Z</time>
      </trkpt>
      <trkpt lat="48.70275" lon="2.06977">
        <ele>79.972221374512</ele>
        <time>2016-09-22T15:15:46.000Z</time>
      </trkpt>
      <trkpt lat="48.70275" lon="2.06981">
        <ele>79.929382324219</ele>
        <time>2016-09-22T15:15:49.000Z</time>
      </trkpt>
      <trkpt lat="48.70275" lon="2.06987">
        <ele>79.910110473633</ele>
        <time>2016-09-22T15:15:52.000Z</time>
      </trkpt>
      <trkpt lat="48.70275" lon="2.06994">
        <ele>79.922271728516</ele>
        <time>2016-09-22T15:15:55.000Z</time>
      </trkpt>
      <trkpt lat="48.70276" lon="2.06997">
        <ele>79.949157714844</ele>
        <time>2016-09-22T15:15:57.000Z</time>
      </trkpt>
      <trkpt lat="48.70277" lon="2.07001">
        <ele>79.986434936523</ele>
        <time>2016-09-22T15:15:59.000Z</time>
      </trkpt>
      <trkpt lat="48.70278" lon="2.07005">
        <ele>80.021324157715</ele>
        <time>2016-09-22T15:16:01.000Z</time>
      </trkpt>
      <trkpt lat="48.70279" lon="2.07012">
        <ele>80.047203063965</ele>
        <time>2016-09-22T15:16:04.000Z</time>
      </trkpt>
      <trkpt lat="48.70279" lon="2.07013">
        <ele>80.061599731445</ele>
        <time>2016-09-22T15:16:06.000Z</time>
      </trkpt>
      <trkpt lat="48.70282" lon="2.07019">
        <ele>80.058547973633</ele>
        <time>2016-09-22T15:16:09.000Z</time>
      </trkpt>
      <trkpt lat="48.70284" lon="2.07025">
        <ele>80.056747436523</ele>
        <time>2016-09-22T15:16:11.000Z</time>
      </trkpt>
      <trkpt lat="48.70285" lon="2.07033">
        <ele>80.054428100586</ele>
        <time>2016-09-22T15:16:14.000Z</time>
      </trkpt>
      <trkpt lat="48.70285" lon="2.07037">
        <ele>80.048141479492</ele>
        <time>2016-09-22T15:16:16.000Z</time>
      </trkpt>
      <trkpt lat="48.70286" lon="2.07043">
        <ele>80.04500579834</ele>
        <time>2016-09-22T15:16:19.000Z</time>
      </trkpt>
      <trkpt lat="48.70286" lon="2.07045">
        <ele>80.060745239258</ele>
        <time>2016-09-22T15:16:22.000Z</time>
      </trkpt>
      <trkpt lat="48.70285" lon="2.07046">
        <ele>80.083648681641</ele>
        <time>2016-09-22T15:16:24.000Z</time>
      </trkpt>
      <trkpt lat="48.70282" lon="2.07052">
        <ele>80.15055847168</ele>
        <time>2016-09-22T15:16:27.000Z</time>
      </trkpt>
      <trkpt lat="48.70281" lon="2.07059">
        <ele>80.245567321777</ele>
        <time>2016-09-22T15:16:38.000Z</time>
      </trkpt>
      <trkpt lat="48.70282" lon="2.07064">
        <ele>80.329307556152</ele>
        <time>2016-09-22T15:16:41.000Z</time>
      </trkpt>
      <trkpt lat="48.70282" lon="2.07068">
        <ele>80.417343139648</ele>
        <time>2016-09-22T15:16:43.000Z</time>
      </trkpt>
      <trkpt lat="48.70283" lon="2.07074">
        <ele>80.499214172363</ele>
        <time>2016-09-22T15:16:46.000Z</time>
      </trkpt>
      <trkpt lat="48.70282" lon="2.0708">
        <ele>80.562744140625</ele>
        <time>2016-09-22T15:16:49.000Z</time>
      </trkpt>
      <trkpt lat="48.70281" lon="2.07085">
        <ele>80.615585327148</ele>
        <time>2016-09-22T15:16:52.000Z</time>
      </trkpt>
      <trkpt lat="48.70281" lon="2.07085">
        <ele>80.615585327148</ele>
        <time>2016-09-22T15:16:54.000Z</time>
      </trkpt>
    </trkseg>
  </trk>
</gpx>